
Distance (Route):
Temperature : 19.6°C
Humidity : 52.1%
Pressure : 943.0hPa| Receiver | Frames | First received | Last received |
|---|---|---|---|
| DO3MHA-11 | 578 | 2026-09-01 10:46:27 | 2026-09-01 13:03:44 |
| OE5MMP-10 | 517 | 2026-09-01 11:13:34 | 2026-09-01 13:03:11 |
| BAUMI2-15 | 291 | 2026-09-01 11:34:27 | 2026-09-01 12:51:52 |
| OE5WHR-10 | 228 | 2026-09-01 11:06:07 | 2026-09-01 13:01:23 |
| OE5FHM-15 | 167 | 2026-09-01 11:19:35 | 2026-09-01 13:00:51 |
| OE5DXL-15 | 166 | 2026-09-01 10:53:41 | 2026-09-01 13:05:09 |
| OE5REO-15 | 155 | 2026-09-01 11:34:47 | 2026-09-01 12:57:34 |
| DL6DJ-15 | 141 | 2026-09-01 10:51:20 | 2026-09-01 12:55:04 |
| OE5DRO-10 | 140 | 2026-09-01 10:59:01 | 2026-09-01 13:01:51 |
| OE3JTB-15 | 120 | 2026-09-01 10:57:18 | 2026-09-01 13:04:20 |
| PG1ADW-2 | 118 | 2026-09-01 11:03:11 | 2026-09-01 13:01:13 |
| OE5HKT-10 | 94 | 2026-09-01 11:33:15 | 2026-09-01 12:59:52 |
| DO7DH-14 | 91 | 2026-09-01 11:40:41 | 2026-09-01 12:49:29 |
| PETON7-10 | 84 | 2026-09-01 11:37:49 | 2026-09-01 12:11:21 |
| DG1MFX-10 | 67 | 2026-09-01 11:53:50 | 2026-09-01 13:01:57 |
| OE8JPQ-2 | 50 | 2026-09-01 12:03:25 | 2026-09-01 12:41:22 |
| DK5PH-5 | 36 | 2026-09-01 11:28:15 | 2026-09-01 12:49:08 |
| DB0UT-7 | 19 | 2026-09-01 11:07:13 | 2026-09-01 11:53:55 |
| OM5KV | 15 | 2026-09-01 12:37:25 | 2026-09-01 12:42:43 |
| S52SK | 10 | 2026-09-01 11:32:00 | 2026-09-01 11:33:06 |
| NBG1-10 | 7 | 2026-09-01 11:08:45 | 2026-09-01 11:57:09 |
| DH7VM-15 | 6 | 2026-09-01 11:20:43 | 2026-09-01 11:33:02 |
| DF3TZ-5 | 4 | 2026-09-01 11:08:48 | 2026-09-01 11:16:34 |
| DG1MJG | 1 | 2026-09-01 12:11:23 | 2026-09-01 12:11:23 |
| Receiver | Date | Latitude | Longitude | Direction | Speed | Altitude | Climb | Temperature | Humidity | Pressure | Voltage | Killtimer | Uptime | BKT | XDATA |
|---|---|---|---|---|---|---|---|---|---|---|---|---|---|---|---|
| OE5DXL-15 | 2026-09-01 13:05:09 | 48.38403 | 12.90908 | 130° | 11km/h | 721m | -9.1m/s | 19.6°C | 52.1% | 943.0hPa | 2.6V | 08:02:00 | 00:00:00 | 00:00:00 | |
| OE5DXL-15 | 2026-09-01 13:05:03 | 48.38414 | 12.90888 | 125° | 11km/h | 777m | -10.3m/s | 19.2°C | 53.1% | 936.8hPa | 2.6V | 00:00:00 | 00:00:00 | 00:00:00 | |
| OE5DXL-15 | 2026-09-01 13:04:57 | 48.38419 | 12.90864 | 98° | 13km/h | 826m | -7.1m/s | 18.6°C | 53.9% | 931.0hPa | 2.6V | 00:00:00 | 00:00:00 | 00:00:00 | |
| OE5DXL-15 | 2026-09-01 13:04:51 | 48.38425 | 12.90837 | 115° | 11km/h | 860m | -6.4m/s | 18.5°C | 54.8% | 927.1hPa | 2.6V | 00:00:00 | 00:00:00 | 00:00:00 | |
| OE5DXL-15 | 2026-09-01 13:04:45 | 48.38431 | 12.90814 | 105° | 9km/h | 900m | -6.8m/s | 18.0°C | 56.3% | 922.9hPa | 2.7V | 00:00:00 | 00:00:00 | 00:00:00 | |
| OE5DXL-15 | 2026-09-01 13:04:39 | 48.38436 | 12.90793 | 120° | 13km/h | 940m | -7.6m/s | 17.7°C | 57.0% | 918.6hPa | 2.7V | 00:00:00 | 00:00:00 | 00:00:00 | |
| OE5DXL-15 | 2026-09-01 13:04:33 | 48.38445 | 12.90767 | 114° | 9km/h | 983m | -7.5m/s | 17.0°C | 59.3% | 913.8hPa | 2.7V | 00:00:00 | 00:00:00 | 00:00:00 | |
| OE5DXL-15 | 2026-09-01 13:04:27 | 48.38452 | 12.90747 | 115° | 11km/h | 1029m | -7.0m/s | 16.6°C | 60.6% | 909.0hPa | 2.7V | 00:00:00 | 00:00:00 | 00:00:00 | |
| OE5DXL-15 | 2026-09-01 13:04:21 | 48.38460 | 12.90723 | 124° | 11km/h | 1069m | -5.9m/s | 16.2°C | 61.6% | 904.6hPa | 2.7V | 00:00:00 | 00:00:00 | 00:00:00 | |
| OE3JTB-15 | 2026-09-01 13:04:20 | 48.38466 | 12.90714 | 140° | 11km/h | 1087m | -6.2m/s | 16.1°C | 62.0% | 902.8hPa | 2.7V | 00:00:00 | 00:00:00 | 00:00:00 | |
| OE3JTB-15 | 2026-09-01 13:04:18 | 48.38470 | 12.90708 | 137° | 11km/h | 1099m | -6.1m/s | 16.0°C | 62.2% | 901.4hPa | 2.7V | 00:00:00 | 02:34:35 | 00:00:00 | |
| OE5DXL-15 | 2026-09-01 13:04:15 | 48.38472 | 12.90706 | 133° | 13km/h | 1106m | -6.3m/s | 15.9°C | 62.3% | 900.9hPa | 2.7V | 08:03:00 | 00:00:00 | 00:00:00 | |
| OE3JTB-15 | 2026-09-01 13:04:13 | 48.38477 | 12.90695 | 126° | 13km/h | 1124m | -6.4m/s | 15.7°C | 63.4% | 898.9hPa | 2.7V | 00:00:00 | 00:00:00 | 00:00:00 | |
| OE3JTB-15 | 2026-09-01 13:04:11 | 48.38480 | 12.90687 | 123° | 13km/h | 1137m | -6.7m/s | 15.6°C | 63.8% | 897.6hPa | 2.7V | 00:00:00 | 02:34:29 | 00:00:00 | |
| OE5DXL-15 | 2026-09-01 13:04:09 | 48.38482 | 12.90683 | 121° | 13km/h | 1144m | -6.9m/s | 15.5°C | 63.9% | 896.9hPa | 2.7V | 00:00:00 | 00:00:00 | 00:00:00 | |
| OE3JTB-15 | 2026-09-01 13:04:07 | 48.38488 | 12.90670 | 123° | 15km/h | 1162m | -5.6m/s | 15.4°C | 64.3% | 894.9hPa | 2.7V | 00:00:00 | 00:00:00 | 00:00:00 | |
| OE3JTB-15 | 2026-09-01 13:04:06 | 48.38490 | 12.90665 | 122° | 13km/h | 1168m | -6.9m/s | 15.4°C | 64.4% | 894.3hPa | 2.7V | 00:00:00 | 02:34:24 | 00:00:00 | |
| OE3JTB-15 | 2026-09-01 13:04:03 | 48.38493 | 12.90657 | 125° | 15km/h | 1183m | -7.3m/s | 15.2°C | 64.9% | 892.9hPa | 2.7V | 00:00:00 | 00:00:00 | 00:00:00 | |
| OE5DXL-15 | 2026-09-01 13:04:03 | 48.38493 | 12.90657 | 125° | 15km/h | 1183m | -7.3m/s | 15.2°C | 64.9% | 892.9hPa | 2.6V | 00:00:00 | 00:00:00 | 00:00:00 | |
| OE3JTB-15 | 2026-09-01 13:04:01 | 48.38499 | 12.90648 | 132° | 15km/h | 1199m | -8.3m/s | 15.0°C | 65.4% | 891.5hPa | 2.6V | 00:00:00 | 00:00:00 | 00:00:00 | |
| OE3JTB-15 | 2026-09-01 13:03:59 | 48.38504 | 12.90640 | 135° | 15km/h | 1214m | -7.7m/s | 14.8°C | 65.7% | 889.8hPa | 2.6V | 00:00:00 | 02:34:18 | 00:00:00 | |
| OE3JTB-15 | 2026-09-01 13:03:57 | 48.38508 | 12.90632 | 113° | 15km/h | 1230m | -8.6m/s | 14.6°C | 66.1% | 888.0hPa | 2.6V | 08:03:00 | 00:00:00 | 00:00:00 | |
| OE5DXL-15 | 2026-09-01 13:03:57 | 48.38508 | 12.90632 | 113° | 15km/h | 1230m | -8.6m/s | 14.6°C | 66.1% | 888.0hPa | 2.6V | 00:00:00 | 00:00:00 | 00:00:00 | |
| OE3JTB-15 | 2026-09-01 13:03:55 | 48.38511 | 12.90622 | 111° | 15km/h | 1247m | -9.0m/s | 14.4°C | 65.8% | 886.1hPa | 2.7V | 00:00:00 | 00:00:00 | 00:00:00 | |
| OE3JTB-15 | 2026-09-01 13:03:53 | 48.38513 | 12.90612 | 107° | 15km/h | 1265m | -8.7m/s | 14.3°C | 65.0% | 884.3hPa | 2.7V | 00:00:00 | 02:34:12 | 00:00:00 | |
| OE3JTB-15 | 2026-09-01 13:03:51 | 48.38516 | 12.90601 | 107° | 15km/h | 1282m | -8.8m/s | 14.1°C | 66.0% | 882.4hPa | 2.7V | 00:00:00 | 00:00:00 | 00:00:00 | |
| OE5DXL-15 | 2026-09-01 13:03:51 | 48.38516 | 12.90601 | 107° | 15km/h | 1282m | -8.8m/s | 14.1°C | 66.0% | 882.4hPa | 2.7V | 00:00:00 | 00:00:00 | 00:00:00 | |
| OE3JTB-15 | 2026-09-01 13:03:49 | 48.38518 | 12.90590 | 114° | 13km/h | 1300m | -8.9m/s | 14.0°C | 66.2% | 880.5hPa | 2.7V | 00:00:00 | 00:00:00 | 00:00:00 | |
| OE3JTB-15 | 2026-09-01 13:03:47 | 48.38521 | 12.90581 | 119° | 15km/h | 1318m | -8.8m/s | 13.8°C | 68.4% | 878.7hPa | 2.7V | 00:00:00 | 02:34:06 | 00:00:00 | |
| OE3JTB-15 | 2026-09-01 13:03:45 | 48.38524 | 12.90571 | 110° | 15km/h | 1335m | -8.5m/s | 13.6°C | 68.4% | 877.0hPa | 2.7V | 00:00:00 | 00:00:00 | 00:00:00 | |
| OE5DXL-15 | 2026-09-01 13:03:45 | 48.38524 | 12.90571 | 110° | 15km/h | 1335m | -8.5m/s | 13.6°C | 68.4% | 877.0hPa | 2.7V | 00:00:00 | 00:00:00 | 00:00:00 | |
| DO3MHA-11 | 2026-09-01 13:03:44 | 48.38525 | 12.90566 | 108° | 15km/h | 1343m | -8.8m/s | 13.6°C | 66.5% | 876.2hPa | 2.7V | 00:00:00 | 02:34:03 | 00:00:00 | |
| OE3JTB-15 | 2026-09-01 13:03:43 | 48.38527 | 12.90560 | 107° | 15km/h | 1352m | -8.2m/s | 13.5°C | 67.5% | 875.2hPa | 2.7V | 00:00:00 | 00:00:00 | 00:00:00 | |
| DO3MHA-11 | 2026-09-01 13:03:42 | 48.38528 | 12.90555 | 107° | 15km/h | 1360m | -7.2m/s | 13.5°C | 65.9% | 874.3hPa | 2.7V | 00:00:00 | 02:34:01 | 00:00:00 | |
| OE3JTB-15 | 2026-09-01 13:03:41 | 48.38529 | 12.90549 | 108° | 15km/h | 1367m | -7.5m/s | 13.4°C | 68.3% | 873.5hPa | 2.6V | 00:00:00 | 02:34:00 | 00:00:00 | |
| DO3MHA-11 | 2026-09-01 13:03:40 | 48.38530 | 12.90544 | 109° | 15km/h | 1375m | -7.7m/s | 13.3°C | 67.3% | 872.7hPa | 2.6V | 00:00:00 | 02:33:59 | 00:00:00 | |
| OE3JTB-15 | 2026-09-01 13:03:39 | 48.38531 | 12.90539 | 109° | 15km/h | 1383m | -7.7m/s | 13.3°C | 65.2% | 871.9hPa | 2.6V | 08:04:00 | 00:00:00 | 00:00:00 | |
| OE5DXL-15 | 2026-09-01 13:03:39 | 48.38531 | 12.90539 | 109° | 16km/h | 1383m | -7.7m/s | 13.3°C | 65.2% | 871.9hPa | 2.6V | 00:00:00 | 00:00:00 | 00:00:00 | |
| DO3MHA-11 | 2026-09-01 13:03:38 | 48.38532 | 12.90534 | 101° | 16km/h | 1390m | -8.1m/s | 13.2°C | 66.8% | 871.1hPa | 2.7V | 00:00:00 | 02:33:57 | 00:00:00 | |
| OE3JTB-15 | 2026-09-01 13:03:37 | 48.38533 | 12.90527 | 99° | 16km/h | 1398m | -8.1m/s | 13.1°C | 68.3% | 870.3hPa | 2.7V | 00:00:00 | 00:00:00 | 00:00:00 | |
| DO3MHA-11 | 2026-09-01 13:03:36 | 48.38534 | 12.90521 | 102° | 16km/h | 1407m | -7.9m/s | 13.0°C | 68.2% | 869.4hPa | 2.7V | 08:04:00 | 02:33:55 | 00:00:00 | |
| OE3JTB-15 | 2026-09-01 13:03:35 | 48.38534 | 12.90515 | 101° | 18km/h | 1415m | -7.8m/s | 13.0°C | 67.6% | 868.6hPa | 2.7V | 00:00:00 | 02:33:54 | 00:00:00 | |
| DO3MHA-11 | 2026-09-01 13:03:34 | 48.38535 | 12.90509 | 97° | 18km/h | 1422m | -8.0m/s | 12.9°C | 67.3% | 867.8hPa | 2.7V | 00:00:00 | 02:33:53 | 00:00:00 | |
| OE3JTB-15 | 2026-09-01 13:03:33 | 48.38536 | 12.90502 | 94° | 18km/h | 1430m | -8.5m/s | 12.9°C | 64.2% | 867.0hPa | 2.7V | 00:00:00 | 00:00:00 | 00:00:00 | |
| OE5DXL-15 | 2026-09-01 13:03:33 | 48.38536 | 12.90502 | 94° | 18km/h | 1430m | -8.5m/s | 12.9°C | 64.2% | 867.0hPa | 2.6V | 00:00:00 | 00:00:00 | 00:00:00 | |
| DO3MHA-11 | 2026-09-01 13:03:32 | 48.38536 | 12.90495 | 92° | 18km/h | 1439m | -8.1m/s | 12.9°C | 64.4% | 866.1hPa | 2.6V | 00:00:00 | 02:33:51 | 00:00:00 | |
| OE3JTB-15 | 2026-09-01 13:03:31 | 48.38536 | 12.90488 | 96° | 18km/h | 1447m | -7.6m/s | 12.8°C | 65.0% | 865.2hPa | 2.6V | 00:00:00 | 00:00:00 | 00:00:00 | |
| DO3MHA-11 | 2026-09-01 13:03:30 | 48.38536 | 12.90482 | 92° | 18km/h | 1455m | -7.7m/s | 12.7°C | 65.3% | 864.6hPa | 2.6V | 00:00:00 | 02:33:49 | 00:00:00 | |
| OE3JTB-15 | 2026-09-01 13:03:29 | 48.38537 | 12.90475 | 99° | 16km/h | 1462m | -7.6m/s | 12.6°C | 64.9% | 863.6hPa | 2.7V | 00:00:00 | 02:33:48 | 00:00:00 | |
| DO3MHA-11 | 2026-09-01 13:03:28 | 48.38537 | 12.90468 | 97° | 18km/h | 1470m | -7.9m/s | 12.6°C | 65.3% | 862.9hPa | 2.7V | 00:00:00 | 02:33:47 | 00:00:00 | |
| OE3JTB-15 | 2026-09-01 13:03:27 | 48.38538 | 12.90462 | 98° | 18km/h | 1478m | -7.6m/s | 12.5°C | 65.7% | 862.1hPa | 2.7V | 00:00:00 | 00:00:00 | 00:00:00 | |
| OE5DXL-15 | 2026-09-01 13:03:27 | 48.38538 | 12.90462 | 98° | 20km/h | 1478m | -7.6m/s | 12.5°C | 65.7% | 862.1hPa | 2.7V | 00:00:00 | 00:00:00 | 00:00:00 | |
| DO3MHA-11 | 2026-09-01 13:03:26 | 48.38538 | 12.90455 | 99° | 18km/h | 1486m | -8.4m/s | 12.4°C | 66.3% | 861.2hPa | 2.7V | 00:00:00 | 02:33:45 | 00:00:00 | |
| OE3JTB-15 | 2026-09-01 13:03:25 | 48.38540 | 12.90442 | 99° | 20km/h | 1502m | -7.7m/s | 12.3°C | 67.8% | 859.5hPa | 2.7V | 00:00:00 | 00:00:00 | 00:00:00 | |
| DO3MHA-11 | 2026-09-01 13:03:24 | 48.38540 | 12.90442 | 99° | 20km/h | 1502m | -7.7m/s | 12.3°C | 67.8% | 859.5hPa | 2.7V | 00:00:00 | 02:33:43 | 00:00:00 | |
| OE3JTB-15 | 2026-09-01 13:03:23 | 48.38541 | 12.90427 | 94° | 18km/h | 1518m | -7.7m/s | 12.1°C | 67.7% | 857.8hPa | 2.7V | 00:00:00 | 02:33:41 | 00:00:00 | |
| OE3JTB-15 | 2026-09-01 13:03:20 | 48.38542 | 12.90412 | 91° | 20km/h | 1532m | -7.0m/s | 12.0°C | 68.3% | 856.3hPa | 2.7V | 08:04:00 | 00:00:00 | 00:00:00 | |
| DO3MHA-11 | 2026-09-01 13:03:19 | 48.38542 | 12.90405 | 89° | 20km/h | 1540m | -7.8m/s | 11.9°C | 68.6% | 855.7hPa | 2.7V | 00:00:00 | 02:33:38 | 00:00:00 | |
| OE3JTB-15 | 2026-09-01 13:03:18 | 48.38541 | 12.90390 | 86° | 20km/h | 1554m | -7.0m/s | 11.8°C | 67.3% | 854.0hPa | 2.7V | 00:00:00 | 00:00:00 | 00:00:00 | |
| OE3JTB-15 | 2026-09-01 13:03:16 | 48.38541 | 12.90375 | 92° | 20km/h | 1567m | -7.2m/s | 11.7°C | 66.7% | 852.8hPa | 2.7V | 00:00:00 | 02:33:34 | 00:00:00 | |
| DO3MHA-11 | 2026-09-01 13:03:14 | 48.38541 | 12.90367 | 87° | 20km/h | 1575m | -7.3m/s | 11.6°C | 67.0% | 852.0hPa | 2.7V | 00:00:00 | 02:33:33 | 00:00:00 | |
| OE3JTB-15 | 2026-09-01 13:03:14 | 48.38540 | 12.90360 | 88° | 20km/h | 1582m | -7.4m/s | 11.5°C | 67.4% | 851.2hPa | 2.7V | 00:00:00 | 00:00:00 | 00:00:00 | |
| OE3JTB-15 | 2026-09-01 13:03:12 | 48.38540 | 12.90345 | 93° | 20km/h | 1597m | -7.5m/s | 11.4°C | 67.4% | 849.6hPa | 2.7V | 00:00:00 | 00:00:00 | 00:00:00 | |
| OE5MMP-10 | 2026-09-01 13:03:11 | 48.38540 | 12.90345 | 93° | 20km/h | 1597m | -7.5m/s | 11.4°C | 67.4% | 849.6hPa | 2.7V | 00:00:00 | 02:33:30 | 00:00:00 | |
| OE5DXL-15 | 2026-09-01 13:03:10 | 48.38540 | 12.90337 | 89° | 20km/h | 1604m | -8.1m/s | 11.3°C | 67.6% | 848.9hPa | 2.7V | 08:04:00 | 00:00:00 | 00:00:00 | |
| DO3MHA-11 | 2026-09-01 13:03:09 | 48.38540 | 12.90329 | 88° | 20km/h | 1612m | -8.0m/s | 11.3°C | 68.9% | 848.2hPa | 2.7V | 08:04:00 | 02:33:28 | 00:00:00 | |
| OE3JTB-15 | 2026-09-01 13:03:08 | 48.38540 | 12.90314 | 93° | 18km/h | 1627m | -7.1m/s | 11.2°C | 67.7% | 846.7hPa | 2.7V | 00:00:00 | 00:00:00 | 00:00:00 | |
| OE3JTB-15 | 2026-09-01 13:03:06 | 48.38540 | 12.90300 | 89° | 20km/h | 1642m | -7.4m/s | 11.0°C | 68.1% | 845.2hPa | 2.7V | 00:00:00 | 00:00:00 | 00:00:00 | |
| DO3MHA-11 | 2026-09-01 13:03:04 | 48.38540 | 12.90293 | 92° | 22km/h | 1649m | -7.1m/s | 11.0°C | 68.4% | 844.5hPa | 2.7V | 00:00:00 | 02:33:23 | 00:00:00 | |
| OE3JTB-15 | 2026-09-01 13:03:02 | 48.38541 | 12.90269 | 92° | 22km/h | 1671m | -7.6m/s | 10.8°C | 69.0% | 842.2hPa | 2.7V | 08:04:00 | 00:00:00 | 00:00:00 | |
| OE3JTB-15 | 2026-09-01 13:03:00 | 48.38541 | 12.90252 | 90° | 20km/h | 1686m | -7.8m/s | 10.6°C | 69.6% | 840.7hPa | 2.7V | 00:00:00 | 00:00:00 | 00:00:00 | |
| DO3MHA-11 | 2026-09-01 13:02:59 | 48.38541 | 12.90252 | 90° | 20km/h | 1686m | -7.8m/s | 10.6°C | 69.6% | 840.7hPa | 2.7V | 00:00:00 | 02:33:18 | 00:00:00 | |
| OE3JTB-15 | 2026-09-01 13:02:58 | 48.38541 | 12.90237 | 93° | 20km/h | 1702m | -7.6m/s | 10.4°C | 70.4% | 839.1hPa | 2.7V | 00:00:00 | 02:33:16 | 00:00:00 | |
| OE3JTB-15 | 2026-09-01 13:02:56 | 48.38542 | 12.90214 | 93° | 20km/h | 1724m | -7.3m/s | 10.3°C | 70.6% | 836.8hPa | 2.7V | 00:00:00 | 00:00:00 | 00:00:00 | |
| DO3MHA-11 | 2026-09-01 13:02:54 | 48.38542 | 12.90214 | 93° | 20km/h | 1724m | -7.3m/s | 10.3°C | 70.6% | 836.8hPa | 2.7V | 00:00:00 | 02:33:13 | 00:00:00 | |
| OE3JTB-15 | 2026-09-01 13:02:52 | 48.38543 | 12.90182 | 94° | 20km/h | 1753m | -7.7m/s | 10.0°C | 71.0% | 834.0hPa | 2.7V | 00:00:00 | 02:33:09 | 00:00:00 | |
| OE5DXL-15 | 2026-09-01 13:02:50 | 48.38543 | 12.90182 | 94° | 22km/h | 1753m | -7.7m/s | 10.0°C | 71.0% | 834.0hPa | 2.7V | 00:00:00 | 00:00:00 | 00:00:00 | |
| DO3MHA-11 | 2026-09-01 13:02:49 | 48.38543 | 12.90174 | 93° | 22km/h | 1761m | -7.4m/s | 9.9°C | 72.1% | 833.2hPa | 2.7V | 00:00:00 | 02:33:08 | 00:00:00 | |
| OE5MMP-10 | 2026-09-01 13:02:44 | 48.38545 | 12.90133 | 93° | 24km/h | 1799m | -7.2m/s | 9.6°C | 72.6% | 829.4hPa | 2.7V | 00:00:00 | 02:33:03 | 00:00:00 | |
| DO3MHA-11 | 2026-09-01 13:02:44 | 48.38545 | 12.90133 | 93° | 24km/h | 1799m | -7.2m/s | 9.6°C | 72.6% | 829.4hPa | 2.7V | 00:00:00 | 02:33:03 | 00:00:00 | |
| DO3MHA-11 | 2026-09-01 13:02:39 | 48.38547 | 12.90088 | 93° | 22km/h | 1838m | -7.8m/s | 9.3°C | 73.3% | 825.5hPa | 2.7V | 00:00:00 | 02:32:58 | 00:00:00 | |
| DO3MHA-11 | 2026-09-01 13:02:34 | 48.38548 | 12.90045 | 91° | 24km/h | 1877m | -8.1m/s | 9.0°C | 74.2% | 821.6hPa | 2.7V | 00:00:00 | 02:32:53 | 00:00:00 | |
| OE5MMP-10 | 2026-09-01 13:02:31 | 48.38548 | 12.90018 | 92° | 26km/h | 1902m | -8.1m/s | 8.8°C | 74.3% | 819.4hPa | 2.7V | 00:00:00 | 02:32:50 | 00:00:00 | |
| OE5DXL-15 | 2026-09-01 13:02:30 | 48.38548 | 12.90008 | 93° | 27km/h | 1910m | -8.4m/s | 8.7°C | 74.7% | 818.6hPa | 2.7V | 00:00:00 | 00:00:00 | 00:00:00 | |
| DO3MHA-11 | 2026-09-01 13:02:29 | 48.38549 | 12.89999 | 93° | 26km/h | 1918m | -7.7m/s | 8.6°C | 75.7% | 817.8hPa | 2.7V | 00:00:00 | 02:32:48 | 00:00:00 | |
| OE5MMP-10 | 2026-09-01 13:02:26 | 48.38549 | 12.89970 | 91° | 26km/h | 1942m | -7.7m/s | 8.4°C | 76.5% | 815.5hPa | 2.7V | 00:00:00 | 02:32:45 | 00:00:00 | |
| DO3MHA-11 | 2026-09-01 13:02:24 | 48.38550 | 12.89950 | 91° | 26km/h | 1957m | -8.4m/s | 8.3°C | 76.7% | 813.8hPa | 2.6V | 08:05:00 | 02:32:43 | 00:00:00 | |
| OE5MMP-10 | 2026-09-01 13:02:20 | 48.38549 | 12.89910 | 86° | 27km/h | 1989m | -7.8m/s | 8.0°C | 77.6% | 810.7hPa | 2.6V | 00:00:00 | 02:32:39 | 00:00:00 | |
| DO3MHA-11 | 2026-09-01 13:02:19 | 48.38549 | 12.89899 | 87° | 27km/h | 1997m | -7.4m/s | 8.0°C | 77.7% | 810.0hPa | 2.6V | 00:00:00 | 02:32:38 | 00:00:00 | |
| OE3JTB-15 | 2026-09-01 13:02:17 | 48.38548 | 12.89857 | 88° | 29km/h | 2029m | -8.4m/s | 7.8°C | 78.2% | 806.8hPa | 2.6V | 00:00:00 | 00:00:00 | 00:00:00 | |
| OE5MMP-10 | 2026-09-01 13:02:15 | 48.38548 | 12.89857 | 88° | 29km/h | 2029m | -8.4m/s | 7.8°C | 78.2% | 806.8hPa | 2.6V | 00:00:00 | 02:32:34 | 00:00:00 | |
| DO3MHA-11 | 2026-09-01 13:02:14 | 48.38548 | 12.89846 | 89° | 29km/h | 2037m | -8.5m/s | 7.8°C | 77.5% | 806.0hPa | 2.6V | 00:00:00 | 02:32:33 | 00:00:00 | |
| OE5DXL-15 | 2026-09-01 13:02:10 | 48.38547 | 12.89803 | 87° | 29km/h | 2071m | -8.5m/s | 7.4°C | 79.3% | 802.7hPa | 2.6V | 00:00:00 | 00:00:00 | 00:00:00 | |
| DO3MHA-11 | 2026-09-01 13:02:09 | 48.38547 | 12.89792 | 88° | 29km/h | 2080m | -8.7m/s | 7.4°C | 79.1% | 801.9hPa | 2.6V | 00:00:00 | 02:32:28 | 00:00:00 | |
| DO3MHA-11 | 2026-09-01 13:02:04 | 48.38546 | 12.89736 | 91° | 31km/h | 2123m | -8.4m/s | 7.1°C | 77.8% | 797.8hPa | 2.7V | 00:00:00 | 02:32:23 | 00:00:00 | |
| OE5MMP-10 | 2026-09-01 13:02:00 | 48.38545 | 12.89690 | 89° | 31km/h | 2159m | -9.3m/s | 6.8°C | 77.1% | 794.3hPa | 2.7V | 08:05:00 | 02:32:19 | 00:00:00 | |
| DO3MHA-11 | 2026-09-01 13:01:59 | 48.38545 | 12.89679 | 88° | 29km/h | 2168m | -9.5m/s | 6.8°C | 77.3% | 793.3hPa | 2.6V | 00:00:00 | 02:32:18 | 00:00:00 | |
| DG1MFX-10 | 2026-09-01 13:01:57 | 48.38545 | 12.89667 | 91° | 31km/h | 2178m | -9.5m/s | 6.7°C | 77.8% | 792.4hPa | 2.6V | 00:00:00 | 00:00:00 | 00:00:00 | |
| DO3MHA-11 | 2026-09-01 13:01:54 | 48.38545 | 12.89622 | 92° | 31km/h | 2215m | -8.7m/s | 6.4°C | 78.4% | 788.9hPa | 2.6V | 00:00:00 | 02:32:13 | 00:00:00 | |
| OE5DRO-10 | 2026-09-01 13:01:51 | 48.38545 | 12.89588 | 89° | 31km/h | 2242m | -9.4m/s | 6.1°C | 79.2% | 786.2hPa | 2.7V | 08:05:00 | 00:00:00 | 00:00:00 | |
| OE5DXL-15 | 2026-09-01 13:01:50 | 48.38545 | 12.89576 | 89° | 31km/h | 2252m | -9.1m/s | 6.0°C | 79.5% | 785.4hPa | 2.7V | 00:00:00 | 02:32:09 | 00:00:00 | |
| DO3MHA-11 | 2026-09-01 13:01:49 | 48.38544 | 12.89564 | 89° | 31km/h | 2261m | -8.7m/s | 5.9°C | 79.8% | 784.6hPa | 2.7V | 00:00:00 | 02:32:08 | 00:00:00 | |
| OE3JTB-15 | 2026-09-01 13:01:46 | 48.38543 | 12.89506 | 89° | 31km/h | 2306m | -9.0m/s | 5.5°C | 81.0% | 780.1hPa | 2.7V | 00:00:00 | 00:00:00 | 00:00:00 | |
| DO3MHA-11 | 2026-09-01 13:01:44 | 48.38543 | 12.89506 | 89° | 31km/h | 2306m | -9.0m/s | 5.5°C | 81.0% | 780.1hPa | 2.7V | 00:00:00 | 02:32:03 | 00:00:00 | |
| OE5MMP-10 | 2026-09-01 13:01:39 | 48.38540 | 12.89446 | 84° | 33km/h | 2353m | -9.4m/s | 5.1°C | 82.9% | 775.8hPa | 2.7V | 00:00:00 | 02:31:58 | 00:00:00 | |
| OE3JTB-15 | 2026-09-01 13:01:37 | 48.38535 | 12.89385 | 86° | 33km/h | 2399m | -9.4m/s | 4.7°C | 83.7% | 771.4hPa | 2.7V | 00:00:00 | 02:31:53 | 00:00:00 | |
| DO3MHA-11 | 2026-09-01 13:01:34 | 48.38535 | 12.89385 | 86° | 33km/h | 2399m | -9.4m/s | 4.7°C | 83.7% | 771.4hPa | 2.7V | 00:00:00 | 02:31:53 | 00:00:00 | |
| DO3MHA-11 | 2026-09-01 13:01:29 | 48.38530 | 12.89323 | 83° | 33km/h | 2448m | -10.0m/s | 4.4°C | 84.5% | 767.0hPa | 2.7V | 00:00:00 | 02:31:48 | 00:00:00 | |
| OE5MMP-10 | 2026-09-01 13:01:28 | 48.38529 | 12.89311 | 82° | 33km/h | 2458m | -9.6m/s | 4.3°C | 84.9% | 766.0hPa | 2.7V | 00:00:00 | 02:31:47 | 00:00:00 | |
| OE3JTB-15 | 2026-09-01 13:01:27 | 48.38525 | 12.89273 | 81° | 35km/h | 2487m | -9.3m/s | 4.0°C | 86.2% | 763.3hPa | 2.7V | 00:00:00 | 00:00:00 | 00:00:00 | |
| DO3MHA-11 | 2026-09-01 13:01:24 | 48.38524 | 12.89260 | 81° | 35km/h | 2496m | -9.2m/s | 3.9°C | 86.6% | 762.5hPa | 2.7V | 00:00:00 | 02:31:43 | 00:00:00 | |
| OE5WHR-10 | 2026-09-01 13:01:23 | 48.38522 | 12.89248 | 81° | 35km/h | 2505m | -9.2m/s | 3.8°C | 87.3% | 761.6hPa | 2.7V | 08:06:00 | 00:00:00 | 00:00:00 | |
| DO3MHA-11 | 2026-09-01 13:01:19 | 48.38517 | 12.89197 | 81° | 35km/h | 2543m | -9.7m/s | 3.5°C | 88.2% | 757.9hPa | 2.7V | 00:00:00 | 02:31:38 | 00:00:00 | |
| OE5DRO-10 | 2026-09-01 13:01:18 | 48.38516 | 12.89183 | 81° | 37km/h | 2553m | -9.5m/s | 3.4°C | 88.2% | 757.0hPa | 2.7V | 00:00:00 | 00:00:00 | 00:00:00 | |
| DO3MHA-11 | 2026-09-01 13:01:14 | 48.38510 | 12.89131 | 80° | 37km/h | 2591m | -9.3m/s | 3.1°C | 88.7% | 753.6hPa | 2.7V | 00:00:00 | 02:31:33 | 00:00:00 | |
| PG1ADW-2 | 2026-09-01 13:01:13 | 48.38508 | 12.89117 | 80° | 37km/h | 2600m | -9.0m/s | 0°C | 0% | 0hPa | 2.7V | 00:00:00 | 00:00:00 | 00:00:00 | |
| OE5DXL-15 | 2026-09-01 13:01:10 | 48.38503 | 12.89075 | 81° | 37km/h | 2629m | -9.7m/s | 2.8°C | 89.6% | 749.9hPa | 2.7V | 00:00:00 | 00:00:00 | 00:00:00 | |
| DO3MHA-11 | 2026-09-01 13:01:09 | 48.38502 | 12.89062 | 83° | 35km/h | 2638m | -8.8m/s | 2.7°C | 89.9% | 749.1hPa | 2.7V | 00:00:00 | 02:31:28 | 00:00:00 | |
| DG1MFX-10 | 2026-09-01 13:01:07 | 48.38499 | 12.89036 | 82° | 37km/h | 2657m | -9.3m/s | 2.7°C | 89.2% | 747.4hPa | 2.6V | 08:06:00 | 00:00:00 | 00:00:00 | |
| OE5WHR-10 | 2026-09-01 13:01:06 | 48.38497 | 12.89023 | 81° | 37km/h | 2667m | -9.8m/s | 2.5°C | 89.7% | 746.5hPa | 2.6V | 00:00:00 | 00:00:00 | 00:00:00 | |
| DO3MHA-11 | 2026-09-01 13:01:04 | 48.38494 | 12.88997 | 78° | 35km/h | 2686m | -9.4m/s | 2.4°C | 90.1% | 744.8hPa | 2.6V | 00:00:00 | 02:31:23 | 00:00:00 | |
| OE5DRO-10 | 2026-09-01 13:01:02 | 48.38491 | 12.88969 | 79° | 37km/h | 2704m | -10.0m/s | 2.3°C | 90.0% | 743.0hPa | 2.6V | 00:00:00 | 00:00:00 | 00:00:00 | |
| DO3MHA-11 | 2026-09-01 13:00:59 | 48.38486 | 12.88930 | 81° | 37km/h | 2733m | -9.1m/s | 2.2°C | 86.3% | 740.4hPa | 2.6V | 00:00:00 | 02:31:18 | 00:00:00 | |
| DO3MHA-11 | 2026-09-01 13:00:54 | 48.38479 | 12.88863 | 83° | 37km/h | 2782m | -9.3m/s | 1.7°C | 86.6% | 736.0hPa | 2.6V | 08:06:00 | 02:31:13 | 00:00:00 | |
| OE5FHM-15 | 2026-09-01 13:00:51 | 48.38475 | 12.88822 | 81° | 38km/h | 2810m | -9.7m/s | 1.5°C | 87.9% | 733.4hPa | 2.7V | 00:00:00 | 02:31:10 | 00:00:00 | |
| OE5WHR-10 | 2026-09-01 13:00:49 | 48.38472 | 12.88795 | 80° | 46km/h | 2828m | -9.6m/s | 1.4°C | 86.2% | 731.6hPa | 2.5V | 00:00:00 | 02:31:08 | 00:00:00 | |
| OE5DRO-10 | 2026-09-01 13:00:46 | 48.38467 | 12.88753 | 80° | 40km/h | 2857m | -9.1m/s | 1.1°C | 86.7% | 729.2hPa | 2.5V | 00:00:00 | 00:00:00 | 00:00:00 | |
| DO3MHA-11 | 2026-09-01 13:00:44 | 48.38464 | 12.88725 | 83° | 38km/h | 2875m | -9.1m/s | 1.0°C | 86.6% | 727.5hPa | 2.5V | 00:00:00 | 02:31:03 | 00:00:00 | |
| OE5MMP-10 | 2026-09-01 13:00:40 | 48.38458 | 12.88668 | 81° | 42km/h | 2912m | -9.5m/s | 0.7°C | 84.2% | 724.0hPa | 2.5V | 00:00:00 | 02:30:59 | 00:00:00 | |
| DO3MHA-11 | 2026-09-01 13:00:39 | 48.38457 | 12.88653 | 81° | 40km/h | 2921m | -9.0m/s | 0.6°C | 85.1% | 723.1hPa | 2.5V | 00:00:00 | 02:30:58 | 00:00:00 | |
| DO3MHA-11 | 2026-09-01 13:00:34 | 48.38449 | 12.88578 | 82° | 42km/h | 2968m | -9.5m/s | 0.2°C | 88.3% | 719.2hPa | 2.6V | 00:00:00 | 02:30:53 | 00:00:00 | |
| OE5FHM-15 | 2026-09-01 13:00:31 | 48.38445 | 12.88531 | 82° | 46km/h | 2996m | -9.4m/s | 0.1°C | 88.4% | 716.7hPa | 2.6V | 00:00:00 | 02:30:50 | 00:00:00 | |
| OE5MMP-10 | 2026-09-01 13:00:30 | 48.38441 | 12.88499 | 82° | 46km/h | 3016m | -9.9m/s | 0.0°C | 90.4% | 715.1hPa | 2.6V | 00:00:00 | 02:30:48 | 00:00:00 | |
| DO3MHA-11 | 2026-09-01 13:00:29 | 48.38441 | 12.88499 | 82° | 44km/h | 3016m | -9.9m/s | 0.0°C | 90.4% | 715.1hPa | 2.6V | 00:00:00 | 02:30:48 | 00:00:00 | |
| DG1MFX-10 | 2026-09-01 13:00:25 | 48.38436 | 12.88449 | 83° | 44km/h | 3045m | -9.5m/s | -0.2°C | 92.2% | 712.6hPa | 2.6V | 00:00:00 | 00:00:00 | 00:00:00 | |
| DO3MHA-11 | 2026-09-01 13:00:24 | 48.38434 | 12.88416 | 86° | 46km/h | 3064m | -9.0m/s | -0.3°C | 94.0% | 710.7hPa | 2.6V | 00:00:00 | 02:30:43 | 00:00:00 | |
| DO3MHA-11 | 2026-09-01 13:00:19 | 48.38427 | 12.88330 | 82° | 47km/h | 3112m | -9.4m/s | -0.5°C | 93.3% | 706.5hPa | 2.6V | 00:00:00 | 02:30:38 | 00:00:00 | |
| DO3MHA-11 | 2026-09-01 13:00:14 | 48.38420 | 12.88240 | 84° | 46km/h | 3160m | -9.6m/s | -0.2°C | 77.8% | 702.4hPa | 2.6V | 00:00:00 | 02:30:33 | 00:00:00 | |
| OE5MMP-10 | 2026-09-01 13:00:12 | 48.38418 | 12.88205 | 86° | 47km/h | 3178m | -9.5m/s | -0.1°C | 67.1% | 700.8hPa | 2.6V | 00:00:00 | 02:30:31 | 00:00:00 | |
| OE5DXL-15 | 2026-09-01 13:00:10 | 48.38415 | 12.88152 | 85° | 49km/h | 3207m | -9.3m/s | -0.0°C | 57.2% | 698.3hPa | 2.5V | 00:00:00 | 00:00:00 | 00:00:00 | |
| DO3MHA-11 | 2026-09-01 13:00:09 | 48.38415 | 12.88152 | 85° | 49km/h | 3207m | -9.3m/s | -0.0°C | 57.2% | 698.3hPa | 2.5V | 08:07:00 | 02:30:28 | 00:00:00 | |
| OE5FHM-15 | 2026-09-01 13:00:07 | 48.38413 | 12.88115 | 86° | 49km/h | 3226m | -8.9m/s | -0.0°C | 52.4% | 696.5hPa | 2.5V | 00:00:00 | 02:30:26 | 00:00:00 | |
| DO3MHA-11 | 2026-09-01 13:00:04 | 48.38410 | 12.88060 | 87° | 49km/h | 3254m | -9.3m/s | 0.2°C | 53.5% | 694.1hPa | 2.5V | 00:00:00 | 02:30:23 | 00:00:00 | |
| PG1ADW-2 | 2026-09-01 13:00:00 | 48.38408 | 12.87985 | 91° | 49km/h | 3292m | -9.0m/s | 0.5°C | 42.4% | 690.9hPa | 2.5V | 00:00:00 | 00:00:00 | 00:00:00 | |
| OE5DRO-10 | 2026-09-01 12:59:59 | 48.38408 | 12.87909 | 90° | 55km/h | 3331m | -9.6m/s | 0.3°C | 40.0% | 687.6hPa | 2.5V | 08:07:00 | 00:00:00 | 00:00:00 | |
| DO3MHA-11 | 2026-09-01 12:59:54 | 48.38409 | 12.87870 | 92° | 51km/h | 3351m | -9.6m/s | 0.2°C | 38.9% | 685.9hPa | 2.6V | 00:00:00 | 02:30:13 | 00:00:00 | |
| OE5HKT-10 | 2026-09-01 12:59:52 | 48.38409 | 12.87832 | 91° | 49km/h | 3370m | -9.7m/s | 0.2°C | 37.1% | 684.2hPa | 2.6V | 00:00:00 | 00:00:00 | 00:00:00 | |
| DO3MHA-11 | 2026-09-01 12:59:49 | 48.38410 | 12.87773 | 94° | 49km/h | 3399m | -9.0m/s | 0.2°C | 34.7% | 681.9hPa | 2.6V | 00:00:00 | 02:30:08 | 00:00:00 | |
| DO3MHA-11 | 2026-09-01 12:59:44 | 48.38414 | 12.87680 | 94° | 49km/h | 3445m | -9.3m/s | -0.0°C | 34.1% | 677.7hPa | 2.6V | 00:00:00 | 02:30:03 | 00:00:00 | |
| PG1ADW-2 | 2026-09-01 12:59:41 | 48.38418 | 12.87606 | 97° | 51km/h | 3482m | -8.8m/s | -0.4°C | 35.9% | 674.6hPa | 2.6V | 08:08:00 | 02:29:59 | 00:00:00 | |
| DO3MHA-11 | 2026-09-01 12:59:39 | 48.38420 | 12.87587 | 97° | 49km/h | 3491m | -9.2m/s | -0.5°C | 36.6% | 673.9hPa | 2.5V | 00:00:00 | 02:29:58 | 00:00:00 | |
| OE5FHM-15 | 2026-09-01 12:59:37 | 48.38422 | 12.87550 | 96° | 55km/h | 3509m | -9.1m/s | -0.7°C | 36.9% | 672.2hPa | 2.6V | 00:00:00 | 02:29:56 | 00:00:00 | |
| DO3MHA-11 | 2026-09-01 12:59:34 | 48.38425 | 12.87492 | 96° | 51km/h | 3538m | -9.0m/s | -0.9°C | 36.9% | 669.8hPa | 2.5V | 00:00:00 | 02:29:53 | 00:00:00 | |
| OE5MMP-10 | 2026-09-01 12:59:32 | 48.38427 | 12.87454 | 94° | 53km/h | 3556m | -9.0m/s | -1.0°C | 36.2% | 668.2hPa | 2.5V | 08:08:00 | 02:29:51 | 00:00:00 | |
| DO3MHA-11 | 2026-09-01 12:59:30 | 48.38430 | 12.87395 | 94° | 53km/h | 3586m | -10.2m/s | -1.1°C | 32.3% | 665.8hPa | 2.6V | 00:00:00 | 02:29:48 | 00:00:00 | |
| DO3MHA-11 | 2026-09-01 12:59:24 | 48.38436 | 12.87295 | 94° | 55km/h | 3634m | -10.0m/s | -1.4°C | 32.8% | 661.9hPa | 2.6V | 08:08:00 | 02:29:43 | 00:00:00 | |
| OE5MMP-10 | 2026-09-01 12:59:22 | 48.38437 | 12.87253 | 94° | 57km/h | 3653m | -9.8m/s | -1.5°C | 33.6% | 660.3hPa | 2.5V | 00:00:00 | 02:29:41 | 00:00:00 | |
| PG1ADW-2 | 2026-09-01 12:59:20 | 48.38439 | 12.87211 | 93° | 57km/h | 3672m | -9.2m/s | -1.6°C | 33.1% | 658.7hPa | 2.5V | 00:00:00 | 00:00:00 | 00:00:00 | |
| DO3MHA-11 | 2026-09-01 12:59:19 | 48.38440 | 12.87190 | 94° | 57km/h | 3681m | -9.1m/s | -1.7°C | 33.3% | 657.9hPa | 2.5V | 00:00:00 | 02:29:38 | 00:00:00 | |
| OE5HKT-10 | 2026-09-01 12:59:16 | 48.38442 | 12.87127 | 93° | 58km/h | 3709m | -8.8m/s | -1.8°C | 32.0% | 655.5hPa | 2.5V | 00:00:00 | 00:00:00 | 00:00:00 | |
| DO3MHA-11 | 2026-09-01 12:59:14 | 48.38443 | 12.87084 | 94° | 57km/h | 3728m | -9.0m/s | -2.0°C | 33.2% | 653.9hPa | 2.5V | 00:00:00 | 02:29:33 | 00:00:00 | |
| OE5MMP-10 | 2026-09-01 12:59:10 | 48.38446 | 12.86997 | 92° | 58km/h | 3765m | -9.7m/s | -2.2°C | 33.5% | 650.9hPa | 2.5V | 00:00:00 | 02:29:29 | 00:00:00 | |
| DO3MHA-11 | 2026-09-01 12:59:09 | 48.38446 | 12.86975 | 91° | 58km/h | 3775m | -10.1m/s | -2.3°C | 33.2% | 650.1hPa | 2.5V | 00:00:00 | 02:29:28 | 00:00:00 | |
| OE5FHM-15 | 2026-09-01 12:59:07 | 48.38447 | 12.86930 | 92° | 60km/h | 3794m | -9.1m/s | -2.4°C | 33.1% | 648.6hPa | 2.6V | 00:00:00 | 02:29:26 | 00:00:00 | |
| DO3MHA-11 | 2026-09-01 12:59:04 | 48.38447 | 12.86864 | 90° | 58km/h | 3822m | -9.2m/s | -2.6°C | 35.2% | 646.3hPa | 2.6V | 00:00:00 | 02:29:23 | 00:00:00 | |
| OE5MMP-10 | 2026-09-01 12:59:00 | 48.38447 | 12.86775 | 91° | 58km/h | 3858m | -8.6m/s | -2.9°C | 35.3% | 643.3hPa | 2.6V | 00:00:00 | 02:29:19 | 00:00:00 | |
| DO3MHA-11 | 2026-09-01 12:58:59 | 48.38447 | 12.86753 | 89° | 58km/h | 3866m | -8.7m/s | -3.0°C | 35.6% | 642.7hPa | 2.6V | 00:00:00 | 02:29:18 | 00:00:00 | |
| DO3MHA-11 | 2026-09-01 12:58:54 | 48.38445 | 12.86642 | 90° | 58km/h | 3911m | -9.2m/s | -3.4°C | 36.5% | 638.9hPa | 2.6V | 00:00:00 | 02:29:13 | 00:00:00 | |
| OE5DRO-10 | 2026-09-01 12:58:53 | 48.38445 | 12.86620 | 90° | 62km/h | 3920m | -8.8m/s | -3.4°C | 37.1% | 638.1hPa | 2.6V | 00:00:00 | 00:00:00 | 00:00:00 | |
| OE5MMP-10 | 2026-09-01 12:58:50 | 48.38445 | 12.86552 | 89° | 60km/h | 3947m | -9.3m/s | -3.5°C | 36.3% | 636.0hPa | 2.6V | 00:00:00 | 02:29:09 | 00:00:00 | |
| DO3MHA-11 | 2026-09-01 12:58:49 | 48.38444 | 12.86529 | 89° | 62km/h | 3957m | -9.1m/s | -3.6°C | 36.8% | 635.3hPa | 2.6V | 00:00:00 | 02:29:08 | 00:00:00 | |
| DO3MHA-11 | 2026-09-01 12:58:44 | 48.38443 | 12.86413 | 90° | 62km/h | 4003m | -9.2m/s | -3.9°C | 40.7% | 631.6hPa | 2.6V | 00:00:00 | 02:29:03 | 00:00:00 | |
| OE5HKT-10 | 2026-09-01 12:58:42 | 48.38443 | 12.86366 | 90° | 68km/h | 4022m | -8.9m/s | -4.1°C | 41.2% | 630.0hPa | 2.6V | 00:00:00 | 02:29:01 | 00:00:00 | |
| OE5MMP-10 | 2026-09-01 12:58:40 | 48.38443 | 12.86319 | 91° | 66km/h | 4040m | -9.2m/s | -4.2°C | 40.5% | 628.6hPa | 2.6V | 00:00:00 | 02:28:59 | 00:00:00 | |
| DO3MHA-11 | 2026-09-01 12:58:39 | 48.38443 | 12.86295 | 90° | 64km/h | 4049m | -9.6m/s | -4.2°C | 39.3% | 627.9hPa | 2.6V | 08:09:00 | 02:28:58 | 00:00:00 | |
| OE5FHM-15 | 2026-09-01 12:58:37 | 48.38443 | 12.86245 | 92° | 68km/h | 4068m | -8.7m/s | -4.3°C | 38.6% | 626.4hPa | 2.6V | 00:00:00 | 02:28:56 | 00:00:00 | |
| DO3MHA-11 | 2026-09-01 12:58:34 | 48.38444 | 12.86171 | 92° | 66km/h | 4095m | -8.6m/s | -4.4°C | 38.6% | 624.3hPa | 2.6V | 00:00:00 | 02:28:53 | 00:00:00 | |
| OE5MMP-10 | 2026-09-01 12:58:30 | 48.38445 | 12.86071 | 92° | 68km/h | 4131m | -8.4m/s | -4.6°C | 39.3% | 621.4hPa | 2.6V | 00:00:00 | 02:28:49 | 00:00:00 | |
| DO3MHA-11 | 2026-09-01 12:58:29 | 48.38445 | 12.86046 | 91° | 68km/h | 4139m | -8.6m/s | -4.7°C | 39.6% | 620.8hPa | 2.6V | 00:00:00 | 02:28:48 | 00:00:00 | |
| DO3MHA-11 | 2026-09-01 12:58:24 | 48.38447 | 12.85916 | 93° | 68km/h | 4186m | -9.4m/s | -4.9°C | 37.0% | 617.1hPa | 2.6V | 00:00:00 | 02:28:43 | 00:00:00 | |
| OE5DRO-10 | 2026-09-01 12:58:21 | 48.38448 | 12.85840 | 91° | 68km/h | 4214m | -9.5m/s | -5.0°C | 40.6% | 615.1hPa | 2.5V | 00:00:00 | 00:00:00 | 00:00:00 | |
| OE5MMP-10 | 2026-09-01 12:58:20 | 48.38448 | 12.85814 | 90° | 68km/h | 4224m | -9.0m/s | -5.0°C | 40.3% | 614.3hPa | 2.5V | 00:00:00 | 02:28:39 | 00:00:00 | |
| DO3MHA-11 | 2026-09-01 12:58:19 | 48.38448 | 12.85789 | 90° | 68km/h | 4233m | -9.3m/s | -5.0°C | 38.4% | 613.5hPa | 2.5V | 00:00:00 | 02:28:38 | 00:00:00 | |
| OE5HKT-10 | 2026-09-01 12:58:15 | 48.38448 | 12.85686 | 90° | 68km/h | 4270m | -9.7m/s | -5.1°C | 36.7% | 610.7hPa | 2.5V | 00:00:00 | 00:00:00 | 00:00:00 | |
| DO3MHA-11 | 2026-09-01 12:58:14 | 48.38448 | 12.85660 | 90° | 68km/h | 4280m | -9.4m/s | -5.2°C | 37.4% | 610.1hPa | 2.5V | 00:00:00 | 02:28:33 | 00:00:00 | |
| OE5MMP-10 | 2026-09-01 12:58:10 | 48.38447 | 12.85557 | 89° | 68km/h | 4316m | -9.1m/s | -5.0°C | 8.9% | 607.1hPa | 2.5V | 00:00:00 | 02:28:29 | 00:00:00 | |
| DO3MHA-11 | 2026-09-01 12:58:09 | 48.38447 | 12.85532 | 89° | 68km/h | 4325m | -9.4m/s | -4.8°C | 5.0% | 606.4hPa | 2.5V | 00:00:00 | 02:28:28 | 00:00:00 | |
| OE5FHM-15 | 2026-09-01 12:58:07 | 48.38446 | 12.85480 | 89° | 68km/h | 4344m | -9.3m/s | -4.6°C | 6.4% | 604.9hPa | 2.6V | 08:09:00 | 02:28:26 | 00:00:00 | |
| OE5DRO-10 | 2026-09-01 12:58:05 | 48.38445 | 12.85429 | 90° | 69km/h | 4363m | -8.9m/s | -4.5°C | 8.3% | 603.6hPa | 2.5V | 00:00:00 | 00:00:00 | 00:00:00 | |
| DO3MHA-11 | 2026-09-01 12:58:04 | 48.38445 | 12.85403 | 88° | 68km/h | 4371m | -8.6m/s | -4.5°C | 11.1% | 602.9hPa | 2.5V | 00:00:00 | 02:28:23 | 00:00:00 | |
| OE5MMP-10 | 2026-09-01 12:58:00 | 48.38443 | 12.85301 | 89° | 69km/h | 4406m | -9.7m/s | -4.7°C | 26.7% | 600.1hPa | 2.5V | 08:09:00 | 02:28:19 | 00:00:00 | |
| DO3MHA-11 | 2026-09-01 12:57:59 | 48.38443 | 12.85274 | 89° | 69km/h | 4416m | -10.0m/s | -4.8°C | 27.1% | 599.4hPa | 2.5V | 00:00:00 | 02:28:18 | 00:00:00 | |
| OE5HKT-10 | 2026-09-01 12:57:58 | 48.38443 | 12.85247 | 90° | 69km/h | 4426m | -9.5m/s | -4.9°C | 27.1% | 598.6hPa | 2.5V | 00:00:00 | 00:00:00 | 00:00:00 | |
| DO3MHA-11 | 2026-09-01 12:57:54 | 48.38442 | 12.85142 | 91° | 69km/h | 4464m | -9.4m/s | -5.1°C | 27.9% | 595.8hPa | 2.5V | 08:09:00 | 02:28:13 | 00:00:00 | |
| OE3JTB-15 | 2026-09-01 12:57:53 | 48.38443 | 12.85062 | 91° | 66km/h | 4492m | -9.6m/s | -5.3°C | 28.6% | 593.8hPa | 2.6V | 00:00:00 | 00:00:00 | 00:00:00 | |
| OE5MMP-10 | 2026-09-01 12:57:50 | 48.38443 | 12.85036 | 91° | 68km/h | 4502m | -9.6m/s | -5.4°C | 29.7% | 593.0hPa | 2.5V | 00:00:00 | 02:28:09 | 00:00:00 | |
| DO3MHA-11 | 2026-09-01 12:57:49 | 48.38443 | 12.85009 | 91° | 68km/h | 4512m | -9.4m/s | -5.5°C | 29.6% | 592.3hPa | 2.5V | 00:00:00 | 02:28:08 | 00:00:00 | |
| DO3MHA-11 | 2026-09-01 12:57:44 | 48.38446 | 12.84881 | 92° | 68km/h | 4561m | -10.3m/s | -5.8°C | 27.6% | 588.7hPa | 2.5V | 00:00:00 | 02:28:03 | 00:00:00 | |
| OE5MMP-10 | 2026-09-01 12:57:40 | 48.38448 | 12.84779 | 93° | 66km/h | 4598m | -9.9m/s | -6.1°C | 29.1% | 585.8hPa | 2.5V | 00:00:00 | 02:27:59 | 00:00:00 | |
| OE5FHM-15 | 2026-09-01 12:57:37 | 48.38450 | 12.84703 | 93° | 62km/h | 4628m | -9.7m/s | -6.4°C | 29.7% | 583.6hPa | 2.5V | 00:00:00 | 02:27:56 | 00:00:00 | |
| OE5REO-15 | 2026-09-01 12:57:34 | 48.38451 | 12.84654 | 94° | 66km/h | 4647m | -9.9m/s | -6.6°C | 29.0% | 582.2hPa | 2.5V | 08:10:00 | 00:00:00 | 00:00:00 | |
| OE5DRO-10 | 2026-09-01 12:57:33 | 48.38453 | 12.84604 | 93° | 64km/h | 4667m | -9.9m/s | -6.6°C | 28.2% | 580.7hPa | 2.5V | 00:00:00 | 00:00:00 | 00:00:00 | |
| DO3MHA-11 | 2026-09-01 12:57:32 | 48.38453 | 12.84579 | 92° | 64km/h | 4677m | -9.6m/s | -6.7°C | 27.9% | 579.8hPa | 2.5V | 00:00:00 | 02:27:51 | 00:00:00 | |
| OE5MMP-10 | 2026-09-01 12:57:29 | 48.38456 | 12.84506 | 93° | 64km/h | 4706m | -10.0m/s | -6.9°C | 25.1% | 577.7hPa | 2.5V | 00:00:00 | 02:27:48 | 00:00:00 | |
| OE5WHR-10 | 2026-09-01 12:57:27 | 48.38457 | 12.84458 | 95° | 62km/h | 4727m | -10.1m/s | -7.0°C | 23.3% | 576.3hPa | 2.6V | 00:00:00 | 00:00:00 | 00:00:00 | |
| OE5HKT-10 | 2026-09-01 12:57:24 | 48.38460 | 12.84385 | 94° | 62km/h | 4757m | -9.4m/s | -7.1°C | 27.3% | 574.0hPa | 2.5V | 08:10:00 | 00:00:00 | 00:00:00 | |
| DO3MHA-11 | 2026-09-01 12:57:22 | 48.38462 | 12.84338 | 94° | 62km/h | 4776m | -10.4m/s | -7.3°C | 27.6% | 572.7hPa | 2.5V | 00:00:00 | 02:27:41 | 00:00:00 | |
| PG1ADW-2 | 2026-09-01 12:57:20 | 48.38464 | 12.84290 | 94° | 60km/h | 4797m | -9.9m/s | -7.4°C | 28.3% | 571.1hPa | 2.6V | 00:00:00 | 00:00:00 | 00:00:00 | |
| OE5MMP-10 | 2026-09-01 12:57:19 | 48.38465 | 12.84267 | 95° | 62km/h | 4806m | -9.6m/s | -7.5°C | 28.5% | 570.4hPa | 2.6V | 00:00:00 | 02:27:38 | 00:00:00 | |
| OE5REO-15 | 2026-09-01 12:57:18 | 48.38465 | 12.84283 | 96° | 62km/h | 4806m | -9.7m/s | -7.6°C | 28.1% | 570.4hPa | 2.6V | 08:11:00 | 00:00:00 | 00:00:00 | |
| OE3JTB-15 | 2026-09-01 12:57:17 | 48.38471 | 12.84149 | 94° | 57km/h | 4861m | -14.2m/s | -8.0°C | 31.7% | 566.8hPa | 2.6V | 00:00:00 | 00:00:00 | 00:00:00 | |
| DO3MHA-11 | 2026-09-01 12:57:12 | 48.38473 | 12.84102 | 94° | 57km/h | 4889m | -14.3m/s | -8.2°C | 36.8% | 564.8hPa | 2.6V | 00:00:00 | 02:27:31 | 00:00:00 | |
| OE5MMP-10 | 2026-09-01 12:57:09 | 48.38476 | 12.84033 | 94° | 58km/h | 4930m | -13.4m/s | -8.5°C | 35.2% | 561.7hPa | 2.6V | 00:00:00 | 02:27:28 | 00:00:00 | |
| OE5WHR-10 | 2026-09-01 12:57:08 | 48.38477 | 12.84010 | 96° | 57km/h | 4943m | -13.4m/s | -8.5°C | 34.9% | 560.8hPa | 2.6V | 00:00:00 | 00:00:00 | 00:00:00 | |
| OE5FHM-15 | 2026-09-01 12:57:07 | 48.38479 | 12.83988 | 95° | 55km/h | 4956m | -13.0m/s | -8.6°C | 34.8% | 559.7hPa | 2.6V | 00:00:00 | 02:27:26 | 00:00:00 | |
| OE5REO-15 | 2026-09-01 12:57:04 | 48.38482 | 12.83921 | 97° | 57km/h | 4995m | -12.6m/s | -8.9°C | 34.5% | 557.0hPa | 2.6V | 08:11:00 | 00:00:00 | 00:00:00 | |
| OE5DRO-10 | 2026-09-01 12:57:01 | 48.38486 | 12.83857 | 95° | 55km/h | 5034m | -14.2m/s | -9.1°C | 33.5% | 554.1hPa | 2.6V | 08:10:00 | 00:00:00 | 00:00:00 | |
| PG1ADW-2 | 2026-09-01 12:57:00 | 48.38487 | 12.83835 | 96° | 55km/h | 5048m | -13.0m/s | -9.1°C | 33.5% | 553.1hPa | 2.6V | 00:00:00 | 02:27:19 | 00:00:00 | |
| OE5MMP-10 | 2026-09-01 12:56:59 | 48.38488 | 12.83814 | 96° | 55km/h | 5061m | -13.5m/s | -9.2°C | 33.4% | 552.2hPa | 2.6V | 00:00:00 | 02:27:18 | 00:00:00 | |
| DO3MHA-11 | 2026-09-01 12:56:56 | 48.38492 | 12.83752 | 95° | 53km/h | 5101m | -12.8m/s | -9.4°C | 30.4% | 549.3hPa | 2.5V | 08:10:00 | 02:27:15 | 00:00:00 | |
| OE5WHR-10 | 2026-09-01 12:56:51 | 48.38498 | 12.83650 | 97° | 55km/h | 5167m | -11.7m/s | -9.8°C | 29.9% | 544.5hPa | 2.6V | 00:00:00 | 02:27:10 | 00:00:00 | |
| OE5HKT-10 | 2026-09-01 12:56:50 | 48.38499 | 12.83630 | 95° | 62km/h | 5178m | -11.6m/s | -9.9°C | 30.4% | 543.8hPa | 2.6V | 00:00:00 | 02:27:09 | 00:00:00 | |
| OE5MMP-10 | 2026-09-01 12:56:49 | 48.38501 | 12.83610 | 97° | 55km/h | 5190m | -11.1m/s | -9.9°C | 30.9% | 542.9hPa | 2.6V | 00:00:00 | 02:27:08 | 00:00:00 | |
| OE5REO-15 | 2026-09-01 12:56:48 | 48.38501 | 12.83610 | 97° | 53km/h | 5190m | -11.2m/s | -10.0°C | 30.4% | 543.0hPa | 2.6V | 08:11:00 | 00:00:00 | 00:00:00 | |
| DO3MHA-11 | 2026-09-01 12:56:46 | 48.38504 | 12.83548 | 94° | 55km/h | 5224m | -12.1m/s | -10.2°C | 32.5% | 540.5hPa | 2.6V | 00:00:00 | 02:27:05 | 00:00:00 | |
| OE5DRO-10 | 2026-09-01 12:56:45 | 48.38505 | 12.83528 | 94° | 55km/h | 5236m | -11.6m/s | -10.2°C | 31.9% | 539.7hPa | 2.6V | 00:00:00 | 00:00:00 | 00:00:00 | |
| OE3JTB-15 | 2026-09-01 12:56:43 | 48.38508 | 12.83446 | 92° | 57km/h | 5283m | -11.1m/s | -10.5°C | 21.3% | 536.4hPa | 2.6V | 00:00:00 | 02:27:00 | 00:00:00 | |
| PG1ADW-2 | 2026-09-01 12:56:40 | 48.38508 | 12.83425 | 92° | 57km/h | 5295m | -12.0m/s | -10.5°C | 20.6% | 535.7hPa | 2.6V | 08:11:00 | 00:00:00 | 00:00:00 | |
| OE5MMP-10 | 2026-09-01 12:56:39 | 48.38509 | 12.83405 | 92° | 55km/h | 5307m | -10.8m/s | -10.6°C | 20.7% | 534.9hPa | 2.5V | 00:00:00 | 02:26:58 | 00:00:00 | |
| OE5DXL-15 | 2026-09-01 12:56:38 | 48.38510 | 12.83363 | 93° | 57km/h | 5330m | -11.3m/s | -10.8°C | 20.3% | 533.2hPa | 2.5V | 00:00:00 | 00:00:00 | 00:00:00 | |
| OE5FHM-15 | 2026-09-01 12:56:37 | 48.38510 | 12.83363 | 93° | 57km/h | 5330m | -11.3m/s | -10.8°C | 20.3% | 533.2hPa | 2.5V | 00:00:00 | 02:26:56 | 00:00:00 | |
| DO3MHA-11 | 2026-09-01 12:56:36 | 48.38510 | 12.83343 | 92° | 55km/h | 5341m | -11.6m/s | -10.8°C | 20.2% | 532.5hPa | 2.6V | 00:00:00 | 02:26:55 | 00:00:00 | |
| OE5WHR-10 | 2026-09-01 12:56:34 | 48.38511 | 12.83301 | 91° | 57km/h | 5364m | -11.6m/s | -10.9°C | 19.7% | 530.9hPa | 2.6V | 00:00:00 | 00:00:00 | 00:00:00 | |
| OE5REO-15 | 2026-09-01 12:56:33 | 48.38511 | 12.83301 | 91° | 55km/h | 5364m | -11.6m/s | -10.9°C | 19.3% | 530.9hPa | 2.6V | 08:11:00 | 00:00:00 | 00:00:00 | |
| OE5MMP-10 | 2026-09-01 12:56:29 | 48.38513 | 12.83196 | 91° | 57km/h | 5422m | -10.9m/s | -11.3°C | 19.6% | 526.9hPa | 2.6V | 08:11:00 | 02:26:48 | 00:00:00 | |
| DO3MHA-11 | 2026-09-01 12:56:26 | 48.38513 | 12.83131 | 89° | 58km/h | 5457m | -11.8m/s | -11.4°C | 18.5% | 524.4hPa | 2.5V | 00:00:00 | 02:26:45 | 00:00:00 | |
| DG1MFX-10 | 2026-09-01 12:56:23 | 48.38512 | 12.83087 | 90° | 57km/h | 5481m | -11.4m/s | -11.6°C | 18.0% | 522.9hPa | 2.5V | 00:00:00 | 00:00:00 | 00:00:00 | |
| PG1ADW-2 | 2026-09-01 12:56:20 | 48.38511 | 12.82999 | 89° | 58km/h | 5528m | -12.3m/s | -11.9°C | 21.1% | 519.6hPa | 2.5V | 00:00:00 | 00:00:00 | 00:00:00 | |
| OE5MMP-10 | 2026-09-01 12:56:19 | 48.38511 | 12.82977 | 89° | 58km/h | 5540m | -11.6m/s | -12.0°C | 21.7% | 518.8hPa | 2.5V | 00:00:00 | 02:26:38 | 00:00:00 | |
| OE5WHR-10 | 2026-09-01 12:56:17 | 48.38510 | 12.82933 | 89° | 58km/h | 5564m | -11.5m/s | -12.2°C | 22.9% | 517.2hPa | 2.5V | 00:00:00 | 00:00:00 | 00:00:00 | |
| DO3MHA-11 | 2026-09-01 12:56:16 | 48.38510 | 12.82910 | 89° | 58km/h | 5575m | -12.1m/s | -12.3°C | 23.4% | 516.4hPa | 2.5V | 00:00:00 | 02:26:35 | 00:00:00 | |
| OE5DRO-10 | 2026-09-01 12:56:13 | 48.38509 | 12.82843 | 90° | 58km/h | 5611m | -11.5m/s | -12.5°C | 23.2% | 514.0hPa | 2.5V | 00:00:00 | 00:00:00 | 00:00:00 | |
| OE5MMP-10 | 2026-09-01 12:56:09 | 48.38508 | 12.82755 | 90° | 58km/h | 5658m | -12.0m/s | -12.8°C | 22.3% | 510.8hPa | 2.6V | 00:00:00 | 02:26:28 | 00:00:00 | |
| OE5FHM-15 | 2026-09-01 12:56:07 | 48.38509 | 12.82712 | 91° | 60km/h | 5681m | -11.8m/s | -12.9°C | 22.4% | 509.2hPa | 2.6V | 00:00:00 | 02:26:26 | 00:00:00 | |
| DO3MHA-11 | 2026-09-01 12:56:06 | 48.38509 | 12.82689 | 91° | 58km/h | 5693m | -12.0m/s | -13.0°C | 22.7% | 508.5hPa | 2.6V | 00:00:00 | 02:26:25 | 00:00:00 | |
| DG1MFX-10 | 2026-09-01 12:56:02 | 48.38510 | 12.82623 | 94° | 60km/h | 5727m | -12.0m/s | -13.3°C | 22.1% | 506.1hPa | 2.6V | 00:00:00 | 00:00:00 | 00:00:00 | |
| OE5REO-15 | 2026-09-01 12:56:01 | 48.38512 | 12.82600 | 94° | 60km/h | 5740m | -11.8m/s | -13.4°C | 21.8% | 505.4hPa | 2.6V | 08:11:00 | 00:00:00 | 00:00:00 | |
| PG1ADW-2 | 2026-09-01 12:56:00 | 48.38514 | 12.82555 | 94° | 60km/h | 5763m | -11.4m/s | -13.5°C | 22.2% | 503.8hPa | 2.6V | 00:00:00 | 00:00:00 | 00:00:00 | |
| OE5MMP-10 | 2026-09-01 12:55:59 | 48.38515 | 12.82533 | 96° | 60km/h | 5774m | -11.3m/s | -13.6°C | 22.4% | 503.0hPa | 2.6V | 00:00:00 | 02:26:18 | 00:00:00 | |
| DO3MHA-11 | 2026-09-01 12:55:56 | 48.38520 | 12.82468 | 99° | 60km/h | 5808m | -11.8m/s | -13.7°C | 21.9% | 500.7hPa | 2.5V | 00:00:00 | 02:26:15 | 00:00:00 | |
| OE3JTB-15 | 2026-09-01 12:55:54 | 48.38530 | 12.82354 | 98° | 60km/h | 5868m | -11.6m/s | -14.0°C | 17.1% | 497.0hPa | 2.5V | 00:00:00 | 00:00:00 | 00:00:00 | |
| OE5MMP-10 | 2026-09-01 12:55:50 | 48.38534 | 12.82309 | 99° | 60km/h | 5891m | -11.6m/s | -14.0°C | 14.5% | 495.3hPa | 2.5V | 00:00:00 | 02:26:08 | 00:00:00 | |
| DO3MHA-11 | 2026-09-01 12:55:46 | 48.38541 | 12.82239 | 97° | 60km/h | 5928m | -12.6m/s | -14.3°C | 14.2% | 493.1hPa | 2.5V | 00:00:00 | 02:26:05 | 00:00:00 | |
| OE5REO-15 | 2026-09-01 12:55:45 | 48.38540 | 12.82239 | 98° | 60km/h | 5928m | -12.6m/s | -14.4°C | 13.6% | 493.2hPa | 2.5V | 08:12:00 | 00:00:00 | 00:00:00 | |
| PG1ADW-2 | 2026-09-01 12:55:40 | 48.38549 | 12.82102 | 93° | 60km/h | 6003m | -12.6m/s | -14.5°C | 7.9% | 488.2hPa | 2.5V | 00:00:00 | 02:25:59 | 00:00:00 | |
| OE5MMP-10 | 2026-09-01 12:55:39 | 48.38550 | 12.82079 | 91° | 58km/h | 6015m | -12.2m/s | -14.5°C | 7.7% | 487.4hPa | 2.5V | 00:00:00 | 02:25:58 | 00:00:00 | |
| OE5FHM-15 | 2026-09-01 12:55:37 | 48.38550 | 12.82034 | 92° | 62km/h | 6039m | -12.1m/s | -14.5°C | 7.6% | 485.9hPa | 2.5V | 00:00:00 | 02:25:56 | 00:00:00 | |
| DO3MHA-11 | 2026-09-01 12:55:36 | 48.38550 | 12.82012 | 90° | 58km/h | 6052m | -12.7m/s | -14.6°C | 7.6% | 485.0hPa | 2.5V | 00:00:00 | 02:25:55 | 00:00:00 | |
| OE5WHR-10 | 2026-09-01 12:55:35 | 48.38550 | 12.81989 | 90° | 60km/h | 6065m | -12.4m/s | -14.6°C | 7.6% | 484.3hPa | 2.5V | 08:12:00 | 00:00:00 | 00:00:00 | |
| OE5DXL-15 | 2026-09-01 12:55:34 | 48.38550 | 12.81924 | 90° | 62km/h | 6099m | -10.9m/s | -14.9°C | 8.0% | 482.1hPa | 2.6V | 00:00:00 | 00:00:00 | 00:00:00 | |
| OE5REO-15 | 2026-09-01 12:55:30 | 48.38550 | 12.81902 | 90° | 57km/h | 6110m | -10.7m/s | -15.0°C | 7.6% | 481.5hPa | 2.6V | 08:12:00 | 00:00:00 | 00:00:00 | |
| OE5MMP-10 | 2026-09-01 12:55:29 | 48.38549 | 12.81858 | 88° | 60km/h | 6132m | -11.6m/s | -14.9°C | 7.9% | 479.8hPa | 2.6V | 00:00:00 | 02:25:48 | 00:00:00 | |
| DO3MHA-11 | 2026-09-01 12:55:26 | 48.38546 | 12.81790 | 86° | 62km/h | 6168m | -11.3m/s | -15.0°C | 7.4% | 477.7hPa | 2.5V | 08:12:00 | 02:25:45 | 00:00:00 | |
| PG1ADW-2 | 2026-09-01 12:55:20 | 48.38540 | 12.81650 | 87° | 66km/h | 6238m | -11.6m/s | -15.3°C | 9.0% | 473.3hPa | 2.5V | 00:00:00 | 00:00:00 | 00:00:00 | |
| OE5MMP-10 | 2026-09-01 12:55:19 | 48.38539 | 12.81626 | 86° | 64km/h | 6250m | -11.7m/s | -15.4°C | 9.0% | 472.6hPa | 2.5V | 00:00:00 | 02:25:38 | 00:00:00 | |
| DO3MHA-11 | 2026-09-01 12:55:16 | 48.38535 | 12.81554 | 86° | 64km/h | 6284m | -11.9m/s | -15.7°C | 9.0% | 470.3hPa | 2.5V | 00:00:00 | 02:25:35 | 00:00:00 | |
| OE5WHR-10 | 2026-09-01 12:55:14 | 48.38533 | 12.81505 | 88° | 66km/h | 6307m | -11.2m/s | -15.9°C | 8.8% | 468.9hPa | 2.5V | 00:00:00 | 00:00:00 | 00:00:00 | |
| OE5MMP-10 | 2026-09-01 12:55:09 | 48.38528 | 12.81383 | 87° | 66km/h | 6365m | -10.9m/s | -16.2°C | 7.6% | 465.3hPa | 2.5V | 00:00:00 | 02:25:28 | 00:00:00 | |
| OE5FHM-15 | 2026-09-01 12:55:07 | 48.38526 | 12.81333 | 86° | 69km/h | 6389m | -11.6m/s | -16.3°C | 7.6% | 463.8hPa | 2.5V | 00:00:00 | 02:25:26 | 00:00:00 | |
| DO3MHA-11 | 2026-09-01 12:55:06 | 48.38525 | 12.81308 | 88° | 68km/h | 6401m | -11.9m/s | -16.4°C | 7.8% | 463.2hPa | 2.5V | 00:00:00 | 02:25:25 | 00:00:00 | |
| DL6DJ-15 | 2026-09-01 12:55:04 | 48.38514 | 12.81055 | 85° | 66km/h | 6519m | -12.0m/s | -17.0°C | 6.4% | 456.0hPa | 2.5V | 00:00:00 | 00:00:00 | 00:00:00 | |
| OE5DXL-15 | 2026-09-01 12:55:03 | 48.38521 | 12.81208 | 86° | 71km/h | 6448m | -11.5m/s | -16.7°C | 7.9% | 460.2hPa | 2.5V | 08:12:00 | 00:00:00 | 00:00:00 | |
| PG1ADW-2 | 2026-09-01 12:55:00 | 48.38519 | 12.81158 | 86° | 71km/h | 6471m | -12.2m/s | -16.8°C | 7.1% | 458.8hPa | 2.6V | 00:00:00 | 00:00:00 | 00:00:00 | |
| OE5MMP-10 | 2026-09-01 12:54:59 | 48.38517 | 12.81132 | 86° | 69km/h | 6483m | -11.4m/s | -16.8°C | 6.9% | 458.1hPa | 2.6V | 08:12:00 | 02:25:18 | 00:00:00 | |
| OE5REO-15 | 2026-09-01 12:54:58 | 48.38517 | 12.81132 | 86° | 66km/h | 6483m | -11.5m/s | -16.9°C | 6.5% | 458.1hPa | 2.5V | 08:13:00 | 00:00:00 | 00:00:00 | |
| OE5DRO-10 | 2026-09-01 12:54:57 | 48.38515 | 12.81081 | 87° | 71km/h | 6507m | -12.2m/s | -16.9°C | 6.8% | 456.6hPa | 2.5V | 00:00:00 | 00:00:00 | 00:00:00 | |
| DO3MHA-11 | 2026-09-01 12:54:56 | 48.38514 | 12.81055 | 86° | 69km/h | 6519m | -12.0m/s | -16.9°C | 6.9% | 456.0hPa | 2.5V | 00:00:00 | 02:25:15 | 00:00:00 | |
| OE5WHR-10 | 2026-09-01 12:54:53 | 48.38510 | 12.80977 | 86° | 73km/h | 6556m | -12.1m/s | -17.0°C | 7.1% | 453.7hPa | 2.6V | 00:00:00 | 02:25:12 | 00:00:00 | |
| OE5MMP-10 | 2026-09-01 12:54:49 | 48.38504 | 12.80871 | 85° | 73km/h | 6606m | -12.0m/s | -17.3°C | 7.0% | 450.8hPa | 2.6V | 00:00:00 | 02:25:08 | 00:00:00 | |
| DO3MHA-11 | 2026-09-01 12:54:46 | 48.38497 | 12.80789 | 83° | 73km/h | 6643m | -12.8m/s | -17.4°C | 6.4% | 448.5hPa | 2.6V | 00:00:00 | 02:25:05 | 00:00:00 | |
| OE5REO-15 | 2026-09-01 12:54:42 | 48.38490 | 12.80707 | 82° | 73km/h | 6680m | -12.4m/s | -17.7°C | 5.9% | 446.3hPa | 2.6V | 08:13:00 | 00:00:00 | 00:00:00 | |
| OE5HKT-10 | 2026-09-01 12:54:41 | 48.38484 | 12.80653 | 81° | 73km/h | 6704m | -13.2m/s | -17.8°C | 6.6% | 444.8hPa | 2.6V | 00:00:00 | 00:00:00 | 00:00:00 | |
| PG1ADW-2 | 2026-09-01 12:54:40 | 48.38480 | 12.80625 | 80° | 73km/h | 6717m | -12.5m/s | -17.9°C | 6.9% | 444.1hPa | 2.6V | 00:00:00 | 00:00:00 | 00:00:00 | |
| OE5MMP-10 | 2026-09-01 12:54:39 | 48.38477 | 12.80598 | 79° | 73km/h | 6730m | -12.5m/s | -17.9°C | 7.1% | 443.3hPa | 2.5V | 00:00:00 | 02:24:58 | 00:00:00 | |
| DG1MFX-10 | 2026-09-01 12:54:37 | 48.38470 | 12.80544 | 79° | 75km/h | 6756m | -12.5m/s | -18.1°C | 7.2% | 441.9hPa | 2.5V | 08:13:00 | 00:00:00 | 00:00:00 | |
| DO3MHA-11 | 2026-09-01 12:54:36 | 48.38465 | 12.80517 | 77° | 73km/h | 6768m | -12.1m/s | -18.1°C | 8.0% | 441.1hPa | 2.5V | 00:00:00 | 02:24:55 | 00:00:00 | |
| OE5DXL-15 | 2026-09-01 12:54:34 | 48.38452 | 12.80435 | 76° | 75km/h | 6804m | -12.1m/s | -18.4°C | 8.5% | 438.9hPa | 2.5V | 00:00:00 | 00:00:00 | 00:00:00 | |
| DL6DJ-15 | 2026-09-01 12:54:33 | 48.38452 | 12.80435 | 75° | 71km/h | 6804m | -12.2m/s | -18.5°C | 8.0% | 438.9hPa | 2.5V | 00:00:00 | 00:00:00 | 00:00:00 | |
| OE5WHR-10 | 2026-09-01 12:54:32 | 48.38447 | 12.80408 | 76° | 75km/h | 6817m | -13.0m/s | -18.5°C | 8.6% | 438.1hPa | 2.5V | 00:00:00 | 00:00:00 | 00:00:00 | |
| OE5MMP-10 | 2026-09-01 12:54:29 | 48.38432 | 12.80327 | 75° | 75km/h | 6854m | -12.4m/s | -18.9°C | 9.3% | 435.9hPa | 2.6V | 00:00:00 | 02:24:48 | 00:00:00 | |
| OE5REO-15 | 2026-09-01 12:54:28 | 48.38428 | 12.80300 | 76° | 75km/h | 6867m | -13.1m/s | -19.0°C | 9.1% | 435.3hPa | 2.5V | 08:13:00 | 00:00:00 | 00:00:00 | |
| DO3MHA-11 | 2026-09-01 12:54:26 | 48.38417 | 12.80246 | 74° | 75km/h | 6893m | -13.8m/s | -19.2°C | 10.2% | 433.7hPa | 2.5V | 00:00:00 | 02:24:45 | 00:00:00 | |
| PG1ADW-2 | 2026-09-01 12:54:20 | 48.38385 | 12.80084 | 73° | 75km/h | 6970m | -12.0m/s | -19.9°C | 11.9% | 429.3hPa | 2.5V | 00:00:00 | 02:24:39 | 00:00:00 | |
| OE5MMP-10 | 2026-09-01 12:54:19 | 48.38380 | 12.80058 | 73° | 75km/h | 6983m | -13.5m/s | -20.0°C | 12.1% | 428.6hPa | 2.5V | 00:00:00 | 02:24:38 | 00:00:00 | |
| DG1MFX-10 | 2026-09-01 12:54:16 | 48.38363 | 12.79977 | 74° | 75km/h | 7021m | -13.7m/s | -20.4°C | 11.8% | 426.4hPa | 2.5V | 08:13:00 | 00:00:00 | 00:00:00 | |
| OE5REO-15 | 2026-09-01 12:54:13 | 48.38347 | 12.79896 | 74° | 77km/h | 7061m | -13.6m/s | -20.8°C | 12.2% | 424.1hPa | 2.5V | 08:13:00 | 00:00:00 | 00:00:00 | |
| OE5WHR-10 | 2026-09-01 12:54:11 | 48.38335 | 12.79842 | 73° | 73km/h | 7087m | -13.0m/s | -20.9°C | 13.4% | 422.4hPa | 2.5V | 00:00:00 | 00:00:00 | 00:00:00 | |
| OE5MMP-10 | 2026-09-01 12:54:09 | 48.38324 | 12.79788 | 73° | 75km/h | 7112m | -13.1m/s | -21.1°C | 13.1% | 421.1hPa | 2.5V | 00:00:00 | 02:24:28 | 00:00:00 | |
| OE5FHM-15 | 2026-09-01 12:54:07 | 48.38313 | 12.79734 | 73° | 73km/h | 7139m | -13.5m/s | -21.3°C | 12.7% | 419.6hPa | 2.5V | 00:00:00 | 02:24:26 | 00:00:00 | |
| DL6DJ-15 | 2026-09-01 12:54:02 | 48.38285 | 12.79600 | 72° | 71km/h | 7206m | -12.9m/s | -21.9°C | 11.4% | 415.7hPa | 2.5V | 00:00:00 | 00:00:00 | 00:00:00 | |
| PG1ADW-2 | 2026-09-01 12:54:01 | 48.38274 | 12.79547 | 73° | 73km/h | 7233m | -11.8m/s | -22.0°C | 12.0% | 414.2hPa | 2.5V | 00:00:00 | 00:00:00 | 00:00:00 | |
| OE5MMP-10 | 2026-09-01 12:53:59 | 48.38269 | 12.79521 | 74° | 73km/h | 7245m | -13.0m/s | -22.1°C | 11.8% | 413.5hPa | 2.5V | 00:00:00 | 02:24:18 | 00:00:00 | |
| OE5REO-15 | 2026-09-01 12:53:56 | 48.38259 | 12.79468 | 74° | 73km/h | 7269m | -11.9m/s | -22.4°C | 10.9% | 412.1hPa | 2.6V | 08:14:00 | 00:00:00 | 00:00:00 | |
| DG1MFX-10 | 2026-09-01 12:53:55 | 48.38254 | 12.79442 | 75° | 75km/h | 7281m | -12.9m/s | -22.5°C | 10.8% | 411.5hPa | 2.6V | 00:00:00 | 00:00:00 | 00:00:00 | |
| OE3JTB-15 | 2026-09-01 12:53:53 | 48.38229 | 12.79308 | 75° | 71km/h | 7352m | -13.6m/s | -23.1°C | 11.2% | 407.7hPa | 2.6V | 00:00:00 | 02:24:10 | 00:00:00 | |
| OE5WHR-10 | 2026-09-01 12:53:50 | 48.38224 | 12.79281 | 75° | 71km/h | 7366m | -14.4m/s | -23.2°C | 11.1% | 406.8hPa | 2.6V | 00:00:00 | 02:24:09 | 00:00:00 | |
| OE5REO-15 | 2026-09-01 12:53:41 | 48.38186 | 12.79069 | 76° | 73km/h | 7479m | -14.8m/s | -24.3°C | 10.5% | 400.7hPa | 2.6V | 08:14:00 | 00:00:00 | 00:00:00 | |
| PG1ADW-2 | 2026-09-01 12:53:40 | 48.38176 | 12.79017 | 75° | 71km/h | 7507m | -14.2m/s | -24.5°C | 11.4% | 399.0hPa | 2.6V | 08:14:00 | 00:00:00 | 00:00:00 | |
| OE5MMP-10 | 2026-09-01 12:53:39 | 48.38171 | 12.78990 | 74° | 69km/h | 7521m | -13.5m/s | -24.6°C | 11.5% | 398.2hPa | 2.5V | 00:00:00 | 02:23:58 | 00:00:00 | |
| DO3MHA-11 | 2026-09-01 12:53:38 | 48.38166 | 12.78965 | 75° | 69km/h | 7535m | -14.2m/s | -24.7°C | 11.5% | 397.6hPa | 2.5V | 00:00:00 | 02:23:57 | 00:00:00 | |
| OE5FHM-15 | 2026-09-01 12:53:37 | 48.38162 | 12.78939 | 75° | 71km/h | 7549m | -14.3m/s | -24.9°C | 11.6% | 396.8hPa | 2.5V | 08:14:00 | 02:23:56 | 00:00:00 | |
| DG1MFX-10 | 2026-09-01 12:53:34 | 48.38152 | 12.78888 | 74° | 71km/h | 7578m | -14.4m/s | -25.1°C | 10.4% | 395.2hPa | 2.6V | 00:00:00 | 00:00:00 | 00:00:00 | |
| OE5DXL-15 | 2026-09-01 12:53:33 | 48.38131 | 12.78787 | 73° | 75km/h | 7633m | -13.4m/s | -25.4°C | 11.1% | 392.1hPa | 2.6V | 00:00:00 | 00:00:00 | 00:00:00 | |
| DL6DJ-15 | 2026-09-01 12:53:31 | 48.38131 | 12.78787 | 72° | 69km/h | 7633m | -13.4m/s | -25.4°C | 10.2% | 392.1hPa | 2.6V | 00:00:00 | 00:00:00 | 00:00:00 | |
| OE5WHR-10 | 2026-09-01 12:53:29 | 48.38120 | 12.78737 | 72° | 73km/h | 7659m | -13.6m/s | -25.5°C | 11.2% | 390.7hPa | 2.6V | 00:00:00 | 00:00:00 | 00:00:00 | |
| DO3MHA-11 | 2026-09-01 12:53:28 | 48.38114 | 12.78712 | 71° | 71km/h | 7672m | -12.2m/s | -25.6°C | 11.2% | 389.9hPa | 2.5V | 08:14:00 | 02:23:47 | 00:00:00 | |
| OE5REO-15 | 2026-09-01 12:53:25 | 48.38103 | 12.78661 | 72° | 71km/h | 7697m | -12.8m/s | -25.9°C | 10.1% | 388.7hPa | 2.5V | 08:14:00 | 00:00:00 | 00:00:00 | |
| OE5DRO-10 | 2026-09-01 12:53:22 | 48.38080 | 12.78560 | 71° | 75km/h | 7748m | -12.3m/s | -26.0°C | 8.7% | 386.0hPa | 2.5V | 00:00:00 | 00:00:00 | 00:00:00 | |
| PG1ADW-2 | 2026-09-01 12:53:20 | 48.38068 | 12.78508 | 71° | 75km/h | 7773m | -12.5m/s | -26.0°C | 7.7% | 384.6hPa | 2.6V | 00:00:00 | 00:00:00 | 00:00:00 | |
| OE5MMP-10 | 2026-09-01 12:53:19 | 48.38061 | 12.78483 | 70° | 73km/h | 7786m | -12.0m/s | -26.0°C | 8.0% | 384.0hPa | 2.6V | 00:00:00 | 02:23:38 | 00:00:00 | |
| DO3MHA-11 | 2026-09-01 12:53:18 | 48.38055 | 12.78457 | 70° | 75km/h | 7798m | -12.9m/s | -26.0°C | 8.2% | 383.2hPa | 2.6V | 00:00:00 | 02:23:37 | 00:00:00 | |
| OE5HKT-10 | 2026-09-01 12:53:12 | 48.38014 | 12.78300 | 69° | 75km/h | 7874m | -12.5m/s | -26.7°C | 9.6% | 379.2hPa | 2.6V | 00:00:00 | 00:00:00 | 00:00:00 | |
| OE5MMP-10 | 2026-09-01 12:53:09 | 48.37993 | 12.78221 | 69° | 75km/h | 7910m | -12.7m/s | -27.0°C | 9.9% | 377.3hPa | 2.6V | 00:00:00 | 02:23:28 | 00:00:00 | |
| DO3MHA-11 | 2026-09-01 12:53:08 | 48.37986 | 12.78194 | 68° | 75km/h | 7923m | -12.0m/s | -27.1°C | 10.2% | 376.6hPa | 2.6V | 00:00:00 | 02:23:27 | 00:00:00 | |
| OE5FHM-15 | 2026-09-01 12:53:07 | 48.37979 | 12.78168 | 69° | 75km/h | 7935m | -13.0m/s | -27.2°C | 10.7% | 376.0hPa | 2.6V | 00:00:00 | 02:23:26 | 00:00:00 | |
| PG1ADW-2 | 2026-09-01 12:53:00 | 48.37929 | 12.77981 | 68° | 75km/h | 8030m | -13.5m/s | -27.9°C | 12.0% | 371.2hPa | 2.6V | 00:00:00 | 02:23:19 | 00:00:00 | |
| OE5MMP-10 | 2026-09-01 12:52:59 | 48.37922 | 12.77954 | 69° | 77km/h | 8044m | -14.9m/s | -28.0°C | 12.2% | 370.5hPa | 2.6V | 00:00:00 | 02:23:18 | 00:00:00 | |
| DO3MHA-11 | 2026-09-01 12:52:58 | 48.37915 | 12.77927 | 69° | 77km/h | 8058m | -13.8m/s | -28.1°C | 12.2% | 369.8hPa | 2.5V | 00:00:00 | 02:23:17 | 00:00:00 | |
| OE5REO-15 | 2026-09-01 12:52:54 | 48.37887 | 12.77819 | 70° | 75km/h | 8115m | -14.0m/s | -28.7°C | 11.5% | 366.8hPa | 2.5V | 00:00:00 | 00:00:00 | 00:00:00 | |
| OE5HKT-10 | 2026-09-01 12:52:51 | 48.37866 | 12.77739 | 69° | 75km/h | 8159m | -13.9m/s | -29.0°C | 12.8% | 364.5hPa | 2.5V | 00:00:00 | 02:23:10 | 00:00:00 | |
| OE5MMP-10 | 2026-09-01 12:52:49 | 48.37852 | 12.77685 | 70° | 75km/h | 8188m | -13.9m/s | -29.3°C | 13.0% | 363.1hPa | 2.5V | 00:00:00 | 02:23:08 | 00:00:00 | |
| DO3MHA-11 | 2026-09-01 12:52:48 | 48.37845 | 12.77658 | 70° | 75km/h | 8203m | -14.6m/s | -29.4°C | 12.9% | 362.4hPa | 2.5V | 00:00:00 | 02:23:07 | 00:00:00 | |
| OE5WHR-10 | 2026-09-01 12:52:47 | 48.37839 | 12.77631 | 71° | 75km/h | 8217m | -14.0m/s | -29.5°C | 12.9% | 361.7hPa | 2.5V | 00:00:00 | 02:23:06 | 00:00:00 | |
| PG1ADW-2 | 2026-09-01 12:52:40 | 48.37794 | 12.77442 | 72° | 75km/h | 8314m | -14.1m/s | -30.3°C | 13.1% | 356.7hPa | 2.5V | 00:00:00 | 00:00:00 | 00:00:00 | |
| OE5MMP-10 | 2026-09-01 12:52:39 | 48.37788 | 12.77415 | 73° | 75km/h | 8328m | -13.9m/s | -30.4°C | 13.1% | 356.0hPa | 2.5V | 00:00:00 | 02:22:58 | 00:00:00 | |
| DO3MHA-11 | 2026-09-01 12:52:38 | 48.37782 | 12.77388 | 72° | 75km/h | 8342m | -13.2m/s | -30.5°C | 13.2% | 355.3hPa | 2.5V | 00:00:00 | 02:22:57 | 00:00:00 | |
| OE5FHM-15 | 2026-09-01 12:52:37 | 48.37776 | 12.77360 | 73° | 75km/h | 8356m | -14.8m/s | -30.6°C | 13.4% | 354.7hPa | 2.5V | 00:00:00 | 02:22:56 | 00:00:00 | |
| OE5HKT-10 | 2026-09-01 12:52:30 | 48.37739 | 12.77168 | 75° | 77km/h | 8452m | -13.4m/s | -31.4°C | 14.9% | 349.9hPa | 2.5V | 00:00:00 | 00:00:00 | 00:00:00 | |
| DL6DJ-15 | 2026-09-01 12:52:29 | 48.37729 | 12.77112 | 75° | 73km/h | 8480m | -13.5m/s | -31.7°C | 14.2% | 348.5hPa | 2.6V | 00:00:00 | 00:00:00 | 00:00:00 | |
| DO3MHA-11 | 2026-09-01 12:52:28 | 48.37729 | 12.77112 | 76° | 75km/h | 8480m | -13.5m/s | -31.6°C | 15.7% | 348.4hPa | 2.6V | 00:00:00 | 02:22:47 | 00:00:00 | |
| OE5WHR-10 | 2026-09-01 12:52:26 | 48.37719 | 12.77056 | 76° | 75km/h | 8508m | -13.4m/s | -31.9°C | 15.9% | 347.1hPa | 2.6V | 08:15:00 | 00:00:00 | 00:00:00 | |
| OE5DXL-15 | 2026-09-01 12:52:24 | 48.37701 | 12.76944 | 77° | 77km/h | 8567m | -13.4m/s | -32.4°C | 17.2% | 344.2hPa | 2.6V | 00:00:00 | 00:00:00 | 00:00:00 | |
| OE5DRO-10 | 2026-09-01 12:52:21 | 48.37697 | 12.76916 | 78° | 77km/h | 8580m | -13.4m/s | -32.5°C | 17.3% | 343.5hPa | 2.6V | 00:00:00 | 00:00:00 | 00:00:00 | |
| DO3MHA-11 | 2026-09-01 12:52:19 | 48.37684 | 12.76832 | 79° | 75km/h | 8618m | -13.0m/s | -32.9°C | 18.3% | 341.7hPa | 2.5V | 00:00:00 | 02:22:37 | 00:00:00 | |
| OE3JTB-15 | 2026-09-01 12:52:14 | 48.37661 | 12.76662 | 79° | 78km/h | 8695m | -13.2m/s | -33.3°C | 20.2% | 338.0hPa | 2.5V | 00:00:00 | 02:22:31 | 00:00:00 | |
| OE5HKT-10 | 2026-09-01 12:52:09 | 48.37650 | 12.76578 | 80° | 77km/h | 8740m | -14.8m/s | -33.7°C | 20.1% | 335.9hPa | 2.5V | 00:00:00 | 00:00:00 | 00:00:00 | |
| DO3MHA-11 | 2026-09-01 12:52:08 | 48.37647 | 12.76550 | 80° | 77km/h | 8755m | -15.3m/s | -33.9°C | 20.2% | 335.2hPa | 2.5V | 00:00:00 | 02:22:27 | 00:00:00 | |
| OE5FHM-15 | 2026-09-01 12:52:07 | 48.37643 | 12.76522 | 80° | 78km/h | 8770m | -14.3m/s | -34.0°C | 20.1% | 334.4hPa | 2.5V | 00:00:00 | 02:22:26 | 00:00:00 | |
| OE5WHR-10 | 2026-09-01 12:52:06 | 48.37636 | 12.76465 | 82° | 78km/h | 8798m | -14.0m/s | -34.3°C | 19.4% | 333.0hPa | 2.5V | 00:00:00 | 00:00:00 | 00:00:00 | |
| OE5MMP-10 | 2026-09-01 12:52:05 | 48.37633 | 12.76437 | 80° | 77km/h | 8811m | -13.6m/s | -34.4°C | 18.8% | 332.4hPa | 2.5V | 00:00:00 | 02:22:23 | 00:00:00 | |
| DL6DJ-15 | 2026-09-01 12:51:58 | 48.37613 | 12.76234 | 83° | 77km/h | 8914m | -14.8m/s | -35.4°C | 13.1% | 327.6hPa | 2.5V | 00:00:00 | 00:00:00 | 00:00:00 | |
| OE5DXL-15 | 2026-09-01 12:51:55 | 48.37604 | 12.76115 | 84° | 82km/h | 8975m | -15.4m/s | -35.8°C | 15.0% | 324.7hPa | 2.5V | 00:00:00 | 00:00:00 | 00:00:00 | |
| BAUMI2-15 | 2026-09-01 12:51:52 | 48.37602 | 12.76086 | 85° | 80km/h | 8990m | -14.8m/s | -36.0°C | 15.0% | 324.0hPa | 2.5V | 00:00:00 | 02:22:11 | 00:00:00 | |
| DO3MHA-11 | 2026-09-01 12:51:48 | 48.37594 | 12.75965 | 85° | 82km/h | 9053m | -15.4m/s | -36.5°C | 15.3% | 321.2hPa | 2.5V | 00:00:00 | 02:22:07 | 00:00:00 | |
| BAUMI2-15 | 2026-09-01 12:51:47 | 48.37593 | 12.75934 | 87° | 82km/h | 9068m | -15.6m/s | -36.6°C | 15.5% | 320.4hPa | 2.5V | 08:15:00 | 02:22:06 | 00:00:00 | |
| OE5WHR-10 | 2026-09-01 12:51:44 | 48.37588 | 12.75842 | 86° | 82km/h | 9114m | -14.5m/s | -37.0°C | 16.0% | 318.3hPa | 2.5V | 00:00:00 | 02:22:03 | 00:00:00 | |
| OE5DRO-10 | 2026-09-01 12:51:43 | 48.37586 | 12.75812 | 86° | 82km/h | 9129m | -15.3m/s | -37.1°C | 16.1% | 317.5hPa | 2.5V | 00:00:00 | 00:00:00 | 00:00:00 | |
| BAUMI2-15 | 2026-09-01 12:51:42 | 48.37585 | 12.75780 | 87° | 82km/h | 9144m | -14.2m/s | -37.3°C | 16.1% | 316.9hPa | 2.5V | 00:00:00 | 02:22:01 | 00:00:00 | |
| PG1ADW-2 | 2026-09-01 12:51:40 | 48.37582 | 12.75719 | 86° | 82km/h | 9174m | -14.9m/s | -37.5°C | 16.1% | 315.5hPa | 2.5V | 00:00:00 | 02:21:59 | 00:00:00 | |
| DO3MHA-11 | 2026-09-01 12:51:38 | 48.37580 | 12.75656 | 87° | 82km/h | 9203m | -14.7m/s | -37.8°C | 16.2% | 314.1hPa | 2.6V | 00:00:00 | 02:21:57 | 00:00:00 | |
| BAUMI2-15 | 2026-09-01 12:51:37 | 48.37578 | 12.75625 | 87° | 82km/h | 9218m | -14.1m/s | -37.9°C | 16.2% | 313.4hPa | 2.6V | 00:00:00 | 02:21:56 | 00:00:00 | |
| OE5MMP-10 | 2026-09-01 12:51:34 | 48.37574 | 12.75532 | 86° | 82km/h | 9259m | -12.6m/s | -38.2°C | 16.8% | 311.5hPa | 2.6V | 00:00:00 | 02:21:53 | 00:00:00 | |
| BAUMI2-15 | 2026-09-01 12:51:33 | 48.37571 | 12.75470 | 86° | 82km/h | 9285m | -13.3m/s | -38.5°C | 17.6% | 310.3hPa | 2.6V | 00:00:00 | 02:21:51 | 00:00:00 | |
| DO3MHA-11 | 2026-09-01 12:51:28 | 48.37564 | 12.75345 | 86° | 82km/h | 9337m | -12.6m/s | -39.0°C | 20.1% | 308.0hPa | 2.5V | 00:00:00 | 02:21:47 | 00:00:00 | |
| DL6DJ-15 | 2026-09-01 12:51:27 | 48.37561 | 12.75282 | 85° | 84km/h | 9364m | -13.5m/s | -39.2°C | 19.6% | 306.9hPa | 2.5V | 00:00:00 | 00:00:00 | 00:00:00 | |
| OE5DRO-10 | 2026-09-01 12:51:25 | 48.37558 | 12.75219 | 86° | 86km/h | 9390m | -13.2m/s | -39.4°C | 23.5% | 305.6hPa | 2.5V | 08:16:00 | 00:00:00 | 00:00:00 | |
| OE5MMP-10 | 2026-09-01 12:51:24 | 48.37558 | 12.75219 | 86° | 84km/h | 9390m | -13.2m/s | -39.4°C | 23.5% | 305.6hPa | 2.5V | 00:00:00 | 02:21:43 | 00:00:00 | |
| OE5WHR-10 | 2026-09-01 12:51:23 | 48.37556 | 12.75188 | 86° | 86km/h | 9403m | -12.9m/s | -39.5°C | 25.1% | 305.0hPa | 2.5V | 00:00:00 | 00:00:00 | 00:00:00 | |
| BAUMI2-15 | 2026-09-01 12:51:22 | 48.37555 | 12.75156 | 87° | 84km/h | 9416m | -12.5m/s | -39.6°C | 27.2% | 304.4hPa | 2.5V | 00:00:00 | 02:21:41 | 00:00:00 | |
| PG1ADW-2 | 2026-09-01 12:51:20 | 48.37552 | 12.75092 | 87° | 86km/h | 9442m | -12.9m/s | -39.8°C | 30.8% | 303.3hPa | 2.5V | 00:00:00 | 00:00:00 | 00:00:00 | |
| BAUMI2-15 | 2026-09-01 12:51:17 | 48.37548 | 12.74996 | 86° | 84km/h | 9481m | -12.8m/s | -40.0°C | 37.7% | 301.6hPa | 2.5V | 00:00:00 | 02:21:36 | 00:00:00 | |
| OE3JTB-15 | 2026-09-01 12:51:16 | 48.37544 | 12.74900 | 87° | 86km/h | 9521m | -12.7m/s | -40.3°C | 50.8% | 299.8hPa | 2.5V | 00:00:00 | 00:00:00 | 00:00:00 | |
| OE5MMP-10 | 2026-09-01 12:51:14 | 48.37544 | 12.74900 | 87° | 86km/h | 9521m | -12.7m/s | -40.3°C | 50.8% | 299.8hPa | 2.5V | 00:00:00 | 02:21:33 | 00:00:00 | |
| BAUMI2-15 | 2026-09-01 12:51:12 | 48.37542 | 12.74836 | 87° | 86km/h | 9547m | -13.6m/s | -40.4°C | 56.8% | 298.7hPa | 2.5V | 00:00:00 | 02:21:31 | 00:00:00 | |
| OE5FHM-15 | 2026-09-01 12:51:07 | 48.37537 | 12.74673 | 89° | 86km/h | 9618m | -15.4m/s | -40.9°C | 58.7% | 295.6hPa | 2.5V | 00:00:00 | 02:21:26 | 00:00:00 | |
| OE5DRO-10 | 2026-09-01 12:51:05 | 48.37536 | 12.74608 | 88° | 86km/h | 9648m | -13.9m/s | -41.2°C | 59.0% | 294.3hPa | 2.5V | 00:00:00 | 00:00:00 | 00:00:00 | |
| OE5MMP-10 | 2026-09-01 12:51:04 | 48.37535 | 12.74575 | 89° | 86km/h | 9662m | -13.9m/s | -41.3°C | 59.1% | 293.7hPa | 2.5V | 00:00:00 | 02:21:23 | 00:00:00 | |
| DL6DJ-15 | 2026-09-01 12:50:55 | 48.37521 | 12.74151 | 85° | 84km/h | 9842m | -13.8m/s | -42.9°C | 55.0% | 286.1hPa | 2.5V | 00:00:00 | 00:00:00 | 00:00:00 | |
| OE5MMP-10 | 2026-09-01 12:50:54 | 48.37525 | 12.74249 | 87° | 86km/h | 9800m | -13.7m/s | -42.5°C | 59.5% | 287.7hPa | 2.5V | 00:00:00 | 02:21:13 | 00:00:00 | |
| BAUMI2-15 | 2026-09-01 12:50:52 | 48.37522 | 12.74184 | 87° | 86km/h | 9828m | -14.6m/s | -42.7°C | 59.5% | 286.6hPa | 2.5V | 00:00:00 | 02:21:11 | 00:00:00 | |
| BAUMI2-15 | 2026-09-01 12:50:47 | 48.37515 | 12.74021 | 87° | 88km/h | 9898m | -14.0m/s | -43.3°C | 58.4% | 283.6hPa | 2.5V | 00:00:00 | 02:21:06 | 00:00:00 | |
| OE5DRO-10 | 2026-09-01 12:50:46 | 48.37513 | 12.73988 | 85° | 88km/h | 9913m | -14.2m/s | -43.4°C | 58.2% | 283.0hPa | 2.6V | 00:00:00 | 00:00:00 | 00:00:00 | |
| OE5MMP-10 | 2026-09-01 12:50:44 | 48.37509 | 12.73923 | 86° | 88km/h | 9940m | -13.8m/s | -43.6°C | 57.0% | 281.8hPa | 2.6V | 00:00:00 | 02:21:03 | 00:00:00 | |
| BAUMI2-15 | 2026-09-01 12:50:42 | 48.37505 | 12.73857 | 84° | 88km/h | 9968m | -13.6m/s | -43.8°C | 56.8% | 280.6hPa | 2.6V | 00:00:00 | 02:21:01 | 00:00:00 | |
| OE5WHR-10 | 2026-09-01 12:50:41 | 48.37503 | 12.73824 | 85° | 89km/h | 9983m | -14.3m/s | -43.9°C | 56.8% | 280.1hPa | 2.6V | 00:00:00 | 02:21:00 | 00:00:00 | |
| PG1ADW-2 | 2026-09-01 12:50:40 | 48.37500 | 12.73791 | 85° | 89km/h | 9997m | -14.3m/s | -44.0°C | 56.8% | 279.5hPa | 2.6V | 08:17:00 | 00:00:00 | 00:00:00 | |
| OE5FHM-15 | 2026-09-01 12:50:37 | 48.37493 | 12.73692 | 84° | 89km/h | 10039m | -14.4m/s | -44.3°C | 56.3% | 277.7hPa | 2.5V | 00:00:00 | 02:20:56 | 00:00:00 | |
| OE5MMP-10 | 2026-09-01 12:50:34 | 48.37487 | 12.73593 | 85° | 89km/h | 10084m | -15.9m/s | -44.7°C | 56.0% | 275.9hPa | 2.6V | 00:00:00 | 02:20:53 | 00:00:00 | |
| BAUMI2-15 | 2026-09-01 12:50:32 | 48.37482 | 12.73526 | 85° | 89km/h | 10115m | -14.7m/s | -45.0°C | 56.3% | 274.6hPa | 2.6V | 00:00:00 | 02:20:51 | 00:00:00 | |
| BAUMI2-15 | 2026-09-01 12:50:27 | 48.37473 | 12.73357 | 85° | 89km/h | 10189m | -15.1m/s | -45.6°C | 56.5% | 271.6hPa | 2.5V | 00:00:00 | 02:20:46 | 00:00:00 | |
| OE5MMP-10 | 2026-09-01 12:50:24 | 48.37467 | 12.73254 | 86° | 89km/h | 10234m | -14.6m/s | -46.0°C | 56.3% | 269.8hPa | 2.5V | 08:17:00 | 02:20:43 | 00:00:00 | |
| BAUMI2-15 | 2026-09-01 12:50:22 | 48.37464 | 12.73186 | 85° | 89km/h | 10264m | -14.5m/s | -46.3°C | 57.0% | 268.6hPa | 2.6V | 00:00:00 | 02:20:41 | 00:00:00 | |
| OE5WHR-10 | 2026-09-01 12:50:20 | 48.37460 | 12.73119 | 85° | 89km/h | 10293m | -14.8m/s | -46.5°C | 57.3% | 267.3hPa | 2.6V | 00:00:00 | 00:00:00 | 00:00:00 | |
| BAUMI2-15 | 2026-09-01 12:50:17 | 48.37454 | 12.73017 | 85° | 89km/h | 10336m | -14.4m/s | -46.8°C | 57.2% | 265.6hPa | 2.5V | 08:17:00 | 02:20:36 | 00:00:00 | |
| OE5MMP-10 | 2026-09-01 12:50:14 | 48.37447 | 12.72914 | 84° | 89km/h | 10379m | -14.2m/s | -47.1°C | 57.9% | 263.9hPa | 2.5V | 00:00:00 | 02:20:33 | 00:00:00 | |
| BAUMI2-15 | 2026-09-01 12:50:11 | 48.37440 | 12.72814 | 83° | 89km/h | 10421m | -14.4m/s | -47.5°C | 59.5% | 262.2hPa | 2.5V | 00:00:00 | 02:20:30 | 00:00:00 | |
| OE5DRO-10 | 2026-09-01 12:50:09 | 48.37431 | 12.72714 | 84° | 91km/h | 10463m | -13.8m/s | -47.9°C | 60.6% | 260.6hPa | 2.5V | 00:00:00 | 00:00:00 | 00:00:00 | |
| OE5FHM-15 | 2026-09-01 12:50:07 | 48.37428 | 12.72680 | 82° | 95km/h | 10477m | -14.7m/s | -48.0°C | 61.0% | 260.0hPa | 2.5V | 00:00:00 | 02:20:26 | 00:00:00 | |
| BAUMI2-15 | 2026-09-01 12:50:06 | 48.37425 | 12.72646 | 82° | 89km/h | 10492m | -14.2m/s | -48.1°C | 61.4% | 259.4hPa | 2.5V | 00:00:00 | 02:20:25 | 00:00:00 | |
| OE5MMP-10 | 2026-09-01 12:50:04 | 48.37418 | 12.72580 | 81° | 91km/h | 10520m | -13.6m/s | -48.3°C | 61.4% | 258.3hPa | 2.5V | 00:00:00 | 02:20:23 | 00:00:00 | |
| DL6DJ-15 | 2026-09-01 12:49:53 | 48.37371 | 12.72203 | 79° | 95km/h | 10679m | -14.8m/s | -49.3°C | 53.2% | 252.2hPa | 2.5V | 00:00:00 | 00:00:00 | 00:00:00 | |
| OE5HKT-10 | 2026-09-01 12:49:52 | 48.37367 | 12.72167 | 80° | 99km/h | 10693m | -14.1m/s | -49.4°C | 58.6% | 251.6hPa | 2.5V | 00:00:00 | 00:00:00 | 08:30:00 | |
| OE5DRO-10 | 2026-09-01 12:49:49 | 48.37354 | 12.72058 | 81° | 99km/h | 10739m | -15.1m/s | -49.7°C | 58.3% | 249.9hPa | 2.6V | 00:00:00 | 00:00:00 | 00:00:00 | |
| OE3JTB-15 | 2026-09-01 12:49:46 | 48.37334 | 12.71874 | 82° | 100km/h | 10820m | -15.1m/s | -50.3°C | 58.4% | 246.8hPa | 2.6V | 00:00:00 | 00:00:00 | 00:00:00 | |
| OE5MMP-10 | 2026-09-01 12:49:44 | 48.37334 | 12.71874 | 82° | 100km/h | 10820m | -15.1m/s | -50.3°C | 58.4% | 246.8hPa | 2.6V | 00:00:00 | 02:20:03 | 00:00:00 | |
| PG1ADW-2 | 2026-09-01 12:49:40 | 48.37319 | 12.71725 | 82° | 60km/h | 10885m | -17.2m/s | -50.9°C | 57.5% | 244.4hPa | 2.6V | 00:00:00 | 00:00:00 | 00:00:00 | |
| OE5WHR-10 | 2026-09-01 12:49:38 | 48.37311 | 12.71650 | 81° | 100km/h | 10919m | -16.8m/s | -51.2°C | 56.9% | 243.0hPa | 2.5V | 00:00:00 | 02:19:57 | 00:00:00 | |
| OE5FHM-15 | 2026-09-01 12:49:37 | 48.37307 | 12.71612 | 82° | 100km/h | 10936m | -17.1m/s | -51.4°C | 56.8% | 242.4hPa | 2.5V | 00:00:00 | 02:19:56 | 00:00:00 | |
| OE5MMP-10 | 2026-09-01 12:49:34 | 48.37295 | 12.71500 | 81° | 100km/h | 10986m | -16.6m/s | -51.8°C | 56.2% | 240.5hPa | 2.5V | 00:00:00 | 02:19:53 | 00:00:00 | |
| OE5HKT-10 | 2026-09-01 12:49:31 | 48.37282 | 12.71386 | 81° | 38km/h | 11034m | -16.4m/s | -52.2°C | 55.9% | 238.7hPa | 2.5V | 00:00:00 | 00:00:00 | 00:00:00 | |
| OE5DRO-10 | 2026-09-01 12:49:30 | 48.37278 | 12.71349 | 80° | 99km/h | 11051m | -16.1m/s | -52.4°C | 55.8% | 238.1hPa | 2.5V | 00:00:00 | 00:00:00 | 00:00:00 | |
| DO7DH-14 | 2026-09-01 12:49:29 | 48.37273 | 12.71311 | 81° | 99km/h | 11067m | -16.5m/s | -52.5°C | 55.4% | 237.6hPa | 2.5V | 00:00:00 | 02:19:48 | 00:00:00 | |
| OE5MMP-10 | 2026-09-01 12:49:24 | 48.37251 | 12.71122 | 81° | 100km/h | 11149m | -17.2m/s | -53.1°C | 54.1% | 234.6hPa | 2.5V | 00:00:00 | 02:19:43 | 00:00:00 | |
| DL6DJ-15 | 2026-09-01 12:49:22 | 48.37242 | 12.71046 | 80° | 99km/h | 11182m | -16.2m/s | -53.4°C | 47.5% | 233.4hPa | 2.5V | 00:00:00 | 00:00:00 | 00:00:00 | |
| DO3MHA-11 | 2026-09-01 12:49:18 | 48.37225 | 12.70897 | 81° | 100km/h | 11245m | -15.8m/s | -53.9°C | 52.1% | 231.0hPa | 2.5V | 00:00:00 | 02:19:37 | 00:00:00 | |
| OE5WHR-10 | 2026-09-01 12:49:17 | 48.37221 | 12.70859 | 81° | 99km/h | 11261m | -14.8m/s | -54.0°C | 51.8% | 230.4hPa | 2.5V | 08:18:00 | 00:00:00 | 00:00:00 | |
| OE5MMP-10 | 2026-09-01 12:49:14 | 48.37208 | 12.70747 | 81° | 99km/h | 11307m | -16.4m/s | -54.4°C | 49.8% | 228.9hPa | 2.5V | 00:00:00 | 02:19:33 | 00:00:00 | |
| DK5PH-5 | 2026-09-01 12:49:08 | 48.37185 | 12.70525 | 81° | 97km/h | 11407m | -15.8m/s | -55.3°C | 46.8% | 225.3hPa | 2.5V | 00:00:00 | 02:19:27 | 00:00:00 | |
| OE5FHM-15 | 2026-09-01 12:49:07 | 48.37181 | 12.70488 | 81° | 97km/h | 11424m | -17.0m/s | -55.4°C | 46.3% | 224.7hPa | 2.5V | 08:18:00 | 02:19:26 | 00:00:00 | |
| OE5MMP-10 | 2026-09-01 12:49:04 | 48.37169 | 12.70377 | 81° | 99km/h | 11474m | -17.2m/s | -55.8°C | 44.2% | 223.0hPa | 2.5V | 00:00:00 | 02:19:23 | 00:00:00 | |
| DL6DJ-15 | 2026-09-01 12:48:51 | 48.37114 | 12.69899 | 82° | 99km/h | 11697m | -17.3m/s | -57.4°C | 31.2% | 215.3hPa | 2.5V | 00:00:00 | 00:00:00 | 00:00:00 | |
| DO3MHA-11 | 2026-09-01 12:48:47 | 48.37104 | 12.69752 | 85° | 95km/h | 11763m | -16.5m/s | -57.3°C | 35.1% | 213.0hPa | 2.5V | 00:00:00 | 02:19:06 | 00:00:00 | |
| OE5DRO-10 | 2026-09-01 12:48:46 | 48.37099 | 12.69680 | 85° | 93km/h | 11795m | -17.2m/s | -57.5°C | 33.8% | 211.9hPa | 2.5V | 00:00:00 | 00:00:00 | 00:00:00 | |
| OE5MMP-10 | 2026-09-01 12:48:44 | 48.37097 | 12.69643 | 84° | 93km/h | 11812m | -17.5m/s | -57.6°C | 33.4% | 211.4hPa | 2.5V | 00:00:00 | 02:19:03 | 00:00:00 | |
| DG1MFX-10 | 2026-09-01 12:48:41 | 48.37091 | 12.69573 | 84° | 93km/h | 11846m | -16.7m/s | -57.9°C | 26.7% | 210.2hPa | 2.5V | 08:19:00 | 00:00:00 | 00:00:00 | |
| DK5PH-5 | 2026-09-01 12:48:38 | 48.37079 | 12.69434 | 81° | 95km/h | 11914m | -16.7m/s | -57.7°C | 28.6% | 207.9hPa | 2.5V | 00:00:00 | 02:18:57 | 00:00:00 | |
| OE5FHM-15 | 2026-09-01 12:48:37 | 48.37075 | 12.69401 | 81° | 95km/h | 11930m | -15.9m/s | -57.8°C | 27.7% | 207.4hPa | 2.5V | 00:00:00 | 02:18:56 | 00:00:00 | |
| OE5WHR-10 | 2026-09-01 12:48:35 | 48.37066 | 12.69332 | 80° | 93km/h | 11964m | -16.6m/s | -57.9°C | 26.0% | 206.2hPa | 2.5V | 00:00:00 | 02:18:54 | 00:00:00 | |
| OE5MMP-10 | 2026-09-01 12:48:34 | 48.37062 | 12.69298 | 79° | 91km/h | 11980m | -16.0m/s | -57.8°C | 24.7% | 205.7hPa | 2.5V | 00:00:00 | 02:18:53 | 00:00:00 | |
| OE5DXL-15 | 2026-09-01 12:48:33 | 48.37053 | 12.69230 | 79° | 95km/h | 12015m | -17.4m/s | -57.3°C | 22.5% | 204.6hPa | 2.5V | 00:00:00 | 00:00:00 | 00:00:00 | |
| OE5DRO-10 | 2026-09-01 12:48:26 | 48.37027 | 12.69024 | 81° | 95km/h | 12118m | -16.4m/s | -56.9°C | 19.9% | 201.3hPa | 2.5V | 08:19:00 | 00:00:00 | 00:00:00 | |
| DO7DH-14 | 2026-09-01 12:48:24 | 48.37021 | 12.68955 | 82° | 97km/h | 12149m | -15.2m/s | -56.9°C | 19.3% | 200.2hPa | 2.5V | 00:00:00 | 02:18:43 | 00:00:00 | |
| DG1MFX-10 | 2026-09-01 12:48:22 | 48.37012 | 12.68850 | 85° | 93km/h | 12195m | -15.0m/s | -57.1°C | 14.2% | 198.8hPa | 2.5V | 08:19:00 | 00:00:00 | 00:00:00 | |
| DL6DJ-15 | 2026-09-01 12:48:21 | 48.37010 | 12.68814 | 85° | 95km/h | 12210m | -15.5m/s | -57.3°C | 14.1% | 198.3hPa | 2.5V | 00:00:00 | 00:00:00 | 00:00:00 | |
| OE5WHR-10 | 2026-09-01 12:48:14 | 48.37002 | 12.68594 | 90° | 99km/h | 12303m | -15.2m/s | -57.8°C | 17.5% | 195.4hPa | 2.5V | 00:00:00 | 00:00:00 | 00:00:00 | |
| DK5PH-5 | 2026-09-01 12:48:08 | 48.37001 | 12.68372 | 91° | 100km/h | 12398m | -16.4m/s | -58.3°C | 16.2% | 192.6hPa | 2.5V | 00:00:00 | 02:18:27 | 00:00:00 | |
| OE5FHM-15 | 2026-09-01 12:48:07 | 48.37001 | 12.68335 | 90° | 100km/h | 12415m | -16.7m/s | -58.3°C | 16.0% | 192.0hPa | 2.5V | 00:00:00 | 02:18:26 | 00:00:00 | |
| OE5MMP-10 | 2026-09-01 12:48:04 | 48.37000 | 12.68226 | 89° | 99km/h | 12464m | -16.3m/s | -58.4°C | 15.0% | 190.5hPa | 2.5V | 00:00:00 | 02:18:23 | 00:00:00 | |
| DL6DJ-15 | 2026-09-01 12:47:49 | 48.36986 | 12.67651 | 90° | 108km/h | 12727m | -17.9m/s | -57.8°C | 5.7% | 182.8hPa | 2.5V | 00:00:00 | 00:00:00 | 00:00:00 | |
| OE5DRO-10 | 2026-09-01 12:47:48 | 48.36990 | 12.67529 | 94° | 99km/h | 12780m | -18.4m/s | -57.6°C | 8.6% | 181.3hPa | 2.5V | 00:00:00 | 00:00:00 | 00:00:00 | |
| BAUMI2-15 | 2026-09-01 12:47:46 | 48.36990 | 12.67529 | 94° | 102km/h | 12780m | -18.4m/s | -57.6°C | 8.6% | 181.3hPa | 2.5V | 00:00:00 | 02:18:05 | 00:00:00 | |
| OE5MMP-10 | 2026-09-01 12:47:45 | 48.36992 | 12.67449 | 94° | 97km/h | 12816m | -17.3m/s | -57.3°C | 7.9% | 180.2hPa | 2.5V | 00:00:00 | 02:18:03 | 00:00:00 | |
| BAUMI2-15 | 2026-09-01 12:47:41 | 48.36998 | 12.67336 | 94° | 97km/h | 12870m | -18.6m/s | -57.0°C | 7.3% | 178.7hPa | 2.5V | 00:00:00 | 02:18:00 | 00:00:00 | |
| DG1MFX-10 | 2026-09-01 12:47:40 | 48.36999 | 12.67299 | 95° | 95km/h | 12888m | -17.2m/s | -56.9°C | 3.9% | 178.2hPa | 2.5V | 08:20:00 | 00:00:00 | 00:00:00 | |
| DK5PH-5 | 2026-09-01 12:47:38 | 48.37003 | 12.67225 | 95° | 95km/h | 12925m | -18.5m/s | -56.3°C | 6.6% | 177.1hPa | 2.5V | 00:00:00 | 02:17:57 | 00:00:00 | |
| OE5FHM-15 | 2026-09-01 12:47:37 | 48.37004 | 12.67189 | 93° | 95km/h | 12943m | -17.5m/s | -56.1°C | 6.4% | 176.6hPa | 2.5V | 00:00:00 | 02:17:56 | 00:00:00 | |
| BAUMI2-15 | 2026-09-01 12:47:36 | 48.37005 | 12.67154 | 93° | 95km/h | 12961m | -17.2m/s | -55.8°C | 6.2% | 176.2hPa | 2.5V | 00:00:00 | 02:17:55 | 00:00:00 | |
| OE5MMP-10 | 2026-09-01 12:47:34 | 48.37006 | 12.67081 | 91° | 97km/h | 12997m | -18.3m/s | -55.6°C | 5.9% | 175.2hPa | 2.5V | 00:00:00 | 02:17:53 | 00:00:00 | |
| DO3MHA-11 | 2026-09-01 12:47:33 | 48.37006 | 12.67045 | 90° | 97km/h | 13015m | -17.1m/s | -55.6°C | 5.9% | 174.6hPa | 2.5V | 00:00:00 | 02:17:52 | 00:00:00 | |
| OE5WHR-10 | 2026-09-01 12:47:32 | 48.37006 | 12.67009 | 91° | 95km/h | 13032m | -17.6m/s | -55.5°C | 5.8% | 174.1hPa | 2.5V | 00:00:00 | 02:17:51 | 00:00:00 | |
| BAUMI2-15 | 2026-09-01 12:47:31 | 48.37006 | 12.66972 | 90° | 97km/h | 13051m | -18.9m/s | -55.3°C | 5.7% | 173.7hPa | 2.5V | 08:20:00 | 02:17:50 | 00:00:00 | |
| OE5DRO-10 | 2026-09-01 12:47:29 | 48.37006 | 12.66899 | 90° | 95km/h | 13087m | -19.2m/s | -55.0°C | 5.4% | 172.7hPa | 2.5V | 00:00:00 | 00:00:00 | 00:00:00 | |
| BAUMI2-15 | 2026-09-01 12:47:26 | 48.37005 | 12.66789 | 90° | 97km/h | 13144m | -19.2m/s | -55.1°C | 5.4% | 171.1hPa | 2.5V | 00:00:00 | 02:17:45 | 00:00:00 | |
| OE5MMP-10 | 2026-09-01 12:47:24 | 48.37004 | 12.66716 | 90° | 95km/h | 13181m | -18.5m/s | -54.9°C | 5.2% | 170.1hPa | 2.5V | 08:20:00 | 02:17:43 | 00:00:00 | |
| DO3MHA-11 | 2026-09-01 12:47:22 | 48.37003 | 12.66643 | 88° | 95km/h | 13219m | -18.3m/s | -54.4°C | 4.9% | 169.2hPa | 2.6V | 08:20:00 | 02:17:41 | 00:00:00 | |
| BAUMI2-15 | 2026-09-01 12:47:21 | 48.37001 | 12.66607 | 88° | 97km/h | 13237m | -18.8m/s | -54.4°C | 4.8% | 168.6hPa | 2.5V | 00:00:00 | 02:17:40 | 00:00:00 | |
| DO7DH-14 | 2026-09-01 12:47:20 | 48.37000 | 12.66571 | 87° | 82km/h | 13256m | -19.3m/s | -54.4°C | 4.8% | 168.1hPa | 2.5V | 08:20:00 | 02:17:39 | 00:00:00 | |
| DG1MFX-10 | 2026-09-01 12:47:19 | 48.36998 | 12.66534 | 87° | 95km/h | 13275m | -18.9m/s | -54.4°C | 2.2% | 167.7hPa | 2.6V | 08:21:00 | 00:00:00 | 00:00:00 | |
| DL6DJ-15 | 2026-09-01 12:47:18 | 48.36997 | 12.66499 | 85° | 93km/h | 13293m | -17.3m/s | -54.3°C | 2.1% | 167.2hPa | 2.6V | 00:00:00 | 00:00:00 | 00:00:00 | |
| BAUMI2-15 | 2026-09-01 12:47:16 | 48.36991 | 12.66426 | 83° | 95km/h | 13330m | -18.6m/s | -53.7°C | 4.6% | 166.2hPa | 2.6V | 00:00:00 | 02:17:35 | 00:00:00 | |
| OE5MMP-10 | 2026-09-01 12:47:14 | 48.36984 | 12.66355 | 82° | 91km/h | 13368m | -18.9m/s | -53.8°C | 4.6% | 165.2hPa | 2.5V | 00:00:00 | 02:17:33 | 00:00:00 | |
| DO3MHA-11 | 2026-09-01 12:47:13 | 48.36977 | 12.66284 | 83° | 88km/h | 13406m | -20.3m/s | -53.3°C | 4.4% | 164.3hPa | 2.5V | 00:00:00 | 02:17:31 | 00:00:00 | |
| OE5WHR-10 | 2026-09-01 12:47:11 | 48.36973 | 12.66249 | 82° | 77km/h | 13426m | -19.0m/s | -53.3°C | 4.4% | 163.7hPa | 2.5V | 00:00:00 | 00:00:00 | 00:00:00 | |
| OE5DRO-10 | 2026-09-01 12:47:10 | 48.36967 | 12.66180 | 83° | 75km/h | 13464m | -19.4m/s | -53.4°C | 4.4% | 162.8hPa | 2.6V | 00:00:00 | 00:00:00 | 00:00:00 | |
| DK5PH-5 | 2026-09-01 12:47:08 | 48.36964 | 12.66146 | 84° | 73km/h | 13483m | -18.3m/s | -53.5°C | 4.4% | 162.3hPa | 2.6V | 00:00:00 | 02:17:27 | 00:00:00 | |
| OE5FHM-15 | 2026-09-01 12:47:07 | 48.36962 | 12.66113 | 84° | 73km/h | 13501m | -19.6m/s | -53.7°C | 4.5% | 161.9hPa | 2.6V | 00:00:00 | 02:17:26 | 00:00:00 | |
| BAUMI2-15 | 2026-09-01 12:47:06 | 48.36960 | 12.66080 | 85° | 82km/h | 13521m | -18.9m/s | -53.8°C | 4.5% | 161.3hPa | 2.6V | 00:00:00 | 02:17:25 | 00:00:00 | |
| OE5MMP-10 | 2026-09-01 12:47:04 | 48.36957 | 12.66017 | 87° | 73km/h | 13559m | -18.6m/s | -54.1°C | 4.6% | 160.4hPa | 2.6V | 00:00:00 | 02:17:23 | 00:00:00 | |
| DL6DJ-15 | 2026-09-01 12:46:47 | 48.36922 | 12.65579 | 73° | 71km/h | 13886m | -20.6m/s | -52.7°C | 1.6% | 152.5hPa | 2.6V | 00:00:00 | 00:00:00 | 00:00:00 | |
| BAUMI2-15 | 2026-09-01 12:46:46 | 48.36916 | 12.65553 | 73° | 75km/h | 13907m | -20.5m/s | -52.7°C | 4.0% | 152.0hPa | 2.6V | 08:21:00 | 02:17:05 | 00:00:00 | |
| OE5MMP-10 | 2026-09-01 12:46:44 | 48.36906 | 12.65500 | 76° | 80km/h | 13947m | -21.6m/s | -52.9°C | 4.1% | 151.0hPa | 2.5V | 00:00:00 | 02:17:03 | 00:00:00 | |
| DO3MHA-11 | 2026-09-01 12:46:42 | 48.36897 | 12.65444 | 76° | 80km/h | 13990m | -20.7m/s | -53.2°C | 4.1% | 150.0hPa | 2.5V | 00:00:00 | 02:17:01 | 00:00:00 | |
| BAUMI2-15 | 2026-09-01 12:46:41 | 48.36892 | 12.65415 | 79° | 80km/h | 14011m | -22.0m/s | -53.4°C | 4.2% | 149.5hPa | 2.5V | 00:00:00 | 02:17:00 | 00:00:00 | |
| DK5PH-5 | 2026-09-01 12:46:38 | 48.36882 | 12.65325 | 82° | 80km/h | 14077m | -21.5m/s | -53.6°C | 4.2% | 148.0hPa | 2.5V | 00:00:00 | 02:16:57 | 00:00:00 | |
| OE5FHM-15 | 2026-09-01 12:46:37 | 48.36879 | 12.65295 | 82° | 80km/h | 14098m | -21.9m/s | -53.7°C | 4.2% | 147.5hPa | 2.6V | 00:00:00 | 02:16:56 | 00:00:00 | |
| BAUMI2-15 | 2026-09-01 12:46:36 | 48.36876 | 12.65264 | 84° | 84km/h | 14120m | -20.9m/s | -53.9°C | 4.2% | 147.0hPa | 2.6V | 00:00:00 | 02:16:55 | 00:00:00 | |
| OE5MMP-10 | 2026-09-01 12:46:34 | 48.36872 | 12.65201 | 85° | 84km/h | 14162m | -21.9m/s | -54.0°C | 4.3% | 146.1hPa | 2.6V | 00:00:00 | 02:16:53 | 00:00:00 | |
| DO3MHA-11 | 2026-09-01 12:46:32 | 48.36869 | 12.65138 | 86° | 84km/h | 14205m | -21.5m/s | -54.1°C | 4.3% | 145.1hPa | 2.6V | 00:00:00 | 02:16:51 | 00:00:00 | |
| BAUMI2-15 | 2026-09-01 12:46:31 | 48.36867 | 12.65105 | 88° | 84km/h | 14227m | -22.6m/s | -54.1°C | 4.3% | 144.6hPa | 2.6V | 00:00:00 | 02:16:50 | 00:00:00 | |
| OE5WHR-10 | 2026-09-01 12:46:29 | 48.36864 | 12.65041 | 86° | 80km/h | 14271m | -22.8m/s | -53.5°C | 4.1% | 143.6hPa | 2.6V | 00:00:00 | 02:16:48 | 00:00:00 | |
| BAUMI2-15 | 2026-09-01 12:46:26 | 48.36860 | 12.64946 | 87° | 84km/h | 14336m | -20.7m/s | -52.9°C | 3.9% | 142.1hPa | 2.6V | 00:00:00 | 02:16:45 | 00:00:00 | |
| DG1MFX-10 | 2026-09-01 12:46:25 | 48.36859 | 12.64914 | 86° | 84km/h | 14356m | -20.8m/s | -52.9°C | 1.6% | 141.7hPa | 2.6V | 08:22:00 | 00:00:00 | 00:00:00 | |
| OE5MMP-10 | 2026-09-01 12:46:24 | 48.36857 | 12.64882 | 86° | 80km/h | 14377m | -19.8m/s | -52.9°C | 3.9% | 141.1hPa | 2.6V | 00:00:00 | 02:16:43 | 00:00:00 | |
| BAUMI2-15 | 2026-09-01 12:46:21 | 48.36851 | 12.64788 | 86° | 80km/h | 14431m | -17.3m/s | -53.4°C | 4.0% | 139.9hPa | 2.6V | 00:00:00 | 02:16:40 | 00:00:00 | |
| DO7DH-14 | 2026-09-01 12:46:20 | 48.36850 | 12.64757 | 87° | 71km/h | 14448m | -17.2m/s | -53.5°C | 4.0% | 139.6hPa | 2.6V | 00:00:00 | 02:16:39 | 00:00:00 | |
| BAUMI2-15 | 2026-09-01 12:46:16 | 48.36844 | 12.64637 | 87° | 75km/h | 14519m | -16.8m/s | -53.7°C | 4.1% | 138.0hPa | 2.6V | 00:00:00 | 02:16:35 | 00:00:00 | |
| OE5MMP-10 | 2026-09-01 12:46:14 | 48.36843 | 12.64579 | 88° | 73km/h | 14553m | -17.6m/s | -53.9°C | 4.1% | 137.3hPa | 2.5V | 00:00:00 | 02:16:33 | 00:00:00 | |
| OE5DRO-10 | 2026-09-01 12:46:13 | 48.36842 | 12.64550 | 88° | 69km/h | 14570m | -17.3m/s | -54.0°C | 4.2% | 137.0hPa | 2.5V | 00:00:00 | 00:00:00 | 00:00:00 | |
| DO3MHA-11 | 2026-09-01 12:46:12 | 48.36841 | 12.64522 | 89° | 71km/h | 14588m | -17.0m/s | -54.0°C | 4.1% | 136.5hPa | 2.5V | 00:00:00 | 02:16:31 | 00:00:00 | |
| BAUMI2-15 | 2026-09-01 12:46:11 | 48.36841 | 12.64494 | 91° | 73km/h | 14605m | -18.0m/s | -54.2°C | 4.2% | 136.2hPa | 2.5V | 00:00:00 | 02:16:30 | 00:00:00 | |
| DK5PH-5 | 2026-09-01 12:46:08 | 48.36840 | 12.64411 | 91° | 69km/h | 14659m | -16.9m/s | -54.4°C | 4.3% | 135.0hPa | 2.5V | 00:00:00 | 02:16:27 | 00:00:00 | |
| OE5FHM-15 | 2026-09-01 12:46:07 | 48.36841 | 12.64384 | 92° | 69km/h | 14676m | -17.0m/s | -54.5°C | 4.3% | 134.7hPa | 2.5V | 00:00:00 | 02:16:26 | 00:00:00 | |
| BAUMI2-15 | 2026-09-01 12:46:06 | 48.36841 | 12.64357 | 90° | 69km/h | 14693m | -18.1m/s | -54.5°C | 4.3% | 134.3hPa | 2.5V | 00:00:00 | 02:16:25 | 00:00:00 | |
| OE5REO-15 | 2026-09-01 12:46:05 | 48.36841 | 12.64330 | 90° | 71km/h | 14711m | -17.2m/s | -54.5°C | 1.6% | 134.0hPa | 2.5V | 08:22:00 | 00:00:00 | 00:00:00 | |
| DG1MFX-10 | 2026-09-01 12:46:04 | 48.36840 | 12.64304 | 89° | 68km/h | 14729m | -17.3m/s | -54.5°C | 1.6% | 133.6hPa | 2.5V | 08:22:00 | 00:00:00 | 00:00:00 | |
| DO3MHA-11 | 2026-09-01 12:46:03 | 48.36839 | 12.64253 | 87° | 68km/h | 14763m | -17.8m/s | -54.6°C | 4.4% | 132.8hPa | 2.5V | 00:00:00 | 02:16:21 | 00:00:00 | |
| BAUMI2-15 | 2026-09-01 12:46:01 | 48.36837 | 12.64227 | 85° | 68km/h | 14781m | -17.4m/s | -54.6°C | 4.4% | 132.4hPa | 2.5V | 08:21:00 | 02:16:20 | 00:00:00 | |
| OE5DXL-15 | 2026-09-01 12:45:57 | 48.36827 | 12.64099 | 83° | 66km/h | 14867m | -17.6m/s | -54.8°C | 4.4% | 130.7hPa | 2.5V | 00:00:00 | 00:00:00 | 00:00:00 | |
| BAUMI2-15 | 2026-09-01 12:45:56 | 48.36827 | 12.64099 | 83° | 68km/h | 14867m | -17.6m/s | -54.8°C | 4.4% | 130.7hPa | 2.5V | 00:00:00 | 02:16:15 | 00:00:00 | |
| OE5MMP-10 | 2026-09-01 12:45:54 | 48.36823 | 12.64049 | 82° | 69km/h | 14902m | -17.4m/s | -54.6°C | 4.3% | 130.0hPa | 2.5V | 08:21:00 | 02:16:13 | 00:00:00 | |
| DO3MHA-11 | 2026-09-01 12:45:52 | 48.36817 | 12.63997 | 80° | 69km/h | 14938m | -17.4m/s | -54.7°C | 4.3% | 129.2hPa | 2.6V | 08:21:00 | 02:16:11 | 00:00:00 | |
| DO7DH-14 | 2026-09-01 12:45:50 | 48.36812 | 12.63945 | 83° | 64km/h | 14973m | -17.5m/s | -54.9°C | 4.4% | 128.5hPa | 2.5V | 00:00:00 | 02:16:09 | 00:00:00 | |
| OE5REO-15 | 2026-09-01 12:45:49 | 48.36811 | 12.63946 | 83° | 69km/h | 14973m | -17.5m/s | -55.0°C | 1.6% | 128.6hPa | 2.5V | 08:22:00 | 00:00:00 | 00:00:00 | |
| OE5WHR-10 | 2026-09-01 12:45:47 | 48.36804 | 12.63868 | 84° | 66km/h | 15025m | -17.7m/s | -55.2°C | 4.5% | 127.5hPa | 2.5V | 00:00:00 | 00:00:00 | 00:00:00 | |
| OE5MMP-10 | 2026-09-01 12:45:44 | 48.36797 | 12.63788 | 81° | 69km/h | 15078m | -17.0m/s | -54.8°C | 4.4% | 126.4hPa | 2.5V | 00:00:00 | 02:16:03 | 00:00:00 | |
| DG1MFX-10 | 2026-09-01 12:45:43 | 48.36797 | 12.63788 | 82° | 69km/h | 15078m | -17.1m/s | -54.9°C | 1.6% | 126.5hPa | 2.5V | 08:22:00 | 00:00:00 | 00:00:00 | |
| DK5PH-5 | 2026-09-01 12:45:38 | 48.36777 | 12.63631 | 79° | 62km/h | 15184m | -18.6m/s | -54.3°C | 4.1% | 124.4hPa | 2.5V | 00:00:00 | 02:15:57 | 00:00:00 | |
| DO3MHA-11 | 2026-09-01 12:45:35 | 48.36766 | 12.63553 | 79° | 69km/h | 15238m | -18.8m/s | -54.3°C | 4.0% | 123.3hPa | 2.5V | 00:00:00 | 02:15:54 | 00:00:00 | |
| OE5MMP-10 | 2026-09-01 12:45:34 | 48.36763 | 12.63527 | 79° | 60km/h | 15256m | -17.9m/s | -54.3°C | 4.0% | 122.9hPa | 2.5V | 00:00:00 | 02:15:53 | 00:00:00 | |
| OE5REO-15 | 2026-09-01 12:45:33 | 48.36763 | 12.63527 | 80° | 66km/h | 15256m | -17.9m/s | -54.3°C | 1.4% | 123.0hPa | 2.5V | 08:22:00 | 00:00:00 | 00:00:00 | |
| OE5WHR-10 | 2026-09-01 12:45:26 | 48.36745 | 12.63348 | 81° | 62km/h | 15394m | -17.2m/s | -54.9°C | 4.1% | 120.3hPa | 2.5V | 00:00:00 | 02:15:45 | 00:00:00 | |
| OE5MMP-10 | 2026-09-01 12:45:24 | 48.36740 | 12.63306 | 79° | 60km/h | 15428m | -16.2m/s | -55.0°C | 4.2% | 119.7hPa | 2.5V | 00:00:00 | 02:15:43 | 00:00:00 | |
| OE5DXL-15 | 2026-09-01 12:45:23 | 48.36734 | 12.63265 | 77° | 60km/h | 15462m | -17.1m/s | -55.0°C | 4.2% | 119.0hPa | 2.5V | 08:22:00 | 00:00:00 | 00:00:00 | |
| DO3MHA-11 | 2026-09-01 12:45:22 | 48.36734 | 12.63265 | 77° | 62km/h | 15462m | -17.1m/s | -55.0°C | 4.2% | 119.0hPa | 2.5V | 00:00:00 | 02:15:41 | 00:00:00 | |
| DO7DH-14 | 2026-09-01 12:45:20 | 48.36727 | 12.63223 | 77° | 60km/h | 15497m | -17.8m/s | -55.1°C | 4.2% | 118.4hPa | 2.5V | 00:00:00 | 02:15:39 | 00:00:00 | |
| OE5REO-15 | 2026-09-01 12:45:17 | 48.36720 | 12.63178 | 76° | 62km/h | 15533m | -17.3m/s | -55.3°C | 1.5% | 117.8hPa | 2.5V | 08:22:00 | 00:00:00 | 00:00:00 | |
| DL6DJ-15 | 2026-09-01 12:45:14 | 48.36705 | 12.63059 | 82° | 62km/h | 15621m | -21.1m/s | -55.6°C | 1.4% | 116.2hPa | 2.5V | 00:00:00 | 00:00:00 | 00:00:00 | |
| DO3MHA-11 | 2026-09-01 12:45:12 | 48.36703 | 12.63035 | 84° | 64km/h | 15644m | -24.8m/s | -55.6°C | 4.3% | 115.8hPa | 2.5V | 00:00:00 | 02:15:31 | 00:00:00 | |
| DK5PH-5 | 2026-09-01 12:45:08 | 48.36696 | 12.62937 | 85° | 46km/h | 15737m | -22.9m/s | -55.7°C | 4.5% | 114.1hPa | 2.5V | 08:22:00 | 02:15:27 | 00:00:00 | |
| OE5FHM-15 | 2026-09-01 12:45:07 | 48.36695 | 12.62913 | 87° | 55km/h | 15760m | -22.1m/s | -55.8°C | 4.5% | 113.7hPa | 2.6V | 00:00:00 | 02:15:26 | 00:00:00 | |
| OE5WHR-10 | 2026-09-01 12:45:05 | 48.36692 | 12.62866 | 87° | 57km/h | 15804m | -21.6m/s | -55.6°C | 4.5% | 112.9hPa | 2.6V | 00:00:00 | 00:00:00 | 00:00:00 | |
| OE5MMP-10 | 2026-09-01 12:45:04 | 48.36691 | 12.62843 | 85° | 58km/h | 15826m | -21.7m/s | -55.5°C | 4.4% | 112.5hPa | 2.6V | 00:00:00 | 02:15:23 | 00:00:00 | |
| OE5MMP-10 | 2026-09-01 12:44:54 | 48.36673 | 12.62625 | 88° | 53km/h | 16054m | -23.3m/s | -55.0°C | 4.3% | 108.6hPa | 2.6V | 00:00:00 | 02:15:13 | 00:00:00 | |
| DO3MHA-11 | 2026-09-01 12:44:52 | 48.36672 | 12.62582 | 90° | 51km/h | 16100m | -23.1m/s | -54.8°C | 4.1% | 107.8hPa | 2.5V | 00:00:00 | 02:15:11 | 00:00:00 | |
| DO7DH-14 | 2026-09-01 12:44:50 | 48.36673 | 12.62541 | 93° | 46km/h | 16149m | -24.3m/s | -54.6°C | 4.1% | 107.0hPa | 2.5V | 00:00:00 | 02:15:09 | 00:00:00 | |
| OE5REO-15 | 2026-09-01 12:44:46 | 48.36673 | 12.62481 | 93° | 49km/h | 16222m | -23.9m/s | -54.5°C | 1.3% | 105.8hPa | 2.5V | 08:23:00 | 00:00:00 | 00:00:00 | |
| OE5WHR-10 | 2026-09-01 12:44:44 | 48.36675 | 12.62424 | 90° | 44km/h | 16293m | -24.4m/s | -54.0°C | 3.9% | 104.6hPa | 2.5V | 00:00:00 | 00:00:00 | 00:00:00 | |
| DO3MHA-11 | 2026-09-01 12:44:42 | 48.36675 | 12.62388 | 90° | 42km/h | 16341m | -24.1m/s | -54.1°C | 4.0% | 103.8hPa | 2.5V | 00:00:00 | 02:15:01 | 00:00:00 | |
| OE5DRO-10 | 2026-09-01 12:44:41 | 48.36674 | 12.62370 | 88° | 42km/h | 16365m | -23.2m/s | -54.2°C | 4.0% | 103.4hPa | 2.6V | 08:23:00 | 00:00:00 | 00:00:00 | |
| OE5MMP-10 | 2026-09-01 12:44:34 | 48.36671 | 12.62258 | 89° | 42km/h | 16529m | -23.7m/s | -54.4°C | 4.1% | 100.8hPa | 2.5V | 00:00:00 | 02:14:53 | 00:00:00 | |
| DO3MHA-11 | 2026-09-01 12:44:32 | 48.36670 | 12.62227 | 89° | 42km/h | 16576m | -23.0m/s | -54.3°C | 4.1% | 100.1hPa | 2.5V | 00:00:00 | 02:14:51 | 00:00:00 | |
| OE5REO-15 | 2026-09-01 12:44:30 | 48.36669 | 12.62211 | 88° | 42km/h | 16599m | -23.3m/s | -54.4°C | 1.3% | 99.7hPa | 2.5V | 08:23:00 | 00:00:00 | 00:00:00 | |
| OE5MMP-10 | 2026-09-01 12:44:24 | 48.36665 | 12.62101 | 88° | 46km/h | 16764m | -25.7m/s | -53.9°C | 4.0% | 97.2hPa | 2.5V | 08:23:00 | 02:14:43 | 00:00:00 | |
| OE5WHR-10 | 2026-09-01 12:44:23 | 48.36664 | 12.62084 | 92° | 38km/h | 16790m | -26.1m/s | -54.0°C | 4.0% | 96.8hPa | 2.5V | 00:00:00 | 02:14:42 | 00:00:00 | |
| DO3MHA-11 | 2026-09-01 12:44:22 | 48.36664 | 12.62067 | 89° | 44km/h | 16816m | -25.6m/s | -53.9°C | 4.1% | 96.4hPa | 2.5V | 00:00:00 | 02:14:41 | 00:00:00 | |
| OE5DXL-15 | 2026-09-01 12:44:21 | 48.36665 | 12.62034 | 94° | 35km/h | 16868m | -24.5m/s | -53.5°C | 4.0% | 95.6hPa | 2.5V | 00:00:00 | 00:00:00 | 00:00:00 | |
| DO7DH-14 | 2026-09-01 12:44:20 | 48.36665 | 12.62034 | 94° | 31km/h | 16868m | -24.5m/s | -53.5°C | 4.0% | 95.6hPa | 2.5V | 00:00:00 | 02:14:39 | 00:00:00 | |
| OE5REO-15 | 2026-09-01 12:44:15 | 48.36669 | 12.61965 | 100° | 47km/h | 16965m | -24.5m/s | -53.5°C | 1.2% | 94.2hPa | 2.5V | 08:23:00 | 00:00:00 | 00:00:00 | |
| OE5MMP-10 | 2026-09-01 12:44:14 | 48.36673 | 12.61932 | 100° | 35km/h | 17014m | -23.8m/s | -53.1°C | 3.8% | 93.4hPa | 2.5V | 00:00:00 | 02:14:33 | 00:00:00 | |
| DO3MHA-11 | 2026-09-01 12:44:12 | 48.36678 | 12.61900 | 105° | 31km/h | 17062m | -24.1m/s | -53.0°C | 3.8% | 92.8hPa | 2.5V | 08:23:00 | 02:14:31 | 00:00:00 | |
| DL6DJ-15 | 2026-09-01 12:44:11 | 48.36680 | 12.61886 | 106° | 35km/h | 17086m | -23.7m/s | -52.9°C | 1.1% | 92.5hPa | 2.6V | 00:00:00 | 00:00:00 | 00:00:00 | |
| OE5FHM-15 | 2026-09-01 12:44:07 | 48.36689 | 12.61838 | 103° | 29km/h | 17181m | -23.5m/s | -52.4°C | 3.6% | 91.0hPa | 2.6V | 00:00:00 | 02:14:26 | 00:00:00 | |
| OE5MMP-10 | 2026-09-01 12:44:04 | 48.36693 | 12.61808 | 99° | 20km/h | 17255m | -24.4m/s | -51.9°C | 3.4% | 90.0hPa | 2.6V | 00:00:00 | 02:14:23 | 00:00:00 | |
| OE5DRO-10 | 2026-09-01 12:44:03 | 48.36694 | 12.61799 | 91° | 27km/h | 17279m | -25.0m/s | -52.0°C | 3.4% | 89.6hPa | 2.6V | 00:00:00 | 00:00:00 | 00:00:00 | |
| DO3MHA-11 | 2026-09-01 12:44:02 | 48.36694 | 12.61791 | 88° | 22km/h | 17305m | -24.8m/s | -52.0°C | 3.4% | 89.3hPa | 2.6V | 00:00:00 | 02:14:21 | 00:00:00 | |
| OE5REO-15 | 2026-09-01 12:44:00 | 48.36692 | 12.61778 | 66° | 18km/h | 17355m | -25.5m/s | -52.2°C | 1.0% | 88.7hPa | 2.6V | 08:23:00 | 00:00:00 | 00:00:00 | |
| PG1ADW-2 | 2026-09-01 12:43:57 | 48.36686 | 12.61758 | 58° | 31km/h | 17434m | -26.5m/s | -52.6°C | 3.5% | 87.6hPa | 2.6V | 00:00:00 | 00:00:00 | 00:00:00 | |
| OE5MMP-10 | 2026-09-01 12:43:54 | 48.36675 | 12.61737 | 43° | 31km/h | 17517m | -26.8m/s | -52.4°C | 3.4% | 86.5hPa | 2.6V | 00:00:00 | 02:14:13 | 00:00:00 | |
| DK5PH-5 | 2026-09-01 12:43:52 | 48.36666 | 12.61722 | 41° | 29km/h | 17572m | -27.4m/s | -52.6°C | 3.5% | 85.8hPa | 2.6V | 00:00:00 | 02:14:11 | 00:00:00 | |
| BAUMI2-15 | 2026-09-01 12:43:51 | 48.36660 | 12.61715 | 47° | 33km/h | 17600m | -28.2m/s | -52.6°C | 3.5% | 85.4hPa | 2.6V | 00:00:00 | 02:14:10 | 00:00:00 | |
| DO7DH-14 | 2026-09-01 12:43:50 | 48.36655 | 12.61706 | 47° | 33km/h | 17627m | -26.7m/s | -52.6°C | 3.5% | 85.0hPa | 2.6V | 00:00:00 | 02:14:09 | 00:00:00 | |
| BAUMI2-15 | 2026-09-01 12:43:46 | 48.36631 | 12.61669 | 51° | 37km/h | 17733m | -27.1m/s | -53.4°C | 3.7% | 83.6hPa | 2.6V | 00:00:00 | 02:14:05 | 00:00:00 | |
| OE5MMP-10 | 2026-09-01 12:43:44 | 48.36620 | 12.61647 | 53° | 37km/h | 17787m | -25.1m/s | -53.8°C | 3.8% | 82.9hPa | 2.6V | 00:00:00 | 02:14:03 | 00:00:00 | |
| OE5REO-15 | 2026-09-01 12:43:43 | 48.36620 | 12.61647 | 54° | 35km/h | 17787m | -25.2m/s | -53.9°C | 1.1% | 82.9hPa | 2.6V | 08:24:00 | 00:00:00 | 00:00:00 | |
| DO3MHA-11 | 2026-09-01 12:43:42 | 48.36608 | 12.61625 | 59° | 33km/h | 17840m | -27.4m/s | -54.1°C | 3.9% | 82.2hPa | 2.6V | 00:00:00 | 02:14:01 | 00:00:00 | |
| OE5WHR-10 | 2026-09-01 12:43:41 | 48.36603 | 12.61612 | 57° | 31km/h | 17867m | -26.0m/s | -54.1°C | 4.0% | 81.9hPa | 2.5V | 00:00:00 | 00:00:00 | 00:00:00 | |
| DL6DJ-15 | 2026-09-01 12:43:40 | 48.36599 | 12.61600 | 62° | 38km/h | 17893m | -26.5m/s | -54.2°C | 1.2% | 81.5hPa | 2.5V | 00:00:00 | 00:00:00 | 00:00:00 | |
| OE5FHM-15 | 2026-09-01 12:43:37 | 48.36586 | 12.61561 | 71° | 29km/h | 17969m | -24.8m/s | -54.6°C | 4.1% | 80.5hPa | 2.5V | 00:00:00 | 02:13:56 | 00:00:00 | |
| BAUMI2-15 | 2026-09-01 12:43:36 | 48.36584 | 12.61547 | 75° | 35km/h | 17994m | -24.5m/s | -54.6°C | 4.1% | 80.2hPa | 2.5V | 00:00:00 | 02:13:55 | 00:00:00 | |
| OE5MMP-10 | 2026-09-01 12:43:34 | 48.36579 | 12.61522 | 75° | 31km/h | 18042m | -24.4m/s | -54.5°C | 4.1% | 79.6hPa | 2.5V | 00:00:00 | 02:13:53 | 00:00:00 | |
| BAUMI2-15 | 2026-09-01 12:43:31 | 48.36574 | 12.61484 | 85° | 31km/h | 18121m | -26.9m/s | -53.7°C | 3.8% | 78.6hPa | 2.5V | 00:00:00 | 02:13:50 | 00:00:00 | |
| OE5REO-15 | 2026-09-01 12:43:27 | 48.36572 | 12.61448 | 88° | 31km/h | 18202m | -28.0m/s | -53.8°C | 1.1% | 77.7hPa | 2.6V | 08:24:00 | 00:00:00 | 00:00:00 | |
| DO3MHA-11 | 2026-09-01 12:43:26 | 48.36572 | 12.61426 | 89° | 26km/h | 18257m | -27.2m/s | -53.6°C | 3.9% | 76.9hPa | 2.6V | 00:00:00 | 02:13:45 | 00:00:00 | |
| OE5MMP-10 | 2026-09-01 12:43:24 | 48.36571 | 12.61407 | 90° | 24km/h | 18312m | -27.6m/s | -53.2°C | 3.7% | 76.4hPa | 2.6V | 00:00:00 | 02:13:43 | 00:00:00 | |
| OE5DXL-15 | 2026-09-01 12:43:21 | 48.36567 | 12.61365 | 72° | 29km/h | 18450m | -27.2m/s | -53.8°C | 3.8% | 74.7hPa | 2.6V | 00:00:00 | 00:00:00 | 00:00:00 | |
| OE5DRO-10 | 2026-09-01 12:43:20 | 48.36562 | 12.61348 | 63° | 26km/h | 18505m | -26.2m/s | -54.0°C | 3.8% | 74.1hPa | 2.6V | 00:00:00 | 00:00:00 | 00:00:00 | |
| PG1ADW-2 | 2026-09-01 12:43:17 | 48.36562 | 12.61348 | 63° | 29km/h | 18505m | -26.2m/s | -54.0°C | 3.8% | 74.1hPa | 2.6V | 00:00:00 | 00:00:00 | 00:00:00 | |
| BAUMI2-15 | 2026-09-01 12:43:16 | 48.36559 | 12.61340 | 59° | 26km/h | 18532m | -27.7m/s | -54.0°C | 3.8% | 73.8hPa | 2.6V | 08:24:00 | 02:13:35 | 00:00:00 | |
| OE5MMP-10 | 2026-09-01 12:43:14 | 48.36553 | 12.61324 | 58° | 26km/h | 18589m | -28.5m/s | -54.0°C | 3.8% | 73.1hPa | 2.6V | 00:00:00 | 02:13:33 | 00:00:00 | |
| DO3MHA-11 | 2026-09-01 12:43:13 | 48.36549 | 12.61316 | 52° | 29km/h | 18617m | -28.3m/s | -54.0°C | 3.8% | 72.7hPa | 2.6V | 00:00:00 | 02:13:32 | 00:00:00 | |
| OE5REO-15 | 2026-09-01 12:43:12 | 48.36545 | 12.61309 | 52° | 24km/h | 18645m | -27.1m/s | -53.8°C | 1.1% | 72.5hPa | 2.6V | 08:24:00 | 00:00:00 | 00:00:00 | |
| BAUMI2-15 | 2026-09-01 12:43:11 | 48.36541 | 12.61302 | 45° | 26km/h | 18672m | -26.6m/s | -53.4°C | 3.7% | 72.1hPa | 2.6V | 00:00:00 | 02:13:30 | 00:00:00 | |
| DL6DJ-15 | 2026-09-01 12:43:09 | 48.36532 | 12.61290 | 40° | 26km/h | 18726m | -27.6m/s | -53.3°C | 1.0% | 71.6hPa | 2.6V | 00:00:00 | 00:00:00 | 00:00:00 | |
| BAUMI2-15 | 2026-09-01 12:43:06 | 48.36516 | 12.61272 | 36° | 31km/h | 18808m | -26.8m/s | -53.4°C | 3.6% | 70.6hPa | 2.6V | 00:00:00 | 02:13:25 | 00:00:00 | |
| OE5FHM-15 | 2026-09-01 12:43:05 | 48.36510 | 12.61266 | 34° | 24km/h | 18835m | -26.1m/s | -53.6°C | 3.7% | 70.3hPa | 2.6V | 00:00:00 | 02:13:24 | 00:00:00 | |
| OE5MMP-10 | 2026-09-01 12:43:04 | 48.36503 | 12.61259 | 34° | 37km/h | 18861m | -26.7m/s | -53.8°C | 3.8% | 70.0hPa | 2.5V | 00:00:00 | 02:13:23 | 00:00:00 | |
| DO3MHA-11 | 2026-09-01 12:43:01 | 48.36484 | 12.61233 | 44° | 38km/h | 18944m | -27.5m/s | -54.4°C | 4.1% | 69.1hPa | 2.5V | 00:00:00 | 02:13:20 | 00:00:00 | |
| OE5WHR-10 | 2026-09-01 12:42:59 | 48.36471 | 12.61212 | 54° | 27km/h | 18999m | -26.2m/s | -54.6°C | 4.1% | 68.5hPa | 2.6V | 08:24:00 | 00:00:00 | 00:00:00 | |
| PG1ADW-2 | 2026-09-01 12:42:57 | 48.36461 | 12.61187 | 62° | 26km/h | 19054m | -27.7m/s | -54.7°C | 4.2% | 68.0hPa | 2.6V | 00:00:00 | 00:00:00 | 00:00:00 | |
| BAUMI2-15 | 2026-09-01 12:42:56 | 48.36456 | 12.61175 | 60° | 24km/h | 19082m | -28.5m/s | -54.8°C | 4.2% | 67.8hPa | 2.6V | 00:00:00 | 02:13:15 | 00:00:00 | |
| OE5MMP-10 | 2026-09-01 12:42:54 | 48.36447 | 12.61149 | 69° | 29km/h | 19137m | -27.1m/s | -55.0°C | 4.3% | 67.0hPa | 2.6V | 08:24:00 | 02:13:13 | 00:00:00 | |
| DG1MFX-10 | 2026-09-01 12:42:53 | 48.36447 | 12.61149 | 70° | 40km/h | 19137m | -27.1m/s | -55.1°C | 1.2% | 67.1hPa | 2.5V | 08:25:00 | 00:00:00 | 00:00:00 | |
| DO3MHA-11 | 2026-09-01 12:42:51 | 48.36439 | 12.61109 | 78° | 24km/h | 19227m | -31.6m/s | -54.5°C | 4.1% | 66.2hPa | 2.5V | 00:00:00 | 02:13:10 | 00:00:00 | |
| DO7DH-14 | 2026-09-01 12:42:50 | 48.36438 | 12.61097 | 81° | 20km/h | 19259m | -31.7m/s | -54.4°C | 4.1% | 65.9hPa | 2.5V | 08:24:00 | 02:13:09 | 00:00:00 | |
| OE5MMP-10 | 2026-09-01 12:42:44 | 48.36434 | 12.61045 | 87° | 16km/h | 19451m | -32.2m/s | -53.5°C | 3.8% | 64.0hPa | 2.5V | 00:00:00 | 02:13:03 | 00:00:00 | |
| OM5KV | 2026-09-01 12:42:43 | 48.36434 | 12.61045 | 87° | 16km/h | 19451m | -32.3m/s | 0°C | 0% | 0hPa | 2.5V | 08:25:00 | 00:00:00 | 00:00:00 | |
| OE5REO-15 | 2026-09-01 12:42:41 | 48.36434 | 12.61025 | 86° | 15km/h | 19547m | -31.2m/s | -53.8°C | 1.0% | 63.0hPa | 2.5V | 08:25:00 | 00:00:00 | 00:00:00 | |
| OE5DRO-10 | 2026-09-01 12:42:39 | 48.36433 | 12.61007 | 84° | 18km/h | 19642m | -31.0m/s | -53.7°C | 4.0% | 62.0hPa | 2.5V | 00:00:00 | 00:00:00 | 00:00:00 | |
| OE5WHR-10 | 2026-09-01 12:42:38 | 48.36433 | 12.61007 | 84° | 18km/h | 19642m | -31.0m/s | -53.7°C | 4.0% | 62.0hPa | 2.6V | 00:00:00 | 00:00:00 | 00:00:00 | |
| PG1ADW-2 | 2026-09-01 12:42:37 | 48.36433 | 12.61001 | 88° | 18km/h | 19674m | -32.0m/s | -53.6°C | 3.9% | 61.7hPa | 2.6V | 00:00:00 | 00:00:00 | 00:00:00 | |
| BAUMI2-15 | 2026-09-01 12:42:36 | 48.36433 | 12.60995 | 94° | 16km/h | 19706m | -31.2m/s | -53.6°C | 3.9% | 61.5hPa | 2.6V | 00:00:00 | 02:12:55 | 00:00:00 | |
| OE5FHM-15 | 2026-09-01 12:42:35 | 48.36433 | 12.60988 | 83° | 20km/h | 19736m | -30.4m/s | -53.8°C | 4.0% | 61.1hPa | 2.5V | 00:00:00 | 02:12:54 | 00:00:00 | |
| OE5MMP-10 | 2026-09-01 12:42:34 | 48.36432 | 12.60982 | 85° | 18km/h | 19767m | -31.0m/s | -53.9°C | 4.0% | 60.8hPa | 2.5V | 00:00:00 | 02:12:53 | 00:00:00 | |
| DO3MHA-11 | 2026-09-01 12:42:32 | 48.36430 | 12.60962 | 74° | 20km/h | 19859m | -30.5m/s | -54.4°C | 4.3% | 60.0hPa | 2.5V | 08:25:00 | 02:12:50 | 00:00:00 | |
| OM5KV | 2026-09-01 12:42:27 | 48.36427 | 12.60940 | 69° | 20km/h | 19951m | -30.5m/s | 0°C | 0% | 0hPa | 2.6V | 08:25:00 | 00:00:00 | 00:00:00 | |
| BAUMI2-15 | 2026-09-01 12:42:26 | 48.36423 | 12.60926 | 75° | 20km/h | 20013m | -30.4m/s | -54.0°C | 4.1% | 58.6hPa | 2.6V | 00:00:00 | 02:12:45 | 00:00:00 | |
| OE5REO-15 | 2026-09-01 12:42:25 | 48.36423 | 12.60926 | 76° | 18km/h | 20013m | -30.4m/s | -54.0°C | 1.1% | 58.6hPa | 2.6V | 08:25:00 | 00:00:00 | 00:00:00 | |
| OE5MMP-10 | 2026-09-01 12:42:24 | 48.36421 | 12.60912 | 72° | 20km/h | 20074m | -30.4m/s | -53.5°C | 4.0% | 58.0hPa | 2.6V | 00:00:00 | 02:12:43 | 00:00:00 | |
| DO3MHA-11 | 2026-09-01 12:42:21 | 48.36418 | 12.60890 | 90° | 22km/h | 20168m | -31.7m/s | -52.8°C | 3.9% | 57.1hPa | 2.6V | 00:00:00 | 02:12:40 | 00:00:00 | |
| DO7DH-14 | 2026-09-01 12:42:20 | 48.36418 | 12.60883 | 91° | 24km/h | 20200m | -31.8m/s | -52.3°C | 3.7% | 56.9hPa | 2.6V | 00:00:00 | 02:12:39 | 00:00:00 | |
| OE5WHR-10 | 2026-09-01 12:42:17 | 48.36419 | 12.60862 | 81° | 24km/h | 20295m | -33.3m/s | -52.0°C | 3.6% | 56.0hPa | 2.6V | 00:00:00 | 02:12:36 | 00:00:00 | |
| BAUMI2-15 | 2026-09-01 12:42:16 | 48.36418 | 12.60855 | 77° | 20km/h | 20329m | -33.9m/s | -52.0°C | 3.6% | 55.7hPa | 2.6V | 00:00:00 | 02:12:35 | 00:00:00 | |
| OE5MMP-10 | 2026-09-01 12:42:14 | 48.36414 | 12.60841 | 60° | 22km/h | 20394m | -31.1m/s | -52.0°C | 3.6% | 55.1hPa | 2.6V | 00:00:00 | 02:12:33 | 00:00:00 | |
| DG1MFX-10 | 2026-09-01 12:42:12 | 48.36411 | 12.60835 | 58° | 20km/h | 20425m | -30.3m/s | -52.3°C | 1.0% | 54.9hPa | 2.6V | 08:26:00 | 00:00:00 | 00:00:00 | |
| BAUMI2-15 | 2026-09-01 12:42:11 | 48.36404 | 12.60823 | 41° | 22km/h | 20483m | -28.7m/s | -52.6°C | 3.8% | 54.3hPa | 2.6V | 00:00:00 | 02:12:30 | 00:00:00 | |
| OE5REO-15 | 2026-09-01 12:42:09 | 48.36399 | 12.60818 | 40° | 24km/h | 20512m | -29.4m/s | -52.7°C | 1.0% | 54.1hPa | 2.6V | 08:26:00 | 00:00:00 | 00:00:00 | |
| DL6DJ-15 | 2026-09-01 12:42:07 | 48.36387 | 12.60800 | 41° | 20km/h | 20604m | -31.7m/s | -52.3°C | 1.0% | 53.4hPa | 2.6V | 00:00:00 | 00:00:00 | 00:00:00 | |
| BAUMI2-15 | 2026-09-01 12:42:06 | 48.36383 | 12.60794 | 47° | 22km/h | 20636m | -31.4m/s | -51.7°C | 3.5% | 53.1hPa | 2.6V | 00:00:00 | 02:12:25 | 00:00:00 | |
| OE5FHM-15 | 2026-09-01 12:42:05 | 48.36379 | 12.60788 | 46° | 16km/h | 20667m | -30.2m/s | -51.3°C | 3.4% | 52.7hPa | 2.5V | 00:00:00 | 02:12:24 | 00:00:00 | |
| DO3MHA-11 | 2026-09-01 12:42:04 | 48.36375 | 12.60782 | 57° | 29km/h | 20697m | -30.2m/s | -51.3°C | 3.4% | 52.6hPa | 2.5V | 00:00:00 | 02:12:23 | 00:00:00 | |
| BAUMI2-15 | 2026-09-01 12:42:01 | 48.36365 | 12.60759 | 61° | 31km/h | 20783m | -28.5m/s | -51.3°C | 3.4% | 51.8hPa | 2.5V | 00:00:00 | 02:12:20 | 00:00:00 | |
| OE5DRO-10 | 2026-09-01 12:41:58 | 48.36354 | 12.60729 | 67° | 16km/h | 20869m | -29.0m/s | -51.3°C | 3.3% | 51.1hPa | 2.5V | 00:00:00 | 00:00:00 | 00:00:00 | |
| PG1ADW-2 | 2026-09-01 12:41:57 | 48.36351 | 12.60717 | 67° | 33km/h | 20898m | -27.6m/s | -51.2°C | 3.3% | 50.9hPa | 2.5V | 00:00:00 | 00:00:00 | 00:00:00 | |
| OE5WHR-10 | 2026-09-01 12:41:56 | 48.36347 | 12.60706 | 65° | 13km/h | 20925m | -27.6m/s | -51.1°C | 3.2% | 50.7hPa | 2.5V | 00:00:00 | 00:00:00 | 00:00:00 | |
| DO3MHA-11 | 2026-09-01 12:41:54 | 48.36341 | 12.60683 | 70° | 15km/h | 20982m | -29.1m/s | -51.3°C | 3.2% | 50.2hPa | 2.5V | 00:00:00 | 02:12:13 | 00:00:00 | |
| DG1MFX-10 | 2026-09-01 12:41:52 | 48.36338 | 12.60673 | 72° | 29km/h | 21012m | -30.4m/s | -51.5°C | 0% | 0hPa | 2.6V | 08:26:00 | 00:00:00 | 00:00:00 | |
| DK5PH-5 | 2026-09-01 12:41:51 | 48.36334 | 12.60654 | 74° | 9km/h | 21073m | -30.4m/s | -51.5°C | 3.3% | 49.6hPa | 2.6V | 00:00:00 | 02:12:10 | 00:00:00 | |
| DO7DH-14 | 2026-09-01 12:41:50 | 48.36332 | 12.60647 | 67° | 9km/h | 21103m | -29.9m/s | -51.4°C | 3.2% | 49.3hPa | 2.6V | 00:00:00 | 02:12:09 | 00:00:00 | |
| OM5KV | 2026-09-01 12:41:48 | 48.36330 | 12.60641 | 71° | 15km/h | 21133m | -30.6m/s | 0°C | 0% | 0hPa | 2.6V | 08:26:00 | 00:00:00 | 00:00:00 | |
| OE5MMP-10 | 2026-09-01 12:41:44 | 48.36328 | 12.60629 | 275° | 4km/h | 21285m | -31.0m/s | -52.0°C | 3.4% | 48.0hPa | 2.6V | 00:00:00 | 02:12:03 | 00:00:00 | |
| OM5KV | 2026-09-01 12:41:43 | 48.36329 | 12.60629 | 276° | 2km/h | 21285m | -31.0m/s | 0°C | 0% | 0hPa | 2.6V | 08:26:00 | 00:00:00 | 00:00:00 | |
| OE5DRO-10 | 2026-09-01 12:41:39 | 48.36328 | 12.60634 | 319° | 11km/h | 21438m | -30.3m/s | -52.7°C | 3.6% | 46.9hPa | 2.6V | 08:26:00 | 00:00:00 | 00:00:00 | |
| DL6DJ-15 | 2026-09-01 12:41:36 | 48.36324 | 12.60635 | 347° | 5km/h | 21530m | -30.9m/s | -53.2°C | 1.0% | 46.2hPa | 2.6V | 00:00:00 | 00:00:00 | 00:00:00 | |
| OE5FHM-15 | 2026-09-01 12:41:35 | 48.36322 | 12.60636 | 357° | 13km/h | 21561m | -30.7m/s | -53.2°C | 3.7% | 45.9hPa | 2.6V | 00:00:00 | 02:11:54 | 00:00:00 | |
| OE5MMP-10 | 2026-09-01 12:41:34 | 48.36319 | 12.60635 | 17° | 13km/h | 21592m | -31.4m/s | -53.3°C | 3.7% | 45.7hPa | 2.6V | 00:00:00 | 02:11:53 | 00:00:00 | |
| PG1ADW-2 | 2026-09-01 12:41:33 | 48.36317 | 12.60634 | 30° | 13km/h | 21624m | -32.1m/s | -53.5°C | 3.8% | 45.5hPa | 2.6V | 00:00:00 | 00:00:00 | 00:00:00 | |
| DG1MFX-10 | 2026-09-01 12:41:32 | 48.36317 | 12.60634 | 31° | 9km/h | 21624m | -32.2m/s | 0°C | 0% | 0hPa | 2.6V | 08:26:00 | 00:00:00 | 00:00:00 | |
| OE5REO-15 | 2026-09-01 12:41:24 | 48.36292 | 12.60614 | 26° | 13km/h | 21913m | -33.5m/s | -53.5°C | 1.0% | 43.5hPa | 2.6V | 08:27:00 | 00:00:00 | 00:00:00 | |
| OE8JPQ-2 | 2026-09-01 12:41:22 | 48.36286 | 12.60611 | 24° | 13km/h | 21979m | -33.1m/s | -53.6°C | 3.9% | 43.1hPa | 2.6V | 00:00:00 | 00:00:00 | 00:00:00 | |
| DK5PH-5 | 2026-09-01 12:41:21 | 48.36283 | 12.60609 | 19° | 13km/h | 22012m | -32.6m/s | -53.6°C | 3.9% | 42.8hPa | 2.6V | 00:00:00 | 02:11:40 | 00:00:00 | |
| DO7DH-14 | 2026-09-01 12:41:20 | 48.36280 | 12.60608 | 14° | 13km/h | 22044m | -31.4m/s | -53.7°C | 3.9% | 42.6hPa | 2.6V | 00:00:00 | 02:11:39 | 00:00:00 | |
| OE5WHR-10 | 2026-09-01 12:41:14 | 48.36260 | 12.60600 | 19° | 11km/h | 22243m | -34.0m/s | -53.4°C | 3.9% | 41.3hPa | 2.5V | 00:00:00 | 02:11:33 | 00:00:00 | |
| DO3MHA-11 | 2026-09-01 12:41:13 | 48.36257 | 12.60598 | 27° | 13km/h | 22278m | -35.1m/s | -53.4°C | 3.9% | 41.1hPa | 2.5V | 00:00:00 | 02:11:32 | 00:00:00 | |
| PG1ADW-2 | 2026-09-01 12:41:12 | 48.36255 | 12.60597 | 17° | 11km/h | 22312m | -33.1m/s | -53.4°C | 3.9% | 40.9hPa | 2.5V | 00:00:00 | 00:00:00 | 00:00:00 | |
| DG1MFX-10 | 2026-09-01 12:41:11 | 48.36255 | 12.60597 | 17° | 11km/h | 22312m | -33.2m/s | 0°C | 0% | 0hPa | 2.6V | 00:00:00 | 00:00:00 | 00:00:00 | |
| OE5REO-15 | 2026-09-01 12:41:06 | 48.36241 | 12.60589 | 27° | 13km/h | 22483m | -34.6m/s | -53.2°C | 1.0% | 39.8hPa | 2.6V | 08:27:00 | 00:00:00 | 00:00:00 | |
| OE5FHM-15 | 2026-09-01 12:41:05 | 48.36235 | 12.60585 | 10° | 11km/h | 22554m | -34.9m/s | -53.1°C | 3.8% | 39.4hPa | 2.6V | 00:00:00 | 02:11:24 | 00:00:00 | |
| OE5MMP-10 | 2026-09-01 12:41:04 | 48.36232 | 12.60585 | 10° | 11km/h | 22589m | -34.2m/s | -53.1°C | 3.8% | 39.1hPa | 2.6V | 00:00:00 | 02:11:23 | 00:00:00 | |
| DO3MHA-11 | 2026-09-01 12:41:03 | 48.36229 | 12.60584 | 14° | 11km/h | 22623m | -34.9m/s | -53.1°C | 3.8% | 38.9hPa | 2.6V | 00:00:00 | 02:11:22 | 00:00:00 | |
| OE5DRO-10 | 2026-09-01 12:41:01 | 48.36222 | 12.60583 | 5° | 13km/h | 22691m | -33.7m/s | -53.1°C | 3.8% | 38.5hPa | 2.6V | 00:00:00 | 00:00:00 | 00:00:00 | |
| OE5MMP-10 | 2026-09-01 12:40:54 | 48.36206 | 12.60571 | 72° | 11km/h | 22934m | -35.7m/s | -52.9°C | 3.9% | 37.1hPa | 2.6V | 00:00:00 | 02:11:13 | 00:00:00 | |
| OE5WHR-10 | 2026-09-01 12:40:53 | 48.36205 | 12.60567 | 87° | 9km/h | 22969m | -35.4m/s | -52.7°C | 3.8% | 36.8hPa | 2.6V | 00:00:00 | 00:00:00 | 00:00:00 | |
| DK5PH-5 | 2026-09-01 12:40:51 | 48.36206 | 12.60557 | 111° | 22km/h | 23042m | -36.7m/s | -52.5°C | 3.8% | 36.4hPa | 2.5V | 00:00:00 | 02:11:10 | 00:00:00 | |
| DO7DH-14 | 2026-09-01 12:40:50 | 48.36207 | 12.60553 | 114° | 11km/h | 23079m | -36.8m/s | -52.6°C | 3.8% | 36.3hPa | 2.5V | 00:00:00 | 02:11:09 | 00:00:00 | |
| PG1ADW-2 | 2026-09-01 12:40:49 | 48.36208 | 12.60548 | 110° | 11km/h | 23116m | -37.6m/s | -52.7°C | 3.9% | 36.0hPa | 2.5V | 00:00:00 | 02:11:08 | 00:00:00 | |
| OE5MMP-10 | 2026-09-01 12:40:44 | 48.36213 | 12.60532 | 112° | 7km/h | 23299m | -35.8m/s | -52.7°C | 3.9% | 35.0hPa | 2.5V | 00:00:00 | 02:11:03 | 00:00:00 | |
| DO3MHA-11 | 2026-09-01 12:40:43 | 48.36213 | 12.60530 | 107° | 15km/h | 23335m | -36.3m/s | -52.8°C | 3.9% | 34.8hPa | 2.5V | 00:00:00 | 02:11:02 | 00:00:00 | |
| OE8JPQ-2 | 2026-09-01 12:40:40 | 48.36215 | 12.60530 | 234° | 13km/h | 23444m | -36.8m/s | -52.6°C | 3.9% | 34.2hPa | 2.5V | 00:00:00 | 02:10:59 | 00:00:00 | |
| OE5FHM-15 | 2026-09-01 12:40:35 | 48.36223 | 12.60545 | 230° | 15km/h | 23627m | -35.9m/s | -51.4°C | 3.6% | 33.2hPa | 2.5V | 00:00:00 | 02:10:54 | 00:00:00 | |
| OE5MMP-10 | 2026-09-01 12:40:34 | 48.36225 | 12.60549 | 230° | 16km/h | 23662m | -35.5m/s | -51.2°C | 3.5% | 33.0hPa | 2.5V | 00:00:00 | 02:10:53 | 00:00:00 | |
| OE5WHR-10 | 2026-09-01 12:40:32 | 48.36231 | 12.60559 | 236° | 15km/h | 23734m | -36.3m/s | -50.8°C | 3.4% | 32.7hPa | 2.5V | 00:00:00 | 00:00:00 | 00:00:00 | |
| OE5DRO-10 | 2026-09-01 12:40:31 | 48.36234 | 12.60566 | 242° | 11km/h | 23771m | -36.7m/s | -50.8°C | 3.4% | 32.5hPa | 2.5V | 00:00:00 | 00:00:00 | 00:00:00 | |
| DG1MFX-10 | 2026-09-01 12:40:30 | 48.36234 | 12.60566 | 243° | 20km/h | 23771m | -36.7m/s | -50.9°C | 0.9% | 32.5hPa | 2.5V | 08:28:00 | 00:00:00 | 00:00:00 | |
| DO3MHA-11 | 2026-09-01 12:40:29 | 48.36237 | 12.60577 | 247° | 15km/h | 23844m | -36.8m/s | -50.8°C | 3.3% | 32.1hPa | 2.5V | 00:00:00 | 02:10:48 | 00:00:00 | |
| PG1ADW-2 | 2026-09-01 12:40:28 | 48.36239 | 12.60583 | 247° | 13km/h | 23881m | -36.6m/s | -50.9°C | 3.4% | 32.0hPa | 2.5V | 00:00:00 | 00:00:00 | 00:00:00 | |
| OE5MMP-10 | 2026-09-01 12:40:24 | 48.36244 | 12.60605 | 253° | 15km/h | 24028m | -36.1m/s | -51.4°C | 3.6% | 31.2hPa | 2.5V | 00:00:00 | 02:10:43 | 00:00:00 | |
| DO7DH-14 | 2026-09-01 12:40:20 | 48.36247 | 12.60624 | 259° | 11km/h | 24176m | -37.5m/s | -51.5°C | 3.8% | 30.5hPa | 2.5V | 00:00:00 | 02:10:39 | 00:00:00 | |
| DO3MHA-11 | 2026-09-01 12:40:19 | 48.36248 | 12.60629 | 263° | 11km/h | 24213m | -37.0m/s | -51.3°C | 3.7% | 30.4hPa | 2.5V | 08:27:00 | 02:10:38 | 00:00:00 | |
| OE5MMP-10 | 2026-09-01 12:40:14 | 48.36243 | 12.60653 | 306° | 11km/h | 24406m | -38.2m/s | -51.4°C | 3.8% | 29.5hPa | 2.7V | 00:00:00 | 02:10:33 | 00:00:00 | |
| OE5WHR-10 | 2026-09-01 12:40:11 | 48.36235 | 12.60663 | 322° | 9km/h | 24523m | -39.9m/s | -50.7°C | 3.6% | 29.0hPa | 2.7V | 00:00:00 | 02:10:30 | 00:00:00 | |
| DG1MFX-10 | 2026-09-01 12:40:09 | 48.36232 | 12.60666 | 331° | 15km/h | 24563m | -39.9m/s | -50.5°C | 0.9% | 28.8hPa | 2.7V | 08:28:00 | 00:00:00 | 00:00:00 | |
| PG1ADW-2 | 2026-09-01 12:40:07 | 48.36224 | 12.60671 | 332° | 5km/h | 24685m | -40.2m/s | -50.0°C | 3.4% | 28.2hPa | 2.7V | 00:00:00 | 00:00:00 | 00:00:00 | |
| DO3MHA-11 | 2026-09-01 12:40:06 | 48.36223 | 12.60672 | 334° | 7km/h | 24725m | -40.9m/s | -49.7°C | 3.3% | 28.1hPa | 2.5V | 00:00:00 | 02:10:25 | 00:00:00 | |
| OE5FHM-15 | 2026-09-01 12:40:05 | 48.36221 | 12.60673 | 342° | 9km/h | 24767m | -42.0m/s | -49.5°C | 3.2% | 27.9hPa | 2.5V | 08:27:00 | 02:10:24 | 00:00:00 | |
| OE5MMP-10 | 2026-09-01 12:40:04 | 48.36220 | 12.60674 | 303° | 7km/h | 24809m | -41.8m/s | -49.4°C | 3.2% | 27.7hPa | 2.5V | 00:00:00 | 02:10:23 | 00:00:00 | |
| DL6DJ-15 | 2026-09-01 12:40:03 | 48.36219 | 12.60676 | 314° | 7km/h | 24850m | -41.2m/s | -49.4°C | 0.7% | 27.6hPa | 2.5V | 00:00:00 | 00:00:00 | 00:00:00 | |
| OE8JPQ-2 | 2026-09-01 12:40:00 | 48.36217 | 12.60682 | 304° | 9km/h | 24974m | -41.2m/s | -48.9°C | 3.1% | 27.0hPa | 2.5V | 00:00:00 | 00:00:00 | 00:00:00 | |
| DO3MHA-11 | 2026-09-01 12:39:56 | 48.36211 | 12.60687 | 345° | 9km/h | 25141m | -42.4m/s | -49.2°C | 3.2% | 26.3hPa | 2.5V | 00:00:00 | 02:10:15 | 00:00:00 | |
| OE5MMP-10 | 2026-09-01 12:39:55 | 48.36207 | 12.60688 | 14° | 9km/h | 25224m | -41.7m/s | -49.2°C | 3.1% | 26.0hPa | 2.5V | 08:27:00 | 02:10:13 | 00:00:00 | |
| OE5WHR-10 | 2026-09-01 12:39:50 | 48.36196 | 12.60683 | 21° | 15km/h | 25391m | -42.2m/s | -49.3°C | 3.2% | 25.3hPa | 2.5V | 08:27:00 | 00:00:00 | 00:00:00 | |
| DG1MFX-10 | 2026-09-01 12:39:49 | 48.36197 | 12.60683 | 22° | 9km/h | 25391m | -42.2m/s | -49.4°C | 0.8% | 25.3hPa | 2.7V | 08:28:00 | 00:00:00 | 00:00:00 | |
| BAUMI2-15 | 2026-09-01 12:39:48 | 48.36193 | 12.60682 | 332° | 7km/h | 25476m | -41.0m/s | -49.0°C | 3.1% | 25.0hPa | 2.7V | 00:00:00 | 02:10:07 | 00:00:00 | |
| DO3MHA-11 | 2026-09-01 12:39:46 | 48.36191 | 12.60684 | 316° | 13km/h | 25557m | -41.2m/s | -49.2°C | 3.2% | 24.7hPa | 2.5V | 00:00:00 | 02:10:05 | 00:00:00 | |
| OE5MMP-10 | 2026-09-01 12:39:44 | 48.36189 | 12.60690 | 301° | 15km/h | 25639m | -40.6m/s | -49.4°C | 3.2% | 24.3hPa | 2.7V | 00:00:00 | 02:10:03 | 00:00:00 | |
| BAUMI2-15 | 2026-09-01 12:39:43 | 48.36187 | 12.60694 | 303° | 13km/h | 25680m | -41.3m/s | -49.4°C | 3.2% | 24.2hPa | 2.7V | 00:00:00 | 02:10:02 | 00:00:00 | |
| OE5DRO-10 | 2026-09-01 12:39:40 | 48.36179 | 12.60709 | 329° | 18km/h | 25843m | -40.1m/s | -49.5°C | 3.3% | 23.5hPa | 2.7V | 00:00:00 | 00:00:00 | 00:00:00 | |
| BAUMI2-15 | 2026-09-01 12:39:38 | 48.36176 | 12.60712 | 334° | 16km/h | 25883m | -38.7m/s | -49.3°C | 3.2% | 23.4hPa | 2.7V | 00:00:00 | 02:09:57 | 00:00:00 | |
| DO3MHA-11 | 2026-09-01 12:39:36 | 48.36169 | 12.60714 | 357° | 18km/h | 25961m | -38.2m/s | -49.1°C | 3.2% | 23.1hPa | 2.7V | 00:00:00 | 02:09:55 | 00:00:00 | |
| OE5FHM-15 | 2026-09-01 12:39:35 | 48.36164 | 12.60714 | 13° | 18km/h | 25999m | -38.5m/s | -49.1°C | 3.2% | 22.9hPa | 2.7V | 00:00:00 | 02:09:54 | 00:00:00 | |
| OE5MMP-10 | 2026-09-01 12:39:34 | 48.36160 | 12.60712 | 8° | 18km/h | 26038m | -38.1m/s | -49.1°C | 3.2% | 22.8hPa | 2.7V | 00:00:00 | 02:09:53 | 00:00:00 | |
| BAUMI2-15 | 2026-09-01 12:39:33 | 48.36155 | 12.60712 | 9° | 20km/h | 26076m | -38.2m/s | -49.0°C | 3.2% | 22.7hPa | 2.7V | 08:28:00 | 02:09:52 | 00:00:00 | |
| DL6DJ-15 | 2026-09-01 12:39:32 | 48.36145 | 12.60709 | 2° | 22km/h | 26156m | -40.4m/s | -49.0°C | 0.7% | 22.5hPa | 2.5V | 00:00:00 | 00:00:00 | 00:00:00 | |
| OE5WHR-10 | 2026-09-01 12:39:29 | 48.36135 | 12.60709 | 360° | 18km/h | 26237m | -41.2m/s | -49.0°C | 3.2% | 22.1hPa | 2.5V | 00:00:00 | 00:00:00 | 00:00:00 | |
| BAUMI2-15 | 2026-09-01 12:39:28 | 48.36130 | 12.60710 | 351° | 16km/h | 26278m | -40.2m/s | -49.1°C | 3.3% | 22.0hPa | 2.5V | 00:00:00 | 02:09:47 | 00:00:00 | |
| DO3MHA-11 | 2026-09-01 12:39:26 | 48.36121 | 12.60712 | 353° | 16km/h | 26358m | -40.1m/s | -49.1°C | 3.3% | 21.7hPa | 2.5V | 00:00:00 | 02:09:45 | 00:00:00 | |
| OE5MMP-10 | 2026-09-01 12:39:24 | 48.36113 | 12.60715 | 347° | 16km/h | 26439m | -40.4m/s | -49.1°C | 3.3% | 21.4hPa | 2.5V | 00:00:00 | 02:09:43 | 00:00:00 | |
| BAUMI2-15 | 2026-09-01 12:39:23 | 48.36109 | 12.60716 | 357° | 16km/h | 26479m | -40.7m/s | -49.1°C | 3.4% | 21.3hPa | 2.7V | 00:00:00 | 02:09:42 | 00:00:00 | |
| DO7DH-14 | 2026-09-01 12:39:19 | 48.36088 | 12.60716 | 16° | 15km/h | 26679m | -41.3m/s | -49.1°C | 3.4% | 20.6hPa | 2.7V | 00:00:00 | 02:09:37 | 00:00:00 | |
| BAUMI2-15 | 2026-09-01 12:39:18 | 48.36088 | 12.60716 | 16° | 18km/h | 26679m | -41.3m/s | -49.1°C | 3.4% | 20.6hPa | 2.7V | 00:00:00 | 02:09:37 | 00:00:00 | |
| DO3MHA-11 | 2026-09-01 12:39:16 | 48.36080 | 12.60712 | 19° | 18km/h | 26762m | -40.6m/s | -48.9°C | 3.4% | 20.4hPa | 2.6V | 00:00:00 | 02:09:35 | 00:00:00 | |
| BAUMI2-15 | 2026-09-01 12:39:13 | 48.36067 | 12.60701 | 33° | 18km/h | 26884m | -40.1m/s | -48.3°C | 3.3% | 20.0hPa | 2.7V | 00:00:00 | 02:09:32 | 00:00:00 | |
| BAUMI2-15 | 2026-09-01 12:39:08 | 48.36051 | 12.60677 | 72° | 9km/h | 27091m | -44.0m/s | -47.5°C | 3.1% | 19.4hPa | 2.7V | 00:00:00 | 02:09:27 | 00:00:00 | |
| DO3MHA-11 | 2026-09-01 12:39:06 | 48.36050 | 12.60668 | 88° | 9km/h | 27182m | -47.3m/s | -47.3°C | 3.1% | 19.2hPa | 2.7V | 00:00:00 | 02:09:25 | 00:00:00 | |
| OE5FHM-15 | 2026-09-01 12:39:05 | 48.36050 | 12.60665 | 86° | 13km/h | 27229m | -45.3m/s | -47.1°C | 3.1% | 19.0hPa | 2.7V | 00:00:00 | 02:09:24 | 00:00:00 | |
| OE5MMP-10 | 2026-09-01 12:39:04 | 48.36050 | 12.60663 | 83° | 7km/h | 27274m | -45.0m/s | -46.8°C | 3.0% | 18.9hPa | 2.7V | 00:00:00 | 02:09:23 | 00:00:00 | |
| BAUMI2-15 | 2026-09-01 12:39:03 | 48.36050 | 12.60661 | 80° | 5km/h | 27319m | -44.0m/s | -46.8°C | 3.0% | 18.7hPa | 2.7V | 00:00:00 | 02:09:22 | 00:00:00 | |
| DL6DJ-15 | 2026-09-01 12:39:01 | 48.36048 | 12.60659 | 31° | 5km/h | 27448m | -42.6m/s | -47.0°C | 0.7% | 18.4hPa | 2.5V | 00:00:00 | 00:00:00 | 00:00:00 | |
| OE5REO-15 | 2026-09-01 12:39:00 | 48.36049 | 12.60660 | 13° | 5km/h | 27406m | -42.7m/s | -47.0°C | 0.7% | 18.5hPa | 2.5V | 08:28:00 | 00:00:00 | 00:00:00 | |
| OM5KV | 2026-09-01 12:38:59 | 48.36048 | 12.60659 | 32° | 7km/h | 27448m | -42.6m/s | -47.0°C | 0% | 18.4hPa | 2.5V | 08:28:00 | 00:00:00 | 00:00:00 | |
| BAUMI2-15 | 2026-09-01 12:38:57 | 48.36043 | 12.60653 | 48° | 11km/h | 27578m | -43.6m/s | -46.9°C | 3.1% | 18.0hPa | 2.5V | 00:00:00 | 02:09:16 | 00:00:00 | |
| OE5MMP-10 | 2026-09-01 12:38:54 | 48.36038 | 12.60642 | 58° | 16km/h | 27710m | -44.4m/s | -46.4°C | 3.0% | 17.6hPa | 2.5V | 00:00:00 | 02:09:13 | 00:00:00 | |
| OM5KV | 2026-09-01 12:38:53 | 48.36038 | 12.60642 | 59° | 11km/h | 27710m | -44.5m/s | -46.5°C | 0% | 17.7hPa | 2.5V | 08:28:00 | 00:00:00 | 00:00:00 | |
| BAUMI2-15 | 2026-09-01 12:38:52 | 48.36034 | 12.60633 | 68° | 15km/h | 27800m | -45.6m/s | -46.0°C | 2.9% | 17.4hPa | 2.5V | 00:00:00 | 02:09:11 | 00:00:00 | |
| DO7DH-14 | 2026-09-01 12:38:48 | 48.36030 | 12.60611 | 74° | 15km/h | 27981m | -46.1m/s | -45.4°C | 2.8% | 16.9hPa | 2.5V | 00:00:00 | 02:09:07 | 00:00:00 | |
| OM5KV | 2026-09-01 12:38:47 | 48.36030 | 12.60611 | 74° | 16km/h | 27981m | -46.1m/s | -45.4°C | 0% | 16.9hPa | 2.5V | 08:29:00 | 00:00:00 | 00:00:00 | |
| OE5REO-15 | 2026-09-01 12:38:45 | 48.36028 | 12.60591 | 82° | 18km/h | 28122m | -47.9m/s | -45.0°C | 0.6% | 16.5hPa | 2.5V | 08:29:00 | 00:00:00 | 00:00:00 | |
| OE5MMP-10 | 2026-09-01 12:38:44 | 48.36027 | 12.60584 | 82° | 16km/h | 28170m | -47.6m/s | -44.9°C | 2.7% | 16.4hPa | 2.5V | 00:00:00 | 02:09:03 | 00:00:00 | |
| OE5DXL-15 | 2026-09-01 12:38:43 | 48.36027 | 12.60578 | 80° | 13km/h | 28217m | -46.8m/s | -44.7°C | 2.6% | 16.3hPa | 2.5V | 00:00:00 | 02:09:02 | 00:00:00 | |
| BAUMI2-15 | 2026-09-01 12:38:42 | 48.36025 | 12.60571 | 71° | 16km/h | 28264m | -46.7m/s | -44.6°C | 2.6% | 16.2hPa | 2.6V | 00:00:00 | 02:09:01 | 00:00:00 | |
| OM5KV | 2026-09-01 12:38:41 | 48.36025 | 12.60571 | 72° | 16km/h | 28264m | -46.7m/s | -44.7°C | 0.6% | 16.2hPa | 2.6V | 08:29:00 | 00:00:00 | 00:00:00 | |
| DO3MHA-11 | 2026-09-01 12:38:39 | 48.36025 | 12.60551 | 91° | 13km/h | 28402m | -44.4m/s | -44.4°C | 2.6% | 15.8hPa | 2.6V | 00:00:00 | 02:08:58 | 00:00:00 | |
| BAUMI2-15 | 2026-09-01 12:38:37 | 48.36026 | 12.60539 | 99° | 15km/h | 28490m | -43.6m/s | -44.2°C | 2.6% | 15.6hPa | 2.6V | 00:00:00 | 02:08:56 | 00:00:00 | |
| OE5FHM-15 | 2026-09-01 12:38:35 | 48.36027 | 12.60528 | 109° | 11km/h | 28578m | -44.6m/s | -43.8°C | 2.5% | 15.4hPa | 2.6V | 00:00:00 | 02:08:54 | 00:00:00 | |
| OE5MMP-10 | 2026-09-01 12:38:34 | 48.36029 | 12.60523 | 117° | 11km/h | 28622m | -45.8m/s | -43.6°C | 2.5% | 15.3hPa | 2.5V | 00:00:00 | 02:08:53 | 00:00:00 | |
| BAUMI2-15 | 2026-09-01 12:38:32 | 48.36032 | 12.60514 | 115° | 11km/h | 28713m | -45.7m/s | -43.7°C | 2.5% | 15.1hPa | 2.5V | 00:00:00 | 02:08:51 | 00:00:00 | |
| DL6DJ-15 | 2026-09-01 12:38:30 | 48.36035 | 12.60504 | 108° | 9km/h | 28853m | -47.9m/s | -43.9°C | 0.6% | 14.8hPa | 2.7V | 00:00:00 | 00:00:00 | 00:00:00 | |
| DO3MHA-11 | 2026-09-01 12:38:29 | 48.36035 | 12.60504 | 109° | 15km/h | 28853m | -47.9m/s | -43.9°C | 2.6% | 14.8hPa | 2.7V | 00:00:00 | 02:08:48 | 08:30:00 | |
| OM5KV | 2026-09-01 12:38:28 | 48.36035 | 12.60504 | 110° | 11km/h | 28853m | -47.9m/s | -43.9°C | 0.6% | 14.8hPa | 2.7V | 08:29:00 | 00:00:00 | 00:00:00 | |
| BAUMI2-15 | 2026-09-01 12:38:27 | 48.36036 | 12.60495 | 110° | 15km/h | 28948m | -47.0m/s | -44.1°C | 2.6% | 14.6hPa | 2.7V | 00:00:00 | 02:08:46 | 00:00:00 | |
| OE5WHR-10 | 2026-09-01 12:38:26 | 48.36037 | 12.60491 | 92° | 11km/h | 28996m | -47.1m/s | -44.2°C | 2.6% | 14.4hPa | 2.7V | 00:00:00 | 00:00:00 | 00:00:00 | |
| OE5MMP-10 | 2026-09-01 12:38:24 | 48.36038 | 12.60479 | 102° | 13km/h | 29090m | -46.0m/s | -44.3°C | 2.6% | 14.2hPa | 2.7V | 08:29:00 | 02:08:43 | 00:00:00 | |
| OM5KV | 2026-09-01 12:38:23 | 48.36038 | 12.60479 | 103° | 15km/h | 29090m | -46.0m/s | -44.3°C | 0.6% | 14.3hPa | 2.6V | 08:29:00 | 00:00:00 | 00:00:00 | |
| BAUMI2-15 | 2026-09-01 12:38:22 | 48.36039 | 12.60467 | 95° | 13km/h | 29182m | -45.6m/s | -44.3°C | 2.7% | 14.0hPa | 2.6V | 00:00:00 | 02:08:41 | 00:00:00 | |
| DO3MHA-11 | 2026-09-01 12:38:19 | 48.36040 | 12.60450 | 94° | 11km/h | 29322m | -47.7m/s | -44.4°C | 2.8% | 13.7hPa | 2.6V | 00:00:00 | 02:08:38 | 00:00:00 | |
| DO7DH-14 | 2026-09-01 12:38:18 | 48.36041 | 12.60445 | 92° | 16km/h | 29369m | -48.1m/s | -44.3°C | 2.8% | 13.6hPa | 2.6V | 00:00:00 | 02:08:37 | 08:30:00 | |
| BAUMI2-15 | 2026-09-01 12:38:17 | 48.36041 | 12.60441 | 96° | 9km/h | 29417m | -48.5m/s | -44.2°C | 2.8% | 13.5hPa | 2.5V | 00:00:00 | 02:08:36 | 00:00:00 | |
| OM5KV | 2026-09-01 12:38:16 | 48.36041 | 12.60441 | 96° | 13km/h | 29417m | -48.5m/s | -44.3°C | 0.6% | 13.6hPa | 2.7V | 08:29:00 | 00:00:00 | 00:00:00 | |
| OE5MMP-10 | 2026-09-01 12:38:14 | 48.36042 | 12.60430 | 109° | 5km/h | 29567m | -49.0m/s | -43.7°C | 2.7% | 13.2hPa | 2.7V | 00:00:00 | 02:08:33 | 00:00:00 | |
| OE5DXL-15 | 2026-09-01 12:38:13 | 48.36042 | 12.60427 | 83° | 13km/h | 29616m | -48.4m/s | -43.4°C | 2.6% | 13.1hPa | 2.7V | 00:00:00 | 00:00:00 | 00:00:00 | |
| BAUMI2-15 | 2026-09-01 12:38:12 | 48.36042 | 12.60425 | 82° | 7km/h | 29665m | -48.8m/s | -43.0°C | 2.5% | 13.0hPa | 2.7V | 00:00:00 | 02:08:31 | 00:00:00 | |
| OM5KV | 2026-09-01 12:38:10 | 48.36042 | 12.60423 | 68° | 7km/h | 29714m | -48.7m/s | -42.8°C | 0% | 12.9hPa | 2.7V | 08:29:00 | 00:00:00 | 00:00:00 | |
| DO3MHA-11 | 2026-09-01 12:38:09 | 48.36042 | 12.60417 | 94° | 13km/h | 29811m | -47.3m/s | -42.8°C | 2.5% | 12.7hPa | 2.7V | 00:00:00 | 02:08:28 | 00:00:00 | |
| BAUMI2-15 | 2026-09-01 12:38:07 | 48.36042 | 12.60412 | 90° | 4km/h | 29905m | -46.8m/s | -43.0°C | 2.6% | 12.5hPa | 2.7V | 00:00:00 | 02:08:26 | 00:00:00 | |
| OE5WHR-10 | 2026-09-01 12:38:05 | 48.36042 | 12.60408 | 84° | 15km/h | 29997m | -46.7m/s | -42.7°C | 2.5% | 12.3hPa | 2.7V | 00:00:00 | 02:08:24 | 00:00:00 | |
| OE5MMP-10 | 2026-09-01 12:38:04 | 48.36042 | 12.60406 | 73° | 11km/h | 30043m | -45.9m/s | -42.5°C | 2.5% | 12.2hPa | 2.7V | 00:00:00 | 02:08:23 | 00:00:00 | |
| OM5KV | 2026-09-01 12:38:03 | 48.36042 | 12.60406 | 74° | 4km/h | 30043m | -45.9m/s | 0°C | 0% | 0hPa | 2.7V | 08:29:00 | 00:00:00 | 00:00:00 | |
| DL6DJ-15 | 2026-09-01 12:37:59 | 48.36034 | 12.60402 | 39° | 15km/h | 30319m | -45.2m/s | -42.5°C | 0.5% | 11.8hPa | 2.7V | 00:00:00 | 00:00:00 | 00:00:00 | |
| OE5REO-15 | 2026-09-01 12:37:58 | 48.36034 | 12.60401 | 40° | 15km/h | 30320m | -45.2m/s | -42.5°C | 0.5% | 11.8hPa | 2.7V | 00:00:00 | 00:00:00 | 00:00:00 | |
| BAUMI2-15 | 2026-09-01 12:37:57 | 48.36031 | 12.60397 | 50° | 22km/h | 30365m | -45.2m/s | -42.5°C | 2.6% | 11.6hPa | 2.7V | 00:00:00 | 02:08:16 | 00:00:00 | |
| OE5MMP-10 | 2026-09-01 12:37:54 | 48.36023 | 12.60376 | 62° | 20km/h | 30499m | -43.8m/s | -42.3°C | 2.6% | 11.4hPa | 2.7V | 00:00:00 | 02:08:13 | 00:00:00 | |
| DO3MHA-11 | 2026-09-01 12:37:52 | 48.36019 | 12.60358 | 75° | 18km/h | 30587m | -43.6m/s | -42.0°C | 2.6% | 11.2hPa | 2.7V | 00:00:00 | 02:08:11 | 00:00:00 | |
| DG1MFX-10 | 2026-09-01 12:37:47 | 48.36017 | 12.60319 | 87° | 15km/h | 30811m | -45.7m/s | -40.9°C | 0.5% | 10.9hPa | 2.7V | 00:00:00 | 00:00:00 | 00:00:00 | |
| OE5WHR-10 | 2026-09-01 12:37:44 | 48.36018 | 12.60303 | 81° | 18km/h | 30947m | -45.7m/s | -40.1°C | 2.3% | 10.6hPa | 2.7V | 00:00:00 | 00:00:00 | 00:00:00 | |
| OE5DXL-15 | 2026-09-01 12:37:43 | 48.36017 | 12.60298 | 80° | 16km/h | 30993m | -46.0m/s | -39.8°C | 2.3% | 10.6hPa | 2.6V | 00:00:00 | 00:00:00 | 00:00:00 | |
| DO3MHA-11 | 2026-09-01 12:37:42 | 48.36017 | 12.60292 | 81° | 22km/h | 31039m | -46.5m/s | -39.5°C | 2.2% | 10.5hPa | 2.6V | 00:00:00 | 02:08:01 | 00:00:00 | |
| OM5KV | 2026-09-01 12:37:36 | 48.36019 | 12.60234 | 102° | 26km/h | 31336m | -53.3m/s | 0°C | 0% | 0hPa | 2.6V | 00:00:00 | 00:00:00 | 00:00:00 | |
| OE5FHM-15 | 2026-09-01 12:37:35 | 48.36019 | 12.60225 | 98° | 16km/h | 31390m | -53.8m/s | -38.4°C | 1.9% | 10.0hPa | 2.6V | 00:00:00 | 02:07:54 | 00:00:00 | |
| OE5MMP-10 | 2026-09-01 12:37:34 | 48.36020 | 12.60218 | 104° | 13km/h | 31444m | -55.4m/s | -38.4°C | 1.9% | 9.8hPa | 2.6V | 00:00:00 | 02:07:53 | 00:00:00 | |
| DO3MHA-11 | 2026-09-01 12:37:30 | 48.36021 | 12.60197 | 66° | 18km/h | 31664m | -54.9m/s | -38.0°C | 1.8% | 9.5hPa | 2.6V | 00:00:00 | 02:07:49 | 00:00:00 | |
| OE5REO-15 | 2026-09-01 12:37:27 | 48.36018 | 12.60190 | 56° | 11km/h | 31769m | -51.1m/s | -38.0°C | 0.4% | 9.4hPa | 2.6V | 00:00:00 | 00:00:00 | 00:00:00 | |
| DG1MFX-10 | 2026-09-01 12:37:26 | 48.36017 | 12.60186 | 63° | 15km/h | 31819m | -49.4m/s | -38.1°C | 0.4% | 9.3hPa | 2.6V | 00:00:00 | 00:00:00 | 00:00:00 | |
| OM5KV | 2026-09-01 12:37:25 | 48.36015 | 12.60181 | 65° | 15km/h | 31867m | -47.0m/s | 0°C | 0% | 0hPa | 2.6V | 00:00:00 | 00:00:00 | 00:00:00 | |
| OE5MMP-10 | 2026-09-01 12:37:24 | 48.36011 | 12.60169 | 68° | 16km/h | 31954m | -40.7m/s | -38.5°C | 1.9% | 9.1hPa | 2.6V | 00:00:00 | 02:07:43 | 00:00:00 | |
| OE5WHR-10 | 2026-09-01 12:37:23 | 48.36009 | 12.60161 | 73° | 16km/h | 31993m | -38.4m/s | -38.4°C | 2.0% | 9.0hPa | 2.7V | 00:00:00 | 00:00:00 | 00:00:00 | |
| DO3MHA-11 | 2026-09-01 12:37:20 | 48.36003 | 12.60142 | 52° | 15km/h | 32098m | -34.4m/s | -38.4°C | 2.0% | 8.8hPa | 2.7V | 00:00:00 | 02:07:39 | 00:00:00 | |
| OE5HKT-10 | 2026-09-01 12:37:15 | 48.35992 | 12.60120 | 34° | 15km/h | 32160m | 2.5m/s | -38.3°C | 2.0% | 8.7hPa | 2.7V | 00:00:00 | 00:00:00 | 00:00:00 | |
| OE5MMP-10 | 2026-09-01 12:37:14 | 48.35990 | 12.60116 | 62° | 18km/h | 32156m | 4.7m/s | -38.2°C | 2.0% | 8.7hPa | 2.6V | 00:00:00 | 02:07:33 | 00:00:00 | |
| OE5DXL-15 | 2026-09-01 12:37:12 | 48.35980 | 12.60101 | 25° | 15km/h | 32135m | 4.8m/s | -38.2°C | 2.0% | 8.7hPa | 2.6V | 00:00:00 | 00:00:00 | 00:00:00 | |
| DO3MHA-11 | 2026-09-01 12:37:10 | 48.35980 | 12.60101 | 25° | 16km/h | 32135m | 4.8m/s | -38.2°C | 2.0% | 8.7hPa | 2.6V | 00:00:00 | 02:07:29 | 00:00:00 | |
| OE5FHM-15 | 2026-09-01 12:37:05 | 48.35961 | 12.60077 | 55° | 15km/h | 32109m | 4.2m/s | -38.5°C | 1.9% | 8.8hPa | 2.6V | 00:00:00 | 02:07:24 | 00:00:00 | |
| OE5MMP-10 | 2026-09-01 12:37:04 | 48.35958 | 12.60072 | 51° | 11km/h | 32104m | 5.0m/s | -38.6°C | 1.9% | 8.8hPa | 2.6V | 00:00:00 | 02:07:23 | 00:00:00 | |
| OE5WHR-10 | 2026-09-01 12:37:02 | 48.35955 | 12.60068 | 355° | 13km/h | 32091m | 6.4m/s | -38.7°C | 2.0% | 8.8hPa | 2.6V | 00:00:00 | 02:07:21 | 00:00:00 | |
| DO3MHA-11 | 2026-09-01 12:37:00 | 48.35953 | 12.60070 | 315° | 16km/h | 32080m | 5.0m/s | -38.7°C | 2.0% | 8.8hPa | 2.6V | 00:00:00 | 02:07:19 | 00:00:00 | |
| OE5REO-15 | 2026-09-01 12:36:56 | 48.35948 | 12.60068 | 35° | 13km/h | 32064m | 4.6m/s | -38.8°C | 0.4% | 8.9hPa | 2.6V | 00:00:00 | 00:00:00 | 00:00:00 | |
| OE5MMP-10 | 2026-09-01 12:36:54 | 48.35935 | 12.60060 | 15° | 16km/h | 32047m | 6.3m/s | -38.7°C | 2.0% | 8.9hPa | 2.6V | 00:00:00 | 02:07:13 | 08:30:00 | |
| DO3MHA-11 | 2026-09-01 12:36:50 | 48.35914 | 12.60052 | 34° | 13km/h | 32026m | 5.4m/s | -38.6°C | 2.1% | 8.9hPa | 2.7V | 00:00:00 | 02:07:09 | 08:30:00 | |
| DO7DH-14 | 2026-09-01 12:36:49 | 48.35912 | 12.60048 | 61° | 15km/h | 32020m | 6.6m/s | -38.5°C | 2.0% | 8.9hPa | 2.6V | 00:00:00 | 02:07:08 | 00:00:00 | |
| OE5MMP-10 | 2026-09-01 12:36:44 | 48.35912 | 12.60026 | 10° | 15km/h | 31992m | 6.1m/s | -38.6°C | 2.0% | 8.9hPa | 2.6V | 00:00:00 | 02:07:03 | 00:00:00 | |
| OE5WHR-10 | 2026-09-01 12:36:41 | 48.35905 | 12.60030 | 346° | 13km/h | 31975m | 5.9m/s | -38.9°C | 2.1% | 8.9hPa | 2.6V | 00:00:00 | 00:00:00 | 08:30:00 | |
| DO3MHA-11 | 2026-09-01 12:36:40 | 48.35900 | 12.60031 | 1° | 18km/h | 31969m | 6.1m/s | -38.8°C | 2.1% | 9.0hPa | 2.6V | 00:00:00 | 02:06:59 | 00:00:00 | |
| OE5DXL-15 | 2026-09-01 12:36:36 | 48.35882 | 12.60024 | 16° | 15km/h | 31949m | 5.8m/s | -38.5°C | 2.0% | 9.0hPa | 2.6V | 00:00:00 | 00:00:00 | 00:00:00 | |
| OE5FHM-15 | 2026-09-01 12:36:35 | 48.35879 | 12.60023 | 10° | 15km/h | 31943m | 5.7m/s | -38.5°C | 2.0% | 9.0hPa | 2.6V | 00:00:00 | 02:06:54 | 00:00:00 | |
| OE5MMP-10 | 2026-09-01 12:36:34 | 48.35878 | 12.60023 | 14° | 11km/h | 31938m | 5.5m/s | -38.5°C | 2.0% | 9.0hPa | 2.6V | 00:00:00 | 02:06:53 | 00:00:00 | |
| OE5HKT-10 | 2026-09-01 12:36:33 | 48.35879 | 12.60023 | 168° | 15km/h | 31932m | 5.6m/s | -38.5°C | 2.0% | 9.0hPa | 2.6V | 00:00:00 | 02:06:52 | 00:00:00 | |
| DL6DJ-15 | 2026-09-01 12:36:26 | 48.35896 | 12.60005 | 358° | 7km/h | 31886m | 5.3m/s | -38.4°C | 0.4% | 9.1hPa | 2.6V | 00:00:00 | 00:00:00 | 00:00:00 | |
| OE5MMP-10 | 2026-09-01 12:36:24 | 48.35893 | 12.60004 | 10° | 18km/h | 31881m | 5.1m/s | -38.3°C | 2.0% | 9.1hPa | 2.6V | 00:00:00 | 02:06:43 | 00:00:00 | |
| OE5WHR-10 | 2026-09-01 12:36:20 | 48.35884 | 12.59985 | 90° | 22km/h | 31859m | 4.8m/s | -38.6°C | 2.0% | 9.1hPa | 2.7V | 00:00:00 | 00:00:00 | 00:00:00 | |
| DO7DH-14 | 2026-09-01 12:36:17 | 48.35888 | 12.59961 | 124° | 20km/h | 31842m | 6.3m/s | -38.3°C | 2.0% | 9.1hPa | 2.7V | 00:00:00 | 02:06:36 | 00:00:00 | |
| OE5MMP-10 | 2026-09-01 12:36:14 | 48.35896 | 12.59949 | 136° | 16km/h | 31825m | 5.4m/s | -38.3°C | 1.9% | 9.2hPa | 2.6V | 00:00:00 | 02:06:33 | 00:00:00 | |
| DO3MHA-11 | 2026-09-01 12:36:13 | 48.35899 | 12.59944 | 126° | 26km/h | 31820m | 6.3m/s | -38.3°C | 1.9% | 9.2hPa | 2.6V | 00:00:00 | 02:06:32 | 00:00:00 | |
| OE5HKT-10 | 2026-09-01 12:36:12 | 48.35901 | 12.59939 | 115° | 24km/h | 31813m | 5.9m/s | -38.4°C | 2.0% | 9.2hPa | 2.6V | 00:00:00 | 00:00:00 | 00:00:00 | |
| OE5REO-15 | 2026-09-01 12:36:09 | 48.35903 | 12.59926 | 93° | 18km/h | 31803m | 4.8m/s | -38.5°C | 0.4% | 9.2hPa | 2.7V | 00:00:00 | 00:00:00 | 00:00:00 | |
| OE5FHM-15 | 2026-09-01 12:36:05 | 48.35897 | 12.59899 | 76° | 24km/h | 31775m | 4.3m/s | -38.7°C | 2.0% | 9.2hPa | 2.7V | 00:00:00 | 02:06:24 | 00:00:00 | |
| DG1MFX-10 | 2026-09-01 12:36:04 | 48.35897 | 12.59892 | 92° | 20km/h | 31770m | 4.8m/s | -38.8°C | 0.4% | 9.3hPa | 2.7V | 00:00:00 | 00:00:00 | 00:00:00 | |
| DO3MHA-11 | 2026-09-01 12:35:59 | 48.35911 | 12.59831 | 118° | 27km/h | 31740m | 6.1m/s | -38.7°C | 1.9% | 9.3hPa | 2.7V | 00:00:00 | 02:06:18 | 00:00:00 | |
| OE5DXL-15 | 2026-09-01 12:35:58 | 48.35915 | 12.59819 | 121° | 18km/h | 31734m | 5.9m/s | -38.7°C | 2.0% | 9.3hPa | 2.7V | 00:00:00 | 00:00:00 | 00:00:00 | |
| OE5MMP-10 | 2026-09-01 12:35:54 | 48.35924 | 12.59788 | 95° | 24km/h | 31710m | 6.4m/s | -38.9°C | 2.0% | 9.3hPa | 2.7V | 00:00:00 | 02:06:13 | 00:00:00 | |
| BAUMI2-15 | 2026-09-01 12:35:51 | 48.35922 | 12.59762 | 77° | 22km/h | 31694m | 5.5m/s | -38.9°C | 2.0% | 9.3hPa | 2.6V | 00:00:00 | 02:06:10 | 00:00:00 | |
| DO7DH-14 | 2026-09-01 12:35:47 | 48.35921 | 12.59730 | 110° | 16km/h | 31670m | 5.6m/s | -38.7°C | 2.0% | 9.4hPa | 2.6V | 00:00:00 | 02:06:06 | 00:00:00 | |
| BAUMI2-15 | 2026-09-01 12:35:46 | 48.35924 | 12.59720 | 115° | 33km/h | 31664m | 6.4m/s | -38.7°C | 2.1% | 9.4hPa | 2.6V | 00:00:00 | 02:06:05 | 00:00:00 | |
| OE5MMP-10 | 2026-09-01 12:35:44 | 48.35931 | 12.59698 | 118° | 16km/h | 31651m | 5.3m/s | -39.0°C | 2.1% | 9.4hPa | 2.6V | 00:00:00 | 02:06:03 | 00:00:00 | |
| DG1MFX-10 | 2026-09-01 12:35:42 | 48.35935 | 12.59686 | 121° | 35km/h | 31646m | 4.0m/s | -39.2°C | 0.5% | 9.4hPa | 2.6V | 00:00:00 | 00:00:00 | 00:00:00 | |
| BAUMI2-15 | 2026-09-01 12:35:41 | 48.35943 | 12.59668 | 129° | 11km/h | 31636m | 6.6m/s | -39.2°C | 2.2% | 9.4hPa | 2.6V | 00:00:00 | 02:06:00 | 00:00:00 | |
| OE5WHR-10 | 2026-09-01 12:35:38 | 48.35950 | 12.59659 | 149° | 15km/h | 31617m | 5.7m/s | -39.0°C | 2.2% | 9.4hPa | 2.6V | 00:00:00 | 00:00:00 | 00:00:00 | |
| BAUMI2-15 | 2026-09-01 12:35:36 | 48.35950 | 12.59656 | 73° | 13km/h | 31605m | 5.8m/s | -38.7°C | 2.1% | 9.5hPa | 2.7V | 00:00:00 | 02:05:55 | 00:00:00 | |
| OE5FHM-15 | 2026-09-01 12:35:35 | 48.35949 | 12.59653 | 77° | 20km/h | 31600m | 4.9m/s | -38.6°C | 2.1% | 9.5hPa | 2.7V | 00:00:00 | 02:05:54 | 08:30:00 | |
| OE5MMP-10 | 2026-09-01 12:35:34 | 48.35948 | 12.59647 | 81° | 18km/h | 31595m | 4.6m/s | -38.6°C | 2.1% | 9.5hPa | 2.6V | 00:00:00 | 02:05:53 | 00:00:00 | |
| BAUMI2-15 | 2026-09-01 12:35:31 | 48.35949 | 12.59631 | 108° | 18km/h | 31577m | 6.0m/s | -38.6°C | 2.1% | 9.5hPa | 2.6V | 00:00:00 | 02:05:50 | 00:00:00 | |
| OE5HKT-10 | 2026-09-01 12:35:30 | 48.35950 | 12.59626 | 114° | 22km/h | 31571m | 5.3m/s | -38.6°C | 2.1% | 9.5hPa | 2.7V | 00:00:00 | 02:05:49 | 00:00:00 | |
| OE5DXL-15 | 2026-09-01 12:35:28 | 48.35954 | 12.59614 | 115° | 22km/h | 31560m | 6.7m/s | -38.6°C | 2.1% | 9.5hPa | 2.7V | 00:00:00 | 00:00:00 | 08:30:00 | |
| BAUMI2-15 | 2026-09-01 12:35:26 | 48.35958 | 12.59598 | 108° | 15km/h | 31547m | 4.8m/s | -38.7°C | 2.1% | 9.6hPa | 2.7V | 00:00:00 | 02:05:45 | 00:00:00 | |
| OE5MMP-10 | 2026-09-01 12:35:24 | 48.35960 | 12.59585 | 105° | 20km/h | 31537m | 6.7m/s | -38.8°C | 2.1% | 9.6hPa | 2.7V | 00:00:00 | 02:05:43 | 08:30:00 | |
| DL6DJ-15 | 2026-09-01 12:35:23 | 48.35961 | 12.59581 | 98° | 9km/h | 31530m | 6.5m/s | 0°C | -1.0% | -1.0hPa | 2.7V | 00:00:00 | 00:00:00 | 00:00:00 | |
| DG1MFX-10 | 2026-09-01 12:35:22 | 48.35961 | 12.59581 | 100° | 9km/h | 31530m | 6.5m/s | -38.9°C | 0.5% | 9.6hPa | 2.7V | 00:00:00 | 00:00:00 | 00:00:00 | |
| BAUMI2-15 | 2026-09-01 12:35:21 | 48.35961 | 12.59574 | 83° | 22km/h | 31520m | 4.5m/s | -38.9°C | 2.1% | 9.6hPa | 2.7V | 00:00:00 | 02:05:40 | 00:00:00 | |
| OE5WHR-10 | 2026-09-01 12:35:17 | 48.35961 | 12.59542 | 96° | 26km/h | 31497m | 4.8m/s | -39.1°C | 2.2% | 9.6hPa | 2.7V | 00:00:00 | 00:00:00 | 00:00:00 | |
| BAUMI2-15 | 2026-09-01 12:35:16 | 48.35962 | 12.59530 | 98° | 27km/h | 31491m | 5.8m/s | -39.2°C | 2.2% | 9.6hPa | 2.7V | 00:00:00 | 02:05:35 | 08:30:00 | |
| DO7DH-14 | 2026-09-01 12:35:14 | 48.35964 | 12.59508 | 100° | 24km/h | 31479m | 5.7m/s | -39.1°C | 2.2% | 9.7hPa | 2.6V | 00:00:00 | 02:05:33 | 00:00:00 | |
| BAUMI2-15 | 2026-09-01 12:35:11 | 48.35965 | 12.59479 | 88° | 27km/h | 31462m | 6.6m/s | -38.8°C | 2.1% | 9.7hPa | 2.6V | 00:00:00 | 02:05:30 | 00:00:00 | |
| OE5HKT-10 | 2026-09-01 12:35:09 | 48.35963 | 12.59458 | 77° | 24km/h | 31451m | 4.6m/s | -38.7°C | 2.1% | 9.7hPa | 2.6V | 00:00:00 | 00:00:00 | 08:30:00 | |
| OE5REO-15 | 2026-09-01 12:35:07 | 48.35962 | 12.59447 | 74° | 27km/h | 31446m | 5.2m/s | -38.8°C | 0.4% | 9.8hPa | 2.7V | 00:00:00 | 00:00:00 | 00:00:00 | |
| BAUMI2-15 | 2026-09-01 12:35:06 | 48.35958 | 12.59431 | 72° | 22km/h | 31433m | 6.5m/s | -38.7°C | 2.1% | 9.7hPa | 2.7V | 00:00:00 | 02:05:25 | 00:00:00 | |
| OE5FHM-15 | 2026-09-01 12:35:05 | 48.35956 | 12.59424 | 77° | 20km/h | 31427m | 5.5m/s | -38.7°C | 2.1% | 9.7hPa | 2.7V | 00:00:00 | 02:05:24 | 00:00:00 | |
| OE5MMP-10 | 2026-09-01 12:35:04 | 48.35956 | 12.59417 | 83° | 22km/h | 31421m | 5.4m/s | -38.7°C | 2.1% | 9.8hPa | 2.7V | 00:00:00 | 02:05:23 | 00:00:00 | |
| BAUMI2-15 | 2026-09-01 12:35:01 | 48.35955 | 12.59389 | 91° | 24km/h | 31404m | 4.6m/s | -38.7°C | 2.0% | 9.8hPa | 2.7V | 00:00:00 | 02:05:20 | 00:00:00 | |
| OE5DXL-15 | 2026-09-01 12:34:58 | 48.35954 | 12.59361 | 85° | 18km/h | 31388m | 6.5m/s | -38.7°C | 2.0% | 9.8hPa | 2.6V | 00:00:00 | 00:00:00 | 00:00:00 | |
| OE5WHR-10 | 2026-09-01 12:34:56 | 48.35952 | 12.59349 | 65° | 18km/h | 31376m | 4.8m/s | -38.7°C | 2.0% | 9.8hPa | 2.6V | 00:00:00 | 02:05:15 | 00:00:00 | |
| DO3MHA-11 | 2026-09-01 12:34:55 | 48.35950 | 12.59343 | 60° | 22km/h | 31371m | 5.1m/s | -38.8°C | 2.0% | 9.8hPa | 2.6V | 00:00:00 | 02:05:14 | 00:00:00 | |
| OE5MMP-10 | 2026-09-01 12:34:54 | 48.35947 | 12.59337 | 60° | 20km/h | 31365m | 6.3m/s | -38.9°C | 2.0% | 9.8hPa | 2.6V | 00:00:00 | 02:05:13 | 00:00:00 | |
| BAUMI2-15 | 2026-09-01 12:34:51 | 48.35938 | 12.59309 | 65° | 18km/h | 31349m | 4.3m/s | -39.1°C | 2.1% | 9.9hPa | 2.7V | 00:00:00 | 02:05:10 | 00:00:00 | |
| OE5HKT-10 | 2026-09-01 12:34:48 | 48.35932 | 12.59287 | 82° | 18km/h | 31332m | 5.6m/s | -39.2°C | 2.0% | 9.9hPa | 2.7V | 00:00:00 | 00:00:00 | 00:00:00 | |
| BAUMI2-15 | 2026-09-01 12:34:46 | 48.35933 | 12.59279 | 124° | 16km/h | 31322m | 5.3m/s | -39.1°C | 2.0% | 9.9hPa | 2.7V | 00:00:00 | 02:05:05 | 00:00:00 | |
| OE5MMP-10 | 2026-09-01 12:34:44 | 48.35937 | 12.59270 | 124° | 18km/h | 31309m | 6.1m/s | -39.0°C | 2.0% | 9.9hPa | 2.7V | 00:00:00 | 02:05:03 | 00:00:00 | |
| BAUMI2-15 | 2026-09-01 12:34:41 | 48.35944 | 12.59251 | 110° | 15km/h | 31294m | 6.0m/s | -39.2°C | 2.0% | 9.9hPa | 2.7V | 00:00:00 | 02:05:00 | 00:00:00 | |
| DG1MFX-10 | 2026-09-01 12:34:40 | 48.35944 | 12.59251 | 111° | 16km/h | 31294m | 6.1m/s | -39.2°C | 0.4% | 10.0hPa | 2.7V | 00:00:00 | 00:00:00 | 00:00:00 | |
| BAUMI2-15 | 2026-09-01 12:34:36 | 48.35942 | 12.59225 | 81° | 26km/h | 31265m | 6.5m/s | -39.1°C | 2.0% | 10.0hPa | 2.7V | 00:00:00 | 02:04:55 | 00:00:00 | |
| OE5WHR-10 | 2026-09-01 12:34:35 | 48.35942 | 12.59216 | 88° | 22km/h | 31258m | 6.1m/s | -39.2°C | 2.0% | 10.0hPa | 2.7V | 00:00:00 | 00:00:00 | 00:00:00 | |
| OE5MMP-10 | 2026-09-01 12:34:34 | 48.35942 | 12.59206 | 91° | 20km/h | 31253m | 4.8m/s | -39.3°C | 2.0% | 10.0hPa | 2.6V | 00:00:00 | 02:04:53 | 00:00:00 | |
| BAUMI2-15 | 2026-09-01 12:34:31 | 48.35943 | 12.59177 | 102° | 16km/h | 31236m | 6.2m/s | -39.2°C | 2.0% | 10.1hPa | 2.6V | 00:00:00 | 02:04:50 | 08:30:00 | |
| OE5DXL-15 | 2026-09-01 12:34:28 | 48.35948 | 12.59161 | 122° | 22km/h | 31219m | 6.1m/s | -39.4°C | 2.0% | 10.1hPa | 2.7V | 00:00:00 | 00:00:00 | 00:00:00 | |
| OE5HKT-10 | 2026-09-01 12:34:27 | 48.35950 | 12.59155 | 122° | 22km/h | 31213m | 6.1m/s | -39.4°C | 2.0% | 10.1hPa | 2.7V | 00:00:00 | 02:04:46 | 00:00:00 | |
| BAUMI2-15 | 2026-09-01 12:34:26 | 48.35953 | 12.59149 | 123° | 18km/h | 31207m | 5.0m/s | -39.3°C | 2.0% | 10.1hPa | 2.7V | 00:00:00 | 02:04:45 | 00:00:00 | |
| OE5MMP-10 | 2026-09-01 12:34:24 | 48.35957 | 12.59136 | 112° | 24km/h | 31197m | 5.4m/s | -39.5°C | 2.0% | 10.1hPa | 2.7V | 00:00:00 | 02:04:43 | 00:00:00 | |
| DG1MFX-10 | 2026-09-01 12:34:21 | 48.35958 | 12.59119 | 79° | 16km/h | 31180m | 5.1m/s | -39.8°C | 0.5% | 10.2hPa | 2.6V | 00:00:00 | 00:00:00 | 00:00:00 | |
| BAUMI2-15 | 2026-09-01 12:34:16 | 48.35953 | 12.59069 | 83° | 24km/h | 31152m | 5.0m/s | -39.8°C | 2.1% | 10.2hPa | 2.6V | 00:00:00 | 02:04:35 | 00:00:00 | |
| OE5MMP-10 | 2026-09-01 12:34:14 | 48.35951 | 12.59049 | 76° | 24km/h | 31140m | 6.0m/s | -39.5°C | 2.0% | 10.2hPa | 2.6V | 00:00:00 | 02:04:33 | 00:00:00 | |
| OE5WHR-10 | 2026-09-01 12:34:13 | 48.35949 | 12.59042 | 74° | 20km/h | 31134m | 5.3m/s | -39.6°C | 2.0% | 10.2hPa | 2.6V | 00:00:00 | 00:00:00 | 00:00:00 | |
| DO3MHA-11 | 2026-09-01 12:34:11 | 48.35947 | 12.59027 | 84° | 22km/h | 31123m | 5.8m/s | -39.7°C | 2.1% | 10.2hPa | 2.6V | 00:00:00 | 02:04:30 | 00:00:00 | |
| OE5HKT-10 | 2026-09-01 12:34:06 | 48.35949 | 12.58980 | 98° | 18km/h | 31096m | 6.6m/s | -39.7°C | 2.1% | 10.3hPa | 2.6V | 00:00:00 | 00:00:00 | 00:00:00 | |
| OE5FHM-15 | 2026-09-01 12:34:05 | 48.35950 | 12.58972 | 100° | 16km/h | 31090m | 5.7m/s | -39.8°C | 2.1% | 10.3hPa | 2.6V | 00:00:00 | 02:04:24 | 00:00:00 | |
| OE5MMP-10 | 2026-09-01 12:34:04 | 48.35951 | 12.58965 | 103° | 20km/h | 31084m | 5.2m/s | -39.9°C | 2.1% | 10.3hPa | 2.7V | 00:00:00 | 02:04:23 | 00:00:00 | |
| DO3MHA-11 | 2026-09-01 12:34:01 | 48.35956 | 12.58941 | 110° | 24km/h | 31066m | 5.9m/s | -39.7°C | 2.1% | 10.3hPa | 2.7V | 00:00:00 | 02:04:20 | 00:00:00 | |
| DG1MFX-10 | 2026-09-01 12:33:59 | 48.35958 | 12.58932 | 112° | 27km/h | 31061m | 4.7m/s | -39.8°C | 0.5% | 10.3hPa | 2.7V | 00:00:00 | 00:00:00 | 00:00:00 | |
| OE5DXL-15 | 2026-09-01 12:33:58 | 48.35963 | 12.58914 | 112° | 18km/h | 31052m | 5.6m/s | -39.9°C | 2.1% | 10.3hPa | 2.7V | 00:00:00 | 00:00:00 | 00:00:00 | |
| BAUMI2-15 | 2026-09-01 12:33:56 | 48.35966 | 12.58903 | 112° | 11km/h | 31039m | 6.1m/s | -40.1°C | 2.1% | 10.4hPa | 2.7V | 00:00:00 | 02:04:15 | 00:00:00 | |
| OE5MMP-10 | 2026-09-01 12:33:54 | 48.35967 | 12.58896 | 104° | 18km/h | 31028m | 5.7m/s | -40.2°C | 2.1% | 10.4hPa | 2.7V | 00:00:00 | 02:04:13 | 08:30:00 | |
| OE5WHR-10 | 2026-09-01 12:33:52 | 48.35969 | 12.58884 | 102° | 16km/h | 31016m | 5.3m/s | -40.0°C | 2.0% | 10.4hPa | 2.7V | 00:00:00 | 02:04:11 | 00:00:00 | |
| OE5REO-15 | 2026-09-01 12:33:51 | 48.35970 | 12.58877 | 104° | 20km/h | 31011m | 5.1m/s | -40.1°C | 0.4% | 10.5hPa | 2.7V | 00:00:00 | 00:00:00 | 00:00:00 | |
| OE5HKT-10 | 2026-09-01 12:33:45 | 48.35980 | 12.58836 | 113° | 9km/h | 30977m | 6.2m/s | -40.7°C | 2.1% | 10.5hPa | 2.7V | 00:00:00 | 00:00:00 | 00:00:00 | |
| OE5MMP-10 | 2026-09-01 12:33:44 | 48.35982 | 12.58828 | 112° | 13km/h | 30971m | 5.4m/s | -40.7°C | 2.2% | 10.5hPa | 2.7V | 00:00:00 | 02:04:03 | 00:00:00 | |
| DO7DH-14 | 2026-09-01 12:33:40 | 48.35990 | 12.58808 | 159° | 20km/h | 30950m | 6.4m/s | -40.7°C | 2.2% | 10.5hPa | 2.7V | 00:00:00 | 02:03:59 | 00:00:00 | |
| DG1MFX-10 | 2026-09-01 12:33:38 | 48.35991 | 12.58807 | 218° | 2km/h | 30944m | 5.0m/s | -40.8°C | 0.5% | 10.6hPa | 2.7V | 00:00:00 | 00:00:00 | 00:00:00 | |
| OE5FHM-15 | 2026-09-01 12:33:35 | 48.35984 | 12.58799 | 54° | 26km/h | 30923m | 6.9m/s | -40.8°C | 2.1% | 10.5hPa | 2.7V | 00:00:00 | 02:03:54 | 00:00:00 | |
| OE5MMP-10 | 2026-09-01 12:33:34 | 48.35980 | 12.58790 | 61° | 24km/h | 30916m | 5.7m/s | -40.9°C | 2.1% | 10.6hPa | 2.7V | 00:00:00 | 02:03:53 | 00:00:00 | |
| OE5WHR-10 | 2026-09-01 12:33:31 | 48.35973 | 12.58758 | 86° | 24km/h | 30900m | 6.1m/s | -41.2°C | 2.2% | 10.6hPa | 2.7V | 00:00:00 | 00:00:00 | 08:30:00 | |
| DO3MHA-11 | 2026-09-01 12:33:29 | 48.35975 | 12.58741 | 113° | 20km/h | 30889m | 4.9m/s | -41.2°C | 2.2% | 10.6hPa | 2.6V | 00:00:00 | 02:03:48 | 08:30:00 | |
| OE5DXL-15 | 2026-09-01 12:33:28 | 48.35977 | 12.58735 | 119° | 26km/h | 30884m | 5.0m/s | -41.1°C | 2.2% | 10.6hPa | 2.6V | 00:00:00 | 00:00:00 | 00:00:00 | |
| OE5MMP-10 | 2026-09-01 12:33:24 | 48.35980 | 12.58709 | 81° | 27km/h | 30862m | 5.1m/s | -40.9°C | 2.2% | 10.6hPa | 2.6V | 00:00:00 | 02:03:43 | 00:00:00 | |
| OE5REO-15 | 2026-09-01 12:33:19 | 48.35975 | 12.58680 | 79° | 22km/h | 30839m | 4.8m/s | -41.2°C | 0.5% | 10.7hPa | 2.7V | 00:00:00 | 00:00:00 | 00:00:00 | |
| OE5MMP-10 | 2026-09-01 12:33:14 | 48.35968 | 12.58604 | 85° | 27km/h | 30806m | 5.5m/s | -41.4°C | 2.3% | 10.7hPa | 2.7V | 00:00:00 | 02:03:33 | 00:00:00 | |
| DO7DH-14 | 2026-09-01 12:33:10 | 48.35963 | 12.58568 | 62° | 26km/h | 30783m | 5.9m/s | -41.6°C | 2.3% | 10.8hPa | 2.7V | 00:00:00 | 02:03:29 | 08:30:00 | |
| OE5WHR-10 | 2026-09-01 12:33:08 | 48.35956 | 12.58553 | 54° | 26km/h | 30771m | 5.4m/s | -41.7°C | 2.3% | 10.8hPa | 2.7V | 00:00:00 | 00:00:00 | 00:00:00 | |
| OE5FHM-15 | 2026-09-01 12:33:05 | 48.35945 | 12.58525 | 63° | 22km/h | 30756m | 5.7m/s | -41.7°C | 2.3% | 10.8hPa | 2.7V | 00:00:00 | 02:03:24 | 00:00:00 | |
| OE5MMP-10 | 2026-09-01 12:33:04 | 48.35942 | 12.58516 | 68° | 27km/h | 30750m | 6.2m/s | -41.6°C | 2.3% | 10.8hPa | 2.7V | 00:00:00 | 02:03:23 | 00:00:00 | |
| OE5REO-15 | 2026-09-01 12:33:03 | 48.35942 | 12.58516 | 68° | 26km/h | 30750m | 6.3m/s | -41.7°C | 0.5% | 10.9hPa | 2.7V | 00:00:00 | 00:00:00 | 00:00:00 | |
| OE5DXL-15 | 2026-09-01 12:32:58 | 48.35926 | 12.58461 | 64° | 20km/h | 30715m | 4.9m/s | -41.7°C | 2.3% | 10.9hPa | 2.7V | 00:00:00 | 00:00:00 | 00:00:00 | |
| DG1MFX-10 | 2026-09-01 12:32:57 | 48.35926 | 12.58461 | 65° | 31km/h | 30715m | 4.9m/s | -41.8°C | 0.5% | 10.9hPa | 2.7V | 00:00:00 | 00:00:00 | 00:00:00 | |
| OE5MMP-10 | 2026-09-01 12:32:54 | 48.35921 | 12.58421 | 97° | 20km/h | 30692m | 5.4m/s | -42.1°C | 2.3% | 10.9hPa | 2.7V | 00:00:00 | 02:03:13 | 00:00:00 | |
| OE5REO-15 | 2026-09-01 12:32:48 | 48.35916 | 12.58382 | 60° | 20km/h | 30664m | 5.0m/s | -42.2°C | 0.5% | 11.0hPa | 2.6V | 00:00:00 | 00:00:00 | 00:00:00 | |
| OE5WHR-10 | 2026-09-01 12:32:47 | 48.35912 | 12.58370 | 66° | 15km/h | 30652m | 6.2m/s | -42.1°C | 2.3% | 11.0hPa | 2.6V | 00:00:00 | 02:03:06 | 00:00:00 | |
| OE5MMP-10 | 2026-09-01 12:32:44 | 48.35907 | 12.58351 | 66° | 18km/h | 30635m | 6.2m/s | -42.4°C | 2.3% | 11.0hPa | 2.6V | 00:00:00 | 02:03:03 | 00:00:00 | |
| DK5PH-5 | 2026-09-01 12:32:41 | 48.35897 | 12.58327 | 58° | 13km/h | 30618m | 4.7m/s | -42.2°C | 2.3% | 11.1hPa | 2.6V | 00:00:00 | 02:03:00 | 08:30:00 | |
| DO7DH-14 | 2026-09-01 12:32:40 | 48.35894 | 12.58320 | 60° | 15km/h | 30613m | 5.8m/s | -42.2°C | 2.3% | 11.1hPa | 2.6V | 00:00:00 | 02:02:59 | 00:00:00 | |
| DG1MFX-10 | 2026-09-01 12:32:38 | 48.35890 | 12.58309 | 65° | 13km/h | 30600m | 5.6m/s | -42.4°C | 0.6% | 11.1hPa | 2.6V | 00:00:00 | 00:00:00 | 00:00:00 | |
| OE5FHM-15 | 2026-09-01 12:32:35 | 48.35884 | 12.58298 | 37° | 13km/h | 30582m | 6.4m/s | -42.5°C | 2.4% | 11.1hPa | 2.6V | 00:00:00 | 02:02:54 | 00:00:00 | |
| OE5MMP-10 | 2026-09-01 12:32:34 | 48.35881 | 12.58294 | 35° | 18km/h | 30577m | 5.1m/s | -42.4°C | 2.4% | 11.1hPa | 2.6V | 00:00:00 | 02:02:53 | 00:00:00 | |
| OE5REO-15 | 2026-09-01 12:32:32 | 48.35876 | 12.58290 | 38° | 20km/h | 30572m | 4.3m/s | -42.4°C | 0.5% | 11.2hPa | 2.6V | 00:00:00 | 00:00:00 | 00:00:00 | |
| OE5DXL-15 | 2026-09-01 12:32:28 | 48.35865 | 12.58264 | 71° | 13km/h | 30543m | 5.7m/s | -42.6°C | 2.4% | 11.2hPa | 2.6V | 00:00:00 | 00:00:00 | 00:00:00 | |
| OE5WHR-10 | 2026-09-01 12:32:26 | 48.35860 | 12.58252 | 54° | 9km/h | 30531m | 5.3m/s | -42.6°C | 2.4% | 11.2hPa | 2.7V | 00:00:00 | 00:00:00 | 00:00:00 | |
| OE5MMP-10 | 2026-09-01 12:32:24 | 48.35854 | 12.58242 | 36° | 9km/h | 30521m | 4.7m/s | -42.5°C | 2.3% | 11.2hPa | 2.6V | 00:00:00 | 02:02:43 | 08:30:00 | |
| OE5REO-15 | 2026-09-01 12:32:17 | 48.35845 | 12.58237 | 55° | 11km/h | 30480m | 5.4m/s | -42.9°C | 0.5% | 11.3hPa | 2.7V | 00:00:00 | 00:00:00 | 00:00:00 | |
| DG1MFX-10 | 2026-09-01 12:32:16 | 48.35845 | 12.58237 | 55° | 11km/h | 30480m | 5.4m/s | -42.9°C | 0.6% | 11.3hPa | 2.7V | 00:00:00 | 00:00:00 | 00:00:00 | |
| OE5MMP-10 | 2026-09-01 12:32:14 | 48.35840 | 12.58225 | 61° | 13km/h | 30462m | 5.9m/s | -42.9°C | 2.5% | 11.3hPa | 2.7V | 00:00:00 | 02:02:33 | 00:00:00 | |
| DK5PH-5 | 2026-09-01 12:32:11 | 48.35836 | 12.58219 | 17° | 13km/h | 30447m | 5.2m/s | -42.8°C | 2.4% | 11.3hPa | 2.7V | 00:00:00 | 02:02:30 | 00:00:00 | |
| DO7DH-14 | 2026-09-01 12:32:07 | 48.35820 | 12.58220 | 337° | 15km/h | 30425m | 4.3m/s | -42.5°C | 2.4% | 11.4hPa | 2.7V | 00:00:00 | 02:02:26 | 00:00:00 | |
| OE5FHM-15 | 2026-09-01 12:32:06 | 48.35816 | 12.58226 | 275° | 11km/h | 30415m | 5.9m/s | -42.6°C | 2.4% | 11.4hPa | 2.7V | 00:00:00 | 02:02:24 | 00:00:00 | |
| OE5WHR-10 | 2026-09-01 12:32:05 | 48.35816 | 12.58226 | 275° | 11km/h | 30415m | 5.9m/s | -42.6°C | 2.4% | 11.4hPa | 2.7V | 00:00:00 | 00:00:00 | 00:00:00 | |
| OE5MMP-10 | 2026-09-01 12:32:04 | 48.35817 | 12.58230 | 229° | 16km/h | 30409m | 5.6m/s | -42.7°C | 2.4% | 11.5hPa | 2.7V | 00:00:00 | 02:02:23 | 00:00:00 | |
| OE5REO-15 | 2026-09-01 12:32:01 | 48.35823 | 12.58232 | 164° | 15km/h | 30399m | 4.7m/s | -42.8°C | 0.5% | 11.5hPa | 2.7V | 00:00:00 | 00:00:00 | 00:00:00 | |
| OE5DXL-15 | 2026-09-01 12:31:58 | 48.35822 | 12.58215 | 32° | 11km/h | 30377m | 5.7m/s | -42.9°C | 2.5% | 11.5hPa | 2.7V | 00:00:00 | 00:00:00 | 00:00:00 | |
| DG1MFX-10 | 2026-09-01 12:31:55 | 48.35811 | 12.58211 | 359° | 24km/h | 30365m | 6.0m/s | -42.9°C | 0.6% | 11.5hPa | 2.7V | 00:00:00 | 00:00:00 | 00:00:00 | |
| OE5MMP-10 | 2026-09-01 12:31:54 | 48.35801 | 12.58215 | 331° | 7km/h | 30354m | 4.9m/s | -42.6°C | 2.5% | 11.5hPa | 2.7V | 00:00:00 | 02:02:13 | 00:00:00 | |
| BAUMI2-15 | 2026-09-01 12:31:52 | 48.35796 | 12.58220 | 329° | 7km/h | 30344m | 5.8m/s | -42.5°C | 2.5% | 11.5hPa | 2.7V | 00:00:00 | 02:02:11 | 00:00:00 | |
| BAUMI2-15 | 2026-09-01 12:31:47 | 48.35799 | 12.58209 | 126° | 7km/h | 30315m | 6.2m/s | -42.4°C | 2.4% | 11.6hPa | 2.7V | 00:00:00 | 02:02:06 | 08:30:00 | |
| OE5REO-15 | 2026-09-01 12:31:45 | 48.35801 | 12.58207 | 122° | 5km/h | 30309m | 5.7m/s | -42.4°C | 0.6% | 11.6hPa | 2.6V | 00:00:00 | 00:00:00 | 00:00:00 | |
| OE5MMP-10 | 2026-09-01 12:31:44 | 48.35800 | 12.58204 | 57° | 9km/h | 30299m | 4.6m/s | -42.3°C | 2.4% | 11.6hPa | 2.6V | 00:00:00 | 02:02:03 | 00:00:00 | |
| BAUMI2-15 | 2026-09-01 12:31:42 | 48.35798 | 12.58197 | 60° | 13km/h | 30289m | 6.3m/s | -42.3°C | 2.4% | 11.6hPa | 2.6V | 00:00:00 | 02:02:01 | 00:00:00 | |
| DK5PH-5 | 2026-09-01 12:31:41 | 48.35796 | 12.58193 | 67° | 9km/h | 30282m | 6.2m/s | -42.3°C | 2.4% | 11.6hPa | 2.6V | 00:00:00 | 02:02:00 | 00:00:00 | |
| OE5WHR-10 | 2026-09-01 12:31:38 | 48.35793 | 12.58178 | 78° | 7km/h | 30266m | 5.8m/s | -42.5°C | 2.4% | 11.7hPa | 2.6V | 00:00:00 | 02:01:57 | 00:00:00 | |
| BAUMI2-15 | 2026-09-01 12:31:37 | 48.35792 | 12.58176 | 32° | 4km/h | 30259m | 6.5m/s | -42.5°C | 2.4% | 11.7hPa | 2.6V | 00:00:00 | 02:01:56 | 00:00:00 | |
| DG1MFX-10 | 2026-09-01 12:31:35 | 48.35792 | 12.58179 | 283° | 7km/h | 30249m | 4.2m/s | -42.5°C | 0.5% | 11.8hPa | 2.6V | 00:00:00 | 00:00:00 | 00:00:00 | |
| OE5MMP-10 | 2026-09-01 12:31:34 | 48.35792 | 12.58182 | 285° | 7km/h | 30243m | 5.6m/s | -42.5°C | 2.4% | 11.7hPa | 2.6V | 00:00:00 | 02:01:53 | 00:00:00 | |
| BAUMI2-15 | 2026-09-01 12:31:32 | 48.35791 | 12.58182 | 74° | 9km/h | 30231m | 5.9m/s | -42.5°C | 2.4% | 11.7hPa | 2.6V | 00:00:00 | 02:01:51 | 00:00:00 | |
| OE5REO-15 | 2026-09-01 12:31:29 | 48.35790 | 12.58175 | 81° | 13km/h | 30220m | 5.1m/s | -42.7°C | 0.5% | 11.8hPa | 2.7V | 00:00:00 | 00:00:00 | 00:00:00 | |
| OE5DXL-15 | 2026-09-01 12:31:28 | 48.35789 | 12.58167 | 73° | 7km/h | 30208m | 6.2m/s | -42.7°C | 2.4% | 11.8hPa | 2.7V | 00:00:00 | 00:00:00 | 00:00:00 | |
| BAUMI2-15 | 2026-09-01 12:31:27 | 48.35788 | 12.58164 | 64° | 9km/h | 30202m | 5.4m/s | -42.5°C | 2.4% | 11.8hPa | 2.7V | 00:00:00 | 02:01:46 | 00:00:00 | |
| OE5MMP-10 | 2026-09-01 12:31:24 | 48.35786 | 12.58156 | 70° | 7km/h | 30186m | 6.4m/s | -42.3°C | 2.4% | 11.8hPa | 2.7V | 00:00:00 | 02:01:43 | 00:00:00 | |
| BAUMI2-15 | 2026-09-01 12:31:22 | 48.35784 | 12.58149 | 72° | 4km/h | 30175m | 4.9m/s | -42.3°C | 2.4% | 11.9hPa | 2.6V | 00:00:00 | 02:01:41 | 00:00:00 | |
| OE5WHR-10 | 2026-09-01 12:31:17 | 48.35782 | 12.58148 | 64° | 7km/h | 30147m | 5.5m/s | -42.5°C | 2.3% | 11.9hPa | 2.6V | 00:00:00 | 00:00:00 | 00:00:00 | |
| DG1MFX-10 | 2026-09-01 12:31:14 | 48.35781 | 12.58135 | 87° | 18km/h | 30128m | 5.5m/s | -42.6°C | 0.6% | 12.0hPa | 2.7V | 00:00:00 | 00:00:00 | 00:00:00 | |
| BAUMI2-15 | 2026-09-01 12:31:12 | 48.35780 | 12.58123 | 83° | 7km/h | 30116m | 6.4m/s | -42.7°C | 2.4% | 12.0hPa | 2.7V | 00:00:00 | 02:01:31 | 00:00:00 | |
| BAUMI2-15 | 2026-09-01 12:31:07 | 48.35777 | 12.58110 | 82° | 4km/h | 30087m | 5.6m/s | -42.6°C | 2.4% | 12.0hPa | 2.7V | 00:00:00 | 02:01:26 | 00:00:00 | |
| DK5PH-5 | 2026-09-01 12:31:06 | 48.35777 | 12.58108 | 85° | 7km/h | 30082m | 5.3m/s | -42.7°C | 2.4% | 12.0hPa | 2.7V | 00:00:00 | 02:01:25 | 00:00:00 | |
| OE5FHM-15 | 2026-09-01 12:31:05 | 48.35777 | 12.58107 | 77° | 7km/h | 30076m | 6.1m/s | -42.8°C | 2.4% | 12.0hPa | 2.7V | 00:00:00 | 02:01:24 | 08:30:00 | |
| OE5MMP-10 | 2026-09-01 12:31:04 | 48.35777 | 12.58107 | 306° | 7km/h | 30069m | 6.7m/s | -42.9°C | 2.4% | 12.1hPa | 2.6V | 00:00:00 | 02:01:23 | 00:00:00 | |
| BAUMI2-15 | 2026-09-01 12:31:02 | 48.35777 | 12.58108 | 57° | 9km/h | 30058m | 4.8m/s | -43.1°C | 2.4% | 12.1hPa | 2.6V | 00:00:00 | 02:01:21 | 08:30:00 | |
| DO7DH-14 | 2026-09-01 12:30:59 | 48.35777 | 12.58098 | 102° | 7km/h | 30040m | 5.1m/s | -43.0°C | 2.4% | 12.1hPa | 2.7V | 00:00:00 | 02:01:18 | 00:00:00 | |
| OE5DXL-15 | 2026-09-01 12:30:58 | 48.35778 | 12.58093 | 109° | 7km/h | 30036m | 4.9m/s | -42.9°C | 2.4% | 12.1hPa | 2.7V | 00:00:00 | 00:00:00 | 08:30:00 | |
| BAUMI2-15 | 2026-09-01 12:30:57 | 48.35780 | 12.58088 | 122° | 11km/h | 30030m | 6.3m/s | -42.9°C | 2.3% | 12.1hPa | 2.7V | 00:00:00 | 02:01:16 | 00:00:00 | |
| OE5WHR-10 | 2026-09-01 12:30:56 | 48.35782 | 12.58085 | 146° | 7km/h | 30023m | 6.1m/s | -42.9°C | 2.4% | 12.1hPa | 2.7V | 00:00:00 | 00:00:00 | 00:00:00 | |
| OE5MMP-10 | 2026-09-01 12:30:55 | 48.35786 | 12.58084 | 191° | 4km/h | 30012m | 5.0m/s | -43.1°C | 2.4% | 12.2hPa | 2.7V | 00:00:00 | 02:01:13 | 08:30:00 | |
| DG1MFX-10 | 2026-09-01 12:30:54 | 48.35786 | 12.58084 | 192° | 7km/h | 30012m | 5.1m/s | -43.2°C | 0.6% | 12.2hPa | 2.7V | 00:00:00 | 00:00:00 | 00:00:00 | |
| BAUMI2-15 | 2026-09-01 12:30:52 | 48.35789 | 12.58084 | 174° | 4km/h | 30001m | 6.3m/s | -43.1°C | 2.4% | 12.2hPa | 2.7V | 00:00:00 | 02:01:11 | 00:00:00 | |
| BAUMI2-15 | 2026-09-01 12:30:48 | 48.35787 | 12.58088 | 307° | 5km/h | 29972m | 4.6m/s | -43.2°C | 2.5% | 12.2hPa | 2.7V | 00:00:00 | 02:01:06 | 00:00:00 | |
| OE5MMP-10 | 2026-09-01 12:30:44 | 48.35786 | 12.58087 | 96° | 7km/h | 29955m | 6.5m/s | -43.0°C | 2.5% | 12.3hPa | 2.6V | 00:00:00 | 02:01:03 | 00:00:00 | |
| OE5REO-15 | 2026-09-01 12:30:43 | 48.35786 | 12.58087 | 97° | 7km/h | 29955m | 6.5m/s | -43.1°C | 0.5% | 12.3hPa | 2.6V | 00:00:00 | 00:00:00 | 00:00:00 | |
| BAUMI2-15 | 2026-09-01 12:30:42 | 48.35787 | 12.58080 | 118° | 7km/h | 29944m | 4.7m/s | -43.2°C | 2.4% | 12.3hPa | 2.6V | 00:00:00 | 02:01:01 | 00:00:00 | |
| DO3MHA-11 | 2026-09-01 12:30:41 | 48.35789 | 12.58077 | 133° | 13km/h | 29939m | 5.4m/s | -43.3°C | 2.5% | 12.3hPa | 2.6V | 00:00:00 | 02:01:00 | 00:00:00 | |
| BAUMI2-15 | 2026-09-01 12:30:37 | 48.35792 | 12.58080 | 292° | 9km/h | 29918m | 4.9m/s | -43.4°C | 2.5% | 12.3hPa | 2.6V | 00:00:00 | 02:00:56 | 00:00:00 | |
| DK5PH-5 | 2026-09-01 12:30:36 | 48.35791 | 12.58082 | 332° | 11km/h | 29912m | 6.5m/s | -43.4°C | 2.5% | 12.4hPa | 2.6V | 00:00:00 | 02:00:55 | 00:00:00 | |
| OE5WHR-10 | 2026-09-01 12:30:35 | 48.35789 | 12.58082 | 8° | 9km/h | 29905m | 6.1m/s | -43.4°C | 2.5% | 12.4hPa | 2.6V | 00:00:00 | 02:00:54 | 00:00:00 | |
| OE5MMP-10 | 2026-09-01 12:30:34 | 48.35787 | 12.58081 | 24° | 11km/h | 29900m | 5.3m/s | -43.4°C | 2.5% | 12.4hPa | 2.6V | 00:00:00 | 02:00:53 | 00:00:00 | |
| BAUMI2-15 | 2026-09-01 12:30:32 | 48.35783 | 12.58077 | 34° | 11km/h | 29889m | 6.1m/s | -43.4°C | 2.5% | 12.4hPa | 2.6V | 00:00:00 | 02:00:51 | 00:00:00 | |
| DO7DH-14 | 2026-09-01 12:30:29 | 48.35784 | 12.58074 | 152° | 9km/h | 29873m | 5.0m/s | -43.2°C | 2.5% | 12.4hPa | 2.6V | 00:00:00 | 02:00:48 | 00:00:00 | |
| OE5REO-15 | 2026-09-01 12:30:28 | 48.35786 | 12.58072 | 147° | 15km/h | 29867m | 6.6m/s | -43.1°C | 0.5% | 12.5hPa | 2.6V | 00:00:00 | 00:00:00 | 00:00:00 | |
| BAUMI2-15 | 2026-09-01 12:30:26 | 48.35793 | 12.58064 | 141° | 15km/h | 29854m | 5.6m/s | -43.0°C | 2.4% | 12.5hPa | 2.6V | 00:00:00 | 02:00:45 | 00:00:00 | |
| OE5MMP-10 | 2026-09-01 12:30:24 | 48.35801 | 12.58056 | 156° | 7km/h | 29843m | 6.3m/s | -43.0°C | 2.4% | 12.5hPa | 2.6V | 00:00:00 | 02:00:43 | 00:00:00 | |
| BAUMI2-15 | 2026-09-01 12:30:21 | 48.35808 | 12.58054 | 177° | 5km/h | 29827m | 5.7m/s | -43.2°C | 2.5% | 12.5hPa | 2.6V | 00:00:00 | 02:00:40 | 00:00:00 | |
| DO3MHA-11 | 2026-09-01 12:30:20 | 48.35808 | 12.58053 | 58° | 13km/h | 29820m | 6.8m/s | -43.3°C | 2.5% | 12.5hPa | 2.6V | 00:00:00 | 02:00:39 | 00:00:00 | |
| BAUMI2-15 | 2026-09-01 12:30:18 | 48.35805 | 12.58045 | 102° | 13km/h | 29798m | 6.0m/s | -42.9°C | 2.4% | 12.6hPa | 2.7V | 00:00:00 | 02:00:35 | 08:30:00 | |
| OE5MMP-10 | 2026-09-01 12:30:14 | 48.35808 | 12.58043 | 160° | 18km/h | 29787m | 4.9m/s | -42.9°C | 2.5% | 12.6hPa | 2.6V | 00:00:00 | 02:00:33 | 00:00:00 | |
| OE5WHR-10 | 2026-09-01 12:30:13 | 48.35811 | 12.58040 | 151° | 18km/h | 29782m | 4.7m/s | -42.9°C | 2.4% | 12.6hPa | 2.6V | 00:00:00 | 00:00:00 | 08:30:00 | |
| BAUMI2-15 | 2026-09-01 12:30:11 | 48.35819 | 12.58030 | 131° | 24km/h | 29770m | 6.6m/s | -42.9°C | 2.4% | 12.6hPa | 2.6V | 00:00:00 | 02:00:30 | 00:00:00 | |
| BAUMI2-15 | 2026-09-01 12:30:06 | 48.35834 | 12.57996 | 116° | 13km/h | 29741m | 4.6m/s | -42.8°C | 2.4% | 12.7hPa | 2.6V | 00:00:00 | 02:00:25 | 00:00:00 | |
| OE5FHM-15 | 2026-09-01 12:30:05 | 48.35835 | 12.57992 | 100° | 16km/h | 29737m | 5.0m/s | -42.8°C | 2.3% | 12.7hPa | 2.6V | 00:00:00 | 02:00:24 | 00:00:00 | |
| OE5MMP-10 | 2026-09-01 12:30:04 | 48.35835 | 12.57987 | 83° | 16km/h | 29731m | 6.3m/s | -42.9°C | 2.3% | 12.7hPa | 2.6V | 00:00:00 | 02:00:23 | 00:00:00 | |
| DO3MHA-11 | 2026-09-01 12:30:02 | 48.35833 | 12.57977 | 71° | 15km/h | 29719m | 5.2m/s | -43.1°C | 2.4% | 12.7hPa | 2.6V | 00:00:00 | 02:00:21 | 00:00:00 | |
| BAUMI2-15 | 2026-09-01 12:30:01 | 48.35832 | 12.57971 | 77° | 15km/h | 29714m | 3.9m/s | -43.2°C | 2.4% | 12.7hPa | 2.6V | 00:00:00 | 02:00:20 | 00:00:00 | |
| DO7DH-14 | 2026-09-01 12:29:59 | 48.35832 | 12.57962 | 119° | 16km/h | 29703m | 6.3m/s | -43.0°C | 2.4% | 12.8hPa | 2.7V | 00:00:00 | 02:00:18 | 00:00:00 | |
| OE5DXL-15 | 2026-09-01 12:29:58 | 48.35834 | 12.57958 | 137° | 16km/h | 29698m | 5.1m/s | -43.0°C | 2.4% | 12.8hPa | 2.6V | 00:00:00 | 00:00:00 | 00:00:00 | |
| BAUMI2-15 | 2026-09-01 12:29:56 | 48.35841 | 12.57948 | 128° | 22km/h | 29687m | 6.0m/s | -43.1°C | 2.4% | 12.8hPa | 2.6V | 00:00:00 | 02:00:15 | 00:00:00 | |
| OE5MMP-10 | 2026-09-01 12:29:54 | 48.35846 | 12.57931 | 106° | 15km/h | 29675m | 5.2m/s | -43.3°C | 2.4% | 12.8hPa | 2.6V | 00:00:00 | 02:00:13 | 00:00:00 | |
| OE5WHR-10 | 2026-09-01 12:29:52 | 48.35848 | 12.57912 | 91° | 15km/h | 29666m | 4.2m/s | -43.2°C | 2.4% | 12.8hPa | 2.7V | 00:00:00 | 00:00:00 | 00:00:00 | |
| DG1MFX-10 | 2026-09-01 12:29:51 | 48.35848 | 12.57912 | 92° | 24km/h | 29666m | 4.3m/s | -43.3°C | 0.6% | 12.9hPa | 2.7V | 00:00:00 | 00:00:00 | 00:00:00 | |
| OE5REO-15 | 2026-09-01 12:29:48 | 48.35847 | 12.57896 | 68° | 7km/h | 29649m | 5.6m/s | -43.7°C | 0.5% | 12.9hPa | 2.7V | 00:00:00 | 00:00:00 | 00:00:00 | |
| OE5MMP-10 | 2026-09-01 12:29:44 | 48.35842 | 12.57880 | 84° | 20km/h | 29622m | 4.8m/s | -44.0°C | 2.5% | 12.9hPa | 2.7V | 00:00:00 | 02:00:03 | 00:00:00 | |
| OE5FHM-15 | 2026-09-01 12:29:35 | 48.35844 | 12.57814 | 84° | 16km/h | 29572m | 4.8m/s | -44.1°C | 2.5% | 13.0hPa | 2.7V | 00:00:00 | 01:59:54 | 00:00:00 | |
| OE5MMP-10 | 2026-09-01 12:29:34 | 48.35844 | 12.57808 | 98° | 15km/h | 29566m | 6.2m/s | -44.0°C | 2.5% | 13.1hPa | 2.7V | 00:00:00 | 01:59:53 | 00:00:00 | |
| DG1MFX-10 | 2026-09-01 12:29:31 | 48.35851 | 12.57801 | 159° | 15km/h | 29550m | 5.0m/s | -44.1°C | 0.6% | 13.1hPa | 2.7V | 00:00:00 | 00:00:00 | 00:00:00 | |
| OE5DXL-15 | 2026-09-01 12:29:28 | 48.35861 | 12.57789 | 132° | 16km/h | 29532m | 5.1m/s | -44.0°C | 2.6% | 13.1hPa | 2.7V | 00:00:00 | 00:00:00 | 00:00:00 | |
| DO7DH-14 | 2026-09-01 12:29:25 | 48.35869 | 12.57774 | 123° | 16km/h | 29515m | 5.6m/s | -43.9°C | 2.5% | 13.1hPa | 2.7V | 00:00:00 | 01:59:44 | 00:00:00 | |
| OE5MMP-10 | 2026-09-01 12:29:24 | 48.35870 | 12.57771 | 116° | 15km/h | 29510m | 4.5m/s | -43.9°C | 2.5% | 13.2hPa | 2.7V | 00:00:00 | 01:59:43 | 08:30:00 | |
| DO3MHA-11 | 2026-09-01 12:29:20 | 48.35875 | 12.57749 | 109° | 18km/h | 29488m | 5.1m/s | -44.2°C | 2.5% | 13.2hPa | 2.7V | 00:00:00 | 01:59:39 | 00:00:00 | |
| OE5MMP-10 | 2026-09-01 12:29:14 | 48.35889 | 12.57729 | 148° | 20km/h | 29456m | 5.2m/s | -44.1°C | 2.6% | 13.3hPa | 2.7V | 00:00:00 | 01:59:33 | 00:00:00 | |
| DO3MHA-11 | 2026-09-01 12:29:10 | 48.35897 | 12.57704 | 97° | 22km/h | 29433m | 6.1m/s | -44.1°C | 2.5% | 13.3hPa | 2.7V | 00:00:00 | 01:59:29 | 00:00:00 | |
| OE5REO-15 | 2026-09-01 12:29:07 | 48.35896 | 12.57688 | 74° | 20km/h | 29421m | 5.3m/s | -44.3°C | 0.6% | 13.4hPa | 2.7V | 00:00:00 | 00:00:00 | 00:00:00 | |
| OE5FHM-15 | 2026-09-01 12:29:05 | 48.35891 | 12.57664 | 82° | 18km/h | 29405m | 6.6m/s | -44.1°C | 2.6% | 13.4hPa | 2.7V | 00:00:00 | 01:59:24 | 00:00:00 | |
| OE5MMP-10 | 2026-09-01 12:29:04 | 48.35891 | 12.57655 | 91° | 18km/h | 29399m | 5.5m/s | -44.1°C | 2.6% | 13.4hPa | 2.7V | 00:00:00 | 01:59:23 | 00:00:00 | |
| OE5DXL-15 | 2026-09-01 12:28:58 | 48.35899 | 12.57618 | 126° | 18km/h | 29366m | 5.9m/s | -44.3°C | 2.5% | 13.5hPa | 2.7V | 00:00:00 | 00:00:00 | 00:00:00 | |
| OE5MMP-10 | 2026-09-01 12:28:54 | 48.35910 | 12.57595 | 117° | 18km/h | 29343m | 6.4m/s | -44.5°C | 2.6% | 13.5hPa | 2.7V | 00:00:00 | 01:59:13 | 00:00:00 | |
| OE5REO-15 | 2026-09-01 12:28:51 | 48.35912 | 12.57585 | 95° | 15km/h | 29332m | 4.7m/s | -44.6°C | 0.6% | 13.6hPa | 2.6V | 00:00:00 | 00:00:00 | 00:00:00 | |
| DO7DH-14 | 2026-09-01 12:28:50 | 48.35911 | 12.57572 | 86° | 24km/h | 29321m | 6.6m/s | -44.4°C | 2.6% | 13.6hPa | 2.6V | 00:00:00 | 01:59:09 | 00:00:00 | |
| OE5WHR-10 | 2026-09-01 12:28:49 | 48.35911 | 12.57563 | 87° | 18km/h | 29315m | 5.5m/s | -44.3°C | 2.6% | 13.5hPa | 2.6V | 00:00:00 | 00:00:00 | 00:00:00 | |
| OE5MMP-10 | 2026-09-01 12:28:44 | 48.35913 | 12.57530 | 139° | 16km/h | 29288m | 4.9m/s | -44.5°C | 2.6% | 13.6hPa | 2.6V | 00:00:00 | 01:59:03 | 00:00:00 | |
| OE5FHM-15 | 2026-09-01 12:28:35 | 48.35928 | 12.57483 | 81° | 16km/h | 29238m | 6.5m/s | -44.9°C | 2.7% | 13.7hPa | 2.6V | 00:00:00 | 01:58:54 | 00:00:00 | |
| OE5MMP-10 | 2026-09-01 12:28:34 | 48.35927 | 12.57473 | 78° | 16km/h | 29232m | 5.9m/s | -44.8°C | 2.6% | 13.7hPa | 2.6V | 00:00:00 | 01:58:53 | 00:00:00 | |
| DG1MFX-10 | 2026-09-01 12:28:29 | 48.35920 | 12.57440 | 71° | 11km/h | 29213m | 6.3m/s | -44.6°C | 0.6% | 13.8hPa | 2.6V | 00:00:00 | 00:00:00 | 00:00:00 | |
| OE5WHR-10 | 2026-09-01 12:28:28 | 48.35920 | 12.57437 | 198° | 15km/h | 29201m | 5.0m/s | -44.4°C | 2.6% | 13.8hPa | 2.6V | 00:00:00 | 01:58:47 | 00:00:00 | |
| OE5MMP-10 | 2026-09-01 12:28:24 | 48.35931 | 12.57428 | 129° | 16km/h | 29180m | 5.3m/s | -44.5°C | 2.7% | 13.8hPa | 2.6V | 00:00:00 | 01:58:43 | 00:00:00 | |
| OE5MMP-10 | 2026-09-01 12:28:14 | 48.35943 | 12.57376 | 115° | 18km/h | 29126m | 5.7m/s | -44.5°C | 2.6% | 13.9hPa | 2.7V | 00:00:00 | 01:58:33 | 00:00:00 | |
| DO3MHA-11 | 2026-09-01 12:28:08 | 48.35954 | 12.57343 | 108° | 15km/h | 29093m | 4.8m/s | -44.4°C | 2.6% | 14.0hPa | 2.7V | 00:00:00 | 01:58:27 | 00:00:00 | |
| OE5WHR-10 | 2026-09-01 12:28:07 | 48.35956 | 12.57332 | 104° | 13km/h | 29089m | 4.6m/s | -44.4°C | 2.6% | 14.0hPa | 2.7V | 00:00:00 | 00:00:00 | 00:00:00 | |
| OE5REO-15 | 2026-09-01 12:28:06 | 48.35957 | 12.57323 | 100° | 24km/h | 29083m | 6.0m/s | -44.5°C | 0.6% | 14.1hPa | 2.6V | 00:00:00 | 00:00:00 | 00:00:00 | |
| OE5FHM-15 | 2026-09-01 12:28:05 | 48.35957 | 12.57315 | 89° | 13km/h | 29078m | 5.8m/s | -44.4°C | 2.6% | 14.1hPa | 2.6V | 00:00:00 | 01:58:24 | 00:00:00 | |
| OE5MMP-10 | 2026-09-01 12:28:04 | 48.35957 | 12.57309 | 75° | 11km/h | 29072m | 5.1m/s | -44.3°C | 2.6% | 14.1hPa | 2.7V | 00:00:00 | 01:58:23 | 00:00:00 | |
| DO7DH-14 | 2026-09-01 12:28:03 | 48.35956 | 12.57305 | 63° | 16km/h | 29067m | 5.4m/s | -44.3°C | 2.6% | 14.1hPa | 2.7V | 00:00:00 | 01:58:22 | 08:30:00 | |
| OE5DXL-15 | 2026-09-01 12:27:58 | 48.35953 | 12.57290 | 144° | 13km/h | 29040m | 5.9m/s | -44.4°C | 2.6% | 14.1hPa | 2.6V | 00:00:00 | 00:00:00 | 00:00:00 | |
| OE5MMP-10 | 2026-09-01 12:27:54 | 48.35964 | 12.57274 | 120° | 11km/h | 29017m | 5.1m/s | -44.3°C | 2.6% | 14.2hPa | 2.6V | 00:00:00 | 01:58:13 | 08:30:00 | |
| DO3MHA-11 | 2026-09-01 12:27:53 | 48.35967 | 12.57266 | 114° | 9km/h | 29013m | 3.7m/s | -44.2°C | 2.6% | 14.2hPa | 2.7V | 00:00:00 | 01:58:12 | 00:00:00 | |
| OE5REO-15 | 2026-09-01 12:27:50 | 48.35971 | 12.57248 | 104° | 9km/h | 28998m | 5.7m/s | -44.5°C | 0.6% | 14.3hPa | 2.7V | 00:00:00 | 00:00:00 | 00:00:00 | |
| DG1MFX-10 | 2026-09-01 12:27:48 | 48.35971 | 12.57246 | 93° | 4km/h | 28992m | 5.1m/s | -44.6°C | 0.6% | 14.3hPa | 2.7V | 00:00:00 | 00:00:00 | 00:00:00 | |
| OE5WHR-10 | 2026-09-01 12:27:46 | 48.35971 | 12.57244 | 113° | 13km/h | 28976m | 5.6m/s | -44.3°C | 2.6% | 14.3hPa | 2.7V | 00:00:00 | 00:00:00 | 00:00:00 | |
| BAUMI2-15 | 2026-09-01 12:27:45 | 48.35971 | 12.57243 | 121° | 9km/h | 28971m | 4.5m/s | -44.3°C | 2.6% | 14.3hPa | 2.7V | 00:00:00 | 01:58:04 | 00:00:00 | |
| OE5MMP-10 | 2026-09-01 12:27:44 | 48.35973 | 12.57241 | 134° | 15km/h | 28967m | 4.3m/s | -44.4°C | 2.6% | 14.3hPa | 2.7V | 00:00:00 | 01:58:03 | 00:00:00 | |
| DO3MHA-11 | 2026-09-01 12:27:43 | 48.35974 | 12.57238 | 143° | 13km/h | 28962m | 5.7m/s | -44.4°C | 2.7% | 14.3hPa | 2.7V | 00:00:00 | 01:58:02 | 08:30:00 | |
| BAUMI2-15 | 2026-09-01 12:27:40 | 48.35981 | 12.57230 | 127° | 18km/h | 28946m | 4.8m/s | -44.3°C | 2.6% | 14.3hPa | 2.6V | 00:00:00 | 01:57:59 | 00:00:00 | |
| OE5FHM-15 | 2026-09-01 12:27:35 | 48.35989 | 12.57199 | 117° | 15km/h | 28921m | 6.0m/s | -44.2°C | 2.5% | 14.4hPa | 2.6V | 00:00:00 | 01:57:54 | 00:00:00 | |
| OE5MMP-10 | 2026-09-01 12:27:34 | 48.35990 | 12.57195 | 141° | 15km/h | 28915m | 5.6m/s | -44.2°C | 2.5% | 14.4hPa | 2.6V | 00:00:00 | 01:57:53 | 00:00:00 | |
| DO3MHA-11 | 2026-09-01 12:27:33 | 48.35992 | 12.57194 | 169° | 16km/h | 28910m | 4.6m/s | -44.3°C | 2.5% | 14.4hPa | 2.6V | 00:00:00 | 01:57:52 | 00:00:00 | |
| BAUMI2-15 | 2026-09-01 12:27:30 | 48.36000 | 12.57190 | 142° | 18km/h | 28895m | 5.6m/s | -44.1°C | 2.5% | 14.5hPa | 2.6V | 00:00:00 | 01:57:49 | 08:30:00 | |
| DG1MFX-10 | 2026-09-01 12:27:28 | 48.36005 | 12.57179 | 117° | 20km/h | 28884m | 4.7m/s | -44.2°C | 0.6% | 14.5hPa | 2.7V | 00:00:00 | 00:00:00 | 00:00:00 | |
| OE5WHR-10 | 2026-09-01 12:27:25 | 48.36009 | 12.57160 | 96° | 16km/h | 28868m | 5.1m/s | -44.4°C | 2.6% | 14.5hPa | 2.7V | 00:00:00 | 01:57:44 | 00:00:00 | |
| DO7DH-14 | 2026-09-01 12:27:21 | 48.36010 | 12.57136 | 96° | 16km/h | 28847m | 4.3m/s | -44.2°C | 2.6% | 14.6hPa | 2.7V | 00:00:00 | 01:57:40 | 00:00:00 | |
| DO3MHA-11 | 2026-09-01 12:27:20 | 48.36010 | 12.57130 | 105° | 16km/h | 28842m | 4.2m/s | -44.3°C | 2.6% | 14.6hPa | 2.7V | 00:00:00 | 01:57:39 | 00:00:00 | |
| OE5HKT-10 | 2026-09-01 12:27:18 | 48.36015 | 12.57120 | 155° | 18km/h | 28826m | 4.5m/s | -44.3°C | 2.7% | 14.6hPa | 2.7V | 00:00:00 | 01:57:36 | 00:00:00 | |
| BAUMI2-15 | 2026-09-01 12:27:15 | 48.36019 | 12.57115 | 136° | 18km/h | 28816m | 6.1m/s | -44.4°C | 2.7% | 14.7hPa | 2.7V | 00:00:00 | 01:57:34 | 00:00:00 | |
| OE5MMP-10 | 2026-09-01 12:27:14 | 48.36022 | 12.57110 | 124° | 18km/h | 28810m | 5.1m/s | -44.4°C | 2.7% | 14.6hPa | 2.7V | 00:00:00 | 01:57:33 | 00:00:00 | |
| OE5REO-15 | 2026-09-01 12:27:13 | 48.36022 | 12.57110 | 124° | 18km/h | 28810m | 5.1m/s | -44.5°C | 0.6% | 14.7hPa | 2.7V | 00:00:00 | 00:00:00 | 00:00:00 | |
| BAUMI2-15 | 2026-09-01 12:27:10 | 48.36030 | 12.57083 | 107° | 18km/h | 28790m | 4.9m/s | -44.6°C | 2.7% | 14.7hPa | 2.7V | 00:00:00 | 01:57:29 | 00:00:00 | |
| DO3MHA-11 | 2026-09-01 12:27:08 | 48.36032 | 12.57071 | 98° | 15km/h | 28782m | 4.3m/s | -44.5°C | 2.6% | 14.7hPa | 2.7V | 00:00:00 | 01:57:27 | 00:00:00 | |
| DG1MFX-10 | 2026-09-01 12:27:06 | 48.36032 | 12.57065 | 98° | 18km/h | 28776m | 5.8m/s | -44.6°C | 0.6% | 14.8hPa | 2.6V | 00:00:00 | 00:00:00 | 00:00:00 | |
| OE5FHM-15 | 2026-09-01 12:27:05 | 48.36034 | 12.57051 | 101° | 18km/h | 28766m | 4.8m/s | -44.4°C | 2.6% | 14.8hPa | 2.6V | 00:00:00 | 01:57:24 | 00:00:00 | |
| OE5WHR-10 | 2026-09-01 12:27:04 | 48.36035 | 12.57044 | 106° | 18km/h | 28761m | 4.8m/s | -44.4°C | 2.6% | 14.8hPa | 2.6V | 00:00:00 | 00:00:00 | 08:30:00 | |
| BAUMI2-15 | 2026-09-01 12:27:00 | 48.36039 | 12.57030 | 98° | 20km/h | 28741m | 4.1m/s | -44.0°C | 2.6% | 14.8hPa | 2.6V | 00:00:00 | 01:57:19 | 00:00:00 | |
| OE5DXL-15 | 2026-09-01 12:26:58 | 48.36034 | 12.57001 | 68° | 16km/h | 28719m | 4.5m/s | -44.0°C | 2.5% | 14.9hPa | 2.6V | 00:00:00 | 00:00:00 | 00:00:00 | |
| BAUMI2-15 | 2026-09-01 12:26:55 | 48.36031 | 12.56991 | 66° | 24km/h | 28714m | 5.5m/s | -44.1°C | 2.5% | 14.9hPa | 2.6V | 00:00:00 | 01:57:14 | 00:00:00 | |
| OE5MMP-10 | 2026-09-01 12:26:54 | 48.36028 | 12.56982 | 64° | 18km/h | 28709m | 5.7m/s | -44.1°C | 2.5% | 14.9hPa | 2.6V | 00:00:00 | 01:57:13 | 00:00:00 | |
| OE5REO-15 | 2026-09-01 12:26:53 | 48.36028 | 12.56982 | 65° | 26km/h | 28709m | 5.7m/s | -44.2°C | 0.6% | 14.9hPa | 2.7V | 00:00:00 | 00:00:00 | 00:00:00 | |
| BAUMI2-15 | 2026-09-01 12:26:50 | 48.36021 | 12.56952 | 84° | 18km/h | 28689m | 6.1m/s | -44.1°C | 2.5% | 14.9hPa | 2.7V | 00:00:00 | 01:57:09 | 00:00:00 | |
| DO3MHA-11 | 2026-09-01 12:26:48 | 48.36021 | 12.56936 | 93° | 20km/h | 28678m | 4.6m/s | -44.1°C | 2.5% | 15.0hPa | 2.7V | 00:00:00 | 01:57:07 | 00:00:00 | |
| DG1MFX-10 | 2026-09-01 12:26:46 | 48.36021 | 12.56923 | 92° | 13km/h | 28668m | 6.1m/s | -44.4°C | 0.6% | 15.0hPa | 2.7V | 00:00:00 | 00:00:00 | 00:00:00 | |
| BAUMI2-15 | 2026-09-01 12:26:45 | 48.36021 | 12.56919 | 83° | 15km/h | 28662m | 4.6m/s | -44.3°C | 2.5% | 15.0hPa | 2.7V | 00:00:00 | 01:57:04 | 08:30:00 | |
| DO7DH-14 | 2026-09-01 12:26:44 | 48.36020 | 12.56915 | 78° | 15km/h | 28658m | 4.1m/s | -44.3°C | 2.5% | 15.0hPa | 2.6V | 00:00:00 | 01:57:03 | 00:00:00 | |
| OE5WHR-10 | 2026-09-01 12:26:43 | 48.36020 | 12.56910 | 77° | 18km/h | 28653m | 5.6m/s | -44.3°C | 2.5% | 15.0hPa | 2.6V | 00:00:00 | 00:00:00 | 00:00:00 | |
| BAUMI2-15 | 2026-09-01 12:26:40 | 48.36017 | 12.56890 | 82° | 18km/h | 28637m | 4.8m/s | -44.3°C | 2.5% | 15.1hPa | 2.6V | 00:00:00 | 01:56:59 | 00:00:00 | |
| OE5REO-15 | 2026-09-01 12:26:37 | 48.36016 | 12.56875 | 86° | 16km/h | 28626m | 5.7m/s | -44.5°C | 0.6% | 15.1hPa | 2.6V | 00:00:00 | 00:00:00 | 00:00:00 | |
| DO3MHA-11 | 2026-09-01 12:26:35 | 48.36017 | 12.56858 | 106° | 18km/h | 28610m | 6.6m/s | -44.6°C | 2.6% | 15.1hPa | 2.6V | 00:00:00 | 01:56:54 | 00:00:00 | |
| OE5MMP-10 | 2026-09-01 12:26:34 | 48.36019 | 12.56852 | 109° | 18km/h | 28604m | 5.5m/s | -44.6°C | 2.6% | 15.1hPa | 2.6V | 00:00:00 | 01:56:53 | 00:00:00 | |
| BAUMI2-15 | 2026-09-01 12:26:30 | 48.36021 | 12.56827 | 65° | 18km/h | 28582m | 5.7m/s | -44.7°C | 2.6% | 15.2hPa | 2.6V | 00:00:00 | 01:56:49 | 00:00:00 | |
| OE5DXL-15 | 2026-09-01 12:26:27 | 48.36013 | 12.56812 | 57° | 20km/h | 28567m | 6.3m/s | -44.7°C | 2.6% | 15.2hPa | 2.7V | 00:00:00 | 00:00:00 | 08:30:00 | |
| BAUMI2-15 | 2026-09-01 12:26:25 | 48.36008 | 12.56796 | 67° | 22km/h | 28556m | 5.1m/s | -44.9°C | 2.6% | 15.3hPa | 2.6V | 00:00:00 | 01:56:44 | 00:00:00 | |
| OE5MMP-10 | 2026-09-01 12:26:24 | 48.36005 | 12.56786 | 68° | 15km/h | 28551m | 5.0m/s | -45.0°C | 2.7% | 15.3hPa | 2.6V | 00:00:00 | 01:56:43 | 08:30:00 | |
| OE5REO-15 | 2026-09-01 12:26:23 | 48.36003 | 12.56778 | 66° | 22km/h | 28545m | 6.0m/s | -45.0°C | 0.6% | 15.3hPa | 2.7V | 00:00:00 | 00:00:00 | 00:00:00 | |
| OE5WHR-10 | 2026-09-01 12:26:22 | 48.36001 | 12.56771 | 65° | 18km/h | 28539m | 5.1m/s | -44.8°C | 2.6% | 15.3hPa | 2.7V | 00:00:00 | 01:56:41 | 00:00:00 | |
| BAUMI2-15 | 2026-09-01 12:26:20 | 48.35998 | 12.56762 | 81° | 11km/h | 28530m | 5.3m/s | -44.9°C | 2.6% | 15.3hPa | 2.7V | 00:00:00 | 01:56:39 | 00:00:00 | |
| BAUMI2-15 | 2026-09-01 12:26:09 | 48.35981 | 12.56698 | 74° | 22km/h | 28469m | 5.1m/s | -45.1°C | 2.7% | 15.4hPa | 2.7V | 00:00:00 | 01:56:28 | 00:00:00 | |
| OE5REO-15 | 2026-09-01 12:26:07 | 48.35979 | 12.56689 | 75° | 26km/h | 28463m | 6.3m/s | -45.0°C | 0.6% | 15.5hPa | 2.7V | 00:00:00 | 00:00:00 | 00:00:00 | |
| OE5FHM-15 | 2026-09-01 12:26:05 | 48.35976 | 12.56668 | 89° | 22km/h | 28447m | 5.2m/s | -45.0°C | 2.6% | 15.5hPa | 2.7V | 00:00:00 | 01:56:24 | 00:00:00 | |
| BAUMI2-15 | 2026-09-01 12:26:04 | 48.35977 | 12.56661 | 95° | 16km/h | 28441m | 6.6m/s | -45.0°C | 2.7% | 15.5hPa | 2.7V | 00:00:00 | 01:56:23 | 00:00:00 | |
| OE5WHR-10 | 2026-09-01 12:26:01 | 48.35977 | 12.56642 | 88° | 20km/h | 28424m | 5.5m/s | -45.1°C | 2.7% | 15.6hPa | 2.7V | 00:00:00 | 00:00:00 | 00:00:00 | |
| BAUMI2-15 | 2026-09-01 12:25:57 | 48.35971 | 12.56619 | 64° | 20km/h | 28402m | 6.3m/s | -45.0°C | 2.7% | 15.6hPa | 2.7V | 00:00:00 | 01:56:16 | 08:30:00 | |
| OE5MMP-10 | 2026-09-01 12:25:54 | 48.35964 | 12.56591 | 70° | 20km/h | 28386m | 4.4m/s | -45.0°C | 2.7% | 15.7hPa | 2.6V | 00:00:00 | 01:56:13 | 00:00:00 | |
| OE5REO-15 | 2026-09-01 12:25:51 | 48.35959 | 12.56573 | 66° | 22km/h | 28374m | 6.2m/s | -45.1°C | 0.6% | 15.7hPa | 2.7V | 00:00:00 | 00:00:00 | 00:00:00 | |
| OE5MMP-10 | 2026-09-01 12:25:44 | 48.35950 | 12.56519 | 69° | 26km/h | 28329m | 6.2m/s | -45.3°C | 2.7% | 15.8hPa | 2.7V | 00:00:00 | 01:56:03 | 00:00:00 | |
| OE5WHR-10 | 2026-09-01 12:25:40 | 48.35937 | 12.56493 | 54° | 24km/h | 28306m | 6.3m/s | -45.3°C | 2.7% | 15.8hPa | 2.7V | 00:00:00 | 00:00:00 | 00:00:00 | |
| OE5HKT-10 | 2026-09-01 12:25:38 | 48.35928 | 12.56473 | 58° | 22km/h | 28295m | 4.5m/s | -45.4°C | 2.7% | 15.9hPa | 2.7V | 00:00:00 | 00:00:00 | 00:00:00 | |
| OE5REO-15 | 2026-09-01 12:25:36 | 48.35924 | 12.56464 | 59° | 27km/h | 28290m | 6.3m/s | -45.5°C | 0.6% | 16.0hPa | 2.6V | 00:00:00 | 00:00:00 | 00:00:00 | |
| OE5FHM-15 | 2026-09-01 12:25:35 | 48.35918 | 12.56448 | 71° | 20km/h | 28279m | 5.0m/s | -45.6°C | 2.7% | 15.9hPa | 2.6V | 00:00:00 | 01:55:54 | 00:00:00 | |
| OE5MMP-10 | 2026-09-01 12:25:34 | 48.35917 | 12.56440 | 81° | 20km/h | 28274m | 5.4m/s | -45.7°C | 2.7% | 15.9hPa | 2.6V | 00:00:00 | 01:55:53 | 00:00:00 | |
| DO3MHA-11 | 2026-09-01 12:25:29 | 48.35917 | 12.56401 | 86° | 24km/h | 28244m | 6.4m/s | -45.6°C | 2.7% | 16.0hPa | 2.6V | 00:00:00 | 01:55:48 | 00:00:00 | |
| OE5MMP-10 | 2026-09-01 12:25:24 | 48.35903 | 12.56367 | 49° | 22km/h | 28215m | 5.0m/s | -45.8°C | 2.8% | 16.1hPa | 2.6V | 00:00:00 | 01:55:43 | 00:00:00 | |
| OE5REO-15 | 2026-09-01 12:25:20 | 48.35888 | 12.56345 | 36° | 24km/h | 28198m | 5.9m/s | -45.7°C | 0.6% | 16.2hPa | 2.6V | 00:00:00 | 00:00:00 | 00:00:00 | |
| OE5WHR-10 | 2026-09-01 12:25:19 | 48.35880 | 12.56336 | 49° | 16km/h | 28187m | 5.3m/s | -45.8°C | 2.8% | 16.1hPa | 2.6V | 00:00:00 | 01:55:38 | 00:00:00 | |
| DO3MHA-11 | 2026-09-01 12:25:17 | 48.35876 | 12.56325 | 86° | 16km/h | 28175m | 6.0m/s | -45.7°C | 2.8% | 16.2hPa | 2.6V | 00:00:00 | 01:55:36 | 00:00:00 | |
| OE8JPQ-2 | 2026-09-01 12:25:16 | 48.35876 | 12.56318 | 101° | 16km/h | 28169m | 5.1m/s | -45.6°C | 2.7% | 16.2hPa | 2.6V | 00:00:00 | 00:00:00 | 00:00:00 | |
| OE5MMP-10 | 2026-09-01 12:25:14 | 48.35879 | 12.56308 | 123° | 16km/h | 28157m | 6.6m/s | -45.7°C | 2.7% | 16.2hPa | 2.7V | 00:00:00 | 01:55:33 | 00:00:00 | |
| OE5DXL-15 | 2026-09-01 12:25:12 | 48.35879 | 12.56293 | 52° | 18km/h | 28135m | 6.8m/s | -45.8°C | 2.7% | 16.3hPa | 2.7V | 00:00:00 | 00:00:00 | 00:00:00 | |
| DO7DH-14 | 2026-09-01 12:25:10 | 48.35879 | 12.56293 | 52° | 18km/h | 28135m | 6.8m/s | -45.8°C | 2.7% | 16.3hPa | 2.7V | 00:00:00 | 01:55:29 | 00:00:00 | |
| DO3MHA-11 | 2026-09-01 12:25:07 | 48.35867 | 12.56275 | 42° | 18km/h | 28117m | 6.0m/s | -46.0°C | 2.7% | 16.3hPa | 2.7V | 00:00:00 | 01:55:26 | 08:30:00 | |
| OE5FHM-15 | 2026-09-01 12:25:05 | 48.35860 | 12.56265 | 50° | 18km/h | 28106m | 5.3m/s | -45.9°C | 2.8% | 16.4hPa | 2.6V | 00:00:00 | 01:55:24 | 00:00:00 | |
| OE5MMP-10 | 2026-09-01 12:25:04 | 48.35858 | 12.56261 | 71° | 16km/h | 28100m | 4.9m/s | -45.8°C | 2.8% | 16.4hPa | 2.6V | 00:00:00 | 01:55:23 | 00:00:00 | |
| DL6DJ-15 | 2026-09-01 12:25:02 | 48.35860 | 12.56235 | 109° | 18km/h | 28076m | 5.4m/s | 0°C | -1.0% | -1.0hPa | 2.6V | 00:00:00 | 00:00:00 | 00:00:00 | |
| OE5WHR-10 | 2026-09-01 12:24:58 | 48.35862 | 12.56223 | 109° | 18km/h | 28064m | 5.6m/s | -45.9°C | 2.7% | 16.5hPa | 2.6V | 00:00:00 | 00:00:00 | 00:00:00 | |
| DO3MHA-11 | 2026-09-01 12:24:57 | 48.35863 | 12.56219 | 83° | 20km/h | 28059m | 4.3m/s | -45.9°C | 2.7% | 16.5hPa | 2.7V | 00:00:00 | 01:55:16 | 00:00:00 | |
| OE8JPQ-2 | 2026-09-01 12:24:56 | 48.35862 | 12.56215 | 64° | 18km/h | 28054m | 5.1m/s | -45.9°C | 2.7% | 16.5hPa | 2.7V | 00:00:00 | 00:00:00 | 00:00:00 | |
| OE5HKT-10 | 2026-09-01 12:24:54 | 48.35857 | 12.56203 | 56° | 18km/h | 28042m | 6.4m/s | -46.1°C | 2.7% | 16.5hPa | 2.7V | 00:00:00 | 01:55:13 | 00:00:00 | |
| OE5REO-15 | 2026-09-01 12:24:49 | 48.35846 | 12.56165 | 88° | 18km/h | 28013m | 4.8m/s | -46.2°C | 0.7% | 16.7hPa | 2.7V | 00:00:00 | 00:00:00 | 00:00:00 | |
| DO3MHA-11 | 2026-09-01 12:24:47 | 48.35846 | 12.56150 | 91° | 16km/h | 28001m | 6.2m/s | -46.1°C | 2.8% | 16.6hPa | 2.7V | 00:00:00 | 01:55:06 | 00:00:00 | |
| OE5MMP-10 | 2026-09-01 12:24:44 | 48.35844 | 12.56129 | 73° | 16km/h | 27986m | 5.5m/s | -46.2°C | 2.8% | 16.7hPa | 2.7V | 00:00:00 | 01:55:03 | 00:00:00 | |
| DO3MHA-11 | 2026-09-01 12:24:37 | 48.35830 | 12.56097 | 58° | 16km/h | 27946m | 5.3m/s | -46.6°C | 2.9% | 16.8hPa | 2.7V | 00:00:00 | 01:54:56 | 00:00:00 | |
| OE8JPQ-2 | 2026-09-01 12:24:35 | 48.35824 | 12.56084 | 50° | 15km/h | 27933m | 5.7m/s | -46.3°C | 2.8% | 16.8hPa | 2.6V | 00:00:00 | 01:54:54 | 00:00:00 | |
| OE5MMP-10 | 2026-09-01 12:24:34 | 48.35821 | 12.56079 | 50° | 13km/h | 27928m | 5.0m/s | -46.3°C | 2.8% | 16.8hPa | 2.6V | 00:00:00 | 01:54:53 | 00:00:00 | |
| OE5REO-15 | 2026-09-01 12:24:33 | 48.35818 | 12.56074 | 55° | 18km/h | 27922m | 6.2m/s | -46.4°C | 0.7% | 16.9hPa | 2.6V | 00:00:00 | 00:00:00 | 00:00:00 | |
| DO3MHA-11 | 2026-09-01 12:24:27 | 48.35806 | 12.56056 | 353° | 15km/h | 27887m | 4.5m/s | -46.3°C | 2.8% | 16.9hPa | 2.6V | 00:00:00 | 01:54:46 | 00:00:00 | |
| OE5MMP-10 | 2026-09-01 12:24:24 | 48.35801 | 12.56051 | 50° | 16km/h | 27870m | 5.6m/s | -46.3°C | 2.8% | 17.0hPa | 2.6V | 00:00:00 | 01:54:43 | 00:00:00 | |
| DO3MHA-11 | 2026-09-01 12:24:17 | 48.35777 | 12.56017 | 47° | 11km/h | 27829m | 4.8m/s | -46.5°C | 2.8% | 17.1hPa | 2.6V | 00:00:00 | 01:54:36 | 00:00:00 | |
| OE5WHR-10 | 2026-09-01 12:24:16 | 48.35774 | 12.56013 | 40° | 13km/h | 27824m | 4.7m/s | -46.6°C | 2.8% | 17.1hPa | 2.6V | 00:00:00 | 01:54:35 | 00:00:00 | |
| OE5MMP-10 | 2026-09-01 12:24:14 | 48.35768 | 12.56010 | 349° | 15km/h | 27812m | 6.4m/s | -46.5°C | 2.8% | 17.1hPa | 2.6V | 00:00:00 | 01:54:33 | 00:00:00 | |
| OE5HKT-10 | 2026-09-01 12:24:12 | 48.35762 | 12.56014 | 340° | 13km/h | 27801m | 4.5m/s | -46.6°C | 2.8% | 17.1hPa | 2.6V | 00:00:00 | 00:00:00 | 00:00:00 | |
| OE5FHM-15 | 2026-09-01 12:24:05 | 48.35739 | 12.55994 | 31° | 9km/h | 27763m | 5.9m/s | -46.7°C | 2.8% | 17.2hPa | 2.6V | 00:00:00 | 01:54:24 | 00:00:00 | |
| OE5MMP-10 | 2026-09-01 12:24:04 | 48.35736 | 12.55992 | 17° | 11km/h | 27758m | 5.3m/s | -46.7°C | 2.8% | 17.3hPa | 2.6V | 00:00:00 | 01:54:23 | 00:00:00 | |
| DL6DJ-15 | 2026-09-01 12:24:00 | 48.35719 | 12.55987 | 7° | 11km/h | 27729m | 5.2m/s | 0°C | -1.0% | -1.0hPa | 2.6V | 00:00:00 | 00:00:00 | 00:00:00 | |
| OE5DXL-15 | 2026-09-01 12:23:59 | 48.35717 | 12.55986 | 354° | 5km/h | 27724m | 6.6m/s | -46.8°C | 2.9% | 17.3hPa | 2.6V | 00:00:00 | 00:00:00 | 00:00:00 | |
| OE5WHR-10 | 2026-09-01 12:23:55 | 48.35710 | 12.55989 | 6° | 7km/h | 27706m | 6.2m/s | -46.9°C | 2.9% | 17.4hPa | 2.7V | 00:00:00 | 00:00:00 | 08:30:00 | |
| OE5MMP-10 | 2026-09-01 12:23:54 | 48.35708 | 12.55988 | 29° | 9km/h | 27700m | 6.1m/s | -46.8°C | 2.9% | 17.4hPa | 2.6V | 00:00:00 | 01:54:13 | 00:00:00 | |
| OE8JPQ-2 | 2026-09-01 12:23:53 | 48.35706 | 12.55985 | 37° | 7km/h | 27695m | 4.9m/s | -46.7°C | 2.8% | 17.5hPa | 2.7V | 00:00:00 | 00:00:00 | 00:00:00 | |
| DO7DH-14 | 2026-09-01 12:23:52 | 48.35703 | 12.55983 | 34° | 5km/h | 27690m | 4.8m/s | -46.7°C | 2.8% | 17.5hPa | 2.7V | 00:00:00 | 01:54:11 | 00:00:00 | |
| OE5HKT-10 | 2026-09-01 12:23:51 | 48.35701 | 12.55981 | 24° | 7km/h | 27684m | 6.4m/s | -46.9°C | 2.9% | 17.5hPa | 2.7V | 00:00:00 | 01:54:10 | 00:00:00 | |
| BAUMI2-15 | 2026-09-01 12:23:49 | 48.35697 | 12.55980 | 351° | 5km/h | 27672m | 5.4m/s | -46.9°C | 2.9% | 17.5hPa | 2.7V | 00:00:00 | 01:54:08 | 00:00:00 | |
| OE5REO-15 | 2026-09-01 12:23:47 | 48.35693 | 12.55981 | 6° | 7km/h | 27661m | 6.6m/s | -46.8°C | 0.7% | 17.6hPa | 2.7V | 00:00:00 | 00:00:00 | 00:00:00 | |
| OE5MMP-10 | 2026-09-01 12:23:44 | 48.35690 | 12.55979 | 278° | 5km/h | 27645m | 5.7m/s | -47.0°C | 2.9% | 17.6hPa | 2.7V | 00:00:00 | 01:54:03 | 00:00:00 | |
| BAUMI2-15 | 2026-09-01 12:23:39 | 48.35696 | 12.55989 | 184° | 5km/h | 27617m | 6.6m/s | -47.1°C | 2.9% | 17.7hPa | 2.7V | 00:00:00 | 01:53:58 | 00:00:00 | |
| OE5FHM-15 | 2026-09-01 12:23:35 | 48.35695 | 12.55984 | 7° | 9km/h | 27594m | 6.0m/s | -47.3°C | 3.0% | 17.7hPa | 2.6V | 00:00:00 | 01:53:54 | 00:00:00 | |
| OE5WHR-10 | 2026-09-01 12:23:34 | 48.35693 | 12.55984 | 358° | 7km/h | 27588m | 4.8m/s | -47.3°C | 3.0% | 17.7hPa | 2.6V | 00:00:00 | 00:00:00 | 00:00:00 | |
| OE8JPQ-2 | 2026-09-01 12:23:33 | 48.35688 | 12.55984 | 11° | 7km/h | 27576m | 5.9m/s | -47.1°C | 3.0% | 17.8hPa | 2.6V | 00:00:00 | 01:53:51 | 00:00:00 | |
| OE5REO-15 | 2026-09-01 12:23:31 | 48.35687 | 12.55984 | 1° | 5km/h | 27571m | 4.7m/s | -47.2°C | 0.7% | 17.8hPa | 2.6V | 00:00:00 | 00:00:00 | 00:00:00 | |
| OE5HKT-10 | 2026-09-01 12:23:30 | 48.35686 | 12.55984 | 290° | 7km/h | 27566m | 5.2m/s | -47.2°C | 2.9% | 17.8hPa | 2.6V | 00:00:00 | 00:00:00 | 00:00:00 | |
| BAUMI2-15 | 2026-09-01 12:23:29 | 48.35686 | 12.55986 | 253° | 11km/h | 27560m | 6.7m/s | -47.2°C | 2.9% | 17.8hPa | 2.6V | 00:00:00 | 01:53:48 | 00:00:00 | |
| BAUMI2-15 | 2026-09-01 12:23:24 | 48.35696 | 12.55997 | 166° | 4km/h | 27532m | 4.4m/s | -47.4°C | 3.0% | 17.9hPa | 2.6V | 00:00:00 | 01:53:43 | 00:00:00 | |
| DO7DH-14 | 2026-09-01 12:23:20 | 48.35693 | 12.55997 | 354° | 13km/h | 27512m | 4.4m/s | -47.2°C | 3.0% | 18.0hPa | 2.7V | 00:00:00 | 01:53:39 | 00:00:00 | |
| BAUMI2-15 | 2026-09-01 12:23:19 | 48.35692 | 12.55997 | 9° | 9km/h | 27507m | 4.7m/s | -47.2°C | 3.0% | 18.0hPa | 2.6V | 00:00:00 | 01:53:38 | 00:00:00 | |
| OE5MMP-10 | 2026-09-01 12:23:15 | 48.35684 | 12.55985 | 47° | 9km/h | 27481m | 6.2m/s | -47.4°C | 2.9% | 18.0hPa | 2.6V | 00:00:00 | 01:53:33 | 00:00:00 | |
| OE5WHR-10 | 2026-09-01 12:23:13 | 48.35683 | 12.55984 | 54° | 9km/h | 27476m | 4.9m/s | -47.5°C | 2.9% | 18.0hPa | 2.6V | 00:00:00 | 01:53:32 | 00:00:00 | |
| OE8JPQ-2 | 2026-09-01 12:23:10 | 48.35686 | 12.55979 | 142° | 9km/h | 27459m | 6.2m/s | -47.2°C | 3.0% | 18.1hPa | 2.6V | 00:00:00 | 00:00:00 | 08:30:00 | |
| OE5HKT-10 | 2026-09-01 12:23:09 | 48.35689 | 12.55976 | 140° | 11km/h | 27453m | 5.7m/s | -47.1°C | 3.0% | 18.1hPa | 2.6V | 00:00:00 | 00:00:00 | 00:00:00 | |
| OE5FHM-15 | 2026-09-01 12:23:05 | 48.35696 | 12.55962 | 97° | 9km/h | 27432m | 4.0m/s | -47.0°C | 2.9% | 18.2hPa | 2.6V | 00:00:00 | 01:53:24 | 00:00:00 | |
| BAUMI2-15 | 2026-09-01 12:23:04 | 48.35696 | 12.55958 | 86° | 11km/h | 27427m | 5.8m/s | -47.0°C | 2.9% | 18.2hPa | 2.6V | 00:00:00 | 01:53:23 | 00:00:00 | |
| DL6DJ-15 | 2026-09-01 12:22:58 | 48.35687 | 12.55940 | 86° | 9km/h | 27373m | 5.4m/s | 0°C | -1.0% | -1.0hPa | 2.6V | 00:00:00 | 00:00:00 | 00:00:00 | |
| OE5MMP-10 | 2026-09-01 12:22:54 | 48.35686 | 12.55940 | 87° | 13km/h | 27373m | 5.3m/s | -47.1°C | 2.8% | 18.3hPa | 2.6V | 00:00:00 | 01:53:13 | 00:00:00 | |
| OE5WHR-10 | 2026-09-01 12:22:52 | 48.35686 | 12.55930 | 91° | 11km/h | 27363m | 5.9m/s | -47.2°C | 2.8% | 18.4hPa | 2.7V | 00:00:00 | 00:00:00 | 00:00:00 | |
| OE8JPQ-2 | 2026-09-01 12:22:50 | 48.35686 | 12.55920 | 81° | 15km/h | 27352m | 5.1m/s | -47.3°C | 2.9% | 18.4hPa | 2.7V | 00:00:00 | 00:00:00 | 00:00:00 | |
| BAUMI2-15 | 2026-09-01 12:22:49 | 48.35685 | 12.55915 | 80° | 11km/h | 27347m | 4.8m/s | -47.2°C | 2.9% | 18.4hPa | 2.7V | 00:00:00 | 01:53:08 | 00:00:00 | |
| OE5HKT-10 | 2026-09-01 12:22:48 | 48.35685 | 12.55909 | 81° | 11km/h | 27341m | 6.3m/s | -47.1°C | 2.9% | 18.4hPa | 2.7V | 00:00:00 | 01:53:07 | 00:00:00 | |
| OE5MMP-10 | 2026-09-01 12:22:44 | 48.35682 | 12.55897 | 338° | 7km/h | 27319m | 6.4m/s | -47.1°C | 2.9% | 18.5hPa | 2.7V | 00:00:00 | 01:53:03 | 00:00:00 | |
| OE5REO-15 | 2026-09-01 12:22:43 | 48.35682 | 12.55897 | 339° | 5km/h | 27319m | 6.5m/s | -47.2°C | 0.7% | 18.5hPa | 2.7V | 00:00:00 | 00:00:00 | 00:00:00 | |
| OE5DXL-15 | 2026-09-01 12:22:41 | 48.35676 | 12.55902 | 50° | 15km/h | 27293m | 4.6m/s | -47.0°C | 2.9% | 18.6hPa | 2.7V | 00:00:00 | 00:00:00 | 00:00:00 | |
| OE5FHM-15 | 2026-09-01 12:22:35 | 48.35669 | 12.55892 | 46° | 16km/h | 27271m | 4.4m/s | -47.1°C | 2.8% | 18.6hPa | 2.7V | 00:00:00 | 01:52:54 | 00:00:00 | |
| OE5MMP-10 | 2026-09-01 12:22:34 | 48.35667 | 12.55887 | 58° | 15km/h | 27266m | 5.8m/s | -47.2°C | 2.8% | 18.7hPa | 2.7V | 00:00:00 | 01:52:53 | 00:00:00 | |
| DO3MHA-11 | 2026-09-01 12:22:33 | 48.35663 | 12.55876 | 74° | 16km/h | 27255m | 4.8m/s | -47.3°C | 2.8% | 18.7hPa | 2.7V | 00:00:00 | 01:52:51 | 00:00:00 | |
| OE5WHR-10 | 2026-09-01 12:22:32 | 48.35662 | 12.55871 | 67° | 15km/h | 27251m | 4.2m/s | -47.4°C | 2.9% | 18.7hPa | 2.7V | 00:00:00 | 00:00:00 | 00:00:00 | |
| BAUMI2-15 | 2026-09-01 12:22:30 | 48.35660 | 12.55867 | 49° | 13km/h | 27245m | 6.3m/s | -47.4°C | 2.9% | 18.7hPa | 2.7V | 00:00:00 | 01:52:49 | 00:00:00 | |
| OE5REO-15 | 2026-09-01 12:22:28 | 48.35658 | 12.55864 | 22° | 11km/h | 27239m | 5.7m/s | -47.5°C | 0.7% | 18.8hPa | 2.6V | 00:00:00 | 00:00:00 | 00:00:00 | |
| OE5HKT-10 | 2026-09-01 12:22:27 | 48.35652 | 12.55862 | 15° | 16km/h | 27229m | 5.6m/s | -47.5°C | 3.0% | 18.7hPa | 2.6V | 00:00:00 | 00:00:00 | 00:00:00 | |
| BAUMI2-15 | 2026-09-01 12:22:25 | 48.35646 | 12.55858 | 35° | 16km/h | 27217m | 5.1m/s | -47.6°C | 3.0% | 18.8hPa | 2.7V | 00:00:00 | 01:52:44 | 00:00:00 | |
| OE5MMP-10 | 2026-09-01 12:22:24 | 48.35643 | 12.55854 | 40° | 18km/h | 27212m | 5.1m/s | -47.6°C | 3.0% | 18.8hPa | 2.7V | 00:00:00 | 01:52:43 | 00:00:00 | |
| BAUMI2-15 | 2026-09-01 12:22:19 | 48.35629 | 12.55831 | 71° | 20km/h | 27186m | 6.3m/s | -48.0°C | 3.1% | 18.9hPa | 2.7V | 00:00:00 | 01:52:38 | 00:00:00 | |
| OE8JPQ-2 | 2026-09-01 12:22:18 | 48.35627 | 12.55823 | 77° | 18km/h | 27180m | 5.7m/s | -47.9°C | 3.1% | 18.9hPa | 2.7V | 00:00:00 | 01:52:37 | 00:00:00 | |
| OE5MMP-10 | 2026-09-01 12:22:14 | 48.35621 | 12.55795 | 48° | 15km/h | 27160m | 5.0m/s | -48.0°C | 3.0% | 19.0hPa | 2.7V | 00:00:00 | 01:52:33 | 00:00:00 | |
| OE5REO-15 | 2026-09-01 12:22:13 | 48.35619 | 12.55792 | 36° | 13km/h | 27155m | 4.7m/s | -48.0°C | 0.7% | 19.0hPa | 2.7V | 00:00:00 | 00:00:00 | 00:00:00 | |
| OE5WHR-10 | 2026-09-01 12:22:11 | 48.35611 | 12.55785 | 28° | 18km/h | 27138m | 4.8m/s | -47.7°C | 3.0% | 19.0hPa | 2.7V | 00:00:00 | 01:52:29 | 00:00:00 | |
| BAUMI2-15 | 2026-09-01 12:22:09 | 48.35608 | 12.55783 | 20° | 16km/h | 27133m | 5.6m/s | -47.7°C | 3.0% | 19.0hPa | 2.7V | 00:00:00 | 01:52:28 | 00:00:00 | |
| DO3MHA-11 | 2026-09-01 12:22:08 | 48.35604 | 12.55781 | 16° | 18km/h | 27128m | 5.4m/s | -47.8°C | 3.1% | 19.0hPa | 2.7V | 00:00:00 | 01:52:27 | 00:00:00 | |
| OE5DXL-15 | 2026-09-01 12:22:07 | 48.35596 | 12.55776 | 36° | 20km/h | 27118m | 4.3m/s | -47.7°C | 3.0% | 19.1hPa | 2.7V | 00:00:00 | 00:00:00 | 00:00:00 | |
| OE5HKT-10 | 2026-09-01 12:22:06 | 48.35596 | 12.55776 | 36° | 18km/h | 27118m | 4.3m/s | -47.7°C | 3.0% | 19.1hPa | 2.7V | 00:00:00 | 00:00:00 | 00:00:00 | |
| BAUMI2-15 | 2026-09-01 12:22:04 | 48.35590 | 12.55765 | 64° | 20km/h | 27107m | 5.3m/s | -47.7°C | 3.0% | 19.1hPa | 2.7V | 00:00:00 | 01:52:23 | 00:00:00 | |
| DL6DJ-15 | 2026-09-01 12:21:56 | 48.35542 | 12.55725 | 21° | 15km/h | 27043m | 4.7m/s | -47.9°C | 0.7% | 19.4hPa | 2.7V | 00:00:00 | 00:00:00 | 00:00:00 | |
| OE5MMP-10 | 2026-09-01 12:21:54 | 48.35550 | 12.55729 | 19° | 18km/h | 27054m | 5.6m/s | -47.8°C | 3.0% | 19.3hPa | 2.7V | 00:00:00 | 01:52:13 | 08:30:00 | |
| OE5WHR-10 | 2026-09-01 12:21:49 | 48.35533 | 12.55713 | 59° | 20km/h | 27026m | 5.5m/s | -48.1°C | 3.0% | 19.4hPa | 2.7V | 00:00:00 | 00:00:00 | 00:00:00 | |
| DO3MHA-11 | 2026-09-01 12:21:48 | 48.35530 | 12.55707 | 57° | 22km/h | 27021m | 4.8m/s | -48.2°C | 3.1% | 19.4hPa | 2.6V | 00:00:00 | 01:52:07 | 00:00:00 | |
| OE5HKT-10 | 2026-09-01 12:21:45 | 48.35518 | 12.55691 | 25° | 20km/h | 27005m | 4.5m/s | -48.4°C | 3.1% | 19.4hPa | 2.6V | 00:00:00 | 01:52:04 | 00:00:00 | |
| OE5MMP-10 | 2026-09-01 12:21:44 | 48.35512 | 12.55688 | 23° | 20km/h | 27000m | 5.1m/s | -48.4°C | 3.1% | 19.4hPa | 2.6V | 00:00:00 | 01:52:03 | 00:00:00 | |
| OE5REO-15 | 2026-09-01 12:21:42 | 48.35501 | 12.55681 | 24° | 22km/h | 26988m | 5.4m/s | -48.3°C | 0.8% | 19.5hPa | 2.6V | 00:00:00 | 00:00:00 | 00:00:00 | |
| DO3MHA-11 | 2026-09-01 12:21:38 | 48.35480 | 12.55673 | 6° | 18km/h | 26966m | 4.8m/s | -48.1°C | 3.1% | 19.5hPa | 2.6V | 00:00:00 | 01:51:57 | 00:00:00 | |
| OE5FHM-15 | 2026-09-01 12:21:35 | 48.35470 | 12.55667 | 47° | 16km/h | 26950m | 5.8m/s | -48.0°C | 3.0% | 19.6hPa | 2.6V | 00:00:00 | 01:51:54 | 00:00:00 | |
| OE5MMP-10 | 2026-09-01 12:21:34 | 48.35467 | 12.55663 | 57° | 20km/h | 26944m | 4.7m/s | -48.0°C | 3.0% | 19.6hPa | 2.6V | 00:00:00 | 01:51:53 | 00:00:00 | |
| OE5REO-15 | 2026-09-01 12:21:26 | 48.35429 | 12.55636 | 359° | 18km/h | 26901m | 4.8m/s | -48.2°C | 0.7% | 19.8hPa | 2.6V | 00:00:00 | 00:00:00 | 00:00:00 | |
| DL6DJ-15 | 2026-09-01 12:21:25 | 48.35420 | 12.55639 | 339° | 18km/h | 26891m | 6.3m/s | -48.3°C | 0.7% | 19.8hPa | 2.6V | 00:00:00 | 00:00:00 | 00:00:00 | |
| OE5MMP-10 | 2026-09-01 12:21:24 | 48.35420 | 12.55639 | 340° | 15km/h | 26891m | 6.3m/s | -48.3°C | 3.0% | 19.8hPa | 2.6V | 00:00:00 | 01:51:43 | 00:00:00 | |
| OE5MMP-10 | 2026-09-01 12:21:14 | 48.35385 | 12.55645 | 1° | 15km/h | 26836m | 4.1m/s | -48.3°C | 3.0% | 20.0hPa | 2.6V | 00:00:00 | 01:51:33 | 00:00:00 | |
| OE5REO-15 | 2026-09-01 12:21:09 | 48.35369 | 12.55642 | 12° | 13km/h | 26814m | 5.2m/s | -48.7°C | 0.8% | 20.1hPa | 2.6V | 00:00:00 | 00:00:00 | 00:00:00 | |
| OE8JPQ-2 | 2026-09-01 12:21:08 | 48.35362 | 12.55642 | 352° | 16km/h | 26803m | 6.7m/s | -48.6°C | 3.1% | 20.1hPa | 2.6V | 00:00:00 | 00:00:00 | 00:00:00 | |
| OE5WHR-10 | 2026-09-01 12:21:07 | 48.35358 | 12.55643 | 346° | 13km/h | 26796m | 5.3m/s | -48.6°C | 3.1% | 20.1hPa | 2.7V | 00:00:00 | 01:51:26 | 00:00:00 | |
| OE5FHM-15 | 2026-09-01 12:21:05 | 48.35352 | 12.55645 | 357° | 16km/h | 26786m | 6.1m/s | -48.7°C | 3.1% | 20.1hPa | 2.7V | 00:00:00 | 01:51:24 | 00:00:00 | |
| OE5HKT-10 | 2026-09-01 12:21:04 | 48.35347 | 12.55643 | 41° | 15km/h | 26774m | 5.4m/s | -48.7°C | 3.1% | 20.1hPa | 2.7V | 00:00:00 | 00:00:00 | 00:00:00 | |
| DL6DJ-15 | 2026-09-01 12:20:54 | 48.35314 | 12.55640 | 345° | 18km/h | 26716m | 5.5m/s | -49.2°C | 0.8% | 20.4hPa | 2.7V | 00:00:00 | 00:00:00 | 00:00:00 | |
| OE5WHR-10 | 2026-09-01 12:20:46 | 48.35290 | 12.55645 | 346° | 18km/h | 26677m | 5.5m/s | -49.0°C | 3.2% | 20.4hPa | 2.7V | 00:00:00 | 00:00:00 | 08:30:00 | |
| OE5MMP-10 | 2026-09-01 12:20:44 | 48.35281 | 12.55647 | 352° | 20km/h | 26666m | 6.2m/s | -49.2°C | 3.1% | 20.5hPa | 2.7V | 00:00:00 | 01:51:03 | 00:00:00 | |
| OE5HKT-10 | 2026-09-01 12:20:42 | 48.35271 | 12.55649 | 355° | 20km/h | 26654m | 5.2m/s | -49.3°C | 3.2% | 20.5hPa | 2.7V | 00:00:00 | 01:51:01 | 00:00:00 | |
| OE8JPQ-2 | 2026-09-01 12:20:39 | 48.35255 | 12.55654 | 341° | 18km/h | 26636m | 5.6m/s | -49.0°C | 3.2% | 20.6hPa | 2.7V | 00:00:00 | 00:00:00 | 00:00:00 | |
| OE5REO-15 | 2026-09-01 12:20:38 | 48.35255 | 12.55654 | 341° | 26km/h | 26636m | 5.7m/s | -49.1°C | 0.8% | 20.6hPa | 2.7V | 00:00:00 | 00:00:00 | 00:00:00 | |
| OE5FHM-15 | 2026-09-01 12:20:36 | 48.35236 | 12.55665 | 350° | 16km/h | 26615m | 5.8m/s | -49.2°C | 3.3% | 20.6hPa | 2.7V | 00:00:00 | 01:50:54 | 00:00:00 | |
| OE5MMP-10 | 2026-09-01 12:20:34 | 48.35233 | 12.55666 | 360° | 18km/h | 26610m | 5.2m/s | -49.2°C | 3.3% | 20.7hPa | 2.7V | 00:00:00 | 01:50:53 | 00:00:00 | |
| OE5DXL-15 | 2026-09-01 12:20:26 | 48.35199 | 12.55698 | 313° | 18km/h | 26558m | 6.4m/s | -49.1°C | 3.1% | 20.8hPa | 2.7V | 00:00:00 | 00:00:00 | 00:00:00 | |
| OE5WHR-10 | 2026-09-01 12:20:25 | 48.35199 | 12.55698 | 313° | 16km/h | 26558m | 6.4m/s | -49.1°C | 3.1% | 20.8hPa | 2.7V | 00:00:00 | 00:00:00 | 00:00:00 | |
| OE5MMP-10 | 2026-09-01 12:20:24 | 48.35195 | 12.55705 | 312° | 16km/h | 26553m | 4.6m/s | -49.0°C | 3.1% | 20.9hPa | 2.7V | 00:00:00 | 01:50:43 | 08:30:00 | |
| OE5REO-15 | 2026-09-01 12:20:23 | 48.35191 | 12.55712 | 312° | 22km/h | 26548m | 5.1m/s | -49.1°C | 0.8% | 20.9hPa | 2.6V | 00:00:00 | 00:00:00 | 00:00:00 | |
| DL6DJ-15 | 2026-09-01 12:20:22 | 48.35186 | 12.55722 | 302° | 13km/h | 26536m | 5.5m/s | -49.0°C | 0.8% | 21.0hPa | 2.6V | 00:00:00 | 00:00:00 | 00:00:00 | |
| OE5HKT-10 | 2026-09-01 12:20:21 | 48.35186 | 12.55722 | 303° | 16km/h | 26536m | 5.5m/s | -49.0°C | 3.2% | 20.9hPa | 2.6V | 00:00:00 | 00:00:00 | 00:00:00 | |
| OE8JPQ-2 | 2026-09-01 12:20:17 | 48.35175 | 12.55743 | 312° | 22km/h | 26508m | 4.8m/s | -49.0°C | 3.2% | 21.0hPa | 2.7V | 00:00:00 | 01:50:35 | 00:00:00 | |
| OE5MMP-10 | 2026-09-01 12:20:14 | 48.35169 | 12.55753 | 310° | 16km/h | 26497m | 6.0m/s | -49.1°C | 3.2% | 21.0hPa | 2.7V | 00:00:00 | 01:50:33 | 00:00:00 | |
| OE5REO-15 | 2026-09-01 12:20:07 | 48.35146 | 12.55788 | 323° | 13km/h | 26459m | 6.3m/s | -49.4°C | 0.8% | 21.2hPa | 2.7V | 00:00:00 | 00:00:00 | 00:00:00 | |
| OE5FHM-15 | 2026-09-01 12:20:05 | 48.35142 | 12.55793 | 324° | 18km/h | 26447m | 4.7m/s | -49.4°C | 3.2% | 21.2hPa | 2.7V | 00:00:00 | 01:50:24 | 00:00:00 | |
| OE5MMP-10 | 2026-09-01 12:20:04 | 48.35140 | 12.55795 | 323° | 22km/h | 26443m | 4.9m/s | -49.5°C | 3.3% | 21.2hPa | 2.7V | 00:00:00 | 01:50:23 | 00:00:00 | |
| DL6DJ-15 | 2026-09-01 12:19:51 | 48.35082 | 12.55835 | 325° | 7km/h | 26369m | 5.2m/s | -48.9°C | 0.7% | 21.5hPa | 2.7V | 00:00:00 | 00:00:00 | 00:00:00 | |
| BAUMI2-15 | 2026-09-01 12:19:49 | 48.35078 | 12.55839 | 326° | 18km/h | 26359m | 6.1m/s | -48.9°C | 3.1% | 21.5hPa | 2.7V | 00:00:00 | 01:50:08 | 00:00:00 | |
| DO3MHA-11 | 2026-09-01 12:19:48 | 48.35075 | 12.55842 | 334° | 13km/h | 26353m | 5.2m/s | -48.9°C | 3.1% | 21.5hPa | 2.7V | 00:00:00 | 01:50:07 | 00:00:00 | |
| BAUMI2-15 | 2026-09-01 12:19:45 | 48.35055 | 12.55847 | 2° | 24km/h | 26330m | 5.1m/s | -48.8°C | 3.1% | 21.6hPa | 2.7V | 00:00:00 | 01:50:03 | 00:00:00 | |
| OE5MMP-10 | 2026-09-01 12:19:44 | 48.35055 | 12.55847 | 2° | 16km/h | 26330m | 5.1m/s | -48.8°C | 3.1% | 21.6hPa | 2.7V | 00:00:00 | 01:50:03 | 00:00:00 | |
| OE5WHR-10 | 2026-09-01 12:19:43 | 48.35049 | 12.55847 | 359° | 18km/h | 26325m | 5.0m/s | -48.9°C | 3.1% | 21.6hPa | 2.7V | 00:00:00 | 00:00:00 | 00:00:00 | |
| OE5HKT-10 | 2026-09-01 12:19:39 | 48.35026 | 12.55855 | 334° | 16km/h | 26304m | 6.0m/s | -49.0°C | 3.2% | 21.7hPa | 2.7V | 00:00:00 | 01:49:58 | 00:00:00 | |
| OE5DRO-10 | 2026-09-01 12:19:36 | 48.35019 | 12.55859 | 347° | 18km/h | 26289m | 4.3m/s | -49.3°C | 3.2% | 21.7hPa | 2.7V | 00:00:00 | 00:00:00 | 00:00:00 | |
| DO3MHA-11 | 2026-09-01 12:19:35 | 48.35018 | 12.55860 | 350° | 20km/h | 26284m | 5.7m/s | -49.4°C | 3.3% | 21.7hPa | 2.7V | 00:00:00 | 01:49:54 | 00:00:00 | |
| OE5MMP-10 | 2026-09-01 12:19:34 | 48.35014 | 12.55861 | 352° | 20km/h | 26278m | 5.6m/s | -49.4°C | 3.3% | 21.7hPa | 2.7V | 00:00:00 | 01:49:53 | 00:00:00 | |
| DO7DH-14 | 2026-09-01 12:19:30 | 48.34994 | 12.55862 | 5° | 16km/h | 26256m | 5.4m/s | -49.4°C | 3.3% | 21.8hPa | 2.7V | 00:00:00 | 01:49:49 | 00:00:00 | |
| BAUMI2-15 | 2026-09-01 12:19:29 | 48.34989 | 12.55861 | 2° | 22km/h | 26251m | 5.1m/s | -49.4°C | 3.3% | 21.9hPa | 2.7V | 00:00:00 | 01:49:48 | 00:00:00 | |
| OE8JPQ-2 | 2026-09-01 12:19:25 | 48.34967 | 12.55866 | 347° | 18km/h | 26231m | 4.2m/s | -49.0°C | 3.2% | 21.9hPa | 2.7V | 00:00:00 | 00:00:00 | 00:00:00 | |
| DO3MHA-11 | 2026-09-01 12:19:24 | 48.34963 | 12.55867 | 355° | 18km/h | 26226m | 5.9m/s | -49.1°C | 3.2% | 22.0hPa | 2.7V | 00:00:00 | 01:49:43 | 00:00:00 | |
| OE5WHR-10 | 2026-09-01 12:19:22 | 48.34956 | 12.55866 | 25° | 18km/h | 26216m | 4.5m/s | -49.2°C | 3.2% | 22.0hPa | 2.6V | 00:00:00 | 00:00:00 | 00:00:00 | |
| DL6DJ-15 | 2026-09-01 12:19:20 | 48.34950 | 12.55862 | 14° | 15km/h | 26206m | 5.2m/s | -49.1°C | 0.8% | 22.0hPa | 2.6V | 00:00:00 | 00:00:00 | 00:00:00 | |
| BAUMI2-15 | 2026-09-01 12:19:19 | 48.34946 | 12.55861 | 3° | 22km/h | 26201m | 5.8m/s | -48.9°C | 3.2% | 22.0hPa | 2.6V | 00:00:00 | 01:49:38 | 00:00:00 | |
| OE5HKT-10 | 2026-09-01 12:19:18 | 48.34941 | 12.55861 | 355° | 20km/h | 26195m | 5.1m/s | -48.8°C | 3.2% | 22.0hPa | 2.6V | 00:00:00 | 00:00:00 | 00:00:00 | |
| OE5DXL-15 | 2026-09-01 12:19:17 | 48.34924 | 12.55864 | 356° | 18km/h | 26180m | 5.5m/s | -48.8°C | 3.2% | 22.1hPa | 2.6V | 00:00:00 | 00:00:00 | 08:30:00 | |
| OE5MMP-10 | 2026-09-01 12:19:14 | 48.34919 | 12.55865 | 354° | 16km/h | 26175m | 4.7m/s | -48.8°C | 3.2% | 22.1hPa | 2.7V | 00:00:00 | 01:49:33 | 00:00:00 | |
| BAUMI2-15 | 2026-09-01 12:19:07 | 48.34892 | 12.55874 | 7° | 18km/h | 26139m | 4.5m/s | -49.0°C | 3.1% | 22.3hPa | 2.7V | 00:00:00 | 01:49:26 | 00:00:00 | |
| OE5REO-15 | 2026-09-01 12:19:05 | 48.34883 | 12.55874 | 355° | 20km/h | 26128m | 5.2m/s | -49.1°C | 0.8% | 22.3hPa | 2.6V | 00:00:00 | 00:00:00 | 00:00:00 | |
| DO3MHA-11 | 2026-09-01 12:19:04 | 48.34878 | 12.55875 | 352° | 20km/h | 26123m | 4.2m/s | -48.9°C | 3.1% | 22.3hPa | 2.6V | 00:00:00 | 01:49:23 | 00:00:00 | |
| OE8JPQ-2 | 2026-09-01 12:19:03 | 48.34872 | 12.55876 | 355° | 18km/h | 26119m | 4.6m/s | -48.8°C | 3.1% | 22.3hPa | 2.6V | 00:00:00 | 01:49:22 | 00:00:00 | |
| DL6DJ-15 | 2026-09-01 12:18:49 | 48.34820 | 12.55911 | 321° | 15km/h | 26049m | 4.8m/s | -49.1°C | 0.8% | 22.6hPa | 2.6V | 00:00:00 | 00:00:00 | 00:00:00 | |
| OE5REO-15 | 2026-09-01 12:18:48 | 48.34820 | 12.55911 | 322° | 15km/h | 26049m | 4.8m/s | -49.1°C | 0.8% | 22.6hPa | 2.6V | 00:00:00 | 00:00:00 | 00:00:00 | |
| BAUMI2-15 | 2026-09-01 12:18:45 | 48.34807 | 12.55921 | 330° | 15km/h | 26028m | 5.8m/s | -49.2°C | 3.2% | 22.6hPa | 2.6V | 00:00:00 | 01:49:04 | 00:00:00 | |
| OE5MMP-10 | 2026-09-01 12:18:44 | 48.34804 | 12.55924 | 320° | 15km/h | 26023m | 4.8m/s | -49.1°C | 3.2% | 22.7hPa | 2.6V | 00:00:00 | 01:49:03 | 00:00:00 | |
| OE8JPQ-2 | 2026-09-01 12:18:43 | 48.34801 | 12.55929 | 309° | 18km/h | 26019m | 4.3m/s | -49.0°C | 3.2% | 22.7hPa | 2.6V | 00:00:00 | 00:00:00 | 08:30:00 | |
| OE5WHR-10 | 2026-09-01 12:18:40 | 48.34798 | 12.55941 | 276° | 16km/h | 26003m | 4.5m/s | -48.9°C | 3.2% | 22.7hPa | 2.6V | 00:00:00 | 00:00:00 | 00:00:00 | |
| OE5DRO-10 | 2026-09-01 12:18:39 | 48.34797 | 12.55946 | 276° | 16km/h | 25998m | 5.3m/s | -48.9°C | 3.2% | 22.7hPa | 2.7V | 00:00:00 | 00:00:00 | 00:00:00 | |
| OE5HKT-10 | 2026-09-01 12:18:36 | 48.34793 | 12.55963 | 306° | 16km/h | 25984m | 3.5m/s | -48.9°C | 3.1% | 22.8hPa | 2.7V | 00:00:00 | 01:48:55 | 00:00:00 | |
| BAUMI2-15 | 2026-09-01 12:18:35 | 48.34790 | 12.55968 | 318° | 15km/h | 25980m | 4.6m/s | -48.9°C | 3.1% | 22.8hPa | 2.7V | 00:00:00 | 01:48:54 | 08:30:00 | |
| OE5REO-15 | 2026-09-01 12:18:32 | 48.34784 | 12.55973 | 353° | 13km/h | 25969m | 5.1m/s | -49.1°C | 0.8% | 22.9hPa | 2.7V | 00:00:00 | 00:00:00 | 00:00:00 | |
| BAUMI2-15 | 2026-09-01 12:18:30 | 48.34772 | 12.55975 | 343° | 18km/h | 25955m | 5.0m/s | -48.8°C | 3.1% | 22.9hPa | 2.7V | 00:00:00 | 01:48:49 | 00:00:00 | |
| BAUMI2-15 | 2026-09-01 12:18:25 | 48.34763 | 12.56004 | 257° | 18km/h | 25931m | 4.2m/s | -48.9°C | 3.2% | 23.0hPa | 2.7V | 00:00:00 | 01:48:44 | 00:00:00 | |
| OE5MMP-10 | 2026-09-01 12:18:24 | 48.34764 | 12.56010 | 257° | 16km/h | 25927m | 3.6m/s | -48.9°C | 3.2% | 23.0hPa | 2.7V | 00:00:00 | 01:48:43 | 00:00:00 | |
| BAUMI2-15 | 2026-09-01 12:18:20 | 48.34759 | 12.56034 | 323° | 16km/h | 25908m | 4.4m/s | -48.8°C | 3.1% | 23.1hPa | 2.6V | 00:00:00 | 01:48:39 | 00:00:00 | |
| OE8JPQ-2 | 2026-09-01 12:18:18 | 48.34751 | 12.56040 | 345° | 18km/h | 25897m | 5.6m/s | -49.0°C | 3.0% | 23.1hPa | 2.7V | 00:00:00 | 00:00:00 | 00:00:00 | |
| OE5REO-15 | 2026-09-01 12:18:17 | 48.34748 | 12.56042 | 346° | 15km/h | 25892m | 4.4m/s | -49.1°C | 0.8% | 23.2hPa | 2.7V | 00:00:00 | 00:00:00 | 00:00:00 | |
| BAUMI2-15 | 2026-09-01 12:18:15 | 48.34742 | 12.56047 | 317° | 20km/h | 25883m | 5.6m/s | -49.2°C | 3.1% | 23.2hPa | 2.7V | 00:00:00 | 01:48:34 | 00:00:00 | |
| OE5MMP-10 | 2026-09-01 12:18:14 | 48.34739 | 12.56052 | 296° | 20km/h | 25878m | 4.6m/s | -49.2°C | 3.1% | 23.2hPa | 2.7V | 00:00:00 | 01:48:33 | 00:00:00 | |
| BAUMI2-15 | 2026-09-01 12:18:10 | 48.34740 | 12.56086 | 254° | 20km/h | 25857m | 3.9m/s | -49.3°C | 3.3% | 23.3hPa | 2.7V | 00:00:00 | 01:48:29 | 00:00:00 | |
| OE5DXL-15 | 2026-09-01 12:18:09 | 48.34741 | 12.56108 | 295° | 15km/h | 25843m | 4.8m/s | -49.7°C | 3.3% | 23.3hPa | 2.7V | 00:00:00 | 00:00:00 | 00:00:00 | |
| OE5FHM-15 | 2026-09-01 12:18:05 | 48.34737 | 12.56116 | 334° | 15km/h | 25833m | 5.9m/s | -49.8°C | 3.3% | 23.3hPa | 2.7V | 00:00:00 | 01:48:24 | 00:00:00 | |
| OE5MMP-10 | 2026-09-01 12:18:04 | 48.34734 | 12.56117 | 344° | 20km/h | 25828m | 4.7m/s | -50.0°C | 3.3% | 23.4hPa | 2.7V | 00:00:00 | 01:48:23 | 00:00:00 | |
| OE5REO-15 | 2026-09-01 12:18:01 | 48.34730 | 12.56121 | 313° | 11km/h | 25820m | 4.1m/s | -50.0°C | 0.8% | 23.4hPa | 2.7V | 00:00:00 | 00:00:00 | 00:00:00 | |
| BAUMI2-15 | 2026-09-01 12:18:00 | 48.34727 | 12.56130 | 281° | 26km/h | 25810m | 5.1m/s | -49.8°C | 3.2% | 23.4hPa | 2.7V | 00:00:00 | 01:48:19 | 00:00:00 | |
| OE5WHR-10 | 2026-09-01 12:17:58 | 48.34728 | 12.56149 | 258° | 16km/h | 25800m | 4.6m/s | -49.6°C | 3.2% | 23.5hPa | 2.7V | 00:00:00 | 01:48:17 | 00:00:00 | |
| BAUMI2-15 | 2026-09-01 12:17:55 | 48.34737 | 12.56178 | 234° | 15km/h | 25785m | 3.9m/s | -49.7°C | 3.3% | 23.5hPa | 2.7V | 00:00:00 | 01:48:14 | 00:00:00 | |
| OE5MMP-10 | 2026-09-01 12:17:54 | 48.34740 | 12.56185 | 237° | 15km/h | 25781m | 5.1m/s | -49.7°C | 3.3% | 23.5hPa | 2.7V | 00:00:00 | 01:48:13 | 00:00:00 | |
| OE8JPQ-2 | 2026-09-01 12:17:51 | 48.34743 | 12.56199 | 293° | 11km/h | 25765m | 5.1m/s | -49.6°C | 3.3% | 23.6hPa | 2.7V | 00:00:00 | 01:48:10 | 00:00:00 | |
| OE5REO-15 | 2026-09-01 12:17:46 | 48.34737 | 12.56220 | 280° | 20km/h | 25739m | 3.9m/s | -49.7°C | 0.8% | 23.7hPa | 2.7V | 00:00:00 | 00:00:00 | 00:00:00 | |
| OE5MMP-10 | 2026-09-01 12:17:44 | 48.34738 | 12.56236 | 254° | 11km/h | 25731m | 5.6m/s | -49.7°C | 3.3% | 23.7hPa | 2.7V | 00:00:00 | 01:48:03 | 00:00:00 | |
| OE5DRO-10 | 2026-09-01 12:17:42 | 48.34749 | 12.56253 | 199° | 13km/h | 25708m | 5.4m/s | -49.7°C | 3.3% | 23.8hPa | 2.7V | 00:00:00 | 00:00:00 | 00:00:00 | |
| OE5WHR-10 | 2026-09-01 12:17:37 | 48.34747 | 12.56253 | 10° | 9km/h | 25692m | 4.8m/s | -49.8°C | 3.3% | 23.9hPa | 2.7V | 00:00:00 | 00:00:00 | 08:30:00 | |
| OE5FHM-15 | 2026-09-01 12:17:35 | 48.34743 | 12.56252 | 22° | 9km/h | 25680m | 5.6m/s | -49.7°C | 3.3% | 23.9hPa | 2.6V | 00:00:00 | 01:47:54 | 08:30:00 | |
| OE5HKT-10 | 2026-09-01 12:17:34 | 48.34741 | 12.56252 | 278° | 9km/h | 25671m | 4.9m/s | -49.8°C | 3.3% | 23.9hPa | 2.7V | 00:00:00 | 01:47:52 | 00:00:00 | |
| OE8JPQ-2 | 2026-09-01 12:17:31 | 48.34742 | 12.56258 | 265° | 9km/h | 25659m | 5.9m/s | -49.7°C | 3.3% | 24.0hPa | 2.7V | 00:00:00 | 00:00:00 | 00:00:00 | |
| OE5REO-15 | 2026-09-01 12:17:30 | 48.34742 | 12.56264 | 267° | 16km/h | 25654m | 4.4m/s | -49.8°C | 0.8% | 24.0hPa | 2.6V | 00:00:00 | 00:00:00 | 00:00:00 | |
| OE5MMP-10 | 2026-09-01 12:17:24 | 48.34745 | 12.56273 | 70° | 9km/h | 25626m | 5.5m/s | -49.7°C | 3.2% | 24.1hPa | 2.6V | 00:00:00 | 01:47:43 | 08:30:00 | |
| DL6DJ-15 | 2026-09-01 12:17:18 | 48.34729 | 12.56267 | 310° | 7km/h | 25585m | 5.9m/s | -50.0°C | 0.9% | 24.3hPa | 2.7V | 00:00:00 | 00:00:00 | 00:00:00 | |
| OE5WHR-10 | 2026-09-01 12:17:17 | 48.34729 | 12.56267 | 311° | 9km/h | 25585m | 5.9m/s | -49.9°C | 3.3% | 24.3hPa | 2.7V | 00:00:00 | 00:00:00 | 00:00:00 | |
| OE5MMP-10 | 2026-09-01 12:17:14 | 48.34727 | 12.56272 | 284° | 11km/h | 25576m | 3.7m/s | -49.8°C | 3.3% | 24.3hPa | 2.7V | 00:00:00 | 01:47:33 | 00:00:00 | |
| OE5REO-15 | 2026-09-01 12:17:13 | 48.34727 | 12.56272 | 284° | 5km/h | 25576m | 3.8m/s | -49.9°C | 0.8% | 24.4hPa | 2.7V | 00:00:00 | 00:00:00 | 00:00:00 | |
| OE5HKT-10 | 2026-09-01 12:17:12 | 48.34727 | 12.56274 | 174° | 11km/h | 25566m | 5.6m/s | -50.0°C | 3.4% | 24.3hPa | 2.7V | 00:00:00 | 00:00:00 | 00:00:00 | |
| OE8JPQ-2 | 2026-09-01 12:17:10 | 48.34729 | 12.56272 | 87° | 15km/h | 25556m | 4.2m/s | -50.0°C | 3.3% | 24.4hPa | 2.6V | 00:00:00 | 00:00:00 | 00:00:00 | |
| DO3MHA-11 | 2026-09-01 12:17:09 | 48.34728 | 12.56271 | 30° | 15km/h | 25551m | 5.1m/s | -50.0°C | 3.3% | 24.4hPa | 2.6V | 00:00:00 | 01:47:28 | 00:00:00 | |
| OE5FHM-15 | 2026-09-01 12:17:05 | 48.34712 | 12.56271 | 3° | 11km/h | 25530m | 6.3m/s | -50.1°C | 3.2% | 24.5hPa | 2.7V | 00:00:00 | 01:47:24 | 00:00:00 | |
| OE5MMP-10 | 2026-09-01 12:17:04 | 48.34707 | 12.56270 | 8° | 15km/h | 25524m | 4.6m/s | -50.1°C | 3.3% | 24.5hPa | 2.7V | 00:00:00 | 01:47:23 | 00:00:00 | |
| DO7DH-14 | 2026-09-01 12:17:00 | 48.34691 | 12.56270 | 325° | 15km/h | 25504m | 5.4m/s | -50.1°C | 3.4% | 24.6hPa | 2.7V | 00:00:00 | 01:47:19 | 00:00:00 | |
| OE5REO-15 | 2026-09-01 12:16:58 | 48.34688 | 12.56276 | 278° | 7km/h | 25494m | 5.1m/s | -50.2°C | 0.9% | 24.7hPa | 2.7V | 00:00:00 | 00:00:00 | 00:00:00 | |
| OE5WHR-10 | 2026-09-01 12:16:55 | 48.34688 | 12.56277 | 56° | 11km/h | 25478m | 4.3m/s | -50.3°C | 3.4% | 24.7hPa | 2.7V | 00:00:00 | 01:47:14 | 00:00:00 | |
| OE5MMP-10 | 2026-09-01 12:16:54 | 48.34688 | 12.56277 | 22° | 9km/h | 25473m | 5.7m/s | -50.4°C | 3.4% | 24.7hPa | 2.7V | 00:00:00 | 01:47:13 | 00:00:00 | |
| OE5DXL-15 | 2026-09-01 12:16:53 | 48.34683 | 12.56276 | 358° | 11km/h | 25462m | 4.7m/s | -50.5°C | 3.4% | 24.7hPa | 2.6V | 00:00:00 | 00:00:00 | 00:00:00 | |
| OE5HKT-10 | 2026-09-01 12:16:51 | 48.34679 | 12.56277 | 359° | 11km/h | 25457m | 4.9m/s | -50.3°C | 3.4% | 24.8hPa | 2.6V | 00:00:00 | 00:00:00 | 00:00:00 | |
| OE8JPQ-2 | 2026-09-01 12:16:50 | 48.34675 | 12.56277 | 3° | 15km/h | 25452m | 5.4m/s | -50.2°C | 3.4% | 24.8hPa | 2.6V | 00:00:00 | 01:47:09 | 00:00:00 | |
| DO3MHA-11 | 2026-09-01 12:16:48 | 48.34670 | 12.56277 | 345° | 7km/h | 25442m | 4.8m/s | -50.2°C | 3.4% | 24.8hPa | 2.6V | 00:00:00 | 01:47:07 | 00:00:00 | |
| DL6DJ-15 | 2026-09-01 12:16:45 | 48.34670 | 12.56284 | 226° | 4km/h | 25419m | 6.2m/s | -50.1°C | 0% | 25.0hPa | 2.6V | 00:00:00 | 00:00:00 | 00:00:00 | |
| OE5MMP-10 | 2026-09-01 12:16:43 | 48.34670 | 12.56285 | 99° | 13km/h | 25414m | 4.7m/s | -50.1°C | 3.4% | 24.9hPa | 2.6V | 00:00:00 | 01:47:02 | 00:00:00 | |
| OE5REO-15 | 2026-09-01 12:16:42 | 48.34670 | 12.56285 | 0° | 0km/h | 25414m | 4.8m/s | -50.1°C | 0.8% | 25.0hPa | 2.6V | 00:00:00 | 00:00:00 | 00:00:00 | |
| DO3MHA-11 | 2026-09-01 12:16:38 | 48.34657 | 12.56283 | 4° | 15km/h | 25388m | 5.9m/s | -50.1°C | 3.3% | 25.0hPa | 2.6V | 00:00:00 | 01:46:57 | 00:00:00 | |
| OE5FHM-15 | 2026-09-01 12:16:35 | 48.34642 | 12.56282 | 351° | 11km/h | 25373m | 4.3m/s | -49.7°C | 3.3% | 25.1hPa | 2.7V | 00:00:00 | 01:46:54 | 00:00:00 | |
| OE5WHR-10 | 2026-09-01 12:16:34 | 48.34639 | 12.56284 | 326° | 9km/h | 25368m | 6.3m/s | -49.7°C | 3.3% | 25.1hPa | 2.7V | 00:00:00 | 00:00:00 | 00:00:00 | |
| OE5MMP-10 | 2026-09-01 12:16:33 | 48.34638 | 12.56287 | 284° | 11km/h | 25361m | 5.6m/s | -49.7°C | 3.3% | 25.1hPa | 2.6V | 00:00:00 | 01:46:52 | 00:00:00 | |
| OE8JPQ-2 | 2026-09-01 12:16:31 | 48.34641 | 12.56300 | 218° | 9km/h | 25345m | 5.7m/s | -49.6°C | 3.3% | 25.2hPa | 2.6V | 00:00:00 | 00:00:00 | 00:00:00 | |
| OE5HKT-10 | 2026-09-01 12:16:30 | 48.34641 | 12.56300 | 218° | 9km/h | 25345m | 5.7m/s | -49.6°C | 3.3% | 25.2hPa | 2.6V | 00:00:00 | 01:46:49 | 00:00:00 | |
| DO3MHA-11 | 2026-09-01 12:16:28 | 48.34645 | 12.56303 | 199° | 4km/h | 25335m | 4.5m/s | -49.7°C | 3.3% | 25.2hPa | 2.6V | 00:00:00 | 01:46:47 | 00:00:00 | |
| DO7DH-14 | 2026-09-01 12:16:27 | 48.34645 | 12.56303 | 279° | 11km/h | 25330m | 5.2m/s | -49.7°C | 3.2% | 25.2hPa | 2.6V | 00:00:00 | 01:46:46 | 00:00:00 | |
| DK5PH-5 | 2026-09-01 12:16:26 | 48.34645 | 12.56304 | 322° | 13km/h | 25325m | 6.3m/s | -49.6°C | 3.2% | 25.3hPa | 2.6V | 00:00:00 | 01:46:45 | 00:00:00 | |
| OE5DXL-15 | 2026-09-01 12:16:17 | 48.34635 | 12.56330 | 237° | 11km/h | 25265m | 6.0m/s | -49.9°C | 3.3% | 25.5hPa | 2.6V | 00:00:00 | 00:00:00 | 00:00:00 | |
| OE5WHR-10 | 2026-09-01 12:16:13 | 48.34636 | 12.56337 | 281° | 13km/h | 25254m | 5.2m/s | -49.9°C | 3.3% | 25.6hPa | 2.6V | 00:00:00 | 00:00:00 | 00:00:00 | |
| OE8JPQ-2 | 2026-09-01 12:16:10 | 48.34630 | 12.56348 | 325° | 13km/h | 25238m | 4.5m/s | -50.0°C | 3.3% | 25.6hPa | 2.6V | 00:00:00 | 00:00:00 | 00:00:00 | |
| DO3MHA-11 | 2026-09-01 12:16:09 | 48.34627 | 12.56351 | 334° | 15km/h | 25233m | 6.4m/s | -50.0°C | 3.4% | 25.6hPa | 2.6V | 00:00:00 | 01:46:28 | 00:00:00 | |
| OE5FHM-15 | 2026-09-01 12:16:05 | 48.34617 | 12.56361 | 297° | 11km/h | 25211m | 5.9m/s | -50.0°C | 3.4% | 25.7hPa | 2.6V | 00:00:00 | 01:46:24 | 00:00:00 | |
| OE5REO-15 | 2026-09-01 12:15:56 | 48.34612 | 12.56404 | 279° | 16km/h | 25165m | 4.5m/s | -50.2°C | 0.8% | 26.0hPa | 2.7V | 00:00:00 | 00:00:00 | 00:00:00 | |
| DO3MHA-11 | 2026-09-01 12:15:55 | 48.34611 | 12.56410 | 271° | 13km/h | 25161m | 4.7m/s | -50.2°C | 3.4% | 26.0hPa | 2.7V | 00:00:00 | 01:46:14 | 08:30:00 | |
| OE5WHR-10 | 2026-09-01 12:15:52 | 48.34613 | 12.56424 | 244° | 9km/h | 25144m | 4.7m/s | -50.1°C | 3.4% | 26.0hPa | 2.7V | 00:00:00 | 01:46:11 | 00:00:00 | |
| OE8JPQ-2 | 2026-09-01 12:15:50 | 48.34615 | 12.56432 | 268° | 9km/h | 25133m | 6.0m/s | -50.0°C | 3.4% | 26.1hPa | 2.7V | 00:00:00 | 01:46:09 | 00:00:00 | |
| OE5HKT-10 | 2026-09-01 12:15:48 | 48.34614 | 12.56441 | 301° | 9km/h | 25123m | 5.2m/s | -50.0°C | 3.4% | 26.1hPa | 2.7V | 00:00:00 | 00:00:00 | 00:00:00 | |
| BAUMI2-15 | 2026-09-01 12:15:47 | 48.34612 | 12.56443 | 317° | 9km/h | 25117m | 6.2m/s | -50.0°C | 3.4% | 26.1hPa | 2.7V | 00:00:00 | 01:46:06 | 08:30:00 | |
| OE5DXL-15 | 2026-09-01 12:15:45 | 48.34606 | 12.56452 | 291° | 9km/h | 25096m | 5.3m/s | -49.6°C | 3.3% | 26.2hPa | 2.6V | 00:00:00 | 00:00:00 | 00:00:00 | |
| DO7DH-14 | 2026-09-01 12:15:43 | 48.34606 | 12.56452 | 291° | 7km/h | 25096m | 5.3m/s | -49.6°C | 3.3% | 26.2hPa | 2.6V | 00:00:00 | 01:46:02 | 00:00:00 | |
| BAUMI2-15 | 2026-09-01 12:15:42 | 48.34606 | 12.56455 | 276° | 9km/h | 25091m | 4.4m/s | -49.5°C | 3.3% | 26.2hPa | 2.6V | 00:00:00 | 01:46:01 | 00:00:00 | |
| OE5REO-15 | 2026-09-01 12:15:40 | 48.34606 | 12.56459 | 259° | 9km/h | 25086m | 5.5m/s | -49.6°C | 0.8% | 26.3hPa | 2.6V | 00:00:00 | 00:00:00 | 00:00:00 | |
| DO3MHA-11 | 2026-09-01 12:15:37 | 48.34612 | 12.56468 | 228° | 11km/h | 25064m | 5.8m/s | -49.5°C | 3.2% | 26.3hPa | 2.6V | 00:00:00 | 01:45:56 | 00:00:00 | |
| BAUMI2-15 | 2026-09-01 12:15:36 | 48.34613 | 12.56471 | 245° | 9km/h | 25058m | 5.6m/s | -49.6°C | 3.2% | 26.3hPa | 2.6V | 00:00:00 | 01:45:55 | 00:00:00 | |
| OE5FHM-15 | 2026-09-01 12:15:35 | 48.34614 | 12.56476 | 256° | 7km/h | 25053m | 4.5m/s | -49.6°C | 3.3% | 26.4hPa | 2.6V | 00:00:00 | 01:45:54 | 00:00:00 | |
| OE5MMP-10 | 2026-09-01 12:15:33 | 48.34614 | 12.56482 | 282° | 5km/h | 25042m | 6.2m/s | -49.6°C | 3.3% | 26.4hPa | 2.6V | 00:00:00 | 01:45:52 | 00:00:00 | |
| OE8JPQ-2 | 2026-09-01 12:15:32 | 48.34610 | 12.56487 | 335° | 7km/h | 25026m | 6.1m/s | -49.4°C | 3.2% | 26.5hPa | 2.7V | 00:00:00 | 00:00:00 | 08:30:00 | |
| OE5HKT-10 | 2026-09-01 12:15:27 | 48.34603 | 12.56492 | 344° | 7km/h | 25011m | 6.0m/s | -49.6°C | 3.1% | 26.5hPa | 2.6V | 00:00:00 | 01:45:46 | 00:00:00 | |
| BAUMI2-15 | 2026-09-01 12:15:26 | 48.34601 | 12.56492 | 351° | 4km/h | 25005m | 5.7m/s | -49.8°C | 3.2% | 26.6hPa | 2.6V | 00:00:00 | 01:45:45 | 00:00:00 | |
| OE5REO-15 | 2026-09-01 12:15:24 | 48.34600 | 12.56492 | 346° | 4km/h | 25000m | 5.2m/s | -49.9°C | 0.8% | 26.6hPa | 2.6V | 00:00:00 | 00:00:00 | 00:00:00 | |
| OE5MMP-10 | 2026-09-01 12:15:23 | 48.34600 | 12.56495 | 250° | 7km/h | 24989m | 4.7m/s | -49.7°C | 3.2% | 26.6hPa | 2.6V | 00:00:00 | 01:45:42 | 00:00:00 | |
| DO3MHA-11 | 2026-09-01 12:15:22 | 48.34602 | 12.56497 | 194° | 5km/h | 24980m | 5.5m/s | -49.8°C | 3.3% | 26.7hPa | 2.6V | 00:00:00 | 01:45:40 | 00:00:00 | |
| BAUMI2-15 | 2026-09-01 12:15:18 | 48.34605 | 12.56495 | 325° | 9km/h | 24953m | 5.6m/s | -50.0°C | 3.4% | 26.8hPa | 2.6V | 00:00:00 | 01:45:35 | 00:00:00 | |
| DO7DH-14 | 2026-09-01 12:15:13 | 48.34598 | 12.56500 | 344° | 11km/h | 24937m | 5.9m/s | -49.9°C | 3.3% | 26.8hPa | 2.6V | 00:00:00 | 01:45:32 | 00:00:00 | |
| DL6DJ-15 | 2026-09-01 12:15:12 | 48.34594 | 12.56502 | 331° | 5km/h | 24927m | 4.4m/s | -50.1°C | 0.8% | 26.9hPa | 2.6V | 00:00:00 | 00:00:00 | 00:00:00 | |
| DO3MHA-11 | 2026-09-01 12:15:11 | 48.34594 | 12.56502 | 332° | 9km/h | 24927m | 4.3m/s | -50.0°C | 3.2% | 26.9hPa | 2.6V | 00:00:00 | 01:45:30 | 00:00:00 | |
| OE5WHR-10 | 2026-09-01 12:15:10 | 48.34593 | 12.56504 | 293° | 9km/h | 24922m | 5.6m/s | -49.9°C | 3.2% | 26.9hPa | 2.7V | 00:00:00 | 00:00:00 | 00:00:00 | |
| OE5MMP-10 | 2026-09-01 12:15:09 | 48.34593 | 12.56506 | 260° | 9km/h | 24916m | 5.5m/s | -50.0°C | 3.2% | 27.0hPa | 2.7V | 00:00:00 | 01:45:28 | 00:00:00 | |
| OE5REO-15 | 2026-09-01 12:15:08 | 48.34593 | 12.56506 | 261° | 9km/h | 24916m | 5.6m/s | -50.0°C | 0.8% | 27.0hPa | 2.7V | 00:00:00 | 00:00:00 | 00:00:00 | |
| BAUMI2-15 | 2026-09-01 12:15:06 | 48.34598 | 12.56517 | 213° | 9km/h | 24901m | 5.8m/s | -50.0°C | 3.3% | 27.0hPa | 2.7V | 00:00:00 | 01:45:25 | 00:00:00 | |
| OE5FHM-15 | 2026-09-01 12:15:05 | 48.34601 | 12.56519 | 196° | 11km/h | 24895m | 5.6m/s | -50.0°C | 3.3% | 27.0hPa | 2.7V | 00:00:00 | 01:45:24 | 00:00:00 | |
| BAUMI2-15 | 2026-09-01 12:15:01 | 48.34606 | 12.56524 | 301° | 11km/h | 24875m | 4.5m/s | -50.2°C | 3.4% | 27.1hPa | 2.7V | 00:00:00 | 01:45:20 | 08:30:00 | |
| OE5MMP-10 | 2026-09-01 12:15:00 | 48.34602 | 12.56528 | 336° | 9km/h | 24865m | 6.0m/s | -50.3°C | 3.4% | 27.2hPa | 2.6V | 00:00:00 | 01:45:18 | 08:30:00 | |
| DO3MHA-11 | 2026-09-01 12:14:59 | 48.34602 | 12.56528 | 336° | 9km/h | 24865m | 6.0m/s | -50.3°C | 3.4% | 27.2hPa | 2.6V | 00:00:00 | 01:45:18 | 00:00:00 | |
| BAUMI2-15 | 2026-09-01 12:14:56 | 48.34593 | 12.56533 | 334° | 9km/h | 24849m | 5.3m/s | -50.2°C | 3.4% | 27.2hPa | 2.6V | 00:00:00 | 01:45:15 | 00:00:00 | |
| PG1ADW-2 | 2026-09-01 12:14:52 | 48.34588 | 12.56544 | 276° | 15km/h | 24828m | 6.0m/s | -50.4°C | 3.3% | 27.3hPa | 2.6V | 00:00:00 | 00:00:00 | 00:00:00 | |
| BAUMI2-15 | 2026-09-01 12:14:51 | 48.34588 | 12.56545 | 304° | 5km/h | 24823m | 4.9m/s | -50.5°C | 3.3% | 27.3hPa | 2.6V | 00:00:00 | 01:45:10 | 00:00:00 | |
| OE8JPQ-2 | 2026-09-01 12:14:50 | 48.34587 | 12.56546 | 345° | 13km/h | 24818m | 4.1m/s | -50.5°C | 3.4% | 27.4hPa | 2.6V | 00:00:00 | 01:45:09 | 00:00:00 | |
| OE5MMP-10 | 2026-09-01 12:14:49 | 48.34586 | 12.56546 | 340° | 11km/h | 24813m | 5.7m/s | -50.5°C | 3.4% | 27.4hPa | 2.6V | 00:00:00 | 01:45:08 | 00:00:00 | |
| BAUMI2-15 | 2026-09-01 12:14:46 | 48.34579 | 12.56551 | 342° | 18km/h | 24797m | 6.1m/s | -50.3°C | 3.4% | 27.4hPa | 2.6V | 00:00:00 | 01:45:05 | 00:00:00 | |
| OE5HKT-10 | 2026-09-01 12:14:45 | 48.34575 | 12.56553 | 345° | 15km/h | 24791m | 5.2m/s | -50.3°C | 3.4% | 27.5hPa | 2.7V | 00:00:00 | 00:00:00 | 00:00:00 | |
| DO7DH-14 | 2026-09-01 12:14:42 | 48.34563 | 12.56563 | 315° | 15km/h | 24776m | 5.8m/s | -50.2°C | 3.3% | 27.5hPa | 2.7V | 00:00:00 | 01:45:01 | 00:00:00 | |
| DL6DJ-15 | 2026-09-01 12:14:41 | 48.34557 | 12.56576 | 301° | 18km/h | 24767m | 4.2m/s | -50.3°C | 0.8% | -1.0hPa | 2.7V | 00:00:00 | 00:00:00 | 00:00:00 | |
| DO3MHA-11 | 2026-09-01 12:14:38 | 48.34553 | 12.56586 | 302° | 15km/h | 24756m | 5.4m/s | -50.4°C | 3.3% | 27.6hPa | 2.7V | 00:00:00 | 01:44:57 | 00:00:00 | |
| BAUMI2-15 | 2026-09-01 12:14:36 | 48.34551 | 12.56592 | 292° | 9km/h | 24746m | 5.6m/s | -50.5°C | 3.3% | 27.7hPa | 2.6V | 00:00:00 | 01:44:55 | 00:00:00 | |
| OE5FHM-15 | 2026-09-01 12:14:35 | 48.34550 | 12.56595 | 289° | 16km/h | 24741m | 5.6m/s | -50.5°C | 3.3% | 27.7hPa | 2.6V | 00:00:00 | 01:44:54 | 00:00:00 | |
| BAUMI2-15 | 2026-09-01 12:14:31 | 48.34544 | 12.56605 | 340° | 18km/h | 24720m | 4.9m/s | -50.5°C | 3.4% | 27.8hPa | 2.7V | 00:00:00 | 01:44:50 | 00:00:00 | |
| OE8JPQ-2 | 2026-09-01 12:14:30 | 48.34541 | 12.56607 | 334° | 18km/h | 24715m | 4.6m/s | -50.5°C | 3.4% | 27.8hPa | 2.6V | 00:00:00 | 00:00:00 | 00:00:00 | |
| OE5WHR-10 | 2026-09-01 12:14:28 | 48.34534 | 12.56615 | 316° | 20km/h | 24703m | 5.3m/s | -50.5°C | 3.3% | 27.8hPa | 2.7V | 00:00:00 | 00:00:00 | 08:30:00 | |
| DO3MHA-11 | 2026-09-01 12:14:26 | 48.34526 | 12.56627 | 314° | 15km/h | 24693m | 6.0m/s | -50.5°C | 3.4% | 27.9hPa | 2.7V | 00:00:00 | 01:44:45 | 00:00:00 | |
| OE5HKT-10 | 2026-09-01 12:14:24 | 48.34519 | 12.56638 | 309° | 18km/h | 24682m | 4.4m/s | -50.6°C | 3.4% | 27.9hPa | 2.7V | 00:00:00 | 01:44:43 | 00:00:00 | |
| PG1ADW-2 | 2026-09-01 12:14:23 | 48.34517 | 12.56643 | 303° | 18km/h | 24677m | 6.0m/s | -50.6°C | 3.4% | 28.0hPa | 2.7V | 00:00:00 | 01:44:42 | 00:00:00 | |
| BAUMI2-15 | 2026-09-01 12:14:21 | 48.34513 | 12.56654 | 293° | 11km/h | 24666m | 4.6m/s | -50.6°C | 3.4% | 28.0hPa | 2.7V | 00:00:00 | 01:44:40 | 00:00:00 | |
| OE5REO-15 | 2026-09-01 12:14:19 | 48.34512 | 12.56658 | 298° | 11km/h | 24661m | 5.1m/s | -50.7°C | 0.9% | 28.1hPa | 2.7V | 00:00:00 | 00:00:00 | 00:00:00 | |
| DO3MHA-11 | 2026-09-01 12:14:16 | 48.34504 | 12.56669 | 315° | 22km/h | 24642m | 5.3m/s | -50.7°C | 3.4% | 28.1hPa | 2.7V | 00:00:00 | 01:44:35 | 00:00:00 | |
| OE5DXL-15 | 2026-09-01 12:14:15 | 48.34495 | 12.56691 | 297° | 22km/h | 24626m | 4.2m/s | -50.8°C | 3.4% | 28.2hPa | 2.7V | 00:00:00 | 00:00:00 | 00:00:00 | |
| BAUMI2-15 | 2026-09-01 12:14:11 | 48.34489 | 12.56708 | 306° | 22km/h | 24616m | 5.8m/s | -51.1°C | 3.5% | 28.2hPa | 2.7V | 00:00:00 | 01:44:30 | 00:00:00 | |
| DL6DJ-15 | 2026-09-01 12:14:10 | 48.34478 | 12.56728 | 311° | 20km/h | 24600m | 5.3m/s | 0°C | -1.0% | -1.0hPa | 2.7V | 00:00:00 | 00:00:00 | 00:00:00 | |
| BAUMI2-15 | 2026-09-01 12:14:07 | 48.34472 | 12.56740 | 302° | 18km/h | 24589m | 4.5m/s | -50.8°C | 3.5% | 28.4hPa | 2.7V | 00:00:00 | 01:44:25 | 00:00:00 | |
| DO3MHA-11 | 2026-09-01 12:14:06 | 48.34472 | 12.56740 | 302° | 20km/h | 24589m | 4.5m/s | -50.8°C | 3.5% | 28.4hPa | 2.7V | 00:00:00 | 01:44:25 | 08:30:00 | |
| OE5REO-15 | 2026-09-01 12:14:05 | 48.34469 | 12.56746 | 306° | 18km/h | 24585m | 4.6m/s | -50.9°C | 0.9% | 28.4hPa | 2.6V | 00:00:00 | 00:00:00 | 00:00:00 | |
| OE5HKT-10 | 2026-09-01 12:14:03 | 48.34463 | 12.56756 | 321° | 16km/h | 24574m | 5.3m/s | -50.9°C | 3.4% | 28.4hPa | 2.6V | 00:00:00 | 00:00:00 | 00:00:00 | |
| OE8JPQ-2 | 2026-09-01 12:14:02 | 48.34459 | 12.56761 | 319° | 16km/h | 24569m | 4.5m/s | -51.0°C | 3.4% | 28.5hPa | 2.7V | 00:00:00 | 00:00:00 | 00:00:00 | |
| BAUMI2-15 | 2026-09-01 12:14:01 | 48.34455 | 12.56767 | 314° | 22km/h | 24564m | 6.0m/s | -51.1°C | 3.4% | 28.5hPa | 2.7V | 00:00:00 | 01:44:20 | 00:00:00 | |
| DO3MHA-11 | 2026-09-01 12:13:56 | 48.34442 | 12.56803 | 286° | 16km/h | 24536m | 5.1m/s | -50.9°C | 3.5% | 28.6hPa | 2.7V | 00:00:00 | 01:44:15 | 00:00:00 | |
| OE5REO-15 | 2026-09-01 12:13:48 | 48.34443 | 12.56833 | 331° | 5km/h | 24499m | 4.5m/s | -51.0°C | 0.8% | 28.8hPa | 2.7V | 00:00:00 | 00:00:00 | 00:00:00 | |
| OE5DXL-15 | 2026-09-01 12:13:44 | 48.34429 | 12.56861 | 298° | 18km/h | 24468m | 5.6m/s | -51.0°C | 3.5% | 28.9hPa | 2.7V | 00:00:00 | 00:00:00 | 00:00:00 | |
| PG1ADW-2 | 2026-09-01 12:13:43 | 48.34429 | 12.56861 | 298° | 15km/h | 24468m | 5.6m/s | -51.0°C | 3.5% | 28.9hPa | 2.7V | 00:00:00 | 00:00:00 | 00:00:00 | |
| OE5HKT-10 | 2026-09-01 12:13:42 | 48.34427 | 12.56867 | 300° | 15km/h | 24463m | 4.9m/s | -50.9°C | 3.5% | 28.9hPa | 2.7V | 00:00:00 | 00:00:00 | 00:00:00 | |
| DO7DH-14 | 2026-09-01 12:13:41 | 48.34425 | 12.56873 | 301° | 15km/h | 24458m | 4.6m/s | -50.9°C | 3.5% | 29.0hPa | 2.7V | 00:00:00 | 01:44:00 | 00:00:00 | |
| OE5FHM-15 | 2026-09-01 12:13:35 | 48.34418 | 12.56897 | 249° | 15km/h | 24425m | 4.1m/s | -51.2°C | 3.3% | 29.1hPa | 2.7V | 00:00:00 | 01:43:54 | 00:00:00 | |
| OE5MMP-10 | 2026-09-01 12:13:30 | 48.34419 | 12.56930 | 285° | 20km/h | 24400m | 4.6m/s | -51.4°C | 3.5% | 29.2hPa | 2.7V | 00:00:00 | 01:43:49 | 00:00:00 | |
| PG1ADW-2 | 2026-09-01 12:13:23 | 48.34410 | 12.56968 | 265° | 15km/h | 24362m | 5.0m/s | -51.8°C | 3.6% | 29.4hPa | 2.7V | 00:00:00 | 00:00:00 | 00:00:00 | |
| OE5HKT-10 | 2026-09-01 12:13:21 | 48.34410 | 12.56973 | 281° | 15km/h | 24350m | 5.5m/s | -51.8°C | 3.6% | 29.4hPa | 2.7V | 00:00:00 | 01:43:40 | 00:00:00 | |
| OE5MMP-10 | 2026-09-01 12:13:20 | 48.34410 | 12.56976 | 284° | 15km/h | 24345m | 5.1m/s | -51.8°C | 3.6% | 29.5hPa | 2.7V | 00:00:00 | 01:43:39 | 00:00:00 | |
| OE5REO-15 | 2026-09-01 12:13:16 | 48.34408 | 12.56992 | 278° | 20km/h | 24327m | 4.7m/s | -51.5°C | 0.9% | 29.6hPa | 2.7V | 00:00:00 | 00:00:00 | 00:00:00 | |
| OE5DXL-15 | 2026-09-01 12:13:13 | 48.34402 | 12.57022 | 290° | 9km/h | 24301m | 5.9m/s | -51.5°C | 3.5% | 29.7hPa | 2.7V | 00:00:00 | 00:00:00 | 08:30:00 | |
| DO7DH-14 | 2026-09-01 12:13:11 | 48.34401 | 12.57027 | 276° | 9km/h | 24295m | 5.7m/s | -51.3°C | 3.5% | 29.7hPa | 2.6V | 00:00:00 | 01:43:30 | 08:30:00 | |
| OE5MMP-10 | 2026-09-01 12:13:10 | 48.34401 | 12.57032 | 263° | 11km/h | 24290m | 4.6m/s | -51.3°C | 3.5% | 29.7hPa | 2.6V | 00:00:00 | 01:43:29 | 00:00:00 | |
| OE5FHM-15 | 2026-09-01 12:13:05 | 48.34406 | 12.57051 | 252° | 11km/h | 24263m | 5.6m/s | -51.4°C | 3.5% | 29.8hPa | 2.6V | 00:00:00 | 01:43:24 | 08:30:00 | |
| PG1ADW-2 | 2026-09-01 12:13:02 | 48.34408 | 12.57070 | 262° | 9km/h | 24247m | 4.3m/s | -51.6°C | 3.4% | 29.9hPa | 2.6V | 00:00:00 | 01:43:21 | 00:00:00 | |
| OE8JPQ-2 | 2026-09-01 12:13:01 | 48.34409 | 12.57077 | 267° | 9km/h | 24242m | 6.0m/s | -51.6°C | 3.4% | 29.9hPa | 2.6V | 00:00:00 | 00:00:00 | 00:00:00 | |
| OE5MMP-10 | 2026-09-01 12:13:00 | 48.34409 | 12.57082 | 271° | 9km/h | 24236m | 5.4m/s | -51.6°C | 3.4% | 30.0hPa | 2.6V | 00:00:00 | 01:43:19 | 00:00:00 | |
| OE5MMP-10 | 2026-09-01 12:12:50 | 48.34416 | 12.57111 | 225° | 7km/h | 24183m | 5.2m/s | -52.1°C | 3.7% | 30.2hPa | 2.6V | 00:00:00 | 01:43:09 | 00:00:00 | |
| OE5REO-15 | 2026-09-01 12:12:45 | 48.34419 | 12.57123 | 281° | 7km/h | 24156m | 4.9m/s | -52.2°C | 0.9% | 30.4hPa | 2.7V | 00:00:00 | 00:00:00 | 00:00:00 | |
| PG1ADW-2 | 2026-09-01 12:12:42 | 48.34420 | 12.57133 | 252° | 13km/h | 24140m | 5.1m/s | -52.2°C | 3.7% | 30.4hPa | 2.7V | 00:00:00 | 00:00:00 | 00:00:00 | |
| OE8JPQ-2 | 2026-09-01 12:12:41 | 48.34421 | 12.57136 | 244° | 11km/h | 24134m | 6.0m/s | -52.3°C | 3.7% | 30.5hPa | 2.7V | 00:00:00 | 01:43:00 | 00:00:00 | |
| OE5MMP-10 | 2026-09-01 12:12:40 | 48.34422 | 12.57137 | 225° | 9km/h | 24129m | 4.2m/s | -52.3°C | 3.8% | 30.5hPa | 2.7V | 00:00:00 | 01:42:59 | 00:00:00 | |
| OE5HKT-10 | 2026-09-01 12:12:39 | 48.34423 | 12.57138 | 223° | 11km/h | 24125m | 4.8m/s | -52.3°C | 3.8% | 30.5hPa | 2.7V | 00:00:00 | 00:00:00 | 00:00:00 | |
| OE5DXL-15 | 2026-09-01 12:12:37 | 48.34430 | 12.57150 | 234° | 13km/h | 24103m | 5.7m/s | -52.1°C | 3.7% | 30.6hPa | 2.7V | 00:00:00 | 00:00:00 | 00:00:00 | |
| OE5FHM-15 | 2026-09-01 12:12:35 | 48.34430 | 12.57150 | 234° | 13km/h | 24103m | 5.7m/s | -52.1°C | 3.7% | 30.6hPa | 2.7V | 00:00:00 | 01:42:54 | 00:00:00 | |
| OE5MMP-10 | 2026-09-01 12:12:30 | 48.34434 | 12.57169 | 250° | 13km/h | 24076m | 5.0m/s | -51.9°C | 3.7% | 30.7hPa | 2.7V | 00:00:00 | 01:42:49 | 00:00:00 | |
| OE5REO-15 | 2026-09-01 12:12:29 | 48.34436 | 12.57175 | 243° | 15km/h | 24071m | 5.3m/s | -51.8°C | 1.0% | 30.8hPa | 2.7V | 00:00:00 | 00:00:00 | 00:00:00 | |
| OE8JPQ-2 | 2026-09-01 12:12:21 | 48.34456 | 12.57203 | 229° | 15km/h | 24029m | 6.1m/s | -51.6°C | 3.6% | 31.0hPa | 2.7V | 00:00:00 | 00:00:00 | 08:30:00 | |
| OE5MMP-10 | 2026-09-01 12:12:20 | 48.34457 | 12.57206 | 229° | 13km/h | 24024m | 4.7m/s | -51.5°C | 3.5% | 31.0hPa | 2.6V | 00:00:00 | 01:42:39 | 08:30:00 | |
| OE5HKT-10 | 2026-09-01 12:12:18 | 48.34460 | 12.57212 | 237° | 15km/h | 24014m | 6.0m/s | -51.7°C | 3.6% | 31.0hPa | 2.6V | 00:00:00 | 01:42:37 | 00:00:00 | |
| OE5REO-15 | 2026-09-01 12:12:12 | 48.34473 | 12.57230 | 204° | 13km/h | 23987m | 4.3m/s | -51.5°C | 0.9% | 31.2hPa | 2.6V | 00:00:00 | 00:00:00 | 00:00:00 | |
| DO7DH-14 | 2026-09-01 12:12:11 | 48.34480 | 12.57235 | 210° | 15km/h | 23977m | 5.7m/s | -51.5°C | 3.5% | 31.2hPa | 2.6V | 00:00:00 | 01:42:30 | 00:00:00 | |
| OE5FHM-15 | 2026-09-01 12:12:05 | 48.34500 | 12.57248 | 205° | 15km/h | 23948m | 5.7m/s | -51.3°C | 3.6% | 31.3hPa | 2.6V | 00:00:00 | 01:42:24 | 00:00:00 | |
| OE5DXL-15 | 2026-09-01 12:12:03 | 48.34513 | 12.57261 | 213° | 15km/h | 23926m | 5.8m/s | -51.4°C | 3.6% | 31.5hPa | 2.6V | 00:00:00 | 01:42:20 | 00:00:00 | |
| OE8JPQ-2 | 2026-09-01 12:12:01 | 48.34513 | 12.57261 | 213° | 15km/h | 23926m | 5.8m/s | -51.4°C | 3.6% | 31.5hPa | 2.6V | 00:00:00 | 00:00:00 | 00:00:00 | |
| OE5MMP-10 | 2026-09-01 12:12:00 | 48.34516 | 12.57264 | 208° | 15km/h | 23920m | 5.3m/s | -51.3°C | 3.6% | 31.5hPa | 2.6V | 00:00:00 | 01:42:19 | 00:00:00 | |
| OE5REO-15 | 2026-09-01 12:11:58 | 48.34522 | 12.57269 | 224° | 15km/h | 23911m | 5.2m/s | -51.4°C | 0.9% | 31.6hPa | 2.6V | 00:00:00 | 00:00:00 | 00:00:00 | |
| OE5HKT-10 | 2026-09-01 12:11:57 | 48.34525 | 12.57274 | 233° | 15km/h | 23905m | 5.9m/s | -51.4°C | 3.5% | 31.6hPa | 2.6V | 00:00:00 | 00:00:00 | 08:30:00 | |
| OE5MMP-10 | 2026-09-01 12:11:50 | 48.34538 | 12.57306 | 233° | 15km/h | 23871m | 5.3m/s | -51.2°C | 3.5% | 31.7hPa | 2.7V | 00:00:00 | 01:42:09 | 00:00:00 | |
| BAUMI2-15 | 2026-09-01 12:11:46 | 48.34547 | 12.57317 | 192° | 16km/h | 23851m | 5.3m/s | -50.9°C | 3.4% | 31.9hPa | 2.6V | 00:00:00 | 01:42:05 | 00:00:00 | |
| DO7DH-14 | 2026-09-01 12:11:41 | 48.34566 | 12.57330 | 213° | 5km/h | 23826m | 4.5m/s | -51.3°C | 3.4% | 32.0hPa | 2.6V | 00:00:00 | 01:42:00 | 00:00:00 | |
| OE5MMP-10 | 2026-09-01 12:11:40 | 48.34569 | 12.57333 | 205° | 15km/h | 23821m | 6.1m/s | -51.3°C | 3.4% | 32.0hPa | 2.6V | 00:00:00 | 01:41:59 | 00:00:00 | |
| PG1ADW-2 | 2026-09-01 12:11:38 | 48.34578 | 12.57336 | 183° | 11km/h | 23810m | 4.1m/s | -51.3°C | 3.4% | 32.0hPa | 2.6V | 00:00:00 | 01:41:57 | 00:00:00 | |
| OE5HKT-10 | 2026-09-01 12:11:36 | 48.34586 | 12.57337 | 194° | 11km/h | 23801m | 5.8m/s | -51.4°C | 3.4% | 32.1hPa | 2.6V | 00:00:00 | 00:00:00 | 00:00:00 | |
| OE5FHM-15 | 2026-09-01 12:11:35 | 48.34590 | 12.57339 | 203° | 9km/h | 23795m | 4.9m/s | -51.4°C | 3.4% | 32.1hPa | 2.6V | 00:00:00 | 01:41:54 | 00:00:00 | |
| OE5WHR-10 | 2026-09-01 12:11:33 | 48.34599 | 12.57345 | 205° | 7km/h | 23785m | 5.2m/s | -51.6°C | 3.5% | 32.2hPa | 2.7V | 00:00:00 | 01:41:52 | 00:00:00 | |
| DO3MHA-11 | 2026-09-01 12:11:32 | 48.34603 | 12.57347 | 197° | 9km/h | 23780m | 5.6m/s | -51.6°C | 3.6% | 32.2hPa | 2.7V | 00:00:00 | 01:41:51 | 00:00:00 | |
| OE5MMP-10 | 2026-09-01 12:11:26 | 48.34620 | 12.57353 | 198° | 5km/h | 23751m | 5.3m/s | -52.2°C | 3.6% | 32.4hPa | 2.7V | 00:00:00 | 01:41:45 | 00:00:00 | |
| BAUMI2-15 | 2026-09-01 12:11:25 | 48.34621 | 12.57353 | 116° | 4km/h | 23745m | 5.5m/s | -52.1°C | 3.6% | 32.4hPa | 2.7V | 00:00:00 | 01:41:44 | 00:00:00 | |
| DG1MJG | 2026-09-01 12:11:23 | 48.34621 | 12.57351 | 104° | 5km/h | 23740m | 4.3m/s | 0°C | 0% | 0hPa | 2.7V | 00:00:00 | 00:00:00 | 00:00:00 | |
| DO3MHA-11 | 2026-09-01 12:11:22 | 48.34622 | 12.57348 | 135° | 5km/h | 23731m | 5.9m/s | -52.2°C | 3.6% | 32.5hPa | 2.7V | 00:00:00 | 01:41:41 | 00:00:00 | |
| PETON7-10 | 2026-09-01 12:11:21 | 48.34623 | 12.57348 | 196° | 5km/h | 23725m | 4.9m/s | -52.2°C | 3.6% | 32.5hPa | 2.6V | 00:00:00 | 00:00:00 | 00:00:00 | |
| BAUMI2-15 | 2026-09-01 12:11:20 | 48.34623 | 12.57349 | 207° | 7km/h | 23720m | 4.6m/s | -52.3°C | 3.6% | 32.5hPa | 2.6V | 00:00:00 | 01:41:39 | 08:30:00 | |
| PG1ADW-2 | 2026-09-01 12:11:18 | 48.34627 | 12.57350 | 177° | 11km/h | 23710m | 5.5m/s | -52.3°C | 3.7% | 32.5hPa | 2.7V | 00:00:00 | 00:00:00 | 00:00:00 | |
| OE5MMP-10 | 2026-09-01 12:11:16 | 48.34632 | 12.57349 | 171° | 7km/h | 23702m | 3.5m/s | -52.3°C | 3.7% | 32.6hPa | 2.7V | 00:00:00 | 01:41:35 | 00:00:00 | |
| OE5HKT-10 | 2026-09-01 12:11:15 | 48.34633 | 12.57348 | 181° | 7km/h | 23697m | 5.5m/s | -52.3°C | 3.8% | 32.6hPa | 2.7V | 00:00:00 | 01:41:34 | 00:00:00 | |
| OE5WHR-10 | 2026-09-01 12:11:12 | 48.34635 | 12.57351 | 307° | 9km/h | 23681m | 5.0m/s | -52.5°C | 3.7% | 32.7hPa | 2.7V | 00:00:00 | 00:00:00 | 00:00:00 | |
| DO7DH-14 | 2026-09-01 12:11:10 | 48.34633 | 12.57352 | 4° | 7km/h | 23671m | 3.9m/s | -52.7°C | 3.7% | 32.7hPa | 2.6V | 00:00:00 | 01:41:29 | 00:00:00 | |
| OE5MMP-10 | 2026-09-01 12:11:06 | 48.34624 | 12.57358 | 318° | 9km/h | 23651m | 4.7m/s | -52.8°C | 3.7% | 32.9hPa | 2.6V | 00:00:00 | 01:41:25 | 00:00:00 | |
| OE5FHM-15 | 2026-09-01 12:11:05 | 48.34623 | 12.57360 | 313° | 9km/h | 23646m | 5.7m/s | -52.8°C | 3.8% | 32.9hPa | 2.6V | 00:00:00 | 01:41:24 | 00:00:00 | |
| DO3MHA-11 | 2026-09-01 12:11:02 | 48.34621 | 12.57369 | 260° | 9km/h | 23632m | 5.8m/s | -52.5°C | 3.8% | 33.0hPa | 2.6V | 00:00:00 | 01:41:21 | 00:00:00 | |
| OE8JPQ-2 | 2026-09-01 12:11:00 | 48.34622 | 12.57378 | 265° | 7km/h | 23622m | 4.2m/s | -52.5°C | 3.7% | 33.0hPa | 2.6V | 00:00:00 | 00:00:00 | 00:00:00 | |
| OE5MMP-10 | 2026-09-01 12:10:57 | 48.34620 | 12.57388 | 4° | 9km/h | 23603m | 3.9m/s | -52.6°C | 3.6% | 33.1hPa | 2.6V | 00:00:00 | 01:41:15 | 00:00:00 | |
| OE5WHR-10 | 2026-09-01 12:10:51 | 48.34609 | 12.57387 | 69° | 9km/h | 23579m | 5.6m/s | -52.6°C | 3.7% | 33.2hPa | 2.6V | 00:00:00 | 00:00:00 | 00:00:00 | |
| OE5MMP-10 | 2026-09-01 12:10:46 | 48.34619 | 12.57393 | 231° | 5km/h | 23555m | 4.3m/s | -52.8°C | 3.7% | 33.4hPa | 2.6V | 00:00:00 | 01:41:05 | 08:30:00 | |
| BAUMI2-15 | 2026-09-01 12:10:44 | 48.34622 | 12.57399 | 232° | 4km/h | 23545m | 5.9m/s | -53.0°C | 3.7% | 33.4hPa | 2.6V | 00:00:00 | 01:41:03 | 00:00:00 | |
| DO7DH-14 | 2026-09-01 12:10:40 | 48.34623 | 12.57402 | 297° | 11km/h | 23526m | 4.5m/s | -53.0°C | 3.7% | 33.5hPa | 2.6V | 00:00:00 | 01:40:59 | 00:00:00 | |
| OE5REO-15 | 2026-09-01 12:10:39 | 48.34623 | 12.57402 | 298° | 2km/h | 23526m | 4.5m/s | -53.0°C | 1.0% | 33.6hPa | 2.6V | 00:00:00 | 00:00:00 | 00:00:00 | |
| BAUMI2-15 | 2026-09-01 12:10:38 | 48.34624 | 12.57403 | 187° | 9km/h | 23517m | 5.0m/s | -53.0°C | 3.8% | 33.6hPa | 2.6V | 00:00:00 | 01:40:57 | 00:00:00 | |
| OE5MMP-10 | 2026-09-01 12:10:36 | 48.34630 | 12.57403 | 181° | 13km/h | 23506m | 4.7m/s | -53.0°C | 3.9% | 33.6hPa | 2.7V | 00:00:00 | 01:40:55 | 00:00:00 | |
| OE5FHM-15 | 2026-09-01 12:10:35 | 48.34634 | 12.57403 | 188° | 15km/h | 23501m | 5.2m/s | -53.0°C | 3.9% | 33.6hPa | 2.7V | 00:00:00 | 01:40:54 | 00:00:00 | |
| OE5HKT-10 | 2026-09-01 12:10:33 | 48.34642 | 12.57406 | 193° | 13km/h | 23492m | 3.4m/s | -53.1°C | 3.9% | 33.7hPa | 2.7V | 00:00:00 | 00:00:00 | 00:00:00 | |
| OE5WHR-10 | 2026-09-01 12:10:29 | 48.34649 | 12.57399 | 96° | 16km/h | 23473m | 4.5m/s | -53.4°C | 3.9% | 33.8hPa | 2.7V | 00:00:00 | 01:40:48 | 00:00:00 | |
| OE5MMP-10 | 2026-09-01 12:10:26 | 48.34648 | 12.57388 | 88° | 15km/h | 23458m | 4.0m/s | -53.3°C | 3.9% | 33.9hPa | 2.7V | 00:00:00 | 01:40:45 | 00:00:00 | |
| BAUMI2-15 | 2026-09-01 12:10:25 | 48.34649 | 12.57384 | 101° | 13km/h | 23453m | 5.7m/s | -53.2°C | 3.9% | 33.9hPa | 2.7V | 00:00:00 | 01:40:44 | 00:00:00 | |
| OE5REO-15 | 2026-09-01 12:10:24 | 48.34649 | 12.57379 | 118° | 15km/h | 23447m | 5.0m/s | -53.3°C | 1.0% | 34.0hPa | 2.7V | 00:00:00 | 00:00:00 | 00:00:00 | |
| OE8JPQ-2 | 2026-09-01 12:10:20 | 48.34661 | 12.57363 | 149° | 18km/h | 23429m | 4.4m/s | -53.3°C | 3.9% | 34.0hPa | 2.7V | 00:00:00 | 00:00:00 | 00:00:00 | |
| BAUMI2-15 | 2026-09-01 12:10:19 | 48.34664 | 12.57360 | 140° | 16km/h | 23424m | 4.7m/s | -53.2°C | 3.9% | 34.0hPa | 2.6V | 00:00:00 | 01:40:38 | 00:00:00 | |
| OE5MMP-10 | 2026-09-01 12:10:16 | 48.34669 | 12.57345 | 108° | 18km/h | 23409m | 4.0m/s | -53.1°C | 3.8% | 34.1hPa | 2.6V | 00:00:00 | 01:40:35 | 00:00:00 | |
| PG1ADW-2 | 2026-09-01 12:10:15 | 48.34671 | 12.57339 | 104° | 20km/h | 23405m | 4.9m/s | -53.2°C | 3.9% | 34.2hPa | 2.7V | 00:00:00 | 01:40:34 | 00:00:00 | |
| BAUMI2-15 | 2026-09-01 12:10:14 | 48.34671 | 12.57333 | 102° | 18km/h | 23399m | 5.3m/s | -53.1°C | 3.9% | 34.2hPa | 2.7V | 00:00:00 | 01:40:33 | 00:00:00 | |
| OE3JTB-15 | 2026-09-01 12:10:12 | 48.34674 | 12.57316 | 107° | 18km/h | 23385m | 5.6m/s | -53.2°C | 3.9% | 34.3hPa | 2.6V | 00:00:00 | 00:00:00 | 00:00:00 | |
| DO7DH-14 | 2026-09-01 12:10:11 | 48.34676 | 12.57310 | 110° | 22km/h | 23379m | 5.3m/s | -53.1°C | 3.9% | 34.3hPa | 2.6V | 00:00:00 | 01:40:29 | 00:00:00 | |
| OE5REO-15 | 2026-09-01 12:10:08 | 48.34677 | 12.57302 | 112° | 22km/h | 23375m | 4.6m/s | -53.1°C | 1.0% | 34.4hPa | 2.6V | 00:00:00 | 00:00:00 | 00:00:00 | |
| OE5MMP-10 | 2026-09-01 12:10:06 | 48.34682 | 12.57281 | 105° | 22km/h | 23359m | 4.6m/s | -53.2°C | 3.9% | 34.4hPa | 2.6V | 00:00:00 | 01:40:25 | 00:00:00 | |
| OE5WHR-10 | 2026-09-01 12:10:05 | 48.34684 | 12.57274 | 104° | 22km/h | 23354m | 5.7m/s | -53.1°C | 3.9% | 34.4hPa | 2.6V | 00:00:00 | 00:00:00 | 00:00:00 | |
| BAUMI2-15 | 2026-09-01 12:10:01 | 48.34686 | 12.57241 | 93° | 22km/h | 23333m | 5.1m/s | -53.0°C | 3.8% | 34.6hPa | 2.6V | 00:00:00 | 01:40:20 | 00:00:00 | |
| OE8JPQ-2 | 2026-09-01 12:10:00 | 48.34687 | 12.57233 | 96° | 22km/h | 23328m | 4.0m/s | -53.0°C | 3.8% | 34.6hPa | 2.6V | 00:00:00 | 00:00:00 | 00:00:00 | |
| OE5MMP-10 | 2026-09-01 12:09:56 | 48.34692 | 12.57198 | 111° | 22km/h | 23308m | 5.8m/s | -52.9°C | 3.8% | 34.7hPa | 2.6V | 00:00:00 | 01:40:15 | 00:00:00 | |
| PG1ADW-2 | 2026-09-01 12:09:55 | 48.34694 | 12.57190 | 116° | 16km/h | 23302m | 5.6m/s | -52.9°C | 3.9% | 34.7hPa | 2.6V | 00:00:00 | 00:00:00 | 00:00:00 | |
| OE5REO-15 | 2026-09-01 12:09:52 | 48.34698 | 12.57177 | 113° | 20km/h | 23293m | 3.7m/s | -52.8°C | 1.1% | 34.8hPa | 2.6V | 00:00:00 | 00:00:00 | 00:00:00 | |
| OE5HKT-10 | 2026-09-01 12:09:50 | 48.34702 | 12.57153 | 98° | 20km/h | 23278m | 4.8m/s | -52.7°C | 3.8% | 34.8hPa | 2.6V | 00:00:00 | 00:00:00 | 00:00:00 | |
| OE5MMP-10 | 2026-09-01 12:09:46 | 48.34703 | 12.57118 | 84° | 20km/h | 23257m | 4.9m/s | -52.6°C | 3.7% | 35.0hPa | 2.7V | 00:00:00 | 01:40:05 | 00:00:00 | |
| OE5WHR-10 | 2026-09-01 12:09:44 | 48.34701 | 12.57099 | 84° | 18km/h | 23248m | 3.6m/s | -52.6°C | 3.7% | 35.0hPa | 2.6V | 00:00:00 | 00:00:00 | 00:00:00 | |
| PETON7-10 | 2026-09-01 12:09:40 | 48.34700 | 12.57070 | 95° | 16km/h | 23227m | 4.7m/s | -52.6°C | 3.7% | 35.1hPa | 2.6V | 00:00:00 | 00:00:00 | 00:00:00 | |
| OE5REO-15 | 2026-09-01 12:09:37 | 48.34701 | 12.57056 | 96° | 20km/h | 23217m | 5.3m/s | -52.6°C | 1.0% | 35.2hPa | 2.7V | 00:00:00 | 00:00:00 | 00:00:00 | |
| OE5MMP-10 | 2026-09-01 12:09:36 | 48.34702 | 12.57041 | 95° | 18km/h | 23207m | 5.2m/s | -52.6°C | 3.7% | 35.2hPa | 2.7V | 00:00:00 | 01:39:55 | 00:00:00 | |
| OE5HKT-10 | 2026-09-01 12:09:29 | 48.34705 | 12.56991 | 97° | 15km/h | 23171m | 5.9m/s | -52.7°C | 3.8% | 35.4hPa | 2.7V | 00:00:00 | 00:00:00 | 00:00:00 | |
| OE5MMP-10 | 2026-09-01 12:09:26 | 48.34706 | 12.56975 | 96° | 18km/h | 23156m | 5.9m/s | -52.8°C | 3.8% | 35.5hPa | 2.7V | 00:00:00 | 01:39:45 | 00:00:00 | |
| PETON7-10 | 2026-09-01 12:09:24 | 48.34707 | 12.56962 | 96° | 16km/h | 23145m | 5.0m/s | -52.9°C | 3.8% | 35.6hPa | 2.7V | 00:00:00 | 00:00:00 | 00:00:00 | |
| OE5WHR-10 | 2026-09-01 12:09:23 | 48.34708 | 12.56956 | 93° | 16km/h | 23140m | 5.4m/s | -52.9°C | 3.8% | 35.6hPa | 2.7V | 00:00:00 | 01:39:42 | 00:00:00 | |
| OE5REO-15 | 2026-09-01 12:09:21 | 48.34708 | 12.56950 | 91° | 16km/h | 23135m | 4.0m/s | -52.9°C | 1.0% | 35.7hPa | 2.7V | 00:00:00 | 00:00:00 | 00:00:00 | |
| OE8JPQ-2 | 2026-09-01 12:09:20 | 48.34707 | 12.56936 | 84° | 15km/h | 23126m | 6.0m/s | -52.9°C | 3.8% | 35.7hPa | 2.7V | 00:00:00 | 00:00:00 | 08:30:00 | |
| OE5MMP-10 | 2026-09-01 12:09:16 | 48.34702 | 12.56907 | 62° | 13km/h | 23105m | 5.9m/s | -52.9°C | 3.8% | 35.8hPa | 2.7V | 00:00:00 | 01:39:35 | 08:30:00 | |
| DO7DH-14 | 2026-09-01 12:09:09 | 48.34693 | 12.56880 | 59° | 13km/h | 23069m | 5.5m/s | -52.7°C | 3.8% | 36.0hPa | 2.6V | 00:00:00 | 01:39:28 | 00:00:00 | |
| OE5HKT-10 | 2026-09-01 12:09:08 | 48.34691 | 12.56875 | 54° | 11km/h | 23064m | 4.6m/s | -52.8°C | 3.8% | 36.0hPa | 2.6V | 00:00:00 | 01:39:27 | 00:00:00 | |
| OE5REO-15 | 2026-09-01 12:09:06 | 48.34686 | 12.56864 | 60° | 20km/h | 23053m | 5.3m/s | -52.9°C | 1.0% | 36.1hPa | 2.6V | 00:00:00 | 00:00:00 | 00:00:00 | |
| OE5FHM-15 | 2026-09-01 12:09:03 | 48.34678 | 12.56846 | 51° | 13km/h | 23039m | 5.8m/s | -52.8°C | 3.8% | 36.2hPa | 2.6V | 00:00:00 | 01:39:22 | 00:00:00 | |
| DL6DJ-15 | 2026-09-01 12:08:59 | 48.34649 | 12.56799 | 26° | 13km/h | 22966m | 4.8m/s | -52.6°C | 1.0% | 36.6hPa | 2.6V | 00:00:00 | 00:00:00 | 00:00:00 | |
| OE5MMP-10 | 2026-09-01 12:08:56 | 48.34669 | 12.56827 | 35° | 15km/h | 23003m | 5.2m/s | -52.6°C | 3.7% | 36.4hPa | 2.6V | 00:00:00 | 01:39:15 | 00:00:00 | |
| OE5REO-15 | 2026-09-01 12:08:50 | 48.34653 | 12.56803 | 39° | 16km/h | 22972m | 6.0m/s | -52.7°C | 1.0% | 36.6hPa | 2.6V | 00:00:00 | 00:00:00 | 00:00:00 | |
| DO3MHA-11 | 2026-09-01 12:08:47 | 48.34644 | 12.56796 | 24° | 9km/h | 22957m | 5.9m/s | -52.6°C | 3.6% | 36.7hPa | 2.6V | 00:00:00 | 01:39:06 | 00:00:00 | |
| OE5MMP-10 | 2026-09-01 12:08:46 | 48.34642 | 12.56795 | 28° | 11km/h | 22951m | 4.6m/s | -52.7°C | 3.6% | 36.7hPa | 2.6V | 00:00:00 | 01:39:05 | 00:00:00 | |
| OE5HKT-10 | 2026-09-01 12:08:43 | 48.34639 | 12.56796 | 321° | 18km/h | 22936m | 5.5m/s | -53.0°C | 3.7% | 36.8hPa | 2.7V | 00:00:00 | 00:00:00 | 08:30:00 | |
| OE5WHR-10 | 2026-09-01 12:08:41 | 48.34635 | 12.56798 | 357° | 16km/h | 22926m | 5.1m/s | -53.1°C | 3.8% | 36.8hPa | 2.7V | 00:00:00 | 00:00:00 | 00:00:00 | |
| OE8JPQ-2 | 2026-09-01 12:08:40 | 48.34633 | 12.56797 | 22° | 16km/h | 22921m | 5.2m/s | -53.0°C | 3.8% | 36.9hPa | 2.7V | 00:00:00 | 01:38:59 | 00:00:00 | |
| DO7DH-14 | 2026-09-01 12:08:39 | 48.34630 | 12.56795 | 31° | 16km/h | 22916m | 4.2m/s | -53.1°C | 3.9% | 36.9hPa | 2.7V | 00:00:00 | 01:38:58 | 08:30:00 | |
| DO3MHA-11 | 2026-09-01 12:08:37 | 48.34621 | 12.56789 | 23° | 18km/h | 22906m | 6.1m/s | -53.0°C | 3.9% | 37.0hPa | 2.7V | 00:00:00 | 01:38:56 | 00:00:00 | |
| OE5MMP-10 | 2026-09-01 12:08:36 | 48.34617 | 12.56786 | 14° | 18km/h | 22900m | 5.2m/s | -53.0°C | 3.9% | 37.0hPa | 2.7V | 00:00:00 | 01:38:55 | 00:00:00 | |
| OE5REO-15 | 2026-09-01 12:08:34 | 48.34612 | 12.56785 | 10° | 22km/h | 22895m | 4.4m/s | -53.1°C | 1.1% | 37.1hPa | 2.7V | 00:00:00 | 00:00:00 | 00:00:00 | |
| OE5FHM-15 | 2026-09-01 12:08:33 | 48.34601 | 12.56782 | 13° | 16km/h | 22886m | 5.6m/s | -53.0°C | 3.8% | 37.1hPa | 2.7V | 00:00:00 | 01:38:52 | 00:00:00 | |
| DK5PH-5 | 2026-09-01 12:08:32 | 48.34597 | 12.56781 | 13° | 16km/h | 22881m | 4.5m/s | -52.9°C | 3.8% | 37.1hPa | 2.7V | 00:00:00 | 01:38:51 | 00:00:00 | |
| DO3MHA-11 | 2026-09-01 12:08:27 | 48.34577 | 12.56779 | 13° | 15km/h | 22857m | 5.8m/s | -53.1°C | 3.8% | 37.2hPa | 2.7V | 00:00:00 | 01:38:46 | 08:30:00 | |
| OE5MMP-10 | 2026-09-01 12:08:26 | 48.34573 | 12.56777 | 23° | 15km/h | 22851m | 4.6m/s | -53.1°C | 3.8% | 37.3hPa | 2.6V | 00:00:00 | 01:38:45 | 00:00:00 | |
| OE8JPQ-2 | 2026-09-01 12:08:21 | 48.34551 | 12.56773 | 2° | 18km/h | 22821m | 5.7m/s | -53.1°C | 3.9% | 37.4hPa | 2.6V | 00:00:00 | 00:00:00 | 00:00:00 | |
| PG1ADW-2 | 2026-09-01 12:08:19 | 48.34548 | 12.56773 | 9° | 13km/h | 22816m | 4.1m/s | -53.1°C | 3.8% | 37.5hPa | 2.6V | 00:00:00 | 00:00:00 | 00:00:00 | |
| DO3MHA-11 | 2026-09-01 12:08:18 | 48.34541 | 12.56772 | 2° | 16km/h | 22807m | 6.0m/s | -53.3°C | 3.8% | 37.5hPa | 2.6V | 00:00:00 | 01:38:36 | 00:00:00 | |
| OE5MMP-10 | 2026-09-01 12:08:17 | 48.34538 | 12.56772 | 358° | 16km/h | 22801m | 5.1m/s | -53.4°C | 3.8% | 37.6hPa | 2.6V | 00:00:00 | 01:38:35 | 00:00:00 | |
| DO7DH-14 | 2026-09-01 12:08:09 | 48.34509 | 12.56762 | 3° | 16km/h | 22765m | 5.1m/s | -53.1°C | 3.9% | 37.8hPa | 2.6V | 00:00:00 | 01:38:28 | 00:00:00 | |
| DO3MHA-11 | 2026-09-01 12:08:08 | 48.34517 | 12.56762 | 3° | 20km/h | 22755m | 5.4m/s | -53.1°C | 3.9% | 37.8hPa | 2.6V | 00:00:00 | 01:38:26 | 00:00:00 | |
| OE5MMP-10 | 2026-09-01 12:08:06 | 48.34495 | 12.56762 | 360° | 20km/h | 22750m | 4.5m/s | -53.2°C | 3.8% | 37.9hPa | 2.6V | 00:00:00 | 01:38:25 | 00:00:00 | |
| PETON7-10 | 2026-09-01 12:08:04 | 48.34485 | 12.56764 | 348° | 15km/h | 22740m | 6.0m/s | -53.3°C | 3.8% | 37.9hPa | 2.6V | 00:00:00 | 00:00:00 | 08:30:00 | |
| OE5FHM-15 | 2026-09-01 12:08:03 | 48.34479 | 12.56766 | 345° | 15km/h | 22734m | 4.7m/s | -53.1°C | 3.8% | 38.0hPa | 2.6V | 00:00:00 | 01:38:22 | 00:00:00 | |
| OE5REO-15 | 2026-09-01 12:08:02 | 48.34479 | 12.56766 | 346° | 24km/h | 22734m | 4.8m/s | -53.2°C | 1.0% | 38.0hPa | 2.6V | 00:00:00 | 00:00:00 | 00:00:00 | |
| OE5HKT-10 | 2026-09-01 12:08:01 | 48.34468 | 12.56769 | 357° | 26km/h | 22725m | 5.9m/s | -53.0°C | 3.8% | 38.0hPa | 2.6V | 00:00:00 | 00:00:00 | 00:00:00 | |
| OE8JPQ-2 | 2026-09-01 12:08:00 | 48.34463 | 12.56769 | 7° | 15km/h | 22719m | 4.8m/s | -52.9°C | 3.8% | 38.0hPa | 2.6V | 00:00:00 | 00:00:00 | 00:00:00 | |
| DO3MHA-11 | 2026-09-01 12:07:57 | 48.34451 | 12.56766 | 15° | 13km/h | 22703m | 4.5m/s | -52.9°C | 3.9% | 38.1hPa | 2.6V | 00:00:00 | 01:38:16 | 00:00:00 | |
| OE5MMP-10 | 2026-09-01 12:07:56 | 48.34447 | 12.56764 | 21° | 15km/h | 22699m | 4.7m/s | -52.9°C | 3.9% | 38.2hPa | 2.6V | 00:00:00 | 01:38:15 | 00:00:00 | |
| PG1ADW-2 | 2026-09-01 12:07:49 | 48.34428 | 12.56758 | 337° | 13km/h | 22664m | 4.7m/s | -53.0°C | 3.7% | 38.4hPa | 2.6V | 00:00:00 | 00:00:00 | 00:00:00 | |
| OE3JTB-15 | 2026-09-01 12:07:48 | 48.34424 | 12.56760 | 341° | 15km/h | 22659m | 5.0m/s | -53.1°C | 3.7% | 38.4hPa | 2.6V | 00:00:00 | 01:38:07 | 00:00:00 | |
| DO3MHA-11 | 2026-09-01 12:07:47 | 48.34419 | 12.56762 | 351° | 15km/h | 22653m | 5.4m/s | -53.1°C | 3.8% | 38.4hPa | 2.6V | 00:00:00 | 01:38:06 | 00:00:00 | |
| OE5MMP-10 | 2026-09-01 12:07:46 | 48.34415 | 12.56763 | 4° | 15km/h | 22648m | 4.5m/s | -53.1°C | 3.8% | 38.5hPa | 2.6V | 00:00:00 | 01:38:05 | 08:30:00 | |
| PETON7-10 | 2026-09-01 12:07:42 | 48.34399 | 12.56759 | 11° | 15km/h | 22628m | 5.2m/s | -52.8°C | 3.9% | 38.6hPa | 2.6V | 00:00:00 | 00:00:00 | 00:00:00 | |
| OE8JPQ-2 | 2026-09-01 12:07:40 | 48.34393 | 12.56756 | 26° | 13km/h | 22616m | 5.5m/s | -52.8°C | 3.8% | 38.7hPa | 2.6V | 00:00:00 | 01:37:59 | 00:00:00 | |
| OE5WHR-10 | 2026-09-01 12:07:36 | 48.34382 | 12.56756 | 335° | 13km/h | 22596m | 4.5m/s | -53.1°C | 3.7% | 38.8hPa | 2.6V | 00:00:00 | 00:00:00 | 00:00:00 | |
| BAUMI2-15 | 2026-09-01 12:07:32 | 48.34367 | 12.56761 | 7° | 15km/h | 22576m | 5.2m/s | -52.9°C | 3.9% | 38.9hPa | 2.6V | 00:00:00 | 01:37:51 | 00:00:00 | |
| OE5FHM-15 | 2026-09-01 12:07:31 | 48.34363 | 12.56760 | 7° | 13km/h | 22570m | 5.6m/s | -52.9°C | 3.9% | 39.0hPa | 2.6V | 00:00:00 | 01:37:50 | 08:30:00 | |
| OE5REO-15 | 2026-09-01 12:07:30 | 48.34363 | 12.56760 | 8° | 16km/h | 22570m | 5.6m/s | -53.0°C | 1.1% | 39.0hPa | 2.6V | 00:00:00 | 00:00:00 | 00:00:00 | |
| DL6DJ-15 | 2026-09-01 12:07:26 | 48.34344 | 12.56745 | 49° | 13km/h | 22538m | 5.6m/s | -53.1°C | 1.0% | 39.2hPa | 2.6V | 00:00:00 | 00:00:00 | 00:00:00 | |
| DO3MHA-11 | 2026-09-01 12:07:24 | 48.34342 | 12.56742 | 48° | 11km/h | 22533m | 5.6m/s | -53.1°C | 3.8% | 39.2hPa | 2.6V | 00:00:00 | 01:37:43 | 00:00:00 | |
| BAUMI2-15 | 2026-09-01 12:07:21 | 48.34336 | 12.56735 | 37° | 13km/h | 22517m | 6.2m/s | -53.1°C | 3.9% | 39.3hPa | 2.6V | 00:00:00 | 01:37:40 | 00:00:00 | |
| OE8JPQ-2 | 2026-09-01 12:07:20 | 48.34334 | 12.56732 | 35° | 13km/h | 22512m | 5.1m/s | -53.0°C | 3.9% | 39.3hPa | 2.6V | 00:00:00 | 00:00:00 | 00:00:00 | |
| OE3JTB-15 | 2026-09-01 12:07:19 | 48.34331 | 12.56730 | 29° | 13km/h | 22506m | 5.1m/s | -53.0°C | 3.8% | 39.4hPa | 2.7V | 00:00:00 | 00:00:00 | 00:00:00 | |
| OE5MMP-10 | 2026-09-01 12:07:16 | 48.34322 | 12.56724 | 24° | 11km/h | 22491m | 5.1m/s | -53.0°C | 3.8% | 39.4hPa | 2.6V | 00:00:00 | 01:37:35 | 00:00:00 | |
| OE5REO-15 | 2026-09-01 12:07:15 | 48.34321 | 12.56724 | 24° | 15km/h | 22491m | 5.2m/s | -53.1°C | 1.0% | 39.5hPa | 2.7V | 00:00:00 | 00:00:00 | 00:00:00 | |
| OE5WHR-10 | 2026-09-01 12:07:14 | 48.34315 | 12.56718 | 39° | 11km/h | 22480m | 4.6m/s | -53.2°C | 3.9% | 39.5hPa | 2.7V | 00:00:00 | 01:37:33 | 00:00:00 | |
| BAUMI2-15 | 2026-09-01 12:07:12 | 48.34309 | 12.56710 | 51° | 7km/h | 22464m | 4.3m/s | -53.1°C | 3.9% | 39.6hPa | 2.7V | 00:00:00 | 01:37:30 | 00:00:00 | |
| DO3MHA-11 | 2026-09-01 12:07:11 | 48.34309 | 12.56710 | 51° | 11km/h | 22464m | 4.3m/s | -53.1°C | 3.9% | 39.6hPa | 2.7V | 00:00:00 | 01:37:30 | 00:00:00 | |
| PETON7-10 | 2026-09-01 12:07:08 | 48.34307 | 12.56704 | 51° | 11km/h | 22449m | 5.2m/s | -52.9°C | 3.8% | 39.7hPa | 2.7V | 00:00:00 | 00:00:00 | 00:00:00 | |
| OE5MMP-10 | 2026-09-01 12:07:07 | 48.34303 | 12.56700 | 16° | 15km/h | 22440m | 5.3m/s | -53.0°C | 3.8% | 39.7hPa | 2.7V | 00:00:00 | 01:37:25 | 00:00:00 | |
| DL6DJ-15 | 2026-09-01 12:06:55 | 48.34254 | 12.56712 | 328° | 11km/h | 22365m | 4.5m/s | -53.0°C | 1.0% | 40.3hPa | 2.7V | 00:00:00 | 00:00:00 | 00:00:00 | |
| OE5WHR-10 | 2026-09-01 12:06:51 | 48.34251 | 12.56714 | 334° | 15km/h | 22360m | 4.9m/s | -53.0°C | 3.8% | 40.3hPa | 2.7V | 00:00:00 | 00:00:00 | 00:00:00 | |
| OE3JTB-15 | 2026-09-01 12:06:50 | 48.34243 | 12.56718 | 346° | 15km/h | 22349m | 4.9m/s | -52.9°C | 3.8% | 40.3hPa | 2.6V | 00:00:00 | 00:00:00 | 00:00:00 | |
| OE5DXL-15 | 2026-09-01 12:06:49 | 48.34228 | 12.56725 | 338° | 13km/h | 22334m | 5.0m/s | -52.8°C | 3.7% | 40.4hPa | 2.6V | 00:00:00 | 00:00:00 | 00:00:00 | |
| OE5MMP-10 | 2026-09-01 12:06:46 | 48.34228 | 12.56725 | 338° | 11km/h | 22334m | 5.0m/s | -52.8°C | 3.7% | 40.4hPa | 2.6V | 00:00:00 | 01:37:05 | 00:00:00 | |
| OE5REO-15 | 2026-09-01 12:06:44 | 48.34224 | 12.56728 | 341° | 15km/h | 22329m | 4.5m/s | -52.8°C | 1.0% | 40.5hPa | 2.6V | 00:00:00 | 00:00:00 | 00:00:00 | |
| BAUMI2-15 | 2026-09-01 12:06:41 | 48.34212 | 12.56730 | 356° | 9km/h | 22308m | 6.1m/s | -52.7°C | 3.8% | 40.6hPa | 2.6V | 00:00:00 | 01:37:00 | 00:00:00 | |
| OE8JPQ-2 | 2026-09-01 12:06:40 | 48.34210 | 12.56730 | 341° | 11km/h | 22302m | 4.9m/s | 0°C | 0% | 0hPa | 2.6V | 00:00:00 | 01:36:59 | 00:00:00 | |
| DO7DH-14 | 2026-09-01 12:06:39 | 48.34207 | 12.56731 | 355° | 13km/h | 22293m | 4.8m/s | -52.7°C | 3.8% | 40.7hPa | 2.6V | 00:00:00 | 01:36:57 | 00:00:00 | |
| OE5MMP-10 | 2026-09-01 12:06:36 | 48.34201 | 12.56731 | 10° | 13km/h | 22282m | 5.0m/s | -52.8°C | 3.8% | 40.7hPa | 2.6V | 00:00:00 | 01:36:55 | 00:00:00 | |
| OE5FHM-15 | 2026-09-01 12:06:31 | 48.34182 | 12.56732 | 354° | 9km/h | 22256m | 6.0m/s | -52.9°C | 3.7% | 40.9hPa | 2.6V | 00:00:00 | 01:36:50 | 00:00:00 | |
| OE5WHR-10 | 2026-09-01 12:06:30 | 48.34178 | 12.56733 | 1° | 9km/h | 22251m | 4.7m/s | -52.8°C | 3.8% | 41.0hPa | 2.6V | 00:00:00 | 00:00:00 | 00:00:00 | |
| DO3MHA-11 | 2026-09-01 12:06:29 | 48.34174 | 12.56733 | 2° | 7km/h | 22246m | 4.7m/s | -52.8°C | 3.8% | 41.0hPa | 2.6V | 00:00:00 | 01:36:48 | 00:00:00 | |
| OE5MMP-10 | 2026-09-01 12:06:26 | 48.34169 | 12.56734 | 343° | 9km/h | 22230m | 4.1m/s | -52.7°C | 3.9% | 41.1hPa | 2.6V | 00:00:00 | 01:36:45 | 00:00:00 | |
| DL6DJ-15 | 2026-09-01 12:06:24 | 48.34166 | 12.56732 | 29° | 7km/h | 22215m | 4.9m/s | -52.9°C | 1.1% | 41.2hPa | 2.6V | 00:00:00 | 00:00:00 | 00:00:00 | |
| BAUMI2-15 | 2026-09-01 12:06:21 | 48.34161 | 12.56730 | 3° | 13km/h | 22205m | 6.0m/s | -52.7°C | 3.8% | 41.2hPa | 2.6V | 00:00:00 | 01:36:40 | 08:30:00 | |
| OE8JPQ-2 | 2026-09-01 12:06:20 | 48.34158 | 12.56730 | 349° | 15km/h | 22199m | 4.7m/s | 0°C | 0% | 0hPa | 2.7V | 00:00:00 | 00:00:00 | 08:30:00 | |
| DO3MHA-11 | 2026-09-01 12:06:19 | 48.34155 | 12.56731 | 345° | 11km/h | 22195m | 4.1m/s | -52.7°C | 3.8% | 41.3hPa | 2.7V | 00:00:00 | 01:36:38 | 00:00:00 | |
| BAUMI2-15 | 2026-09-01 12:06:17 | 48.34144 | 12.56734 | 354° | 13km/h | 22179m | 4.3m/s | -52.6°C | 3.7% | 41.4hPa | 2.6V | 00:00:00 | 01:36:35 | 00:00:00 | |
| OE5REO-15 | 2026-09-01 12:06:14 | 48.34138 | 12.56736 | 349° | 7km/h | 22168m | 5.4m/s | -52.7°C | 1.0% | 41.5hPa | 2.6V | 00:00:00 | 00:00:00 | 00:00:00 | |
| DO3MHA-11 | 2026-09-01 12:06:09 | 48.34128 | 12.56729 | 22° | 18km/h | 22142m | 6.0m/s | -52.5°C | 3.8% | 41.7hPa | 2.6V | 00:00:00 | 01:36:28 | 00:00:00 | |
| DO7DH-14 | 2026-09-01 12:06:08 | 48.34125 | 12.56728 | 11° | 18km/h | 22136m | 5.3m/s | -52.4°C | 3.8% | 41.7hPa | 2.6V | 00:00:00 | 01:36:27 | 00:00:00 | |
| BAUMI2-15 | 2026-09-01 12:06:06 | 48.34118 | 12.56726 | 14° | 18km/h | 22127m | 4.8m/s | -52.5°C | 3.7% | 41.7hPa | 2.6V | 00:00:00 | 01:36:25 | 00:00:00 | |
| BAUMI2-15 | 2026-09-01 12:06:01 | 48.34095 | 12.56713 | 17° | 22km/h | 22101m | 4.8m/s | -52.6°C | 3.7% | 41.9hPa | 2.6V | 00:00:00 | 01:36:20 | 00:00:00 | |
| OE8JPQ-2 | 2026-09-01 12:05:59 | 48.34085 | 12.56708 | 19° | 18km/h | 22090m | 5.6m/s | 0°C | 0% | 0hPa | 2.7V | 00:00:00 | 00:00:00 | 00:00:00 | |
| DO3MHA-11 | 2026-09-01 12:05:58 | 48.34079 | 12.56706 | 16° | 20km/h | 22086m | 4.1m/s | -52.5°C | 3.6% | 42.0hPa | 2.7V | 00:00:00 | 01:36:17 | 00:00:00 | |
| OE5REO-15 | 2026-09-01 12:05:57 | 48.34079 | 12.56705 | 17° | 24km/h | 22086m | 4.2m/s | -52.6°C | 1.0% | 42.1hPa | 2.7V | 00:00:00 | 00:00:00 | 00:00:00 | |
| OE5MMP-10 | 2026-09-01 12:05:56 | 48.34069 | 12.56703 | 3° | 18km/h | 22075m | 5.6m/s | -52.4°C | 3.6% | 42.1hPa | 2.7V | 00:00:00 | 01:36:15 | 00:00:00 | |
| OE3JTB-15 | 2026-09-01 12:05:52 | 48.34047 | 12.56698 | 20° | 16km/h | 22050m | 4.7m/s | -52.7°C | 3.8% | 42.3hPa | 2.7V | 00:00:00 | 00:00:00 | 00:00:00 | |
| DO3MHA-11 | 2026-09-01 12:05:48 | 48.34032 | 12.56693 | 6° | 16km/h | 22035m | 4.9m/s | -52.7°C | 3.8% | 42.4hPa | 2.6V | 00:00:00 | 01:36:07 | 00:00:00 | |
| OE5MMP-10 | 2026-09-01 12:05:46 | 48.34022 | 12.56691 | 12° | 15km/h | 22024m | 5.3m/s | -52.8°C | 3.8% | 42.5hPa | 2.7V | 00:00:00 | 01:36:05 | 00:00:00 | |
| OE5DXL-15 | 2026-09-01 12:05:45 | 48.34010 | 12.56690 | 346° | 16km/h | 22009m | 6.6m/s | -53.0°C | 3.7% | 42.5hPa | 2.6V | 00:00:00 | 00:00:00 | 00:00:00 | |
| OE5REO-15 | 2026-09-01 12:05:41 | 48.34007 | 12.56692 | 328° | 15km/h | 22003m | 5.3m/s | -53.0°C | 1.0% | 42.6hPa | 2.6V | 00:00:00 | 00:00:00 | 00:00:00 | |
| OE8JPQ-2 | 2026-09-01 12:05:40 | 48.33999 | 12.56701 | 332° | 16km/h | 21988m | 5.7m/s | 0°C | 0% | 0hPa | 2.6V | 00:00:00 | 01:35:58 | 00:00:00 | |
| DO3MHA-11 | 2026-09-01 12:05:39 | 48.33996 | 12.56703 | 349° | 15km/h | 21983m | 4.8m/s | -52.8°C | 3.9% | 42.7hPa | 2.6V | 00:00:00 | 01:35:57 | 00:00:00 | |
| DO7DH-14 | 2026-09-01 12:05:38 | 48.33996 | 12.56703 | 349° | 16km/h | 21983m | 4.8m/s | -52.8°C | 3.9% | 42.7hPa | 2.6V | 00:00:00 | 01:35:57 | 00:00:00 | |
| OE5MMP-10 | 2026-09-01 12:05:36 | 48.33991 | 12.56703 | 352° | 16km/h | 21974m | 5.5m/s | -52.7°C | 3.9% | 42.8hPa | 2.6V | 00:00:00 | 01:35:55 | 00:00:00 | |
| DO3MHA-11 | 2026-09-01 12:05:28 | 48.33958 | 12.56701 | 8° | 18km/h | 21930m | 5.4m/s | -52.6°C | 3.7% | 43.1hPa | 2.6V | 00:00:00 | 01:35:47 | 00:00:00 | |
| OE5WHR-10 | 2026-09-01 12:05:27 | 48.33953 | 12.56700 | 7° | 16km/h | 21926m | 4.1m/s | -52.6°C | 3.7% | 43.1hPa | 2.6V | 00:00:00 | 00:00:00 | 00:00:00 | |
| OE5MMP-10 | 2026-09-01 12:05:26 | 48.33948 | 12.56699 | 11° | 16km/h | 21921m | 6.0m/s | -52.7°C | 3.7% | 43.1hPa | 2.6V | 00:00:00 | 01:35:45 | 00:00:00 | |
| OE5REO-15 | 2026-09-01 12:05:25 | 48.33948 | 12.56699 | 12° | 20km/h | 21921m | 6.0m/s | -52.7°C | 1.0% | 43.2hPa | 2.6V | 00:00:00 | 00:00:00 | 00:00:00 | |
| DK5PH-5 | 2026-09-01 12:05:24 | 48.33939 | 12.56696 | 10° | 13km/h | 21911m | 4.2m/s | -52.6°C | 3.8% | 43.2hPa | 2.6V | 00:00:00 | 01:35:43 | 00:00:00 | |
| OE3JTB-15 | 2026-09-01 12:05:23 | 48.33926 | 12.56697 | 351° | 13km/h | 21895m | 4.3m/s | -52.2°C | 3.8% | 43.3hPa | 2.6V | 00:00:00 | 00:00:00 | 00:00:00 | |
| OE8JPQ-2 | 2026-09-01 12:05:19 | 48.33919 | 12.56698 | 2° | 15km/h | 21884m | 5.4m/s | 0°C | 0% | 0hPa | 2.6V | 00:00:00 | 00:00:00 | 00:00:00 | |
| DO3MHA-11 | 2026-09-01 12:05:18 | 48.33916 | 12.56698 | 6° | 16km/h | 21879m | 4.6m/s | -52.2°C | 3.7% | 43.4hPa | 2.6V | 00:00:00 | 01:35:37 | 08:30:00 | |
| OE5MMP-10 | 2026-09-01 12:05:16 | 48.33908 | 12.56697 | 4° | 16km/h | 21868m | 4.7m/s | -52.3°C | 3.7% | 43.5hPa | 2.7V | 00:00:00 | 01:35:35 | 00:00:00 | |
| OE5DXL-15 | 2026-09-01 12:05:14 | 48.33891 | 12.56691 | 19° | 15km/h | 21847m | 5.0m/s | -52.5°C | 3.8% | 43.6hPa | 2.6V | 00:00:00 | 00:00:00 | 00:00:00 | |
| OE5REO-15 | 2026-09-01 12:05:09 | 48.33882 | 12.56688 | 3° | 18km/h | 21836m | 4.5m/s | -52.5°C | 1.0% | 43.8hPa | 2.6V | 00:00:00 | 00:00:00 | 00:00:00 | |
| DO3MHA-11 | 2026-09-01 12:05:08 | 48.33874 | 12.56689 | 357° | 9km/h | 21827m | 5.9m/s | -52.2°C | 3.7% | 43.8hPa | 2.6V | 00:00:00 | 01:35:27 | 00:00:00 | |
| OE5MMP-10 | 2026-09-01 12:05:06 | 48.33870 | 12.56689 | 356° | 9km/h | 21816m | 5.0m/s | -52.2°C | 3.7% | 43.8hPa | 2.6V | 00:00:00 | 01:35:25 | 00:00:00 | |
| OE8JPQ-2 | 2026-09-01 12:04:59 | 48.33856 | 12.56687 | 29° | 11km/h | 21780m | 5.2m/s | 0°C | 0% | 0hPa | 2.6V | 00:00:00 | 00:00:00 | 00:00:00 | |
| DO3MHA-11 | 2026-09-01 12:04:58 | 48.33853 | 12.56685 | 19° | 11km/h | 21775m | 5.6m/s | -51.9°C | 3.7% | 44.1hPa | 2.6V | 00:00:00 | 01:35:17 | 00:00:00 | |
| OE5MMP-10 | 2026-09-01 12:04:56 | 48.33847 | 12.56682 | 16° | 11km/h | 21765m | 4.5m/s | -51.8°C | 3.7% | 44.2hPa | 2.6V | 00:00:00 | 01:35:15 | 00:00:00 | |
| DK5PH-5 | 2026-09-01 12:04:54 | 48.33842 | 12.56679 | 36° | 13km/h | 21754m | 4.8m/s | -51.8°C | 3.7% | 44.3hPa | 2.6V | 00:00:00 | 01:35:13 | 00:00:00 | |
| OE5REO-15 | 2026-09-01 12:04:53 | 48.33842 | 12.56679 | 37° | 9km/h | 21754m | 4.8m/s | -51.9°C | 1.0% | 44.3hPa | 2.6V | 00:00:00 | 00:00:00 | 00:00:00 | |
| OE3JTB-15 | 2026-09-01 12:04:52 | 48.33834 | 12.56673 | 26° | 9km/h | 21734m | 5.1m/s | -51.9°C | 3.6% | 44.4hPa | 2.6V | 00:00:00 | 01:35:09 | 00:00:00 | |
| DO3MHA-11 | 2026-09-01 12:04:48 | 48.33829 | 12.56669 | 31° | 11km/h | 21724m | 4.6m/s | -52.0°C | 3.7% | 44.5hPa | 2.6V | 00:00:00 | 01:35:07 | 00:00:00 | |
| OE5MMP-10 | 2026-09-01 12:04:46 | 48.33822 | 12.56664 | 12° | 11km/h | 21714m | 5.6m/s | -51.8°C | 3.6% | 44.6hPa | 2.7V | 00:00:00 | 01:35:05 | 08:30:00 | |
| OE5WHR-10 | 2026-09-01 12:04:45 | 48.33818 | 12.56664 | 4° | 13km/h | 21708m | 4.4m/s | -51.8°C | 3.6% | 44.6hPa | 2.6V | 00:00:00 | 00:00:00 | 00:00:00 | |
| OE5DXL-15 | 2026-09-01 12:04:43 | 48.33809 | 12.56663 | 21° | 13km/h | 21694m | 4.8m/s | -52.0°C | 3.6% | 44.7hPa | 2.7V | 00:00:00 | 00:00:00 | 00:00:00 | |
| DO3MHA-11 | 2026-09-01 12:04:38 | 48.33803 | 12.56653 | 59° | 13km/h | 21674m | 4.2m/s | -51.7°C | 3.6% | 44.8hPa | 2.7V | 00:00:00 | 01:34:57 | 00:00:00 | |
| OE5REO-15 | 2026-09-01 12:04:37 | 48.33803 | 12.56653 | 59° | 13km/h | 21674m | 4.3m/s | -51.8°C | 1.0% | 44.9hPa | 2.7V | 00:00:00 | 00:00:00 | 00:00:00 | |
| OE5MMP-10 | 2026-09-01 12:04:36 | 48.33800 | 12.56644 | 71° | 13km/h | 21663m | 4.5m/s | -51.8°C | 3.6% | 44.9hPa | 2.7V | 00:00:00 | 01:34:55 | 00:00:00 | |
| DO7DH-14 | 2026-09-01 12:04:34 | 48.33797 | 12.56635 | 48° | 15km/h | 21654m | 6.1m/s | -51.8°C | 3.6% | 45.0hPa | 2.7V | 00:00:00 | 01:34:53 | 00:00:00 | |
| DO3MHA-11 | 2026-09-01 12:04:28 | 48.33780 | 12.56624 | 28° | 16km/h | 21623m | 5.2m/s | -51.8°C | 3.6% | 45.2hPa | 2.7V | 00:00:00 | 01:34:47 | 00:00:00 | |
| OE5MMP-10 | 2026-09-01 12:04:26 | 48.33774 | 12.56619 | 32° | 18km/h | 21612m | 3.8m/s | -51.7°C | 3.6% | 45.2hPa | 2.7V | 00:00:00 | 01:34:45 | 00:00:00 | |
| OE5WHR-10 | 2026-09-01 12:04:24 | 48.33768 | 12.56612 | 52° | 15km/h | 21602m | 5.5m/s | -51.9°C | 3.6% | 45.3hPa | 2.7V | 00:00:00 | 00:00:00 | 00:00:00 | |
| OE5REO-15 | 2026-09-01 12:04:23 | 48.33765 | 12.56606 | 54° | 18km/h | 21597m | 5.1m/s | -52.0°C | 1.0% | 45.4hPa | 2.7V | 00:00:00 | 00:00:00 | 00:00:00 | |
| DO3MHA-11 | 2026-09-01 12:04:18 | 48.33747 | 12.56581 | 39° | 15km/h | 21571m | 5.0m/s | -51.8°C | 3.6% | 45.6hPa | 2.7V | 00:00:00 | 01:34:37 | 00:00:00 | |
| OE5MMP-10 | 2026-09-01 12:04:16 | 48.33741 | 12.56576 | 21° | 13km/h | 21562m | 5.1m/s | -51.7°C | 3.6% | 45.6hPa | 2.6V | 00:00:00 | 01:34:35 | 00:00:00 | |
| PG1ADW-2 | 2026-09-01 12:04:15 | 48.33738 | 12.56575 | 10° | 16km/h | 21556m | 5.7m/s | -51.7°C | 3.6% | 45.7hPa | 2.6V | 00:00:00 | 00:00:00 | 00:00:00 | |
| OE5REO-15 | 2026-09-01 12:04:07 | 48.33715 | 12.56568 | 18° | 15km/h | 21520m | 4.8m/s | -52.0°C | 1.0% | 46.0hPa | 2.7V | 00:00:00 | 00:00:00 | 00:00:00 | |
| OE5MMP-10 | 2026-09-01 12:04:06 | 48.33709 | 12.56564 | 31° | 13km/h | 21509m | 5.5m/s | -52.0°C | 3.8% | 46.0hPa | 2.7V | 00:00:00 | 01:34:25 | 00:00:00 | |
| DO7DH-14 | 2026-09-01 12:04:04 | 48.33705 | 12.56560 | 22° | 9km/h | 21500m | 5.0m/s | -51.9°C | 3.7% | 46.1hPa | 2.7V | 00:00:00 | 01:34:23 | 08:30:00 | |
| OE5WHR-10 | 2026-09-01 12:04:03 | 48.33702 | 12.56559 | 12° | 9km/h | 21494m | 5.5m/s | -51.9°C | 3.7% | 46.1hPa | 2.6V | 00:00:00 | 01:34:22 | 00:00:00 | |
| OE5DXL-15 | 2026-09-01 12:04:02 | 48.33691 | 12.56556 | 16° | 11km/h | 21479m | 5.7m/s | -51.9°C | 3.6% | 46.2hPa | 2.6V | 00:00:00 | 00:00:00 | 00:00:00 | |
| OE5DRO-10 | 2026-09-01 12:03:57 | 48.33681 | 12.56551 | 12° | 9km/h | 21464m | 6.0m/s | -52.0°C | 3.6% | 46.3hPa | 2.7V | 00:00:00 | 00:00:00 | 00:00:00 | |
| OE5MMP-10 | 2026-09-01 12:03:56 | 48.33677 | 12.56550 | 9° | 7km/h | 21459m | 4.6m/s | -52.0°C | 3.7% | 46.4hPa | 2.7V | 00:00:00 | 01:34:15 | 00:00:00 | |
| DK5PH-5 | 2026-09-01 12:03:54 | 48.33670 | 12.56548 | 18° | 5km/h | 21448m | 5.9m/s | -51.8°C | 3.7% | 46.4hPa | 2.7V | 00:00:00 | 01:34:13 | 00:00:00 | |
| OE8JPQ-2 | 2026-09-01 12:03:52 | 48.33667 | 12.56545 | 43° | 5km/h | 21438m | 4.4m/s | 0°C | 0% | 0hPa | 2.7V | 00:00:00 | 00:00:00 | 00:00:00 | |
| PETON7-10 | 2026-09-01 12:03:51 | 48.33666 | 12.56543 | 40° | 7km/h | 21433m | 5.8m/s | -51.7°C | 3.7% | 46.5hPa | 2.7V | 00:00:00 | 00:00:00 | 00:00:00 | |
| BAUMI2-15 | 2026-09-01 12:03:50 | 48.33664 | 12.56542 | 28° | 4km/h | 21428m | 5.3m/s | -51.6°C | 3.7% | 46.6hPa | 2.7V | 00:00:00 | 01:34:09 | 00:00:00 | |
| OE5MMP-10 | 2026-09-01 12:03:46 | 48.33662 | 12.56540 | 19° | 5km/h | 21407m | 5.7m/s | -51.7°C | 3.6% | 46.7hPa | 2.7V | 00:00:00 | 01:34:05 | 00:00:00 | |
| BAUMI2-15 | 2026-09-01 12:03:45 | 48.33660 | 12.56539 | 8° | 7km/h | 21402m | 5.2m/s | -51.8°C | 3.6% | 46.8hPa | 2.7V | 00:00:00 | 01:34:04 | 00:00:00 | |
| OE5WHR-10 | 2026-09-01 12:03:42 | 48.33654 | 12.56538 | 28° | 5km/h | 21386m | 5.5m/s | -51.6°C | 3.6% | 46.9hPa | 2.6V | 00:00:00 | 00:00:00 | 00:00:00 | |
| BAUMI2-15 | 2026-09-01 12:03:40 | 48.33653 | 12.56536 | 114° | 4km/h | 21376m | 4.6m/s | -51.6°C | 3.7% | 47.0hPa | 2.6V | 00:00:00 | 01:33:59 | 00:00:00 | |
| OE3JTB-15 | 2026-09-01 12:03:39 | 48.33656 | 12.56532 | 148° | 7km/h | 21356m | 5.7m/s | -51.4°C | 3.7% | 47.1hPa | 2.6V | 00:00:00 | 00:00:00 | 08:30:00 | |
| PETON7-10 | 2026-09-01 12:03:36 | 48.33656 | 12.56532 | 148° | 5km/h | 21356m | 5.7m/s | -51.4°C | 3.7% | 47.1hPa | 2.7V | 00:00:00 | 01:33:55 | 00:00:00 | |
| BAUMI2-15 | 2026-09-01 12:03:35 | 48.33658 | 12.56531 | 148° | 4km/h | 21351m | 3.9m/s | -51.3°C | 3.7% | 47.1hPa | 2.7V | 00:00:00 | 01:33:54 | 00:00:00 | |
| DO7DH-14 | 2026-09-01 12:03:34 | 48.33660 | 12.56529 | 148° | 7km/h | 21347m | 3.9m/s | -51.4°C | 3.6% | 47.2hPa | 2.7V | 00:00:00 | 01:33:53 | 00:00:00 | |
| BAUMI2-15 | 2026-09-01 12:03:30 | 48.33662 | 12.56528 | 28° | 5km/h | 21327m | 4.7m/s | -51.3°C | 3.6% | 47.3hPa | 2.7V | 00:00:00 | 01:33:49 | 08:30:00 | |
| OE5MMP-10 | 2026-09-01 12:03:26 | 48.33661 | 12.56520 | 70° | 9km/h | 21307m | 5.5m/s | -51.2°C | 3.5% | 47.5hPa | 2.6V | 00:00:00 | 01:33:45 | 00:00:00 | |
| OE8JPQ-2 | 2026-09-01 12:03:25 | 48.33660 | 12.56517 | 75° | 9km/h | 21302m | 4.1m/s | 0°C | 0% | 0hPa | 2.6V | 00:00:00 | 01:33:44 | 00:00:00 | |
| DK5PH-5 | 2026-09-01 12:03:24 | 48.33660 | 12.56514 | 97° | 9km/h | 21298m | 4.6m/s | -51.0°C | 3.4% | 47.5hPa | 2.6V | 00:00:00 | 01:33:43 | 00:00:00 | |
| OE5WHR-10 | 2026-09-01 12:03:21 | 48.33664 | 12.56508 | 175° | 7km/h | 21282m | 5.4m/s | -51.1°C | 3.5% | 47.7hPa | 2.6V | 00:00:00 | 00:00:00 | 00:00:00 | |
| PETON7-10 | 2026-09-01 12:03:20 | 48.33666 | 12.56509 | 196° | 9km/h | 21277m | 5.5m/s | -51.1°C | 3.5% | 47.7hPa | 2.6V | 00:00:00 | 00:00:00 | 00:00:00 | |
| DG1MFX-10 | 2026-09-01 12:03:18 | 48.33668 | 12.56510 | 206° | 9km/h | 21272m | 4.1m/s | -51.1°C | 1.0% | 47.8hPa | 2.6V | 00:00:00 | 00:00:00 | 00:00:00 | |
| OE5MMP-10 | 2026-09-01 12:03:16 | 48.33675 | 12.56513 | 180° | 7km/h | 21257m | 4.7m/s | -51.0°C | 3.6% | 47.8hPa | 2.6V | 00:00:00 | 01:33:35 | 08:30:00 | |
| BAUMI2-15 | 2026-09-01 12:03:15 | 48.33677 | 12.56512 | 160° | 7km/h | 21253m | 3.8m/s | -51.0°C | 3.6% | 47.9hPa | 2.6V | 00:00:00 | 01:33:34 | 00:00:00 | |
| BAUMI2-15 | 2026-09-01 12:03:11 | 48.33674 | 12.56503 | 62° | 7km/h | 21227m | 5.4m/s | -51.1°C | 3.5% | 48.0hPa | 2.7V | 00:00:00 | 01:33:29 | 00:00:00 | |
| OE3JTB-15 | 2026-09-01 12:03:10 | 48.33674 | 12.56492 | 134° | 13km/h | 21208m | 4.4m/s | -51.1°C | 3.5% | 48.2hPa | 2.7V | 00:00:00 | 00:00:00 | 00:00:00 | |
| OE5MMP-10 | 2026-09-01 12:03:06 | 48.33674 | 12.56492 | 134° | 9km/h | 21208m | 4.4m/s | -51.1°C | 3.5% | 48.2hPa | 2.7V | 00:00:00 | 01:33:25 | 00:00:00 | |
| BAUMI2-15 | 2026-09-01 12:03:05 | 48.33675 | 12.56490 | 156° | 7km/h | 21203m | 5.4m/s | -51.2°C | 3.6% | 48.2hPa | 2.7V | 00:00:00 | 01:33:24 | 00:00:00 | |
| DO7DH-14 | 2026-09-01 12:03:04 | 48.33677 | 12.56489 | 158° | 15km/h | 21198m | 5.0m/s | -51.2°C | 3.6% | 48.3hPa | 2.7V | 00:00:00 | 01:33:23 | 00:00:00 | |
| OE5WHR-10 | 2026-09-01 12:03:00 | 48.33683 | 12.56483 | 79° | 16km/h | 21179m | 4.3m/s | -51.1°C | 3.5% | 48.4hPa | 2.7V | 00:00:00 | 01:33:19 | 00:00:00 | |
| DG1MFX-10 | 2026-09-01 12:02:57 | 48.33681 | 12.56476 | 73° | 13km/h | 21169m | 5.5m/s | -51.3°C | 1.0% | 48.6hPa | 2.7V | 00:00:00 | 00:00:00 | 00:00:00 | |
| OE5MMP-10 | 2026-09-01 12:02:56 | 48.33679 | 12.56465 | 66° | 13km/h | 21158m | 5.7m/s | -51.0°C | 3.5% | 48.6hPa | 2.7V | 00:00:00 | 01:33:15 | 00:00:00 | |
| BAUMI2-15 | 2026-09-01 12:02:55 | 48.33677 | 12.56459 | 63° | 16km/h | 21153m | 5.0m/s | -50.9°C | 3.5% | 48.6hPa | 2.7V | 00:00:00 | 01:33:14 | 00:00:00 | |
| DK5PH-5 | 2026-09-01 12:02:54 | 48.33675 | 12.56453 | 67° | 20km/h | 21149m | 3.7m/s | -50.9°C | 3.5% | 48.6hPa | 2.7V | 00:00:00 | 01:33:13 | 00:00:00 | |
| BAUMI2-15 | 2026-09-01 12:02:50 | 48.33673 | 12.56432 | 94° | 11km/h | 21128m | 6.0m/s | -50.8°C | 3.5% | 48.8hPa | 2.6V | 00:00:00 | 01:33:09 | 00:00:00 | |
| DO3MHA-11 | 2026-09-01 12:02:49 | 48.33673 | 12.56429 | 89° | 15km/h | 21123m | 4.8m/s | -50.8°C | 3.5% | 48.9hPa | 2.6V | 00:00:00 | 01:33:08 | 00:00:00 | |
| OE5DRO-10 | 2026-09-01 12:02:48 | 48.33673 | 12.56421 | 86° | 24km/h | 21113m | 5.6m/s | -50.7°C | 3.4% | 48.9hPa | 2.6V | 00:00:00 | 00:00:00 | 00:00:00 | |
| OE5MMP-10 | 2026-09-01 12:02:46 | 48.33672 | 12.56415 | 78° | 22km/h | 21108m | 4.4m/s | -50.6°C | 3.4% | 49.0hPa | 2.6V | 00:00:00 | 01:33:05 | 00:00:00 | |
| BAUMI2-15 | 2026-09-01 12:02:45 | 48.33671 | 12.56409 | 70° | 24km/h | 21103m | 5.8m/s | -50.7°C | 3.3% | 49.0hPa | 2.6V | 00:00:00 | 01:33:04 | 08:30:00 | |
| BAUMI2-15 | 2026-09-01 12:02:40 | 48.33660 | 12.56366 | 85° | 20km/h | 21077m | 5.2m/s | -50.8°C | 3.4% | 49.2hPa | 2.7V | 00:00:00 | 01:32:59 | 00:00:00 | |
| OE5WHR-10 | 2026-09-01 12:02:39 | 48.33660 | 12.56357 | 92° | 26km/h | 21072m | 4.1m/s | -50.8°C | 3.4% | 49.2hPa | 2.7V | 00:00:00 | 00:00:00 | 08:30:00 | |
| DO3MHA-11 | 2026-09-01 12:02:36 | 48.33660 | 12.56336 | 93° | 27km/h | 21056m | 4.7m/s | -50.9°C | 3.4% | 49.3hPa | 2.6V | 00:00:00 | 01:32:55 | 00:00:00 | |
| PETON7-10 | 2026-09-01 12:02:35 | 48.33660 | 12.56332 | 91° | 27km/h | 21052m | 4.6m/s | -50.9°C | 3.4% | 49.4hPa | 2.6V | 00:00:00 | 00:00:00 | 08:30:00 | |
| DO7DH-14 | 2026-09-01 12:02:34 | 48.33660 | 12.56327 | 93° | 31km/h | 21046m | 5.6m/s | -51.0°C | 3.5% | 49.4hPa | 2.6V | 00:00:00 | 01:32:53 | 00:00:00 | |
| OE5REO-15 | 2026-09-01 12:02:32 | 48.33660 | 12.56321 | 91° | 16km/h | 21042m | 4.3m/s | -51.1°C | 1.0% | 49.5hPa | 2.6V | 00:00:00 | 00:00:00 | 00:00:00 | |
| DG1MFX-10 | 2026-09-01 12:02:31 | 48.33660 | 12.56314 | 80° | 20km/h | 21038m | 3.5m/s | -51.2°C | 1.0% | 49.6hPa | 2.6V | 00:00:00 | 00:00:00 | 00:00:00 | |
| BAUMI2-15 | 2026-09-01 12:02:30 | 48.33656 | 12.56298 | 63° | 37km/h | 21028m | 5.6m/s | -51.3°C | 3.6% | 49.6hPa | 2.6V | 00:00:00 | 01:32:49 | 00:00:00 | |
| OE5MMP-10 | 2026-09-01 12:02:26 | 48.33641 | 12.56249 | 74° | 33km/h | 21007m | 4.2m/s | -51.6°C | 3.6% | 49.7hPa | 2.6V | 00:00:00 | 01:32:45 | 00:00:00 | |
| BAUMI2-15 | 2026-09-01 12:02:25 | 48.33638 | 12.56235 | 75° | 31km/h | 21002m | 4.5m/s | -51.6°C | 3.6% | 49.8hPa | 2.6V | 00:00:00 | 01:32:44 | 00:00:00 | |
| DK5PH-5 | 2026-09-01 12:02:24 | 48.33636 | 12.56222 | 75° | 31km/h | 20997m | 5.8m/s | -51.4°C | 3.5% | 49.8hPa | 2.6V | 00:00:00 | 01:32:43 | 00:00:00 | |
| PETON7-10 | 2026-09-01 12:02:20 | 48.33628 | 12.56178 | 75° | 33km/h | 20976m | 3.9m/s | -51.3°C | 3.5% | 50.0hPa | 2.6V | 00:00:00 | 00:00:00 | 00:00:00 | |
| OE5WHR-10 | 2026-09-01 12:02:18 | 48.33622 | 12.56157 | 61° | 31km/h | 20967m | 5.7m/s | -51.2°C | 3.5% | 50.0hPa | 2.6V | 00:00:00 | 00:00:00 | 00:00:00 | |
| OE5REO-15 | 2026-09-01 12:02:17 | 48.33622 | 12.56157 | 61° | 31km/h | 20967m | 5.8m/s | -51.2°C | 1.0% | 50.1hPa | 2.6V | 00:00:00 | 00:00:00 | 00:00:00 | |
| OE5FHM-15 | 2026-09-01 12:02:16 | 48.33612 | 12.56136 | 51° | 27km/h | 20957m | 4.4m/s | -51.2°C | 3.6% | 50.1hPa | 2.6V | 00:00:00 | 01:32:35 | 00:00:00 | |
| BAUMI2-15 | 2026-09-01 12:02:15 | 48.33607 | 12.56126 | 53° | 35km/h | 20953m | 5.3m/s | -51.0°C | 3.5% | 50.2hPa | 2.6V | 00:00:00 | 01:32:34 | 00:00:00 | |
| DO3MHA-11 | 2026-09-01 12:02:14 | 48.33602 | 12.56115 | 59° | 33km/h | 20947m | 4.9m/s | -51.0°C | 3.6% | 50.2hPa | 2.6V | 00:00:00 | 01:32:33 | 08:30:00 | |
| BAUMI2-15 | 2026-09-01 12:02:10 | 48.33586 | 12.56068 | 68° | 31km/h | 20929m | 4.4m/s | -51.3°C | 3.5% | 50.3hPa | 2.6V | 00:00:00 | 01:32:29 | 00:00:00 | |
| OE5MMP-10 | 2026-09-01 12:02:06 | 48.33579 | 12.56023 | 82° | 29km/h | 20909m | 3.9m/s | -51.4°C | 3.5% | 50.5hPa | 2.6V | 00:00:00 | 01:32:25 | 00:00:00 | |
| OE5HKT-10 | 2026-09-01 12:02:05 | 48.33575 | 12.56000 | 72° | 26km/h | 20899m | 4.7m/s | -51.2°C | 3.4% | 50.6hPa | 2.6V | 00:00:00 | 01:32:23 | 00:00:00 | |
| PETON7-10 | 2026-09-01 12:02:04 | 48.33575 | 12.56000 | 72° | 26km/h | 20899m | 4.7m/s | -51.2°C | 3.4% | 50.6hPa | 2.6V | 00:00:00 | 01:32:23 | 00:00:00 | |
| DO7DH-14 | 2026-09-01 12:02:03 | 48.33573 | 12.55990 | 71° | 24km/h | 20894m | 4.7m/s | -51.3°C | 3.4% | 50.6hPa | 2.6V | 00:00:00 | 01:32:22 | 00:00:00 | |
| OE5REO-15 | 2026-09-01 12:02:01 | 48.33570 | 12.55979 | 71° | 31km/h | 20889m | 5.8m/s | -51.4°C | 1.0% | 50.7hPa | 2.6V | 00:00:00 | 00:00:00 | 00:00:00 | |
| BAUMI2-15 | 2026-09-01 12:02:00 | 48.33565 | 12.55956 | 68° | 26km/h | 20879m | 5.1m/s | -51.3°C | 3.5% | 50.7hPa | 2.6V | 00:00:00 | 01:32:19 | 08:30:00 | |
| OE5WHR-10 | 2026-09-01 12:01:57 | 48.33557 | 12.55928 | 72° | 22km/h | 20864m | 5.1m/s | -51.4°C | 3.5% | 50.9hPa | 2.6V | 00:00:00 | 01:32:16 | 00:00:00 | |
| OE5MMP-10 | 2026-09-01 12:01:56 | 48.33555 | 12.55919 | 80° | 22km/h | 20859m | 5.4m/s | -51.4°C | 3.5% | 50.9hPa | 2.6V | 00:00:00 | 01:32:15 | 00:00:00 | |
| BAUMI2-15 | 2026-09-01 12:01:55 | 48.33555 | 12.55911 | 86° | 18km/h | 20854m | 4.5m/s | -51.4°C | 3.5% | 51.0hPa | 2.6V | 00:00:00 | 01:32:14 | 00:00:00 | |
| DK5PH-5 | 2026-09-01 12:01:54 | 48.33554 | 12.55903 | 86° | 20km/h | 20849m | 5.3m/s | -51.5°C | 3.5% | 51.0hPa | 2.6V | 00:00:00 | 01:32:13 | 00:00:00 | |
| PETON7-10 | 2026-09-01 12:01:49 | 48.33548 | 12.55864 | 71° | 22km/h | 20823m | 4.6m/s | -51.8°C | 3.6% | 51.2hPa | 2.6V | 00:00:00 | 00:00:00 | 00:00:00 | |
| OE5MMP-10 | 2026-09-01 12:01:46 | 48.33539 | 12.55839 | 56° | 22km/h | 20808m | 4.7m/s | -51.7°C | 3.6% | 51.3hPa | 2.7V | 00:00:00 | 01:32:05 | 08:30:00 | |
| DG1MFX-10 | 2026-09-01 12:01:42 | 48.33532 | 12.55816 | 75° | 22km/h | 20794m | 4.0m/s | -51.8°C | 1.1% | 51.5hPa | 2.7V | 00:00:00 | 00:00:00 | 00:00:00 | |
| OE5HKT-10 | 2026-09-01 12:01:40 | 48.33527 | 12.55795 | 66° | 20km/h | 20781m | 4.9m/s | -51.7°C | 3.5% | 51.5hPa | 2.7V | 00:00:00 | 00:00:00 | 00:00:00 | |
| OE5WHR-10 | 2026-09-01 12:01:36 | 48.33518 | 12.55764 | 64° | 18km/h | 20761m | 3.9m/s | -51.8°C | 3.4% | 51.7hPa | 2.6V | 00:00:00 | 00:00:00 | 00:00:00 | |
| PETON7-10 | 2026-09-01 12:01:34 | 48.33512 | 12.55751 | 49° | 16km/h | 20751m | 5.0m/s | -51.7°C | 3.4% | 51.8hPa | 2.6V | 00:00:00 | 00:00:00 | 00:00:00 | |
| DO7DH-14 | 2026-09-01 12:01:33 | 48.33509 | 12.55746 | 45° | 22km/h | 20747m | 4.6m/s | -51.8°C | 3.4% | 51.8hPa | 2.6V | 00:00:00 | 01:31:52 | 00:00:00 | |
| OE5REO-15 | 2026-09-01 12:01:32 | 48.33506 | 12.55742 | 50° | 16km/h | 20741m | 5.6m/s | -51.9°C | 1.0% | 51.9hPa | 2.6V | 00:00:00 | 00:00:00 | 00:00:00 | |
| OE5MMP-10 | 2026-09-01 12:01:26 | 48.33498 | 12.55715 | 80° | 20km/h | 20711m | 5.6m/s | -52.4°C | 3.6% | 52.1hPa | 2.6V | 00:00:00 | 01:31:45 | 00:00:00 | |
| DK5PH-5 | 2026-09-01 12:01:24 | 48.33496 | 12.55701 | 74° | 22km/h | 20703m | 3.8m/s | -52.8°C | 3.7% | 52.1hPa | 2.6V | 00:00:00 | 01:31:43 | 00:00:00 | |
| DG1MFX-10 | 2026-09-01 12:01:22 | 48.33492 | 12.55689 | 50° | 18km/h | 20693m | 4.9m/s | -53.2°C | 1.1% | 52.3hPa | 2.6V | 00:00:00 | 00:00:00 | 00:00:00 | |
| PETON7-10 | 2026-09-01 12:01:19 | 48.33479 | 12.55674 | 37° | 24km/h | 20678m | 4.2m/s | -53.2°C | 3.8% | 52.4hPa | 2.6V | 00:00:00 | 01:31:38 | 00:00:00 | |
| OE5MMP-10 | 2026-09-01 12:01:16 | 48.33465 | 12.55661 | 31° | 24km/h | 20664m | 4.4m/s | -53.2°C | 3.7% | 52.5hPa | 2.6V | 00:00:00 | 01:31:35 | 00:00:00 | |
| OE5WHR-10 | 2026-09-01 12:01:15 | 48.33461 | 12.55657 | 38° | 24km/h | 20660m | 3.4m/s | -53.3°C | 3.8% | 52.5hPa | 2.7V | 00:00:00 | 00:00:00 | 00:00:00 | |
| OE5DXL-15 | 2026-09-01 12:01:11 | 48.33438 | 12.55614 | 46° | 20km/h | 20631m | 4.2m/s | 0°C | 0% | 0hPa | 2.7V | 00:00:00 | 00:00:00 | 00:00:00 | |
| OE5MMP-10 | 2026-09-01 12:01:06 | 48.33425 | 12.55593 | 47° | 22km/h | 20617m | 4.4m/s | -53.2°C | 3.9% | 52.8hPa | 2.7V | 00:00:00 | 01:31:25 | 00:00:00 | |
| PETON7-10 | 2026-09-01 12:01:04 | 48.33415 | 12.55580 | 38° | 22km/h | 20608m | 5.2m/s | -53.3°C | 3.8% | 52.9hPa | 2.7V | 00:00:00 | 00:00:00 | 00:00:00 | |
| DO7DH-14 | 2026-09-01 12:01:01 | 48.33403 | 12.55566 | 45° | 18km/h | 20594m | 5.2m/s | -53.5°C | 4.0% | 53.0hPa | 2.6V | 00:00:00 | 01:31:20 | 00:00:00 | |
| OE5REO-15 | 2026-09-01 12:01:00 | 48.33403 | 12.55566 | 46° | 20km/h | 20594m | 5.3m/s | -53.5°C | 1.1% | 53.1hPa | 2.6V | 00:00:00 | 00:00:00 | 00:00:00 | |
| DG1MFX-10 | 2026-09-01 12:00:59 | 48.33399 | 12.55560 | 58° | 22km/h | 20589m | 5.1m/s | -53.4°C | 1.1% | 53.1hPa | 2.6V | 00:00:00 | 00:00:00 | 00:00:00 | |
| OE5HKT-10 | 2026-09-01 12:00:58 | 48.33395 | 12.55545 | 70° | 20km/h | 20580m | 4.9m/s | -53.3°C | 3.9% | 53.2hPa | 2.6V | 00:00:00 | 01:31:17 | 00:00:00 | |
| OE5MMP-10 | 2026-09-01 12:00:56 | 48.33391 | 12.55531 | 66° | 20km/h | 20570m | 4.4m/s | -53.4°C | 3.9% | 53.2hPa | 2.6V | 00:00:00 | 01:31:15 | 00:00:00 | |
| OE5WHR-10 | 2026-09-01 12:00:54 | 48.33386 | 12.55517 | 60° | 18km/h | 20561m | 5.3m/s | -53.5°C | 3.9% | 53.3hPa | 2.6V | 00:00:00 | 01:31:13 | 00:00:00 | |
| PETON7-10 | 2026-09-01 12:00:49 | 48.33369 | 12.55486 | 49° | 16km/h | 20538m | 4.2m/s | -53.2°C | 3.9% | 53.5hPa | 2.6V | 00:00:00 | 00:00:00 | 00:00:00 | |
| OE5MMP-10 | 2026-09-01 12:00:46 | 48.33363 | 12.55468 | 76° | 16km/h | 20524m | 3.7m/s | -53.2°C | 4.0% | 53.6hPa | 2.6V | 00:00:00 | 01:31:05 | 00:00:00 | |
| OE5REO-15 | 2026-09-01 12:00:45 | 48.33363 | 12.55468 | 77° | 20km/h | 20524m | 3.7m/s | -53.3°C | 1.1% | 53.7hPa | 2.7V | 00:00:00 | 00:00:00 | 00:00:00 | |
| DG1MFX-10 | 2026-09-01 12:00:39 | 48.33358 | 12.55431 | 77° | 20km/h | 20496m | 4.4m/s | -53.1°C | 1.1% | 53.9hPa | 2.7V | 00:00:00 | 00:00:00 | 00:00:00 | |
| OE5MMP-10 | 2026-09-01 12:00:36 | 48.33353 | 12.55405 | 66° | 16km/h | 20479m | 3.9m/s | -53.2°C | 3.8% | 54.0hPa | 2.7V | 00:00:00 | 01:30:55 | 00:00:00 | |
| PETON7-10 | 2026-09-01 12:00:34 | 48.33350 | 12.55395 | 62° | 18km/h | 20469m | 4.7m/s | -53.0°C | 3.7% | 54.1hPa | 2.7V | 00:00:00 | 01:30:53 | 00:00:00 | |
| OE5WHR-10 | 2026-09-01 12:00:33 | 48.33348 | 12.55389 | 63° | 18km/h | 20465m | 4.2m/s | -53.1°C | 3.7% | 54.1hPa | 2.7V | 00:00:00 | 00:00:00 | 00:00:00 | |
| DO7DH-14 | 2026-09-01 12:00:31 | 48.33344 | 12.55378 | 68° | 22km/h | 20456m | 5.3m/s | -52.7°C | 3.7% | 54.2hPa | 2.6V | 00:00:00 | 01:30:50 | 00:00:00 | |
| OE5REO-15 | 2026-09-01 12:00:29 | 48.33343 | 12.55373 | 83° | 13km/h | 20451m | 4.3m/s | -52.7°C | 1.0% | 54.3hPa | 2.6V | 00:00:00 | 00:00:00 | 00:00:00 | |
| OE5MMP-10 | 2026-09-01 12:00:27 | 48.33347 | 12.55350 | 115° | 20km/h | 20432m | 4.5m/s | -52.5°C | 3.8% | 54.4hPa | 2.6V | 00:00:00 | 01:30:45 | 00:00:00 | |
| DK5PH-5 | 2026-09-01 12:00:24 | 48.33351 | 12.55337 | 116° | 22km/h | 20423m | 3.8m/s | -52.5°C | 3.7% | 54.5hPa | 2.6V | 00:00:00 | 01:30:43 | 00:00:00 | |
| DG1MFX-10 | 2026-09-01 12:00:19 | 48.33353 | 12.55299 | 81° | 22km/h | 20399m | 5.7m/s | -52.9°C | 1.1% | 54.7hPa | 2.6V | 00:00:00 | 00:00:00 | 00:00:00 | |
| OE5FHM-15 | 2026-09-01 12:00:17 | 48.33352 | 12.55276 | 92° | 20km/h | 20385m | 5.7m/s | -52.8°C | 3.8% | 54.8hPa | 2.6V | 00:00:00 | 01:30:35 | 08:30:00 | |
| OE5REO-15 | 2026-09-01 12:00:14 | 48.33354 | 12.55260 | 108° | 22km/h | 20375m | 5.0m/s | -52.8°C | 1.1% | 55.0hPa | 2.7V | 00:00:00 | 00:00:00 | 00:00:00 | |
| OE5WHR-10 | 2026-09-01 12:00:12 | 48.33358 | 12.55246 | 119° | 22km/h | 20365m | 3.4m/s | -52.7°C | 3.8% | 55.0hPa | 2.7V | 00:00:00 | 00:00:00 | 00:00:00 | |
| DL6DJ-15 | 2026-09-01 12:00:11 | 48.33363 | 12.55231 | 115° | 26km/h | 20357m | 5.1m/s | -52.8°C | 1.1% | 55.1hPa | 2.7V | 00:00:00 | 00:00:00 | 00:00:00 | |
| OE5MMP-10 | 2026-09-01 12:00:06 | 48.33371 | 12.55192 | 100° | 22km/h | 20339m | 5.2m/s | -52.6°C | 3.6% | 55.2hPa | 2.7V | 00:00:00 | 01:30:25 | 00:00:00 | |
| PETON7-10 | 2026-09-01 12:00:04 | 48.33373 | 12.55174 | 98° | 20km/h | 20330m | 4.5m/s | -52.7°C | 3.5% | 55.3hPa | 2.7V | 00:00:00 | 00:00:00 | 00:00:00 | |
| DO7DH-14 | 2026-09-01 12:00:01 | 48.33375 | 12.55148 | 97° | 18km/h | 20316m | 5.3m/s | -52.9°C | 3.6% | 55.4hPa | 2.7V | 00:00:00 | 01:30:20 | 00:00:00 | |
| OE5DRO-10 | 2026-09-01 12:00:00 | 48.33375 | 12.55140 | 95° | 18km/h | 20311m | 4.7m/s | -52.9°C | 3.7% | 55.4hPa | 2.7V | 00:00:00 | 00:00:00 | 00:00:00 | |
| OE5REO-15 | 2026-09-01 11:59:59 | 48.33376 | 12.55133 | 97° | 18km/h | 20307m | 3.8m/s | -52.9°C | 1.1% | 55.5hPa | 2.7V | 00:00:00 | 00:00:00 | 00:00:00 | |
| DG1MFX-10 | 2026-09-01 11:59:57 | 48.33377 | 12.55127 | 102° | 18km/h | 20303m | 4.9m/s | -52.9°C | 1.1% | 55.6hPa | 2.7V | 00:00:00 | 00:00:00 | 00:00:00 | |
| OE5MMP-10 | 2026-09-01 11:59:56 | 48.33379 | 12.55112 | 107° | 16km/h | 20294m | 3.4m/s | -53.0°C | 3.8% | 55.6hPa | 2.7V | 00:00:00 | 01:30:15 | 00:00:00 | |
| DK5PH-5 | 2026-09-01 11:59:55 | 48.33381 | 12.55098 | 99° | 18km/h | 20284m | 4.6m/s | 0°C | 0% | 0hPa | 2.7V | 00:00:00 | 01:30:13 | 08:30:00 | |
| OE5WHR-10 | 2026-09-01 11:59:51 | 48.33383 | 12.55075 | 95° | 16km/h | 20271m | 3.4m/s | -53.2°C | 3.8% | 55.8hPa | 2.7V | 00:00:00 | 01:30:10 | 00:00:00 | |
| PETON7-10 | 2026-09-01 11:59:50 | 48.33383 | 12.55062 | 88° | 16km/h | 20262m | 5.6m/s | -53.2°C | 3.7% | 55.9hPa | 2.7V | 00:00:00 | 01:30:08 | 00:00:00 | |
| BAUMI2-15 | 2026-09-01 11:59:49 | 48.33383 | 12.55058 | 87° | 9km/h | 20257m | 4.8m/s | -53.2°C | 3.7% | 55.9hPa | 2.7V | 00:00:00 | 01:30:07 | 00:00:00 | |
| OE5FHM-15 | 2026-09-01 11:59:46 | 48.33384 | 12.55051 | 108° | 20km/h | 20247m | 4.8m/s | -53.2°C | 3.6% | 56.0hPa | 2.7V | 00:00:00 | 01:30:05 | 00:00:00 | |
| OE5MMP-10 | 2026-09-01 11:59:44 | 48.33385 | 12.55044 | 108° | 20km/h | 20239m | 4.6m/s | -53.3°C | 3.7% | 56.1hPa | 2.7V | 00:00:00 | 01:30:03 | 00:00:00 | |
| OE5REO-15 | 2026-09-01 11:59:43 | 48.33385 | 12.55041 | 92° | 9km/h | 20234m | 4.6m/s | -53.4°C | 1.1% | 56.2hPa | 2.5V | 00:00:00 | 00:00:00 | 00:00:00 | |
| OE5HKT-10 | 2026-09-01 11:59:40 | 48.33382 | 12.55023 | 76° | 20km/h | 20221m | 5.2m/s | -53.3°C | 3.7% | 56.2hPa | 2.5V | 00:00:00 | 00:00:00 | 00:00:00 | |
| BAUMI2-15 | 2026-09-01 11:59:39 | 48.33378 | 12.55004 | 67° | 24km/h | 20213m | 3.4m/s | -53.5°C | 3.7% | 56.3hPa | 2.5V | 00:00:00 | 01:29:57 | 00:00:00 | |
| DG1MFX-10 | 2026-09-01 11:59:37 | 48.33375 | 12.54995 | 61° | 27km/h | 20209m | 5.0m/s | -53.7°C | 1.1% | 56.4hPa | 2.5V | 00:00:00 | 00:00:00 | 00:00:00 | |
| OE5MMP-10 | 2026-09-01 11:59:34 | 48.33364 | 12.54977 | 39° | 20km/h | 20196m | 4.5m/s | -54.2°C | 4.0% | 56.5hPa | 2.5V | 00:00:00 | 01:29:53 | 00:00:00 | |
| BAUMI2-15 | 2026-09-01 11:59:33 | 48.33361 | 12.54973 | 43° | 16km/h | 20191m | 4.6m/s | -54.3°C | 4.0% | 56.5hPa | 2.5V | 00:00:00 | 01:29:52 | 00:00:00 | |
| DO3MHA-11 | 2026-09-01 11:59:31 | 48.33355 | 12.54964 | 42° | 20km/h | 20182m | 4.9m/s | -54.3°C | 4.1% | 56.6hPa | 2.5V | 00:00:00 | 01:29:50 | 00:00:00 | |
| OE5WHR-10 | 2026-09-01 11:59:30 | 48.33352 | 12.54960 | 39° | 20km/h | 20177m | 4.8m/s | -54.3°C | 4.1% | 56.6hPa | 2.5V | 00:00:00 | 00:00:00 | 08:30:00 | |
| BAUMI2-15 | 2026-09-01 11:59:28 | 48.33345 | 12.54950 | 47° | 22km/h | 20168m | 5.3m/s | -54.1°C | 4.0% | 56.7hPa | 2.6V | 00:00:00 | 01:29:47 | 00:00:00 | |
| OE5REO-15 | 2026-09-01 11:59:26 | 48.33337 | 12.54937 | 49° | 24km/h | 20159m | 4.2m/s | -54.2°C | 1.1% | 56.9hPa | 2.7V | 00:00:00 | 00:00:00 | 00:00:00 | |
| DK5PH-5 | 2026-09-01 11:59:24 | 48.33329 | 12.54925 | 42° | 18km/h | 20150m | 4.2m/s | 0°C | 0% | 0hPa | 2.7V | 00:00:00 | 01:29:43 | 00:00:00 | |
| BAUMI2-15 | 2026-09-01 11:59:23 | 48.33325 | 12.54919 | 44° | 20km/h | 20145m | 4.8m/s | -54.0°C | 3.9% | 56.9hPa | 2.7V | 00:00:00 | 01:29:42 | 00:00:00 | |
| DO3MHA-11 | 2026-09-01 11:59:21 | 48.33318 | 12.54909 | 49° | 16km/h | 20136m | 3.8m/s | -54.1°C | 4.0% | 57.0hPa | 2.7V | 00:00:00 | 01:29:40 | 00:00:00 | |
| PG1ADW-2 | 2026-09-01 11:59:20 | 48.33315 | 12.54904 | 45° | 20km/h | 20131m | 5.3m/s | -54.0°C | 3.9% | 57.0hPa | 2.7V | 00:00:00 | 00:00:00 | 00:00:00 | |
| PETON7-10 | 2026-09-01 11:59:19 | 48.33311 | 12.54899 | 42° | 20km/h | 20126m | 4.3m/s | -54.0°C | 3.8% | 57.1hPa | 2.7V | 00:00:00 | 00:00:00 | 00:00:00 | |
| BAUMI2-15 | 2026-09-01 11:59:18 | 48.33307 | 12.54893 | 45° | 22km/h | 20122m | 3.6m/s | -54.0°C | 3.9% | 57.1hPa | 2.7V | 00:00:00 | 01:29:37 | 00:00:00 | |
| OE5FHM-15 | 2026-09-01 11:59:16 | 48.33301 | 12.54881 | 57° | 16km/h | 20113m | 4.1m/s | -54.2°C | 4.0% | 57.2hPa | 2.7V | 00:00:00 | 01:29:35 | 00:00:00 | |
| DG1MFX-10 | 2026-09-01 11:59:15 | 48.33298 | 12.54874 | 58° | 22km/h | 20109m | 3.9m/s | -54.1°C | 1.2% | 57.3hPa | 2.7V | 00:00:00 | 00:00:00 | 00:00:00 | |
| OE5MMP-10 | 2026-09-01 11:59:14 | 48.33295 | 12.54868 | 55° | 20km/h | 20104m | 5.2m/s | -54.0°C | 3.9% | 57.3hPa | 2.7V | 00:00:00 | 01:29:33 | 00:00:00 | |
| BAUMI2-15 | 2026-09-01 11:59:13 | 48.33292 | 12.54861 | 54° | 20km/h | 20099m | 3.9m/s | -54.1°C | 3.9% | 57.3hPa | 2.5V | 00:00:00 | 01:29:32 | 08:30:00 | |
| OE5REO-15 | 2026-09-01 11:59:10 | 48.33286 | 12.54848 | 65° | 22km/h | 20090m | 5.1m/s | -54.3°C | 1.1% | 57.4hPa | 2.7V | 00:00:00 | 00:00:00 | 00:00:00 | |
| DL6DJ-15 | 2026-09-01 11:59:09 | 48.33279 | 12.54827 | 56° | 20km/h | 20076m | 4.8m/s | -54.4°C | 1.1% | 57.6hPa | 2.7V | 00:00:00 | 00:00:00 | 00:00:00 | |
| OE5WHR-10 | 2026-09-01 11:59:08 | 48.33279 | 12.54827 | 57° | 16km/h | 20076m | 4.7m/s | -54.3°C | 3.9% | 57.5hPa | 2.7V | 00:00:00 | 00:00:00 | 00:00:00 | |
| BAUMI2-15 | 2026-09-01 11:59:07 | 48.33276 | 12.54821 | 58° | 20km/h | 20071m | 4.2m/s | -54.5°C | 4.0% | 57.6hPa | 2.7V | 00:00:00 | 01:29:26 | 00:00:00 | |
| OE5MMP-10 | 2026-09-01 11:59:04 | 48.33269 | 12.54800 | 77° | 15km/h | 20057m | 3.5m/s | -54.6°C | 4.0% | 57.7hPa | 2.7V | 00:00:00 | 01:29:23 | 00:00:00 | |
| BAUMI2-15 | 2026-09-01 11:59:02 | 48.33268 | 12.54787 | 79° | 15km/h | 20048m | 4.9m/s | -54.5°C | 4.0% | 57.8hPa | 2.7V | 00:00:00 | 01:29:21 | 00:00:00 | |
| DO7DH-14 | 2026-09-01 11:59:01 | 48.33267 | 12.54782 | 85° | 15km/h | 20043m | 4.1m/s | -54.5°C | 3.9% | 57.9hPa | 2.7V | 00:00:00 | 01:29:20 | 00:00:00 | |
| PG1ADW-2 | 2026-09-01 11:59:00 | 48.33267 | 12.54777 | 92° | 15km/h | 20039m | 5.2m/s | -54.6°C | 3.9% | 57.9hPa | 2.7V | 00:00:00 | 01:29:19 | 00:00:00 | |
| BAUMI2-15 | 2026-09-01 11:58:57 | 48.33267 | 12.54762 | 81° | 13km/h | 20024m | 5.7m/s | -54.4°C | 4.0% | 58.0hPa | 2.7V | 00:00:00 | 01:29:16 | 00:00:00 | |
| OE5MMP-10 | 2026-09-01 11:58:54 | 48.33264 | 12.54749 | 69° | 15km/h | 20010m | 4.5m/s | -54.3°C | 3.9% | 58.1hPa | 2.5V | 00:00:00 | 01:29:13 | 00:00:00 | |
| DG1MFX-10 | 2026-09-01 11:58:53 | 48.33264 | 12.54749 | 69° | 13km/h | 20010m | 4.6m/s | -54.4°C | 1.1% | 58.2hPa | 2.5V | 00:00:00 | 00:00:00 | 00:00:00 | |
| BAUMI2-15 | 2026-09-01 11:58:52 | 48.33263 | 12.54738 | 94° | 15km/h | 20000m | 4.6m/s | -54.4°C | 4.0% | 58.2hPa | 2.5V | 00:00:00 | 01:29:11 | 00:00:00 | |
| PETON7-10 | 2026-09-01 11:58:49 | 48.33264 | 12.54721 | 102° | 15km/h | 19986m | 4.7m/s | -54.6°C | 4.1% | 58.3hPa | 2.5V | 00:00:00 | 00:00:00 | 00:00:00 | |
| DO3MHA-11 | 2026-09-01 11:58:47 | 48.33267 | 12.54711 | 117° | 15km/h | 19976m | 5.7m/s | -54.8°C | 4.1% | 58.4hPa | 2.7V | 00:00:00 | 01:29:06 | 00:00:00 | |
| OE5FHM-15 | 2026-09-01 11:58:46 | 48.33269 | 12.54706 | 121° | 11km/h | 19971m | 4.5m/s | -54.9°C | 4.2% | 58.5hPa | 2.7V | 00:00:00 | 01:29:05 | 00:00:00 | |
| OE5MMP-10 | 2026-09-01 11:58:44 | 48.33272 | 12.54697 | 113° | 15km/h | 19962m | 5.4m/s | -55.0°C | 4.2% | 58.6hPa | 2.5V | 00:00:00 | 01:29:03 | 08:30:00 | |
| BAUMI2-15 | 2026-09-01 11:58:42 | 48.33273 | 12.54688 | 89° | 15km/h | 19953m | 4.4m/s | -55.1°C | 4.2% | 58.7hPa | 2.5V | 00:00:00 | 01:29:01 | 00:00:00 | |
| PG1ADW-2 | 2026-09-01 11:58:40 | 48.33273 | 12.54678 | 85° | 11km/h | 19942m | 4.1m/s | -55.1°C | 4.1% | 58.8hPa | 2.7V | 00:00:00 | 00:00:00 | 00:00:00 | |
| OE5REO-15 | 2026-09-01 11:58:39 | 48.33272 | 12.54672 | 78° | 16km/h | 19938m | 4.2m/s | -55.1°C | 1.1% | 58.9hPa | 2.5V | 00:00:00 | 00:00:00 | 00:00:00 | |
| DL6DJ-15 | 2026-09-01 11:58:38 | 48.33269 | 12.54660 | 62° | 15km/h | 19928m | 4.8m/s | -55.1°C | 1.2% | 59.0hPa | 2.5V | 00:00:00 | 00:00:00 | 00:00:00 | |
| DO3MHA-11 | 2026-09-01 11:58:37 | 48.33269 | 12.54660 | 63° | 13km/h | 19928m | 4.7m/s | -55.1°C | 4.1% | 58.9hPa | 2.5V | 00:00:00 | 01:28:56 | 00:00:00 | |
| OE5MMP-10 | 2026-09-01 11:58:34 | 48.33265 | 12.54644 | 83° | 9km/h | 19913m | 4.2m/s | -54.8°C | 4.2% | 59.0hPa | 2.5V | 00:00:00 | 01:28:53 | 00:00:00 | |
| BAUMI2-15 | 2026-09-01 11:58:32 | 48.33264 | 12.54635 | 78° | 9km/h | 19904m | 5.5m/s | -54.8°C | 4.2% | 59.1hPa | 2.5V | 00:00:00 | 01:28:51 | 00:00:00 | |
| DO7DH-14 | 2026-09-01 11:58:31 | 48.33264 | 12.54631 | 78° | 9km/h | 19899m | 4.8m/s | -54.8°C | 4.2% | 59.2hPa | 2.5V | 00:00:00 | 01:28:50 | 00:00:00 | |
| DO3MHA-11 | 2026-09-01 11:58:27 | 48.33264 | 12.54620 | 84° | 13km/h | 19879m | 5.1m/s | -54.7°C | 4.2% | 59.3hPa | 2.5V | 00:00:00 | 01:28:46 | 00:00:00 | |
| OE5WHR-10 | 2026-09-01 11:58:26 | 48.33263 | 12.54617 | 64° | 9km/h | 19874m | 5.5m/s | -54.7°C | 4.2% | 59.4hPa | 2.5V | 00:00:00 | 00:00:00 | 00:00:00 | |
| DK5PH-5 | 2026-09-01 11:58:24 | 48.33260 | 12.54609 | 65° | 13km/h | 19864m | 5.5m/s | 0°C | 0% | 0hPa | 2.6V | 00:00:00 | 01:28:43 | 00:00:00 | |
| BAUMI2-15 | 2026-09-01 11:58:22 | 48.33258 | 12.54598 | 71° | 13km/h | 19853m | 4.6m/s | -54.7°C | 4.2% | 59.6hPa | 2.6V | 00:00:00 | 01:28:41 | 00:00:00 | |
| PETON7-10 | 2026-09-01 11:58:19 | 48.33253 | 12.54584 | 64° | 9km/h | 19838m | 4.0m/s | -54.4°C | 4.1% | 59.7hPa | 2.6V | 00:00:00 | 01:28:38 | 00:00:00 | |
| OE5FHM-15 | 2026-09-01 11:58:17 | 48.33251 | 12.54574 | 78° | 9km/h | 19824m | 4.7m/s | -54.4°C | 4.0% | 59.9hPa | 2.6V | 00:00:00 | 01:28:35 | 00:00:00 | |
| OE5MMP-10 | 2026-09-01 11:58:14 | 48.33250 | 12.54572 | 7° | 9km/h | 19814m | 4.1m/s | -54.4°C | 4.0% | 60.0hPa | 2.6V | 00:00:00 | 01:28:33 | 00:00:00 | |
| OE5HKT-10 | 2026-09-01 11:58:08 | 48.33245 | 12.54561 | 74° | 9km/h | 19785m | 3.3m/s | -54.2°C | 4.1% | 60.3hPa | 2.5V | 00:00:00 | 00:00:00 | 08:30:00 | |
| BAUMI2-15 | 2026-09-01 11:58:07 | 48.33245 | 12.54557 | 85° | 13km/h | 19780m | 5.0m/s | -54.2°C | 4.1% | 60.3hPa | 2.5V | 00:00:00 | 01:28:26 | 00:00:00 | |
| DO3MHA-11 | 2026-09-01 11:58:06 | 48.33245 | 12.54551 | 96° | 7km/h | 19775m | 5.2m/s | -54.1°C | 4.1% | 60.3hPa | 2.5V | 00:00:00 | 01:28:25 | 00:00:00 | |
| OE5WHR-10 | 2026-09-01 11:58:05 | 48.33245 | 12.54546 | 99° | 9km/h | 19771m | 3.8m/s | -54.1°C | 4.1% | 60.4hPa | 2.5V | 00:00:00 | 00:00:00 | 00:00:00 | |
| PETON7-10 | 2026-09-01 11:58:04 | 48.33245 | 12.54541 | 95° | 9km/h | 19766m | 5.5m/s | -54.2°C | 4.1% | 60.4hPa | 2.5V | 00:00:00 | 00:00:00 | 08:30:00 | |
| BAUMI2-15 | 2026-09-01 11:58:02 | 48.33245 | 12.54534 | 78° | 5km/h | 19756m | 4.3m/s | -54.2°C | 4.1% | 60.5hPa | 2.7V | 00:00:00 | 01:28:21 | 00:00:00 | |
| DO7DH-14 | 2026-09-01 11:58:01 | 48.33245 | 12.54532 | 80° | 11km/h | 19751m | 5.4m/s | -54.2°C | 4.1% | 60.6hPa | 2.7V | 00:00:00 | 01:28:20 | 00:00:00 | |
| PG1ADW-2 | 2026-09-01 11:58:00 | 48.33244 | 12.54530 | 58° | 7km/h | 19746m | 4.1m/s | -54.0°C | 4.0% | 60.6hPa | 2.5V | 00:00:00 | 00:00:00 | 00:00:00 | |
| BAUMI2-15 | 2026-09-01 11:57:57 | 48.33240 | 12.54529 | 16° | 13km/h | 19732m | 3.8m/s | -54.1°C | 4.0% | 60.8hPa | 2.5V | 00:00:00 | 01:28:16 | 00:00:00 | |
| OE5MMP-10 | 2026-09-01 11:57:55 | 48.33238 | 12.54521 | 98° | 11km/h | 19719m | 3.6m/s | -54.1°C | 4.0% | 60.9hPa | 2.7V | 00:00:00 | 01:28:13 | 00:00:00 | |
| DO3MHA-11 | 2026-09-01 11:57:54 | 48.33238 | 12.54521 | 98° | 11km/h | 19719m | 3.6m/s | -54.1°C | 4.0% | 60.9hPa | 2.7V | 00:00:00 | 01:28:13 | 00:00:00 | |
| OE5REO-15 | 2026-09-01 11:57:51 | 48.33239 | 12.54512 | 98° | 13km/h | 19709m | 5.0m/s | -54.1°C | 1.2% | 61.0hPa | 2.7V | 00:00:00 | 00:00:00 | 00:00:00 | |
| PETON7-10 | 2026-09-01 11:57:49 | 48.33242 | 12.54497 | 119° | 13km/h | 19695m | 5.4m/s | -53.8°C | 3.9% | 61.1hPa | 2.7V | 00:00:00 | 00:00:00 | 00:00:00 | |
| DG1MFX-10 | 2026-09-01 11:57:47 | 48.33243 | 12.54493 | 133° | 13km/h | 19690m | 4.7m/s | -53.8°C | 1.1% | 61.2hPa | 2.7V | 00:00:00 | 00:00:00 | 00:00:00 | |
| OE5FHM-15 | 2026-09-01 11:57:46 | 48.33247 | 12.54488 | 149° | 15km/h | 19681m | 5.5m/s | -53.8°C | 3.8% | 61.3hPa | 2.7V | 00:00:00 | 01:28:05 | 00:00:00 | |
| DO3MHA-11 | 2026-09-01 11:57:45 | 48.33249 | 12.54487 | 106° | 13km/h | 19672m | 3.9m/s | -53.7°C | 3.8% | 61.3hPa | 2.7V | 00:00:00 | 01:28:03 | 00:00:00 | |
| PG1ADW-2 | 2026-09-01 11:57:40 | 48.33248 | 12.54479 | 80° | 15km/h | 19653m | 4.6m/s | -53.8°C | 3.9% | 61.5hPa | 2.5V | 00:00:00 | 01:27:59 | 08:30:00 | |
| OE5REO-15 | 2026-09-01 11:57:36 | 48.33251 | 12.54451 | 112° | 22km/h | 19634m | 4.1m/s | -53.9°C | 1.2% | 61.7hPa | 2.5V | 00:00:00 | 00:00:00 | 00:00:00 | |
| DL6DJ-15 | 2026-09-01 11:57:35 | 48.33253 | 12.54444 | 110° | 18km/h | 19629m | 5.3m/s | -53.9°C | 1.2% | 61.8hPa | 2.5V | 00:00:00 | 00:00:00 | 00:00:00 | |
| DO7DH-14 | 2026-09-01 11:57:31 | 48.33258 | 12.54425 | 126° | 16km/h | 19609m | 4.5m/s | -53.9°C | 4.0% | 61.9hPa | 2.5V | 00:00:00 | 01:27:50 | 00:00:00 | |
| OE5MMP-10 | 2026-09-01 11:57:24 | 48.33262 | 12.54397 | 106° | 18km/h | 19577m | 4.6m/s | -53.7°C | 3.9% | 62.3hPa | 2.5V | 00:00:00 | 01:27:43 | 00:00:00 | |
| OE5WHR-10 | 2026-09-01 11:57:23 | 48.33264 | 12.54389 | 101° | 16km/h | 19572m | 5.5m/s | -53.7°C | 3.9% | 62.3hPa | 2.5V | 00:00:00 | 00:00:00 | 00:00:00 | |
| DO3MHA-11 | 2026-09-01 11:57:20 | 48.33266 | 12.54365 | 105° | 20km/h | 19558m | 5.2m/s | -53.7°C | 3.9% | 62.4hPa | 2.5V | 00:00:00 | 01:27:39 | 00:00:00 | |
| PETON7-10 | 2026-09-01 11:57:19 | 48.33268 | 12.54358 | 106° | 15km/h | 19554m | 4.3m/s | -53.6°C | 3.9% | 62.5hPa | 2.5V | 00:00:00 | 00:00:00 | 00:00:00 | |
| OE5FHM-15 | 2026-09-01 11:57:16 | 48.33269 | 12.54340 | 87° | 15km/h | 19540m | 3.8m/s | -53.7°C | 3.9% | 62.6hPa | 2.7V | 00:00:00 | 01:27:35 | 00:00:00 | |
| OE5MMP-10 | 2026-09-01 11:57:14 | 48.33269 | 12.54331 | 95° | 15km/h | 19532m | 5.2m/s | -53.7°C | 4.0% | 62.7hPa | 2.5V | 00:00:00 | 01:27:33 | 08:30:00 | |
| NBG1-10 | 2026-09-01 11:57:09 | 48.33269 | 12.54308 | 73° | 20km/h | 19508m | 4.0m/s | 0°C | 0% | 0hPa | 2.5V | 00:00:00 | 01:27:28 | 00:00:00 | |
| PETON7-10 | 2026-09-01 11:57:04 | 48.33262 | 12.54273 | 70° | 15km/h | 19486m | 4.9m/s | -53.4°C | 3.8% | 63.2hPa | 2.5V | 00:00:00 | 00:00:00 | 00:00:00 | |
| OE5REO-15 | 2026-09-01 11:57:03 | 48.33262 | 12.54273 | 71° | 20km/h | 19486m | 4.9m/s | -53.5°C | 1.1% | 63.2hPa | 2.5V | 00:00:00 | 00:00:00 | 00:00:00 | |
| DO7DH-14 | 2026-09-01 11:57:01 | 48.33258 | 12.54251 | 82° | 16km/h | 19472m | 4.7m/s | -53.4°C | 3.8% | 63.3hPa | 2.5V | 00:00:00 | 01:27:20 | 00:00:00 | |
| PG1ADW-2 | 2026-09-01 11:57:00 | 48.33258 | 12.54245 | 83° | 13km/h | 19467m | 4.1m/s | -53.4°C | 3.8% | 63.3hPa | 2.5V | 00:00:00 | 00:00:00 | 00:00:00 | |
| OE5MMP-10 | 2026-09-01 11:56:54 | 48.33250 | 12.54210 | 72° | 11km/h | 19440m | 3.6m/s | -53.8°C | 3.8% | 63.6hPa | 2.5V | 00:00:00 | 01:27:13 | 00:00:00 | |
| DO3MHA-11 | 2026-09-01 11:56:49 | 48.33242 | 12.54195 | 67° | 13km/h | 19418m | 5.4m/s | -53.9°C | 3.8% | 63.8hPa | 2.5V | 00:00:00 | 01:27:08 | 00:00:00 | |
| OE5REO-15 | 2026-09-01 11:56:48 | 48.33242 | 12.54192 | 90° | 9km/h | 19413m | 4.3m/s | -54.0°C | 1.1% | 63.9hPa | 2.5V | 00:00:00 | 00:00:00 | 00:00:00 | |
| OE5FHM-15 | 2026-09-01 11:56:46 | 48.33242 | 12.54184 | 85° | 26km/h | 19404m | 5.1m/s | -54.0°C | 3.8% | 64.0hPa | 2.5V | 00:00:00 | 01:27:05 | 00:00:00 | |
| OE5MMP-10 | 2026-09-01 11:56:44 | 48.33240 | 12.54175 | 71° | 18km/h | 19395m | 4.0m/s | -54.2°C | 3.8% | 64.0hPa | 2.5V | 00:00:00 | 01:27:03 | 00:00:00 | |
| DG1MFX-10 | 2026-09-01 11:56:43 | 48.33240 | 12.54175 | 72° | 15km/h | 19395m | 4.0m/s | -54.2°C | 1.1% | 64.1hPa | 2.5V | 00:00:00 | 00:00:00 | 00:00:00 | |
| OE5WHR-10 | 2026-09-01 11:56:41 | 48.33237 | 12.54157 | 82° | 27km/h | 19381m | 4.5m/s | -54.4°C | 3.9% | 64.2hPa | 2.5V | 00:00:00 | 01:27:00 | 00:00:00 | |
| PG1ADW-2 | 2026-09-01 11:56:40 | 48.33236 | 12.54150 | 82° | 26km/h | 19377m | 4.2m/s | -54.4°C | 3.9% | 64.2hPa | 2.5V | 00:00:00 | 00:00:00 | 00:00:00 | |
| DO3MHA-11 | 2026-09-01 11:56:39 | 48.33236 | 12.54143 | 76° | 22km/h | 19372m | 5.4m/s | -54.4°C | 3.9% | 64.3hPa | 2.5V | 00:00:00 | 01:26:58 | 08:30:00 | |
| OE5MMP-10 | 2026-09-01 11:56:34 | 48.33227 | 12.54109 | 71° | 29km/h | 19348m | 4.7m/s | -54.9°C | 4.0% | 64.5hPa | 2.7V | 00:00:00 | 01:26:53 | 00:00:00 | |
| OE5REO-15 | 2026-09-01 11:56:33 | 48.33225 | 12.54101 | 70° | 22km/h | 19343m | 5.5m/s | -55.1°C | 1.2% | 64.6hPa | 2.7V | 00:00:00 | 00:00:00 | 00:00:00 | |
| DO7DH-14 | 2026-09-01 11:56:31 | 48.33221 | 12.54086 | 68° | 37km/h | 19335m | 4.4m/s | -55.1°C | 4.1% | 64.6hPa | 2.7V | 00:00:00 | 01:26:50 | 00:00:00 | |
| DO3MHA-11 | 2026-09-01 11:56:28 | 48.33213 | 12.54054 | 67° | 35km/h | 19319m | 4.4m/s | -55.1°C | 4.2% | 64.8hPa | 2.7V | 00:00:00 | 01:26:47 | 00:00:00 | |
| OE5MMP-10 | 2026-09-01 11:56:24 | 48.33195 | 12.54008 | 60° | 37km/h | 19299m | 5.7m/s | -55.2°C | 4.1% | 65.0hPa | 2.7V | 00:00:00 | 01:26:43 | 00:00:00 | |
| DG1MFX-10 | 2026-09-01 11:56:23 | 48.33191 | 12.53996 | 63° | 37km/h | 19294m | 4.8m/s | -55.3°C | 1.3% | 65.1hPa | 2.7V | 00:00:00 | 00:00:00 | 00:00:00 | |
| OE5WHR-10 | 2026-09-01 11:56:20 | 48.33180 | 12.53960 | 67° | 38km/h | 19281m | 5.0m/s | -55.5°C | 4.2% | 65.2hPa | 2.7V | 00:00:00 | 00:00:00 | 08:30:00 | |
| PETON7-10 | 2026-09-01 11:56:19 | 48.33176 | 12.53948 | 68° | 40km/h | 19276m | 3.9m/s | -55.5°C | 4.2% | 65.2hPa | 2.7V | 00:00:00 | 00:00:00 | 00:00:00 | |
| OE5REO-15 | 2026-09-01 11:56:18 | 48.33173 | 12.53936 | 71° | 35km/h | 19272m | 4.9m/s | -55.5°C | 1.2% | 65.3hPa | 2.7V | 00:00:00 | 00:00:00 | 00:00:00 | |
| DO3MHA-11 | 2026-09-01 11:56:17 | 48.33170 | 12.53924 | 69° | 40km/h | 19267m | 4.4m/s | -55.4°C | 4.1% | 65.3hPa | 2.7V | 00:00:00 | 01:26:36 | 00:00:00 | |
| OE5FHM-15 | 2026-09-01 11:56:16 | 48.33166 | 12.53910 | 65° | 38km/h | 19263m | 3.9m/s | -55.4°C | 4.2% | 65.4hPa | 2.7V | 00:00:00 | 01:26:35 | 00:00:00 | |
| OE5MMP-10 | 2026-09-01 11:56:14 | 48.33156 | 12.53885 | 53° | 40km/h | 19254m | 4.5m/s | -55.6°C | 4.2% | 65.5hPa | 2.7V | 00:00:00 | 01:26:33 | 00:00:00 | |
| DO3MHA-11 | 2026-09-01 11:56:07 | 48.33110 | 12.53797 | 54° | 38km/h | 19223m | 4.0m/s | -55.5°C | 4.3% | 65.8hPa | 2.7V | 00:00:00 | 01:26:26 | 00:00:00 | |
| OE5MMP-10 | 2026-09-01 11:56:04 | 48.33094 | 12.53760 | 57° | 38km/h | 19209m | 3.7m/s | -55.4°C | 4.4% | 65.9hPa | 2.7V | 00:00:00 | 01:26:23 | 00:00:00 | |
| DG1MFX-10 | 2026-09-01 11:56:02 | 48.33089 | 12.53749 | 54° | 37km/h | 19205m | 4.9m/s | -55.5°C | 1.3% | 66.0hPa | 2.7V | 00:00:00 | 00:00:00 | 00:00:00 | |
| DO7DH-14 | 2026-09-01 11:56:01 | 48.33075 | 12.53728 | 43° | 35km/h | 19196m | 3.6m/s | -55.4°C | 4.3% | 66.1hPa | 2.7V | 00:00:00 | 01:26:20 | 00:00:00 | |
| PG1ADW-2 | 2026-09-01 11:56:00 | 48.33068 | 12.53718 | 43° | 37km/h | 19192m | 4.4m/s | -55.4°C | 4.3% | 66.1hPa | 2.7V | 00:00:00 | 00:00:00 | 00:00:00 | |
| OE5WHR-10 | 2026-09-01 11:55:59 | 48.33061 | 12.53708 | 44° | 37km/h | 19187m | 4.6m/s | -55.5°C | 4.2% | 66.2hPa | 2.7V | 00:00:00 | 00:00:00 | 00:00:00 | |
| DO3MHA-11 | 2026-09-01 11:55:57 | 48.33047 | 12.53687 | 44° | 35km/h | 19178m | 4.7m/s | -55.6°C | 4.3% | 66.3hPa | 2.7V | 00:00:00 | 01:26:16 | 00:00:00 | |
| OE5MMP-10 | 2026-09-01 11:55:54 | 48.33027 | 12.53659 | 46° | 35km/h | 19164m | 5.4m/s | -55.3°C | 4.3% | 66.4hPa | 2.7V | 00:00:00 | 01:26:13 | 00:00:00 | |
| PETON7-10 | 2026-09-01 11:55:49 | 48.32997 | 12.53616 | 40° | 37km/h | 19142m | 3.6m/s | -55.2°C | 4.3% | 66.6hPa | 2.7V | 00:00:00 | 00:00:00 | 08:30:00 | |
| OE5REO-15 | 2026-09-01 11:55:47 | 48.32984 | 12.53599 | 42° | 37km/h | 19133m | 3.8m/s | -55.3°C | 1.3% | 66.8hPa | 2.5V | 00:00:00 | 00:00:00 | 00:00:00 | |
| OE5FHM-15 | 2026-09-01 11:55:46 | 48.32977 | 12.53590 | 39° | 35km/h | 19128m | 5.1m/s | -55.1°C | 4.3% | 66.8hPa | 2.5V | 00:00:00 | 01:26:05 | 08:30:00 | |
| OE5MMP-10 | 2026-09-01 11:55:44 | 48.32961 | 12.53573 | 36° | 37km/h | 19119m | 4.3m/s | -55.1°C | 4.3% | 66.9hPa | 2.7V | 00:00:00 | 01:26:03 | 08:30:00 | |
| NBG1-10 | 2026-09-01 11:55:40 | 48.32931 | 12.53537 | 36° | 33km/h | 19100m | 5.1m/s | 0°C | 0% | 0hPa | 2.5V | 00:00:00 | 01:25:59 | 00:00:00 | |
| BAUMI2-15 | 2026-09-01 11:55:39 | 48.32923 | 12.53530 | 35° | 33km/h | 19096m | 3.6m/s | -55.0°C | 4.2% | 67.1hPa | 2.5V | 00:00:00 | 01:25:58 | 08:30:00 | |
| OE5WHR-10 | 2026-09-01 11:55:38 | 48.32917 | 12.53522 | 35° | 33km/h | 19091m | 4.5m/s | -54.9°C | 4.2% | 67.2hPa | 2.7V | 00:00:00 | 01:25:57 | 00:00:00 | |
| DO3MHA-11 | 2026-09-01 11:55:37 | 48.32910 | 12.53515 | 37° | 33km/h | 19087m | 4.5m/s | -54.9°C | 4.1% | 67.2hPa | 2.7V | 00:00:00 | 01:25:56 | 00:00:00 | |
| OE5MMP-10 | 2026-09-01 11:55:34 | 48.32889 | 12.53495 | 29° | 33km/h | 19073m | 4.4m/s | -54.8°C | 4.1% | 67.4hPa | 2.7V | 00:00:00 | 01:25:53 | 00:00:00 | |
| OE5HKT-10 | 2026-09-01 11:55:33 | 48.32882 | 12.53489 | 29° | 33km/h | 19068m | 4.4m/s | -54.8°C | 4.2% | 67.4hPa | 2.7V | 00:00:00 | 01:25:52 | 00:00:00 | |
| OE5REO-15 | 2026-09-01 11:55:32 | 48.32874 | 12.53483 | 33° | 33km/h | 19063m | 5.3m/s | -54.9°C | 1.2% | 67.5hPa | 2.7V | 00:00:00 | 00:00:00 | 00:00:00 | |
| DO7DH-14 | 2026-09-01 11:55:31 | 48.32867 | 12.53476 | 34° | 33km/h | 19059m | 4.2m/s | -54.8°C | 4.2% | 67.6hPa | 2.7V | 00:00:00 | 01:25:50 | 00:00:00 | |
| BAUMI2-15 | 2026-09-01 11:55:29 | 48.32853 | 12.53462 | 31° | 33km/h | 19050m | 4.9m/s | -54.7°C | 4.2% | 67.6hPa | 2.7V | 00:00:00 | 01:25:48 | 00:00:00 | |
| DO3MHA-11 | 2026-09-01 11:55:27 | 48.32839 | 12.53450 | 32° | 33km/h | 19041m | 5.1m/s | -54.7°C | 4.2% | 67.7hPa | 2.7V | 00:00:00 | 01:25:46 | 00:00:00 | |
| OE5MMP-10 | 2026-09-01 11:55:24 | 48.32818 | 12.53430 | 30° | 33km/h | 19027m | 4.8m/s | -54.5°C | 4.1% | 67.9hPa | 2.7V | 00:00:00 | 01:25:43 | 00:00:00 | |
| DG1MFX-10 | 2026-09-01 11:55:21 | 48.32803 | 12.53420 | 22° | 33km/h | 19018m | 3.4m/s | -54.6°C | 0% | 0hPa | 2.7V | 00:00:00 | 00:00:00 | 00:00:00 | |
| PG1ADW-2 | 2026-09-01 11:55:20 | 48.32788 | 12.53410 | 25° | 31km/h | 19009m | 4.9m/s | -54.6°C | 4.1% | 68.1hPa | 2.7V | 00:00:00 | 00:00:00 | 00:00:00 | |
| OE5WHR-10 | 2026-09-01 11:55:17 | 48.32765 | 12.53395 | 22° | 31km/h | 18995m | 5.0m/s | -54.5°C | 4.1% | 68.2hPa | 2.7V | 00:00:00 | 00:00:00 | 00:00:00 | |
| OE5REO-15 | 2026-09-01 11:55:16 | 48.32757 | 12.53390 | 22° | 33km/h | 18991m | 4.5m/s | -54.6°C | 1.2% | 68.3hPa | 2.5V | 00:00:00 | 00:00:00 | 00:00:00 | |
| OE5MMP-10 | 2026-09-01 11:55:14 | 48.32741 | 12.53380 | 28° | 33km/h | 18981m | 5.0m/s | -54.5°C | 4.1% | 68.4hPa | 2.5V | 00:00:00 | 01:25:33 | 00:00:00 | |
| OE5HKT-10 | 2026-09-01 11:55:12 | 48.32726 | 12.53367 | 28° | 29km/h | 18973m | 4.7m/s | -54.5°C | 4.1% | 68.5hPa | 2.5V | 00:00:00 | 00:00:00 | 00:00:00 | |
| BAUMI2-15 | 2026-09-01 11:55:09 | 48.32703 | 12.53350 | 28° | 31km/h | 18959m | 5.1m/s | -54.3°C | 4.0% | 68.6hPa | 2.5V | 00:00:00 | 01:25:28 | 00:00:00 | |
| DO3MHA-11 | 2026-09-01 11:55:07 | 48.32688 | 12.53337 | 35° | 29km/h | 18949m | 3.6m/s | -54.3°C | 4.0% | 68.7hPa | 2.5V | 00:00:00 | 01:25:26 | 08:30:00 | |
| NBG1-10 | 2026-09-01 11:55:06 | 48.32682 | 12.53331 | 34° | 24km/h | 18945m | 3.8m/s | 0°C | 0% | 0hPa | 2.7V | 00:00:00 | 01:25:25 | 00:00:00 | |
| PETON7-10 | 2026-09-01 11:55:04 | 48.32669 | 12.53319 | 26° | 27km/h | 18936m | 4.7m/s | -54.3°C | 4.1% | 68.8hPa | 2.7V | 00:00:00 | 00:00:00 | 00:00:00 | |
| DG1MFX-10 | 2026-09-01 11:55:01 | 48.32650 | 12.53306 | 26° | 27km/h | 18922m | 4.3m/s | -54.4°C | 0% | 0hPa | 2.7V | 00:00:00 | 00:00:00 | 00:00:00 | |
| PG1ADW-2 | 2026-09-01 11:55:00 | 48.32644 | 12.53302 | 22° | 26km/h | 18917m | 5.4m/s | -54.2°C | 4.0% | 69.0hPa | 2.7V | 00:00:00 | 01:25:19 | 00:00:00 | |
| BAUMI2-15 | 2026-09-01 11:54:59 | 48.32638 | 12.53299 | 19° | 29km/h | 18912m | 4.0m/s | -54.2°C | 4.0% | 69.1hPa | 2.7V | 00:00:00 | 01:25:18 | 00:00:00 | |
| DO3MHA-11 | 2026-09-01 11:54:57 | 48.32624 | 12.53290 | 29° | 26km/h | 18904m | 5.7m/s | -54.3°C | 4.0% | 69.2hPa | 2.7V | 00:00:00 | 01:25:16 | 00:00:00 | |
| OE5WHR-10 | 2026-09-01 11:54:56 | 48.32618 | 12.53284 | 35° | 24km/h | 18899m | 4.3m/s | -54.4°C | 4.1% | 69.3hPa | 2.7V | 00:00:00 | 00:00:00 | 00:00:00 | |
| OE5MMP-10 | 2026-09-01 11:54:54 | 48.32605 | 12.53270 | 37° | 22km/h | 18890m | 5.1m/s | -54.4°C | 4.1% | 69.4hPa | 2.7V | 00:00:00 | 01:25:13 | 00:00:00 | |
| OE5HKT-10 | 2026-09-01 11:54:50 | 48.32584 | 12.53246 | 46° | 24km/h | 18872m | 5.0m/s | -54.0°C | 4.0% | 69.6hPa | 2.7V | 00:00:00 | 00:00:00 | 00:00:00 | |
| BAUMI2-15 | 2026-09-01 11:54:49 | 48.32580 | 12.53241 | 47° | 20km/h | 18867m | 3.8m/s | -54.0°C | 3.9% | 69.6hPa | 2.7V | 00:00:00 | 01:25:08 | 00:00:00 | |
| DO3MHA-11 | 2026-09-01 11:54:47 | 48.32573 | 12.53232 | 33° | 22km/h | 18858m | 4.5m/s | -54.0°C | 3.8% | 69.7hPa | 2.7V | 00:00:00 | 01:25:06 | 00:00:00 | |
| OE5FHM-15 | 2026-09-01 11:54:46 | 48.32569 | 12.53228 | 33° | 24km/h | 18853m | 3.8m/s | -54.0°C | 3.8% | 69.7hPa | 2.7V | 00:00:00 | 01:25:05 | 00:00:00 | |
| OE5REO-15 | 2026-09-01 11:54:45 | 48.32569 | 12.53228 | 33° | 20km/h | 18853m | 3.9m/s | -54.1°C | 1.1% | 69.8hPa | 2.7V | 00:00:00 | 00:00:00 | 00:00:00 | |
| OE5MMP-10 | 2026-09-01 11:54:44 | 48.32560 | 12.53218 | 41° | 22km/h | 18844m | 4.5m/s | -53.9°C | 3.9% | 69.9hPa | 2.7V | 00:00:00 | 01:25:03 | 00:00:00 | |
| BAUMI2-15 | 2026-09-01 11:54:39 | 48.32538 | 12.53189 | 49° | 20km/h | 18820m | 4.7m/s | -53.8°C | 3.9% | 70.1hPa | 2.7V | 00:00:00 | 01:24:58 | 00:00:00 | |
| DO3MHA-11 | 2026-09-01 11:54:37 | 48.32531 | 12.53177 | 48° | 22km/h | 18811m | 5.2m/s | -53.8°C | 3.8% | 70.2hPa | 2.7V | 00:00:00 | 01:24:56 | 00:00:00 | |
| OE5WHR-10 | 2026-09-01 11:54:35 | 48.32524 | 12.53166 | 44° | 26km/h | 18801m | 4.7m/s | -54.0°C | 3.8% | 70.3hPa | 2.7V | 00:00:00 | 01:24:54 | 00:00:00 | |
| PETON7-10 | 2026-09-01 11:54:34 | 48.32520 | 12.53161 | 45° | 26km/h | 18796m | 4.9m/s | -54.0°C | 3.8% | 70.4hPa | 2.7V | 00:00:00 | 01:24:53 | 00:00:00 | |
| NBG1-10 | 2026-09-01 11:54:33 | 48.32516 | 12.53155 | 42° | 24km/h | 18792m | 3.7m/s | 0°C | 0% | 0hPa | 2.7V | 00:00:00 | 01:24:52 | 00:00:00 | |
| DO7DH-14 | 2026-09-01 11:54:31 | 48.32506 | 12.53145 | 30° | 26km/h | 18783m | 4.7m/s | -54.5°C | 3.9% | 70.5hPa | 2.7V | 00:00:00 | 01:24:50 | 00:00:00 | |
| OE5REO-15 | 2026-09-01 11:54:30 | 48.32501 | 12.53140 | 28° | 26km/h | 18779m | 3.9m/s | -54.7°C | 1.2% | 70.6hPa | 2.7V | 00:00:00 | 00:00:00 | 00:00:00 | |
| BAUMI2-15 | 2026-09-01 11:54:29 | 48.32495 | 12.53136 | 31° | 24km/h | 18775m | 4.6m/s | -54.6°C | 4.0% | 70.6hPa | 2.7V | 00:00:00 | 01:24:48 | 00:00:00 | |
| DO3MHA-11 | 2026-09-01 11:54:27 | 48.32486 | 12.53124 | 47° | 27km/h | 18765m | 4.8m/s | -54.7°C | 4.0% | 70.7hPa | 2.7V | 00:00:00 | 01:24:46 | 00:00:00 | |
| BAUMI2-15 | 2026-09-01 11:54:24 | 48.32474 | 12.53103 | 57° | 27km/h | 18750m | 4.3m/s | -54.8°C | 4.1% | 70.9hPa | 2.7V | 00:00:00 | 01:24:43 | 00:00:00 | |
| PETON7-10 | 2026-09-01 11:54:19 | 48.32454 | 12.53061 | 41° | 29km/h | 18726m | 3.9m/s | -54.9°C | 4.2% | 71.2hPa | 2.5V | 00:00:00 | 00:00:00 | 00:00:00 | |
| DO3MHA-11 | 2026-09-01 11:54:17 | 48.32442 | 12.53046 | 43° | 31km/h | 18717m | 5.3m/s | -55.0°C | 4.2% | 71.3hPa | 2.7V | 00:00:00 | 01:24:36 | 00:00:00 | |
| OE5FHM-15 | 2026-09-01 11:54:16 | 48.32436 | 12.53037 | 47° | 22km/h | 18713m | 4.5m/s | -55.1°C | 4.2% | 71.3hPa | 2.7V | 00:00:00 | 01:24:35 | 00:00:00 | |
| OE5WHR-10 | 2026-09-01 11:54:14 | 48.32425 | 12.53019 | 46° | 22km/h | 18703m | 5.0m/s | -55.0°C | 4.2% | 71.4hPa | 2.5V | 00:00:00 | 00:00:00 | 00:00:00 | |
| OE5MMP-10 | 2026-09-01 11:54:12 | 48.32414 | 12.53003 | 45° | 24km/h | 18695m | 3.9m/s | -55.2°C | 4.2% | 71.5hPa | 2.7V | 00:00:00 | 01:24:31 | 08:30:00 | |
| DG1MFX-10 | 2026-09-01 11:54:11 | 48.32414 | 12.53003 | 45° | 29km/h | 18695m | 4.0m/s | 0°C | 0% | 0hPa | 2.5V | 00:00:00 | 00:00:00 | 00:00:00 | |
| BAUMI2-15 | 2026-09-01 11:54:09 | 48.32400 | 12.52977 | 55° | 24km/h | 18681m | 3.8m/s | -54.9°C | 4.2% | 71.7hPa | 2.5V | 00:00:00 | 01:24:28 | 08:30:00 | |
| DO3MHA-11 | 2026-09-01 11:54:07 | 48.32392 | 12.52961 | 52° | 18km/h | 18671m | 4.7m/s | -55.1°C | 4.3% | 71.8hPa | 2.7V | 00:00:00 | 01:24:26 | 00:00:00 | |
| PETON7-10 | 2026-09-01 11:54:04 | 48.32383 | 12.52943 | 53° | 18km/h | 18657m | 3.6m/s | -54.9°C | 4.2% | 71.9hPa | 2.7V | 00:00:00 | 00:00:00 | 00:00:00 | |
| DL6DJ-15 | 2026-09-01 11:53:58 | 48.32368 | 12.52915 | 59° | 18km/h | 18629m | 4.2m/s | -54.8°C | 1.2% | 72.3hPa | 2.7V | 00:00:00 | 00:00:00 | 00:00:00 | |
| DO3MHA-11 | 2026-09-01 11:53:57 | 48.32365 | 12.52909 | 58° | 18km/h | 18624m | 5.3m/s | -54.8°C | 4.2% | 72.3hPa | 2.7V | 00:00:00 | 01:24:16 | 00:00:00 | |
| OE5REO-15 | 2026-09-01 11:53:56 | 48.32365 | 12.52909 | 58° | 18km/h | 18624m | 5.4m/s | -54.8°C | 1.3% | 72.4hPa | 2.7V | 00:00:00 | 00:00:00 | 00:00:00 | |
| DB0UT-7 | 2026-09-01 11:53:55 | 48.32360 | 12.52897 | 58° | 15km/h | 18615m | 4.5m/s | -54.9°C | 4.2% | 72.4hPa | 2.7V | 00:00:00 | 00:00:00 | 00:00:00 | |
| BAUMI2-15 | 2026-09-01 11:53:54 | 48.32357 | 12.52890 | 61° | 20km/h | 18610m | 5.1m/s | -54.8°C | 4.1% | 72.5hPa | 2.7V | 00:00:00 | 01:24:13 | 00:00:00 | |
| OE5WHR-10 | 2026-09-01 11:53:53 | 48.32354 | 12.52883 | 60° | 13km/h | 18606m | 4.4m/s | -54.7°C | 4.1% | 72.5hPa | 2.5V | 00:00:00 | 00:00:00 | 00:00:00 | |
| OE5MMP-10 | 2026-09-01 11:53:52 | 48.32351 | 12.52877 | 54° | 13km/h | 18601m | 5.2m/s | -54.8°C | 4.1% | 72.6hPa | 2.5V | 00:00:00 | 01:24:11 | 00:00:00 | |
| DG1MFX-10 | 2026-09-01 11:53:50 | 48.32349 | 12.52872 | 44° | 16km/h | 18596m | 4.6m/s | !°C | 0% | 0hPa | 2.5V | 00:00:00 | 00:00:00 | 00:00:00 | |
| PETON7-10 | 2026-09-01 11:53:49 | 48.32343 | 12.52864 | 40° | 13km/h | 18587m | 5.1m/s | -55.0°C | 4.3% | 72.7hPa | 2.5V | 00:00:00 | 01:24:08 | 00:00:00 | |
| OE5DRO-10 | 2026-09-01 11:53:48 | 48.32341 | 12.52861 | 50° | 11km/h | 18582m | 4.9m/s | -54.8°C | 4.2% | 72.8hPa | 2.5V | 00:00:00 | 00:00:00 | 00:00:00 | |
| OE3JTB-15 | 2026-09-01 11:53:47 | 48.32335 | 12.52849 | 60° | 13km/h | 18564m | 3.5m/s | -54.7°C | 4.3% | 73.0hPa | 2.5V | 00:00:00 | 01:24:03 | 00:00:00 | |
| OE5MMP-10 | 2026-09-01 11:53:42 | 48.32333 | 12.52840 | 78° | 13km/h | 18554m | 4.8m/s | -54.7°C | 4.4% | 73.1hPa | 2.5V | 00:00:00 | 01:24:01 | 00:00:00 | |
| OE5REO-15 | 2026-09-01 11:53:41 | 48.32332 | 12.52834 | 83° | 15km/h | 18550m | 4.5m/s | -54.6°C | 1.3% | 73.2hPa | 2.7V | 00:00:00 | 00:00:00 | 00:00:00 | |
| PG1ADW-2 | 2026-09-01 11:53:39 | 48.32331 | 12.52823 | 81° | 11km/h | 18539m | 4.3m/s | -54.5°C | 4.2% | 73.3hPa | 2.7V | 00:00:00 | 01:23:58 | 00:00:00 | |
| DO3MHA-11 | 2026-09-01 11:53:37 | 48.32330 | 12.52813 | 93° | 11km/h | 18531m | 5.4m/s | -54.5°C | 4.2% | 73.4hPa | 2.5V | 00:00:00 | 01:23:56 | 08:30:00 | |
| PETON7-10 | 2026-09-01 11:53:34 | 48.32331 | 12.52798 | 88° | 11km/h | 18516m | 5.1m/s | -54.3°C | 4.0% | 73.5hPa | 2.7V | 00:00:00 | 00:00:00 | 08:30:00 | |
| OE5MMP-10 | 2026-09-01 11:53:32 | 48.32331 | 12.52790 | 96° | 11km/h | 18507m | 5.6m/s | -54.2°C | 4.0% | 73.7hPa | 2.6V | 00:00:00 | 01:23:51 | 00:00:00 | |
| DO7DH-14 | 2026-09-01 11:53:31 | 48.32331 | 12.52786 | 102° | 13km/h | 18502m | 4.6m/s | -54.2°C | 4.0% | 73.7hPa | 2.6V | 00:00:00 | 01:23:50 | 00:00:00 | |
| OE5DRO-10 | 2026-09-01 11:53:29 | 48.32332 | 12.52780 | 101° | 13km/h | 18493m | 5.1m/s | -54.2°C | 4.2% | 73.8hPa | 2.7V | 00:00:00 | 00:00:00 | 00:00:00 | |
| DO3MHA-11 | 2026-09-01 11:53:27 | 48.32333 | 12.52775 | 106° | 13km/h | 18484m | 5.0m/s | -54.0°C | 4.2% | 73.9hPa | 2.7V | 00:00:00 | 01:23:46 | 00:00:00 | |
| DB0UT-7 | 2026-09-01 11:53:25 | 48.32335 | 12.52767 | 105° | 55km/h | 18475m | 3.4m/s | -53.9°C | 4.2% | 74.0hPa | 2.7V | 00:00:00 | 01:23:44 | 00:00:00 | |
| OE5MMP-10 | 2026-09-01 11:53:23 | 48.32336 | 12.52752 | 83° | 13km/h | 18461m | 4.5m/s | -53.8°C | 4.0% | 74.2hPa | 2.7V | 00:00:00 | 01:23:41 | 00:00:00 | |
| DO3MHA-11 | 2026-09-01 11:53:17 | 48.32336 | 12.52728 | 98° | 13km/h | 18437m | 5.3m/s | -53.8°C | 3.9% | 74.5hPa | 2.7V | 00:00:00 | 01:23:36 | 00:00:00 | |
| OE5FHM-15 | 2026-09-01 11:53:16 | 48.32336 | 12.52723 | 90° | 18km/h | 18432m | 5.8m/s | -53.8°C | 3.9% | 74.5hPa | 2.7V | 00:00:00 | 01:23:35 | 00:00:00 | |
| OE3JTB-15 | 2026-09-01 11:53:14 | 48.32336 | 12.52703 | 97° | 18km/h | 18411m | 5.0m/s | -53.5°C | 3.9% | 74.8hPa | 2.7V | 00:00:00 | 00:00:00 | 00:00:00 | |
| OE5MMP-10 | 2026-09-01 11:53:12 | 48.32336 | 12.52703 | 97° | 16km/h | 18411m | 5.0m/s | -53.5°C | 3.9% | 74.8hPa | 2.7V | 00:00:00 | 01:23:31 | 00:00:00 | |
| OE5WHR-10 | 2026-09-01 11:53:11 | 48.32337 | 12.52697 | 95° | 18km/h | 18406m | 4.3m/s | -53.5°C | 3.9% | 74.8hPa | 2.5V | 00:00:00 | 00:00:00 | 08:30:00 | |
| OE5DRO-10 | 2026-09-01 11:53:10 | 48.32337 | 12.52690 | 89° | 18km/h | 18401m | 5.8m/s | -53.5°C | 3.8% | 74.9hPa | 2.5V | 00:00:00 | 00:00:00 | 08:30:00 | |
| PETON7-10 | 2026-09-01 11:53:04 | 48.32340 | 12.52657 | 118° | 20km/h | 18372m | 4.1m/s | -53.6°C | 3.9% | 75.2hPa | 2.6V | 00:00:00 | 01:23:23 | 00:00:00 | |
| OE5MMP-10 | 2026-09-01 11:53:02 | 48.32343 | 12.52647 | 119° | 20km/h | 18362m | 5.2m/s | -53.5°C | 3.9% | 75.3hPa | 2.6V | 00:00:00 | 01:23:21 | 00:00:00 | |
| DO7DH-14 | 2026-09-01 11:53:01 | 48.32345 | 12.52642 | 116° | 24km/h | 18357m | 4.1m/s | -53.6°C | 3.9% | 75.4hPa | 2.6V | 00:00:00 | 01:23:20 | 00:00:00 | |
| DO3MHA-11 | 2026-09-01 11:53:00 | 48.32346 | 12.52637 | 113° | 20km/h | 18353m | 4.3m/s | -53.7°C | 3.9% | 75.4hPa | 2.6V | 00:00:00 | 01:23:19 | 00:00:00 | |
| PG1ADW-2 | 2026-09-01 11:52:59 | 48.32348 | 12.52630 | 116° | 22km/h | 18348m | 5.2m/s | -53.7°C | 3.9% | 75.5hPa | 2.7V | 00:00:00 | 00:00:00 | 00:00:00 | |
| OE5HKT-10 | 2026-09-01 11:52:56 | 48.32356 | 12.52607 | 116° | 22km/h | 18334m | 4.5m/s | -53.8°C | 3.9% | 75.7hPa | 2.7V | 00:00:00 | 00:00:00 | 08:30:00 | |
| OE5MMP-10 | 2026-09-01 11:52:52 | 48.32363 | 12.52578 | 106° | 22km/h | 18314m | 5.3m/s | -53.8°C | 4.0% | 75.9hPa | 2.7V | 00:00:00 | 01:23:11 | 00:00:00 | |
| OE5DRO-10 | 2026-09-01 11:52:51 | 48.32364 | 12.52571 | 104° | 24km/h | 18309m | 4.5m/s | -53.8°C | 4.0% | 76.0hPa | 2.7V | 00:00:00 | 00:00:00 | 00:00:00 | |
| OE5WHR-10 | 2026-09-01 11:52:50 | 48.32365 | 12.52563 | 100° | 26km/h | 18304m | 5.5m/s | -53.9°C | 4.0% | 76.0hPa | 2.7V | 00:00:00 | 00:00:00 | 00:00:00 | |
| DO3MHA-11 | 2026-09-01 11:52:49 | 48.32366 | 12.52556 | 94° | 22km/h | 18299m | 5.1m/s | -53.9°C | 4.0% | 76.1hPa | 2.7V | 00:00:00 | 01:23:08 | 00:00:00 | |
| OE3JTB-15 | 2026-09-01 11:52:46 | 48.32372 | 12.52495 | 103° | 24km/h | 18266m | 3.9m/s | -54.0°C | 4.1% | 76.5hPa | 2.7V | 00:00:00 | 00:00:00 | 00:00:00 | |
| OE5MMP-10 | 2026-09-01 11:52:42 | 48.32372 | 12.52495 | 103° | 27km/h | 18266m | 3.9m/s | -54.0°C | 4.1% | 76.5hPa | 2.7V | 00:00:00 | 01:23:01 | 08:30:00 | |
| PG1ADW-2 | 2026-09-01 11:52:39 | 48.32375 | 12.52469 | 97° | 29km/h | 18252m | 4.4m/s | -54.0°C | 4.0% | 76.7hPa | 2.6V | 00:00:00 | 00:00:00 | 00:00:00 | |
| DO3MHA-11 | 2026-09-01 11:52:37 | 48.32377 | 12.52449 | 95° | 31km/h | 18243m | 5.2m/s | -53.9°C | 4.1% | 76.8hPa | 2.7V | 00:00:00 | 01:22:56 | 00:00:00 | |
| OE5HKT-10 | 2026-09-01 11:52:35 | 48.32377 | 12.52427 | 91° | 31km/h | 18233m | 5.7m/s | -53.9°C | 3.9% | 76.9hPa | 2.7V | 00:00:00 | 00:00:00 | 00:00:00 | |
| PETON7-10 | 2026-09-01 11:52:34 | 48.32377 | 12.52415 | 89° | 29km/h | 18228m | 4.8m/s | -53.8°C | 3.9% | 77.0hPa | 2.7V | 00:00:00 | 00:00:00 | 00:00:00 | |
| OE5MMP-10 | 2026-09-01 11:52:32 | 48.32376 | 12.52389 | 86° | 29km/h | 18219m | 5.3m/s | -53.8°C | 3.9% | 77.1hPa | 2.7V | 00:00:00 | 01:22:51 | 00:00:00 | |
| DO7DH-14 | 2026-09-01 11:52:31 | 48.32376 | 12.52377 | 85° | 27km/h | 18214m | 4.5m/s | -53.7°C | 3.9% | 77.1hPa | 2.7V | 00:00:00 | 01:22:50 | 00:00:00 | |
| OE5WHR-10 | 2026-09-01 11:52:29 | 48.32374 | 12.52353 | 83° | 27km/h | 18204m | 5.3m/s | -53.7°C | 4.0% | 77.2hPa | 2.7V | 00:00:00 | 01:22:48 | 00:00:00 | |
| DO3MHA-11 | 2026-09-01 11:52:27 | 48.32371 | 12.52331 | 77° | 27km/h | 18194m | 5.8m/s | -53.6°C | 4.0% | 77.4hPa | 2.7V | 00:00:00 | 01:22:46 | 00:00:00 | |
| DL6DJ-15 | 2026-09-01 11:52:25 | 48.32366 | 12.52304 | 73° | 26km/h | 18179m | 5.3m/s | -53.6°C | 1.2% | 77.6hPa | 2.6V | 00:00:00 | 00:00:00 | 00:00:00 | |
| OE5MMP-10 | 2026-09-01 11:52:22 | 48.32362 | 12.52283 | 80° | 31km/h | 18170m | 4.5m/s | -53.5°C | 3.9% | 77.7hPa | 2.6V | 00:00:00 | 01:22:41 | 00:00:00 | |
| PETON7-10 | 2026-09-01 11:52:20 | 48.32360 | 12.52251 | 86° | 27km/h | 18156m | 4.7m/s | -53.6°C | 3.8% | 77.8hPa | 2.6V | 00:00:00 | 01:22:38 | 00:00:00 | |
| DO3MHA-11 | 2026-09-01 11:52:17 | 48.32358 | 12.52225 | 85° | 27km/h | 18146m | 4.3m/s | -53.6°C | 3.8% | 77.9hPa | 2.6V | 00:00:00 | 01:22:36 | 00:00:00 | |
| OE5FHM-15 | 2026-09-01 11:52:16 | 48.32357 | 12.52212 | 85° | 26km/h | 18142m | 4.6m/s | -53.5°C | 3.8% | 78.0hPa | 2.6V | 00:00:00 | 01:22:35 | 00:00:00 | |
| OE5HKT-10 | 2026-09-01 11:52:14 | 48.32356 | 12.52190 | 84° | 24km/h | 18133m | 3.7m/s | -53.6°C | 3.9% | 78.1hPa | 2.6V | 00:00:00 | 01:22:33 | 00:00:00 | |
| OE5DRO-10 | 2026-09-01 11:52:13 | 48.32353 | 12.52170 | 76° | 24km/h | 18124m | 4.9m/s | -53.6°C | 3.9% | 78.2hPa | 2.6V | 00:00:00 | 00:00:00 | 00:00:00 | |
| OE5MMP-10 | 2026-09-01 11:52:12 | 48.32353 | 12.52170 | 76° | 26km/h | 18124m | 4.9m/s | -53.6°C | 3.9% | 78.2hPa | 2.6V | 00:00:00 | 01:22:31 | 00:00:00 | |
| DO3MHA-11 | 2026-09-01 11:52:08 | 48.32348 | 12.52127 | 85° | 26km/h | 18100m | 5.3m/s | -53.8°C | 4.0% | 78.5hPa | 2.6V | 00:00:00 | 01:22:26 | 00:00:00 | |
| PETON7-10 | 2026-09-01 11:52:04 | 48.32346 | 12.52097 | 87° | 24km/h | 18086m | 5.1m/s | -53.9°C | 4.0% | 78.7hPa | 2.6V | 00:00:00 | 00:00:00 | 00:00:00 | |
| DL6DJ-15 | 2026-09-01 11:51:54 | 48.32321 | 12.52004 | 57° | 20km/h | 18035m | 3.8m/s | -54.0°C | 1.3% | 79.4hPa | 2.7V | 00:00:00 | 00:00:00 | 00:00:00 | |
| OE5HKT-10 | 2026-09-01 11:51:53 | 48.32321 | 12.52004 | 58° | 24km/h | 18035m | 3.8m/s | -54.0°C | 4.1% | 79.3hPa | 2.7V | 00:00:00 | 00:00:00 | 00:00:00 | |
| OE5MMP-10 | 2026-09-01 11:51:52 | 48.32318 | 12.51998 | 68° | 24km/h | 18030m | 4.9m/s | -54.0°C | 4.1% | 79.3hPa | 2.6V | 00:00:00 | 01:22:11 | 00:00:00 | |
| PETON7-10 | 2026-09-01 11:51:49 | 48.32315 | 12.51974 | 81° | 26km/h | 18017m | 5.2m/s | -53.9°C | 4.2% | 79.5hPa | 2.6V | 00:00:00 | 00:00:00 | 00:00:00 | |
| OE5WHR-10 | 2026-09-01 11:51:47 | 48.32312 | 12.51956 | 72° | 26km/h | 18007m | 4.1m/s | -53.9°C | 4.1% | 79.7hPa | 2.6V | 00:00:00 | 00:00:00 | 00:00:00 | |
| OE5FHM-15 | 2026-09-01 11:51:46 | 48.32310 | 12.51946 | 70° | 26km/h | 18002m | 5.2m/s | -54.0°C | 4.1% | 79.7hPa | 2.6V | 00:00:00 | 01:22:05 | 00:00:00 | |
| OE5MMP-10 | 2026-09-01 11:51:42 | 48.32297 | 12.51910 | 55° | 24km/h | 17983m | 4.2m/s | -53.9°C | 3.9% | 79.9hPa | 2.6V | 00:00:00 | 01:22:01 | 00:00:00 | |
| PG1ADW-2 | 2026-09-01 11:51:38 | 48.32284 | 12.51877 | 63° | 26km/h | 17965m | 5.5m/s | -53.7°C | 4.0% | 80.2hPa | 2.7V | 00:00:00 | 00:00:00 | 08:30:00 | |
| PETON7-10 | 2026-09-01 11:51:34 | 48.32275 | 12.51843 | 83° | 24km/h | 17946m | 4.3m/s | -53.5°C | 4.0% | 80.4hPa | 2.7V | 00:00:00 | 01:21:53 | 00:00:00 | |
| OE5MMP-10 | 2026-09-01 11:51:32 | 48.32274 | 12.51828 | 76° | 24km/h | 17939m | 3.9m/s | -53.5°C | 4.0% | 80.5hPa | 2.7V | 00:00:00 | 01:21:51 | 00:00:00 | |
| DO3MHA-11 | 2026-09-01 11:51:31 | 48.32272 | 12.51820 | 64° | 26km/h | 17934m | 5.1m/s | -53.5°C | 4.0% | 80.6hPa | 2.7V | 00:00:00 | 01:21:50 | 00:00:00 | |
| OE5HKT-10 | 2026-09-01 11:51:30 | 48.32269 | 12.51813 | 54° | 27km/h | 17930m | 4.3m/s | -53.5°C | 3.9% | 80.6hPa | 2.7V | 00:00:00 | 00:00:00 | 00:00:00 | |
| OE5WHR-10 | 2026-09-01 11:51:26 | 48.32250 | 12.51785 | 40° | 22km/h | 17912m | 4.5m/s | -53.8°C | 4.0% | 80.8hPa | 2.7V | 00:00:00 | 01:21:45 | 00:00:00 | |
| DL6DJ-15 | 2026-09-01 11:51:23 | 48.32236 | 12.51758 | 64° | 26km/h | 17895m | 4.7m/s | -53.6°C | 1.2% | 81.1hPa | 2.7V | 00:00:00 | 00:00:00 | 00:00:00 | |
| OE5MMP-10 | 2026-09-01 11:51:22 | 48.32236 | 12.51758 | 65° | 29km/h | 17895m | 4.6m/s | -53.5°C | 4.0% | 81.1hPa | 2.7V | 00:00:00 | 01:21:41 | 00:00:00 | |
| BAUMI2-15 | 2026-09-01 11:51:21 | 48.32231 | 12.51738 | 76° | 29km/h | 17886m | 5.7m/s | -53.5°C | 4.0% | 81.2hPa | 2.7V | 00:00:00 | 01:21:39 | 00:00:00 | |
| PETON7-10 | 2026-09-01 11:51:19 | 48.32230 | 12.51728 | 78° | 29km/h | 17881m | 4.1m/s | -53.5°C | 4.0% | 81.2hPa | 2.7V | 00:00:00 | 00:00:00 | 08:30:00 | |
| OE5FHM-15 | 2026-09-01 11:51:16 | 48.32223 | 12.51694 | 69° | 31km/h | 17867m | 3.7m/s | -53.4°C | 3.9% | 81.4hPa | 2.5V | 00:00:00 | 01:21:35 | 08:30:00 | |
| BAUMI2-15 | 2026-09-01 11:51:15 | 48.32220 | 12.51684 | 63° | 27km/h | 17862m | 4.8m/s | -53.4°C | 4.0% | 81.5hPa | 2.7V | 00:00:00 | 01:21:34 | 00:00:00 | |
| OE5DRO-10 | 2026-09-01 11:51:13 | 48.32212 | 12.51666 | 49° | 31km/h | 17853m | 4.1m/s | -53.3°C | 3.9% | 81.6hPa | 2.7V | 00:00:00 | 00:00:00 | 00:00:00 | |
| OE5MMP-10 | 2026-09-01 11:51:12 | 48.32208 | 12.51659 | 48° | 29km/h | 17848m | 4.8m/s | -53.3°C | 3.9% | 81.6hPa | 2.7V | 00:00:00 | 01:21:31 | 08:30:00 | |
| BAUMI2-15 | 2026-09-01 11:51:11 | 48.32199 | 12.51643 | 55° | 27km/h | 17839m | 3.8m/s | -53.3°C | 3.8% | 81.7hPa | 2.5V | 00:00:00 | 01:21:29 | 00:00:00 | |
| DO3MHA-11 | 2026-09-01 11:51:09 | 48.32196 | 12.51636 | 58° | 35km/h | 17835m | 5.5m/s | -53.4°C | 3.9% | 81.8hPa | 2.7V | 00:00:00 | 01:21:28 | 00:00:00 | |
| OE5DXL-15 | 2026-09-01 11:51:07 | 48.32190 | 12.51618 | 68° | 33km/h | 17826m | 3.6m/s | -53.3°C | 3.9% | 81.9hPa | 2.7V | 00:00:00 | 00:00:00 | 08:30:00 | |
| BAUMI2-15 | 2026-09-01 11:51:05 | 48.32184 | 12.51597 | 71° | 33km/h | 17816m | 4.0m/s | -53.3°C | 3.9% | 82.0hPa | 2.6V | 00:00:00 | 01:21:24 | 00:00:00 | |
| PETON7-10 | 2026-09-01 11:51:04 | 48.32181 | 12.51585 | 69° | 33km/h | 17813m | 3.9m/s | -53.2°C | 3.9% | 82.1hPa | 2.6V | 00:00:00 | 00:00:00 | 00:00:00 | |
| DL6DJ-15 | 2026-09-01 11:50:52 | 48.32119 | 12.51452 | 53° | 24km/h | 17754m | 4.9m/s | -53.2°C | 1.3% | 82.9hPa | 2.6V | 00:00:00 | 00:00:00 | 00:00:00 | |
| OE3JTB-15 | 2026-09-01 11:50:51 | 48.32111 | 12.51438 | 49° | 38km/h | 17746m | 3.9m/s | -53.0°C | 3.9% | 83.0hPa | 2.6V | 00:00:00 | 00:00:00 | 00:00:00 | |
| PETON7-10 | 2026-09-01 11:50:49 | 48.32111 | 12.51438 | 49° | 33km/h | 17746m | 3.9m/s | -53.0°C | 3.9% | 83.0hPa | 2.6V | 00:00:00 | 01:21:08 | 00:00:00 | |
| OE5HKT-10 | 2026-09-01 11:50:48 | 48.32106 | 12.51429 | 49° | 33km/h | 17742m | 4.9m/s | -53.0°C | 3.9% | 83.0hPa | 2.6V | 00:00:00 | 00:00:00 | 00:00:00 | |
| OE5FHM-15 | 2026-09-01 11:50:46 | 48.32093 | 12.51409 | 47° | 31km/h | 17732m | 4.4m/s | -53.0°C | 3.9% | 83.1hPa | 2.7V | 00:00:00 | 01:21:05 | 00:00:00 | |
| DO3MHA-11 | 2026-09-01 11:50:45 | 48.32086 | 12.51398 | 45° | 35km/h | 17727m | 4.2m/s | -53.0°C | 3.9% | 83.2hPa | 2.7V | 00:00:00 | 01:21:04 | 00:00:00 | |
| OE5MMP-10 | 2026-09-01 11:50:42 | 48.32063 | 12.51367 | 44° | 29km/h | 17714m | 4.4m/s | -52.8°C | 3.8% | 83.4hPa | 2.7V | 00:00:00 | 01:21:01 | 00:00:00 | |
| OE5DXL-15 | 2026-09-01 11:50:37 | 48.32040 | 12.51325 | 44° | 29km/h | 17691m | 4.7m/s | -52.6°C | 3.9% | 83.7hPa | 2.5V | 00:00:00 | 00:00:00 | 00:00:00 | |
| DO3MHA-11 | 2026-09-01 11:50:35 | 48.32030 | 12.51312 | 41° | 33km/h | 17682m | 4.9m/s | -52.5°C | 3.9% | 83.8hPa | 2.5V | 00:00:00 | 01:20:54 | 00:00:00 | |
| PETON7-10 | 2026-09-01 11:50:34 | 48.32025 | 12.51305 | 41° | 31km/h | 17677m | 4.6m/s | -52.5°C | 3.9% | 83.9hPa | 2.5V | 00:00:00 | 00:00:00 | 00:00:00 | |
| OE5MMP-10 | 2026-09-01 11:50:32 | 48.32012 | 12.51290 | 39° | 33km/h | 17668m | 5.1m/s | -52.4°C | 3.9% | 84.0hPa | 2.7V | 00:00:00 | 01:20:51 | 00:00:00 | |
| DO7DH-14 | 2026-09-01 11:50:31 | 48.32005 | 12.51281 | 39° | 29km/h | 17663m | 3.6m/s | -52.3°C | 3.8% | 84.0hPa | 2.7V | 00:00:00 | 01:20:50 | 08:30:00 | |
| OE5HKT-10 | 2026-09-01 11:50:27 | 48.31979 | 12.51238 | 55° | 27km/h | 17648m | 3.2m/s | -52.2°C | 3.8% | 84.2hPa | 2.7V | 00:00:00 | 00:00:00 | 00:00:00 | |
| DO3MHA-11 | 2026-09-01 11:50:25 | 48.31969 | 12.51220 | 44° | 29km/h | 17638m | 4.8m/s | -52.3°C | 3.8% | 84.4hPa | 2.7V | 00:00:00 | 01:20:44 | 00:00:00 | |
| OE5MMP-10 | 2026-09-01 11:50:22 | 48.31954 | 12.51203 | 35° | 29km/h | 17624m | 5.2m/s | -52.2°C | 3.8% | 84.5hPa | 2.7V | 00:00:00 | 01:20:41 | 00:00:00 | |
| BAUMI2-15 | 2026-09-01 11:50:20 | 48.31945 | 12.51193 | 36° | 29km/h | 17615m | 3.2m/s | -52.1°C | 3.8% | 84.7hPa | 2.7V | 00:00:00 | 01:20:39 | 00:00:00 | |
| PETON7-10 | 2026-09-01 11:50:19 | 48.31939 | 12.51188 | 33° | 27km/h | 17611m | 4.2m/s | -52.1°C | 3.7% | 84.7hPa | 2.7V | 00:00:00 | 00:00:00 | 00:00:00 | |
| NBG1-10 | 2026-09-01 11:50:18 | 48.31933 | 12.51182 | 30° | 62km/h | 17606m | 5.4m/s | 0°C | 0% | 0hPa | 2.7V | 00:00:00 | 01:20:37 | 00:00:00 | |
| OE5DRO-10 | 2026-09-01 11:50:17 | 48.31919 | 12.51170 | 32° | 27km/h | 17597m | 3.8m/s | -52.0°C | 3.7% | 84.9hPa | 2.7V | 00:00:00 | 00:00:00 | 08:30:00 | |
| OE5FHM-15 | 2026-09-01 11:50:16 | 48.31919 | 12.51170 | 32° | 27km/h | 17597m | 3.8m/s | -52.0°C | 3.7% | 84.9hPa | 2.7V | 00:00:00 | 01:20:35 | 00:00:00 | |
| DO3MHA-11 | 2026-09-01 11:50:14 | 48.31907 | 12.51155 | 47° | 26km/h | 17588m | 4.6m/s | -51.8°C | 3.7% | 85.0hPa | 2.7V | 00:00:00 | 01:20:33 | 08:30:00 | |
| OE5MMP-10 | 2026-09-01 11:50:12 | 48.31897 | 12.51137 | 53° | 26km/h | 17579m | 4.9m/s | -51.6°C | 3.7% | 85.2hPa | 2.6V | 00:00:00 | 01:20:31 | 00:00:00 | |
| OE5HKT-10 | 2026-09-01 11:50:07 | 48.31867 | 12.51102 | 36° | 27km/h | 17550m | 5.3m/s | -51.4°C | 3.6% | 85.5hPa | 2.7V | 00:00:00 | 01:20:25 | 00:00:00 | |
| PETON7-10 | 2026-09-01 11:50:04 | 48.31858 | 12.51091 | 47° | 27km/h | 17539m | 4.1m/s | -51.3°C | 3.6% | 85.7hPa | 2.7V | 00:00:00 | 01:20:23 | 00:00:00 | |
| DL6DJ-15 | 2026-09-01 11:49:50 | 48.31789 | 12.50975 | 66° | 22km/h | 17469m | 5.1m/s | -51.4°C | 1.1% | 86.7hPa | 2.7V | 00:00:00 | 00:00:00 | 00:00:00 | |
| PETON7-10 | 2026-09-01 11:49:49 | 48.31789 | 12.50975 | 67° | 24km/h | 17469m | 5.0m/s | -51.3°C | 3.6% | 86.6hPa | 2.7V | 00:00:00 | 00:00:00 | 00:00:00 | |
| OE5FHM-15 | 2026-09-01 11:49:46 | 48.31783 | 12.50948 | 73° | 24km/h | 17457m | 5.1m/s | -51.5°C | 3.6% | 86.8hPa | 2.5V | 00:00:00 | 01:20:05 | 00:00:00 | |
| OE5HKT-10 | 2026-09-01 11:49:45 | 48.31781 | 12.50937 | 70° | 24km/h | 17453m | 3.7m/s | -51.6°C | 3.6% | 86.8hPa | 2.6V | 00:00:00 | 00:00:00 | 08:30:00 | |
| OE5MMP-10 | 2026-09-01 11:49:42 | 48.31772 | 12.50905 | 66° | 20km/h | 17439m | 3.8m/s | -51.6°C | 3.6% | 87.0hPa | 2.7V | 00:00:00 | 01:20:01 | 08:30:00 | |
| OE5DRO-10 | 2026-09-01 11:49:38 | 48.31760 | 12.50872 | 63° | 22km/h | 17423m | 4.8m/s | -51.7°C | 3.6% | 87.2hPa | 2.5V | 00:00:00 | 00:00:00 | 00:00:00 | |
| OE5DXL-15 | 2026-09-01 11:49:37 | 48.31759 | 12.50866 | 68° | 24km/h | 17418m | 4.5m/s | -51.6°C | 3.6% | 87.3hPa | 2.5V | 00:00:00 | 00:00:00 | 00:00:00 | |
| PETON7-10 | 2026-09-01 11:49:34 | 48.31755 | 12.50852 | 67° | 24km/h | 17405m | 3.6m/s | -51.7°C | 3.6% | 87.5hPa | 2.6V | 00:00:00 | 00:00:00 | 00:00:00 | |
| OE5MMP-10 | 2026-09-01 11:49:32 | 48.31752 | 12.50841 | 75° | 26km/h | 17397m | 4.9m/s | -51.7°C | 3.5% | 87.6hPa | 2.6V | 00:00:00 | 01:19:51 | 00:00:00 | |
| DO7DH-14 | 2026-09-01 11:49:31 | 48.31751 | 12.50834 | 81° | 27km/h | 17392m | 4.4m/s | -51.8°C | 3.5% | 87.7hPa | 2.6V | 00:00:00 | 01:19:50 | 00:00:00 | |
| OE5MMP-10 | 2026-09-01 11:49:22 | 48.31745 | 12.50747 | 96° | 27km/h | 17354m | 4.4m/s | -51.9°C | 3.7% | 88.2hPa | 2.6V | 00:00:00 | 01:19:41 | 00:00:00 | |
| DL6DJ-15 | 2026-09-01 11:49:19 | 48.31746 | 12.50711 | 100° | 27km/h | 17338m | 4.8m/s | -51.9°C | 1.2% | 88.4hPa | 2.6V | 00:00:00 | 00:00:00 | 00:00:00 | |
| OE5FHM-15 | 2026-09-01 11:49:16 | 48.31750 | 12.50689 | 109° | 29km/h | 17330m | 3.3m/s | -51.9°C | 3.7% | 88.5hPa | 2.6V | 00:00:00 | 01:19:35 | 00:00:00 | |
| OE5MMP-10 | 2026-09-01 11:49:12 | 48.31760 | 12.50647 | 114° | 29km/h | 17313m | 4.7m/s | -51.7°C | 3.6% | 88.8hPa | 2.6V | 00:00:00 | 01:19:31 | 00:00:00 | |
| OE5DXL-15 | 2026-09-01 11:49:07 | 48.31772 | 12.50596 | 108° | 33km/h | 17293m | 4.3m/s | -51.8°C | 3.6% | 89.0hPa | 2.7V | 00:00:00 | 00:00:00 | 00:00:00 | |
| PETON7-10 | 2026-09-01 11:49:04 | 48.31779 | 12.50564 | 108° | 29km/h | 17280m | 4.8m/s | -51.5°C | 3.6% | 89.2hPa | 2.7V | 00:00:00 | 00:00:00 | 08:30:00 | |
| DL6DJ-15 | 2026-09-01 11:48:48 | 48.31827 | 12.50383 | 107° | 35km/h | 17210m | 4.4m/s | -51.3°C | 1.1% | 90.2hPa | 2.6V | 00:00:00 | 00:00:00 | 00:00:00 | |
| OE5FHM-15 | 2026-09-01 11:48:46 | 48.31830 | 12.50370 | 111° | 40km/h | 17207m | 3.3m/s | -51.3°C | 3.4% | 90.2hPa | 2.6V | 00:00:00 | 01:19:05 | 00:00:00 | |
| OE5MMP-10 | 2026-09-01 11:48:42 | 48.31848 | 12.50319 | 123° | 35km/h | 17188m | 5.2m/s | -51.2°C | 3.5% | 90.5hPa | 2.6V | 00:00:00 | 01:19:01 | 00:00:00 | |
| OE5DRO-10 | 2026-09-01 11:48:41 | 48.31853 | 12.50308 | 122° | 55km/h | 17183m | 3.8m/s | -51.3°C | 3.5% | 90.6hPa | 2.7V | 00:00:00 | 00:00:00 | 00:00:00 | |
| OE5HKT-10 | 2026-09-01 11:48:40 | 48.31857 | 12.50297 | 121° | 38km/h | 17180m | 3.3m/s | -51.4°C | 3.5% | 90.6hPa | 2.7V | 00:00:00 | 00:00:00 | 00:00:00 | |
| OE5DXL-15 | 2026-09-01 11:48:37 | 48.31871 | 12.50262 | 121° | 42km/h | 17167m | 3.8m/s | -51.3°C | 3.5% | 90.8hPa | 2.7V | 00:00:00 | 00:00:00 | 00:00:00 | |
| PETON7-10 | 2026-09-01 11:48:34 | 48.31884 | 12.50228 | 122° | 42km/h | 17154m | 3.9m/s | -51.4°C | 3.5% | 91.0hPa | 2.7V | 00:00:00 | 01:18:53 | 00:00:00 | |
| OE5MMP-10 | 2026-09-01 11:48:32 | 48.31894 | 12.50205 | 123° | 42km/h | 17145m | 3.5m/s | -51.4°C | 3.5% | 91.1hPa | 2.7V | 00:00:00 | 01:18:51 | 00:00:00 | |
| DO7DH-14 | 2026-09-01 11:48:30 | 48.31905 | 12.50180 | 121° | 46km/h | 17136m | 5.8m/s | -51.6°C | 3.5% | 91.2hPa | 2.7V | 00:00:00 | 01:18:49 | 00:00:00 | |
| OE5MMP-10 | 2026-09-01 11:48:22 | 48.31944 | 12.50067 | 113° | 46km/h | 17098m | 5.1m/s | -52.1°C | 3.7% | 91.8hPa | 2.7V | 00:00:00 | 01:18:41 | 00:00:00 | |
| PETON7-10 | 2026-09-01 11:48:19 | 48.31957 | 12.50017 | 108° | 46km/h | 17083m | 5.4m/s | -52.1°C | 3.8% | 91.9hPa | 2.7V | 00:00:00 | 00:00:00 | 00:00:00 | |
| OE5FHM-15 | 2026-09-01 11:48:16 | 48.31966 | 12.49966 | 107° | 51km/h | 17070m | 4.7m/s | -52.0°C | 3.7% | 92.1hPa | 2.6V | 00:00:00 | 01:18:35 | 00:00:00 | |
| OE5MMP-10 | 2026-09-01 11:48:12 | 48.31979 | 12.49902 | 105° | 47km/h | 17054m | 3.6m/s | -52.1°C | 3.7% | 92.4hPa | 2.7V | 00:00:00 | 01:18:31 | 08:30:00 | |
| OE5DXL-15 | 2026-09-01 11:48:07 | 48.31994 | 12.49819 | 107° | 57km/h | 17033m | 4.8m/s | -52.2°C | 3.7% | 92.7hPa | 2.7V | 00:00:00 | 00:00:00 | 00:00:00 | |
| PETON7-10 | 2026-09-01 11:48:04 | 48.32005 | 12.49765 | 107° | 55km/h | 17019m | 5.5m/s | -52.3°C | 3.7% | 92.9hPa | 2.6V | 00:00:00 | 00:00:00 | 00:00:00 | |
| OE5MMP-10 | 2026-09-01 11:48:02 | 48.32013 | 12.49729 | 109° | 55km/h | 17010m | 4.0m/s | -52.3°C | 3.6% | 93.0hPa | 2.6V | 00:00:00 | 01:18:21 | 00:00:00 | |
| DO3MHA-11 | 2026-09-01 11:48:00 | 48.32020 | 12.49695 | 108° | 55km/h | 17001m | 3.7m/s | -52.2°C | 3.7% | 93.1hPa | 2.6V | 00:00:00 | 01:18:19 | 00:00:00 | |
| OE5HKT-10 | 2026-09-01 11:47:58 | 48.32028 | 12.49660 | 110° | 62km/h | 16993m | 5.4m/s | -52.1°C | 3.7% | 93.3hPa | 2.6V | 00:00:00 | 01:18:17 | 00:00:00 | |
| OE5MMP-10 | 2026-09-01 11:47:52 | 48.32052 | 12.49530 | 102° | 58km/h | 16965m | 5.2m/s | -52.2°C | 3.6% | 93.7hPa | 2.6V | 00:00:00 | 01:18:11 | 00:00:00 | |
| BAUMI2-15 | 2026-09-01 11:47:51 | 48.32063 | 12.49461 | 105° | 55km/h | 16953m | 4.9m/s | -52.3°C | 3.6% | 93.9hPa | 2.6V | 00:00:00 | 01:18:08 | 00:00:00 | |
| PETON7-10 | 2026-09-01 11:47:49 | 48.32063 | 12.49461 | 105° | 60km/h | 16953m | 4.9m/s | -52.3°C | 3.6% | 93.9hPa | 2.6V | 00:00:00 | 01:18:08 | 00:00:00 | |
| OE5FHM-15 | 2026-09-01 11:47:46 | 48.32072 | 12.49402 | 103° | 60km/h | 16938m | 5.1m/s | -52.5°C | 3.8% | 94.1hPa | 2.6V | 00:00:00 | 01:18:05 | 00:00:00 | |
| DO3MHA-11 | 2026-09-01 11:47:45 | 48.32075 | 12.49382 | 103° | 57km/h | 16934m | 4.2m/s | -52.6°C | 3.9% | 94.1hPa | 2.6V | 00:00:00 | 01:18:04 | 00:00:00 | |
| OE5MMP-10 | 2026-09-01 11:47:42 | 48.32082 | 12.49317 | 97° | 64km/h | 16920m | 4.2m/s | -52.6°C | 3.8% | 94.3hPa | 2.6V | 00:00:00 | 01:18:01 | 00:00:00 | |
| OE5DXL-15 | 2026-09-01 11:47:37 | 48.32095 | 12.49189 | 100° | 58km/h | 16898m | 4.5m/s | -52.6°C | 3.7% | 94.7hPa | 2.7V | 00:00:00 | 00:00:00 | 00:00:00 | |
| OE5HKT-10 | 2026-09-01 11:47:36 | 48.32098 | 12.49165 | 101° | 58km/h | 16894m | 3.8m/s | -52.6°C | 3.7% | 94.7hPa | 2.7V | 00:00:00 | 00:00:00 | 00:00:00 | |
| PETON7-10 | 2026-09-01 11:47:34 | 48.32104 | 12.49121 | 103° | 58km/h | 16885m | 5.1m/s | -52.6°C | 3.7% | 94.8hPa | 2.6V | 00:00:00 | 00:00:00 | 00:00:00 | |
| OE5MMP-10 | 2026-09-01 11:47:33 | 48.32109 | 12.49078 | 100° | 57km/h | 16876m | 3.7m/s | -52.7°C | 3.7% | 95.0hPa | 2.6V | 00:00:00 | 01:17:51 | 00:00:00 | |
| DO7DH-14 | 2026-09-01 11:47:29 | 48.32113 | 12.49017 | 93° | 58km/h | 16863m | 4.1m/s | -52.7°C | 3.9% | 95.2hPa | 2.6V | 00:00:00 | 01:17:48 | 00:00:00 | |
| DO3MHA-11 | 2026-09-01 11:47:27 | 48.32115 | 12.48975 | 97° | 60km/h | 16854m | 4.1m/s | -52.6°C | 3.9% | 95.3hPa | 2.6V | 00:00:00 | 01:17:46 | 00:00:00 | |
| BAUMI2-15 | 2026-09-01 11:47:24 | 48.32120 | 12.48908 | 96° | 62km/h | 16841m | 5.0m/s | -52.6°C | 3.8% | 95.5hPa | 2.7V | 00:00:00 | 01:17:43 | 00:00:00 | |
| OE5MMP-10 | 2026-09-01 11:47:22 | 48.32123 | 12.48861 | 97° | 60km/h | 16831m | 5.1m/s | -52.6°C | 3.8% | 95.6hPa | 2.6V | 00:00:00 | 01:17:41 | 00:00:00 | |
| PETON7-10 | 2026-09-01 11:47:19 | 48.32129 | 12.48790 | 95° | 57km/h | 16818m | 5.0m/s | -52.7°C | 3.7% | 95.8hPa | 2.6V | 00:00:00 | 00:00:00 | 00:00:00 | |
| DO3MHA-11 | 2026-09-01 11:47:17 | 48.32129 | 12.48744 | 89° | 55km/h | 16808m | 3.8m/s | -52.7°C | 3.7% | 96.0hPa | 2.6V | 00:00:00 | 01:17:36 | 00:00:00 | |
| OE5FHM-15 | 2026-09-01 11:47:16 | 48.32129 | 12.48721 | 88° | 55km/h | 16804m | 3.8m/s | -52.8°C | 3.7% | 96.0hPa | 2.6V | 00:00:00 | 01:17:35 | 00:00:00 | |
| OE5HKT-10 | 2026-09-01 11:47:15 | 48.32129 | 12.48700 | 90° | 57km/h | 16800m | 5.1m/s | -52.8°C | 3.7% | 96.1hPa | 2.6V | 00:00:00 | 00:00:00 | 00:00:00 | |
| OE5MMP-10 | 2026-09-01 11:47:12 | 48.32129 | 12.48637 | 92° | 57km/h | 16786m | 5.2m/s | -52.7°C | 3.7% | 96.3hPa | 2.6V | 00:00:00 | 01:17:31 | 00:00:00 | |
| BAUMI2-15 | 2026-09-01 11:47:09 | 48.32131 | 12.48576 | 97° | 57km/h | 16771m | 5.1m/s | -52.8°C | 3.7% | 96.5hPa | 2.7V | 00:00:00 | 01:17:28 | 08:30:00 | |
| DO3MHA-11 | 2026-09-01 11:47:07 | 48.32134 | 12.48534 | 96° | 53km/h | 16762m | 4.7m/s | -52.8°C | 3.8% | 96.7hPa | 2.7V | 00:00:00 | 01:17:26 | 00:00:00 | |
| PETON7-10 | 2026-09-01 11:47:05 | 48.32134 | 12.48468 | 88° | 57km/h | 16748m | 4.3m/s | -53.0°C | 3.8% | 96.9hPa | 2.7V | 00:00:00 | 01:17:23 | 00:00:00 | |
| OE5MMP-10 | 2026-09-01 11:47:02 | 48.32133 | 12.48424 | 86° | 57km/h | 16739m | 4.5m/s | -53.3°C | 3.8% | 97.1hPa | 2.7V | 00:00:00 | 01:17:21 | 00:00:00 | |
| OE5HKT-10 | 2026-09-01 11:46:54 | 48.32127 | 12.48252 | 93° | 55km/h | 16700m | 4.9m/s | -53.8°C | 4.1% | 97.6hPa | 2.7V | 00:00:00 | 01:17:13 | 00:00:00 | |
| OE5MMP-10 | 2026-09-01 11:46:52 | 48.32129 | 12.48212 | 93° | 55km/h | 16691m | 3.6m/s | -53.8°C | 4.1% | 97.7hPa | 2.7V | 00:00:00 | 01:17:11 | 00:00:00 | |
| PETON7-10 | 2026-09-01 11:46:49 | 48.32129 | 12.48151 | 87° | 55km/h | 16678m | 3.7m/s | -53.8°C | 4.1% | 98.0hPa | 2.7V | 00:00:00 | 00:00:00 | 08:30:00 | |
| OE5FHM-15 | 2026-09-01 11:46:46 | 48.32127 | 12.48091 | 90° | 51km/h | 16665m | 4.1m/s | -53.7°C | 4.0% | 98.2hPa | 2.6V | 00:00:00 | 01:17:05 | 08:30:00 | |
| DL6DJ-15 | 2026-09-01 11:46:43 | 48.32127 | 12.48026 | 91° | 58km/h | 16651m | 3.8m/s | -53.8°C | 1.3% | 98.4hPa | 2.7V | 00:00:00 | 00:00:00 | 00:00:00 | |
| OE5MMP-10 | 2026-09-01 11:46:42 | 48.32128 | 12.48004 | 92° | 53km/h | 16646m | 4.7m/s | -53.9°C | 4.0% | 98.4hPa | 2.7V | 00:00:00 | 01:17:01 | 08:30:00 | |
| OE5DXL-15 | 2026-09-01 11:46:35 | 48.32125 | 12.47862 | 88° | 49km/h | 16615m | 4.4m/s | -53.8°C | 4.1% | 98.9hPa | 2.6V | 00:00:00 | 00:00:00 | 08:30:00 | |
| PETON7-10 | 2026-09-01 11:46:34 | 48.32125 | 12.47843 | 87° | 47km/h | 16610m | 5.4m/s | -53.8°C | 4.1% | 99.0hPa | 2.6V | 00:00:00 | 00:00:00 | 00:00:00 | |
| OE5HKT-10 | 2026-09-01 11:46:33 | 48.32123 | 12.47805 | 88° | 47km/h | 16602m | 3.6m/s | -53.8°C | 4.0% | 99.1hPa | 2.6V | 00:00:00 | 00:00:00 | 08:30:00 | |
| OE5MMP-10 | 2026-09-01 11:46:22 | 48.32124 | 12.47630 | 98° | 49km/h | 16557m | 4.9m/s | -54.0°C | 4.0% | 99.8hPa | 2.7V | 00:00:00 | 01:16:41 | 00:00:00 | |
| DO7DH-14 | 2026-09-01 11:46:21 | 48.32126 | 12.47612 | 97° | 55km/h | 16552m | 4.6m/s | -53.9°C | 4.1% | 99.9hPa | 2.7V | 00:00:00 | 01:16:40 | 00:00:00 | |
| OE3JTB-15 | 2026-09-01 11:46:16 | 48.32137 | 12.47442 | 99° | 58km/h | 16512m | 4.0m/s | -54.3°C | 4.2% | 100.5hPa | 2.7V | 00:00:00 | 01:16:31 | 00:00:00 | |
| OE5MMP-10 | 2026-09-01 11:46:12 | 48.32137 | 12.47442 | 99° | 53km/h | 16512m | 4.0m/s | -54.3°C | 4.2% | 100.5hPa | 2.7V | 00:00:00 | 01:16:31 | 00:00:00 | |
| OE5HKT-10 | 2026-09-01 11:46:11 | 48.32139 | 12.47422 | 99° | 58km/h | 16507m | 5.0m/s | -54.3°C | 4.1% | 100.6hPa | 2.6V | 00:00:00 | 00:00:00 | 00:00:00 | |
| OE5DXL-15 | 2026-09-01 11:46:05 | 48.32144 | 12.47304 | 89° | 58km/h | 16480m | 5.4m/s | -54.2°C | 4.1% | 101.0hPa | 2.6V | 00:00:00 | 00:00:00 | 00:00:00 | |
| PETON7-10 | 2026-09-01 11:46:04 | 48.32144 | 12.47282 | 87° | 60km/h | 16475m | 4.3m/s | -54.3°C | 4.2% | 101.1hPa | 2.6V | 00:00:00 | 00:00:00 | 00:00:00 | |
| OE5MMP-10 | 2026-09-01 11:46:02 | 48.32143 | 12.47237 | 90° | 60km/h | 16466m | 5.3m/s | -54.2°C | 4.1% | 101.2hPa | 2.7V | 00:00:00 | 01:16:21 | 00:00:00 | |
| DO3MHA-11 | 2026-09-01 11:46:00 | 48.32143 | 12.47191 | 92° | 60km/h | 16457m | 3.9m/s | -54.2°C | 4.1% | 101.4hPa | 2.7V | 00:00:00 | 01:16:19 | 08:30:00 | |
| BAUMI2-15 | 2026-09-01 11:45:54 | 48.32143 | 12.47052 | 88° | 62km/h | 16430m | 5.1m/s | -54.2°C | 4.1% | 101.8hPa | 2.6V | 00:00:00 | 01:16:13 | 00:00:00 | |
| OE5MMP-10 | 2026-09-01 11:45:52 | 48.32140 | 12.47006 | 85° | 58km/h | 16422m | 3.4m/s | -54.3°C | 4.2% | 102.0hPa | 2.6V | 00:00:00 | 01:16:11 | 00:00:00 | |
| PETON7-10 | 2026-09-01 11:45:50 | 48.32137 | 12.46942 | 87° | 57km/h | 16409m | 3.7m/s | -54.3°C | 4.2% | 102.1hPa | 2.6V | 00:00:00 | 00:00:00 | 00:00:00 | |
| DO7DH-14 | 2026-09-01 11:45:49 | 48.32136 | 12.46920 | 87° | 60km/h | 16404m | 5.3m/s | -54.4°C | 4.2% | 102.2hPa | 2.6V | 00:00:00 | 01:16:07 | 08:30:00 | |
| OE5FHM-15 | 2026-09-01 11:45:46 | 48.32134 | 12.46875 | 87° | 62km/h | 16395m | 4.7m/s | -54.5°C | 4.3% | 102.4hPa | 2.6V | 00:00:00 | 01:16:05 | 00:00:00 | |
| DO3MHA-11 | 2026-09-01 11:45:44 | 48.32132 | 12.46830 | 85° | 57km/h | 16386m | 3.4m/s | -54.6°C | 4.3% | 102.5hPa | 2.6V | 00:00:00 | 01:16:03 | 00:00:00 | |
| OE5MMP-10 | 2026-09-01 11:45:42 | 48.32129 | 12.46786 | 82° | 57km/h | 16377m | 4.6m/s | -54.5°C | 4.2% | 102.6hPa | 2.6V | 00:00:00 | 01:16:01 | 00:00:00 | |
| DL6DJ-15 | 2026-09-01 11:45:41 | 48.32127 | 12.46765 | 81° | 55km/h | 16372m | 4.9m/s | -54.6°C | 1.5% | 102.8hPa | 2.7V | 00:00:00 | 00:00:00 | 00:00:00 | |
| DO3MHA-11 | 2026-09-01 11:45:34 | 48.32114 | 12.46618 | 87° | 62km/h | 16342m | 3.7m/s | -54.8°C | 4.3% | 103.2hPa | 2.7V | 00:00:00 | 01:15:53 | 00:00:00 | |
| OE5MMP-10 | 2026-09-01 11:45:32 | 48.32112 | 12.46572 | 86° | 64km/h | 16334m | 4.4m/s | -54.8°C | 4.3% | 103.4hPa | 2.7V | 00:00:00 | 01:15:51 | 00:00:00 | |
| PG1ADW-2 | 2026-09-01 11:45:30 | 48.32108 | 12.46525 | 83° | 68km/h | 16326m | 3.7m/s | -54.8°C | 4.3% | 103.5hPa | 2.7V | 00:00:00 | 00:00:00 | 00:00:00 | |
| OE5HKT-10 | 2026-09-01 11:45:29 | 48.32106 | 12.46501 | 85° | 68km/h | 16321m | 4.9m/s | -54.9°C | 4.2% | 103.6hPa | 2.6V | 00:00:00 | 00:00:00 | 00:00:00 | |
| DO3MHA-11 | 2026-09-01 11:45:24 | 48.32101 | 12.46378 | 88° | 69km/h | 16299m | 5.0m/s | -54.9°C | 4.3% | 103.9hPa | 2.7V | 00:00:00 | 01:15:43 | 00:00:00 | |
| OE5MMP-10 | 2026-09-01 11:45:22 | 48.32100 | 12.46326 | 90° | 69km/h | 16290m | 3.8m/s | -54.8°C | 4.3% | 104.1hPa | 2.7V | 00:00:00 | 01:15:41 | 00:00:00 | |
| PETON7-10 | 2026-09-01 11:45:20 | 48.32097 | 12.46248 | 84° | 68km/h | 16277m | 3.6m/s | -54.8°C | 4.2% | 104.3hPa | 2.7V | 00:00:00 | 00:00:00 | 00:00:00 | |
| DO7DH-14 | 2026-09-01 11:45:19 | 48.32093 | 12.46195 | 84° | 66km/h | 16268m | 3.9m/s | 0°C | 0% | 0hPa | 2.6V | 00:00:00 | 01:15:36 | 00:00:00 | |
| OE5FHM-15 | 2026-09-01 11:45:17 | 48.32090 | 12.46168 | 82° | 66km/h | 16264m | 4.3m/s | -54.9°C | 4.2% | 104.5hPa | 2.6V | 00:00:00 | 01:15:35 | 00:00:00 | |
| DO3MHA-11 | 2026-09-01 11:45:13 | 48.32081 | 12.46090 | 80° | 66km/h | 16251m | 3.8m/s | -55.2°C | 4.3% | 104.7hPa | 2.6V | 00:00:00 | 01:15:32 | 00:00:00 | |
| OE5MMP-10 | 2026-09-01 11:45:12 | 48.32078 | 12.46064 | 82° | 64km/h | 16247m | 4.6m/s | -55.1°C | 4.3% | 104.8hPa | 2.6V | 00:00:00 | 01:15:31 | 08:30:00 | |
| PG1ADW-2 | 2026-09-01 11:45:10 | 48.32073 | 12.46015 | 83° | 66km/h | 16238m | 4.7m/s | -55.3°C | 4.3% | 104.9hPa | 2.7V | 00:00:00 | 00:00:00 | 00:00:00 | |
| OE5HKT-10 | 2026-09-01 11:45:08 | 48.32070 | 12.45967 | 85° | 64km/h | 16230m | 3.7m/s | 0°C | 0% | 0hPa | 2.7V | 00:00:00 | 00:00:00 | 00:00:00 | |
| OE5DXL-15 | 2026-09-01 11:45:06 | 48.32067 | 12.45895 | 87° | 64km/h | 16217m | 3.9m/s | -55.4°C | 4.4% | 105.3hPa | 2.7V | 00:00:00 | 00:00:00 | 00:00:00 | |
| OE5WHR-10 | 2026-09-01 11:45:04 | 48.32064 | 12.45848 | 83° | 66km/h | 16208m | 4.1m/s | -55.3°C | 4.4% | 105.4hPa | 2.7V | 00:00:00 | 00:00:00 | 00:00:00 | |
| DO3MHA-11 | 2026-09-01 11:45:03 | 48.32064 | 12.45848 | 83° | 66km/h | 16208m | 4.1m/s | -55.3°C | 4.4% | 105.4hPa | 2.7V | 00:00:00 | 01:15:22 | 00:00:00 | |
| DO3MHA-11 | 2026-09-01 11:44:53 | 48.32038 | 12.45599 | 83° | 68km/h | 16165m | 5.1m/s | -55.7°C | 4.5% | 106.2hPa | 2.7V | 00:00:00 | 01:15:12 | 00:00:00 | |
| OE5MMP-10 | 2026-09-01 11:44:52 | 48.32036 | 12.45575 | 82° | 64km/h | 16160m | 4.2m/s | -55.6°C | 4.5% | 106.2hPa | 2.7V | 00:00:00 | 01:15:11 | 00:00:00 | |
| PETON7-10 | 2026-09-01 11:44:49 | 48.32028 | 12.45503 | 79° | 69km/h | 16146m | 4.0m/s | -55.8°C | 4.5% | 106.5hPa | 2.7V | 00:00:00 | 01:15:08 | 00:00:00 | |
| DO7DH-14 | 2026-09-01 11:44:47 | 48.32020 | 12.45456 | 75° | 69km/h | 16137m | 3.7m/s | 0°C | 0% | 0hPa | 2.7V | 00:00:00 | 01:15:06 | 00:00:00 | |
| OE5FHM-15 | 2026-09-01 11:44:46 | 48.32016 | 12.45434 | 75° | 69km/h | 16133m | 4.3m/s | -56.0°C | 4.6% | 106.6hPa | 2.7V | 00:00:00 | 01:15:05 | 00:00:00 | |
| OE5DRO-10 | 2026-09-01 11:44:43 | 48.32006 | 12.45360 | 81° | 71km/h | 16120m | 4.7m/s | -56.1°C | 4.6% | 106.9hPa | 2.7V | 00:00:00 | 00:00:00 | 00:00:00 | |
| OE5WHR-10 | 2026-09-01 11:44:42 | 48.32003 | 12.45334 | 82° | 69km/h | 16115m | 4.2m/s | -56.1°C | 4.7% | 107.0hPa | 2.6V | 00:00:00 | 00:00:00 | 00:00:00 | |
| DL6DJ-15 | 2026-09-01 11:44:39 | 48.31990 | 12.45224 | 76° | 73km/h | 16098m | 4.3m/s | -56.1°C | 1.6% | 107.3hPa | 2.6V | 00:00:00 | 00:00:00 | 00:00:00 | |
| DO3MHA-11 | 2026-09-01 11:44:38 | 48.31990 | 12.45224 | 77° | 68km/h | 16099m | 4.3m/s | -56.1°C | 4.6% | 107.2hPa | 2.6V | 00:00:00 | 01:14:57 | 00:00:00 | |
| PETON7-10 | 2026-09-01 11:44:34 | 48.31969 | 12.45121 | 71° | 69km/h | 16076m | 6.4m/s | -56.1°C | 4.7% | 107.6hPa | 2.6V | 00:00:00 | 00:00:00 | 08:30:00 | |
| OE5MMP-10 | 2026-09-01 11:44:32 | 48.31956 | 12.45071 | 70° | 69km/h | 16065m | 5.4m/s | -56.0°C | 4.7% | 107.8hPa | 2.6V | 00:00:00 | 01:14:51 | 00:00:00 | |
| OE5HKT-10 | 2026-09-01 11:44:26 | 48.31919 | 12.44924 | 71° | 66km/h | 16041m | 4.6m/s | 0°C | 0% | 0hPa | 2.6V | 00:00:00 | 00:00:00 | 00:00:00 | |
| PG1ADW-2 | 2026-09-01 11:44:25 | 48.31914 | 12.44899 | 72° | 69km/h | 16036m | 4.1m/s | -55.9°C | 4.6% | 108.3hPa | 2.6V | 00:00:00 | 00:00:00 | 00:00:00 | |
| OE5DRO-10 | 2026-09-01 11:44:24 | 48.31908 | 12.44875 | 72° | 64km/h | 16032m | 4.0m/s | -55.8°C | 4.5% | 108.4hPa | 2.6V | 00:00:00 | 00:00:00 | 00:00:00 | |
| OE5MMP-10 | 2026-09-01 11:44:22 | 48.31898 | 12.44826 | 74° | 68km/h | 16024m | 3.6m/s | -55.7°C | 4.5% | 108.5hPa | 2.6V | 00:00:00 | 01:14:41 | 00:00:00 | |
| OE5WHR-10 | 2026-09-01 11:44:21 | 48.31893 | 12.44801 | 75° | 64km/h | 16020m | 3.6m/s | -55.8°C | 4.6% | 108.6hPa | 2.6V | 00:00:00 | 01:14:40 | 00:00:00 | |
| PETON7-10 | 2026-09-01 11:44:19 | 48.31884 | 12.44751 | 74° | 64km/h | 16011m | 3.5m/s | -55.6°C | 4.6% | 108.8hPa | 2.6V | 00:00:00 | 00:00:00 | 00:00:00 | |
| OE5FHM-15 | 2026-09-01 11:44:16 | 48.31869 | 12.44679 | 73° | 62km/h | 15999m | 4.2m/s | -55.8°C | 4.6% | 109.0hPa | 2.6V | 00:00:00 | 01:14:35 | 00:00:00 | |
| OE3JTB-15 | 2026-09-01 11:44:14 | 48.31854 | 12.44608 | 74° | 69km/h | 15986m | 3.8m/s | -55.6°C | 4.6% | 109.2hPa | 2.6V | 00:00:00 | 00:00:00 | 00:00:00 | |
| OE5MMP-10 | 2026-09-01 11:44:12 | 48.31850 | 12.44585 | 73° | 60km/h | 15982m | 4.5m/s | -55.7°C | 4.5% | 109.2hPa | 2.6V | 00:00:00 | 01:14:31 | 00:00:00 | |
| DL6DJ-15 | 2026-09-01 11:44:08 | 48.31824 | 12.44476 | 68° | 57km/h | 15960m | 3.8m/s | -55.9°C | 1.6% | 109.7hPa | 2.7V | 00:00:00 | 00:00:00 | 00:00:00 | |
| OE5DRO-10 | 2026-09-01 11:44:06 | 48.31813 | 12.44435 | 71° | 62km/h | 15951m | 4.0m/s | -55.8°C | 4.5% | 109.8hPa | 2.7V | 00:00:00 | 00:00:00 | 00:00:00 | |
| DO3MHA-11 | 2026-09-01 11:44:05 | 48.31813 | 12.44435 | 71° | 62km/h | 15951m | 4.0m/s | -55.8°C | 4.5% | 109.8hPa | 2.7V | 00:00:00 | 01:14:24 | 00:00:00 | |
| PETON7-10 | 2026-09-01 11:44:04 | 48.31808 | 12.44412 | 74° | 62km/h | 15947m | 4.2m/s | -55.6°C | 4.5% | 109.9hPa | 2.7V | 00:00:00 | 01:14:23 | 00:00:00 | |
| OE5MMP-10 | 2026-09-01 11:44:02 | 48.31801 | 12.44366 | 81° | 64km/h | 15938m | 4.0m/s | -55.7°C | 4.5% | 110.0hPa | 2.7V | 00:00:00 | 01:14:21 | 00:00:00 | |
| OE5WHR-10 | 2026-09-01 11:44:00 | 48.31796 | 12.44317 | 83° | 66km/h | 15928m | 4.3m/s | -55.8°C | 4.6% | 110.2hPa | 2.7V | 00:00:00 | 00:00:00 | 08:30:00 | |
| OE5DXL-15 | 2026-09-01 11:43:59 | 48.31790 | 12.44245 | 83° | 71km/h | 15915m | 3.8m/s | -55.8°C | 4.6% | 110.4hPa | 2.7V | 00:00:00 | 00:00:00 | 00:00:00 | |
| DO3MHA-11 | 2026-09-01 11:43:54 | 48.31781 | 12.44177 | 76° | 64km/h | 15902m | 4.0m/s | -56.0°C | 4.6% | 110.6hPa | 2.7V | 00:00:00 | 01:14:13 | 08:30:00 | |
| OE5MMP-10 | 2026-09-01 11:43:52 | 48.31773 | 12.44132 | 76° | 66km/h | 15895m | 4.6m/s | -56.2°C | 4.7% | 110.7hPa | 2.7V | 00:00:00 | 01:14:11 | 00:00:00 | |
| PETON7-10 | 2026-09-01 11:43:49 | 48.31763 | 12.44063 | 81° | 71km/h | 15881m | 3.8m/s | -56.2°C | 4.7% | 111.0hPa | 2.7V | 00:00:00 | 00:00:00 | 00:00:00 | |
| OE5FHM-15 | 2026-09-01 11:43:47 | 48.31755 | 12.43989 | 81° | 71km/h | 15868m | 3.8m/s | -56.3°C | 4.8% | 111.2hPa | 2.6V | 00:00:00 | 01:14:05 | 00:00:00 | |
| BAUMI2-15 | 2026-09-01 11:43:45 | 48.31752 | 12.43964 | 82° | 69km/h | 15863m | 5.3m/s | -56.3°C | 4.7% | 111.3hPa | 2.7V | 00:00:00 | 01:14:04 | 00:00:00 | |
| DO3MHA-11 | 2026-09-01 11:43:44 | 48.31749 | 12.43938 | 83° | 73km/h | 15858m | 4.4m/s | -56.3°C | 4.7% | 111.4hPa | 2.7V | 00:00:00 | 01:14:03 | 00:00:00 | |
| OE5MMP-10 | 2026-09-01 11:43:42 | 48.31745 | 12.43886 | 85° | 73km/h | 15849m | 4.5m/s | -56.3°C | 4.7% | 111.6hPa | 2.7V | 00:00:00 | 01:14:01 | 08:30:00 | |
| DO7DH-14 | 2026-09-01 11:43:41 | 48.31744 | 12.43859 | 87° | 71km/h | 15844m | 4.0m/s | 0°C | 0% | 0hPa | 2.6V | 00:00:00 | 01:14:00 | 00:00:00 | |
| BAUMI2-15 | 2026-09-01 11:43:40 | 48.31743 | 12.43832 | 90° | 73km/h | 15840m | 5.2m/s | -56.3°C | 4.7% | 111.7hPa | 2.6V | 00:00:00 | 01:13:59 | 00:00:00 | |
| DL6DJ-15 | 2026-09-01 11:43:37 | 48.31745 | 12.43720 | 89° | 75km/h | 15821m | 4.2m/s | -56.3°C | 1.8% | 112.1hPa | 2.6V | 00:00:00 | 00:00:00 | 00:00:00 | |
| BAUMI2-15 | 2026-09-01 11:43:35 | 48.31744 | 12.43691 | 88° | 75km/h | 15816m | 5.6m/s | -56.2°C | 4.8% | 112.1hPa | 2.6V | 00:00:00 | 01:13:54 | 08:30:00 | |
| DO3MHA-11 | 2026-09-01 11:43:34 | 48.31743 | 12.43663 | 85° | 73km/h | 15811m | 4.3m/s | -56.2°C | 4.8% | 112.2hPa | 2.6V | 00:00:00 | 01:13:53 | 00:00:00 | |
| OE5MMP-10 | 2026-09-01 11:43:32 | 48.31737 | 12.43608 | 79° | 71km/h | 15802m | 6.0m/s | -56.2°C | 4.8% | 112.4hPa | 2.6V | 00:00:00 | 01:13:51 | 00:00:00 | |
| BAUMI2-15 | 2026-09-01 11:43:30 | 48.31728 | 12.43551 | 76° | 71km/h | 15792m | 3.5m/s | -56.2°C | 4.8% | 112.6hPa | 2.6V | 00:00:00 | 01:13:49 | 00:00:00 | |
| OE3JTB-15 | 2026-09-01 11:43:28 | 48.31719 | 12.43497 | 78° | 66km/h | 15783m | 4.6m/s | -56.2°C | 4.7% | 112.7hPa | 2.6V | 00:00:00 | 00:00:00 | 00:00:00 | |
| OE5DRO-10 | 2026-09-01 11:43:27 | 48.31716 | 12.43471 | 82° | 71km/h | 15779m | 3.9m/s | -56.2°C | 4.6% | 112.8hPa | 2.6V | 00:00:00 | 00:00:00 | 00:00:00 | |
| BAUMI2-15 | 2026-09-01 11:43:25 | 48.31712 | 12.43419 | 86° | 69km/h | 15769m | 5.3m/s | -56.2°C | 4.6% | 113.0hPa | 2.6V | 00:00:00 | 01:13:44 | 00:00:00 | |
| DO3MHA-11 | 2026-09-01 11:43:24 | 48.31710 | 12.43393 | 85° | 71km/h | 15764m | 3.7m/s | -56.3°C | 4.6% | 113.1hPa | 2.6V | 00:00:00 | 01:13:43 | 00:00:00 | |
| OE5MMP-10 | 2026-09-01 11:43:22 | 48.31706 | 12.43341 | 83° | 71km/h | 15755m | 5.3m/s | -56.2°C | 4.7% | 113.2hPa | 2.6V | 00:00:00 | 01:13:41 | 00:00:00 | |
| BAUMI2-15 | 2026-09-01 11:43:20 | 48.31701 | 12.43290 | 79° | 71km/h | 15745m | 5.2m/s | -56.1°C | 4.7% | 113.4hPa | 2.6V | 00:00:00 | 01:13:39 | 00:00:00 | |
| PETON7-10 | 2026-09-01 11:43:19 | 48.31697 | 12.43264 | 78° | 71km/h | 15740m | 4.8m/s | -56.0°C | 4.7% | 113.5hPa | 2.6V | 00:00:00 | 01:13:38 | 00:00:00 | |
| OE5WHR-10 | 2026-09-01 11:43:18 | 48.31693 | 12.43237 | 77° | 69km/h | 15736m | 3.4m/s | -56.1°C | 4.8% | 113.6hPa | 2.6V | 00:00:00 | 01:13:37 | 00:00:00 | |
| OE5HKT-10 | 2026-09-01 11:43:17 | 48.31683 | 12.43184 | 74° | 73km/h | 15726m | 4.3m/s | 0°C | 0% | 0hPa | 2.6V | 00:00:00 | 00:00:00 | 08:30:00 | |
| OE5FHM-15 | 2026-09-01 11:43:16 | 48.31683 | 12.43184 | 74° | 68km/h | 15726m | 4.3m/s | -56.0°C | 4.8% | 113.7hPa | 2.6V | 00:00:00 | 01:13:35 | 00:00:00 | |
| BAUMI2-15 | 2026-09-01 11:43:15 | 48.31678 | 12.43158 | 74° | 73km/h | 15722m | 4.4m/s | -56.0°C | 4.8% | 113.8hPa | 2.6V | 00:00:00 | 01:13:34 | 00:00:00 | |
| DO3MHA-11 | 2026-09-01 11:43:13 | 48.31668 | 12.43103 | 74° | 71km/h | 15713m | 4.2m/s | -56.0°C | 4.7% | 114.0hPa | 2.6V | 00:00:00 | 01:13:32 | 00:00:00 | |
| OE5MMP-10 | 2026-09-01 11:43:12 | 48.31662 | 12.43077 | 73° | 69km/h | 15708m | 5.1m/s | -56.1°C | 4.7% | 114.1hPa | 2.6V | 00:00:00 | 01:13:31 | 00:00:00 | |
| BAUMI2-15 | 2026-09-01 11:43:10 | 48.31651 | 12.43025 | 71° | 71km/h | 15699m | 3.7m/s | -56.2°C | 4.7% | 114.2hPa | 2.6V | 00:00:00 | 01:13:29 | 00:00:00 | |
| DO7DH-14 | 2026-09-01 11:43:09 | 48.31645 | 12.42999 | 71° | 68km/h | 15694m | 5.3m/s | 0°C | 0% | 0hPa | 2.6V | 00:00:00 | 01:13:28 | 00:00:00 | |
| OE5DRO-10 | 2026-09-01 11:43:08 | 48.31638 | 12.42973 | 71° | 64km/h | 15690m | 3.9m/s | -56.2°C | 4.8% | 114.4hPa | 2.6V | 00:00:00 | 00:00:00 | 00:00:00 | |
| DL6DJ-15 | 2026-09-01 11:43:06 | 48.31622 | 12.42898 | 73° | 66km/h | 15676m | 3.4m/s | -56.1°C | 1.7% | 114.7hPa | 2.6V | 00:00:00 | 00:00:00 | 00:00:00 | |
| BAUMI2-15 | 2026-09-01 11:43:05 | 48.31622 | 12.42898 | 74° | 64km/h | 15676m | 3.4m/s | -56.1°C | 4.7% | 114.6hPa | 2.6V | 00:00:00 | 01:13:24 | 00:00:00 | |
| PETON7-10 | 2026-09-01 11:43:04 | 48.31618 | 12.42874 | 76° | 64km/h | 15672m | 5.1m/s | -56.1°C | 4.8% | 114.7hPa | 2.6V | 00:00:00 | 00:00:00 | 00:00:00 | |
| DO3MHA-11 | 2026-09-01 11:43:03 | 48.31614 | 12.42850 | 78° | 64km/h | 15667m | 4.7m/s | -56.0°C | 4.8% | 114.8hPa | 2.6V | 00:00:00 | 01:13:22 | 00:00:00 | |
| OE5MMP-10 | 2026-09-01 11:43:02 | 48.31610 | 12.42826 | 79° | 64km/h | 15663m | 3.8m/s | -55.9°C | 4.7% | 114.9hPa | 2.6V | 00:00:00 | 01:13:21 | 00:00:00 | |
| BAUMI2-15 | 2026-09-01 11:43:00 | 48.31604 | 12.42780 | 78° | 64km/h | 15653m | 4.6m/s | -55.9°C | 4.7% | 115.0hPa | 2.6V | 00:00:00 | 01:13:19 | 00:00:00 | |
| OE5WHR-10 | 2026-09-01 11:42:57 | 48.31592 | 12.42710 | 75° | 62km/h | 15639m | 4.2m/s | -55.9°C | 4.7% | 115.3hPa | 2.6V | 00:00:00 | 00:00:00 | 00:00:00 | |
| BAUMI2-15 | 2026-09-01 11:42:55 | 48.31583 | 12.42664 | 73° | 64km/h | 15629m | 4.3m/s | -55.8°C | 4.7% | 115.5hPa | 2.6V | 00:00:00 | 01:13:14 | 00:00:00 | |
| DO3MHA-11 | 2026-09-01 11:42:53 | 48.31574 | 12.42618 | 75° | 62km/h | 15620m | 5.2m/s | -55.8°C | 4.6% | 115.6hPa | 2.6V | 00:00:00 | 01:13:12 | 00:00:00 | |
| OE5MMP-10 | 2026-09-01 11:42:52 | 48.31570 | 12.42594 | 76° | 62km/h | 15616m | 4.3m/s | -55.8°C | 4.6% | 115.7hPa | 2.6V | 00:00:00 | 01:13:11 | 00:00:00 | |
| PG1ADW-2 | 2026-09-01 11:42:50 | 48.31562 | 12.42548 | 76° | 64km/h | 15606m | 4.8m/s | -55.7°C | 4.6% | 115.9hPa | 2.6V | 00:00:00 | 00:00:00 | 00:00:00 | |
| PETON7-10 | 2026-09-01 11:42:49 | 48.31558 | 12.42525 | 76° | 62km/h | 15602m | 4.3m/s | -55.7°C | 4.6% | 116.0hPa | 2.6V | 00:00:00 | 00:00:00 | 00:00:00 | |
| OE5FHM-15 | 2026-09-01 11:42:46 | 48.31546 | 12.42457 | 75° | 64km/h | 15588m | 5.1m/s | -55.6°C | 4.6% | 116.2hPa | 2.6V | 00:00:00 | 01:13:05 | 00:00:00 | |
| BAUMI2-15 | 2026-09-01 11:42:45 | 48.31542 | 12.42434 | 75° | 64km/h | 15583m | 4.7m/s | -55.6°C | 4.6% | 116.3hPa | 2.6V | 00:00:00 | 01:13:04 | 00:00:00 | |
| DO3MHA-11 | 2026-09-01 11:42:43 | 48.31534 | 12.42389 | 77° | 64km/h | 15573m | 5.7m/s | -55.6°C | 4.5% | 116.5hPa | 2.6V | 00:00:00 | 01:13:02 | 00:00:00 | |
| OE5MMP-10 | 2026-09-01 11:42:42 | 48.31530 | 12.42365 | 78° | 64km/h | 15569m | 3.6m/s | -55.5°C | 4.5% | 116.6hPa | 2.6V | 00:00:00 | 01:13:01 | 00:00:00 | |
| BAUMI2-15 | 2026-09-01 11:42:40 | 48.31524 | 12.42318 | 79° | 62km/h | 15560m | 5.4m/s | -55.6°C | 4.6% | 116.8hPa | 2.7V | 00:00:00 | 01:12:59 | 00:00:00 | |
| OE5WHR-10 | 2026-09-01 11:42:36 | 48.31513 | 12.42224 | 81° | 64km/h | 15541m | 4.3m/s | -55.5°C | 4.8% | 117.1hPa | 2.7V | 00:00:00 | 00:00:00 | 00:00:00 | |
| BAUMI2-15 | 2026-09-01 11:42:35 | 48.31510 | 12.42199 | 81° | 66km/h | 15537m | 4.3m/s | -55.5°C | 4.7% | 117.2hPa | 2.7V | 00:00:00 | 01:12:54 | 00:00:00 | |
| PETON7-10 | 2026-09-01 11:42:34 | 48.31507 | 12.42175 | 81° | 64km/h | 15532m | 5.2m/s | -55.5°C | 4.7% | 117.3hPa | 2.7V | 00:00:00 | 01:12:53 | 00:00:00 | |
| DO3MHA-11 | 2026-09-01 11:42:33 | 48.31504 | 12.42151 | 80° | 66km/h | 15527m | 4.3m/s | -55.5°C | 4.7% | 117.4hPa | 2.7V | 00:00:00 | 01:12:52 | 00:00:00 | |
| OE5MMP-10 | 2026-09-01 11:42:32 | 48.31501 | 12.42126 | 80° | 66km/h | 15522m | 5.1m/s | -55.5°C | 4.7% | 117.5hPa | 2.7V | 00:00:00 | 01:12:51 | 00:00:00 | |
| BAUMI2-15 | 2026-09-01 11:42:30 | 48.31495 | 12.42077 | 79° | 64km/h | 15513m | 3.5m/s | -55.5°C | 4.6% | 117.6hPa | 2.7V | 00:00:00 | 01:12:49 | 00:00:00 | |
| OE5DXL-15 | 2026-09-01 11:42:28 | 48.31480 | 12.41984 | 76° | 62km/h | 15495m | 5.1m/s | -55.3°C | 4.5% | 118.0hPa | 2.7V | 00:00:00 | 00:00:00 | 00:00:00 | |
| BAUMI2-15 | 2026-09-01 11:42:25 | 48.31476 | 12.41960 | 75° | 66km/h | 15490m | 4.4m/s | -55.4°C | 4.5% | 118.1hPa | 2.7V | 00:00:00 | 01:12:44 | 00:00:00 | |
| DO3MHA-11 | 2026-09-01 11:42:23 | 48.31466 | 12.41911 | 73° | 64km/h | 15481m | 5.0m/s | -55.2°C | 4.5% | 118.2hPa | 2.7V | 00:00:00 | 01:12:42 | 08:30:00 | |
| OE5MMP-10 | 2026-09-01 11:42:22 | 48.31462 | 12.41888 | 74° | 64km/h | 15477m | 4.2m/s | -55.2°C | 4.5% | 118.3hPa | 2.6V | 00:00:00 | 01:12:41 | 00:00:00 | |
| BAUMI2-15 | 2026-09-01 11:42:20 | 48.31453 | 12.41842 | 77° | 64km/h | 15468m | 5.4m/s | -55.2°C | 4.5% | 118.5hPa | 2.6V | 00:00:00 | 01:12:39 | 00:00:00 | |
| PETON7-10 | 2026-09-01 11:42:19 | 48.31449 | 12.41818 | 79° | 62km/h | 15463m | 4.4m/s | -55.1°C | 4.6% | 118.6hPa | 2.7V | 00:00:00 | 00:00:00 | 08:30:00 | |
| OE3JTB-15 | 2026-09-01 11:42:18 | 48.31447 | 12.41793 | 81° | 62km/h | 15459m | 4.0m/s | -55.2°C | 4.6% | 118.6hPa | 2.7V | 00:00:00 | 00:00:00 | 08:30:00 | |
| OE5FHM-15 | 2026-09-01 11:42:16 | 48.31441 | 12.41746 | 82° | 62km/h | 15449m | 4.3m/s | -55.1°C | 4.7% | 118.8hPa | 2.6V | 00:00:00 | 01:12:35 | 08:30:00 | |
| BAUMI2-15 | 2026-09-01 11:42:15 | 48.31439 | 12.41722 | 82° | 64km/h | 15445m | 4.3m/s | -55.2°C | 4.6% | 118.9hPa | 2.7V | 00:00:00 | 01:12:34 | 00:00:00 | |
| OE5WHR-10 | 2026-09-01 11:42:14 | 48.31436 | 12.41698 | 81° | 62km/h | 15440m | 5.2m/s | -55.2°C | 4.7% | 119.0hPa | 2.7V | 00:00:00 | 01:12:33 | 00:00:00 | |
| DO3MHA-11 | 2026-09-01 11:42:13 | 48.31434 | 12.41674 | 80° | 60km/h | 15436m | 3.9m/s | -55.1°C | 4.6% | 119.1hPa | 2.7V | 00:00:00 | 01:12:32 | 00:00:00 | |
| OE5MMP-10 | 2026-09-01 11:42:12 | 48.31430 | 12.41649 | 79° | 60km/h | 15431m | 4.0m/s | -55.1°C | 4.5% | 119.2hPa | 2.7V | 00:00:00 | 01:12:31 | 08:30:00 | |
| OE5DRO-10 | 2026-09-01 11:42:11 | 48.31427 | 12.41626 | 78° | 62km/h | 15427m | 5.3m/s | -55.2°C | 4.6% | 119.2hPa | 2.6V | 00:00:00 | 00:00:00 | 00:00:00 | |
| PG1ADW-2 | 2026-09-01 11:42:10 | 48.31424 | 12.41603 | 79° | 62km/h | 15422m | 4.5m/s | -55.2°C | 4.6% | 119.3hPa | 2.6V | 00:00:00 | 00:00:00 | 08:30:00 | |
| BAUMI2-15 | 2026-09-01 11:42:05 | 48.31414 | 12.41492 | 87° | 60km/h | 15397m | 4.6m/s | -55.2°C | 4.5% | 119.8hPa | 2.7V | 00:00:00 | 01:12:24 | 08:30:00 | |
| DL6DJ-15 | 2026-09-01 11:42:04 | 48.31413 | 12.41447 | 87° | 60km/h | 15388m | 5.3m/s | -55.2°C | 1.7% | 120.0hPa | 2.7V | 00:00:00 | 00:00:00 | 00:00:00 | |
| DO3MHA-11 | 2026-09-01 11:42:02 | 48.31412 | 12.41424 | 87° | 64km/h | 15384m | 3.6m/s | -55.1°C | 4.6% | 120.1hPa | 2.7V | 00:00:00 | 01:12:21 | 00:00:00 | |
| OE5MMP-10 | 2026-09-01 11:42:00 | 48.31410 | 12.41378 | 85° | 64km/h | 15374m | 4.5m/s | -55.2°C | 4.6% | 120.3hPa | 2.7V | 00:00:00 | 01:12:19 | 00:00:00 | |
| BAUMI2-15 | 2026-09-01 11:41:55 | 48.31398 | 12.41258 | 81° | 66km/h | 15350m | 4.8m/s | -55.0°C | 4.7% | 120.7hPa | 2.7V | 00:00:00 | 01:12:14 | 00:00:00 | |
| OE5WHR-10 | 2026-09-01 11:41:53 | 48.31391 | 12.41186 | 83° | 68km/h | 15338m | 5.2m/s | -54.9°C | 4.7% | 120.9hPa | 2.7V | 00:00:00 | 00:00:00 | 00:00:00 | |
| DO3MHA-11 | 2026-09-01 11:41:51 | 48.31389 | 12.41162 | 84° | 68km/h | 15333m | 4.0m/s | -54.8°C | 4.7% | 121.0hPa | 2.6V | 00:00:00 | 01:12:10 | 00:00:00 | |
| OE5MMP-10 | 2026-09-01 11:41:50 | 48.31387 | 12.41137 | 83° | 68km/h | 15328m | 4.8m/s | -54.8°C | 4.6% | 121.1hPa | 2.6V | 00:00:00 | 01:12:09 | 00:00:00 | |
| PETON7-10 | 2026-09-01 11:41:49 | 48.31384 | 12.41112 | 83° | 68km/h | 15324m | 4.4m/s | -54.7°C | 4.6% | 121.2hPa | 2.6V | 00:00:00 | 01:12:08 | 00:00:00 | |
| OE5FHM-15 | 2026-09-01 11:41:46 | 48.31376 | 12.41036 | 80° | 71km/h | 15310m | 4.1m/s | -54.7°C | 4.5% | 121.5hPa | 2.6V | 00:00:00 | 01:12:05 | 00:00:00 | |
| DO7DH-14 | 2026-09-01 11:41:45 | 48.31373 | 12.41011 | 79° | 69km/h | 15306m | 5.0m/s | 0°C | 0% | 0hPa | 2.6V | 00:00:00 | 01:12:04 | 00:00:00 | |
| DO3MHA-11 | 2026-09-01 11:41:41 | 48.31360 | 12.40910 | 82° | 69km/h | 15288m | 4.5m/s | -54.5°C | 4.5% | 121.9hPa | 2.6V | 00:00:00 | 01:12:00 | 00:00:00 | |
| OE5MMP-10 | 2026-09-01 11:41:40 | 48.31357 | 12.40885 | 83° | 68km/h | 15283m | 4.1m/s | -54.5°C | 4.5% | 122.0hPa | 2.6V | 00:00:00 | 01:11:59 | 00:00:00 | |
| OE5DRO-10 | 2026-09-01 11:41:34 | 48.31343 | 12.40705 | 80° | 73km/h | 15250m | 4.2m/s | -54.5°C | 4.3% | 122.7hPa | 2.7V | 00:00:00 | 00:00:00 | 00:00:00 | |
| DL6DJ-15 | 2026-09-01 11:41:32 | 48.31340 | 12.40680 | 78° | 66km/h | 15245m | 5.1m/s | -54.5°C | 1.7% | 122.8hPa | 2.7V | 00:00:00 | 00:00:00 | 00:00:00 | |
| OE5MMP-10 | 2026-09-01 11:41:30 | 48.31333 | 12.40629 | 80° | 73km/h | 15236m | 4.0m/s | -54.5°C | 4.4% | 122.9hPa | 2.7V | 00:00:00 | 01:11:49 | 00:00:00 | |
| OE5DXL-15 | 2026-09-01 11:41:25 | 48.31315 | 12.40436 | 85° | 75km/h | 15203m | 4.6m/s | -55.0°C | 4.8% | 123.6hPa | 2.7V | 00:00:00 | 01:11:42 | 00:00:00 | |
| OE5MMP-10 | 2026-09-01 11:41:20 | 48.31308 | 12.40351 | 82° | 75km/h | 15188m | 4.3m/s | -55.1°C | 4.6% | 123.8hPa | 2.7V | 00:00:00 | 01:11:39 | 00:00:00 | |
| DO3MHA-11 | 2026-09-01 11:41:19 | 48.31305 | 12.40323 | 80° | 75km/h | 15184m | 4.3m/s | -55.1°C | 4.6% | 123.9hPa | 2.7V | 00:00:00 | 01:11:38 | 00:00:00 | |
| OE5FHM-15 | 2026-09-01 11:41:16 | 48.31294 | 12.40244 | 77° | 75km/h | 15171m | 4.1m/s | -55.1°C | 4.5% | 124.2hPa | 2.6V | 00:00:00 | 01:11:35 | 00:00:00 | |
| DO7DH-14 | 2026-09-01 11:41:14 | 48.31286 | 12.40190 | 80° | 73km/h | 15162m | 3.5m/s | 0°C | 0% | 0hPa | 2.6V | 00:00:00 | 01:11:33 | 00:00:00 | |
| OE5MMP-10 | 2026-09-01 11:41:10 | 48.31275 | 12.40073 | 83° | 75km/h | 15145m | 5.1m/s | -55.1°C | 4.7% | 124.7hPa | 2.6V | 00:00:00 | 01:11:29 | 00:00:00 | |
| DO3MHA-11 | 2026-09-01 11:41:09 | 48.31272 | 12.40042 | 82° | 73km/h | 15140m | 4.2m/s | -55.1°C | 4.7% | 124.8hPa | 2.7V | 00:00:00 | 01:11:28 | 00:00:00 | |
| PETON7-10 | 2026-09-01 11:41:04 | 48.31262 | 12.39899 | 86° | 73km/h | 15117m | 4.5m/s | -55.3°C | 4.8% | 125.2hPa | 2.7V | 00:00:00 | 01:11:23 | 00:00:00 | |
| DL6DJ-15 | 2026-09-01 11:41:01 | 48.31259 | 12.39819 | 87° | 66km/h | 15103m | 4.0m/s | -55.4°C | 1.9% | 125.6hPa | 2.7V | 00:00:00 | 00:00:00 | 00:00:00 | |
| OE5MMP-10 | 2026-09-01 11:41:00 | 48.31258 | 12.39794 | 86° | 75km/h | 15098m | 5.0m/s | -55.4°C | 4.8% | 125.5hPa | 2.7V | 00:00:00 | 01:11:19 | 00:00:00 | |
| DO3MHA-11 | 2026-09-01 11:40:59 | 48.31256 | 12.39768 | 84° | 75km/h | 15093m | 4.4m/s | -55.4°C | 4.8% | 125.7hPa | 2.7V | 00:00:00 | 01:11:18 | 00:00:00 | |
| OE5DRO-10 | 2026-09-01 11:40:55 | 48.31246 | 12.39657 | 82° | 73km/h | 15075m | 4.0m/s | -55.2°C | 4.7% | 126.0hPa | 2.7V | 00:00:00 | 00:00:00 | 08:30:00 | |
| OE5DXL-15 | 2026-09-01 11:40:54 | 48.31239 | 12.39597 | 82° | 71km/h | 15067m | 3.2m/s | -55.1°C | 4.7% | 126.2hPa | 2.7V | 00:00:00 | 00:00:00 | 00:00:00 | |
| OE5WHR-10 | 2026-09-01 11:40:50 | 48.31232 | 12.39510 | 84° | 69km/h | 15054m | 3.4m/s | -55.0°C | 4.6% | 126.5hPa | 2.7V | 00:00:00 | 01:11:09 | 00:00:00 | |
| PETON7-10 | 2026-09-01 11:40:49 | 48.31230 | 12.39484 | 83° | 71km/h | 15050m | 5.1m/s | -55.1°C | 4.7% | 126.6hPa | 2.7V | 00:00:00 | 00:00:00 | 00:00:00 | |
| OE5FHM-15 | 2026-09-01 11:40:46 | 48.31222 | 12.39406 | 83° | 71km/h | 15037m | 4.6m/s | -55.1°C | 4.7% | 126.8hPa | 2.6V | 00:00:00 | 01:11:05 | 00:00:00 | |
| DO7DH-14 | 2026-09-01 11:40:41 | 48.31211 | 12.39243 | 86° | 77km/h | 15010m | 4.8m/s | 0°C | 0% | 0hPa | 2.6V | 00:00:00 | 01:10:59 | 00:00:00 | |
| DO3MHA-11 | 2026-09-01 11:40:39 | 48.31210 | 12.39216 | 86° | 69km/h | 15006m | 3.8m/s | -55.3°C | 4.7% | 127.4hPa | 2.6V | 00:00:00 | 01:10:58 | 00:00:00 | |
| OE5DRO-10 | 2026-09-01 11:40:36 | 48.31204 | 12.39136 | 83° | 69km/h | 14993m | 3.5m/s | -55.3°C | 4.7% | 127.7hPa | 2.6V | 00:00:00 | 00:00:00 | 00:00:00 | |
| PETON7-10 | 2026-09-01 11:40:34 | 48.31200 | 12.39086 | 86° | 69km/h | 14985m | 4.8m/s | -55.3°C | 4.8% | 127.8hPa | 2.6V | 00:00:00 | 00:00:00 | 00:00:00 | |
| OE3JTB-15 | 2026-09-01 11:40:33 | 48.31199 | 12.39061 | 89° | 71km/h | 14981m | 4.2m/s | -55.2°C | 4.8% | 127.9hPa | 2.6V | 00:00:00 | 00:00:00 | 00:00:00 | |
| OE5MMP-10 | 2026-09-01 11:40:30 | 48.31198 | 12.38983 | 89° | 69km/h | 14968m | 3.4m/s | -55.3°C | 4.8% | 128.2hPa | 2.6V | 00:00:00 | 01:10:49 | 00:00:00 | |
| DO3MHA-11 | 2026-09-01 11:40:29 | 48.31198 | 12.38956 | 91° | 71km/h | 14964m | 4.4m/s | -55.3°C | 4.7% | 128.3hPa | 2.6V | 00:00:00 | 01:10:48 | 00:00:00 | |
| OE5WHR-10 | 2026-09-01 11:40:27 | 48.31199 | 12.38902 | 92° | 69km/h | 14955m | 3.9m/s | -55.2°C | 4.6% | 128.5hPa | 2.6V | 00:00:00 | 00:00:00 | 08:30:00 | |
| OE5DXL-15 | 2026-09-01 11:40:25 | 48.31197 | 12.38797 | 89° | 75km/h | 14937m | 4.9m/s | -55.1°C | 4.7% | 128.8hPa | 2.6V | 00:00:00 | 00:00:00 | 00:00:00 | |
| OE5MMP-10 | 2026-09-01 11:40:20 | 48.31195 | 12.38717 | 86° | 73km/h | 14925m | 4.6m/s | -55.0°C | 4.7% | 129.1hPa | 2.7V | 00:00:00 | 01:10:39 | 00:00:00 | |
| PETON7-10 | 2026-09-01 11:40:19 | 48.31193 | 12.38689 | 85° | 73km/h | 14921m | 3.6m/s | -55.1°C | 4.7% | 129.2hPa | 2.7V | 00:00:00 | 01:10:38 | 00:00:00 | |
| OE5DRO-10 | 2026-09-01 11:40:17 | 48.31191 | 12.38633 | 88° | 73km/h | 14912m | 4.2m/s | -55.1°C | 4.9% | 129.3hPa | 2.7V | 00:00:00 | 00:00:00 | 00:00:00 | |
| OE5FHM-15 | 2026-09-01 11:40:16 | 48.31190 | 12.38604 | 88° | 75km/h | 14908m | 3.5m/s | -55.1°C | 4.8% | 129.4hPa | 2.7V | 00:00:00 | 01:10:35 | 00:00:00 | |
| DB0UT-7 | 2026-09-01 11:40:11 | 48.31182 | 12.38469 | 85° | 75km/h | 14886m | 3.9m/s | -55.1°C | 4.8% | 129.9hPa | 2.7V | 00:00:00 | 00:00:00 | 00:00:00 | |
| DO3MHA-11 | 2026-09-01 11:40:10 | 48.31178 | 12.38416 | 83° | 75km/h | 14877m | 4.8m/s | -55.0°C | 4.8% | 130.0hPa | 2.7V | 00:00:00 | 01:10:28 | 00:00:00 | |
| PETON7-10 | 2026-09-01 11:40:04 | 48.31165 | 12.38279 | 81° | 77km/h | 14856m | 4.6m/s | -54.9°C | 4.6% | 130.5hPa | 2.7V | 00:00:00 | 00:00:00 | 08:30:00 | |
| OE3JTB-15 | 2026-09-01 11:40:03 | 48.31162 | 12.38250 | 82° | 77km/h | 14852m | 2.8m/s | -54.8°C | 4.7% | 130.5hPa | 2.6V | 00:00:00 | 00:00:00 | 00:00:00 | |
| OE5MMP-10 | 2026-09-01 11:40:00 | 48.31156 | 12.38163 | 89° | 77km/h | 14839m | 3.8m/s | -54.6°C | 4.5% | 130.8hPa | 2.6V | 00:00:00 | 01:10:19 | 00:00:00 | |
| DO3MHA-11 | 2026-09-01 11:39:59 | 48.31156 | 12.38134 | 89° | 77km/h | 14836m | 3.6m/s | -54.6°C | 4.5% | 130.9hPa | 2.6V | 00:00:00 | 01:10:18 | 00:00:00 | |
| OE5DXL-15 | 2026-09-01 11:39:55 | 48.31149 | 12.37985 | 85° | 75km/h | 14814m | 3.9m/s | -54.6°C | 4.5% | 131.3hPa | 2.6V | 00:00:00 | 00:00:00 | 00:00:00 | |
| OE5MMP-10 | 2026-09-01 11:39:50 | 48.31140 | 12.37872 | 85° | 73km/h | 14798m | 3.2m/s | -54.6°C | 4.7% | 131.6hPa | 2.6V | 00:00:00 | 01:10:09 | 00:00:00 | |
| DO3MHA-11 | 2026-09-01 11:39:49 | 48.31139 | 12.37847 | 87° | 73km/h | 14794m | 4.7m/s | -54.6°C | 4.6% | 131.7hPa | 2.6V | 00:00:00 | 01:10:08 | 00:00:00 | |
| BAUMI2-15 | 2026-09-01 11:39:48 | 48.31138 | 12.37821 | 89° | 73km/h | 14790m | 3.6m/s | -54.6°C | 4.6% | 131.8hPa | 2.6V | 00:00:00 | 01:10:07 | 00:00:00 | |
| OE5FHM-15 | 2026-09-01 11:39:46 | 48.31138 | 12.37766 | 89° | 77km/h | 14782m | 4.3m/s | -54.7°C | 4.6% | 132.0hPa | 2.7V | 00:00:00 | 01:10:05 | 00:00:00 | |
| BAUMI2-15 | 2026-09-01 11:39:43 | 48.31138 | 12.37682 | 91° | 75km/h | 14770m | 5.1m/s | -54.9°C | 4.7% | 132.2hPa | 2.7V | 00:00:00 | 01:10:02 | 00:00:00 | |
| DB0UT-7 | 2026-09-01 11:39:41 | 48.31138 | 12.37626 | 90° | 80km/h | 14762m | 5.0m/s | -54.9°C | 4.7% | 132.4hPa | 2.7V | 00:00:00 | 01:10:00 | 00:00:00 | |
| OE5MMP-10 | 2026-09-01 11:39:40 | 48.31138 | 12.37597 | 88° | 75km/h | 14757m | 4.5m/s | -54.8°C | 4.7% | 132.5hPa | 2.7V | 00:00:00 | 01:09:59 | 00:00:00 | |
| DO3MHA-11 | 2026-09-01 11:39:39 | 48.31136 | 12.37568 | 87° | 77km/h | 14753m | 3.4m/s | -54.8°C | 4.7% | 132.6hPa | 2.7V | 00:00:00 | 01:09:58 | 00:00:00 | |
| BAUMI2-15 | 2026-09-01 11:39:38 | 48.31136 | 12.37539 | 87° | 75km/h | 14749m | 4.2m/s | -54.7°C | 4.7% | 132.7hPa | 2.7V | 00:00:00 | 01:09:57 | 00:00:00 | |
| PETON7-10 | 2026-09-01 11:39:34 | 48.31131 | 12.37427 | 87° | 77km/h | 14733m | 3.7m/s | 0°C | 0% | 0hPa | 2.7V | 00:00:00 | 01:09:53 | 00:00:00 | |
| BAUMI2-15 | 2026-09-01 11:39:33 | 48.31130 | 12.37398 | 88° | 77km/h | 14729m | 4.4m/s | -54.7°C | 4.6% | 133.1hPa | 2.7V | 00:00:00 | 01:09:52 | 00:00:00 | |
| OE3JTB-15 | 2026-09-01 11:39:32 | 48.31130 | 12.37369 | 89° | 77km/h | 14725m | 4.1m/s | -54.7°C | 4.6% | 133.2hPa | 2.6V | 00:00:00 | 01:09:51 | 00:00:00 | |
| OE5MMP-10 | 2026-09-01 11:39:30 | 48.31128 | 12.37310 | 88° | 77km/h | 14716m | 4.8m/s | -54.6°C | 4.5% | 133.4hPa | 2.6V | 00:00:00 | 01:09:49 | 00:00:00 | |
| DO3MHA-11 | 2026-09-01 11:39:29 | 48.31127 | 12.37281 | 88° | 77km/h | 14712m | 3.2m/s | -54.5°C | 4.5% | 133.5hPa | 2.6V | 00:00:00 | 01:09:48 | 00:00:00 | |
| BAUMI2-15 | 2026-09-01 11:39:28 | 48.31127 | 12.37251 | 88° | 77km/h | 14708m | 3.9m/s | -54.6°C | 4.6% | 133.5hPa | 2.6V | 00:00:00 | 01:09:47 | 00:00:00 | |
| OE5DXL-15 | 2026-09-01 11:39:25 | 48.31124 | 12.37106 | 90° | 73km/h | 14687m | 4.4m/s | -54.4°C | 4.7% | 134.0hPa | 2.6V | 00:00:00 | 00:00:00 | 00:00:00 | |
| BAUMI2-15 | 2026-09-01 11:39:23 | 48.31124 | 12.37106 | 90° | 77km/h | 14687m | 4.4m/s | -54.4°C | 4.7% | 134.0hPa | 2.6V | 00:00:00 | 01:09:42 | 00:00:00 | |
| OE5MMP-10 | 2026-09-01 11:39:20 | 48.31124 | 12.37019 | 90° | 75km/h | 14676m | 4.7m/s | -54.5°C | 4.7% | 134.1hPa | 2.6V | 00:00:00 | 01:09:39 | 00:00:00 | |
| BAUMI2-15 | 2026-09-01 11:39:19 | 48.31122 | 12.36960 | 87° | 75km/h | 14668m | 3.7m/s | -54.3°C | 4.7% | 134.4hPa | 2.6V | 00:00:00 | 01:09:37 | 08:30:00 | |
| OE5FHM-15 | 2026-09-01 11:39:16 | 48.31120 | 12.36902 | 88° | 73km/h | 14660m | 3.1m/s | -54.3°C | 4.6% | 134.6hPa | 2.7V | 00:00:00 | 01:09:35 | 00:00:00 | |
| BAUMI2-15 | 2026-09-01 11:39:14 | 48.31118 | 12.36817 | 88° | 73km/h | 14649m | 3.7m/s | -54.4°C | 4.6% | 134.8hPa | 2.6V | 00:00:00 | 01:09:32 | 00:00:00 | |
| OE5MMP-10 | 2026-09-01 11:39:10 | 48.31117 | 12.36735 | 90° | 73km/h | 14636m | 3.7m/s | -54.3°C | 4.6% | 135.1hPa | 2.6V | 00:00:00 | 01:09:29 | 08:30:00 | |
| DO3MHA-11 | 2026-09-01 11:39:09 | 48.31117 | 12.36707 | 90° | 73km/h | 14632m | 4.7m/s | -54.2°C | 4.6% | 135.1hPa | 2.6V | 00:00:00 | 01:09:28 | 00:00:00 | |
| BAUMI2-15 | 2026-09-01 11:39:08 | 48.31117 | 12.36680 | 90° | 73km/h | 14628m | 3.9m/s | -54.2°C | 4.6% | 135.2hPa | 2.6V | 00:00:00 | 01:09:27 | 00:00:00 | |
| PETON7-10 | 2026-09-01 11:39:04 | 48.31117 | 12.36570 | 90° | 73km/h | 14611m | 4.2m/s | 0°C | 0% | 0hPa | 2.6V | 00:00:00 | 00:00:00 | 00:00:00 | |
| BAUMI2-15 | 2026-09-01 11:39:03 | 48.31117 | 12.36542 | 88° | 75km/h | 14607m | 3.9m/s | -54.1°C | 4.5% | 135.7hPa | 2.6V | 00:00:00 | 01:09:22 | 00:00:00 | |
| DL6DJ-15 | 2026-09-01 11:38:57 | 48.31112 | 12.36372 | 86° | 73km/h | 14583m | 3.8m/s | -54.1°C | 1.8% | 136.2hPa | 2.7V | 00:00:00 | 00:00:00 | 00:00:00 | |
| BAUMI2-15 | 2026-09-01 11:38:53 | 48.31108 | 12.36265 | 89° | 71km/h | 14567m | 4.7m/s | -54.1°C | 4.5% | 136.5hPa | 2.7V | 00:00:00 | 01:09:12 | 00:00:00 | |
| OE5MMP-10 | 2026-09-01 11:38:50 | 48.31109 | 12.36183 | 93° | 71km/h | 14555m | 4.5m/s | -54.2°C | 4.5% | 136.8hPa | 2.7V | 00:00:00 | 01:09:09 | 00:00:00 | |
| PETON7-10 | 2026-09-01 11:38:49 | 48.31110 | 12.36156 | 94° | 71km/h | 14551m | 3.9m/s | 0°C | 0% | 0hPa | 2.7V | 00:00:00 | 01:09:08 | 00:00:00 | |
| BAUMI2-15 | 2026-09-01 11:38:48 | 48.31111 | 12.36129 | 94° | 71km/h | 14547m | 3.3m/s | -54.2°C | 4.6% | 136.9hPa | 2.7V | 00:00:00 | 01:09:07 | 00:00:00 | |
| OE5HKT-10 | 2026-09-01 11:38:46 | 48.31112 | 12.36074 | 90° | 71km/h | 14539m | 3.6m/s | 0°C | 0% | 0hPa | 2.6V | 00:00:00 | 00:00:00 | 00:00:00 | |
| BAUMI2-15 | 2026-09-01 11:38:43 | 48.31109 | 12.35994 | 86° | 71km/h | 14527m | 3.6m/s | -54.4°C | 4.7% | 137.4hPa | 2.6V | 00:00:00 | 01:09:02 | 00:00:00 | |
| OE5DRO-10 | 2026-09-01 11:38:42 | 48.31107 | 12.35940 | 87° | 73km/h | 14519m | 3.8m/s | -54.5°C | 4.8% | 137.6hPa | 2.6V | 00:00:00 | 00:00:00 | 00:00:00 | |
| OE5MMP-10 | 2026-09-01 11:38:40 | 48.31106 | 12.35912 | 88° | 71km/h | 14514m | 4.8m/s | -54.4°C | 4.7% | 137.6hPa | 2.6V | 00:00:00 | 01:08:59 | 00:00:00 | |
| DO3MHA-11 | 2026-09-01 11:38:39 | 48.31105 | 12.35886 | 90° | 71km/h | 14510m | 3.4m/s | -54.4°C | 4.7% | 137.8hPa | 2.7V | 00:00:00 | 01:08:58 | 00:00:00 | |
| BAUMI2-15 | 2026-09-01 11:38:38 | 48.31105 | 12.35859 | 91° | 71km/h | 14506m | 4.4m/s | 0°C | 0% | 0hPa | 2.7V | 00:00:00 | 01:08:57 | 00:00:00 | |
| PETON7-10 | 2026-09-01 11:38:34 | 48.31107 | 12.35751 | 92° | 75km/h | 14489m | 4.8m/s | 0°C | 0% | 0hPa | 2.7V | 00:00:00 | 00:00:00 | 00:00:00 | |
| BAUMI2-15 | 2026-09-01 11:38:33 | 48.31107 | 12.35725 | 92° | 71km/h | 14486m | 2.7m/s | 0°C | 0% | 0hPa | 2.7V | 00:00:00 | 01:08:52 | 08:30:00 | |
| OE3JTB-15 | 2026-09-01 11:38:31 | 48.31108 | 12.35644 | 90° | 80km/h | 14473m | 4.6m/s | -54.4°C | 4.5% | 138.5hPa | 2.7V | 00:00:00 | 00:00:00 | 00:00:00 | |
| OE5MMP-10 | 2026-09-01 11:38:30 | 48.31108 | 12.35644 | 90° | 77km/h | 14473m | 4.6m/s | -54.4°C | 4.5% | 138.5hPa | 2.7V | 00:00:00 | 01:08:49 | 00:00:00 | |
| DO3MHA-11 | 2026-09-01 11:38:29 | 48.31107 | 12.35616 | 90° | 77km/h | 14468m | 5.9m/s | -54.4°C | 4.6% | 138.6hPa | 2.7V | 00:00:00 | 01:08:48 | 00:00:00 | |
| DL6DJ-15 | 2026-09-01 11:38:26 | 48.31108 | 12.35532 | 90° | 75km/h | 14458m | 3.9m/s | -54.4°C | 1.9% | 138.9hPa | 2.7V | 00:00:00 | 00:00:00 | 00:00:00 | |
| BAUMI2-15 | 2026-09-01 11:38:23 | 48.31109 | 12.35444 | 93° | 78km/h | 14444m | 5.3m/s | 0°C | 0% | 0hPa | 2.7V | 00:00:00 | 01:08:42 | 00:00:00 | |
| OE5DXL-15 | 2026-09-01 11:38:20 | 48.31111 | 12.35324 | 90° | 84km/h | 14427m | 3.4m/s | -54.5°C | 4.6% | 139.6hPa | 2.7V | 00:00:00 | 00:00:00 | 00:00:00 | |
| DO3MHA-11 | 2026-09-01 11:38:19 | 48.31111 | 12.35324 | 90° | 78km/h | 14427m | 3.4m/s | -54.5°C | 4.6% | 139.6hPa | 2.7V | 00:00:00 | 01:08:38 | 00:00:00 | |
| BAUMI2-15 | 2026-09-01 11:38:18 | 48.31111 | 12.35294 | 90° | 77km/h | 14423m | 4.3m/s | 0°C | 0% | 0hPa | 2.6V | 00:00:00 | 01:08:37 | 00:00:00 | |
| OE5FHM-15 | 2026-09-01 11:38:16 | 48.31110 | 12.35235 | 88° | 84km/h | 14416m | 2.7m/s | -54.6°C | 4.6% | 139.8hPa | 2.6V | 00:00:00 | 01:08:35 | 00:00:00 | |
| BAUMI2-15 | 2026-09-01 11:38:13 | 48.31108 | 12.35149 | 89° | 82km/h | 14404m | 3.1m/s | 0°C | 0% | 0hPa | 2.6V | 00:00:00 | 01:08:32 | 00:00:00 | |
| OE5MMP-10 | 2026-09-01 11:38:10 | 48.31110 | 12.35057 | 96° | 86km/h | 14392m | 3.4m/s | -54.8°C | 4.7% | 140.3hPa | 2.6V | 00:00:00 | 01:08:29 | 00:00:00 | |
| BAUMI2-15 | 2026-09-01 11:38:09 | 48.31115 | 12.34991 | 96° | 86km/h | 14384m | 4.1m/s | 0°C | 0% | 0hPa | 2.6V | 00:00:00 | 01:08:27 | 00:00:00 | |
| PETON7-10 | 2026-09-01 11:38:04 | 48.31122 | 12.34860 | 94° | 84km/h | 14368m | 3.3m/s | 0°C | 0% | 0hPa | 2.6V | 00:00:00 | 01:08:23 | 00:00:00 | |
| BAUMI2-15 | 2026-09-01 11:38:03 | 48.31123 | 12.34829 | 92° | 82km/h | 14364m | 4.1m/s | 0°C | 0% | 0hPa | 2.6V | 00:00:00 | 01:08:22 | 00:00:00 | |
| OE5MMP-10 | 2026-09-01 11:38:00 | 48.31124 | 12.34736 | 92° | 86km/h | 14352m | 4.8m/s | -55.3°C | 4.9% | 141.2hPa | 2.6V | 00:00:00 | 01:08:19 | 00:00:00 | |
| DB0UT-7 | 2026-09-01 11:37:58 | 48.31126 | 12.34672 | 94° | 84km/h | 14344m | 4.1m/s | -55.3°C | 4.8% | 141.4hPa | 2.6V | 00:00:00 | 00:00:00 | 00:00:00 | |
| OE3JTB-15 | 2026-09-01 11:37:55 | 48.31129 | 12.34571 | 94° | 75km/h | 14332m | 4.9m/s | -55.3°C | 4.9% | 141.6hPa | 2.6V | 00:00:00 | 01:08:14 | 00:00:00 | |
| BAUMI2-15 | 2026-09-01 11:37:53 | 48.31133 | 12.34505 | 96° | 75km/h | 14323m | 3.2m/s | 0°C | 0% | 0hPa | 2.6V | 00:00:00 | 01:08:12 | 00:00:00 | |
| OE5MMP-10 | 2026-09-01 11:37:50 | 48.31139 | 12.34408 | 95° | 86km/h | 14312m | 3.3m/s | -55.3°C | 4.9% | 142.1hPa | 2.6V | 00:00:00 | 01:08:09 | 00:00:00 | |
| PETON7-10 | 2026-09-01 11:37:49 | 48.31141 | 12.34375 | 94° | 86km/h | 14308m | 3.5m/s | 0°C | 0% | 0hPa | 2.6V | 00:00:00 | 00:00:00 | 00:00:00 | |
| OE5FHM-15 | 2026-09-01 11:37:46 | 48.31144 | 12.34278 | 92° | 82km/h | 14296m | 4.1m/s | -55.3°C | 4.9% | 142.5hPa | 2.6V | 00:00:00 | 01:08:05 | 08:30:00 | |
| OE5DRO-10 | 2026-09-01 11:37:45 | 48.31144 | 12.34245 | 91° | 84km/h | 14291m | 4.7m/s | -55.3°C | 4.9% | 142.6hPa | 2.6V | 00:00:00 | 00:00:00 | 00:00:00 | |
| OE5MMP-10 | 2026-09-01 11:37:40 | 48.31145 | 12.34084 | 91° | 82km/h | 14271m | 4.6m/s | -55.3°C | 4.9% | 143.0hPa | 2.6V | 00:00:00 | 01:07:59 | 08:30:00 | |
| DO3MHA-11 | 2026-09-01 11:37:39 | 48.31145 | 12.34052 | 92° | 82km/h | 14267m | 3.1m/s | -55.1°C | 4.9% | 143.1hPa | 2.7V | 00:00:00 | 01:07:58 | 00:00:00 | |
| OE5MMP-10 | 2026-09-01 11:37:30 | 48.31150 | 12.33772 | 91° | 80km/h | 14232m | 3.9m/s | -54.8°C | 4.8% | 143.9hPa | 2.7V | 00:00:00 | 01:07:49 | 00:00:00 | |
| DO3MHA-11 | 2026-09-01 11:37:29 | 48.31150 | 12.33741 | 90° | 80km/h | 14227m | 4.6m/s | -54.7°C | 4.8% | 144.0hPa | 2.7V | 00:00:00 | 01:07:48 | 00:00:00 | |
| OE5DRO-10 | 2026-09-01 11:37:26 | 48.31149 | 12.33647 | 88° | 77km/h | 14215m | 4.5m/s | -54.7°C | 4.8% | 144.3hPa | 2.7V | 00:00:00 | 00:00:00 | 00:00:00 | |
| OE5REO-15 | 2026-09-01 11:37:23 | 48.31146 | 12.33587 | 87° | 77km/h | 14207m | 3.0m/s | -54.9°C | 2.1% | 144.5hPa | 2.7V | 00:00:00 | 00:00:00 | 00:00:00 | |
| OE5MMP-10 | 2026-09-01 11:37:20 | 48.31144 | 12.33469 | 92° | 78km/h | 14192m | 4.1m/s | -55.1°C | 4.9% | 144.8hPa | 2.7V | 00:00:00 | 01:07:39 | 00:00:00 | |
| DO3MHA-11 | 2026-09-01 11:37:19 | 48.31145 | 12.33439 | 91° | 77km/h | 14188m | 4.1m/s | -55.0°C | 4.9% | 144.9hPa | 2.7V | 00:00:00 | 01:07:38 | 00:00:00 | |
| OE5FHM-15 | 2026-09-01 11:37:16 | 48.31143 | 12.33351 | 88° | 71km/h | 14174m | 3.7m/s | -55.0°C | 4.8% | 145.2hPa | 2.6V | 00:00:00 | 01:07:35 | 00:00:00 | |
| OE5MMP-10 | 2026-09-01 11:37:10 | 48.31143 | 12.33176 | 91° | 69km/h | 14149m | 2.8m/s | -54.6°C | 4.7% | 145.8hPa | 2.6V | 00:00:00 | 01:07:29 | 00:00:00 | |
| DO3MHA-11 | 2026-09-01 11:37:09 | 48.31143 | 12.33149 | 92° | 69km/h | 14145m | 4.1m/s | -54.7°C | 4.7% | 145.8hPa | 2.7V | 00:00:00 | 01:07:28 | 00:00:00 | |
| OE5REO-15 | 2026-09-01 11:37:08 | 48.31143 | 12.33123 | 94° | 69km/h | 14141m | 4.6m/s | -54.7°C | 2.0% | 146.0hPa | 2.7V | 00:00:00 | 00:00:00 | 00:00:00 | |
| OE5DRO-10 | 2026-09-01 11:37:07 | 48.31145 | 12.33097 | 94° | 69km/h | 14137m | 3.2m/s | -54.7°C | 4.8% | 146.0hPa | 2.7V | 00:00:00 | 00:00:00 | 00:00:00 | |
| DL6DJ-15 | 2026-09-01 11:36:53 | 48.31144 | 12.32698 | 90° | 68km/h | 14077m | 5.0m/s | -54.4°C | 2.0% | 147.5hPa | 2.7V | 00:00:00 | 00:00:00 | 00:00:00 | |
| OE5REO-15 | 2026-09-01 11:36:52 | 48.31144 | 12.32724 | 90° | 69km/h | 14082m | 3.7m/s | -54.3°C | 1.9% | 147.4hPa | 2.7V | 00:00:00 | 00:00:00 | 00:00:00 | |
| OE5MMP-10 | 2026-09-01 11:36:50 | 48.31145 | 12.32647 | 91° | 71km/h | 14069m | 4.5m/s | -54.3°C | 4.6% | 147.6hPa | 2.7V | 00:00:00 | 01:07:09 | 00:00:00 | |
| DO3MHA-11 | 2026-09-01 11:36:49 | 48.31145 | 12.32622 | 91° | 71km/h | 14065m | 4.0m/s | -54.2°C | 4.6% | 147.7hPa | 2.7V | 00:00:00 | 01:07:08 | 00:00:00 | |
| OE5DRO-10 | 2026-09-01 11:36:48 | 48.31145 | 12.32596 | 91° | 71km/h | 14061m | 3.1m/s | -54.2°C | 4.6% | 147.8hPa | 2.7V | 00:00:00 | 00:00:00 | 00:00:00 | |
| OE5FHM-15 | 2026-09-01 11:36:46 | 48.31146 | 12.32544 | 92° | 69km/h | 14053m | 3.1m/s | -54.3°C | 4.6% | 148.0hPa | 2.7V | 00:00:00 | 01:07:05 | 00:00:00 | |
| OE3JTB-15 | 2026-09-01 11:36:44 | 48.31146 | 12.32434 | 91° | 77km/h | 14036m | 5.1m/s | -54.5°C | 4.8% | 148.3hPa | 2.7V | 00:00:00 | 00:00:00 | 08:30:00 | |
| OE5MMP-10 | 2026-09-01 11:36:40 | 48.31145 | 12.32379 | 89° | 69km/h | 14028m | 3.5m/s | -54.5°C | 4.8% | 148.6hPa | 2.6V | 00:00:00 | 01:06:59 | 00:00:00 | |
| DO3MHA-11 | 2026-09-01 11:36:39 | 48.31145 | 12.32353 | 87° | 71km/h | 14024m | 4.7m/s | -54.6°C | 4.9% | 148.6hPa | 2.6V | 00:00:00 | 01:06:58 | 00:00:00 | |
| OE5REO-15 | 2026-09-01 11:36:36 | 48.31142 | 12.32302 | 86° | 68km/h | 14016m | 4.4m/s | -54.6°C | 2.1% | 148.9hPa | 2.6V | 00:00:00 | 00:00:00 | 00:00:00 | |
| OE5MMP-10 | 2026-09-01 11:36:30 | 48.31134 | 12.32115 | 88° | 69km/h | 13987m | 2.9m/s | -54.4°C | 4.6% | 149.5hPa | 2.6V | 00:00:00 | 01:06:49 | 00:00:00 | |
| OE5DRO-10 | 2026-09-01 11:36:29 | 48.31133 | 12.32087 | 87° | 64km/h | 13983m | 4.2m/s | -54.4°C | 4.6% | 149.6hPa | 2.6V | 00:00:00 | 00:00:00 | 00:00:00 | |
| DO3MHA-11 | 2026-09-01 11:36:27 | 48.31129 | 12.32031 | 84° | 66km/h | 13975m | 3.6m/s | -54.4°C | 4.6% | 149.8hPa | 2.6V | 00:00:00 | 01:06:46 | 00:00:00 | |
| OE5REO-15 | 2026-09-01 11:36:21 | 48.31121 | 12.31906 | 91° | 62km/h | 13954m | 3.2m/s | -54.1°C | 2.1% | 150.4hPa | 2.6V | 00:00:00 | 00:00:00 | 00:00:00 | |
| OE5MMP-10 | 2026-09-01 11:36:20 | 48.31124 | 12.31858 | 100° | 64km/h | 13946m | 4.7m/s | -54.1°C | 4.8% | 150.5hPa | 2.6V | 00:00:00 | 01:06:39 | 00:00:00 | |
| OE5FHM-15 | 2026-09-01 11:36:16 | 48.31134 | 12.31764 | 93° | 62km/h | 13928m | 2.7m/s | -54.1°C | 4.8% | 150.9hPa | 2.6V | 00:00:00 | 01:06:35 | 00:00:00 | |
| OE5DXL-15 | 2026-09-01 11:36:15 | 48.31134 | 12.31716 | 88° | 64km/h | 13918m | 4.0m/s | -54.1°C | 4.7% | 151.1hPa | 2.6V | 00:00:00 | 00:00:00 | 00:00:00 | |
| OE5MMP-10 | 2026-09-01 11:36:10 | 48.31136 | 12.31620 | 95° | 62km/h | 13898m | 4.1m/s | -54.0°C | 4.8% | 151.6hPa | 2.6V | 00:00:00 | 01:06:29 | 08:30:00 | |
| OE5DRO-10 | 2026-09-01 11:36:09 | 48.31137 | 12.31597 | 94° | 62km/h | 13893m | 5.0m/s | -54.0°C | 4.7% | 151.7hPa | 2.6V | 00:00:00 | 00:00:00 | 00:00:00 | |
| DO3MHA-11 | 2026-09-01 11:36:07 | 48.31138 | 12.31550 | 92° | 62km/h | 13885m | 2.9m/s | -54.1°C | 4.7% | 151.9hPa | 2.6V | 00:00:00 | 01:06:26 | 00:00:00 | |
| OE5REO-15 | 2026-09-01 11:36:05 | 48.31138 | 12.31526 | 92° | 62km/h | 13881m | 5.0m/s | -54.2°C | 2.1% | 152.1hPa | 2.6V | 00:00:00 | 00:00:00 | 00:00:00 | |
| DL6DJ-15 | 2026-09-01 11:35:51 | 48.31176 | 12.31155 | 103° | 64km/h | 13812m | 3.9m/s | -53.8°C | 2.2% | 153.7hPa | 2.6V | 00:00:00 | 00:00:00 | 00:00:00 | |
| OE5MMP-10 | 2026-09-01 11:35:50 | 48.31176 | 12.31155 | 104° | 66km/h | 13812m | 3.8m/s | -53.8°C | 4.8% | 153.7hPa | 2.6V | 00:00:00 | 01:06:09 | 00:00:00 | |
| DO3MHA-11 | 2026-09-01 11:35:47 | 48.31188 | 12.31083 | 105° | 73km/h | 13800m | 3.7m/s | -53.8°C | 4.8% | 154.0hPa | 2.6V | 00:00:00 | 01:06:06 | 00:00:00 | |
| OE5FHM-15 | 2026-09-01 11:35:46 | 48.31192 | 12.31059 | 105° | 73km/h | 13796m | 3.4m/s | -53.9°C | 4.8% | 154.0hPa | 2.6V | 00:00:00 | 01:06:05 | 00:00:00 | |
| BAUMI2-15 | 2026-09-01 11:35:45 | 48.31196 | 12.31035 | 104° | 66km/h | 13793m | 4.0m/s | 0°C | 0% | 0hPa | 2.6V | 00:00:00 | 01:06:04 | 00:00:00 | |
| OE5DXL-15 | 2026-09-01 11:35:43 | 48.31207 | 12.30936 | 99° | 78km/h | 13778m | 3.7m/s | -54.1°C | 4.9% | 154.5hPa | 2.6V | 00:00:00 | 00:00:00 | 00:00:00 | |
| OE5MMP-10 | 2026-09-01 11:35:40 | 48.31210 | 12.30910 | 100° | 69km/h | 13774m | 3.2m/s | -54.1°C | 4.8% | 154.6hPa | 2.6V | 00:00:00 | 01:05:59 | 00:00:00 | |
| OE5WHR-10 | 2026-09-01 11:35:39 | 48.31213 | 12.30885 | 101° | 77km/h | 13771m | 3.7m/s | -54.1°C | 4.8% | 154.7hPa | 2.6V | 00:00:00 | 00:00:00 | 00:00:00 | |
| BAUMI2-15 | 2026-09-01 11:35:35 | 48.31226 | 12.30785 | 102° | 71km/h | 13755m | 4.1m/s | 0°C | 0% | 0hPa | 2.6V | 00:00:00 | 01:05:54 | 00:00:00 | |
| OE5REO-15 | 2026-09-01 11:35:34 | 48.31225 | 12.30785 | 102° | 71km/h | 13755m | 4.1m/s | -54.4°C | 2.3% | 155.1hPa | 2.6V | 00:00:00 | 00:00:00 | 00:00:00 | |
| OE5DRO-10 | 2026-09-01 11:35:31 | 48.31240 | 12.30679 | 103° | 80km/h | 13739m | 3.7m/s | -54.5°C | 5.1% | 155.4hPa | 2.6V | 00:00:00 | 00:00:00 | 00:00:00 | |
| OE5MMP-10 | 2026-09-01 11:35:30 | 48.31245 | 12.30652 | 103° | 78km/h | 13735m | 4.6m/s | -54.5°C | 5.1% | 155.5hPa | 2.6V | 00:00:00 | 01:05:49 | 00:00:00 | |
| DO3MHA-11 | 2026-09-01 11:35:23 | 48.31280 | 12.30452 | 105° | 84km/h | 13707m | 2.7m/s | -54.5°C | 5.1% | 156.2hPa | 2.6V | 00:00:00 | 01:05:42 | 00:00:00 | |
| DL6DJ-15 | 2026-09-01 11:35:20 | 48.31298 | 12.30334 | 102° | 78km/h | 13691m | 4.1m/s | -54.6°C | 2.4% | 156.6hPa | 2.6V | 00:00:00 | 00:00:00 | 00:00:00 | |
| OE5WHR-10 | 2026-09-01 11:35:18 | 48.31302 | 12.30304 | 103° | 84km/h | 13687m | 5.3m/s | -54.6°C | 5.2% | 156.7hPa | 2.6V | 00:00:00 | 01:05:37 | 00:00:00 | |
| BAUMI2-15 | 2026-09-01 11:35:17 | 48.31307 | 12.30273 | 102° | 88km/h | 13682m | 3.6m/s | 0°C | 0% | 0hPa | 2.6V | 00:00:00 | 01:05:36 | 00:00:00 | |
| OE5FHM-15 | 2026-09-01 11:35:16 | 48.31311 | 12.30240 | 101° | 84km/h | 13679m | 4.3m/s | -54.6°C | 5.2% | 156.9hPa | 2.6V | 00:00:00 | 01:05:35 | 00:00:00 | |
| DO3MHA-11 | 2026-09-01 11:35:13 | 48.31321 | 12.30141 | 98° | 84km/h | 13666m | 4.4m/s | -54.5°C | 5.2% | 157.2hPa | 2.6V | 00:00:00 | 01:05:32 | 00:00:00 | |
| BAUMI2-15 | 2026-09-01 11:35:12 | 48.31324 | 12.30109 | 99° | 84km/h | 13662m | 4.4m/s | 0°C | 0% | 0hPa | 2.6V | 00:00:00 | 01:05:31 | 00:00:00 | |
| OE5MMP-10 | 2026-09-01 11:35:10 | 48.31330 | 12.30046 | 96° | 84km/h | 13654m | 4.8m/s | -54.5°C | 5.2% | 157.5hPa | 2.6V | 00:00:00 | 01:05:29 | 00:00:00 | |
| BAUMI2-15 | 2026-09-01 11:35:06 | 48.31336 | 12.29921 | 95° | 84km/h | 13636m | 3.3m/s | 0°C | 0% | 0hPa | 2.6V | 00:00:00 | 01:05:25 | 00:00:00 | |
| PG1ADW-2 | 2026-09-01 11:35:04 | 48.31338 | 12.29858 | 94° | 84km/h | 13628m | 4.5m/s | -54.6°C | 5.4% | 158.2hPa | 2.6V | 00:00:00 | 00:00:00 | 00:00:00 | |
| OE5REO-15 | 2026-09-01 11:35:03 | 48.31340 | 12.29826 | 94° | 86km/h | 13624m | 3.2m/s | 0°C | 0% | 158.3hPa | 2.6V | 00:00:00 | 00:00:00 | 00:00:00 | |
| DL6DJ-15 | 2026-09-01 11:34:48 | 48.31342 | 12.29347 | 83° | 82km/h | 13550m | 6.4m/s | -54.2°C | 2.5% | 160.1hPa | 2.6V | 00:00:00 | 00:00:00 | 00:00:00 | |
| OE5REO-15 | 2026-09-01 11:34:47 | 48.31339 | 12.29316 | 82° | 84km/h | 13545m | 5.8m/s | 0°C | 0% | 0hPa | 2.6V | 00:00:00 | 00:00:00 | 00:00:00 | |
| OE5FHM-15 | 2026-09-01 11:34:46 | 48.31335 | 12.29284 | 79° | 89km/h | 13540m | 4.2m/s | -53.9°C | 5.3% | 160.4hPa | 2.6V | 00:00:00 | 01:05:05 | 00:00:00 | |
| PG1ADW-2 | 2026-09-01 11:34:44 | 48.31326 | 12.29220 | 80° | 88km/h | 13531m | 5.2m/s | -53.9°C | 5.2% | 160.6hPa | 2.6V | 00:00:00 | 01:05:03 | 00:00:00 | |
| DO3MHA-11 | 2026-09-01 11:34:43 | 48.31323 | 12.29188 | 82° | 84km/h | 13526m | 4.7m/s | -53.9°C | 5.2% | 160.7hPa | 2.6V | 00:00:00 | 01:05:02 | 00:00:00 | |
| BAUMI2-15 | 2026-09-01 11:34:40 | 48.31314 | 12.29093 | 83° | 88km/h | 13513m | 5.4m/s | 0°C | 0% | 0hPa | 2.6V | 00:00:00 | 01:04:59 | 00:00:00 | |
| OE5WHR-10 | 2026-09-01 11:34:36 | 48.31304 | 12.28966 | 84° | 89km/h | 13495m | 3.8m/s | -53.8°C | 5.3% | 161.5hPa | 2.6V | 00:00:00 | 00:00:00 | 00:00:00 | |
| DB0UT-7 | 2026-09-01 11:34:35 | 48.31301 | 12.28935 | 84° | 88km/h | 13491m | 4.6m/s | -53.9°C | 5.4% | 161.6hPa | 2.6V | 00:00:00 | 00:00:00 | 00:00:00 | |
| OE5DRO-10 | 2026-09-01 11:34:34 | 48.31299 | 12.28902 | 82° | 91km/h | 13486m | 4.6m/s | -53.8°C | 5.4% | 161.7hPa | 2.6V | 00:00:00 | 00:00:00 | 00:00:00 | |
| DO3MHA-11 | 2026-09-01 11:34:33 | 48.31295 | 12.28868 | 81° | 93km/h | 13482m | 3.5m/s | -53.7°C | 5.4% | 161.8hPa | 2.6V | 00:00:00 | 01:04:52 | 08:30:00 | |
| BAUMI2-15 | 2026-09-01 11:34:32 | 48.31291 | 12.28834 | 81° | 93km/h | 13478m | 4.4m/s | 0°C | 0% | 0hPa | 2.7V | 00:00:00 | 01:04:51 | 00:00:00 | |
| BAUMI2-15 | 2026-09-01 11:34:27 | 48.31273 | 12.28658 | 81° | 89km/h | 13455m | 3.5m/s | 0°C | 0% | 0hPa | 2.7V | 00:00:00 | 01:04:46 | 00:00:00 | |
| PG1ADW-2 | 2026-09-01 11:34:24 | 48.31262 | 12.28556 | 82° | 89km/h | 13442m | 4.4m/s | -53.8°C | 5.5% | 162.8hPa | 2.7V | 00:00:00 | 00:00:00 | 00:00:00 | |
| DO3MHA-11 | 2026-09-01 11:34:23 | 48.31258 | 12.28523 | 80° | 89km/h | 13438m | 5.1m/s | -53.8°C | 5.6% | 162.9hPa | 2.6V | 00:00:00 | 01:04:42 | 00:00:00 | |
| DL6DJ-15 | 2026-09-01 11:34:17 | 48.31236 | 12.28321 | 79° | 91km/h | 13412m | 3.4m/s | -53.8°C | 2.9% | 163.6hPa | 2.6V | 00:00:00 | 00:00:00 | 00:00:00 | |
| OE5FHM-15 | 2026-09-01 11:34:16 | 48.31231 | 12.28287 | 80° | 89km/h | 13408m | 4.6m/s | -53.7°C | 5.5% | 163.7hPa | 2.6V | 00:00:00 | 01:04:35 | 00:00:00 | |
| OE5WHR-10 | 2026-09-01 11:34:15 | 48.31227 | 12.28253 | 81° | 91km/h | 13404m | 4.4m/s | -53.7°C | 5.5% | 163.8hPa | 2.6V | 00:00:00 | 01:04:34 | 00:00:00 | |
| DO3MHA-11 | 2026-09-01 11:34:13 | 48.31219 | 12.28186 | 80° | 88km/h | 13394m | 4.7m/s | -53.9°C | 5.6% | 164.1hPa | 2.6V | 00:00:00 | 01:04:32 | 00:00:00 | |
| OE5HKT-10 | 2026-09-01 11:34:12 | 48.31215 | 12.28153 | 80° | 88km/h | 13390m | 3.8m/s | 0°C | 0% | 0hPa | 2.6V | 00:00:00 | 00:00:00 | 00:00:00 | |
| OE5DXL-15 | 2026-09-01 11:34:11 | 48.31208 | 12.28088 | 83° | 89km/h | 13381m | 4.2m/s | -54.1°C | 5.6% | 164.4hPa | 2.6V | 00:00:00 | 00:00:00 | 00:00:00 | |
| PG1ADW-2 | 2026-09-01 11:34:04 | 48.31191 | 12.27888 | 84° | 91km/h | 13355m | 5.0m/s | -53.9°C | 5.7% | 165.1hPa | 2.6V | 00:00:00 | 00:00:00 | 00:00:00 | |
| DO3MHA-11 | 2026-09-01 11:34:03 | 48.31189 | 12.27853 | 84° | 89km/h | 13350m | 4.1m/s | -53.8°C | 5.7% | 165.2hPa | 2.6V | 00:00:00 | 01:04:22 | 00:00:00 | |
| OE5DRO-10 | 2026-09-01 11:33:56 | 48.31169 | 12.27615 | 84° | 89km/h | 13321m | 4.8m/s | -54.1°C | 5.8% | 166.0hPa | 2.7V | 00:00:00 | 00:00:00 | 00:00:00 | |
| DO3MHA-11 | 2026-09-01 11:33:53 | 48.31164 | 12.27515 | 89° | 91km/h | 13308m | 4.9m/s | -54.4°C | 6.0% | 166.3hPa | 2.7V | 00:00:00 | 01:04:12 | 00:00:00 | |
| OE5WHR-10 | 2026-09-01 11:33:49 | 48.31163 | 12.27375 | 89° | 91km/h | 13290m | 3.7m/s | -54.6°C | 6.2% | 166.8hPa | 2.7V | 00:00:00 | 00:00:00 | 00:00:00 | |
| OE3JTB-15 | 2026-09-01 11:33:47 | 48.31160 | 12.27269 | 88° | 91km/h | 13277m | 4.9m/s | -54.5°C | 6.4% | 167.1hPa | 2.6V | 00:00:00 | 00:00:00 | 00:00:00 | |
| OE5FHM-15 | 2026-09-01 11:33:46 | 48.31160 | 12.27269 | 88° | 91km/h | 13277m | 4.9m/s | -54.5°C | 6.4% | 167.1hPa | 2.7V | 00:00:00 | 01:04:05 | 00:00:00 | |
| PG1ADW-2 | 2026-09-01 11:33:44 | 48.31158 | 12.27203 | 87° | 91km/h | 13269m | 4.0m/s | -54.5°C | 6.4% | 167.3hPa | 2.7V | 00:00:00 | 00:00:00 | 00:00:00 | |
| DO3MHA-11 | 2026-09-01 11:33:43 | 48.31156 | 12.27171 | 87° | 89km/h | 13265m | 4.4m/s | -54.6°C | 6.5% | 167.4hPa | 2.7V | 00:00:00 | 01:04:02 | 00:00:00 | |
| OE5DXL-15 | 2026-09-01 11:33:40 | 48.31152 | 12.27040 | 90° | 91km/h | 13249m | 4.2m/s | -54.6°C | 6.5% | 167.9hPa | 2.7V | 00:00:00 | 00:00:00 | 00:00:00 | |
| OE5DRO-10 | 2026-09-01 11:33:37 | 48.31152 | 12.26974 | 91° | 93km/h | 13241m | 5.0m/s | -54.6°C | 6.4% | 168.0hPa | 2.7V | 00:00:00 | 00:00:00 | 00:00:00 | |
| OE5HKT-10 | 2026-09-01 11:33:36 | 48.31153 | 12.26940 | 91° | 93km/h | 13237m | 3.9m/s | 0°C | 0% | 0hPa | 2.7V | 00:00:00 | 00:00:00 | 00:00:00 | |
| DO3MHA-11 | 2026-09-01 11:33:33 | 48.31154 | 12.26832 | 92° | 93km/h | 13225m | 3.6m/s | -54.7°C | 6.6% | 168.5hPa | 2.7V | 00:00:00 | 01:03:52 | 00:00:00 | |
| OE5WHR-10 | 2026-09-01 11:33:28 | 48.31151 | 12.26654 | 88° | 88km/h | 13204m | 3.5m/s | -54.7°C | 6.8% | 169.0hPa | 2.7V | 00:00:00 | 00:00:00 | 00:00:00 | |
| PG1ADW-2 | 2026-09-01 11:33:24 | 48.31144 | 12.26514 | 86° | 89km/h | 13189m | 3.2m/s | -54.7°C | 7.1% | 169.4hPa | 2.7V | 00:00:00 | 01:03:43 | 08:30:00 | |
| DO3MHA-11 | 2026-09-01 11:33:23 | 48.31143 | 12.26479 | 87° | 89km/h | 13186m | 4.1m/s | -54.6°C | 7.1% | 169.5hPa | 2.6V | 00:00:00 | 01:03:42 | 00:00:00 | |
| OE5DRO-10 | 2026-09-01 11:33:18 | 48.31138 | 12.26307 | 87° | 88km/h | 13166m | 3.9m/s | -54.7°C | 7.0% | 170.0hPa | 2.6V | 00:00:00 | 00:00:00 | 00:00:00 | |
| OE5FHM-15 | 2026-09-01 11:33:16 | 48.31134 | 12.26238 | 85° | 86km/h | 13159m | 4.4m/s | -54.7°C | 7.0% | 170.2hPa | 2.6V | 00:00:00 | 01:03:35 | 08:30:00 | |
| OE5HKT-10 | 2026-09-01 11:33:15 | 48.31132 | 12.26205 | 84° | 88km/h | 13155m | 4.2m/s | 0°C | 0% | 0hPa | 2.7V | 00:00:00 | 01:03:34 | 00:00:00 | |
| DO3MHA-11 | 2026-09-01 11:33:13 | 48.31126 | 12.26139 | 82° | 88km/h | 13147m | 4.5m/s | -54.6°C | 7.2% | 170.5hPa | 2.7V | 00:00:00 | 01:03:32 | 00:00:00 | |
| OE5DXL-15 | 2026-09-01 11:33:10 | 48.31117 | 12.26008 | 87° | 86km/h | 13132m | 2.9m/s | -54.6°C | 7.4% | 171.0hPa | 2.7V | 00:00:00 | 00:00:00 | 00:00:00 | |
| OE5WHR-10 | 2026-09-01 11:33:07 | 48.31115 | 12.25941 | 88° | 86km/h | 13124m | 4.1m/s | -54.7°C | 7.5% | 171.2hPa | 2.7V | 00:00:00 | 01:03:26 | 00:00:00 | |
| S52SK | 2026-09-01 11:33:06 | 48.31114 | 12.25941 | 89° | 89km/h | 13124m | 4.2m/s | -54.8°C | 0% | 0hPa | 2.7V | 00:00:00 | 00:00:00 | 00:00:00 | |
| PG1ADW-2 | 2026-09-01 11:33:04 | 48.31112 | 12.25841 | 89° | 86km/h | 13112m | 3.8m/s | -54.7°C | 7.6% | 171.5hPa | 2.7V | 00:00:00 | 00:00:00 | 00:00:00 | |
| DO3MHA-11 | 2026-09-01 11:33:03 | 48.31112 | 12.25808 | 89° | 84km/h | 13109m | 3.4m/s | -54.8°C | 7.7% | 171.6hPa | 2.7V | 00:00:00 | 01:03:22 | 08:30:00 | |
| DH7VM-15 | 2026-09-01 11:33:02 | 48.31112 | 12.25808 | 90° | 86km/h | 13109m | 3.5m/s | 0°C | 0% | 0hPa | 2.6V | 00:00:00 | 00:00:00 | 00:00:00 | |
| S52SK | 2026-09-01 11:33:01 | 48.31112 | 12.25776 | 90° | 86km/h | 13105m | 4.2m/s | -54.9°C | 0% | 0hPa | 2.6V | 00:00:00 | 00:00:00 | 00:00:00 | |
| OE5DRO-10 | 2026-09-01 11:32:59 | 48.31109 | 12.25679 | 87° | 86km/h | 13094m | 4.4m/s | -54.8°C | 8.0% | 172.0hPa | 2.6V | 00:00:00 | 00:00:00 | 00:00:00 | |
| S52SK | 2026-09-01 11:32:56 | 48.31106 | 12.25616 | 86° | 84km/h | 13086m | 4.5m/s | -54.9°C | 0% | 0hPa | 2.6V | 00:00:00 | 00:00:00 | 00:00:00 | |
| OE5MMP-10 | 2026-09-01 11:32:54 | 48.31099 | 12.25522 | 82° | 86km/h | 13075m | 4.4m/s | -55.1°C | 8.4% | 172.5hPa | 2.6V | 00:00:00 | 01:03:13 | 00:00:00 | |
| DO3MHA-11 | 2026-09-01 11:32:53 | 48.31096 | 12.25491 | 81° | 88km/h | 13071m | 3.3m/s | -55.0°C | 8.5% | 172.6hPa | 2.6V | 00:00:00 | 01:03:12 | 00:00:00 | |
| S52SK | 2026-09-01 11:32:50 | 48.31089 | 12.25427 | 82° | 88km/h | 13063m | 3.2m/s | -55.1°C | 0% | 0hPa | 2.6V | 00:00:00 | 00:00:00 | 00:00:00 | |
| OE3JTB-15 | 2026-09-01 11:32:49 | 48.31083 | 12.25362 | 83° | 91km/h | 13056m | 4.4m/s | -55.1°C | 9.0% | 173.0hPa | 2.6V | 00:00:00 | 01:03:08 | 00:00:00 | |
| OE5WHR-10 | 2026-09-01 11:32:46 | 48.31075 | 12.25264 | 85° | 93km/h | 13044m | 4.9m/s | -55.0°C | 9.0% | 173.3hPa | 2.6V | 00:00:00 | 00:00:00 | 08:30:00 | |
| S52SK | 2026-09-01 11:32:45 | 48.31075 | 12.25264 | 85° | 88km/h | 13044m | 4.9m/s | -55.1°C | 0% | 0hPa | 2.6V | 00:00:00 | 00:00:00 | 00:00:00 | |
| OE5MMP-10 | 2026-09-01 11:32:44 | 48.31071 | 12.25197 | 85° | 89km/h | 13035m | 3.8m/s | -55.1°C | 9.0% | 173.5hPa | 2.6V | 00:00:00 | 01:03:03 | 00:00:00 | |
| DO3MHA-11 | 2026-09-01 11:32:43 | 48.31069 | 12.25163 | 85° | 89km/h | 13031m | 4.5m/s | -55.3°C | 9.0% | 173.7hPa | 2.6V | 00:00:00 | 01:03:02 | 00:00:00 | |
| OE5DXL-15 | 2026-09-01 11:32:40 | 48.31057 | 12.25031 | 83° | 91km/h | 13016m | 3.4m/s | -55.2°C | 9.4% | 174.0hPa | 2.6V | 00:00:00 | 00:00:00 | 08:30:00 | |
| S52SK | 2026-09-01 11:32:38 | 48.31057 | 12.25031 | 83° | 91km/h | 13016m | 3.5m/s | 0°C | 0% | 0hPa | 2.6V | 00:00:00 | 00:00:00 | 00:00:00 | |
| OE5MMP-10 | 2026-09-01 11:32:34 | 48.31045 | 12.24861 | 86° | 97km/h | 12998m | 4.0m/s | -55.1°C | 10.2% | 174.5hPa | 2.6V | 00:00:00 | 01:02:53 | 08:30:00 | |
| DO3MHA-11 | 2026-09-01 11:32:33 | 48.31044 | 12.24827 | 87° | 97km/h | 12995m | 3.2m/s | -55.1°C | 10.3% | 174.7hPa | 2.6V | 00:00:00 | 01:02:52 | 00:00:00 | |
| S52SK | 2026-09-01 11:32:32 | 48.31044 | 12.24827 | 87° | 91km/h | 12995m | 3.3m/s | 0°C | 0% | 0hPa | 2.7V | 00:00:00 | 00:00:00 | 00:00:00 | |
| S52SK | 2026-09-01 11:32:27 | 48.31038 | 12.24646 | 88° | 100km/h | 12976m | 2.9m/s | 0°C | 0% | 0hPa | 2.7V | 00:00:00 | 00:00:00 | 00:00:00 | |
| OE5WHR-10 | 2026-09-01 11:32:24 | 48.31034 | 12.24496 | 86° | 89km/h | 12962m | 4.3m/s | -55.4°C | 10.9% | 175.5hPa | 2.7V | 00:00:00 | 00:00:00 | 00:00:00 | |
| S52SK | 2026-09-01 11:32:23 | 48.31032 | 12.24461 | 85° | 91km/h | 12958m | 3.8m/s | 0°C | 0% | 0hPa | 2.7V | 00:00:00 | 00:00:00 | 00:00:00 | |
| OE5DRO-10 | 2026-09-01 11:32:21 | 48.31028 | 12.24394 | 86° | 89km/h | 12951m | 3.8m/s | -55.5°C | 11.5% | 175.8hPa | 2.7V | 00:00:00 | 00:00:00 | 08:30:00 | |
| OE3JTB-15 | 2026-09-01 11:32:20 | 48.31026 | 12.24360 | 87° | 93km/h | 12947m | 3.4m/s | -55.7°C | 11.9% | 176.0hPa | 2.7V | 00:00:00 | 00:00:00 | 00:00:00 | |
| OE5FHM-15 | 2026-09-01 11:32:16 | 48.31025 | 12.24224 | 91° | 93km/h | 12932m | 4.8m/s | -55.8°C | 12.3% | 176.4hPa | 2.6V | 00:00:00 | 01:02:35 | 00:00:00 | |
| OE5MMP-10 | 2026-09-01 11:32:14 | 48.31026 | 12.24156 | 91° | 89km/h | 12924m | 3.3m/s | -55.9°C | 12.4% | 176.6hPa | 2.6V | 00:00:00 | 01:02:33 | 00:00:00 | |
| DO3MHA-11 | 2026-09-01 11:32:13 | 48.31026 | 12.24122 | 91° | 89km/h | 12920m | 4.1m/s | -56.0°C | 12.5% | 176.7hPa | 2.6V | 00:00:00 | 01:02:32 | 00:00:00 | |
| OE5DXL-15 | 2026-09-01 11:32:10 | 48.31025 | 12.23989 | 89° | 97km/h | 12906m | 3.8m/s | -56.7°C | 13.9% | 177.1hPa | 2.6V | 00:00:00 | 00:00:00 | 00:00:00 | |
| OE5MMP-10 | 2026-09-01 11:32:04 | 48.31026 | 12.23816 | 94° | 95km/h | 12888m | 3.5m/s | -57.1°C | 15.5% | 177.6hPa | 2.6V | 00:00:00 | 01:02:23 | 00:00:00 | |
| OE5WHR-10 | 2026-09-01 11:32:03 | 48.31027 | 12.23780 | 94° | 97km/h | 12885m | 3.8m/s | -57.1°C | 15.6% | 177.7hPa | 2.7V | 00:00:00 | 01:02:22 | 00:00:00 | |
| OE5DRO-10 | 2026-09-01 11:32:02 | 48.31029 | 12.23744 | 94° | 97km/h | 12881m | 4.2m/s | -57.1°C | 15.7% | 177.8hPa | 2.7V | 00:00:00 | 00:00:00 | 00:00:00 | |
| S52SK | 2026-09-01 11:32:00 | 48.31030 | 12.23707 | 94° | 97km/h | 12877m | 3.8m/s | 0°C | 0% | 0hPa | 2.7V | 00:00:00 | 00:00:00 | 00:00:00 | |
| OE5MMP-10 | 2026-09-01 11:31:54 | 48.31035 | 12.23453 | 91° | 99km/h | 12849m | 3.5m/s | -57.2°C | 16.2% | 178.7hPa | 2.7V | 00:00:00 | 01:02:13 | 00:00:00 | |
| DO3MHA-11 | 2026-09-01 11:31:53 | 48.31035 | 12.23417 | 90° | 99km/h | 12845m | 3.1m/s | -57.2°C | 16.4% | 178.8hPa | 2.7V | 00:00:00 | 01:02:12 | 00:00:00 | |
| OE3JTB-15 | 2026-09-01 11:31:51 | 48.31034 | 12.23344 | 89° | 104km/h | 12838m | 3.4m/s | -57.3°C | 16.8% | 179.0hPa | 2.7V | 00:00:00 | 00:00:00 | 00:00:00 | |
| OE5FHM-15 | 2026-09-01 11:31:46 | 48.31031 | 12.23155 | 89° | 104km/h | 12817m | 3.6m/s | -57.3°C | 17.6% | 179.6hPa | 2.7V | 00:00:00 | 01:02:05 | 00:00:00 | |
| OE5MMP-10 | 2026-09-01 11:31:44 | 48.31030 | 12.23079 | 89° | 104km/h | 12810m | 3.2m/s | -57.3°C | 18.4% | 179.8hPa | 2.6V | 00:00:00 | 01:02:03 | 00:00:00 | |
| DO3MHA-11 | 2026-09-01 11:31:43 | 48.31030 | 12.23041 | 90° | 106km/h | 12806m | 4.2m/s | -57.4°C | 18.8% | 179.9hPa | 2.6V | 00:00:00 | 01:02:02 | 00:00:00 | |
| OE5WHR-10 | 2026-09-01 11:31:42 | 48.31029 | 12.23002 | 89° | 104km/h | 12802m | 4.0m/s | -57.4°C | 19.0% | 180.0hPa | 2.6V | 00:00:00 | 00:00:00 | 00:00:00 | |
| OE5DXL-15 | 2026-09-01 11:31:40 | 48.31028 | 12.22923 | 89° | 104km/h | 12796m | 4.6m/s | -57.4°C | 19.3% | 180.2hPa | 2.7V | 00:00:00 | 00:00:00 | 00:00:00 | |
| OE5MMP-10 | 2026-09-01 11:31:34 | 48.31021 | 12.22681 | 86° | 106km/h | 12772m | 4.0m/s | -57.4°C | 20.1% | 180.9hPa | 2.7V | 00:00:00 | 01:01:53 | 00:00:00 | |
| DO3MHA-11 | 2026-09-01 11:31:33 | 48.31018 | 12.22641 | 85° | 104km/h | 12769m | 2.8m/s | -57.5°C | 20.2% | 181.0hPa | 2.6V | 00:00:00 | 01:01:52 | 08:30:00 | |
| OE5MMP-10 | 2026-09-01 11:31:24 | 48.31001 | 12.22285 | 87° | 102km/h | 12734m | 4.4m/s | -57.2°C | 22.4% | 182.0hPa | 2.7V | 00:00:00 | 01:01:43 | 00:00:00 | |
| DO3MHA-11 | 2026-09-01 11:31:23 | 48.31000 | 12.22246 | 87° | 102km/h | 12730m | 2.8m/s | -57.2°C | 22.5% | 182.1hPa | 2.7V | 00:00:00 | 01:01:42 | 00:00:00 | |
| DK5PH-5 | 2026-09-01 11:31:22 | 48.30998 | 12.22208 | 86° | 99km/h | 12727m | 4.0m/s | 0°C | 0% | 0hPa | 2.7V | 00:00:00 | 01:01:41 | 00:00:00 | |
| OE5WHR-10 | 2026-09-01 11:31:21 | 48.30996 | 12.22169 | 86° | 100km/h | 12723m | 3.7m/s | -57.1°C | 23.0% | 182.3hPa | 2.7V | 00:00:00 | 00:00:00 | 00:00:00 | |
| DH7VM-15 | 2026-09-01 11:31:16 | 48.30984 | 12.21977 | 85° | 102km/h | 12704m | 3.8m/s | 0°C | 0% | 0hPa | 2.7V | 00:00:00 | 00:00:00 | 00:00:00 | |
| OE5MMP-10 | 2026-09-01 11:31:14 | 48.30978 | 12.21901 | 84° | 100km/h | 12696m | 4.4m/s | -57.2°C | 25.5% | 183.1hPa | 2.7V | 00:00:00 | 01:01:33 | 00:00:00 | |
| DO3MHA-11 | 2026-09-01 11:31:13 | 48.30975 | 12.21863 | 84° | 100km/h | 12692m | 3.1m/s | -57.2°C | 25.8% | 183.2hPa | 2.7V | 00:00:00 | 01:01:32 | 00:00:00 | |
| OE5DXL-15 | 2026-09-01 11:31:10 | 48.30968 | 12.21750 | 85° | 95km/h | 12680m | 4.3m/s | -57.2°C | 26.0% | 183.5hPa | 2.7V | 00:00:00 | 00:00:00 | 00:00:00 | |
| OE5DRO-10 | 2026-09-01 11:31:05 | 48.30953 | 12.21562 | 83° | 93km/h | 12661m | 3.3m/s | -57.8°C | 28.1% | 184.1hPa | 2.7V | 00:00:00 | 00:00:00 | 00:00:00 | |
| OE5MMP-10 | 2026-09-01 11:31:04 | 48.30950 | 12.21525 | 82° | 93km/h | 12658m | 4.0m/s | -57.8°C | 28.3% | 184.2hPa | 2.7V | 00:00:00 | 01:01:23 | 08:30:00 | |
| DO3MHA-11 | 2026-09-01 11:31:03 | 48.30946 | 12.21489 | 82° | 93km/h | 12654m | 3.3m/s | -57.8°C | 28.0% | 184.3hPa | 2.7V | 00:00:00 | 01:01:22 | 00:00:00 | |
| OE5WHR-10 | 2026-09-01 11:31:00 | 48.30937 | 12.21383 | 84° | 93km/h | 12642m | 4.9m/s | -57.9°C | 28.0% | 184.7hPa | 2.7V | 00:00:00 | 01:01:19 | 00:00:00 | |
| OE5MMP-10 | 2026-09-01 11:30:54 | 48.30927 | 12.21177 | 85° | 95km/h | 12618m | 3.2m/s | -58.2°C | 28.8% | 185.4hPa | 2.7V | 00:00:00 | 01:01:13 | 00:00:00 | |
| DO3MHA-11 | 2026-09-01 11:30:53 | 48.30924 | 12.21142 | 85° | 95km/h | 12615m | 4.3m/s | -58.3°C | 28.2% | 185.4hPa | 2.7V | 00:00:00 | 01:01:12 | 00:00:00 | |
| DK5PH-5 | 2026-09-01 11:30:49 | 48.30910 | 12.21000 | 80° | 93km/h | 12599m | 3.6m/s | 0°C | 0% | 0hPa | 2.7V | 00:00:00 | 01:01:08 | 00:00:00 | |
| OE5FHM-15 | 2026-09-01 11:30:46 | 48.30899 | 12.20893 | 83° | 91km/h | 12588m | 3.5m/s | -58.4°C | 27.4% | 186.3hPa | 2.7V | 00:00:00 | 01:01:05 | 00:00:00 | |
| OE5MMP-10 | 2026-09-01 11:30:44 | 48.30894 | 12.20823 | 85° | 93km/h | 12580m | 3.5m/s | -58.3°C | 27.7% | 186.5hPa | 2.7V | 00:00:00 | 01:01:03 | 00:00:00 | |
| OE5DXL-15 | 2026-09-01 11:30:40 | 48.30889 | 12.20682 | 88° | 89km/h | 12565m | 4.0m/s | -58.3°C | 28.7% | 186.9hPa | 2.7V | 00:00:00 | 00:00:00 | 00:00:00 | |
| OE5WHR-10 | 2026-09-01 11:30:39 | 48.30887 | 12.20647 | 87° | 89km/h | 12561m | 3.9m/s | -58.3°C | 29.1% | 187.1hPa | 2.7V | 00:00:00 | 00:00:00 | 00:00:00 | |
| OE5MMP-10 | 2026-09-01 11:30:34 | 48.30880 | 12.20472 | 87° | 86km/h | 12543m | 4.0m/s | -58.6°C | 30.0% | 187.5hPa | 2.7V | 00:00:00 | 01:00:53 | 00:00:00 | |
| DO3MHA-11 | 2026-09-01 11:30:33 | 48.30879 | 12.20439 | 87° | 86km/h | 12539m | 4.0m/s | -58.6°C | 30.2% | 187.7hPa | 2.7V | 00:00:00 | 01:00:52 | 00:00:00 | |
| OE5DRO-10 | 2026-09-01 11:30:28 | 48.30870 | 12.20246 | 85° | 89km/h | 12516m | 3.0m/s | -58.7°C | 29.9% | 188.4hPa | 2.7V | 00:00:00 | 00:00:00 | 00:00:00 | |
| OE5MMP-10 | 2026-09-01 11:30:24 | 48.30866 | 12.20145 | 88° | 91km/h | 12504m | 4.2m/s | -58.7°C | 30.1% | 188.7hPa | 2.6V | 00:00:00 | 01:00:43 | 00:00:00 | |
| DO3MHA-11 | 2026-09-01 11:30:23 | 48.30864 | 12.20111 | 88° | 91km/h | 12500m | 4.8m/s | -58.7°C | 30.8% | 188.9hPa | 2.6V | 00:00:00 | 01:00:42 | 00:00:00 | |
| OE5WHR-10 | 2026-09-01 11:30:18 | 48.30864 | 12.19936 | 91° | 93km/h | 12481m | 4.0m/s | -58.7°C | 31.6% | 189.5hPa | 2.6V | 00:00:00 | 00:00:00 | 00:00:00 | |
| OE5FHM-15 | 2026-09-01 11:30:16 | 48.30864 | 12.19867 | 88° | 93km/h | 12474m | 2.9m/s | -58.7°C | 32.6% | 189.7hPa | 2.6V | 00:00:00 | 01:00:35 | 00:00:00 | |
| OE5MMP-10 | 2026-09-01 11:30:14 | 48.30862 | 12.19799 | 89° | 91km/h | 12467m | 3.9m/s | -58.7°C | 32.3% | 189.9hPa | 2.6V | 00:00:00 | 01:00:33 | 00:00:00 | |
| DO3MHA-11 | 2026-09-01 11:30:13 | 48.30861 | 12.19765 | 88° | 91km/h | 12463m | 3.4m/s | -58.7°C | 32.1% | 190.0hPa | 2.6V | 00:00:00 | 01:00:32 | 00:00:00 | |
| OE5DXL-15 | 2026-09-01 11:30:10 | 48.30857 | 12.19663 | 88° | 93km/h | 12451m | 3.4m/s | -58.7°C | 31.7% | 190.4hPa | 2.6V | 00:00:00 | 00:00:00 | 00:00:00 | |
| DL6DJ-15 | 2026-09-01 11:30:09 | 48.30856 | 12.19596 | 88° | 89km/h | 12443m | 3.2m/s | -58.8°C | 26.2% | 190.6hPa | 2.6V | 00:00:00 | 00:00:00 | 00:00:00 | |
| OE5DRO-10 | 2026-09-01 11:30:08 | 48.30856 | 12.19595 | 89° | 95km/h | 12444m | 3.2m/s | -58.7°C | 32.3% | 190.6hPa | 2.6V | 00:00:00 | 00:00:00 | 00:00:00 | |
| OE5MMP-10 | 2026-09-01 11:30:04 | 48.30853 | 12.19454 | 89° | 97km/h | 12429m | 4.2m/s | -58.7°C | 33.1% | 191.1hPa | 2.6V | 00:00:00 | 01:00:23 | 00:00:00 | |
| OE5WHR-10 | 2026-09-01 11:29:57 | 48.30842 | 12.19197 | 87° | 91km/h | 12403m | 4.0m/s | -58.6°C | 32.0% | 191.9hPa | 2.7V | 00:00:00 | 01:00:16 | 00:00:00 | |
| OE3JTB-15 | 2026-09-01 11:29:55 | 48.30838 | 12.19125 | 86° | 89km/h | 12394m | 3.9m/s | -58.7°C | 31.8% | 192.1hPa | 2.7V | 00:00:00 | 01:00:14 | 00:00:00 | |
| OE5MMP-10 | 2026-09-01 11:29:54 | 48.30837 | 12.19090 | 86° | 91km/h | 12391m | 2.8m/s | -58.8°C | 32.2% | 192.2hPa | 2.7V | 00:00:00 | 01:00:13 | 00:00:00 | |
| DO3MHA-11 | 2026-09-01 11:29:53 | 48.30835 | 12.19054 | 87° | 89km/h | 12387m | 4.7m/s | -58.8°C | 32.5% | 192.3hPa | 2.7V | 00:00:00 | 01:00:12 | 00:00:00 | |
| OE5DRO-10 | 2026-09-01 11:29:49 | 48.30827 | 12.18917 | 83° | 89km/h | 12372m | 3.6m/s | -58.6°C | 33.2% | 192.8hPa | 2.7V | 00:00:00 | 00:00:00 | 00:00:00 | |
| OE5FHM-15 | 2026-09-01 11:29:46 | 48.30819 | 12.18816 | 83° | 89km/h | 12360m | 4.2m/s | -58.7°C | 33.7% | 193.2hPa | 2.7V | 00:00:00 | 01:00:05 | 00:00:00 | |
| PG1ADW-2 | 2026-09-01 11:29:44 | 48.30812 | 12.18749 | 83° | 89km/h | 12352m | 4.3m/s | -58.8°C | 33.8% | 193.4hPa | 2.7V | 00:00:00 | 00:00:00 | 00:00:00 | |
| DO3MHA-11 | 2026-09-01 11:29:43 | 48.30810 | 12.18716 | 84° | 89km/h | 12348m | 4.0m/s | -58.8°C | 34.0% | 193.5hPa | 2.7V | 00:00:00 | 01:00:02 | 00:00:00 | |
| OE5DXL-15 | 2026-09-01 11:29:40 | 48.30803 | 12.18615 | 85° | 88km/h | 12337m | 3.3m/s | -58.8°C | 34.1% | 193.8hPa | 2.7V | 00:00:00 | 00:00:00 | 00:00:00 | |
| DL6DJ-15 | 2026-09-01 11:29:38 | 48.30798 | 12.18513 | 84° | 88km/h | 12326m | 2.0m/s | -58.8°C | 28.4% | 194.3hPa | 2.6V | 00:00:00 | 00:00:00 | 00:00:00 | |
| OE5WHR-10 | 2026-09-01 11:29:36 | 48.30795 | 12.18480 | 84° | 88km/h | 12323m | 3.6m/s | -58.8°C | 34.8% | 194.3hPa | 2.6V | 00:00:00 | 00:00:00 | 08:30:00 | |
| OE5MMP-10 | 2026-09-01 11:29:34 | 48.30788 | 12.18414 | 79° | 89km/h | 12315m | 4.0m/s | -58.6°C | 35.2% | 194.6hPa | 2.7V | 00:00:00 | 00:59:53 | 08:30:00 | |
| DO3MHA-11 | 2026-09-01 11:29:33 | 48.30784 | 12.18381 | 79° | 89km/h | 12311m | 4.4m/s | -58.6°C | 35.2% | 194.7hPa | 2.7V | 00:00:00 | 00:59:52 | 00:00:00 | |
| OE5DRO-10 | 2026-09-01 11:29:30 | 48.30771 | 12.18281 | 78° | 88km/h | 12298m | 4.6m/s | -58.6°C | 35.2% | 195.1hPa | 2.7V | 00:00:00 | 00:00:00 | 08:30:00 | |
| OE3JTB-15 | 2026-09-01 11:29:26 | 48.30753 | 12.18146 | 80° | 88km/h | 12283m | 3.1m/s | -58.7°C | 34.8% | 195.5hPa | 2.6V | 00:00:00 | 00:00:00 | 00:00:00 | |
| OE5MMP-10 | 2026-09-01 11:29:24 | 48.30745 | 12.18080 | 80° | 86km/h | 12276m | 3.4m/s | -58.7°C | 34.6% | 195.8hPa | 2.7V | 00:00:00 | 00:59:43 | 00:00:00 | |
| DO3MHA-11 | 2026-09-01 11:29:23 | 48.30740 | 12.18048 | 80° | 86km/h | 12272m | 4.4m/s | -58.6°C | 34.4% | 195.9hPa | 2.7V | 00:00:00 | 00:59:42 | 00:00:00 | |
| OE5FHM-15 | 2026-09-01 11:29:16 | 48.30714 | 12.17822 | 81° | 86km/h | 12245m | 3.4m/s | -58.3°C | 35.4% | 196.8hPa | 2.7V | 00:00:00 | 00:59:35 | 00:00:00 | |
| OE5WHR-10 | 2026-09-01 11:29:15 | 48.30710 | 12.17790 | 81° | 86km/h | 12242m | 3.5m/s | -58.3°C | 35.5% | 196.8hPa | 2.7V | 00:00:00 | 00:00:00 | 00:00:00 | |
| OE5MMP-10 | 2026-09-01 11:29:14 | 48.30706 | 12.17758 | 80° | 88km/h | 12238m | 4.0m/s | -58.4°C | 35.7% | 197.0hPa | 2.7V | 00:00:00 | 00:59:33 | 00:00:00 | |
| DO3MHA-11 | 2026-09-01 11:29:13 | 48.30702 | 12.17725 | 80° | 88km/h | 12234m | 3.5m/s | -58.4°C | 35.9% | 197.1hPa | 2.7V | 00:00:00 | 00:59:32 | 00:00:00 | |
| OE5DRO-10 | 2026-09-01 11:29:11 | 48.30695 | 12.17661 | 82° | 86km/h | 12226m | 3.8m/s | -58.3°C | 36.4% | 197.3hPa | 2.7V | 00:00:00 | 00:00:00 | 00:00:00 | |
| OE5DXL-15 | 2026-09-01 11:29:10 | 48.30692 | 12.17628 | 82° | 84km/h | 12222m | 4.2m/s | -58.3°C | 36.5% | 197.4hPa | 2.7V | 00:00:00 | 00:00:00 | 00:00:00 | |
| DL6DJ-15 | 2026-09-01 11:29:07 | 48.30678 | 12.17497 | 80° | 86km/h | 12206m | 3.9m/s | -58.3°C | 30.8% | 198.0hPa | 2.7V | 00:00:00 | 00:00:00 | 00:00:00 | |
| DK5PH-5 | 2026-09-01 11:29:05 | 48.30674 | 12.17464 | 80° | 84km/h | 12202m | 4.3m/s | 0°C | 0% | 0hPa | 2.7V | 00:00:00 | 00:59:24 | 00:00:00 | |
| PG1ADW-2 | 2026-09-01 11:29:04 | 48.30670 | 12.17431 | 80° | 84km/h | 12198m | 3.7m/s | -58.3°C | 37.5% | 198.2hPa | 2.7V | 00:00:00 | 00:00:00 | 00:00:00 | |
| DO3MHA-11 | 2026-09-01 11:29:03 | 48.30666 | 12.17399 | 80° | 86km/h | 12193m | 5.1m/s | -58.2°C | 37.4% | 198.3hPa | 2.7V | 00:00:00 | 00:59:22 | 00:00:00 | |
| OE3JTB-15 | 2026-09-01 11:28:57 | 48.30645 | 12.17207 | 81° | 80km/h | 12169m | 3.8m/s | -58.3°C | 38.2% | 199.1hPa | 2.7V | 00:00:00 | 00:00:00 | 00:00:00 | |
| OE5WHR-10 | 2026-09-01 11:28:54 | 48.30633 | 12.17111 | 80° | 82km/h | 12156m | 3.8m/s | -58.2°C | 37.2% | 199.5hPa | 2.7V | 00:00:00 | 00:59:13 | 00:00:00 | |
| DO3MHA-11 | 2026-09-01 11:28:53 | 48.30630 | 12.17080 | 80° | 84km/h | 12152m | 4.5m/s | -58.2°C | 37.0% | 199.7hPa | 2.7V | 00:00:00 | 00:59:12 | 00:00:00 | |
| OE5DRO-10 | 2026-09-01 11:28:52 | 48.30625 | 12.17048 | 80° | 82km/h | 12148m | 3.6m/s | -58.3°C | 37.5% | 199.8hPa | 2.7V | 00:00:00 | 00:00:00 | 00:00:00 | |
| OE5FHM-15 | 2026-09-01 11:28:46 | 48.30603 | 12.16860 | 79° | 78km/h | 12123m | 4.8m/s | -57.9°C | 39.8% | 200.6hPa | 2.7V | 00:00:00 | 00:59:05 | 08:30:00 | |
| OE5MMP-10 | 2026-09-01 11:28:44 | 48.30594 | 12.16800 | 77° | 80km/h | 12115m | 4.4m/s | -57.9°C | 39.6% | 200.8hPa | 2.7V | 00:00:00 | 00:59:03 | 00:00:00 | |
| OE5DXL-15 | 2026-09-01 11:28:40 | 48.30576 | 12.16684 | 77° | 78km/h | 12099m | 3.3m/s | -57.9°C | 39.6% | 201.4hPa | 2.7V | 00:00:00 | 00:00:00 | 00:00:00 | |
| DL6DJ-15 | 2026-09-01 11:28:36 | 48.30557 | 12.16533 | 80° | 80km/h | 12078m | 3.6m/s | -57.9°C | 33.8% | 202.0hPa | 2.7V | 00:00:00 | 00:00:00 | 00:00:00 | |
| OE5MMP-10 | 2026-09-01 11:28:34 | 48.30554 | 12.16503 | 82° | 77km/h | 12074m | 4.7m/s | -57.9°C | 40.6% | 202.1hPa | 2.7V | 00:00:00 | 00:58:53 | 00:00:00 | |
| OE5WHR-10 | 2026-09-01 11:28:33 | 48.30551 | 12.16473 | 81° | 78km/h | 12070m | 3.5m/s | -58.0°C | 41.2% | 202.2hPa | 2.7V | 00:00:00 | 00:00:00 | 00:00:00 | |
| OE3JTB-15 | 2026-09-01 11:28:28 | 48.30532 | 12.16334 | 80° | 78km/h | 12050m | 3.5m/s | -57.8°C | 40.8% | 202.9hPa | 2.7V | 00:00:00 | 00:58:47 | 00:00:00 | |
| DB0UT-7 | 2026-09-01 11:28:25 | 48.30521 | 12.16247 | 80° | 78km/h | 12038m | 4.4m/s | -57.8°C | 41.2% | 203.3hPa | 2.7V | 00:00:00 | 00:58:44 | 08:30:00 | |
| OE5MMP-10 | 2026-09-01 11:28:24 | 48.30517 | 12.16218 | 81° | 78km/h | 12034m | 4.0m/s | -57.8°C | 41.8% | 203.4hPa | 2.7V | 00:00:00 | 00:58:43 | 00:00:00 | |
| DO3MHA-11 | 2026-09-01 11:28:23 | 48.30514 | 12.16188 | 81° | 78km/h | 12030m | 3.3m/s | -57.8°C | 41.7% | 203.6hPa | 2.7V | 00:00:00 | 00:58:42 | 00:00:00 | |
| OE5FHM-15 | 2026-09-01 11:28:16 | 48.30490 | 12.15980 | 80° | 82km/h | 12001m | 3.5m/s | -57.7°C | 41.5% | 204.5hPa | 2.7V | 00:00:00 | 00:58:35 | 00:00:00 | |
| DK5PH-5 | 2026-09-01 11:28:15 | 48.30487 | 12.15951 | 80° | 84km/h | 11996m | 5.0m/s | 0°C | 0% | 0hPa | 2.7V | 00:00:00 | 00:58:34 | 00:00:00 | |
| OE5MMP-10 | 2026-09-01 11:28:14 | 48.30484 | 12.15922 | 81° | 80km/h | 11992m | 3.7m/s | -57.8°C | 42.7% | 204.8hPa | 2.7V | 00:00:00 | 00:58:33 | 00:00:00 | |
| DO3MHA-11 | 2026-09-01 11:28:13 | 48.30480 | 12.15893 | 81° | 82km/h | 11988m | 3.7m/s | -57.8°C | 43.0% | 204.9hPa | 2.7V | 00:00:00 | 00:58:32 | 00:00:00 | |
| OE5WHR-10 | 2026-09-01 11:28:12 | 48.30477 | 12.15863 | 80° | 82km/h | 11984m | 4.4m/s | -57.9°C | 43.5% | 205.1hPa | 2.7V | 00:00:00 | 00:00:00 | 00:00:00 | |
| OE5DXL-15 | 2026-09-01 11:28:10 | 48.30471 | 12.15803 | 83° | 82km/h | 11977m | 4.6m/s | -57.9°C | 45.0% | 205.3hPa | 2.7V | 00:00:00 | 00:00:00 | 08:30:00 | |
| DL6DJ-15 | 2026-09-01 11:28:05 | 48.30457 | 12.15616 | 85° | 78km/h | 11953m | 3.6m/s | -57.8°C | 39.9% | 206.2hPa | 2.7V | 00:00:00 | 00:00:00 | 00:00:00 | |
| PG1ADW-2 | 2026-09-01 11:28:04 | 48.30457 | 12.15616 | 86° | 82km/h | 11954m | 3.6m/s | -57.8°C | 46.8% | 206.1hPa | 2.7V | 00:00:00 | 00:58:23 | 00:00:00 | |
| DO3MHA-11 | 2026-09-01 11:28:03 | 48.30455 | 12.15587 | 85° | 80km/h | 11950m | 3.7m/s | -57.8°C | 47.1% | 206.2hPa | 2.7V | 00:00:00 | 00:58:22 | 00:00:00 | |
| OE3JTB-15 | 2026-09-01 11:27:59 | 48.30445 | 12.15474 | 83° | 88km/h | 11934m | 4.0m/s | -57.7°C | 48.7% | 206.7hPa | 2.7V | 00:00:00 | 00:00:00 | 00:00:00 | |
| OE5DRO-10 | 2026-09-01 11:27:55 | 48.30435 | 12.15349 | 84° | 86km/h | 11918m | 4.1m/s | -57.6°C | 50.1% | 207.3hPa | 2.7V | 00:00:00 | 00:00:00 | 00:00:00 | |
| OE5MMP-10 | 2026-09-01 11:27:54 | 48.30433 | 12.15316 | 83° | 86km/h | 11914m | 4.2m/s | -57.7°C | 50.7% | 207.4hPa | 2.7V | 00:00:00 | 00:58:13 | 00:00:00 | |
| DO3MHA-11 | 2026-09-01 11:27:53 | 48.30430 | 12.15284 | 82° | 84km/h | 11909m | 4.9m/s | -57.7°C | 50.8% | 207.5hPa | 2.7V | 00:00:00 | 00:58:12 | 00:00:00 | |
| OE5WHR-10 | 2026-09-01 11:27:51 | 48.30424 | 12.15220 | 83° | 89km/h | 11901m | 4.0m/s | -57.7°C | 51.5% | 207.8hPa | 2.7V | 00:00:00 | 00:58:10 | 00:00:00 | |
| OE5FHM-15 | 2026-09-01 11:27:46 | 48.30415 | 12.15059 | 85° | 91km/h | 11880m | 4.6m/s | -57.8°C | 52.3% | 208.5hPa | 2.7V | 00:00:00 | 00:58:05 | 00:00:00 | |
| PG1ADW-2 | 2026-09-01 11:27:44 | 48.30410 | 12.14996 | 85° | 93km/h | 11871m | 4.3m/s | -57.7°C | 53.0% | 208.8hPa | 2.7V | 00:00:00 | 00:00:00 | 00:00:00 | |
| DO3MHA-11 | 2026-09-01 11:27:43 | 48.30409 | 12.14964 | 86° | 91km/h | 11866m | 5.4m/s | -57.8°C | 54.2% | 208.9hPa | 2.7V | 00:00:00 | 00:58:02 | 00:00:00 | |
| OE5DXL-15 | 2026-09-01 11:27:40 | 48.30405 | 12.14864 | 88° | 93km/h | 11855m | 4.9m/s | -57.7°C | 53.8% | 209.3hPa | 2.7V | 00:00:00 | 00:00:00 | 00:00:00 | |
| OE5MMP-10 | 2026-09-01 11:27:34 | 48.30402 | 12.14649 | 89° | 95km/h | 11831m | 3.9m/s | -57.7°C | 54.0% | 210.1hPa | 2.7V | 00:00:00 | 00:57:53 | 00:00:00 | |
| DO3MHA-11 | 2026-09-01 11:27:33 | 48.30401 | 12.14614 | 88° | 95km/h | 11827m | 3.8m/s | -57.7°C | 53.8% | 210.3hPa | 2.7V | 00:00:00 | 00:57:52 | 00:00:00 | |
| OE5WHR-10 | 2026-09-01 11:27:30 | 48.30399 | 12.14508 | 88° | 93km/h | 11815m | 4.1m/s | -57.7°C | 53.8% | 210.6hPa | 2.6V | 00:00:00 | 00:00:00 | 00:00:00 | |
| OE5MMP-10 | 2026-09-01 11:27:24 | 48.30387 | 12.14289 | 85° | 91km/h | 11790m | 5.1m/s | -57.6°C | 52.7% | 211.5hPa | 2.7V | 00:00:00 | 00:57:43 | 00:00:00 | |
| DO3MHA-11 | 2026-09-01 11:27:23 | 48.30385 | 12.14254 | 84° | 91km/h | 11785m | 3.6m/s | -57.5°C | 53.2% | 211.6hPa | 2.7V | 00:00:00 | 00:57:42 | 00:00:00 | |
| OE5FHM-15 | 2026-09-01 11:27:16 | 48.30368 | 12.14016 | 84° | 89km/h | 11758m | 4.6m/s | -57.5°C | 53.7% | 212.5hPa | 2.7V | 00:00:00 | 00:57:35 | 00:00:00 | |
| OE5MMP-10 | 2026-09-01 11:27:14 | 48.30363 | 12.13946 | 84° | 91km/h | 11749m | 4.9m/s | -57.6°C | 54.1% | 212.8hPa | 2.7V | 00:00:00 | 00:57:33 | 00:00:00 | |
| DO3MHA-11 | 2026-09-01 11:27:13 | 48.30360 | 12.13910 | 83° | 91km/h | 11745m | 4.1m/s | -57.5°C | 54.3% | 213.0hPa | 2.7V | 00:00:00 | 00:57:32 | 00:00:00 | |
| OE5DXL-15 | 2026-09-01 11:27:10 | 48.30351 | 12.13803 | 83° | 89km/h | 11732m | 3.4m/s | -57.5°C | 54.9% | 213.4hPa | 2.7V | 00:00:00 | 00:00:00 | 00:00:00 | |
| OE5WHR-10 | 2026-09-01 11:27:09 | 48.30347 | 12.13768 | 83° | 89km/h | 11728m | 4.5m/s | -57.6°C | 55.6% | 213.6hPa | 2.7V | 00:00:00 | 00:00:00 | 00:00:00 | |
| OE5MMP-10 | 2026-09-01 11:27:04 | 48.30327 | 12.13605 | 80° | 88km/h | 11707m | 3.8m/s | -57.4°C | 56.5% | 214.3hPa | 2.7V | 00:00:00 | 00:57:23 | 00:00:00 | |
| DO3MHA-11 | 2026-09-01 11:27:03 | 48.30323 | 12.13574 | 80° | 88km/h | 11703m | 3.5m/s | -57.4°C | 56.1% | 214.4hPa | 2.7V | 00:00:00 | 00:57:22 | 08:30:00 | |
| DL6DJ-15 | 2026-09-01 11:27:02 | 48.30319 | 12.13542 | 78° | 84km/h | 11699m | 4.4m/s | -57.5°C | 48.4% | 214.6hPa | 2.7V | 00:00:00 | 00:00:00 | 00:00:00 | |
| OE3JTB-15 | 2026-09-01 11:27:01 | 48.30314 | 12.13510 | 77° | 91km/h | 11695m | 3.7m/s | -57.4°C | 55.7% | 214.7hPa | 2.7V | 00:00:00 | 00:57:20 | 00:00:00 | |
| OE5MMP-10 | 2026-09-01 11:26:54 | 48.30284 | 12.13277 | 83° | 91km/h | 11667m | 4.2m/s | -57.4°C | 53.0% | 215.6hPa | 2.7V | 00:00:00 | 00:57:13 | 00:00:00 | |
| DO3MHA-11 | 2026-09-01 11:26:53 | 48.30282 | 12.13243 | 86° | 91km/h | 11663m | 4.8m/s | -57.3°C | 53.3% | 215.8hPa | 2.7V | 00:00:00 | 00:57:12 | 00:00:00 | |
| OE5WHR-10 | 2026-09-01 11:26:48 | 48.30272 | 12.13071 | 83° | 93km/h | 11643m | 3.8m/s | -57.1°C | 55.6% | 216.5hPa | 2.7V | 00:00:00 | 00:57:07 | 00:00:00 | |
| OE5FHM-15 | 2026-09-01 11:26:46 | 48.30266 | 12.13003 | 81° | 93km/h | 11635m | 4.2m/s | -57.0°C | 55.4% | 216.8hPa | 2.7V | 00:00:00 | 00:57:05 | 00:00:00 | |
| OE5MMP-10 | 2026-09-01 11:26:44 | 48.30258 | 12.12934 | 81° | 93km/h | 11626m | 3.6m/s | -56.9°C | 55.2% | 217.0hPa | 2.7V | 00:00:00 | 00:57:03 | 00:00:00 | |
| DO3MHA-11 | 2026-09-01 11:26:43 | 48.30254 | 12.12899 | 81° | 93km/h | 11622m | 4.7m/s | -56.9°C | 55.1% | 217.2hPa | 2.7V | 00:00:00 | 00:57:02 | 00:00:00 | |
| DB0UT-7 | 2026-09-01 11:26:42 | 48.30250 | 12.12864 | 81° | 93km/h | 11618m | 3.4m/s | -56.9°C | 55.9% | 217.4hPa | 2.7V | 00:00:00 | 00:57:01 | 00:00:00 | |
| OE5DXL-15 | 2026-09-01 11:26:40 | 48.30243 | 12.12795 | 83° | 93km/h | 11611m | 4.3m/s | -56.9°C | 56.7% | 217.5hPa | 2.7V | 00:00:00 | 00:00:00 | 00:00:00 | |
| OE5MMP-10 | 2026-09-01 11:26:34 | 48.30230 | 12.12585 | 85° | 93km/h | 11588m | 3.0m/s | -56.8°C | 57.2% | 218.3hPa | 2.7V | 00:00:00 | 00:56:53 | 08:30:00 | |
| DO3MHA-11 | 2026-09-01 11:26:33 | 48.30228 | 12.12549 | 85° | 93km/h | 11584m | 5.1m/s | -56.7°C | 57.2% | 218.5hPa | 2.7V | 00:00:00 | 00:56:52 | 00:00:00 | |
| OE3JTB-15 | 2026-09-01 11:26:32 | 48.30225 | 12.12513 | 85° | 93km/h | 11579m | 4.7m/s | -56.6°C | 57.4% | 218.6hPa | 2.7V | 00:00:00 | 00:00:00 | 08:30:00 | |
| DL6DJ-15 | 2026-09-01 11:26:31 | 48.30223 | 12.12478 | 83° | 91km/h | 11575m | 2.6m/s | -56.6°C | 49.6% | 218.8hPa | 2.7V | 00:00:00 | 00:00:00 | 00:00:00 | |
| OE5WHR-10 | 2026-09-01 11:26:27 | 48.30210 | 12.12336 | 82° | 91km/h | 11560m | 4.0m/s | -56.5°C | 55.2% | 219.3hPa | 2.7V | 00:00:00 | 00:00:00 | 08:30:00 | |
| OE5MMP-10 | 2026-09-01 11:26:24 | 48.30199 | 12.12233 | 82° | 93km/h | 11549m | 4.2m/s | -56.4°C | 54.5% | 219.7hPa | 2.7V | 00:00:00 | 00:56:43 | 00:00:00 | |
| DO3MHA-11 | 2026-09-01 11:26:23 | 48.30196 | 12.12199 | 82° | 91km/h | 11545m | 4.0m/s | -56.4°C | 55.0% | 219.8hPa | 2.7V | 00:00:00 | 00:56:42 | 00:00:00 | |
| OE5FHM-15 | 2026-09-01 11:26:16 | 48.30173 | 12.11955 | 82° | 91km/h | 11519m | 4.2m/s | -56.2°C | 58.5% | 220.7hPa | 2.7V | 00:00:00 | 00:56:35 | 00:00:00 | |
| OE5MMP-10 | 2026-09-01 11:26:14 | 48.30167 | 12.11887 | 82° | 91km/h | 11511m | 2.8m/s | -56.1°C | 58.6% | 221.0hPa | 2.7V | 00:00:00 | 00:56:33 | 00:00:00 | |
| DO3MHA-11 | 2026-09-01 11:26:13 | 48.30163 | 12.11853 | 82° | 91km/h | 11508m | 4.3m/s | -56.1°C | 58.3% | 221.1hPa | 2.7V | 00:00:00 | 00:56:32 | 00:00:00 | |
| DB0UT-7 | 2026-09-01 11:26:12 | 48.30160 | 12.11820 | 81° | 93km/h | 11504m | 3.6m/s | -56.0°C | 58.0% | 221.3hPa | 2.7V | 00:00:00 | 00:00:00 | 00:00:00 | |
| OE5DXL-15 | 2026-09-01 11:26:10 | 48.30152 | 12.11753 | 81° | 89km/h | 11496m | 4.4m/s | -55.9°C | 56.2% | 221.5hPa | 2.7V | 00:00:00 | 00:00:00 | 00:00:00 | |
| DH7VM-15 | 2026-09-01 11:26:08 | 48.30149 | 12.11719 | 82° | 89km/h | 11492m | 3.2m/s | 0°C | 0% | 0hPa | 2.7V | 00:00:00 | 00:00:00 | 00:00:00 | |
| OE5WHR-10 | 2026-09-01 11:26:06 | 48.30138 | 12.11615 | 83° | 91km/h | 11480m | 4.6m/s | -55.9°C | 55.4% | 222.0hPa | 2.7V | 00:00:00 | 00:00:00 | 00:00:00 | |
| OE5MMP-10 | 2026-09-01 11:26:04 | 48.30133 | 12.11545 | 85° | 91km/h | 11472m | 4.2m/s | -55.7°C | 56.0% | 222.3hPa | 2.7V | 00:00:00 | 00:56:23 | 00:00:00 | |
| DO3MHA-11 | 2026-09-01 11:26:03 | 48.30130 | 12.11508 | 85° | 89km/h | 11468m | 4.0m/s | -55.6°C | 56.5% | 222.5hPa | 2.7V | 00:00:00 | 00:56:22 | 00:00:00 | |
| DL6DJ-15 | 2026-09-01 11:26:00 | 48.30123 | 12.11403 | 83° | 89km/h | 11458m | 3.6m/s | -55.7°C | 50.3% | 222.9hPa | 2.7V | 00:00:00 | 00:00:00 | 00:00:00 | |
| OE5MMP-10 | 2026-09-01 11:25:54 | 48.30102 | 12.11206 | 81° | 91km/h | 11435m | 4.5m/s | -55.4°C | 58.8% | 223.6hPa | 2.7V | 00:00:00 | 00:56:13 | 00:00:00 | |
| DO3MHA-11 | 2026-09-01 11:25:53 | 48.30098 | 12.11172 | 81° | 93km/h | 11432m | 3.2m/s | -55.3°C | 58.8% | 223.8hPa | 2.7V | 00:00:00 | 00:56:12 | 00:00:00 | |
| OE5FHM-15 | 2026-09-01 11:25:46 | 48.30075 | 12.10930 | 82° | 89km/h | 11406m | 4.5m/s | -55.2°C | 60.3% | 224.7hPa | 2.7V | 00:00:00 | 00:56:05 | 00:00:00 | |
| OE5WHR-10 | 2026-09-01 11:25:45 | 48.30072 | 12.10897 | 82° | 88km/h | 11402m | 2.9m/s | -55.2°C | 60.7% | 224.8hPa | 2.7V | 00:00:00 | 00:56:04 | 00:00:00 | |
| OE5MMP-10 | 2026-09-01 11:25:44 | 48.30069 | 12.10865 | 81° | 88km/h | 11399m | 4.3m/s | -55.2°C | 60.3% | 224.9hPa | 2.7V | 00:00:00 | 00:56:03 | 00:00:00 | |
| DO3MHA-11 | 2026-09-01 11:25:43 | 48.30065 | 12.10833 | 80° | 89km/h | 11395m | 3.4m/s | -55.2°C | 60.8% | 225.1hPa | 2.7V | 00:00:00 | 00:56:02 | 00:00:00 | |
| OE5DXL-15 | 2026-09-01 11:25:40 | 48.30054 | 12.10737 | 82° | 89km/h | 11385m | 3.1m/s | -55.1°C | 60.6% | 225.5hPa | 2.7V | 00:00:00 | 00:00:00 | 00:00:00 | |
| OE3JTB-15 | 2026-09-01 11:25:34 | 48.30033 | 12.10534 | 82° | 89km/h | 11362m | 4.6m/s | -54.9°C | 60.2% | 226.2hPa | 2.7V | 00:00:00 | 00:55:53 | 00:00:00 | |
| DO3MHA-11 | 2026-09-01 11:25:31 | 48.30023 | 12.10431 | 82° | 88km/h | 11350m | 4.2m/s | -54.7°C | 60.5% | 226.7hPa | 2.7V | 00:00:00 | 00:55:50 | 08:30:00 | |
| DL6DJ-15 | 2026-09-01 11:25:29 | 48.30016 | 12.10365 | 80° | 86km/h | 11342m | 4.6m/s | -54.7°C | 53.1% | 227.0hPa | 2.7V | 00:00:00 | 00:00:00 | 00:00:00 | |
| OE5MMP-10 | 2026-09-01 11:25:24 | 48.29998 | 12.10206 | 81° | 89km/h | 11323m | 3.5m/s | -54.5°C | 57.7% | 227.6hPa | 2.7V | 00:00:00 | 00:55:43 | 00:00:00 | |
| DO3MHA-11 | 2026-09-01 11:25:21 | 48.29988 | 12.10104 | 82° | 89km/h | 11311m | 4.0m/s | -54.4°C | 57.7% | 228.0hPa | 2.7V | 00:00:00 | 00:55:40 | 00:00:00 | |
| OE5FHM-15 | 2026-09-01 11:25:16 | 48.29970 | 12.09932 | 82° | 91km/h | 11293m | 3.8m/s | -54.1°C | 58.4% | 228.8hPa | 2.7V | 00:00:00 | 00:55:35 | 00:00:00 | |
| OE5MMP-10 | 2026-09-01 11:25:14 | 48.29963 | 12.09868 | 82° | 93km/h | 11285m | 3.4m/s | -54.1°C | 60.0% | 229.0hPa | 2.7V | 00:00:00 | 00:55:33 | 00:00:00 | |
| DO3MHA-11 | 2026-09-01 11:25:11 | 48.29954 | 12.09768 | 83° | 93km/h | 11274m | 3.8m/s | -54.0°C | 62.6% | 229.4hPa | 2.7V | 00:00:00 | 00:55:30 | 00:00:00 | |
| OE5DXL-15 | 2026-09-01 11:25:10 | 48.29951 | 12.09733 | 82° | 91km/h | 11270m | 4.2m/s | -53.9°C | 62.5% | 229.5hPa | 2.7V | 00:00:00 | 00:00:00 | 00:00:00 | |
| OE3JTB-15 | 2026-09-01 11:25:05 | 48.29934 | 12.09554 | 84° | 88km/h | 11252m | 3.2m/s | -53.9°C | 60.8% | 230.2hPa | 2.7V | 00:00:00 | 00:00:00 | 00:00:00 | |
| OE5MMP-10 | 2026-09-01 11:25:04 | 48.29931 | 12.09520 | 83° | 88km/h | 11248m | 4.1m/s | -53.8°C | 59.8% | 230.3hPa | 2.7V | 00:00:00 | 00:55:23 | 08:30:00 | |
| OE5WHR-10 | 2026-09-01 11:25:03 | 48.29928 | 12.09486 | 82° | 91km/h | 11245m | 3.2m/s | -53.8°C | 59.4% | 230.4hPa | 2.7V | 00:00:00 | 00:00:00 | 00:00:00 | |
| DL6DJ-15 | 2026-09-01 11:24:58 | 48.29913 | 12.09323 | 81° | 86km/h | 11226m | 3.2m/s | -53.7°C | 53.6% | 231.2hPa | 2.7V | 00:00:00 | 00:00:00 | 00:00:00 | |
| OE5MMP-10 | 2026-09-01 11:24:54 | 48.29901 | 12.09189 | 83° | 93km/h | 11212m | 4.0m/s | -53.4°C | 61.4% | 231.6hPa | 2.7V | 00:00:00 | 00:55:13 | 00:00:00 | |
| DO3MHA-11 | 2026-09-01 11:24:51 | 48.29891 | 12.09084 | 82° | 91km/h | 11201m | 3.7m/s | -53.4°C | 60.7% | 232.1hPa | 2.7V | 00:00:00 | 00:55:10 | 00:00:00 | |
| DB0UT-7 | 2026-09-01 11:24:46 | 48.29874 | 12.08907 | 82° | 95km/h | 11180m | 5.2m/s | -53.3°C | 58.6% | 232.8hPa | 2.7V | 00:00:00 | 00:55:05 | 00:00:00 | |
| OE5MMP-10 | 2026-09-01 11:24:44 | 48.29867 | 12.08838 | 82° | 91km/h | 11172m | 3.4m/s | -53.2°C | 59.4% | 233.1hPa | 2.7V | 00:00:00 | 00:55:03 | 00:00:00 | |
| OE5WHR-10 | 2026-09-01 11:24:42 | 48.29860 | 12.08773 | 82° | 93km/h | 11164m | 2.5m/s | -53.2°C | 60.4% | 233.4hPa | 2.7V | 00:00:00 | 00:55:01 | 00:00:00 | |
| DO3MHA-11 | 2026-09-01 11:24:41 | 48.29857 | 12.08740 | 83° | 93km/h | 11161m | 3.2m/s | -53.1°C | 60.6% | 233.5hPa | 2.7V | 00:00:00 | 00:55:00 | 00:00:00 | |
| OE5DXL-15 | 2026-09-01 11:24:40 | 48.29854 | 12.08707 | 84° | 95km/h | 11158m | 4.3m/s | -53.1°C | 60.8% | 233.6hPa | 2.7V | 00:00:00 | 00:00:00 | 00:00:00 | |
| OE3JTB-15 | 2026-09-01 11:24:36 | 48.29845 | 12.08568 | 84° | 91km/h | 11143m | 3.6m/s | -52.9°C | 60.4% | 234.1hPa | 2.7V | 00:00:00 | 00:00:00 | 00:00:00 | |
| OE5MMP-10 | 2026-09-01 11:24:34 | 48.29838 | 12.08495 | 83° | 95km/h | 11135m | 3.8m/s | -53.0°C | 60.8% | 234.4hPa | 2.7V | 00:00:00 | 00:54:53 | 00:00:00 | |
| DO3MHA-11 | 2026-09-01 11:24:31 | 48.29827 | 12.08386 | 80° | 95km/h | 11123m | 3.3m/s | -52.9°C | 62.0% | 234.8hPa | 2.7V | 00:00:00 | 00:54:50 | 00:00:00 | |
| DL6DJ-15 | 2026-09-01 11:24:27 | 48.29809 | 12.08211 | 82° | 95km/h | 11107m | 3.3m/s | -52.8°C | 54.1% | 235.4hPa | 2.7V | 00:00:00 | 00:00:00 | 00:00:00 | |
| OE5MMP-10 | 2026-09-01 11:24:24 | 48.29802 | 12.08139 | 82° | 93km/h | 11100m | 3.4m/s | -52.7°C | 59.2% | 235.7hPa | 2.7V | 00:00:00 | 00:54:43 | 00:00:00 | |
| OE5DRO-10 | 2026-09-01 11:24:23 | 48.29799 | 12.08103 | 83° | 93km/h | 11096m | 4.6m/s | -52.7°C | 59.5% | 235.8hPa | 2.7V | 00:00:00 | 00:00:00 | 00:00:00 | |
| DO3MHA-11 | 2026-09-01 11:24:21 | 48.29792 | 12.08031 | 82° | 93km/h | 11089m | 3.6m/s | -52.5°C | 59.7% | 236.2hPa | 2.7V | 00:00:00 | 00:54:40 | 00:00:00 | |
| OE5FHM-15 | 2026-09-01 11:24:16 | 48.29771 | 12.07858 | 80° | 91km/h | 11069m | 4.5m/s | -52.4°C | 60.1% | 236.8hPa | 2.7V | 00:00:00 | 00:54:35 | 08:30:00 | |
| DB0UT-7 | 2026-09-01 11:24:15 | 48.29767 | 12.07824 | 80° | 82km/h | 11065m | 3.6m/s | -52.3°C | 60.2% | 237.0hPa | 2.7V | 00:00:00 | 00:00:00 | 00:00:00 | |
| OE5MMP-10 | 2026-09-01 11:24:14 | 48.29763 | 12.07789 | 81° | 93km/h | 11061m | 4.3m/s | -52.3°C | 60.1% | 237.1hPa | 2.7V | 00:00:00 | 00:54:33 | 00:00:00 | |
| DO3MHA-11 | 2026-09-01 11:24:11 | 48.29752 | 12.07684 | 81° | 93km/h | 11050m | 3.8m/s | -52.2°C | 60.9% | 237.5hPa | 2.7V | 00:00:00 | 00:54:30 | 00:00:00 | |
| OE5DXL-15 | 2026-09-01 11:24:10 | 48.29748 | 12.07648 | 81° | 91km/h | 11047m | 3.1m/s | -52.1°C | 60.9% | 237.7hPa | 2.7V | 00:00:00 | 00:00:00 | 00:00:00 | |
| OE5MMP-10 | 2026-09-01 11:24:04 | 48.29726 | 12.07440 | 79° | 91km/h | 11024m | 3.5m/s | -52.0°C | 59.1% | 238.5hPa | 2.7V | 00:00:00 | 00:54:23 | 00:00:00 | |
| DL6DJ-15 | 2026-09-01 11:23:56 | 48.29690 | 12.07132 | 80° | 91km/h | 10990m | 4.1m/s | -51.7°C | 51.8% | 239.8hPa | 2.7V | 00:00:00 | 00:00:00 | 00:00:00 | |
| OE5MMP-10 | 2026-09-01 11:23:54 | 48.29686 | 12.07097 | 79° | 88km/h | 10986m | 4.0m/s | -51.6°C | 58.3% | 239.9hPa | 2.7V | 00:00:00 | 00:54:13 | 00:00:00 | |
| DO3MHA-11 | 2026-09-01 11:23:51 | 48.29673 | 12.07000 | 80° | 88km/h | 10976m | 4.1m/s | -51.6°C | 57.2% | 240.3hPa | 2.7V | 00:00:00 | 00:54:10 | 00:00:00 | |
| OE5FHM-15 | 2026-09-01 11:23:46 | 48.29653 | 12.06838 | 81° | 89km/h | 10957m | 4.1m/s | -51.4°C | 58.9% | 241.0hPa | 2.7V | 00:00:00 | 00:54:05 | 00:00:00 | |
| OE5DRO-10 | 2026-09-01 11:23:45 | 48.29650 | 12.06804 | 82° | 89km/h | 10953m | 3.1m/s | -51.4°C | 58.8% | 241.1hPa | 2.7V | 00:00:00 | 00:00:00 | 00:00:00 | |
| OE5MMP-10 | 2026-09-01 11:23:44 | 48.29646 | 12.06771 | 81° | 91km/h | 10950m | 4.0m/s | -51.4°C | 58.5% | 241.3hPa | 2.7V | 00:00:00 | 00:54:03 | 00:00:00 | |
| DO3MHA-11 | 2026-09-01 11:23:41 | 48.29636 | 12.06669 | 82° | 91km/h | 10939m | 3.9m/s | -51.4°C | 59.0% | 241.6hPa | 2.7V | 00:00:00 | 00:54:00 | 00:00:00 | |
| OE5DXL-15 | 2026-09-01 11:23:40 | 48.29632 | 12.06635 | 83° | 89km/h | 10935m | 3.4m/s | -51.2°C | 58.7% | 241.8hPa | 2.7V | 00:00:00 | 00:00:00 | 08:30:00 | |
| OE5WHR-10 | 2026-09-01 11:23:39 | 48.29629 | 12.06600 | 82° | 89km/h | 10931m | 4.7m/s | -51.2°C | 58.9% | 242.0hPa | 2.7V | 00:00:00 | 00:53:58 | 00:00:00 | |
| OE5MMP-10 | 2026-09-01 11:23:34 | 48.29611 | 12.06426 | 80° | 88km/h | 10912m | 4.4m/s | -51.2°C | 61.7% | 242.6hPa | 2.7V | 00:00:00 | 00:53:53 | 08:30:00 | |
| DO3MHA-11 | 2026-09-01 11:23:31 | 48.29599 | 12.06328 | 81° | 88km/h | 10901m | 4.3m/s | -51.1°C | 63.6% | 243.0hPa | 2.7V | 00:00:00 | 00:53:50 | 00:00:00 | |
| DH7VM-15 | 2026-09-01 11:23:28 | 48.29592 | 12.06262 | 81° | 88km/h | 10894m | 4.2m/s | 0°C | 0% | 0hPa | 2.7V | 00:00:00 | 00:00:00 | 00:00:00 | |
| OE5DRO-10 | 2026-09-01 11:23:26 | 48.29581 | 12.06163 | 82° | 88km/h | 10882m | 3.6m/s | -51.1°C | 69.0% | 243.7hPa | 2.7V | 00:00:00 | 00:00:00 | 00:00:00 | |
| DL6DJ-15 | 2026-09-01 11:23:25 | 48.29575 | 12.06097 | 80° | 88km/h | 10874m | 4.4m/s | -51.1°C | 63.4% | 244.0hPa | 2.7V | 00:00:00 | 00:00:00 | 00:00:00 | |
| OE5MMP-10 | 2026-09-01 11:23:24 | 48.29575 | 12.06097 | 81° | 89km/h | 10875m | 4.4m/s | -51.0°C | 70.0% | 244.0hPa | 2.7V | 00:00:00 | 00:53:43 | 00:00:00 | |
| DO3MHA-11 | 2026-09-01 11:23:21 | 48.29563 | 12.05997 | 82° | 88km/h | 10862m | 3.8m/s | -50.9°C | 69.2% | 244.4hPa | 2.7V | 00:00:00 | 00:53:40 | 00:00:00 | |
| OE5WHR-10 | 2026-09-01 11:23:18 | 48.29553 | 12.05895 | 82° | 88km/h | 10851m | 2.9m/s | -50.8°C | 69.3% | 244.9hPa | 2.7V | 00:00:00 | 00:00:00 | 08:30:00 | |
| OE5FHM-15 | 2026-09-01 11:23:16 | 48.29547 | 12.05827 | 83° | 86km/h | 10844m | 2.8m/s | -50.7°C | 69.0% | 245.2hPa | 2.7V | 00:00:00 | 00:53:35 | 00:00:00 | |
| OE5MMP-10 | 2026-09-01 11:23:14 | 48.29540 | 12.05762 | 81° | 88km/h | 10836m | 3.6m/s | -50.7°C | 69.9% | 245.5hPa | 2.7V | 00:00:00 | 00:53:33 | 00:00:00 | |
| DO3MHA-11 | 2026-09-01 11:23:11 | 48.29528 | 12.05670 | 78° | 89km/h | 10825m | 3.1m/s | -50.5°C | 70.6% | 245.9hPa | 2.7V | 00:00:00 | 00:53:30 | 00:00:00 | |
| OE5DXL-15 | 2026-09-01 11:23:10 | 48.29523 | 12.05639 | 77° | 88km/h | 10822m | 3.9m/s | -50.5°C | 70.4% | 246.0hPa | 2.7V | 00:00:00 | 00:00:00 | 00:00:00 | |
| OE5DRO-10 | 2026-09-01 11:23:07 | 48.29509 | 12.05539 | 81° | 88km/h | 10811m | 3.9m/s | -50.5°C | 68.2% | 246.5hPa | 2.7V | 00:00:00 | 00:00:00 | 00:00:00 | |
| OE5MMP-10 | 2026-09-01 11:23:04 | 48.29499 | 12.05437 | 81° | 84km/h | 10799m | 4.9m/s | -50.3°C | 69.0% | 246.9hPa | 2.7V | 00:00:00 | 00:53:23 | 00:00:00 | |
| DL6DJ-15 | 2026-09-01 11:22:54 | 48.29449 | 12.05091 | 79° | 89km/h | 10757m | 4.0m/s | -50.0°C | 62.0% | 248.5hPa | 2.7V | 00:00:00 | 00:00:00 | 00:00:00 | |
| DO3MHA-11 | 2026-09-01 11:22:51 | 48.29441 | 12.05024 | 81° | 89km/h | 10749m | 4.9m/s | -49.9°C | 68.1% | 248.8hPa | 2.7V | 00:00:00 | 00:53:10 | 00:00:00 | |
| OE5DRO-10 | 2026-09-01 11:22:48 | 48.29429 | 12.04924 | 80° | 89km/h | 10737m | 3.2m/s | -49.7°C | 67.6% | 249.3hPa | 2.7V | 00:00:00 | 00:00:00 | 00:00:00 | |
| OE5FHM-15 | 2026-09-01 11:22:46 | 48.29421 | 12.04857 | 82° | 88km/h | 10728m | 3.6m/s | -49.8°C | 67.4% | 249.6hPa | 2.7V | 00:00:00 | 00:53:05 | 00:00:00 | |
| OE5MMP-10 | 2026-09-01 11:22:44 | 48.29414 | 12.04790 | 81° | 89km/h | 10720m | 4.3m/s | -49.6°C | 66.9% | 249.9hPa | 2.7V | 00:00:00 | 00:53:03 | 00:00:00 | |
| DO3MHA-11 | 2026-09-01 11:22:41 | 48.29403 | 12.04690 | 80° | 88km/h | 10708m | 3.2m/s | -49.6°C | 66.5% | 250.3hPa | 2.7V | 00:00:00 | 00:53:00 | 00:00:00 | |
| OE5DXL-15 | 2026-09-01 11:22:40 | 48.29398 | 12.04656 | 79° | 88km/h | 10704m | 5.1m/s | -49.6°C | 66.5% | 250.5hPa | 2.7V | 00:00:00 | 00:00:00 | 00:00:00 | |
| OE5WHR-10 | 2026-09-01 11:22:36 | 48.29380 | 12.04525 | 80° | 88km/h | 10688m | 3.7m/s | -49.3°C | 66.1% | 251.2hPa | 2.7V | 00:00:00 | 00:52:55 | 00:00:00 | |
| OE5MMP-10 | 2026-09-01 11:22:34 | 48.29372 | 12.04458 | 81° | 88km/h | 10680m | 2.9m/s | -49.2°C | 65.3% | 251.4hPa | 2.7V | 00:00:00 | 00:52:53 | 00:00:00 | |
| DO3MHA-11 | 2026-09-01 11:22:31 | 48.29363 | 12.04361 | 83° | 88km/h | 10669m | 3.1m/s | -49.2°C | 64.9% | 251.8hPa | 2.7V | 00:00:00 | 00:52:50 | 08:30:00 | |
| OE5DRO-10 | 2026-09-01 11:22:29 | 48.29357 | 12.04296 | 82° | 88km/h | 10662m | 3.3m/s | -49.1°C | 65.3% | 252.1hPa | 2.7V | 00:00:00 | 00:00:00 | 00:00:00 | |
| OE5MMP-10 | 2026-09-01 11:22:24 | 48.29338 | 12.04134 | 78° | 88km/h | 10642m | 3.4m/s | -48.9°C | 63.7% | 252.8hPa | 2.7V | 00:00:00 | 00:52:43 | 00:00:00 | |
| DL6DJ-15 | 2026-09-01 11:22:23 | 48.29329 | 12.04067 | 78° | 89km/h | 10634m | 3.1m/s | -48.9°C | 57.4% | 253.2hPa | 2.7V | 00:00:00 | 00:00:00 | 00:00:00 | |
| DO3MHA-11 | 2026-09-01 11:22:21 | 48.29324 | 12.04033 | 80° | 88km/h | 10631m | 4.0m/s | -48.9°C | 63.1% | 253.3hPa | 2.7V | 00:00:00 | 00:52:40 | 00:00:00 | |
| OE5FHM-15 | 2026-09-01 11:22:16 | 48.29306 | 12.03869 | 84° | 88km/h | 10613m | 4.0m/s | -48.7°C | 59.1% | 254.0hPa | 2.7V | 00:00:00 | 00:52:35 | 00:00:00 | |
| OE5WHR-10 | 2026-09-01 11:22:15 | 48.29303 | 12.03837 | 85° | 88km/h | 10609m | 4.0m/s | -48.7°C | 59.2% | 254.2hPa | 2.7V | 00:00:00 | 00:00:00 | 00:00:00 | |
| OE5MMP-10 | 2026-09-01 11:22:14 | 48.29301 | 12.03805 | 85° | 89km/h | 10605m | 2.7m/s | -48.6°C | 59.0% | 254.3hPa | 2.7V | 00:00:00 | 00:52:33 | 00:00:00 | |
| DO3MHA-11 | 2026-09-01 11:22:11 | 48.29293 | 12.03708 | 81° | 91km/h | 10594m | 3.6m/s | -48.5°C | 57.7% | 254.7hPa | 2.7V | 00:00:00 | 00:52:30 | 00:00:00 | |
| OE5DXL-15 | 2026-09-01 11:22:10 | 48.29289 | 12.03675 | 80° | 88km/h | 10590m | 4.6m/s | -48.5°C | 57.5% | 254.9hPa | 2.7V | 00:00:00 | 00:00:00 | 00:00:00 | |
| DH7VM-15 | 2026-09-01 11:22:06 | 48.29275 | 12.03571 | 79° | 91km/h | 10578m | 3.8m/s | 0°C | 0% | 0hPa | 2.7V | 00:00:00 | 00:00:00 | 00:00:00 | |
| OE5MMP-10 | 2026-09-01 11:22:04 | 48.29262 | 12.03470 | 81° | 88km/h | 10568m | 3.2m/s | -48.2°C | 56.4% | 255.8hPa | 2.7V | 00:00:00 | 00:52:23 | 08:30:00 | |
| DL6DJ-15 | 2026-09-01 11:21:52 | 48.29213 | 12.03046 | 79° | 88km/h | 10516m | 3.4m/s | -47.8°C | 39.6% | 257.9hPa | 2.7V | 00:00:00 | 00:00:00 | 00:00:00 | |
| DO3MHA-11 | 2026-09-01 11:21:51 | 48.29213 | 12.03046 | 80° | 88km/h | 10516m | 3.4m/s | -47.8°C | 44.3% | 257.8hPa | 2.7V | 00:00:00 | 00:52:10 | 00:00:00 | |
| OE5FHM-15 | 2026-09-01 11:21:46 | 48.29192 | 12.02882 | 79° | 88km/h | 10498m | 3.8m/s | -47.7°C | 42.5% | 258.5hPa | 2.7V | 00:00:00 | 00:52:05 | 00:00:00 | |
| PG1ADW-2 | 2026-09-01 11:21:44 | 48.29183 | 12.02814 | 80° | 88km/h | 10491m | 4.0m/s | -47.6°C | 41.0% | 258.8hPa | 2.7V | 00:00:00 | 00:00:00 | 00:00:00 | |
| DO3MHA-11 | 2026-09-01 11:21:41 | 48.29171 | 12.02717 | 81° | 88km/h | 10480m | 4.1m/s | -47.5°C | 38.5% | 259.2hPa | 2.7V | 00:00:00 | 00:52:00 | 00:00:00 | |
| OE5DXL-15 | 2026-09-01 11:21:40 | 48.29168 | 12.02685 | 81° | 88km/h | 10476m | 3.7m/s | -47.4°C | 38.0% | 259.3hPa | 2.7V | 00:00:00 | 00:00:00 | 00:00:00 | |
| OE5MMP-10 | 2026-09-01 11:21:34 | 48.29142 | 12.02491 | 78° | 88km/h | 10454m | 3.0m/s | -47.2°C | 35.4% | 260.2hPa | 2.7V | 00:00:00 | 00:51:53 | 00:00:00 | |
| OE5DRO-10 | 2026-09-01 11:21:33 | 48.29133 | 12.02425 | 78° | 88km/h | 10447m | 3.4m/s | -47.1°C | 34.9% | 260.5hPa | 2.7V | 00:00:00 | 00:00:00 | 00:00:00 | |
| DO3MHA-11 | 2026-09-01 11:21:31 | 48.29128 | 12.02393 | 79° | 88km/h | 10443m | 3.5m/s | -47.1°C | 34.2% | 260.6hPa | 2.7V | 00:00:00 | 00:51:50 | 00:00:00 | |
| OE5MMP-10 | 2026-09-01 11:21:24 | 48.29095 | 12.02165 | 80° | 88km/h | 10417m | 3.2m/s | -46.8°C | 35.2% | 261.7hPa | 2.7V | 00:00:00 | 00:51:43 | 00:00:00 | |
| DL6DJ-15 | 2026-09-01 11:21:21 | 48.29080 | 12.02034 | 80° | 88km/h | 10401m | 4.9m/s | -46.8°C | 30.3% | 262.4hPa | 2.7V | 00:00:00 | 00:00:00 | 00:00:00 | |
| OE5MMP-10 | 2026-09-01 11:21:14 | 48.29050 | 12.01840 | 75° | 88km/h | 10379m | 3.5m/s | -46.6°C | 32.9% | 263.2hPa | 2.7V | 00:00:00 | 00:51:33 | 00:00:00 | |
| OE5DRO-10 | 2026-09-01 11:21:13 | 48.29044 | 12.01807 | 75° | 88km/h | 10375m | 3.4m/s | -46.5°C | 32.9% | 263.3hPa | 2.7V | 00:00:00 | 00:00:00 | 00:00:00 | |
| OE5WHR-10 | 2026-09-01 11:21:12 | 48.29038 | 12.01775 | 76° | 88km/h | 10371m | 4.5m/s | -46.4°C | 32.8% | 263.5hPa | 2.7V | 00:00:00 | 00:00:00 | 00:00:00 | |
| DO3MHA-11 | 2026-09-01 11:21:11 | 48.29033 | 12.01744 | 77° | 88km/h | 10367m | 3.4m/s | -46.4°C | 32.8% | 263.7hPa | 2.7V | 00:00:00 | 00:51:30 | 00:00:00 | |
| OE5DXL-15 | 2026-09-01 11:21:10 | 48.29028 | 12.01712 | 79° | 88km/h | 10364m | 3.4m/s | -46.4°C | 32.7% | 263.8hPa | 2.7V | 00:00:00 | 00:00:00 | 00:00:00 | |
| OE5FHM-15 | 2026-09-01 11:21:05 | 48.29010 | 12.01546 | 81° | 86km/h | 10346m | 2.5m/s | -46.2°C | 33.6% | 264.5hPa | 2.7V | 00:00:00 | 00:51:24 | 00:00:00 | |
| OE5MMP-10 | 2026-09-01 11:21:04 | 48.29006 | 12.01513 | 80° | 88km/h | 10342m | 3.9m/s | -46.2°C | 33.4% | 264.6hPa | 2.7V | 00:00:00 | 00:51:23 | 00:00:00 | |
| DL6DJ-15 | 2026-09-01 11:20:50 | 48.28938 | 12.01027 | 81° | 84km/h | 10287m | 3.6m/s | -45.8°C | 29.5% | 266.9hPa | 2.7V | 00:00:00 | 00:00:00 | 00:00:00 | |
| OE5MMP-10 | 2026-09-01 11:20:44 | 48.28920 | 12.00867 | 80° | 84km/h | 10269m | 3.8m/s | -45.7°C | 35.2% | 267.6hPa | 2.7V | 00:00:00 | 00:51:03 | 00:00:00 | |
| DH7VM-15 | 2026-09-01 11:20:43 | 48.28916 | 12.00834 | 80° | 88km/h | 10266m | 2.4m/s | 0°C | 0% | 0hPa | 2.7V | 00:00:00 | 00:00:00 | 00:00:00 | |
| DO3MHA-11 | 2026-09-01 11:20:41 | 48.28907 | 12.00770 | 79° | 84km/h | 10259m | 3.5m/s | -45.6°C | 37.0% | 268.0hPa | 2.7V | 00:00:00 | 00:51:00 | 00:00:00 | |
| OE5DXL-15 | 2026-09-01 11:20:40 | 48.28903 | 12.00739 | 80° | 86km/h | 10255m | 3.5m/s | -45.5°C | 37.5% | 268.2hPa | 2.7V | 00:00:00 | 00:00:00 | 00:00:00 | |
| OE5FHM-15 | 2026-09-01 11:20:35 | 48.28885 | 12.00585 | 81° | 88km/h | 10237m | 2.8m/s | 0°C | 0% | 0hPa | 2.7V | 00:00:00 | 00:50:54 | 00:00:00 | |
| OE5MMP-10 | 2026-09-01 11:20:34 | 48.28882 | 12.00554 | 82° | 88km/h | 10234m | 4.3m/s | -45.4°C | 43.0% | 269.0hPa | 2.7V | 00:00:00 | 00:50:53 | 08:30:00 | |
| OE3JTB-15 | 2026-09-01 11:20:33 | 48.28878 | 12.00522 | 82° | 88km/h | 10230m | 3.1m/s | -45.3°C | 44.1% | 269.2hPa | 2.7V | 00:00:00 | 00:50:52 | 00:00:00 | |
| DO3MHA-11 | 2026-09-01 11:20:31 | 48.28871 | 12.00458 | 80° | 88km/h | 10222m | 3.3m/s | -45.4°C | 46.4% | 269.5hPa | 2.7V | 00:00:00 | 00:50:50 | 00:00:00 | |
| OE5WHR-10 | 2026-09-01 11:20:30 | 48.28867 | 12.00425 | 80° | 88km/h | 10219m | 3.5m/s | -45.3°C | 48.1% | 269.7hPa | 2.7V | 00:00:00 | 00:50:49 | 00:00:00 | |
| OE5MMP-10 | 2026-09-01 11:20:24 | 48.28841 | 12.00227 | 79° | 88km/h | 10197m | 3.8m/s | -45.0°C | 60.5% | 270.5hPa | 2.7V | 00:00:00 | 00:50:43 | 00:00:00 | |
| DO3MHA-11 | 2026-09-01 11:20:21 | 48.28828 | 12.00129 | 80° | 88km/h | 10186m | 4.4m/s | -45.0°C | 59.9% | 270.9hPa | 2.7V | 00:00:00 | 00:50:40 | 00:00:00 | |
| DL6DJ-15 | 2026-09-01 11:20:18 | 48.28818 | 12.00035 | 82° | 84km/h | 10176m | 4.5m/s | -45.1°C | 53.8% | 271.4hPa | 2.7V | 00:00:00 | 00:00:00 | 00:00:00 | |
| OE5DRO-10 | 2026-09-01 11:20:16 | 48.28812 | 11.99969 | 84° | 84km/h | 10166m | 4.6m/s | -44.9°C | 60.0% | 271.7hPa | 2.7V | 00:00:00 | 00:00:00 | 00:00:00 | |
| OE5MMP-10 | 2026-09-01 11:20:14 | 48.28807 | 11.99901 | 84° | 86km/h | 10159m | 1.9m/s | -45.0°C | 60.9% | 272.1hPa | 2.7V | 00:00:00 | 00:50:33 | 00:00:00 | |
| DO3MHA-11 | 2026-09-01 11:20:11 | 48.28799 | 11.99800 | 83° | 84km/h | 10150m | 3.1m/s | -44.9°C | 61.0% | 272.4hPa | 2.7V | 00:00:00 | 00:50:30 | 00:00:00 | |
| OE5DXL-15 | 2026-09-01 11:20:10 | 48.28796 | 11.99766 | 82° | 82km/h | 10147m | 3.2m/s | -45.0°C | 61.4% | 272.6hPa | 2.7V | 00:00:00 | 00:00:00 | 00:00:00 | |
| OE5WHR-10 | 2026-09-01 11:20:09 | 48.28792 | 11.99734 | 81° | 82km/h | 10143m | 3.7m/s | -44.9°C | 61.4% | 272.7hPa | 2.7V | 00:00:00 | 00:00:00 | 08:30:00 | |
| OE5FHM-15 | 2026-09-01 11:20:05 | 48.28780 | 11.99608 | 84° | 80km/h | 10129m | 3.3m/s | 0°C | 0% | 0hPa | 2.7V | 00:00:00 | 00:50:24 | 00:00:00 | |
| OE5MMP-10 | 2026-09-01 11:20:04 | 48.28778 | 11.99578 | 83° | 80km/h | 10126m | 4.1m/s | -44.9°C | 62.0% | 273.5hPa | 2.7V | 00:00:00 | 00:50:23 | 00:00:00 | |
| DL6DJ-15 | 2026-09-01 11:19:47 | 48.28743 | 11.99058 | 86° | 80km/h | 10061m | 3.8m/s | -44.5°C | 49.0% | 276.1hPa | 2.7V | 00:00:00 | 00:00:00 | 00:00:00 | |
| PG1ADW-2 | 2026-09-01 11:19:44 | 48.28738 | 11.98967 | 85° | 82km/h | 10050m | 4.9m/s | -44.4°C | 49.2% | 276.5hPa | 2.7V | 00:00:00 | 00:00:00 | 00:00:00 | |
| DO3MHA-11 | 2026-09-01 11:19:41 | 48.28731 | 11.98879 | 84° | 84km/h | 10037m | 3.7m/s | -44.3°C | 45.2% | 277.0hPa | 2.7V | 00:00:00 | 00:50:00 | 00:00:00 | |
| OE5DXL-15 | 2026-09-01 11:19:40 | 48.28729 | 11.98848 | 85° | 80km/h | 10034m | 3.8m/s | -44.4°C | 43.8% | 277.2hPa | 2.7V | 00:00:00 | 00:00:00 | 00:00:00 | |
| OE5DRO-10 | 2026-09-01 11:19:38 | 48.28726 | 11.98787 | 89° | 82km/h | 10025m | 3.8m/s | -44.3°C | 40.5% | 277.6hPa | 2.7V | 00:00:00 | 00:00:00 | 00:00:00 | |
| OE5FHM-15 | 2026-09-01 11:19:35 | 48.28725 | 11.98689 | 89° | 86km/h | 10013m | 4.3m/s | 0°C | 0% | 0hPa | 2.7V | 00:00:00 | 00:49:54 | 00:00:00 | |
| OE5MMP-10 | 2026-09-01 11:19:34 | 48.28724 | 11.98657 | 87° | 80km/h | 10009m | 3.2m/s | -44.2°C | 38.4% | 278.2hPa | 2.7V | 00:00:00 | 00:49:53 | 00:00:00 | |
| DO3MHA-11 | 2026-09-01 11:19:31 | 48.28717 | 11.98561 | 82° | 77km/h | 9996m | 5.9m/s | -44.2°C | 37.5% | 278.8hPa | 2.7V | 00:00:00 | 00:49:50 | 08:30:00 | |
| OE5WHR-10 | 2026-09-01 11:19:27 | 48.28705 | 11.98439 | 82° | 78km/h | 9977m | 5.0m/s | -44.1°C | 39.0% | 279.6hPa | 2.7V | 00:00:00 | 00:49:46 | 00:00:00 | |
| OE5MMP-10 | 2026-09-01 11:19:24 | 48.28698 | 11.98354 | 86° | 80km/h | 9965m | 4.5m/s | -44.1°C | 40.8% | 280.1hPa | 2.7V | 00:00:00 | 00:49:43 | 00:00:00 | |
| OE5DRO-10 | 2026-09-01 11:19:19 | 48.28690 | 11.98201 | 83° | 77km/h | 9946m | 3.7m/s | -43.8°C | 40.0% | 280.9hPa | 2.7V | 00:00:00 | 00:00:00 | 00:00:00 | |
| DL6DJ-15 | 2026-09-01 11:19:16 | 48.28681 | 11.98111 | 80° | 77km/h | 9934m | 4.0m/s | -43.8°C | 35.1% | 281.4hPa | 2.7V | 00:00:00 | 00:00:00 | 00:00:00 | |
| OE5MMP-10 | 2026-09-01 11:19:14 | 48.28675 | 11.98053 | 80° | 77km/h | 9927m | 4.1m/s | -43.7°C | 37.8% | 281.7hPa | 2.7V | 00:00:00 | 00:49:33 | 00:00:00 | |
| DB0UT-7 | 2026-09-01 11:19:08 | 48.28663 | 11.97880 | 87° | 77km/h | 9903m | 4.1m/s | -43.5°C | 41.2% | 282.7hPa | 2.7V | 00:00:00 | 00:49:27 | 00:00:00 | |
| OE5WHR-10 | 2026-09-01 11:19:06 | 48.28659 | 11.97823 | 85° | 77km/h | 9896m | 4.1m/s | -43.4°C | 40.7% | 282.9hPa | 2.7V | 00:00:00 | 00:00:00 | 00:00:00 | |
| DO3MHA-11 | 2026-09-01 11:19:05 | 48.28658 | 11.97794 | 85° | 78km/h | 9892m | 3.3m/s | -43.4°C | 40.2% | 283.1hPa | 2.7V | 00:00:00 | 00:49:24 | 00:00:00 | |
| OE5MMP-10 | 2026-09-01 11:19:04 | 48.28655 | 11.97765 | 84° | 78km/h | 9888m | 4.7m/s | -43.4°C | 40.1% | 283.3hPa | 2.7V | 00:00:00 | 00:49:23 | 08:30:00 | |
| OE5DRO-10 | 2026-09-01 11:19:00 | 48.28645 | 11.97650 | 81° | 78km/h | 9872m | 2.6m/s | -43.2°C | 41.9% | 284.0hPa | 2.9V | 00:00:00 | 00:00:00 | 08:30:00 | |
| DO3MHA-11 | 2026-09-01 11:18:55 | 48.28626 | 11.97501 | 81° | 75km/h | 9853m | 3.9m/s | -43.0°C | 43.6% | 284.8hPa | 2.7V | 00:00:00 | 00:49:14 | 00:00:00 | |
| OE5MMP-10 | 2026-09-01 11:18:54 | 48.28623 | 11.97470 | 83° | 75km/h | 9849m | 3.8m/s | -43.1°C | 44.7% | 285.0hPa | 2.7V | 00:00:00 | 00:49:13 | 00:00:00 | |
| DO3MHA-11 | 2026-09-01 11:18:45 | 48.28605 | 11.97217 | 80° | 80km/h | 9812m | 3.6m/s | -42.8°C | 36.0% | 286.5hPa | 2.7V | 00:00:00 | 00:49:04 | 00:00:00 | |
| OE5MMP-10 | 2026-09-01 11:18:44 | 48.28601 | 11.97188 | 82° | 80km/h | 9808m | 4.6m/s | -42.9°C | 36.2% | 286.7hPa | 2.7V | 00:00:00 | 00:49:03 | 00:00:00 | |
| OE5DRO-10 | 2026-09-01 11:18:41 | 48.28595 | 11.97095 | 87° | 78km/h | 9795m | 3.2m/s | -42.8°C | 35.8% | 287.2hPa | 2.7V | 00:00:00 | 00:00:00 | 00:00:00 | |
| OE5DXL-15 | 2026-09-01 11:18:40 | 48.28593 | 11.97064 | 86° | 78km/h | 9790m | 6.6m/s | -42.7°C | 35.5% | 287.4hPa | 2.7V | 00:00:00 | 00:00:00 | 00:00:00 | |
| OE3JTB-15 | 2026-09-01 11:18:37 | 48.28587 | 11.96974 | 86° | 77km/h | 9774m | 4.0m/s | -42.5°C | 36.6% | 288.1hPa | 2.7V | 00:00:00 | 00:00:00 | 00:00:00 | |
| DO3MHA-11 | 2026-09-01 11:18:35 | 48.28586 | 11.96914 | 89° | 78km/h | 9766m | 3.3m/s | -42.4°C | 36.9% | 288.4hPa | 2.7V | 00:00:00 | 00:48:54 | 00:00:00 | |
| OE5MMP-10 | 2026-09-01 11:18:34 | 48.28585 | 11.96884 | 90° | 77km/h | 9762m | 4.6m/s | -42.4°C | 36.8% | 288.7hPa | 2.7V | 00:00:00 | 00:48:53 | 00:00:00 | |
| DO3MHA-11 | 2026-09-01 11:18:25 | 48.28584 | 11.96619 | 87° | 77km/h | 9726m | 3.5m/s | -42.1°C | 36.5% | 290.2hPa | 2.7V | 00:00:00 | 00:48:44 | 00:00:00 | |
| OE5WHR-10 | 2026-09-01 11:18:24 | 48.28582 | 11.96590 | 86° | 77km/h | 9723m | 4.1m/s | -42.1°C | 36.4% | 290.3hPa | 2.7V | 00:00:00 | 00:48:43 | 00:00:00 | |
| OE5DRO-10 | 2026-09-01 11:18:22 | 48.28579 | 11.96534 | 85° | 77km/h | 9715m | 3.1m/s | -42.1°C | 36.0% | 290.7hPa | 2.7V | 00:00:00 | 00:00:00 | 00:00:00 | |
| DO3MHA-11 | 2026-09-01 11:18:14 | 48.28571 | 11.96300 | 88° | 75km/h | 9684m | 3.4m/s | -41.9°C | 37.4% | 292.0hPa | 2.7V | 00:00:00 | 00:48:33 | 00:00:00 | |
| OE5DXL-15 | 2026-09-01 11:18:10 | 48.28564 | 11.96184 | 84° | 75km/h | 9668m | 4.0m/s | -41.6°C | 35.9% | 292.7hPa | 2.7V | 00:00:00 | 00:00:00 | 00:00:00 | |
| OE5MMP-10 | 2026-09-01 11:18:09 | 48.28562 | 11.96155 | 85° | 75km/h | 9665m | 2.8m/s | -41.6°C | 35.6% | 292.9hPa | 2.7V | 00:00:00 | 00:48:28 | 00:00:00 | |
| OE3JTB-15 | 2026-09-01 11:18:08 | 48.28560 | 11.96126 | 85° | 75km/h | 9661m | 4.6m/s | -41.6°C | 35.4% | 293.0hPa | 2.7V | 00:00:00 | 00:00:00 | 00:00:00 | |
| DO3MHA-11 | 2026-09-01 11:18:04 | 48.28557 | 11.96014 | 90° | 75km/h | 9645m | 3.5m/s | -41.5°C | 35.4% | 293.7hPa | 2.7V | 00:00:00 | 00:48:23 | 00:00:00 | |
| OE5WHR-10 | 2026-09-01 11:18:03 | 48.28556 | 11.95986 | 89° | 75km/h | 9641m | 4.5m/s | -41.5°C | 35.8% | 293.9hPa | 2.7V | 00:00:00 | 00:00:00 | 00:00:00 | |
| OE5MMP-10 | 2026-09-01 11:17:59 | 48.28553 | 11.95870 | 87° | 75km/h | 9625m | 3.3m/s | -41.3°C | 36.5% | 294.6hPa | 2.7V | 00:00:00 | 00:48:18 | 00:00:00 | |
| DO3MHA-11 | 2026-09-01 11:17:54 | 48.28546 | 11.95730 | 86° | 75km/h | 9605m | 3.8m/s | -41.3°C | 35.2% | 295.4hPa | 2.9V | 00:00:00 | 00:48:13 | 00:00:00 | |
| OE5MMP-10 | 2026-09-01 11:17:49 | 48.28540 | 11.95590 | 90° | 73km/h | 9586m | 3.4m/s | -41.1°C | 33.1% | 296.2hPa | 2.9V | 00:00:00 | 00:48:08 | 00:00:00 | |
| DO3MHA-11 | 2026-09-01 11:17:44 | 48.28538 | 11.95446 | 88° | 75km/h | 9567m | 3.9m/s | -40.9°C | 33.9% | 297.1hPa | 2.9V | 00:00:00 | 00:48:03 | 08:30:00 | |
| DL6DJ-15 | 2026-09-01 11:17:43 | 48.28537 | 11.95418 | 85° | 75km/h | 9563m | 3.9m/s | -40.9°C | 30.8% | 297.3hPa | 2.9V | 00:00:00 | 00:00:00 | 00:00:00 | |
| OE5WHR-10 | 2026-09-01 11:17:42 | 48.28536 | 11.95389 | 85° | 73km/h | 9560m | 3.1m/s | -40.8°C | 33.9% | 297.4hPa | 2.9V | 00:00:00 | 00:00:00 | 00:00:00 | |
| OE5DXL-15 | 2026-09-01 11:17:40 | 48.28532 | 11.95332 | 87° | 73km/h | 9552m | 4.2m/s | -40.8°C | 33.6% | 297.8hPa | 2.9V | 00:00:00 | 00:00:00 | 00:00:00 | |
| OE3JTB-15 | 2026-09-01 11:17:38 | 48.28530 | 11.95275 | 86° | 73km/h | 9545m | 4.5m/s | -40.8°C | 33.2% | 298.1hPa | 2.7V | 00:00:00 | 00:47:57 | 00:00:00 | |
| DO3MHA-11 | 2026-09-01 11:17:34 | 48.28525 | 11.95165 | 88° | 73km/h | 9529m | 2.5m/s | -40.6°C | 32.7% | 298.8hPa | 2.7V | 00:00:00 | 00:47:53 | 00:00:00 | |
| DB0UT-7 | 2026-09-01 11:17:30 | 48.28519 | 11.95058 | 86° | 75km/h | 9514m | 3.8m/s | -40.4°C | 31.9% | 299.4hPa | 2.7V | 00:00:00 | 00:47:49 | 00:00:00 | |
| OE5DRO-10 | 2026-09-01 11:17:25 | 48.28513 | 11.94915 | 86° | 73km/h | 9493m | 4.4m/s | -40.3°C | 30.4% | 300.3hPa | 2.7V | 00:00:00 | 00:00:00 | 00:00:00 | |
| PG1ADW-2 | 2026-09-01 11:17:24 | 48.28511 | 11.94887 | 87° | 73km/h | 9489m | 4.5m/s | -40.3°C | 30.5% | 300.6hPa | 2.7V | 00:00:00 | 00:47:43 | 00:00:00 | |
| OE5WHR-10 | 2026-09-01 11:17:21 | 48.28507 | 11.94805 | 83° | 73km/h | 9477m | 5.0m/s | -40.1°C | 29.8% | 301.1hPa | 2.9V | 00:00:00 | 00:47:40 | 00:00:00 | |
| OE5MMP-10 | 2026-09-01 11:17:14 | 48.28492 | 11.94614 | 84° | 73km/h | 9450m | 3.1m/s | -39.9°C | 30.1% | 302.2hPa | 2.9V | 00:00:00 | 00:47:33 | 00:00:00 | |
| DL6DJ-15 | 2026-09-01 11:17:12 | 48.28488 | 11.94558 | 85° | 73km/h | 9442m | 3.7m/s | -39.8°C | 28.2% | 302.7hPa | 2.9V | 00:00:00 | 00:00:00 | 00:00:00 | |
| DO3MHA-11 | 2026-09-01 11:17:11 | 48.28486 | 11.94531 | 85° | 73km/h | 9438m | 4.3m/s | -39.8°C | 30.8% | 302.8hPa | 2.9V | 00:00:00 | 00:47:30 | 00:00:00 | |
| OE5DXL-15 | 2026-09-01 11:17:10 | 48.28485 | 11.94504 | 84° | 73km/h | 9434m | 4.3m/s | -39.8°C | 31.0% | 303.0hPa | 2.7V | 00:00:00 | 00:00:00 | 00:00:00 | |
| OE3JTB-15 | 2026-09-01 11:17:09 | 48.28482 | 11.94477 | 84° | 73km/h | 9430m | 3.4m/s | -39.7°C | 30.9% | 303.2hPa | 2.7V | 00:00:00 | 00:00:00 | 00:00:00 | |
| OE5DRO-10 | 2026-09-01 11:17:06 | 48.28477 | 11.94395 | 84° | 71km/h | 9418m | 4.0m/s | -39.7°C | 31.6% | 303.6hPa | 2.9V | 00:00:00 | 00:00:00 | 00:00:00 | |
| OE5MMP-10 | 2026-09-01 11:17:04 | 48.28472 | 11.94340 | 83° | 69km/h | 9410m | 4.0m/s | -39.6°C | 32.6% | 304.1hPa | 2.9V | 00:00:00 | 00:47:23 | 08:30:00 | |
| DO3MHA-11 | 2026-09-01 11:17:01 | 48.28466 | 11.94258 | 85° | 69km/h | 9397m | 4.4m/s | -39.6°C | 33.7% | 304.6hPa | 2.9V | 00:00:00 | 00:47:20 | 00:00:00 | |
| OE5WHR-10 | 2026-09-01 11:17:00 | 48.28464 | 11.94231 | 85° | 73km/h | 9393m | 3.5m/s | -39.5°C | 33.7% | 304.8hPa | 2.9V | 00:00:00 | 00:00:00 | 08:30:00 | |
| OE5MMP-10 | 2026-09-01 11:16:52 | 48.28454 | 11.94021 | 83° | 75km/h | 9362m | 3.6m/s | -39.2°C | 32.5% | 306.2hPa | 2.9V | 00:00:00 | 00:47:11 | 00:00:00 | |
| DO3MHA-11 | 2026-09-01 11:16:51 | 48.28451 | 11.93993 | 81° | 75km/h | 9357m | 4.8m/s | -39.2°C | 32.0% | 306.5hPa | 2.9V | 00:00:00 | 00:47:10 | 00:00:00 | |
| OE5DRO-10 | 2026-09-01 11:16:47 | 48.28440 | 11.93880 | 83° | 71km/h | 9342m | 3.2m/s | -39.2°C | 30.2% | 307.1hPa | 2.9V | 00:00:00 | 00:00:00 | 00:00:00 | |
| PG1ADW-2 | 2026-09-01 11:16:45 | 48.28432 | 11.93795 | 83° | 71km/h | 9331m | 3.3m/s | -39.0°C | 28.7% | 307.6hPa | 2.9V | 00:00:00 | 00:00:00 | 00:00:00 | |
| OE5MMP-10 | 2026-09-01 11:16:42 | 48.28428 | 11.93740 | 85° | 71km/h | 9322m | 3.4m/s | -39.0°C | 28.6% | 308.0hPa | 2.9V | 00:00:00 | 00:47:01 | 00:00:00 | |
| DO3MHA-11 | 2026-09-01 11:16:41 | 48.28426 | 11.93714 | 84° | 71km/h | 9318m | 4.8m/s | -39.0°C | 28.1% | 308.2hPa | 2.9V | 00:00:00 | 00:47:00 | 00:00:00 | |
| OE5DXL-15 | 2026-09-01 11:16:40 | 48.28424 | 11.93687 | 84° | 71km/h | 9314m | 3.7m/s | -39.0°C | 28.0% | 308.4hPa | 2.9V | 00:00:00 | 00:00:00 | 00:00:00 | |
| OE5WHR-10 | 2026-09-01 11:16:39 | 48.28422 | 11.93660 | 84° | 73km/h | 9310m | 4.1m/s | -39.0°C | 27.9% | 308.6hPa | 2.9V | 00:00:00 | 00:00:00 | 00:00:00 | |
| DF3TZ-5 | 2026-09-01 11:16:34 | 48.28403 | 11.93471 | 84° | 71km/h | 9282m | 3.6m/s | -38.7°C | 23.9% | 309.8hPa | 2.9V | 00:00:00 | 00:00:00 | 00:00:00 | |
| DO3MHA-11 | 2026-09-01 11:16:31 | 48.28401 | 11.93445 | 86° | 71km/h | 9279m | 4.5m/s | -38.6°C | 26.2% | 310.0hPa | 2.9V | 00:00:00 | 00:46:50 | 00:00:00 | |
| OE5DRO-10 | 2026-09-01 11:16:28 | 48.28397 | 11.93366 | 86° | 73km/h | 9267m | 4.3m/s | -38.5°C | 26.1% | 310.5hPa | 2.9V | 00:00:00 | 00:00:00 | 00:00:00 | |
| PG1ADW-2 | 2026-09-01 11:16:24 | 48.28388 | 11.93258 | 80° | 71km/h | 9251m | 4.1m/s | -38.3°C | 27.5% | 311.2hPa | 2.9V | 00:00:00 | 00:00:00 | 00:00:00 | |
| OE5MMP-10 | 2026-09-01 11:16:22 | 48.28381 | 11.93203 | 79° | 73km/h | 9242m | 3.7m/s | -38.2°C | 27.9% | 311.6hPa | 2.9V | 00:00:00 | 00:46:41 | 00:00:00 | |
| DO3MHA-11 | 2026-09-01 11:16:21 | 48.28377 | 11.93175 | 79° | 73km/h | 9238m | 4.4m/s | -38.2°C | 27.9% | 311.9hPa | 2.9V | 00:00:00 | 00:46:40 | 00:00:00 | |
| OE5WHR-10 | 2026-09-01 11:16:18 | 48.28367 | 11.93091 | 82° | 69km/h | 9226m | 3.5m/s | -38.1°C | 27.6% | 312.3hPa | 2.9V | 00:00:00 | 00:46:37 | 00:00:00 | |
| DB0UT-7 | 2026-09-01 11:16:13 | 48.28356 | 11.92954 | 86° | 69km/h | 9206m | 3.9m/s | -38.0°C | 27.0% | 313.2hPa | 2.9V | 00:00:00 | 00:00:00 | 08:30:00 | |
| OE5MMP-10 | 2026-09-01 11:16:12 | 48.28355 | 11.92927 | 86° | 68km/h | 9201m | 4.6m/s | 0°C | 0% | 0hPa | 2.9V | 00:00:00 | 00:46:31 | 00:00:00 | |
| OE3JTB-15 | 2026-09-01 11:16:11 | 48.28353 | 11.92901 | 84° | 69km/h | 9197m | 3.8m/s | -38.0°C | 27.0% | 313.7hPa | 2.9V | 00:00:00 | 00:46:30 | 00:00:00 | |
| OE5DXL-15 | 2026-09-01 11:16:10 | 48.28351 | 11.92876 | 83° | 69km/h | 9193m | 3.2m/s | -37.9°C | 26.8% | 313.8hPa | 2.9V | 00:00:00 | 00:00:00 | 00:00:00 | |
| OE5DRO-10 | 2026-09-01 11:16:09 | 48.28349 | 11.92850 | 84° | 69km/h | 9189m | 4.6m/s | -37.9°C | 26.6% | 314.0hPa | 2.9V | 00:00:00 | 00:00:00 | 08:30:00 | |
| PG1ADW-2 | 2026-09-01 11:16:04 | 48.28337 | 11.92722 | 82° | 71km/h | 9168m | 5.0m/s | -37.7°C | 26.6% | 315.0hPa | 2.9V | 00:00:00 | 00:46:23 | 00:00:00 | |
| DF3TZ-5 | 2026-09-01 11:16:03 | 48.28332 | 11.92671 | 81° | 68km/h | 9159m | 5.4m/s | -37.8°C | 23.8% | 315.4hPa | 2.9V | 00:00:00 | 00:00:00 | 00:00:00 | |
| OE5MMP-10 | 2026-09-01 11:16:02 | 48.28332 | 11.92671 | 82° | 71km/h | 9160m | 5.3m/s | 0°C | 0% | 0hPa | 2.9V | 00:00:00 | 00:46:21 | 00:00:00 | |
| OE5WHR-10 | 2026-09-01 11:15:57 | 48.28324 | 11.92538 | 86° | 71km/h | 9137m | 4.8m/s | -37.4°C | 25.3% | 316.4hPa | 2.9V | 00:00:00 | 00:00:00 | 00:00:00 | |
| OE5MMP-10 | 2026-09-01 11:15:52 | 48.28313 | 11.92403 | 80° | 71km/h | 9116m | 4.7m/s | 0°C | 0% | 0hPa | 2.9V | 00:00:00 | 00:46:11 | 00:00:00 | |
| OE5DRO-10 | 2026-09-01 11:15:50 | 48.28306 | 11.92351 | 79° | 69km/h | 9108m | 4.9m/s | -37.1°C | 25.0% | 317.7hPa | 2.9V | 00:00:00 | 00:00:00 | 00:00:00 | |
| PG1ADW-2 | 2026-09-01 11:15:44 | 48.28288 | 11.92193 | 83° | 71km/h | 9085m | 4.3m/s | -36.9°C | 25.3% | 318.7hPa | 2.9V | 00:00:00 | 00:00:00 | 00:00:00 | |
| OE3JTB-15 | 2026-09-01 11:15:42 | 48.28284 | 11.92140 | 83° | 71km/h | 9077m | 3.3m/s | -36.8°C | 25.1% | 319.1hPa | 2.9V | 00:00:00 | 00:00:00 | 08:30:00 | |
| OE5MMP-10 | 2026-09-01 11:15:40 | 48.28278 | 11.92088 | 79° | 71km/h | 9068m | 4.4m/s | 0°C | 0% | 0hPa | 2.7V | 00:00:00 | 00:45:59 | 00:00:00 | |
| DL6DJ-15 | 2026-09-01 11:15:39 | 48.28272 | 11.92037 | 79° | 69km/h | 9060m | 4.1m/s | -36.7°C | 22.1% | 320.0hPa | 2.7V | 00:00:00 | 00:00:00 | 00:00:00 | |
| OE5WHR-10 | 2026-09-01 11:15:36 | 48.28266 | 11.91984 | 82° | 71km/h | 9052m | 3.6m/s | -36.6°C | 24.4% | 320.3hPa | 2.7V | 00:00:00 | 00:00:00 | 00:00:00 | |
| DF3TZ-5 | 2026-09-01 11:15:32 | 48.28250 | 11.91852 | 81° | 69km/h | 9031m | 4.3m/s | 0°C | -1.0% | 321.3hPa | 2.7V | 00:00:00 | 00:00:00 | 00:00:00 | |
| OE5DRO-10 | 2026-09-01 11:15:31 | 48.28250 | 11.91852 | 82° | 71km/h | 9031m | 4.2m/s | -36.4°C | 24.3% | 321.2hPa | 2.7V | 00:00:00 | 00:00:00 | 00:00:00 | |
| OE5MMP-10 | 2026-09-01 11:15:30 | 48.28248 | 11.91825 | 82° | 71km/h | 9027m | 3.7m/s | 0°C | 0% | 0hPa | 2.7V | 00:00:00 | 00:45:49 | 08:30:00 | |
| PG1ADW-2 | 2026-09-01 11:15:24 | 48.28227 | 11.91667 | 77° | 71km/h | 9000m | 4.1m/s | -36.1°C | 25.1% | 322.8hPa | 2.7V | 00:00:00 | 00:00:00 | 08:30:00 | |
| DO3MHA-11 | 2026-09-01 11:15:20 | 48.28212 | 11.91563 | 80° | 71km/h | 8984m | 3.0m/s | -36.1°C | 24.0% | 323.5hPa | 2.9V | 00:00:00 | 00:45:39 | 00:00:00 | |
| OE5WHR-10 | 2026-09-01 11:15:15 | 48.28196 | 11.91430 | 80° | 71km/h | 8962m | 3.3m/s | -35.8°C | 23.8% | 324.4hPa | 2.9V | 00:00:00 | 00:45:34 | 00:00:00 | |
| OE3JTB-15 | 2026-09-01 11:15:13 | 48.28189 | 11.91377 | 77° | 69km/h | 8954m | 3.7m/s | -35.7°C | 23.6% | 324.8hPa | 2.9V | 00:00:00 | 00:00:00 | 00:00:00 | |
| OE5DRO-10 | 2026-09-01 11:15:12 | 48.28184 | 11.91351 | 75° | 71km/h | 8950m | 5.0m/s | -35.7°C | 23.4% | 325.0hPa | 2.9V | 00:00:00 | 00:00:00 | 00:00:00 | |
| DO3MHA-11 | 2026-09-01 11:15:10 | 48.28175 | 11.91298 | 76° | 69km/h | 8942m | 3.3m/s | -35.7°C | 23.6% | 325.4hPa | 2.9V | 00:00:00 | 00:45:29 | 00:00:00 | |
| OE5MMP-10 | 2026-09-01 11:15:09 | 48.28170 | 11.91273 | 76° | 71km/h | 8938m | 4.5m/s | 0°C | 0% | 0hPa | 2.9V | 00:00:00 | 00:45:28 | 00:00:00 | |
| DL6DJ-15 | 2026-09-01 11:15:08 | 48.28162 | 11.91223 | 78° | 68km/h | 8930m | 3.9m/s | -35.6°C | 21.3% | 326.0hPa | 2.9V | 00:00:00 | 00:00:00 | 00:00:00 | |
| PG1ADW-2 | 2026-09-01 11:15:03 | 48.28149 | 11.91119 | 79° | 71km/h | 8913m | 3.7m/s | -35.4°C | 22.8% | 326.8hPa | 2.9V | 00:00:00 | 00:00:00 | 00:00:00 | |
| OE5MMP-10 | 2026-09-01 11:14:59 | 48.28134 | 11.91011 | 78° | 69km/h | 8896m | 4.9m/s | 0°C | 0% | 0hPa | 2.9V | 00:00:00 | 00:45:18 | 00:00:00 | |
| DO3MHA-11 | 2026-09-01 11:14:55 | 48.28120 | 11.90904 | 81° | 75km/h | 8879m | 3.1m/s | -35.1°C | 21.1% | 328.3hPa | 2.9V | 00:00:00 | 00:45:14 | 00:00:00 | |
| OE5WHR-10 | 2026-09-01 11:14:53 | 48.28114 | 11.90853 | 81° | 73km/h | 8871m | 2.9m/s | -35.1°C | 21.1% | 328.8hPa | 2.9V | 00:00:00 | 00:00:00 | 00:00:00 | |
| OE5MMP-10 | 2026-09-01 11:14:49 | 48.28103 | 11.90752 | 80° | 71km/h | 8855m | 4.0m/s | 0°C | 0% | 0hPa | 2.9V | 00:00:00 | 00:45:08 | 00:00:00 | |
| PG1ADW-2 | 2026-09-01 11:14:43 | 48.28085 | 11.90595 | 80° | 75km/h | 8832m | 3.7m/s | -34.8°C | 20.8% | 330.6hPa | 2.9V | 00:00:00 | 00:45:02 | 00:00:00 | |
| OE3JTB-15 | 2026-09-01 11:14:42 | 48.28082 | 11.90569 | 80° | 75km/h | 8828m | 4.6m/s | -34.8°C | 20.9% | 330.8hPa | 2.9V | 00:00:00 | 00:45:01 | 00:00:00 | |
| OE5DXL-15 | 2026-09-01 11:14:40 | 48.28074 | 11.90515 | 78° | 75km/h | 8819m | 4.0m/s | -34.7°C | 21.3% | 331.2hPa | 2.9V | 00:00:00 | 00:00:00 | 08:30:00 | |
| OE5MMP-10 | 2026-09-01 11:14:39 | 48.28070 | 11.90487 | 76° | 75km/h | 8815m | 4.7m/s | 0°C | 0% | 0hPa | 2.7V | 00:00:00 | 00:44:58 | 00:00:00 | |
| DL6DJ-15 | 2026-09-01 11:14:37 | 48.28055 | 11.90402 | 75° | 77km/h | 8802m | 2.8m/s | -34.7°C | 20.4% | 332.1hPa | 2.7V | 00:00:00 | 00:00:00 | 00:00:00 | |
| DO3MHA-11 | 2026-09-01 11:14:35 | 48.28050 | 11.90373 | 75° | 75km/h | 8799m | 4.5m/s | -34.5°C | 22.4% | 332.2hPa | 2.7V | 00:00:00 | 00:44:54 | 00:00:00 | |
| OE5DRO-10 | 2026-09-01 11:14:34 | 48.28045 | 11.90345 | 75° | 73km/h | 8795m | 3.6m/s | -34.5°C | 22.3% | 332.4hPa | 2.7V | 00:00:00 | 00:00:00 | 00:00:00 | |
| OE5WHR-10 | 2026-09-01 11:14:32 | 48.28035 | 11.90289 | 78° | 73km/h | 8787m | 4.2m/s | -34.5°C | 22.9% | 332.8hPa | 2.7V | 00:00:00 | 00:00:00 | 00:00:00 | |
| DO3MHA-11 | 2026-09-01 11:14:25 | 48.28003 | 11.90098 | 75° | 73km/h | 8759m | 3.6m/s | -34.2°C | 22.8% | 334.1hPa | 2.7V | 00:00:00 | 00:44:44 | 00:00:00 | |
| PG1ADW-2 | 2026-09-01 11:14:23 | 48.27993 | 11.90045 | 75° | 73km/h | 8750m | 4.0m/s | -34.2°C | 22.6% | 334.5hPa | 2.9V | 00:00:00 | 00:00:00 | 00:00:00 | |
| OE5MMP-10 | 2026-09-01 11:14:21 | 48.27985 | 11.89990 | 79° | 73km/h | 8741m | 3.3m/s | 0°C | 0% | 0hPa | 2.9V | 00:00:00 | 00:44:40 | 00:00:00 | |
| DO3MHA-11 | 2026-09-01 11:14:15 | 48.27966 | 11.89830 | 79° | 73km/h | 8715m | 4.1m/s | -33.9°C | 22.1% | 336.2hPa | 2.9V | 00:00:00 | 00:44:34 | 00:00:00 | |
| OE3JTB-15 | 2026-09-01 11:14:13 | 48.27958 | 11.89777 | 78° | 73km/h | 8707m | 3.4m/s | -33.8°C | 22.2% | 336.6hPa | 2.9V | 00:00:00 | 00:00:00 | 00:00:00 | |
| OE5WHR-10 | 2026-09-01 11:14:11 | 48.27950 | 11.89722 | 78° | 75km/h | 8699m | 3.9m/s | -33.8°C | 22.4% | 337.0hPa | 2.9V | 00:00:00 | 00:44:30 | 00:00:00 | |
| OE5DXL-15 | 2026-09-01 11:14:10 | 48.27946 | 11.89694 | 78° | 73km/h | 8695m | 4.2m/s | -33.7°C | 22.4% | 337.1hPa | 2.9V | 00:00:00 | 00:00:00 | 00:00:00 | |
| DL6DJ-15 | 2026-09-01 11:14:06 | 48.27927 | 11.89558 | 78° | 71km/h | 8676m | 3.4m/s | -33.7°C | 21.8% | 338.1hPa | 2.9V | 00:00:00 | 00:00:00 | 00:00:00 | |
| DO3MHA-11 | 2026-09-01 11:14:05 | 48.27927 | 11.89558 | 79° | 73km/h | 8676m | 3.4m/s | -33.6°C | 23.8% | 338.1hPa | 2.9V | 00:00:00 | 00:44:24 | 00:00:00 | |
| PG1ADW-2 | 2026-09-01 11:14:03 | 48.27919 | 11.89504 | 76° | 73km/h | 8667m | 4.0m/s | -33.5°C | 23.9% | 338.5hPa | 2.9V | 00:00:00 | 00:00:00 | 00:00:00 | |
| OE5DRO-10 | 2026-09-01 11:13:56 | 48.27884 | 11.89309 | 77° | 71km/h | 8639m | 3.5m/s | -33.2°C | 24.0% | 340.0hPa | 2.9V | 00:00:00 | 00:00:00 | 00:00:00 | |
| OE5WHR-10 | 2026-09-01 11:13:50 | 48.27856 | 11.89149 | 76° | 71km/h | 8616m | 3.3m/s | -33.0°C | 23.5% | 341.0hPa | 2.9V | 00:00:00 | 00:00:00 | 08:30:00 | |
| OE5MMP-10 | 2026-09-01 11:13:46 | 48.27835 | 11.89046 | 73° | 69km/h | 8600m | 4.7m/s | 0°C | 0% | 0hPa | 2.9V | 00:00:00 | 00:44:05 | 00:00:00 | |
| PG1ADW-2 | 2026-09-01 11:13:43 | 48.27820 | 11.88971 | 73° | 73km/h | 8589m | 4.2m/s | -32.7°C | 22.9% | 342.4hPa | 2.9V | 00:00:00 | 00:00:00 | 00:00:00 | |
| OE5DXL-15 | 2026-09-01 11:13:40 | 48.27803 | 11.88892 | 73° | 73km/h | 8576m | 4.3m/s | -32.6°C | 22.7% | 342.9hPa | 2.9V | 00:00:00 | 00:00:00 | 00:00:00 | |
| OE5DRO-10 | 2026-09-01 11:13:37 | 48.27787 | 11.88812 | 74° | 73km/h | 8565m | 3.0m/s | -32.6°C | 22.7% | 343.5hPa | 2.9V | 00:00:00 | 00:00:00 | 00:00:00 | |
| OE5MMP-10 | 2026-09-01 11:13:34 | 48.27773 | 11.88733 | 78° | 71km/h | 8553m | 3.6m/s | 0°C | 0% | 0hPa | 2.9V | 00:00:00 | 00:43:53 | 00:00:00 | |
| DO3MHA-11 | 2026-09-01 11:13:31 | 48.27760 | 11.88653 | 76° | 73km/h | 8541m | 4.8m/s | -32.3°C | 22.0% | 344.7hPa | 2.9V | 00:00:00 | 00:43:50 | 08:30:00 | |
| OE5WHR-10 | 2026-09-01 11:13:29 | 48.27750 | 11.88601 | 73° | 71km/h | 8533m | 4.4m/s | -32.2°C | 21.7% | 345.1hPa | 2.9V | 00:00:00 | 00:00:00 | 00:00:00 | |
| PG1ADW-2 | 2026-09-01 11:13:23 | 48.27717 | 11.88444 | 78° | 73km/h | 8509m | 3.7m/s | -31.9°C | 21.5% | 346.3hPa | 2.9V | 00:00:00 | 00:43:42 | 00:00:00 | |
| OE5DRO-10 | 2026-09-01 11:13:18 | 48.27697 | 11.88307 | 75° | 73km/h | 8490m | 4.3m/s | -31.8°C | 21.0% | 347.2hPa | 2.9V | 00:00:00 | 00:00:00 | 08:30:00 | |
| OE3JTB-15 | 2026-09-01 11:13:13 | 48.27670 | 11.88177 | 71° | 73km/h | 8469m | 4.9m/s | -31.6°C | 20.2% | 348.3hPa | 2.7V | 00:00:00 | 00:43:32 | 00:00:00 | |
| NBG1-10 | 2026-09-01 11:13:12 | 48.27664 | 11.88152 | 72° | 75km/h | 8464m | 3.6m/s | 0°C | 0% | 0hPa | 2.7V | 00:00:00 | 00:43:31 | 00:00:00 | |
| DO3MHA-11 | 2026-09-01 11:13:11 | 48.27658 | 11.88127 | 72° | 73km/h | 8461m | 3.6m/s | -31.5°C | 20.0% | 348.6hPa | 2.7V | 00:00:00 | 00:43:30 | 00:00:00 | |
| OE5DXL-15 | 2026-09-01 11:13:10 | 48.27653 | 11.88101 | 73° | 73km/h | 8456m | 4.5m/s | -31.5°C | 20.0% | 348.8hPa | 2.7V | 00:00:00 | 00:00:00 | 00:00:00 | |
| OE5WHR-10 | 2026-09-01 11:13:08 | 48.27643 | 11.88051 | 75° | 73km/h | 8448m | 4.6m/s | -31.3°C | 19.9% | 349.2hPa | 2.9V | 00:00:00 | 00:43:27 | 00:00:00 | |
| PG1ADW-2 | 2026-09-01 11:13:03 | 48.27621 | 11.87915 | 77° | 73km/h | 8430m | 3.2m/s | -31.2°C | 19.7% | 350.2hPa | 2.9V | 00:00:00 | 00:00:00 | 00:00:00 | |
| DO3MHA-11 | 2026-09-01 11:13:01 | 48.27612 | 11.87859 | 74° | 71km/h | 8422m | 3.8m/s | -31.1°C | 19.5% | 350.5hPa | 2.9V | 00:00:00 | 00:43:20 | 00:00:00 | |
| DO3MHA-11 | 2026-09-01 11:12:51 | 48.27562 | 11.87597 | 76° | 73km/h | 8384m | 4.1m/s | -30.8°C | 18.9% | 352.4hPa | 2.9V | 00:00:00 | 00:43:10 | 00:00:00 | |
| OE5WHR-10 | 2026-09-01 11:12:47 | 48.27543 | 11.87488 | 74° | 73km/h | 8368m | 3.4m/s | -30.6°C | 18.5% | 353.2hPa | 2.9V | 00:00:00 | 00:00:00 | 00:00:00 | |
| OE3JTB-15 | 2026-09-01 11:12:44 | 48.27527 | 11.87407 | 74° | 73km/h | 8356m | 3.8m/s | -30.5°C | 18.0% | 353.8hPa | 2.9V | 00:00:00 | 00:00:00 | 00:00:00 | |
| PG1ADW-2 | 2026-09-01 11:12:43 | 48.27522 | 11.87381 | 74° | 73km/h | 8352m | 3.9m/s | -30.4°C | 17.8% | 354.0hPa | 2.7V | 00:00:00 | 00:00:00 | 00:00:00 | |
| DO3MHA-11 | 2026-09-01 11:12:41 | 48.27512 | 11.87328 | 75° | 71km/h | 8345m | 4.2m/s | -30.4°C | 17.6% | 354.4hPa | 2.7V | 00:00:00 | 00:43:00 | 00:00:00 | |
| OE5DXL-15 | 2026-09-01 11:12:40 | 48.27507 | 11.87302 | 76° | 73km/h | 8341m | 3.4m/s | -30.4°C | 17.2% | 354.6hPa | 2.7V | 00:00:00 | 00:00:00 | 00:00:00 | |
| DL6DJ-15 | 2026-09-01 11:12:32 | 48.27475 | 11.87090 | 75° | 69km/h | 8306m | 5.0m/s | -30.1°C | 14.0% | 356.4hPa | 2.7V | 00:00:00 | 00:00:00 | 00:00:00 | |
| DO3MHA-11 | 2026-09-01 11:12:31 | 48.27470 | 11.87064 | 75° | 75km/h | 8302m | 3.9m/s | -30.0°C | 15.3% | 356.5hPa | 2.7V | 00:00:00 | 00:42:50 | 00:00:00 | |
| DB0UT-7 | 2026-09-01 11:12:27 | 48.27448 | 11.86959 | 73° | 75km/h | 8285m | 4.6m/s | -29.9°C | 15.1% | 357.3hPa | 2.9V | 00:00:00 | 00:42:46 | 00:00:00 | |
| OE5WHR-10 | 2026-09-01 11:12:26 | 48.27442 | 11.86931 | 75° | 75km/h | 8281m | 4.4m/s | -29.8°C | 15.2% | 357.6hPa | 2.9V | 00:00:00 | 00:00:00 | 00:00:00 | |
| PG1ADW-2 | 2026-09-01 11:12:23 | 48.27428 | 11.86845 | 77° | 75km/h | 8270m | 3.9m/s | -29.8°C | 15.1% | 358.1hPa | 2.9V | 00:00:00 | 00:00:00 | 08:30:00 | |
| DO3MHA-11 | 2026-09-01 11:12:21 | 48.27418 | 11.86790 | 75° | 75km/h | 8263m | 4.5m/s | -29.7°C | 14.8% | 358.5hPa | 2.7V | 00:00:00 | 00:42:40 | 00:00:00 | |
| OE3JTB-15 | 2026-09-01 11:12:15 | 48.27390 | 11.86625 | 78° | 75km/h | 8238m | 3.5m/s | -29.5°C | 14.5% | 359.7hPa | 2.7V | 00:00:00 | 00:00:00 | 00:00:00 | |
| DO3MHA-11 | 2026-09-01 11:12:11 | 48.27374 | 11.86515 | 76° | 75km/h | 8222m | 4.4m/s | -29.3°C | 14.1% | 360.6hPa | 2.7V | 00:00:00 | 00:42:30 | 00:00:00 | |
| OE5DXL-15 | 2026-09-01 11:12:10 | 48.27369 | 11.86488 | 74° | 75km/h | 8218m | 3.3m/s | -29.2°C | 13.9% | 360.7hPa | 2.7V | 00:00:00 | 00:00:00 | 00:00:00 | |
| OE5WHR-10 | 2026-09-01 11:12:05 | 48.27341 | 11.86351 | 75° | 75km/h | 8199m | 3.0m/s | -29.1°C | 12.7% | 361.7hPa | 2.7V | 00:00:00 | 00:42:24 | 00:00:00 | |
| PG1ADW-2 | 2026-09-01 11:12:03 | 48.27331 | 11.86295 | 77° | 75km/h | 8192m | 3.3m/s | -29.0°C | 12.7% | 362.1hPa | 2.7V | 00:00:00 | 00:42:22 | 00:00:00 | |
| OE5DRO-10 | 2026-09-01 11:12:02 | 48.27327 | 11.86268 | 76° | 75km/h | 8188m | 3.9m/s | -29.0°C | 12.6% | 362.2hPa | 2.7V | 00:00:00 | 00:00:00 | 00:00:00 | |
| DO3MHA-11 | 2026-09-01 11:12:01 | 48.27322 | 11.86240 | 75° | 73km/h | 8184m | 4.6m/s | -29.0°C | 12.5% | 362.4hPa | 2.7V | 00:00:00 | 00:42:20 | 08:30:00 | |
| DO3MHA-11 | 2026-09-01 11:11:51 | 48.27273 | 11.85975 | 72° | 75km/h | 8144m | 3.5m/s | -28.7°C | 12.0% | 364.5hPa | 2.9V | 00:00:00 | 00:42:10 | 00:00:00 | |
| OE3JTB-15 | 2026-09-01 11:11:46 | 48.27247 | 11.85833 | 77° | 75km/h | 8126m | 4.1m/s | -28.6°C | 12.2% | 365.4hPa | 2.9V | 00:00:00 | 00:42:05 | 00:00:00 | |
| OE5WHR-10 | 2026-09-01 11:11:44 | 48.27238 | 11.85779 | 77° | 75km/h | 8118m | 4.5m/s | -28.5°C | 12.2% | 365.8hPa | 2.9V | 00:00:00 | 00:00:00 | 00:00:00 | |
| PG1ADW-2 | 2026-09-01 11:11:43 | 48.27233 | 11.85752 | 76° | 75km/h | 8114m | 3.5m/s | -28.5°C | 12.2% | 366.0hPa | 2.9V | 00:00:00 | 00:00:00 | 00:00:00 | |
| DO3MHA-11 | 2026-09-01 11:11:41 | 48.27223 | 11.85699 | 74° | 77km/h | 8106m | 4.1m/s | -28.5°C | 12.2% | 366.4hPa | 2.9V | 00:00:00 | 00:42:00 | 00:00:00 | |
| OE5DXL-15 | 2026-09-01 11:11:40 | 48.27218 | 11.85673 | 73° | 77km/h | 8103m | 3.1m/s | -28.4°C | 12.2% | 366.5hPa | 2.9V | 00:00:00 | 00:00:00 | 00:00:00 | |
| DO3MHA-11 | 2026-09-01 11:11:31 | 48.27172 | 11.85421 | 76° | 77km/h | 8066m | 4.1m/s | -28.1°C | 12.4% | 368.5hPa | 2.9V | 00:00:00 | 00:41:50 | 00:00:00 | |
| DL6DJ-15 | 2026-09-01 11:11:30 | 48.27168 | 11.85394 | 76° | 73km/h | 8063m | 2.6m/s | -28.2°C | 11.2% | 368.7hPa | 2.9V | 00:00:00 | 00:00:00 | 00:00:00 | |
| OE5DRO-10 | 2026-09-01 11:11:24 | 48.27139 | 11.85227 | 76° | 78km/h | 8038m | 3.6m/s | -27.9°C | 12.0% | 369.9hPa | 2.9V | 00:00:00 | 00:00:00 | 00:00:00 | |
| OE5WHR-10 | 2026-09-01 11:11:23 | 48.27134 | 11.85199 | 76° | 77km/h | 8035m | 3.9m/s | -27.9°C | 11.9% | 370.1hPa | 2.9V | 00:00:00 | 00:00:00 | 00:00:00 | |
| DO3MHA-11 | 2026-09-01 11:11:21 | 48.27123 | 11.85142 | 73° | 77km/h | 8026m | 3.2m/s | -27.8°C | 12.0% | 370.5hPa | 2.9V | 00:00:00 | 00:41:40 | 00:00:00 | |
| OE3JTB-15 | 2026-09-01 11:11:17 | 48.27101 | 11.85030 | 75° | 77km/h | 8012m | 4.4m/s | -27.7°C | 12.2% | 371.3hPa | 2.9V | 00:00:00 | 00:00:00 | 08:30:00 | |
| DO3MHA-11 | 2026-09-01 11:11:11 | 48.27071 | 11.84861 | 78° | 77km/h | 7989m | 4.8m/s | -27.6°C | 11.6% | 372.4hPa | 2.9V | 00:00:00 | 00:41:30 | 00:00:00 | |
| OE5DXL-15 | 2026-09-01 11:11:10 | 48.27067 | 11.84831 | 78° | 77km/h | 7985m | 3.7m/s | -27.5°C | 11.1% | 372.6hPa | 2.9V | 00:00:00 | 00:00:00 | 00:00:00 | |
| OE5DRO-10 | 2026-09-01 11:11:05 | 48.27043 | 11.84686 | 75° | 77km/h | 7965m | 2.7m/s | -27.4°C | 10.8% | 373.7hPa | 2.9V | 00:00:00 | 00:00:00 | 00:00:00 | |
| PG1ADW-2 | 2026-09-01 11:11:03 | 48.27033 | 11.84633 | 73° | 77km/h | 7956m | 4.8m/s | -27.3°C | 11.4% | 374.1hPa | 2.9V | 00:00:00 | 00:00:00 | 00:00:00 | |
| DL6DJ-15 | 2026-09-01 11:10:59 | 48.27012 | 11.84526 | 74° | 75km/h | 7939m | 5.1m/s | -27.2°C | 9.8% | 375.1hPa | 2.9V | 00:00:00 | 00:00:00 | 00:00:00 | |
| DB0UT-7 | 2026-09-01 11:10:57 | 48.27003 | 11.84469 | 78° | 73km/h | 7931m | 4.7m/s | -27.1°C | 10.3% | 375.5hPa | 2.9V | 00:00:00 | 00:00:00 | 00:00:00 | |
| DO3MHA-11 | 2026-09-01 11:10:51 | 48.26974 | 11.84295 | 75° | 78km/h | 7907m | 4.1m/s | -26.9°C | 8.8% | 376.7hPa | 2.9V | 00:00:00 | 00:41:10 | 00:00:00 | |
| OE3JTB-15 | 2026-09-01 11:10:48 | 48.26958 | 11.84210 | 74° | 78km/h | 7894m | 3.7m/s | -26.9°C | 8.2% | 377.4hPa | 2.9V | 00:00:00 | 00:00:00 | 00:00:00 | |
| OE5DRO-10 | 2026-09-01 11:10:46 | 48.26947 | 11.84153 | 75° | 78km/h | 7886m | 2.6m/s | -26.9°C | 8.8% | 377.9hPa | 2.9V | 00:00:00 | 00:00:00 | 00:00:00 | |
| PG1ADW-2 | 2026-09-01 11:10:43 | 48.26932 | 11.84069 | 76° | 78km/h | 7875m | 4.3m/s | -26.9°C | 9.1% | 378.4hPa | 2.9V | 00:00:00 | 00:41:02 | 00:00:00 | |
| DO3MHA-11 | 2026-09-01 11:10:41 | 48.26922 | 11.84010 | 76° | 78km/h | 7867m | 3.7m/s | -26.8°C | 9.4% | 378.8hPa | 2.9V | 00:00:00 | 00:41:00 | 00:00:00 | |
| OE5DXL-15 | 2026-09-01 11:10:40 | 48.26917 | 11.83981 | 75° | 77km/h | 7864m | 4.2m/s | -26.8°C | 9.7% | 379.1hPa | 2.9V | 00:00:00 | 00:00:00 | 00:00:00 | |
| DO3MHA-11 | 2026-09-01 11:10:31 | 48.26868 | 11.83724 | 76° | 77km/h | 7829m | 3.8m/s | -26.6°C | 12.1% | 380.9hPa | 2.9V | 00:00:00 | 00:40:50 | 08:30:00 | |
| DL6DJ-15 | 2026-09-01 11:10:28 | 48.26853 | 11.83639 | 75° | 77km/h | 7818m | 4.0m/s | -26.6°C | 11.9% | 381.6hPa | 2.9V | 00:00:00 | 00:00:00 | 00:00:00 | |
| OE5DRO-10 | 2026-09-01 11:10:27 | 48.26848 | 11.83610 | 77° | 75km/h | 7814m | 3.9m/s | -26.5°C | 13.1% | 381.7hPa | 2.9V | 00:00:00 | 00:00:00 | 08:30:00 | |
| PG1ADW-2 | 2026-09-01 11:10:23 | 48.26830 | 11.83496 | 76° | 75km/h | 7799m | 3.5m/s | -26.4°C | 13.4% | 382.5hPa | 2.9V | 00:00:00 | 00:00:00 | 00:00:00 | |
| DO3MHA-11 | 2026-09-01 11:10:21 | 48.26820 | 11.83440 | 76° | 75km/h | 7791m | 3.6m/s | -26.3°C | 13.5% | 382.9hPa | 2.9V | 00:00:00 | 00:40:40 | 00:00:00 | |
| OE5WHR-10 | 2026-09-01 11:10:20 | 48.26816 | 11.83412 | 76° | 75km/h | 7787m | 4.0m/s | -26.2°C | 13.4% | 383.1hPa | 2.9V | 00:00:00 | 00:00:00 | 00:00:00 | |
| OE3JTB-15 | 2026-09-01 11:10:19 | 48.26811 | 11.83384 | 76° | 73km/h | 7783m | 3.5m/s | -26.2°C | 13.5% | 383.3hPa | 2.9V | 00:00:00 | 00:40:38 | 00:00:00 | |
| DO3MHA-11 | 2026-09-01 11:10:11 | 48.26770 | 11.83169 | 76° | 75km/h | 7751m | 3.4m/s | -25.9°C | 12.7% | 385.0hPa | 2.9V | 00:00:00 | 00:40:30 | 00:00:00 | |
| OE5DXL-15 | 2026-09-01 11:10:10 | 48.26765 | 11.83141 | 78° | 73km/h | 7747m | 5.0m/s | -25.9°C | 12.6% | 385.2hPa | 2.9V | 00:00:00 | 00:00:00 | 08:30:00 | |
| OE5DRO-10 | 2026-09-01 11:10:08 | 48.26758 | 11.83084 | 78° | 73km/h | 7739m | 4.2m/s | -25.8°C | 12.4% | 385.6hPa | 2.9V | 00:00:00 | 00:00:00 | 00:00:00 | |
| PG1ADW-2 | 2026-09-01 11:10:03 | 48.26734 | 11.82948 | 75° | 71km/h | 7721m | 3.3m/s | -25.6°C | 11.9% | 386.7hPa | 2.9V | 00:00:00 | 00:00:00 | 00:00:00 | |
| DL6DJ-15 | 2026-09-01 11:09:57 | 48.26706 | 11.82782 | 75° | 73km/h | 7697m | 4.7m/s | -25.5°C | 10.6% | 388.0hPa | 2.9V | 00:00:00 | 00:00:00 | 00:00:00 | |
| DO3MHA-11 | 2026-09-01 11:09:51 | 48.26681 | 11.82626 | 77° | 71km/h | 7673m | 3.4m/s | -25.2°C | 11.4% | 389.2hPa | 2.9V | 00:00:00 | 00:40:10 | 00:00:00 | |
| OE3JTB-15 | 2026-09-01 11:09:50 | 48.26677 | 11.82600 | 77° | 71km/h | 7670m | 3.5m/s | -25.2°C | 11.3% | 389.4hPa | 2.9V | 00:00:00 | 00:00:00 | 00:00:00 | |
| OE5DRO-10 | 2026-09-01 11:09:49 | 48.26673 | 11.82575 | 78° | 73km/h | 7666m | 4.9m/s | -25.2°C | 11.3% | 389.6hPa | 2.7V | 00:00:00 | 00:00:00 | 00:00:00 | |
| PG1ADW-2 | 2026-09-01 11:09:43 | 48.26649 | 11.82418 | 78° | 73km/h | 7641m | 3.4m/s | -24.9°C | 11.2% | 391.0hPa | 2.7V | 00:00:00 | 00:00:00 | 00:00:00 | |
| DO3MHA-11 | 2026-09-01 11:09:41 | 48.26640 | 11.82364 | 77° | 73km/h | 7633m | 3.6m/s | -24.9°C | 11.3% | 391.4hPa | 2.7V | 00:00:00 | 00:40:00 | 00:00:00 | |
| OE5DXL-15 | 2026-09-01 11:09:40 | 48.26636 | 11.82336 | 78° | 73km/h | 7630m | 3.7m/s | -24.8°C | 11.3% | 391.5hPa | 2.7V | 00:00:00 | 00:00:00 | 00:00:00 | |
| OE5WHR-10 | 2026-09-01 11:09:38 | 48.26629 | 11.82281 | 81° | 73km/h | 7622m | 3.9m/s | -24.8°C | 11.4% | 392.0hPa | 2.7V | 00:00:00 | 00:00:00 | 00:00:00 | |
| DO3MHA-11 | 2026-09-01 11:09:31 | 48.26602 | 11.82090 | 74° | 71km/h | 7593m | 4.6m/s | -24.6°C | 11.7% | 393.6hPa | 2.9V | 00:00:00 | 00:39:50 | 00:00:00 | |
| OE5DRO-10 | 2026-09-01 11:09:30 | 48.26596 | 11.82065 | 72° | 73km/h | 7589m | 2.9m/s | -24.5°C | 11.7% | 393.7hPa | 2.9V | 00:00:00 | 00:00:00 | 00:00:00 | |
| DL6DJ-15 | 2026-09-01 11:09:26 | 48.26576 | 11.81964 | 75° | 69km/h | 7572m | 4.7m/s | -24.4°C | 10.6% | 394.7hPa | 2.9V | 00:00:00 | 00:00:00 | 00:00:00 | |
| PG1ADW-2 | 2026-09-01 11:09:23 | 48.26564 | 11.81884 | 80° | 75km/h | 7561m | 3.6m/s | -24.3°C | 12.1% | 395.2hPa | 2.9V | 00:00:00 | 00:39:42 | 08:30:00 | |
| DO3MHA-11 | 2026-09-01 11:09:21 | 48.26557 | 11.81830 | 79° | 75km/h | 7552m | 3.8m/s | -24.3°C | 12.4% | 395.7hPa | 2.9V | 00:00:00 | 00:39:40 | 00:00:00 | |
| OE5WHR-10 | 2026-09-01 11:09:17 | 48.26543 | 11.81719 | 78° | 75km/h | 7537m | 4.6m/s | 0°C | 0% | 0hPa | 2.9V | 00:00:00 | 00:00:00 | 00:00:00 | |
| DO3MHA-11 | 2026-09-01 11:09:11 | 48.26516 | 11.81553 | 77° | 75km/h | 7512m | 5.4m/s | -24.1°C | 11.7% | 397.8hPa | 2.9V | 00:00:00 | 00:39:30 | 00:00:00 | |
| OE5DXL-15 | 2026-09-01 11:09:10 | 48.26512 | 11.81527 | 77° | 75km/h | 7508m | 3.9m/s | -24.0°C | 11.7% | 398.1hPa | 2.9V | 00:00:00 | 00:00:00 | 00:00:00 | |
| PG1ADW-2 | 2026-09-01 11:09:03 | 48.26483 | 11.81334 | 78° | 75km/h | 7475m | 4.8m/s | -23.7°C | 11.5% | 399.8hPa | 2.9V | 00:00:00 | 00:00:00 | 00:00:00 | |
| DL6DJ-15 | 2026-09-01 11:08:55 | 48.26443 | 11.81093 | 77° | 68km/h | 7428m | 5.3m/s | -23.3°C | 10.0% | 402.4hPa | 2.9V | 00:00:00 | 00:00:00 | 00:00:00 | |
| DF3TZ-5 | 2026-09-01 11:08:48 | 48.26425 | 11.80921 | 80° | 77km/h | 7397m | 5.7m/s | 0°C | -1.0% | -1.0hPa | 2.9V | 00:00:00 | 00:00:00 | 00:00:00 | |
| NBG1-10 | 2026-09-01 11:08:45 | 48.26414 | 11.80838 | 79° | 75km/h | 7381m | 5.2m/s | 0°C | 0% | 0hPa | 2.9V | 00:00:00 | 00:39:04 | 00:00:00 | |
| PG1ADW-2 | 2026-09-01 11:08:43 | 48.26406 | 11.80784 | 76° | 75km/h | 7369m | 7.1m/s | -22.8°C | 11.1% | 405.8hPa | 2.9V | 00:00:00 | 00:00:00 | 00:00:00 | |
| DO3MHA-11 | 2026-09-01 11:08:41 | 48.26395 | 11.80730 | 71° | 75km/h | 7355m | 5.8m/s | -22.8°C | 11.4% | 406.4hPa | 2.9V | 00:00:00 | 00:39:00 | 00:00:00 | |
| OE5DXL-15 | 2026-09-01 11:08:40 | 48.26388 | 11.80704 | 71° | 75km/h | 7349m | 5.3m/s | -22.7°C | 11.6% | 406.7hPa | 2.9V | 00:00:00 | 00:00:00 | 00:00:00 | |
| OE5DRO-10 | 2026-09-01 11:08:33 | 48.26352 | 11.80512 | 76° | 77km/h | 7309m | 4.1m/s | -22.6°C | 15.3% | 409.1hPa | 2.9V | 00:00:00 | 00:00:00 | 00:00:00 | |
| DO3MHA-11 | 2026-09-01 11:08:31 | 48.26343 | 11.80457 | 78° | 77km/h | 7298m | 5.6m/s | -22.5°C | 16.4% | 409.7hPa | 2.9V | 00:00:00 | 00:38:50 | 00:00:00 | |
| DL6DJ-15 | 2026-09-01 11:08:24 | 48.26312 | 11.80231 | 80° | 75km/h | 7253m | 5.3m/s | -22.2°C | 16.6% | 412.3hPa | 2.9V | 00:00:00 | 00:00:00 | 00:00:00 | |
| PG1ADW-2 | 2026-09-01 11:08:23 | 48.26312 | 11.80230 | 81° | 75km/h | 7253m | 5.3m/s | -22.2°C | 17.6% | 412.3hPa | 2.9V | 00:00:00 | 00:00:00 | 00:00:00 | |
| DO3MHA-11 | 2026-09-01 11:08:21 | 48.26305 | 11.80172 | 80° | 73km/h | 7240m | 6.9m/s | -22.1°C | 17.7% | 412.9hPa | 2.9V | 00:00:00 | 00:38:40 | 00:00:00 | |
| OE5DRO-10 | 2026-09-01 11:08:14 | 48.26275 | 11.79981 | 75° | 73km/h | 7197m | 4.9m/s | -21.8°C | 17.3% | 415.5hPa | 2.9V | 00:00:00 | 00:00:00 | 00:00:00 | |
| DB0UT-7 | 2026-09-01 11:08:13 | 48.26270 | 11.79956 | 75° | 73km/h | 7192m | 5.0m/s | -21.7°C | 17.3% | 415.8hPa | 2.9V | 00:00:00 | 00:38:32 | 00:00:00 | |
| DO3MHA-11 | 2026-09-01 11:08:11 | 48.26260 | 11.79906 | 75° | 75km/h | 7178m | 7.4m/s | -21.6°C | 17.0% | 416.5hPa | 2.9V | 00:00:00 | 00:38:30 | 00:00:00 | |
| OE5DXL-15 | 2026-09-01 11:08:10 | 48.26255 | 11.79877 | 75° | 75km/h | 7171m | 6.9m/s | -21.6°C | 16.8% | 416.9hPa | 2.9V | 00:00:00 | 00:00:00 | 00:00:00 | |
| PG1ADW-2 | 2026-09-01 11:08:03 | 48.26224 | 11.79683 | 79° | 73km/h | 7130m | 6.0m/s | -21.2°C | 16.7% | 419.2hPa | 2.9V | 00:00:00 | 00:38:22 | 00:00:00 | |
| DL6DJ-15 | 2026-09-01 11:07:53 | 48.26168 | 11.79384 | 74° | 73km/h | 7066m | 5.4m/s | -20.7°C | 16.4% | 422.9hPa | 2.9V | 00:00:00 | 00:00:00 | 00:00:00 | |
| DO3MHA-11 | 2026-09-01 11:07:51 | 48.26164 | 11.79356 | 77° | 71km/h | 7061m | 5.1m/s | -20.6°C | 17.6% | 423.2hPa | 2.9V | 00:00:00 | 00:38:10 | 00:00:00 | |
| DB0UT-7 | 2026-09-01 11:07:43 | 48.26134 | 11.79149 | 76° | 77km/h | 7019m | 7.1m/s | 0°C | 0% | 0hPa | 2.9V | 00:00:00 | 00:00:00 | 00:00:00 | |
| DO3MHA-11 | 2026-09-01 11:07:41 | 48.26123 | 11.79092 | 76° | 80km/h | 7007m | 5.8m/s | -20.2°C | 16.8% | 426.2hPa | 2.9V | 00:00:00 | 00:38:00 | 00:00:00 | |
| OE5DXL-15 | 2026-09-01 11:07:40 | 48.26118 | 11.79062 | 76° | 77km/h | 7001m | 5.0m/s | -20.1°C | 16.8% | 426.5hPa | 2.9V | 00:00:00 | 00:00:00 | 00:00:00 | |
| OE5DRO-10 | 2026-09-01 11:07:36 | 48.26095 | 11.78938 | 74° | 73km/h | 6981m | 6.0m/s | -20.0°C | 17.0% | 427.7hPa | 2.9V | 00:00:00 | 00:00:00 | 08:30:00 | |
| DO3MHA-11 | 2026-09-01 11:07:31 | 48.26071 | 11.78798 | 80° | 71km/h | 6951m | 6.1m/s | -19.7°C | 17.0% | 429.4hPa | 2.9V | 00:00:00 | 00:37:50 | 08:30:00 | |
| OE3JTB-15 | 2026-09-01 11:07:25 | 48.26047 | 11.78643 | 77° | 77km/h | 6918m | 7.3m/s | -19.4°C | 16.8% | 431.4hPa | 2.7V | 00:00:00 | 00:37:44 | 00:00:00 | |
| PG1ADW-2 | 2026-09-01 11:07:23 | 48.26039 | 11.78590 | 76° | 80km/h | 6904m | 5.1m/s | -19.3°C | 16.7% | 432.1hPa | 2.7V | 00:00:00 | 00:00:00 | 00:00:00 | |
| DL6DJ-15 | 2026-09-01 11:07:22 | 48.26028 | 11.78537 | 72° | 75km/h | 6897m | 4.8m/s | -19.3°C | 15.4% | 432.7hPa | 2.7V | 00:00:00 | 00:00:00 | 00:00:00 | |
| DO3MHA-11 | 2026-09-01 11:07:21 | 48.26028 | 11.78536 | 73° | 78km/h | 6897m | 4.7m/s | -19.2°C | 16.2% | 432.7hPa | 2.7V | 00:00:00 | 00:37:40 | 00:00:00 | |
| OE5DRO-10 | 2026-09-01 11:07:17 | 48.26007 | 11.78426 | 77° | 78km/h | 6871m | 5.4m/s | -19.1°C | 15.5% | 434.0hPa | 2.7V | 00:00:00 | 00:00:00 | 00:00:00 | |
| DB0UT-7 | 2026-09-01 11:07:13 | 48.25984 | 11.78309 | 71° | 80km/h | 6848m | 4.9m/s | 0°C | 0% | 0hPa | 2.7V | 00:00:00 | 00:37:32 | 00:00:00 | |
| DO3MHA-11 | 2026-09-01 11:07:11 | 48.25971 | 11.78250 | 71° | 80km/h | 6841m | 5.0m/s | -18.8°C | 12.7% | 435.8hPa | 2.7V | 00:00:00 | 00:37:30 | 00:00:00 | |
| OE5WHR-10 | 2026-09-01 11:07:10 | 48.25964 | 11.78220 | 73° | 78km/h | 6835m | 6.0m/s | 0°C | 0% | 0hPa | 2.7V | 00:00:00 | 00:00:00 | 00:00:00 | |
| PG1ADW-2 | 2026-09-01 11:07:03 | 48.25929 | 11.78010 | 77° | 77km/h | 6796m | 7.0m/s | -18.4°C | 9.4% | 438.6hPa | 2.7V | 00:00:00 | 00:00:00 | 00:00:00 | |
| DL6DJ-15 | 2026-09-01 11:06:52 | 48.25872 | 11.77639 | 74° | 82km/h | 6722m | 6.1m/s | -18.0°C | 8.6% | 443.2hPa | 2.7V | 00:00:00 | 00:00:00 | 00:00:00 | |
| OE5WHR-10 | 2026-09-01 11:06:49 | 48.25866 | 11.77608 | 77° | 77km/h | 6716m | 7.0m/s | 0°C | 0% | 0hPa | 2.7V | 00:00:00 | 00:00:00 | 00:00:00 | |
| PG1ADW-2 | 2026-09-01 11:06:43 | 48.25842 | 11.77442 | 77° | 77km/h | 6682m | 6.1m/s | -17.6°C | 9.5% | 445.4hPa | 2.7V | 00:00:00 | 00:37:02 | 00:00:00 | |
| DO3MHA-11 | 2026-09-01 11:06:41 | 48.25835 | 11.77392 | 80° | 80km/h | 6672m | 3.4m/s | -17.5°C | 9.7% | 446.1hPa | 2.7V | 00:00:00 | 00:37:00 | 00:00:00 | |
| OE5DXL-15 | 2026-09-01 11:06:40 | 48.25831 | 11.77365 | 78° | 77km/h | 6667m | 5.9m/s | -17.4°C | 9.7% | 446.4hPa | 2.7V | 00:00:00 | 00:00:00 | 00:00:00 | |
| OE5DRO-10 | 2026-09-01 11:06:39 | 48.25827 | 11.77338 | 79° | 77km/h | 6661m | 5.9m/s | -17.4°C | 9.7% | 446.7hPa | 2.7V | 00:00:00 | 00:00:00 | 00:00:00 | |
| DO3MHA-11 | 2026-09-01 11:06:31 | 48.25783 | 11.77098 | 71° | 75km/h | 6624m | 3.6m/s | -17.2°C | 10.9% | 448.9hPa | 2.9V | 00:00:00 | 00:36:50 | 00:00:00 | |
| OE3JTB-15 | 2026-09-01 11:06:27 | 48.25760 | 11.76994 | 74° | 75km/h | 6607m | 4.3m/s | -17.1°C | 12.0% | 450.1hPa | 2.9V | 00:00:00 | 00:00:00 | 00:00:00 | |
| PG1ADW-2 | 2026-09-01 11:06:23 | 48.25738 | 11.76883 | 75° | 75km/h | 6585m | 5.9m/s | -17.0°C | 13.8% | 451.3hPa | 2.9V | 00:00:00 | 00:00:00 | 08:30:00 | |
| DO3MHA-11 | 2026-09-01 11:06:21 | 48.25730 | 11.76828 | 80° | 77km/h | 6575m | 3.7m/s | -16.9°C | 15.5% | 452.0hPa | 2.9V | 00:00:00 | 00:36:40 | 00:00:00 | |
| DL6DJ-15 | 2026-09-01 11:06:20 | 48.25723 | 11.76772 | 79° | 78km/h | 6564m | 7.5m/s | -16.9°C | 15.7% | 452.7hPa | 2.9V | 00:00:00 | 00:00:00 | 00:00:00 | |
| DO3MHA-11 | 2026-09-01 11:06:11 | 48.25679 | 11.76549 | 76° | 73km/h | 6518m | 6.9m/s | -16.5°C | 18.9% | 455.4hPa | 2.9V | 00:00:00 | 00:36:30 | 00:00:00 | |
| OE5DXL-15 | 2026-09-01 11:06:10 | 48.25675 | 11.76524 | 79° | 73km/h | 6511m | 6.9m/s | -16.5°C | 19.0% | 455.8hPa | 2.9V | 00:00:00 | 00:00:00 | 00:00:00 | |
| OE5WHR-10 | 2026-09-01 11:06:07 | 48.25669 | 11.76443 | 86° | 69km/h | 6496m | 5.7m/s | 0°C | 0% | 0hPa | 2.9V | 00:00:00 | 00:00:00 | 00:00:00 | |
| PG1ADW-2 | 2026-09-01 11:06:03 | 48.25656 | 11.76333 | 73° | 73km/h | 6472m | 4.1m/s | -16.2°C | 19.9% | 458.1hPa | 2.9V | 00:00:00 | 00:00:00 | 00:00:00 | |
| DL6DJ-15 | 2026-09-01 11:05:48 | 48.25598 | 11.75933 | 73° | 71km/h | 6395m | 5.1m/s | -15.7°C | 20.7% | 463.0hPa | 2.9V | 00:00:00 | 00:00:00 | 00:00:00 | |
| PG1ADW-2 | 2026-09-01 11:05:43 | 48.25567 | 11.75795 | 73° | 73km/h | 6366m | 4.7m/s | -15.5°C | 20.7% | 464.7hPa | 2.9V | 00:00:00 | 00:00:00 | 00:00:00 | |
| OE5DRO-10 | 2026-09-01 11:05:42 | 48.25561 | 11.75767 | 73° | 73km/h | 6362m | 3.1m/s | -15.4°C | 20.0% | 464.9hPa | 2.9V | 00:00:00 | 00:00:00 | 00:00:00 | |
| DO3MHA-11 | 2026-09-01 11:05:40 | 48.25551 | 11.75712 | 76° | 71km/h | 6351m | 7.1m/s | -15.3°C | 17.7% | 465.6hPa | 2.9V | 00:00:00 | 00:35:59 | 00:00:00 | |
| DO3MHA-11 | 2026-09-01 11:05:30 | 48.25517 | 11.75443 | 73° | 71km/h | 6297m | 4.3m/s | -14.9°C | 10.5% | 468.7hPa | 2.9V | 00:00:00 | 00:35:49 | 00:00:00 | |
| OE3JTB-15 | 2026-09-01 11:05:29 | 48.25512 | 11.75418 | 73° | 69km/h | 6293m | 4.7m/s | -14.9°C | 10.1% | 469.0hPa | 2.7V | 00:00:00 | 00:00:00 | 00:00:00 | |
| PG1ADW-2 | 2026-09-01 11:05:23 | 48.25483 | 11.75259 | 77° | 69km/h | 6261m | 5.1m/s | -14.6°C | 8.3% | 471.0hPa | 2.9V | 00:00:00 | 00:35:42 | 00:00:00 | |
| DO3MHA-11 | 2026-09-01 11:05:20 | 48.25471 | 11.75182 | 75° | 68km/h | 6249m | 4.2m/s | -14.4°C | 8.3% | 471.8hPa | 2.9V | 00:00:00 | 00:35:39 | 00:00:00 | |
| DL6DJ-15 | 2026-09-01 11:05:17 | 48.25459 | 11.75108 | 78° | 69km/h | 6235m | 3.7m/s | -14.4°C | 7.7% | 472.6hPa | 2.9V | 00:00:00 | 00:00:00 | 00:00:00 | |
| DO3MHA-11 | 2026-09-01 11:05:10 | 48.25431 | 11.74932 | 73° | 69km/h | 6199m | 4.1m/s | -14.3°C | 7.7% | 474.9hPa | 2.9V | 00:00:00 | 00:35:29 | 00:00:00 | |
| OE5DRO-10 | 2026-09-01 11:05:04 | 48.25404 | 11.74775 | 84° | 68km/h | 6165m | 5.7m/s | -14.2°C | 9.0% | 476.9hPa | 2.9V | 00:00:00 | 00:00:00 | 00:00:00 | |
| PG1ADW-2 | 2026-09-01 11:05:03 | 48.25402 | 11.74749 | 85° | 68km/h | 6161m | 4.0m/s | -14.2°C | 9.3% | 477.1hPa | 2.9V | 00:00:00 | 00:00:00 | 00:00:00 | |
| DL6DJ-15 | 2026-09-01 11:04:47 | 48.25345 | 11.74319 | 77° | 64km/h | 6082m | 6.0m/s | -14.0°C | 11.3% | 482.6hPa | 2.9V | 00:00:00 | 00:00:00 | 00:00:00 | |
| OE5DRO-10 | 2026-09-01 11:04:45 | 48.25341 | 11.74295 | 75° | 60km/h | 6076m | 7.5m/s | -14.0°C | 11.6% | 482.9hPa | 2.9V | 00:00:00 | 00:00:00 | 08:30:00 | |
| PG1ADW-2 | 2026-09-01 11:04:43 | 48.25332 | 11.74252 | 72° | 60km/h | 6061m | 7.2m/s | 0°C | 0% | 0hPa | 2.9V | 00:00:00 | 00:00:00 | 00:00:00 | |
| DO3MHA-11 | 2026-09-01 11:04:40 | 48.25319 | 11.74193 | 73° | 57km/h | 6045m | 4.4m/s | -14.0°C | 10.1% | 484.7hPa | 2.9V | 00:00:00 | 00:34:59 | 00:00:00 | |
| OE3JTB-15 | 2026-09-01 11:04:31 | 48.25289 | 11.74003 | 76° | 68km/h | 6000m | 5.9m/s | -14.1°C | 10.9% | 487.4hPa | 2.9V | 00:00:00 | 00:34:50 | 00:00:00 | |
| DO3MHA-11 | 2026-09-01 11:04:30 | 48.25285 | 11.73982 | 73° | 69km/h | 5994m | 6.2m/s | -14.1°C | 12.0% | 487.8hPa | 2.9V | 00:00:00 | 00:34:49 | 08:30:00 | |
| OE5DRO-10 | 2026-09-01 11:04:26 | 48.25266 | 11.73882 | 77° | 69km/h | 5976m | 5.7m/s | -14.3°C | 18.4% | 489.2hPa | 2.9V | 00:00:00 | 00:00:00 | 00:00:00 | |
| PG1ADW-2 | 2026-09-01 11:04:23 | 48.25256 | 11.73802 | 82° | 68km/h | 5959m | 4.9m/s | 0°C | 0% | 0hPa | 2.9V | 00:00:00 | 00:00:00 | 00:00:00 | |
| DO3MHA-11 | 2026-09-01 11:04:20 | 48.25247 | 11.73722 | 79° | 69km/h | 5945m | 3.1m/s | -14.2°C | 21.6% | 491.1hPa | 2.9V | 00:00:00 | 00:34:39 | 00:00:00 | |
| DL6DJ-15 | 2026-09-01 11:04:15 | 48.25229 | 11.73590 | 77° | 71km/h | 5916m | 6.9m/s | -14.2°C | 21.4% | 492.9hPa | 2.9V | 00:00:00 | 00:00:00 | 00:00:00 | |
| DO3MHA-11 | 2026-09-01 11:04:10 | 48.25209 | 11.73464 | 80° | 66km/h | 5891m | 4.2m/s | -14.0°C | 23.6% | 494.4hPa | 2.9V | 00:00:00 | 00:34:29 | 00:00:00 | |
| OE5DRO-10 | 2026-09-01 11:04:07 | 48.25201 | 11.73392 | 79° | 66km/h | 5877m | 5.7m/s | -14.0°C | 24.4% | 495.3hPa | 2.9V | 00:00:00 | 00:00:00 | 00:00:00 | |
| PG1ADW-2 | 2026-09-01 11:04:03 | 48.25182 | 11.73299 | 72° | 68km/h | 5862m | 4.1m/s | 0°C | 0% | 0hPa | 2.9V | 00:00:00 | 00:34:22 | 00:00:00 | |
| OE3JTB-15 | 2026-09-01 11:04:02 | 48.25177 | 11.73275 | 69° | 66km/h | 5857m | 5.6m/s | -13.9°C | 25.5% | 496.5hPa | 2.9V | 00:00:00 | 00:00:00 | 00:00:00 | |
| DO3MHA-11 | 2026-09-01 11:04:00 | 48.25164 | 11.73224 | 71° | 66km/h | 5847m | 3.5m/s | -13.9°C | 25.1% | 497.2hPa | 2.9V | 00:00:00 | 00:34:19 | 00:00:00 | |
| DO3MHA-11 | 2026-09-01 11:03:50 | 48.25136 | 11.72978 | 82° | 68km/h | 5797m | 6.4m/s | -13.6°C | 20.8% | 501.0hPa | 2.9V | 00:00:00 | 00:34:09 | 00:00:00 | |
| OE5DRO-10 | 2026-09-01 11:03:48 | 48.25133 | 11.72932 | 89° | 68km/h | 5785m | 5.4m/s | -13.5°C | 21.0% | 501.7hPa | 2.9V | 00:00:00 | 00:00:00 | 00:00:00 | |
| DL6DJ-15 | 2026-09-01 11:03:44 | 48.25131 | 11.72829 | 83° | 71km/h | 5762m | 4.3m/s | -13.4°C | 21.0% | 503.1hPa | 2.9V | 00:00:00 | 00:00:00 | 00:00:00 | |
| PG1ADW-2 | 2026-09-01 11:03:42 | 48.25125 | 11.72776 | 82° | 64km/h | 5755m | 3.3m/s | 0°C | 0% | 0hPa | 2.9V | 00:00:00 | 00:00:00 | 00:00:00 | |
| DO3MHA-11 | 2026-09-01 11:03:40 | 48.25121 | 11.72723 | 85° | 66km/h | 5745m | 5.4m/s | -13.2°C | 22.5% | 504.2hPa | 2.9V | 00:00:00 | 00:33:59 | 00:00:00 | |
| OE3JTB-15 | 2026-09-01 11:03:33 | 48.25114 | 11.72550 | 83° | 60km/h | 5707m | 4.1m/s | -13.0°C | 21.1% | 506.7hPa | 2.9V | 00:00:00 | 00:00:00 | 00:00:00 | |
| DO3MHA-11 | 2026-09-01 11:03:30 | 48.25108 | 11.72477 | 83° | 62km/h | 5692m | 6.3m/s | -12.9°C | 20.7% | 507.7hPa | 2.9V | 00:00:00 | 00:33:49 | 00:00:00 | |
| OE5DRO-10 | 2026-09-01 11:03:29 | 48.25105 | 11.72452 | 81° | 62km/h | 5686m | 5.5m/s | -12.9°C | 20.8% | 508.1hPa | 2.9V | 00:00:00 | 00:00:00 | 00:00:00 | |
| DO3MHA-11 | 2026-09-01 11:03:20 | 48.25089 | 11.72245 | 81° | 62km/h | 5643m | 6.1m/s | -12.9°C | 22.1% | 511.1hPa | 2.9V | 00:00:00 | 00:33:39 | 00:00:00 | |
| DL6DJ-15 | 2026-09-01 11:03:13 | 48.25072 | 11.72084 | 82° | 64km/h | 5608m | 5.4m/s | -12.8°C | 20.6% | 513.5hPa | 2.9V | 00:00:00 | 00:00:00 | 00:00:00 | |
| PG1ADW-2 | 2026-09-01 11:03:11 | 48.25069 | 11.72037 | 86° | 57km/h | 5596m | 6.3m/s | 0°C | 0% | 0hPa | 2.9V | 00:00:00 | 00:00:00 | 00:00:00 | |
| DO3MHA-11 | 2026-09-01 11:03:10 | 48.25069 | 11.72015 | 90° | 55km/h | 5590m | 6.6m/s | -12.8°C | 22.0% | 514.6hPa | 2.9V | 00:00:00 | 00:33:29 | 00:00:00 | |
| OE3JTB-15 | 2026-09-01 11:03:02 | 48.25060 | 11.71846 | 84° | 57km/h | 5549m | 5.1m/s | -12.5°C | 24.1% | 517.6hPa | 2.9V | 00:00:00 | 00:33:21 | 00:00:00 | |
| DO3MHA-11 | 2026-09-01 11:03:00 | 48.25059 | 11.71809 | 90° | 58km/h | 5539m | 5.0m/s | -12.4°C | 24.2% | 518.1hPa | 2.9V | 00:00:00 | 00:33:19 | 08:30:00 | |
| OE5DRO-10 | 2026-09-01 11:02:51 | 48.25051 | 11.71608 | 93° | 58km/h | 5489m | 5.7m/s | -12.2°C | 23.9% | 521.5hPa | 2.9V | 00:00:00 | 00:00:00 | 00:00:00 | |
| DO3MHA-11 | 2026-09-01 11:02:50 | 48.25052 | 11.71585 | 93° | 58km/h | 5484m | 5.1m/s | -12.2°C | 23.9% | 522.0hPa | 2.9V | 00:00:00 | 00:33:09 | 00:00:00 | |
| DL6DJ-15 | 2026-09-01 11:02:42 | 48.25037 | 11.71406 | 85° | 53km/h | 5444m | 6.7m/s | -12.1°C | 23.3% | 524.6hPa | 2.9V | 00:00:00 | 00:00:00 | 00:00:00 | |
| DO3MHA-11 | 2026-09-01 11:02:40 | 48.25036 | 11.71364 | 94° | 57km/h | 5431m | 6.3m/s | -12.0°C | 24.0% | 525.4hPa | 2.9V | 00:00:00 | 00:32:59 | 00:00:00 | |
| OE5DRO-10 | 2026-09-01 11:02:32 | 48.25039 | 11.71189 | 84° | 57km/h | 5381m | 3.6m/s | -11.7°C | 24.9% | 528.6hPa | 2.9V | 00:00:00 | 00:00:00 | 00:00:00 | |
| DO3MHA-11 | 2026-09-01 11:02:30 | 48.25036 | 11.71148 | 82° | 58km/h | 5372m | 4.5m/s | -11.6°C | 24.8% | 529.3hPa | 2.9V | 00:00:00 | 00:32:49 | 00:00:00 | |
| OE5DXL-15 | 2026-09-01 11:02:21 | 48.25030 | 11.70952 | 96° | 55km/h | 5321m | 4.7m/s | -11.4°C | 28.2% | 532.7hPa | 2.9V | 00:00:00 | 00:00:00 | 00:00:00 | |
| DO3MHA-11 | 2026-09-01 11:02:20 | 48.25031 | 11.70932 | 92° | 57km/h | 5316m | 4.1m/s | -11.3°C | 28.6% | 533.1hPa | 2.9V | 00:00:00 | 00:32:39 | 00:00:00 | |
| OE5DRO-10 | 2026-09-01 11:02:13 | 48.25027 | 11.70782 | 87° | 55km/h | 5280m | 5.3m/s | -11.1°C | 29.7% | 535.6hPa | 2.9V | 00:00:00 | 00:00:00 | 00:00:00 | |
| DL6DJ-15 | 2026-09-01 11:02:11 | 48.25026 | 11.70740 | 89° | 53km/h | 5271m | 6.1m/s | -11.1°C | 29.4% | 536.3hPa | 2.9V | 00:00:00 | 00:00:00 | 00:00:00 | |
| DO3MHA-11 | 2026-09-01 11:02:10 | 48.25026 | 11.70720 | 91° | 55km/h | 5265m | 6.5m/s | -11.0°C | 30.0% | 536.6hPa | 2.9V | 00:00:00 | 00:32:29 | 00:00:00 | |
| DO3MHA-11 | 2026-09-01 11:02:00 | 48.25029 | 11.70513 | 88° | 55km/h | 5212m | 4.1m/s | -10.5°C | 27.2% | 540.4hPa | 2.9V | 00:00:00 | 00:32:19 | 00:00:00 | |
| DO3MHA-11 | 2026-09-01 11:01:50 | 48.25033 | 11.70304 | 92° | 55km/h | 5174m | 3.9m/s | -10.3°C | 29.4% | 543.1hPa | 2.9V | 00:00:00 | 00:32:09 | 00:00:00 | |
| OE5DXL-15 | 2026-09-01 11:01:45 | 48.25036 | 11.70200 | 96° | 58km/h | 5155m | 3.7m/s | -10.2°C | 29.0% | 544.4hPa | 2.9V | 00:00:00 | 00:00:00 | 00:00:00 | |
| DO3MHA-11 | 2026-09-01 11:01:40 | 48.25040 | 11.70094 | 92° | 57km/h | 5137m | 4.0m/s | -10.1°C | 30.7% | 545.7hPa | 2.9V | 00:00:00 | 00:31:59 | 00:00:00 | |
| OE5DRO-10 | 2026-09-01 11:01:35 | 48.25046 | 11.69990 | 98° | 57km/h | 5115m | 3.2m/s | -10.0°C | 31.7% | 547.3hPa | 2.9V | 00:00:00 | 00:00:00 | 00:00:00 | |
| DO3MHA-11 | 2026-09-01 11:01:30 | 48.25055 | 11.69882 | 97° | 57km/h | 5094m | 5.5m/s | -9.8°C | 32.5% | 548.8hPa | 2.9V | 00:00:00 | 00:31:49 | 08:30:00 | |
| DO3MHA-11 | 2026-09-01 11:01:20 | 48.25060 | 11.69666 | 95° | 60km/h | 5055m | 3.7m/s | -9.5°C | 33.1% | 551.6hPa | 2.9V | 00:00:00 | 00:31:39 | 00:00:00 | |
| OE5DRO-10 | 2026-09-01 11:01:16 | 48.25069 | 11.69577 | 97° | 60km/h | 5039m | 4.5m/s | -9.4°C | 33.4% | 552.7hPa | 2.9V | 00:00:00 | 00:00:00 | 00:00:00 | |
| DO3MHA-11 | 2026-09-01 11:01:10 | 48.25075 | 11.69438 | 94° | 60km/h | 5014m | 3.9m/s | -9.2°C | 34.0% | 554.5hPa | 2.9V | 00:00:00 | 00:31:29 | 00:00:00 | |
| DL6DJ-15 | 2026-09-01 11:01:09 | 48.25076 | 11.69416 | 93° | 58km/h | 5010m | 4.4m/s | -9.3°C | 33.7% | 554.9hPa | 2.9V | 00:00:00 | 00:00:00 | 00:00:00 | |
| OE5DXL-15 | 2026-09-01 11:01:05 | 48.25082 | 11.69327 | 95° | 60km/h | 4993m | 3.5m/s | -9.1°C | 35.0% | 556.1hPa | 2.9V | 00:00:00 | 00:00:00 | 00:00:00 | |
| DO3MHA-11 | 2026-09-01 11:01:00 | 48.25083 | 11.69212 | 88° | 60km/h | 4972m | 4.9m/s | -8.9°C | 34.9% | 557.7hPa | 2.9V | 00:00:00 | 00:31:19 | 00:00:00 | |
| OE5DRO-10 | 2026-09-01 11:00:57 | 48.25081 | 11.69143 | 92° | 60km/h | 4960m | 3.9m/s | -8.8°C | 35.0% | 558.4hPa | 2.9V | 00:00:00 | 00:00:00 | 00:00:00 | |
| DO3MHA-11 | 2026-09-01 11:00:50 | 48.25084 | 11.68986 | 92° | 62km/h | 4927m | 3.5m/s | -8.5°C | 34.3% | 560.9hPa | 2.9V | 00:00:00 | 00:31:09 | 00:00:00 | |
| OE3JTB-15 | 2026-09-01 11:00:49 | 48.25084 | 11.68964 | 93° | 60km/h | 4922m | 5.3m/s | -8.4°C | 33.9% | 561.2hPa | 2.9V | 00:00:00 | 00:31:08 | 00:00:00 | |
| DO3MHA-11 | 2026-09-01 11:00:40 | 48.25088 | 11.68752 | 93° | 60km/h | 4880m | 4.9m/s | -8.0°C | 33.5% | 564.3hPa | 2.9V | 00:00:00 | 00:30:59 | 00:00:00 | |
| DL6DJ-15 | 2026-09-01 11:00:38 | 48.25091 | 11.68686 | 92° | 57km/h | 4866m | 4.1m/s | -7.9°C | 32.9% | 565.4hPa | 2.9V | 00:00:00 | 00:00:00 | 00:00:00 | |
| OE5DXL-15 | 2026-09-01 11:00:35 | 48.25091 | 11.68641 | 89° | 66km/h | 4857m | 5.0m/s | -7.8°C | 33.1% | 565.9hPa | 2.9V | 00:00:00 | 00:00:00 | 08:30:00 | |
| DO3MHA-11 | 2026-09-01 11:00:30 | 48.25092 | 11.68523 | 94° | 58km/h | 4837m | 4.3m/s | -7.6°C | 32.8% | 567.5hPa | 2.9V | 00:00:00 | 00:30:49 | 00:00:00 | |
| DO3MHA-11 | 2026-09-01 11:00:20 | 48.25098 | 11.68299 | 96° | 64km/h | 4793m | 4.7m/s | -7.2°C | 31.9% | 570.8hPa | 2.9V | 00:00:00 | 00:30:39 | 00:00:00 | |
| OE5DRO-10 | 2026-09-01 11:00:19 | 48.25099 | 11.68276 | 97° | 62km/h | 4788m | 5.5m/s | 0°C | 0% | 0hPa | 2.9V | 00:00:00 | 00:00:00 | 00:00:00 | |
| DO3MHA-11 | 2026-09-01 11:00:10 | 48.25112 | 11.68060 | 94° | 60km/h | 4744m | 7.4m/s | -6.7°C | 31.2% | 574.4hPa | 2.9V | 00:00:00 | 00:30:29 | 00:00:00 | |
| DL6DJ-15 | 2026-09-01 11:00:07 | 48.25119 | 11.67966 | 91° | 58km/h | 4716m | 6.7m/s | -6.5°C | 30.8% | 576.4hPa | 2.9V | 00:00:00 | 00:00:00 | 00:00:00 | |
| DO3MHA-11 | 2026-09-01 11:00:00 | 48.25114 | 11.67836 | 91° | 58km/h | 4682m | 5.2m/s | -6.1°C | 30.9% | 578.8hPa | 2.9V | 00:00:00 | 00:30:19 | 08:30:00 | |
| OE3JTB-15 | 2026-09-01 10:59:51 | 48.25127 | 11.67635 | 94° | 60km/h | 4634m | 4.0m/s | -5.7°C | 32.0% | 582.3hPa | 2.9V | 00:00:00 | 00:00:00 | 00:00:00 | |
| DO3MHA-11 | 2026-09-01 10:59:50 | 48.25128 | 11.67611 | 93° | 58km/h | 4630m | 5.1m/s | -5.7°C | 32.1% | 582.5hPa | 2.9V | 00:00:00 | 00:30:09 | 00:00:00 | |
| OE5DRO-10 | 2026-09-01 10:59:41 | 48.25129 | 11.67414 | 88° | 58km/h | 4591m | 4.7m/s | 0°C | 0% | 0hPa | 2.9V | 00:00:00 | 00:00:00 | 00:00:00 | |
| DO3MHA-11 | 2026-09-01 10:59:40 | 48.25129 | 11.67393 | 91° | 60km/h | 4586m | 5.2m/s | -5.4°C | 32.4% | 586.0hPa | 2.9V | 00:00:00 | 00:29:59 | 00:00:00 | |
| DL6DJ-15 | 2026-09-01 10:59:36 | 48.25130 | 11.67278 | 92° | 62km/h | 4562m | 4.9m/s | -5.3°C | 32.2% | 587.7hPa | 2.9V | 00:00:00 | 00:00:00 | 00:00:00 | |
| DO3MHA-11 | 2026-09-01 10:59:30 | 48.25132 | 11.67163 | 93° | 58km/h | 4541m | 5.7m/s | -5.2°C | 33.8% | 589.4hPa | 2.9V | 00:00:00 | 00:29:49 | 00:00:00 | |
| DO3MHA-11 | 2026-09-01 10:59:20 | 48.25128 | 11.66943 | 84° | 60km/h | 4500m | 2.5m/s | -4.9°C | 33.5% | 592.4hPa | 2.9V | 00:00:00 | 00:29:39 | 00:00:00 | |
| OE3JTB-15 | 2026-09-01 10:59:16 | 48.25124 | 11.66849 | 89° | 62km/h | 4485m | 4.6m/s | -4.8°C | 33.1% | 593.6hPa | 2.9V | 00:00:00 | 00:29:35 | 00:00:00 | |
| DO3MHA-11 | 2026-09-01 10:59:10 | 48.25120 | 11.66714 | 86° | 64km/h | 4460m | 3.7m/s | -4.6°C | 33.0% | 595.4hPa | 2.9V | 00:00:00 | 00:29:29 | 00:00:00 | |
| DL6DJ-15 | 2026-09-01 10:59:05 | 48.25112 | 11.66572 | 87° | 64km/h | 4436m | 4.5m/s | -4.6°C | 29.9% | 597.4hPa | 2.9V | 00:00:00 | 00:00:00 | 00:00:00 | |
| OE5DRO-10 | 2026-09-01 10:59:01 | 48.25108 | 11.66500 | 85° | 64km/h | 4425m | 3.2m/s | 0°C | 0% | 0hPa | 2.9V | 00:00:00 | 00:00:00 | 00:00:00 | |
| DO3MHA-11 | 2026-09-01 10:59:00 | 48.25107 | 11.66476 | 86° | 64km/h | 4421m | 5.6m/s | -4.5°C | 29.1% | 598.5hPa | 2.9V | 00:00:00 | 00:29:19 | 00:00:00 | |
| DO3MHA-11 | 2026-09-01 10:58:50 | 48.25091 | 11.66235 | 82° | 62km/h | 4378m | 4.7m/s | -4.2°C | 26.0% | 601.8hPa | 2.9V | 00:00:00 | 00:29:09 | 00:00:00 | |
| OE3JTB-15 | 2026-09-01 10:58:47 | 48.25084 | 11.66164 | 82° | 66km/h | 4367m | 3.3m/s | -4.1°C | 25.9% | 602.7hPa | 2.9V | 00:00:00 | 00:00:00 | 00:00:00 | |
| DO3MHA-11 | 2026-09-01 10:58:40 | 48.25073 | 11.66003 | 83° | 69km/h | 4341m | 3.6m/s | -4.1°C | 29.5% | 604.6hPa | 2.9V | 00:00:00 | 00:28:59 | 00:00:00 | |
| DL6DJ-15 | 2026-09-01 10:58:33 | 48.25052 | 11.65826 | 82° | 77km/h | 4313m | 4.3m/s | -4.2°C | 31.6% | 606.7hPa | 2.9V | 00:00:00 | 00:00:00 | 00:00:00 | |
| DO3MHA-11 | 2026-09-01 10:58:30 | 48.25049 | 11.65739 | 92° | 66km/h | 4302m | 3.8m/s | -4.2°C | 32.7% | 607.5hPa | 2.9V | 00:00:00 | 00:28:49 | 08:30:00 | |
| DO3MHA-11 | 2026-09-01 10:58:20 | 48.25038 | 11.65496 | 84° | 66km/h | 4246m | 5.6m/s | -3.9°C | 32.3% | 612.1hPa | 2.9V | 00:00:00 | 00:28:39 | 00:00:00 | |
| OE3JTB-15 | 2026-09-01 10:58:17 | 48.25032 | 11.65424 | 84° | 68km/h | 4232m | 4.2m/s | 0°C | 0% | 0hPa | 2.9V | 00:00:00 | 00:00:00 | 00:00:00 | |
| DO3MHA-11 | 2026-09-01 10:58:10 | 48.25027 | 11.65248 | 89° | 64km/h | 4206m | 4.1m/s | -3.7°C | 32.4% | 615.2hPa | 2.9V | 00:00:00 | 00:28:29 | 00:00:00 | |
| DL6DJ-15 | 2026-09-01 10:58:02 | 48.25020 | 11.65053 | 85° | 60km/h | 4175m | 4.6m/s | -3.4°C | 29.5% | 617.6hPa | 2.9V | 00:00:00 | 00:00:00 | 00:00:00 | |
| DO3MHA-11 | 2026-09-01 10:58:00 | 48.25018 | 11.65006 | 86° | 69km/h | 4168m | 3.4m/s | -3.3°C | 25.2% | 618.1hPa | 2.9V | 00:00:00 | 00:28:19 | 00:00:00 | |
| DO3MHA-11 | 2026-09-01 10:57:50 | 48.25002 | 11.64742 | 90° | 68km/h | 4130m | 3.9m/s | -3.5°C | 35.7% | 621.0hPa | 2.9V | 00:00:00 | 00:28:09 | 00:00:00 | |
| OE3JTB-15 | 2026-09-01 10:57:47 | 48.25006 | 11.64659 | 94° | 69km/h | 4118m | 7.8m/s | 0°C | 0% | 0hPa | 2.9V | 00:00:00 | 00:28:06 | 00:00:00 | |
| OE5DXL-15 | 2026-09-01 10:57:46 | 48.25006 | 11.64632 | 91° | 71km/h | 4110m | 8.3m/s | -3.3°C | 34.7% | 622.7hPa | 2.9V | 00:00:00 | 00:00:00 | 00:00:00 | |
| DO3MHA-11 | 2026-09-01 10:57:40 | 48.24994 | 11.64488 | 87° | 68km/h | 4070m | 3.5m/s | -3.1°C | 34.1% | 626.0hPa | 2.9V | 00:00:00 | 00:27:59 | 00:00:00 | |
| DL6DJ-15 | 2026-09-01 10:57:31 | 48.24978 | 11.64261 | 75° | 68km/h | 4026m | 5.0m/s | -2.9°C | 31.4% | 629.4hPa | 2.9V | 00:00:00 | 00:00:00 | 00:00:00 | |
| DO3MHA-11 | 2026-09-01 10:57:30 | 48.24974 | 11.64236 | 79° | 75km/h | 4021m | 4.7m/s | -2.8°C | 31.5% | 629.8hPa | 2.9V | 00:00:00 | 00:27:49 | 00:00:00 | |
| DO3MHA-11 | 2026-09-01 10:57:20 | 48.24971 | 11.63953 | 82° | 68km/h | 3975m | 4.8m/s | -2.5°C | 31.3% | 633.4hPa | 2.9V | 00:00:00 | 00:27:39 | 00:00:00 | |
| OE3JTB-15 | 2026-09-01 10:57:18 | 48.24965 | 11.63903 | 78° | 62km/h | 3965m | 7.5m/s | 0°C | 0% | 0hPa | 2.9V | 00:00:00 | 00:00:00 | 00:00:00 | |
| OE5DXL-15 | 2026-09-01 10:57:16 | 48.24959 | 11.63856 | 84° | 64km/h | 3950m | 6.9m/s | -2.3°C | 31.2% | 635.4hPa | 2.9V | 00:00:00 | 00:00:00 | 00:00:00 | |
| DO3MHA-11 | 2026-09-01 10:57:10 | 48.24952 | 11.63711 | 81° | 64km/h | 3919m | 2.9m/s | -2.1°C | 32.3% | 638.1hPa | 2.9V | 00:00:00 | 00:27:29 | 00:00:00 | |
| DL6DJ-15 | 2026-09-01 10:57:00 | 48.24936 | 11.63451 | 81° | 57km/h | 3868m | 4.5m/s | -2.0°C | 32.1% | 642.1hPa | 2.9V | 00:00:00 | 00:00:00 | 00:00:00 | |
| DO3MHA-11 | 2026-09-01 10:56:57 | 48.24933 | 11.63388 | 92° | 62km/h | 3854m | 4.7m/s | -1.9°C | 32.4% | 643.2hPa | 2.9V | 00:00:00 | 00:27:16 | 08:30:00 | |
| DO3MHA-11 | 2026-09-01 10:56:47 | 48.24919 | 11.63148 | 91° | 60km/h | 3807m | 4.5m/s | -1.8°C | 33.1% | 646.7hPa | 2.9V | 00:00:00 | 00:27:06 | 00:00:00 | |
| OE5DXL-15 | 2026-09-01 10:56:45 | 48.24920 | 11.63100 | 92° | 60km/h | 3797m | 5.8m/s | -1.7°C | 33.3% | 647.5hPa | 2.9V | 00:00:00 | 00:00:00 | 00:00:00 | |
| DO3MHA-11 | 2026-09-01 10:56:37 | 48.24914 | 11.62923 | 86° | 55km/h | 3753m | 4.4m/s | -1.6°C | 30.4% | 651.3hPa | 2.9V | 00:00:00 | 00:26:56 | 00:00:00 | |
| DL6DJ-15 | 2026-09-01 10:56:29 | 48.24904 | 11.62761 | 84° | 64km/h | 3719m | 3.5m/s | -1.3°C | 30.1% | 654.2hPa | 2.9V | 00:00:00 | 00:00:00 | 00:00:00 | |
| DO3MHA-11 | 2026-09-01 10:56:27 | 48.24901 | 11.62711 | 85° | 66km/h | 3712m | 3.4m/s | -1.2°C | 30.2% | 654.7hPa | 2.9V | 00:00:00 | 00:26:46 | 00:00:00 | |
| DO3MHA-11 | 2026-09-01 10:56:17 | 48.24888 | 11.62468 | 74° | 57km/h | 3663m | 5.5m/s | -1.1°C | 32.3% | 658.7hPa | 2.9V | 00:00:00 | 00:26:36 | 00:00:00 | |
| OE5DXL-15 | 2026-09-01 10:56:15 | 48.24882 | 11.62427 | 82° | 53km/h | 3651m | 7.0m/s | -1.0°C | 31.6% | 659.6hPa | 2.9V | 00:00:00 | 00:00:00 | 00:00:00 | |
| DO3MHA-11 | 2026-09-01 10:56:07 | 48.24867 | 11.62258 | 78° | 53km/h | 3603m | 6.0m/s | -0.6°C | 30.8% | 663.5hPa | 2.9V | 00:00:00 | 00:26:26 | 00:00:00 | |
| DL6DJ-15 | 2026-09-01 10:55:59 | 48.24851 | 11.62077 | 84° | 49km/h | 3556m | 5.8m/s | -0.4°C | 28.6% | 667.3hPa | 2.9V | 00:00:00 | 00:00:00 | 00:00:00 | |
| DO3MHA-11 | 2026-09-01 10:55:57 | 48.24850 | 11.62058 | 83° | 51km/h | 3551m | 4.2m/s | -0.3°C | 28.1% | 667.7hPa | 2.9V | 00:00:00 | 00:26:16 | 00:00:00 | |
| DO3MHA-11 | 2026-09-01 10:55:48 | 48.24837 | 11.61868 | 80° | 47km/h | 3510m | 4.0m/s | -0.0°C | 26.6% | 671.2hPa | 2.9V | 00:00:00 | 00:26:06 | 00:00:00 | |
| OE5DXL-15 | 2026-09-01 10:55:45 | 48.24832 | 11.61835 | 78° | 49km/h | 3502m | 4.0m/s | -0.0°C | 26.4% | 671.9hPa | 2.9V | 00:00:00 | 00:00:00 | 00:00:00 | |
| DO3MHA-11 | 2026-09-01 10:55:27 | 48.24791 | 11.61503 | 77° | 49km/h | 3420m | 3.6m/s | -0.1°C | 41.8% | 678.9hPa | 2.9V | 00:00:00 | 00:25:46 | 08:30:00 | |
| DO3MHA-11 | 2026-09-01 10:55:17 | 48.24779 | 11.61319 | 95° | 53km/h | 3375m | 3.0m/s | 0.1°C | 41.1% | 682.7hPa | 2.9V | 00:00:00 | 00:25:36 | 00:00:00 | |
| OE5DXL-15 | 2026-09-01 10:55:15 | 48.24779 | 11.61284 | 82° | 51km/h | 3367m | 5.1m/s | 0°C | 0% | 0hPa | 2.9V | 00:00:00 | 00:00:00 | 00:00:00 | |
| DO3MHA-11 | 2026-09-01 10:55:08 | 48.24741 | 11.61128 | 74° | 51km/h | 3313m | 5.6m/s | 0.3°C | 42.1% | 688.1hPa | 2.9V | 00:00:00 | 00:25:26 | 00:00:00 | |
| DL6DJ-15 | 2026-09-01 10:54:56 | 48.24711 | 11.60925 | 81° | 40km/h | 3252m | 4.4m/s | 0.5°C | 43.3% | 693.5hPa | 2.9V | 00:00:00 | 00:00:00 | 00:00:00 | |
| DO3MHA-11 | 2026-09-01 10:54:47 | 48.24684 | 11.60758 | 88° | 42km/h | 3205m | 5.4m/s | 0.8°C | 41.9% | 697.7hPa | 2.9V | 00:00:00 | 00:25:06 | 00:00:00 | |
| OE5DXL-15 | 2026-09-01 10:54:45 | 48.24684 | 11.60725 | 94° | 44km/h | 3193m | 6.6m/s | 0°C | 0% | 0hPa | 2.9V | 00:00:00 | 00:00:00 | 00:00:00 | |
| DO3MHA-11 | 2026-09-01 10:54:37 | 48.24675 | 11.60600 | 65° | 46km/h | 3143m | 5.1m/s | 1.2°C | 42.8% | 703.0hPa | 2.9V | 00:00:00 | 00:24:56 | 00:00:00 | |
| DO3MHA-11 | 2026-09-01 10:54:27 | 48.24658 | 11.60432 | 70° | 40km/h | 3085m | 5.2m/s | 1.0°C | 56.9% | 708.1hPa | 2.9V | 00:00:00 | 00:24:46 | 00:00:00 | |
| DL6DJ-15 | 2026-09-01 10:54:25 | 48.24650 | 11.60405 | 67° | 42km/h | 3072m | 7.0m/s | 0.8°C | 61.3% | 709.2hPa | 2.9V | 00:00:00 | 00:00:00 | 00:00:00 | |
| DO3MHA-11 | 2026-09-01 10:54:17 | 48.24631 | 11.60290 | 70° | 40km/h | 3029m | 6.7m/s | 0.4°C | 79.9% | 713.0hPa | 2.9V | 00:00:00 | 00:24:36 | 00:00:00 | |
| OE5DXL-15 | 2026-09-01 10:54:11 | 48.24625 | 11.60207 | 102° | 37km/h | 3000m | 6.5m/s | 0°C | 0% | 0hPa | 2.9V | 00:00:00 | 00:24:30 | 00:00:00 | |
| DO3MHA-11 | 2026-09-01 10:54:07 | 48.24635 | 11.60143 | 106° | 33km/h | 2975m | 4.8m/s | 0.3°C | 89.0% | 717.9hPa | 2.9V | 00:00:00 | 00:24:26 | 00:00:00 | |
| DL6DJ-15 | 2026-09-01 10:53:54 | 48.24632 | 11.59987 | 102° | 26km/h | 2898m | 6.5m/s | 0.8°C | 91.1% | 724.9hPa | 2.9V | 00:00:00 | 00:00:00 | 00:00:00 | |
| DO3MHA-11 | 2026-09-01 10:53:47 | 48.24634 | 11.59908 | 112° | 37km/h | 2861m | 5.6m/s | 1.1°C | 89.5% | 728.1hPa | 2.9V | 00:00:00 | 00:24:06 | 00:00:00 | |
| OE5DXL-15 | 2026-09-01 10:53:41 | 48.24641 | 11.59837 | 82° | 37km/h | 2829m | 4.2m/s | 0°C | 0% | 0hPa | 2.9V | 00:00:00 | 00:00:00 | 00:00:00 | |
| DO3MHA-11 | 2026-09-01 10:53:37 | 48.24640 | 11.59772 | 102° | 37km/h | 2808m | 5.5m/s | 1.7°C | 84.7% | 732.8hPa | 2.9V | 00:00:00 | 00:23:56 | 00:00:00 | |
| DO3MHA-11 | 2026-09-01 10:53:27 | 48.24630 | 11.59639 | 77° | 35km/h | 2758m | 5.3m/s | 2.0°C | 86.3% | 737.6hPa | 2.9V | 00:00:00 | 00:23:46 | 00:00:00 | |
| DL6DJ-15 | 2026-09-01 10:53:23 | 48.24615 | 11.59571 | 75° | 26km/h | 2732m | 4.4m/s | 2.1°C | 90.0% | 740.0hPa | 2.9V | 00:00:00 | 00:00:00 | 00:00:00 | |
| DO3MHA-11 | 2026-09-01 10:53:17 | 48.24621 | 11.59517 | 108° | 44km/h | 2710m | 4.4m/s | 2.2°C | 89.7% | 742.0hPa | 2.9V | 00:00:00 | 00:23:36 | 00:00:00 | |
| DO3MHA-11 | 2026-09-01 10:53:07 | 48.24634 | 11.59357 | 92° | 27km/h | 2665m | 4.6m/s | 2.7°C | 87.5% | 746.4hPa | 2.9V | 00:00:00 | 00:23:26 | 00:00:00 | |
| DL6DJ-15 | 2026-09-01 10:52:52 | 48.24616 | 11.59191 | 72° | 33km/h | 2582m | 3.2m/s | 3.5°C | 81.6% | 753.9hPa | 2.9V | 00:00:00 | 00:00:00 | 00:00:00 | |
| DO3MHA-11 | 2026-09-01 10:52:47 | 48.24610 | 11.59128 | 92° | 38km/h | 2564m | 4.3m/s | 3.7°C | 80.3% | 755.4hPa | 2.9V | 00:00:00 | 00:23:06 | 00:00:00 | |
| DO3MHA-11 | 2026-09-01 10:52:37 | 48.24633 | 11.58991 | 84° | 35km/h | 2523m | 3.7m/s | 3.6°C | 86.8% | 759.3hPa | 2.9V | 00:00:00 | 00:22:56 | 00:00:00 | |
| DO3MHA-11 | 2026-09-01 10:52:27 | 48.24629 | 11.58856 | 91° | 37km/h | 2473m | 6.1m/s | 3.8°C | 87.1% | 763.9hPa | 2.9V | 00:00:00 | 00:22:46 | 08:30:00 | |
| DL6DJ-15 | 2026-09-01 10:52:21 | 48.24640 | 11.58756 | 85° | 26km/h | 2443m | 3.5m/s | 4.1°C | 87.3% | -1.0hPa | 2.9V | 00:00:00 | 00:00:00 | 00:00:00 | |
| DO3MHA-11 | 2026-09-01 10:52:17 | 48.24637 | 11.58727 | 85° | 38km/h | 2427m | 5.1m/s | 4.2°C | 85.9% | 768.2hPa | 2.9V | 00:00:00 | 00:22:36 | 00:00:00 | |
| DO3MHA-11 | 2026-09-01 10:52:07 | 48.24632 | 11.58581 | 68° | 42km/h | 2388m | 4.6m/s | 4.5°C | 85.0% | 771.7hPa | 2.9V | 00:00:00 | 00:22:26 | 00:00:00 | |
| DL6DJ-15 | 2026-09-01 10:51:50 | 48.24607 | 11.58263 | 70° | 35km/h | 2306m | 4.4m/s | 4.9°C | 90.3% | -1.0hPa | 2.9V | 00:00:00 | 00:00:00 | 00:00:00 | |
| DO3MHA-11 | 2026-09-01 10:51:47 | 48.24605 | 11.58251 | 76° | 33km/h | 2302m | 4.2m/s | 4.9°C | 89.7% | 780.0hPa | 2.9V | 00:00:00 | 00:22:06 | 00:00:00 | |
| DO3MHA-11 | 2026-09-01 10:51:37 | 48.24605 | 11.58125 | 105° | 31km/h | 2252m | 6.6m/s | 5.4°C | 87.5% | 784.6hPa | 2.9V | 00:00:00 | 00:21:56 | 00:00:00 | |
| DO3MHA-11 | 2026-09-01 10:51:27 | 48.24601 | 11.58012 | 86° | 40km/h | 2201m | 5.3m/s | 5.7°C | 87.7% | 789.7hPa | 2.9V | 00:00:00 | 00:21:46 | 00:00:00 | |
| DL6DJ-15 | 2026-09-01 10:51:20 | 48.24592 | 11.57878 | 106° | 35km/h | 2161m | 3.5m/s | 6.1°C | 86.7% | -1.0hPa | 2.9V | 00:00:00 | 00:00:00 | 00:00:00 | |
| DO3MHA-11 | 2026-09-01 10:51:17 | 48.24595 | 11.57866 | 113° | 27km/h | 2156m | 6.0m/s | 6.1°C | 85.8% | 794.0hPa | 2.9V | 00:00:00 | 00:21:36 | 00:00:00 | |
| DO3MHA-11 | 2026-09-01 10:51:07 | 48.24585 | 11.57767 | 80° | 37km/h | 2116m | 2.8m/s | 6.5°C | 84.9% | 798.1hPa | 2.9V | 00:00:00 | 00:21:26 | 00:00:00 | |
| DO3MHA-11 | 2026-09-01 10:50:57 | 48.24597 | 11.57633 | 93° | 33km/h | 2079m | 2.9m/s | 6.8°C | 83.5% | 801.8hPa | 2.9V | 00:00:00 | 00:21:16 | 08:30:00 | |
| DO3MHA-11 | 2026-09-01 10:50:47 | 48.24587 | 11.57509 | 108° | 35km/h | 2046m | 2.7m/s | 7.1°C | 82.1% | 804.8hPa | 2.9V | 00:00:00 | 00:21:06 | 00:00:00 | |
| DO3MHA-11 | 2026-09-01 10:50:37 | 48.24595 | 11.57379 | 96° | 42km/h | 2005m | 5.5m/s | 7.5°C | 81.0% | 808.8hPa | 2.9V | 00:00:00 | 00:20:56 | 00:00:00 | |
| DO3MHA-11 | 2026-09-01 10:50:27 | 48.24592 | 11.57222 | 89° | 31km/h | 1966m | 2.2m/s | 7.8°C | 80.3% | 812.6hPa | 2.9V | 00:00:00 | 00:20:46 | 00:00:00 | |
| DO3MHA-11 | 2026-09-01 10:50:17 | 48.24589 | 11.57108 | 81° | 29km/h | 1926m | 4.9m/s | 8.1°C | 80.7% | 816.6hPa | 2.9V | 00:00:00 | 00:20:36 | 00:00:00 | |
| DO3MHA-11 | 2026-09-01 10:50:07 | 48.24599 | 11.57008 | 87° | 27km/h | 1889m | 3.6m/s | 8.4°C | 79.6% | 820.4hPa | 2.9V | 00:00:00 | 00:20:26 | 00:00:00 | |
| DO3MHA-11 | 2026-09-01 10:49:57 | 48.24595 | 11.56901 | 88° | 29km/h | 1833m | 6.0m/s | 8.8°C | 78.8% | 826.1hPa | 2.9V | 00:00:00 | 00:20:16 | 00:00:00 | |
| DO3MHA-11 | 2026-09-01 10:49:47 | 48.24580 | 11.56793 | 88° | 24km/h | 1778m | 4.6m/s | 9.1°C | 82.8% | 831.5hPa | 2.9V | 00:00:00 | 00:20:06 | 00:00:00 | |
| DO3MHA-11 | 2026-09-01 10:49:37 | 48.24570 | 11.56708 | 97° | 31km/h | 1729m | 5.6m/s | 9.5°C | 81.2% | 836.5hPa | 2.9V | 00:00:00 | 00:19:56 | 00:00:00 | |
| DO3MHA-11 | 2026-09-01 10:49:28 | 48.24571 | 11.56594 | 76° | 31km/h | 1676m | 6.4m/s | 10.0°C | 79.9% | 841.7hPa | 2.9V | 00:00:00 | 00:19:46 | 08:30:00 | |
| DO3MHA-11 | 2026-09-01 10:49:17 | 48.24560 | 11.56480 | 93° | 26km/h | 1636m | 4.0m/s | 10.4°C | 76.5% | 845.9hPa | 2.9V | 00:00:00 | 00:19:36 | 00:00:00 | |
| DO3MHA-11 | 2026-09-01 10:49:07 | 48.24540 | 11.56386 | 87° | 29km/h | 1590m | 5.6m/s | 10.8°C | 78.3% | 850.2hPa | 2.9V | 00:00:00 | 00:19:26 | 00:00:00 | |
| DO3MHA-11 | 2026-09-01 10:48:57 | 48.24519 | 11.56285 | 104° | 16km/h | 1547m | 4.9m/s | 11.3°C | 74.9% | 854.7hPa | 2.9V | 00:00:00 | 00:19:16 | 00:00:00 | |
| DO3MHA-11 | 2026-09-01 10:48:47 | 48.24523 | 11.56221 | 100° | 27km/h | 1496m | 5.5m/s | 11.5°C | 82.1% | 859.9hPa | 2.9V | 00:00:00 | 00:19:06 | 00:00:00 | |
| DO3MHA-11 | 2026-09-01 10:48:37 | 48.24523 | 11.56114 | 104° | 29km/h | 1439m | 5.9m/s | 12.1°C | 76.2% | 865.7hPa | 2.9V | 00:00:00 | 00:18:56 | 00:00:00 | |
| DO3MHA-11 | 2026-09-01 10:48:27 | 48.24515 | 11.56008 | 106° | 13km/h | 1387m | 7.0m/s | 12.6°C | 73.9% | 871.0hPa | 2.9V | 00:00:00 | 00:18:46 | 00:00:00 | |
| DO3MHA-11 | 2026-09-01 10:48:17 | 48.24523 | 11.55960 | 54° | 15km/h | 1322m | 6.5m/s | 13.2°C | 72.7% | 877.9hPa | 2.9V | 00:00:00 | 00:18:36 | 00:00:00 | |
| DO3MHA-11 | 2026-09-01 10:48:07 | 48.24510 | 11.55914 | 108° | 9km/h | 1256m | 5.3m/s | 13.7°C | 72.1% | 884.6hPa | 2.9V | 00:00:00 | 00:18:26 | 00:00:00 | |
| DO3MHA-11 | 2026-09-01 10:47:57 | 48.24521 | 11.55900 | 50° | 15km/h | 1208m | 4.7m/s | 14.2°C | 70.1% | 889.9hPa | 2.9V | 00:00:00 | 00:18:16 | 08:30:00 | |
| DO3MHA-11 | 2026-09-01 10:47:47 | 48.24514 | 11.55848 | 71° | 13km/h | 1159m | 5.2m/s | 14.6°C | 68.4% | 895.2hPa | 2.9V | 00:00:00 | 00:18:06 | 00:00:00 | |
| DO3MHA-11 | 2026-09-01 10:47:37 | 48.24514 | 11.55807 | 62° | 20km/h | 1120m | 4.5m/s | 15.0°C | 67.0% | 899.2hPa | 2.9V | 00:00:00 | 00:17:56 | 00:00:00 | |
| DO3MHA-11 | 2026-09-01 10:47:27 | 48.24516 | 11.55742 | 43° | 13km/h | 1081m | 5.2m/s | 15.4°C | 65.5% | 903.5hPa | 2.9V | 00:00:00 | 00:17:46 | 00:00:00 | |
| DO3MHA-11 | 2026-09-01 10:47:17 | 48.24508 | 11.55694 | 62° | 16km/h | 1038m | 6.1m/s | 15.8°C | 62.6% | 908.0hPa | 0V | 00:00:00 | 00:17:36 | 00:00:00 | |
| DO3MHA-11 | 2026-09-01 10:47:07 | 48.24522 | 11.55659 | 224° | 16km/h | 990m | 3.4m/s | 0°C | 0% | 0hPa | 0V | 00:00:00 | 00:17:26 | 00:00:00 | |
| DO3MHA-11 | 2026-09-01 10:46:57 | 48.24523 | 11.55608 | 153° | 13km/h | 954m | 1.7m/s | 0°C | 0% | 0hPa | 0V | 00:00:00 | 00:17:16 | 00:00:00 | |
| DO3MHA-11 | 2026-09-01 10:46:47 | 48.24526 | 11.55569 | 85° | 20km/h | 919m | 4.9m/s | 0°C | 0% | 0hPa | 0V | 00:00:00 | 00:17:06 | 00:00:00 | |
| DO3MHA-11 | 2026-09-01 10:46:37 | 48.24511 | 11.55510 | 49° | 15km/h | 884m | 4.6m/s | 0°C | 0% | 0hPa | 0V | 00:00:00 | 00:16:56 | 00:00:00 | |
| DO3MHA-11 | 2026-09-01 10:46:27 | 48.24494 | 11.55477 | 58° | 9km/h | 842m | 4.3m/s | 0°C | 0% | 0hPa | 0V | 00:00:00 | 00:16:46 | 00:00:00 |